<?xml version="1.0" encoding="UTF-8" standalone="no" ?>
<gpx xmlns="http://www.topografix.com/GPX/1/1" xmlns:xsi="http://www.w3.org/2001/XMLSchema-instance" xsi:schemaLocation="http://www.topografix.com/GPX/1/1 http://www.topografix.com/GPX/1/1/gpx.xsd" version="1.1" creator="VisuGPX - https://www.visugpx.com">
  <metadata>
    <name>Decrassage Dominical</name>
    <desc><![CDATA[Petite sortie agreable. Terrain encore bien roulant pour un 20 decembre]]></desc>
  </metadata>
  <wpt lat="47.49183" lon="6.76485">
    <ele>316</ele>
    <name><![CDATA[Point de cheminement 1]]></name>
    <desc><![CDATA[]]></desc>
  </wpt>
  <wpt lat="47.49328" lon="6.74921">
    <ele>350</ele>
    <name><![CDATA[Point de cheminement 2]]></name>
    <desc><![CDATA[]]></desc>
  </wpt>
  <wpt lat="47.48916" lon="6.74158">
    <ele>422</ele>
    <name><![CDATA[Point de cheminement 3]]></name>
    <desc><![CDATA[]]></desc>
  </wpt>
  <wpt lat="47.48376" lon="6.75612">
    <ele>355</ele>
    <name><![CDATA[Point de cheminement 4]]></name>
    <desc><![CDATA[]]></desc>
  </wpt>
  <wpt lat="47.48592" lon="6.73985">
    <ele>395</ele>
    <name><![CDATA[Point de cheminement 5]]></name>
    <desc><![CDATA[]]></desc>
  </wpt>
  <wpt lat="47.49084" lon="6.71072">
    <ele>417</ele>
    <name><![CDATA[Point de cheminement 6]]></name>
    <desc><![CDATA[]]></desc>
  </wpt>
  <wpt lat="47.4827" lon="6.69006">
    <ele>357</ele>
    <name><![CDATA[Point de cheminement 7]]></name>
    <desc><![CDATA[]]></desc>
  </wpt>
  <wpt lat="47.49336" lon="6.66682">
    <ele>401</ele>
    <name><![CDATA[Point de cheminement 8]]></name>
    <desc><![CDATA[]]></desc>
  </wpt>
  <wpt lat="47.50669" lon="6.67539">
    <ele>389</ele>
    <name><![CDATA[Point de cheminement 9]]></name>
    <desc><![CDATA[]]></desc>
  </wpt>
  <wpt lat="47.51352" lon="6.70231">
    <ele>366</ele>
    <name><![CDATA[Point de cheminement 10]]></name>
    <desc><![CDATA[]]></desc>
  </wpt>
  <wpt lat="47.49942" lon="6.72748">
    <ele>343</ele>
    <name><![CDATA[Point de cheminement 11]]></name>
    <desc><![CDATA[]]></desc>
  </wpt>
  <wpt lat="47.5072" lon="6.75694">
    <ele>363</ele>
    <name><![CDATA[Point de cheminement 12]]></name>
    <desc><![CDATA[]]></desc>
  </wpt>
  <wpt lat="47.51801" lon="6.77472">
    <ele>388</ele>
    <name><![CDATA[Point de cheminement 13]]></name>
    <desc><![CDATA[]]></desc>
  </wpt>
  <trk>
    <name><![CDATA[Rue Antoine Coysevox]]></name>
    <desc><![CDATA[]]></desc>
    <trkseg>
      <trkpt lat="47.51768" lon="6.77468">
        <ele>388</ele>
        <time>2015-12-20T08:20:34.000Z</time>
      </trkpt>
      <trkpt lat="47.51769" lon="6.77471">
        <ele>388</ele>
        <time>2015-12-20T08:20:37.000Z</time>
      </trkpt>
      <trkpt lat="47.51762" lon="6.77468">
        <ele>388</ele>
        <time>2015-12-20T08:20:38.000Z</time>
      </trkpt>
      <trkpt lat="47.5174" lon="6.77466">
        <ele>389</ele>
        <time>2015-12-20T08:20:39.000Z</time>
      </trkpt>
      <trkpt lat="47.51736" lon="6.77467">
        <ele>389</ele>
        <time>2015-12-20T08:20:40.000Z</time>
      </trkpt>
      <trkpt lat="47.51735" lon="6.77467">
        <ele>389</ele>
        <time>2015-12-20T08:20:41.000Z</time>
      </trkpt>
      <trkpt lat="47.51733" lon="6.77467">
        <ele>389</ele>
        <time>2015-12-20T08:20:42.000Z</time>
      </trkpt>
      <trkpt lat="47.51725" lon="6.77468">
        <ele>389</ele>
        <time>2015-12-20T08:20:43.000Z</time>
      </trkpt>
      <trkpt lat="47.51721" lon="6.77468">
        <ele>389</ele>
        <time>2015-12-20T08:20:44.000Z</time>
      </trkpt>
      <trkpt lat="47.51719" lon="6.77468">
        <ele>388</ele>
        <time>2015-12-20T08:20:45.000Z</time>
      </trkpt>
      <trkpt lat="47.51716" lon="6.77468">
        <ele>388</ele>
        <time>2015-12-20T08:20:46.000Z</time>
      </trkpt>
      <trkpt lat="47.51714" lon="6.77468">
        <ele>388</ele>
        <time>2015-12-20T08:20:47.000Z</time>
      </trkpt>
      <trkpt lat="47.51712" lon="6.77468">
        <ele>388</ele>
        <time>2015-12-20T08:20:48.000Z</time>
      </trkpt>
      <trkpt lat="47.51709" lon="6.77467">
        <ele>388</ele>
        <time>2015-12-20T08:20:49.000Z</time>
      </trkpt>
      <trkpt lat="47.51707" lon="6.77467">
        <ele>388</ele>
        <time>2015-12-20T08:20:50.000Z</time>
      </trkpt>
      <trkpt lat="47.51703" lon="6.77467">
        <ele>388</ele>
        <time>2015-12-20T08:20:51.000Z</time>
      </trkpt>
      <trkpt lat="47.517" lon="6.77467">
        <ele>388</ele>
        <time>2015-12-20T08:20:52.000Z</time>
      </trkpt>
      <trkpt lat="47.51698" lon="6.77467">
        <ele>388</ele>
        <time>2015-12-20T08:20:53.000Z</time>
      </trkpt>
      <trkpt lat="47.51701" lon="6.77466">
        <ele>388</ele>
        <time>2015-12-20T08:21:07.000Z</time>
      </trkpt>
      <trkpt lat="47.51704" lon="6.77465">
        <ele>388</ele>
        <time>2015-12-20T08:21:08.000Z</time>
      </trkpt>
      <trkpt lat="47.51707" lon="6.77464">
        <ele>388</ele>
        <time>2015-12-20T08:21:10.000Z</time>
      </trkpt>
      <trkpt lat="47.5171" lon="6.77464">
        <ele>388</ele>
        <time>2015-12-20T08:21:11.000Z</time>
      </trkpt>
      <trkpt lat="47.51714" lon="6.77463">
        <ele>388</ele>
        <time>2015-12-20T08:21:19.000Z</time>
      </trkpt>
      <trkpt lat="47.5172" lon="6.77463">
        <ele>388</ele>
        <time>2015-12-20T08:21:20.000Z</time>
      </trkpt>
      <trkpt lat="47.51728" lon="6.77462">
        <ele>388</ele>
        <time>2015-12-20T08:21:21.000Z</time>
      </trkpt>
      <trkpt lat="47.5175" lon="6.77461">
        <ele>389</ele>
        <time>2015-12-20T08:21:22.000Z</time>
      </trkpt>
      <trkpt lat="47.51719" lon="6.77455">
        <ele>388</ele>
        <time>2015-12-20T08:21:23.000Z</time>
      </trkpt>
      <trkpt lat="47.51722" lon="6.77455">
        <ele>388</ele>
        <time>2015-12-20T08:21:25.000Z</time>
      </trkpt>
      <trkpt lat="47.51724" lon="6.77455">
        <ele>388</ele>
        <time>2015-12-20T08:21:26.000Z</time>
      </trkpt>
      <trkpt lat="47.51728" lon="6.77458">
        <ele>388</ele>
        <time>2015-12-20T08:21:28.000Z</time>
      </trkpt>
      <trkpt lat="47.51731" lon="6.77459">
        <ele>388</ele>
        <time>2015-12-20T08:21:29.000Z</time>
      </trkpt>
      <trkpt lat="47.51733" lon="6.77461">
        <ele>389</ele>
        <time>2015-12-20T08:21:30.000Z</time>
      </trkpt>
      <trkpt lat="47.51735" lon="6.77463">
        <ele>389</ele>
        <time>2015-12-20T08:21:31.000Z</time>
      </trkpt>
      <trkpt lat="47.51755" lon="6.77469">
        <ele>388</ele>
        <time>2015-12-20T08:21:32.000Z</time>
      </trkpt>
      <trkpt lat="47.51759" lon="6.7747">
        <ele>388</ele>
        <time>2015-12-20T08:21:34.000Z</time>
      </trkpt>
      <trkpt lat="47.5176" lon="6.7747">
        <ele>388</ele>
        <time>2015-12-20T08:21:35.000Z</time>
      </trkpt>
      <trkpt lat="47.51761" lon="6.77469">
        <ele>388</ele>
        <time>2015-12-20T08:21:37.000Z</time>
      </trkpt>
      <trkpt lat="47.51776" lon="6.77471">
        <ele>388</ele>
        <time>2015-12-20T08:21:38.000Z</time>
      </trkpt>
      <trkpt lat="47.51774" lon="6.77468">
        <ele>388</ele>
        <time>2015-12-20T08:21:39.000Z</time>
      </trkpt>
      <trkpt lat="47.51772" lon="6.77466">
        <ele>388</ele>
        <time>2015-12-20T08:21:40.000Z</time>
      </trkpt>
      <trkpt lat="47.5177" lon="6.77466">
        <ele>388</ele>
        <time>2015-12-20T08:21:41.000Z</time>
      </trkpt>
      <trkpt lat="47.51767" lon="6.77464">
        <ele>388</ele>
        <time>2015-12-20T08:21:42.000Z</time>
      </trkpt>
      <trkpt lat="47.51765" lon="6.77464">
        <ele>388</ele>
        <time>2015-12-20T08:21:43.000Z</time>
      </trkpt>
      <trkpt lat="47.51762" lon="6.77464">
        <ele>388</ele>
        <time>2015-12-20T08:21:44.000Z</time>
      </trkpt>
      <trkpt lat="47.51759" lon="6.77464">
        <ele>388</ele>
        <time>2015-12-20T08:21:45.000Z</time>
      </trkpt>
      <trkpt lat="47.51756" lon="6.77464">
        <ele>388</ele>
        <time>2015-12-20T08:21:46.000Z</time>
      </trkpt>
      <trkpt lat="47.51753" lon="6.77464">
        <ele>388</ele>
        <time>2015-12-20T08:21:47.000Z</time>
      </trkpt>
      <trkpt lat="47.51749" lon="6.77463">
        <ele>389</ele>
        <time>2015-12-20T08:21:48.000Z</time>
      </trkpt>
      <trkpt lat="47.51746" lon="6.77463">
        <ele>389</ele>
        <time>2015-12-20T08:21:49.000Z</time>
      </trkpt>
      <trkpt lat="47.51742" lon="6.77463">
        <ele>389</ele>
        <time>2015-12-20T08:21:50.000Z</time>
      </trkpt>
      <trkpt lat="47.51739" lon="6.77463">
        <ele>389</ele>
        <time>2015-12-20T08:21:51.000Z</time>
      </trkpt>
      <trkpt lat="47.51736" lon="6.77464">
        <ele>389</ele>
        <time>2015-12-20T08:21:52.000Z</time>
      </trkpt>
      <trkpt lat="47.51734" lon="6.77465">
        <ele>389</ele>
        <time>2015-12-20T08:21:53.000Z</time>
      </trkpt>
      <trkpt lat="47.51732" lon="6.77467">
        <ele>389</ele>
        <time>2015-12-20T08:21:54.000Z</time>
      </trkpt>
      <trkpt lat="47.51729" lon="6.77469">
        <ele>389</ele>
        <time>2015-12-20T08:21:55.000Z</time>
      </trkpt>
      <trkpt lat="47.51728" lon="6.77473">
        <ele>389</ele>
        <time>2015-12-20T08:21:56.000Z</time>
      </trkpt>
      <trkpt lat="47.51726" lon="6.77477">
        <ele>389</ele>
        <time>2015-12-20T08:21:57.000Z</time>
      </trkpt>
      <trkpt lat="47.51725" lon="6.77483">
        <ele>389</ele>
        <time>2015-12-20T08:21:58.000Z</time>
      </trkpt>
      <trkpt lat="47.51725" lon="6.77489">
        <ele>389</ele>
        <time>2015-12-20T08:21:59.000Z</time>
      </trkpt>
      <trkpt lat="47.51724" lon="6.77495">
        <ele>389</ele>
        <time>2015-12-20T08:22:00.000Z</time>
      </trkpt>
      <trkpt lat="47.51723" lon="6.77501">
        <ele>390</ele>
        <time>2015-12-20T08:22:01.000Z</time>
      </trkpt>
      <trkpt lat="47.51723" lon="6.77507">
        <ele>390</ele>
        <time>2015-12-20T08:22:02.000Z</time>
      </trkpt>
      <trkpt lat="47.51722" lon="6.77512">
        <ele>390</ele>
        <time>2015-12-20T08:22:03.000Z</time>
      </trkpt>
      <trkpt lat="47.5172" lon="6.77517">
        <ele>390</ele>
        <time>2015-12-20T08:22:04.000Z</time>
      </trkpt>
      <trkpt lat="47.51718" lon="6.7752">
        <ele>390</ele>
        <time>2015-12-20T08:22:05.000Z</time>
      </trkpt>
      <trkpt lat="47.51717" lon="6.77524">
        <ele>390</ele>
        <time>2015-12-20T08:22:06.000Z</time>
      </trkpt>
      <trkpt lat="47.51715" lon="6.77528">
        <ele>390</ele>
        <time>2015-12-20T08:22:07.000Z</time>
      </trkpt>
      <trkpt lat="47.51714" lon="6.77531">
        <ele>390</ele>
        <time>2015-12-20T08:22:08.000Z</time>
      </trkpt>
      <trkpt lat="47.51712" lon="6.77535">
        <ele>390</ele>
        <time>2015-12-20T08:22:09.000Z</time>
      </trkpt>
      <trkpt lat="47.5171" lon="6.77536">
        <ele>390</ele>
        <time>2015-12-20T08:22:10.000Z</time>
      </trkpt>
      <trkpt lat="47.51706" lon="6.77536">
        <ele>390</ele>
        <time>2015-12-20T08:22:11.000Z</time>
      </trkpt>
      <trkpt lat="47.517" lon="6.77528">
        <ele>390</ele>
        <time>2015-12-20T08:22:12.000Z</time>
      </trkpt>
      <trkpt lat="47.51696" lon="6.77524">
        <ele>390</ele>
        <time>2015-12-20T08:22:13.000Z</time>
      </trkpt>
      <trkpt lat="47.51693" lon="6.7752">
        <ele>390</ele>
        <time>2015-12-20T08:22:14.000Z</time>
      </trkpt>
      <trkpt lat="47.51688" lon="6.77517">
        <ele>390</ele>
        <time>2015-12-20T08:22:15.000Z</time>
      </trkpt>
      <trkpt lat="47.51684" lon="6.77513">
        <ele>390</ele>
        <time>2015-12-20T08:22:16.000Z</time>
      </trkpt>
      <trkpt lat="47.51679" lon="6.77507">
        <ele>389</ele>
        <time>2015-12-20T08:22:17.000Z</time>
      </trkpt>
      <trkpt lat="47.51675" lon="6.77502">
        <ele>389</ele>
        <time>2015-12-20T08:22:18.000Z</time>
      </trkpt>
      <trkpt lat="47.51671" lon="6.77498">
        <ele>389</ele>
        <time>2015-12-20T08:22:19.000Z</time>
      </trkpt>
      <trkpt lat="47.51667" lon="6.77492">
        <ele>389</ele>
        <time>2015-12-20T08:22:20.000Z</time>
      </trkpt>
      <trkpt lat="47.51662" lon="6.77487">
        <ele>388</ele>
        <time>2015-12-20T08:22:21.000Z</time>
      </trkpt>
      <trkpt lat="47.51658" lon="6.77482">
        <ele>387</ele>
        <time>2015-12-20T08:22:22.000Z</time>
      </trkpt>
      <trkpt lat="47.51654" lon="6.77477">
        <ele>387</ele>
        <time>2015-12-20T08:22:23.000Z</time>
      </trkpt>
      <trkpt lat="47.5165" lon="6.77473">
        <ele>387</ele>
        <time>2015-12-20T08:22:24.000Z</time>
      </trkpt>
      <trkpt lat="47.51646" lon="6.77468">
        <ele>386</ele>
        <time>2015-12-20T08:22:25.000Z</time>
      </trkpt>
      <trkpt lat="47.51641" lon="6.77462">
        <ele>386</ele>
        <time>2015-12-20T08:22:26.000Z</time>
      </trkpt>
      <trkpt lat="47.51636" lon="6.77457">
        <ele>386</ele>
        <time>2015-12-20T08:22:27.000Z</time>
      </trkpt>
      <trkpt lat="47.51631" lon="6.7745">
        <ele>386</ele>
        <time>2015-12-20T08:22:28.000Z</time>
      </trkpt>
      <trkpt lat="47.51626" lon="6.77443">
        <ele>386</ele>
        <time>2015-12-20T08:22:29.000Z</time>
      </trkpt>
      <trkpt lat="47.5162" lon="6.77437">
        <ele>385</ele>
        <time>2015-12-20T08:22:30.000Z</time>
      </trkpt>
      <trkpt lat="47.51614" lon="6.7743">
        <ele>385</ele>
        <time>2015-12-20T08:22:31.000Z</time>
      </trkpt>
      <trkpt lat="47.51608" lon="6.77423">
        <ele>385</ele>
        <time>2015-12-20T08:22:32.000Z</time>
      </trkpt>
      <trkpt lat="47.51601" lon="6.77417">
        <ele>384</ele>
        <time>2015-12-20T08:22:33.000Z</time>
      </trkpt>
      <trkpt lat="47.51594" lon="6.7741">
        <ele>383</ele>
        <time>2015-12-20T08:22:34.000Z</time>
      </trkpt>
      <trkpt lat="47.51588" lon="6.77403">
        <ele>383</ele>
        <time>2015-12-20T08:22:35.000Z</time>
      </trkpt>
      <trkpt lat="47.51581" lon="6.77395">
        <ele>382</ele>
        <time>2015-12-20T08:22:36.000Z</time>
      </trkpt>
      <trkpt lat="47.51575" lon="6.77387">
        <ele>381</ele>
        <time>2015-12-20T08:22:37.000Z</time>
      </trkpt>
      <trkpt lat="47.51569" lon="6.77378">
        <ele>381</ele>
        <time>2015-12-20T08:22:38.000Z</time>
      </trkpt>
      <trkpt lat="47.5156" lon="6.77373">
        <ele>381</ele>
        <time>2015-12-20T08:22:39.000Z</time>
      </trkpt>
      <trkpt lat="47.51553" lon="6.77364">
        <ele>381</ele>
        <time>2015-12-20T08:22:40.000Z</time>
      </trkpt>
      <trkpt lat="47.51547" lon="6.77356">
        <ele>380</ele>
        <time>2015-12-20T08:22:41.000Z</time>
      </trkpt>
      <trkpt lat="47.5154" lon="6.77349">
        <ele>380</ele>
        <time>2015-12-20T08:22:42.000Z</time>
      </trkpt>
      <trkpt lat="47.51533" lon="6.77341">
        <ele>380</ele>
        <time>2015-12-20T08:22:43.000Z</time>
      </trkpt>
      <trkpt lat="47.51526" lon="6.77332">
        <ele>378</ele>
        <time>2015-12-20T08:22:44.000Z</time>
      </trkpt>
      <trkpt lat="47.51518" lon="6.77324">
        <ele>378</ele>
        <time>2015-12-20T08:22:45.000Z</time>
      </trkpt>
      <trkpt lat="47.51511" lon="6.77315">
        <ele>378</ele>
        <time>2015-12-20T08:22:46.000Z</time>
      </trkpt>
      <trkpt lat="47.51503" lon="6.77306">
        <ele>378</ele>
        <time>2015-12-20T08:22:47.000Z</time>
      </trkpt>
      <trkpt lat="47.51497" lon="6.77294">
        <ele>377</ele>
        <time>2015-12-20T08:22:48.000Z</time>
      </trkpt>
      <trkpt lat="47.51494" lon="6.77282">
        <ele>377</ele>
        <time>2015-12-20T08:22:49.000Z</time>
      </trkpt>
      <trkpt lat="47.51491" lon="6.77268">
        <ele>376</ele>
        <time>2015-12-20T08:22:50.000Z</time>
      </trkpt>
      <trkpt lat="47.5149" lon="6.77256">
        <ele>376</ele>
        <time>2015-12-20T08:22:51.000Z</time>
      </trkpt>
      <trkpt lat="47.5149" lon="6.77243">
        <ele>376</ele>
        <time>2015-12-20T08:22:52.000Z</time>
      </trkpt>
      <trkpt lat="47.51489" lon="6.77231">
        <ele>375</ele>
        <time>2015-12-20T08:22:53.000Z</time>
      </trkpt>
      <trkpt lat="47.51489" lon="6.77219">
        <ele>375</ele>
        <time>2015-12-20T08:22:54.000Z</time>
      </trkpt>
      <trkpt lat="47.51487" lon="6.77208">
        <ele>375</ele>
        <time>2015-12-20T08:22:55.000Z</time>
      </trkpt>
      <trkpt lat="47.51483" lon="6.77199">
        <ele>375</ele>
        <time>2015-12-20T08:22:56.000Z</time>
      </trkpt>
      <trkpt lat="47.51477" lon="6.77195">
        <ele>375</ele>
        <time>2015-12-20T08:22:57.000Z</time>
      </trkpt>
      <trkpt lat="47.51471" lon="6.77191">
        <ele>375</ele>
        <time>2015-12-20T08:22:58.000Z</time>
      </trkpt>
      <trkpt lat="47.51463" lon="6.77199">
        <ele>375</ele>
        <time>2015-12-20T08:22:59.000Z</time>
      </trkpt>
      <trkpt lat="47.51455" lon="6.77203">
        <ele>375</ele>
        <time>2015-12-20T08:23:00.000Z</time>
      </trkpt>
      <trkpt lat="47.51447" lon="6.77207">
        <ele>375</ele>
        <time>2015-12-20T08:23:01.000Z</time>
      </trkpt>
      <trkpt lat="47.51439" lon="6.77211">
        <ele>375</ele>
        <time>2015-12-20T08:23:02.000Z</time>
      </trkpt>
      <trkpt lat="47.51431" lon="6.77213">
        <ele>375</ele>
        <time>2015-12-20T08:23:03.000Z</time>
      </trkpt>
      <trkpt lat="47.51424" lon="6.77215">
        <ele>375</ele>
        <time>2015-12-20T08:23:04.000Z</time>
      </trkpt>
      <trkpt lat="47.51416" lon="6.7722">
        <ele>376</ele>
        <time>2015-12-20T08:23:05.000Z</time>
      </trkpt>
      <trkpt lat="47.51409" lon="6.77225">
        <ele>376</ele>
        <time>2015-12-20T08:23:06.000Z</time>
      </trkpt>
      <trkpt lat="47.51403" lon="6.77227">
        <ele>376</ele>
        <time>2015-12-20T08:23:07.000Z</time>
      </trkpt>
      <trkpt lat="47.51397" lon="6.77231">
        <ele>376</ele>
        <time>2015-12-20T08:23:08.000Z</time>
      </trkpt>
      <trkpt lat="47.51392" lon="6.77233">
        <ele>376</ele>
        <time>2015-12-20T08:23:09.000Z</time>
      </trkpt>
      <trkpt lat="47.51387" lon="6.77236">
        <ele>376</ele>
        <time>2015-12-20T08:23:10.000Z</time>
      </trkpt>
      <trkpt lat="47.51382" lon="6.77239">
        <ele>376</ele>
        <time>2015-12-20T08:23:11.000Z</time>
      </trkpt>
      <trkpt lat="47.51377" lon="6.77243">
        <ele>376</ele>
        <time>2015-12-20T08:23:12.000Z</time>
      </trkpt>
      <trkpt lat="47.51373" lon="6.77247">
        <ele>376</ele>
        <time>2015-12-20T08:23:13.000Z</time>
      </trkpt>
      <trkpt lat="47.51369" lon="6.7725">
        <ele>376</ele>
        <time>2015-12-20T08:23:14.000Z</time>
      </trkpt>
      <trkpt lat="47.51365" lon="6.77253">
        <ele>378</ele>
        <time>2015-12-20T08:23:15.000Z</time>
      </trkpt>
      <trkpt lat="47.51361" lon="6.77258">
        <ele>378</ele>
        <time>2015-12-20T08:23:16.000Z</time>
      </trkpt>
      <trkpt lat="47.51358" lon="6.7726">
        <ele>378</ele>
        <time>2015-12-20T08:23:17.000Z</time>
      </trkpt>
      <trkpt lat="47.51355" lon="6.77263">
        <ele>378</ele>
        <time>2015-12-20T08:23:18.000Z</time>
      </trkpt>
      <trkpt lat="47.51352" lon="6.77265">
        <ele>378</ele>
        <time>2015-12-20T08:23:19.000Z</time>
      </trkpt>
      <trkpt lat="47.5135" lon="6.77267">
        <ele>378</ele>
        <time>2015-12-20T08:23:20.000Z</time>
      </trkpt>
      <trkpt lat="47.51346" lon="6.77269">
        <ele>378</ele>
        <time>2015-12-20T08:23:21.000Z</time>
      </trkpt>
      <trkpt lat="47.51342" lon="6.77273">
        <ele>378</ele>
        <time>2015-12-20T08:23:22.000Z</time>
      </trkpt>
      <trkpt lat="47.51339" lon="6.77276">
        <ele>378</ele>
        <time>2015-12-20T08:23:23.000Z</time>
      </trkpt>
      <trkpt lat="47.51337" lon="6.77277">
        <ele>378</ele>
        <time>2015-12-20T08:23:24.000Z</time>
      </trkpt>
      <trkpt lat="47.51334" lon="6.77278">
        <ele>378</ele>
        <time>2015-12-20T08:23:25.000Z</time>
      </trkpt>
      <trkpt lat="47.5133" lon="6.77279">
        <ele>377</ele>
        <time>2015-12-20T08:23:26.000Z</time>
      </trkpt>
      <trkpt lat="47.51327" lon="6.77276">
        <ele>377</ele>
        <time>2015-12-20T08:23:27.000Z</time>
      </trkpt>
      <trkpt lat="47.51323" lon="6.77274">
        <ele>377</ele>
        <time>2015-12-20T08:23:28.000Z</time>
      </trkpt>
      <trkpt lat="47.51319" lon="6.77275">
        <ele>377</ele>
        <time>2015-12-20T08:23:29.000Z</time>
      </trkpt>
      <trkpt lat="47.51316" lon="6.77276">
        <ele>377</ele>
        <time>2015-12-20T08:23:30.000Z</time>
      </trkpt>
      <trkpt lat="47.51313" lon="6.77274">
        <ele>377</ele>
        <time>2015-12-20T08:23:31.000Z</time>
      </trkpt>
      <trkpt lat="47.5131" lon="6.77274">
        <ele>377</ele>
        <time>2015-12-20T08:23:32.000Z</time>
      </trkpt>
      <trkpt lat="47.51306" lon="6.77274">
        <ele>377</ele>
        <time>2015-12-20T08:23:33.000Z</time>
      </trkpt>
      <trkpt lat="47.51303" lon="6.77272">
        <ele>377</ele>
        <time>2015-12-20T08:23:34.000Z</time>
      </trkpt>
      <trkpt lat="47.513" lon="6.7727">
        <ele>377</ele>
        <time>2015-12-20T08:23:35.000Z</time>
      </trkpt>
      <trkpt lat="47.51296" lon="6.77268">
        <ele>377</ele>
        <time>2015-12-20T08:23:36.000Z</time>
      </trkpt>
      <trkpt lat="47.51293" lon="6.77266">
        <ele>377</ele>
        <time>2015-12-20T08:23:37.000Z</time>
      </trkpt>
      <trkpt lat="47.51289" lon="6.77263">
        <ele>377</ele>
        <time>2015-12-20T08:23:38.000Z</time>
      </trkpt>
      <trkpt lat="47.51286" lon="6.77261">
        <ele>377</ele>
        <time>2015-12-20T08:23:39.000Z</time>
      </trkpt>
      <trkpt lat="47.51282" lon="6.77259">
        <ele>377</ele>
        <time>2015-12-20T08:23:40.000Z</time>
      </trkpt>
      <trkpt lat="47.51278" lon="6.77256">
        <ele>377</ele>
        <time>2015-12-20T08:23:41.000Z</time>
      </trkpt>
      <trkpt lat="47.51275" lon="6.77254">
        <ele>377</ele>
        <time>2015-12-20T08:23:41.999Z</time>
      </trkpt>
      <trkpt lat="47.5127" lon="6.77251">
        <ele>378</ele>
        <time>2015-12-20T08:23:43.000Z</time>
      </trkpt>
      <trkpt lat="47.51267" lon="6.77249">
        <ele>378</ele>
        <time>2015-12-20T08:23:44.000Z</time>
      </trkpt>
      <trkpt lat="47.51263" lon="6.77246">
        <ele>378</ele>
        <time>2015-12-20T08:23:45.001Z</time>
      </trkpt>
      <trkpt lat="47.5126" lon="6.77243">
        <ele>378</ele>
        <time>2015-12-20T08:23:46.000Z</time>
      </trkpt>
      <trkpt lat="47.51256" lon="6.77234">
        <ele>378</ele>
        <time>2015-12-20T08:23:47.000Z</time>
      </trkpt>
      <trkpt lat="47.51253" lon="6.77229">
        <ele>378</ele>
        <time>2015-12-20T08:23:48.000Z</time>
      </trkpt>
      <trkpt lat="47.51248" lon="6.77224">
        <ele>376</ele>
        <time>2015-12-20T08:23:49.000Z</time>
      </trkpt>
      <trkpt lat="47.51245" lon="6.77218">
        <ele>376</ele>
        <time>2015-12-20T08:23:50.000Z</time>
      </trkpt>
      <trkpt lat="47.51241" lon="6.77213">
        <ele>376</ele>
        <time>2015-12-20T08:23:51.000Z</time>
      </trkpt>
      <trkpt lat="47.51237" lon="6.77208">
        <ele>376</ele>
        <time>2015-12-20T08:23:52.000Z</time>
      </trkpt>
      <trkpt lat="47.51235" lon="6.77203">
        <ele>376</ele>
        <time>2015-12-20T08:23:52.999Z</time>
      </trkpt>
      <trkpt lat="47.51232" lon="6.77197">
        <ele>376</ele>
        <time>2015-12-20T08:23:54.000Z</time>
      </trkpt>
      <trkpt lat="47.51228" lon="6.77192">
        <ele>376</ele>
        <time>2015-12-20T08:23:55.000Z</time>
      </trkpt>
      <trkpt lat="47.51221" lon="6.77177">
        <ele>376</ele>
        <time>2015-12-20T08:23:56.000Z</time>
      </trkpt>
      <trkpt lat="47.51218" lon="6.77171">
        <ele>376</ele>
        <time>2015-12-20T08:23:57.000Z</time>
      </trkpt>
      <trkpt lat="47.51215" lon="6.77164">
        <ele>378</ele>
        <time>2015-12-20T08:23:58.000Z</time>
      </trkpt>
      <trkpt lat="47.51213" lon="6.77156">
        <ele>378</ele>
        <time>2015-12-20T08:23:59.000Z</time>
      </trkpt>
      <trkpt lat="47.5121" lon="6.77149">
        <ele>378</ele>
        <time>2015-12-20T08:24:00.000Z</time>
      </trkpt>
      <trkpt lat="47.51206" lon="6.77141">
        <ele>378</ele>
        <time>2015-12-20T08:24:01.000Z</time>
      </trkpt>
      <trkpt lat="47.51203" lon="6.77134">
        <ele>378</ele>
        <time>2015-12-20T08:24:02.001Z</time>
      </trkpt>
      <trkpt lat="47.51199" lon="6.77126">
        <ele>378</ele>
        <time>2015-12-20T08:24:03.000Z</time>
      </trkpt>
      <trkpt lat="47.51194" lon="6.77117">
        <ele>378</ele>
        <time>2015-12-20T08:24:04.000Z</time>
      </trkpt>
      <trkpt lat="47.51189" lon="6.77108">
        <ele>378</ele>
        <time>2015-12-20T08:24:05.000Z</time>
      </trkpt>
      <trkpt lat="47.51185" lon="6.771">
        <ele>378</ele>
        <time>2015-12-20T08:24:06.000Z</time>
      </trkpt>
      <trkpt lat="47.5118" lon="6.7709">
        <ele>378</ele>
        <time>2015-12-20T08:24:07.000Z</time>
      </trkpt>
      <trkpt lat="47.51175" lon="6.77082">
        <ele>377</ele>
        <time>2015-12-20T08:24:08.000Z</time>
      </trkpt>
      <trkpt lat="47.5117" lon="6.77073">
        <ele>377</ele>
        <time>2015-12-20T08:24:09.000Z</time>
      </trkpt>
      <trkpt lat="47.51164" lon="6.77065">
        <ele>377</ele>
        <time>2015-12-20T08:24:10.000Z</time>
      </trkpt>
      <trkpt lat="47.51157" lon="6.77057">
        <ele>376</ele>
        <time>2015-12-20T08:24:11.000Z</time>
      </trkpt>
      <trkpt lat="47.51151" lon="6.7705">
        <ele>376</ele>
        <time>2015-12-20T08:24:12.000Z</time>
      </trkpt>
      <trkpt lat="47.51145" lon="6.77044">
        <ele>376</ele>
        <time>2015-12-20T08:24:13.000Z</time>
      </trkpt>
      <trkpt lat="47.51133" lon="6.77037">
        <ele>375</ele>
        <time>2015-12-20T08:24:14.000Z</time>
      </trkpt>
      <trkpt lat="47.51124" lon="6.77031">
        <ele>375</ele>
        <time>2015-12-20T08:24:15.000Z</time>
      </trkpt>
      <trkpt lat="47.5112" lon="6.77025">
        <ele>375</ele>
        <time>2015-12-20T08:24:16.000Z</time>
      </trkpt>
      <trkpt lat="47.51114" lon="6.77019">
        <ele>375</ele>
        <time>2015-12-20T08:24:17.000Z</time>
      </trkpt>
      <trkpt lat="47.51109" lon="6.77012">
        <ele>375</ele>
        <time>2015-12-20T08:24:18.000Z</time>
      </trkpt>
      <trkpt lat="47.51102" lon="6.77007">
        <ele>375</ele>
        <time>2015-12-20T08:24:19.000Z</time>
      </trkpt>
      <trkpt lat="47.51096" lon="6.77001">
        <ele>375</ele>
        <time>2015-12-20T08:24:20.000Z</time>
      </trkpt>
      <trkpt lat="47.51089" lon="6.77">
        <ele>375</ele>
        <time>2015-12-20T08:24:21.000Z</time>
      </trkpt>
      <trkpt lat="47.51082" lon="6.76997">
        <ele>375</ele>
        <time>2015-12-20T08:24:22.000Z</time>
      </trkpt>
      <trkpt lat="47.51076" lon="6.76992">
        <ele>375</ele>
        <time>2015-12-20T08:24:23.000Z</time>
      </trkpt>
      <trkpt lat="47.51069" lon="6.76988">
        <ele>375</ele>
        <time>2015-12-20T08:24:24.000Z</time>
      </trkpt>
      <trkpt lat="47.51064" lon="6.76982">
        <ele>375</ele>
        <time>2015-12-20T08:24:25.000Z</time>
      </trkpt>
      <trkpt lat="47.51058" lon="6.76978">
        <ele>375</ele>
        <time>2015-12-20T08:24:26.000Z</time>
      </trkpt>
      <trkpt lat="47.51052" lon="6.76975">
        <ele>375</ele>
        <time>2015-12-20T08:24:27.000Z</time>
      </trkpt>
      <trkpt lat="47.51047" lon="6.76971">
        <ele>375</ele>
        <time>2015-12-20T08:24:28.000Z</time>
      </trkpt>
      <trkpt lat="47.51042" lon="6.76967">
        <ele>375</ele>
        <time>2015-12-20T08:24:29.000Z</time>
      </trkpt>
      <trkpt lat="47.51036" lon="6.76962">
        <ele>375</ele>
        <time>2015-12-20T08:24:30.000Z</time>
      </trkpt>
      <trkpt lat="47.51031" lon="6.76957">
        <ele>375</ele>
        <time>2015-12-20T08:24:31.000Z</time>
      </trkpt>
      <trkpt lat="47.51026" lon="6.76953">
        <ele>375</ele>
        <time>2015-12-20T08:24:32.000Z</time>
      </trkpt>
      <trkpt lat="47.51021" lon="6.76948">
        <ele>375</ele>
        <time>2015-12-20T08:24:33.000Z</time>
      </trkpt>
      <trkpt lat="47.51015" lon="6.76944">
        <ele>375</ele>
        <time>2015-12-20T08:24:34.000Z</time>
      </trkpt>
      <trkpt lat="47.5101" lon="6.7694">
        <ele>375</ele>
        <time>2015-12-20T08:24:35.000Z</time>
      </trkpt>
      <trkpt lat="47.51005" lon="6.76937">
        <ele>375</ele>
        <time>2015-12-20T08:24:36.000Z</time>
      </trkpt>
      <trkpt lat="47.51" lon="6.76933">
        <ele>375</ele>
        <time>2015-12-20T08:24:37.000Z</time>
      </trkpt>
      <trkpt lat="47.50995" lon="6.76929">
        <ele>375</ele>
        <time>2015-12-20T08:24:38.000Z</time>
      </trkpt>
      <trkpt lat="47.50991" lon="6.76925">
        <ele>375</ele>
        <time>2015-12-20T08:24:39.000Z</time>
      </trkpt>
      <trkpt lat="47.50987" lon="6.7692">
        <ele>375</ele>
        <time>2015-12-20T08:24:40.000Z</time>
      </trkpt>
      <trkpt lat="47.50983" lon="6.76917">
        <ele>375</ele>
        <time>2015-12-20T08:24:41.001Z</time>
      </trkpt>
      <trkpt lat="47.50978" lon="6.76911">
        <ele>377</ele>
        <time>2015-12-20T08:24:42.000Z</time>
      </trkpt>
      <trkpt lat="47.50973" lon="6.76907">
        <ele>377</ele>
        <time>2015-12-20T08:24:42.999Z</time>
      </trkpt>
      <trkpt lat="47.50967" lon="6.76905">
        <ele>377</ele>
        <time>2015-12-20T08:24:44.000Z</time>
      </trkpt>
      <trkpt lat="47.50963" lon="6.76902">
        <ele>377</ele>
        <time>2015-12-20T08:24:45.000Z</time>
      </trkpt>
      <trkpt lat="47.5096" lon="6.76897">
        <ele>377</ele>
        <time>2015-12-20T08:24:46.000Z</time>
      </trkpt>
      <trkpt lat="47.50956" lon="6.76892">
        <ele>377</ele>
        <time>2015-12-20T08:24:47.000Z</time>
      </trkpt>
      <trkpt lat="47.50953" lon="6.76885">
        <ele>378</ele>
        <time>2015-12-20T08:24:48.000Z</time>
      </trkpt>
      <trkpt lat="47.50949" lon="6.76879">
        <ele>378</ele>
        <time>2015-12-20T08:24:49.000Z</time>
      </trkpt>
      <trkpt lat="47.50945" lon="6.76873">
        <ele>378</ele>
        <time>2015-12-20T08:24:50.001Z</time>
      </trkpt>
      <trkpt lat="47.50942" lon="6.76869">
        <ele>378</ele>
        <time>2015-12-20T08:24:51.000Z</time>
      </trkpt>
      <trkpt lat="47.50938" lon="6.76865">
        <ele>378</ele>
        <time>2015-12-20T08:24:52.000Z</time>
      </trkpt>
      <trkpt lat="47.50934" lon="6.7686">
        <ele>378</ele>
        <time>2015-12-20T08:24:53.000Z</time>
      </trkpt>
      <trkpt lat="47.50932" lon="6.76856">
        <ele>378</ele>
        <time>2015-12-20T08:24:54.000Z</time>
      </trkpt>
      <trkpt lat="47.5093" lon="6.7685">
        <ele>379</ele>
        <time>2015-12-20T08:24:55.000Z</time>
      </trkpt>
      <trkpt lat="47.50927" lon="6.76846">
        <ele>379</ele>
        <time>2015-12-20T08:24:56.000Z</time>
      </trkpt>
      <trkpt lat="47.50924" lon="6.76839">
        <ele>379</ele>
        <time>2015-12-20T08:24:57.000Z</time>
      </trkpt>
      <trkpt lat="47.50921" lon="6.76833">
        <ele>380</ele>
        <time>2015-12-20T08:24:58.000Z</time>
      </trkpt>
      <trkpt lat="47.50918" lon="6.76827">
        <ele>379</ele>
        <time>2015-12-20T08:24:59.000Z</time>
      </trkpt>
      <trkpt lat="47.50915" lon="6.76821">
        <ele>381</ele>
        <time>2015-12-20T08:25:00.000Z</time>
      </trkpt>
      <trkpt lat="47.50912" lon="6.76815">
        <ele>381</ele>
        <time>2015-12-20T08:25:00.999Z</time>
      </trkpt>
      <trkpt lat="47.50912" lon="6.7681">
        <ele>381</ele>
        <time>2015-12-20T08:25:02.000Z</time>
      </trkpt>
      <trkpt lat="47.50908" lon="6.76803">
        <ele>381</ele>
        <time>2015-12-20T08:25:03.000Z</time>
      </trkpt>
      <trkpt lat="47.50905" lon="6.76794">
        <ele>381</ele>
        <time>2015-12-20T08:25:04.000Z</time>
      </trkpt>
      <trkpt lat="47.50902" lon="6.76788">
        <ele>381</ele>
        <time>2015-12-20T08:25:05.000Z</time>
      </trkpt>
      <trkpt lat="47.509" lon="6.76781">
        <ele>381</ele>
        <time>2015-12-20T08:25:06.000Z</time>
      </trkpt>
      <trkpt lat="47.50899" lon="6.7678">
        <ele>381</ele>
        <time>2015-12-20T08:25:07.000Z</time>
      </trkpt>
      <trkpt lat="47.50896" lon="6.76775">
        <ele>381</ele>
        <time>2015-12-20T08:25:08.000Z</time>
      </trkpt>
      <trkpt lat="47.50894" lon="6.7677">
        <ele>381</ele>
        <time>2015-12-20T08:25:09.000Z</time>
      </trkpt>
      <trkpt lat="47.50892" lon="6.76762">
        <ele>381</ele>
        <time>2015-12-20T08:25:10.000Z</time>
      </trkpt>
      <trkpt lat="47.50891" lon="6.76756">
        <ele>381</ele>
        <time>2015-12-20T08:25:11.000Z</time>
      </trkpt>
      <trkpt lat="47.50889" lon="6.7675">
        <ele>381</ele>
        <time>2015-12-20T08:25:12.000Z</time>
      </trkpt>
      <trkpt lat="47.50888" lon="6.76744">
        <ele>382</ele>
        <time>2015-12-20T08:25:13.000Z</time>
      </trkpt>
      <trkpt lat="47.50886" lon="6.76738">
        <ele>382</ele>
        <time>2015-12-20T08:25:14.000Z</time>
      </trkpt>
      <trkpt lat="47.50885" lon="6.76733">
        <ele>382</ele>
        <time>2015-12-20T08:25:15.000Z</time>
      </trkpt>
      <trkpt lat="47.50884" lon="6.76729">
        <ele>382</ele>
        <time>2015-12-20T08:25:16.000Z</time>
      </trkpt>
      <trkpt lat="47.50882" lon="6.76724">
        <ele>383</ele>
        <time>2015-12-20T08:25:17.000Z</time>
      </trkpt>
      <trkpt lat="47.5088" lon="6.7672">
        <ele>383</ele>
        <time>2015-12-20T08:25:18.000Z</time>
      </trkpt>
      <trkpt lat="47.50878" lon="6.76717">
        <ele>383</ele>
        <time>2015-12-20T08:25:19.000Z</time>
      </trkpt>
      <trkpt lat="47.50875" lon="6.7671">
        <ele>383</ele>
        <time>2015-12-20T08:25:20.000Z</time>
      </trkpt>
      <trkpt lat="47.50872" lon="6.76704">
        <ele>383</ele>
        <time>2015-12-20T08:25:21.000Z</time>
      </trkpt>
      <trkpt lat="47.50871" lon="6.76701">
        <ele>384</ele>
        <time>2015-12-20T08:25:22.000Z</time>
      </trkpt>
      <trkpt lat="47.5087" lon="6.76695">
        <ele>384</ele>
        <time>2015-12-20T08:25:23.000Z</time>
      </trkpt>
      <trkpt lat="47.50868" lon="6.7669">
        <ele>384</ele>
        <time>2015-12-20T08:25:24.000Z</time>
      </trkpt>
      <trkpt lat="47.50866" lon="6.76686">
        <ele>384</ele>
        <time>2015-12-20T08:25:25.000Z</time>
      </trkpt>
      <trkpt lat="47.50865" lon="6.76681">
        <ele>384</ele>
        <time>2015-12-20T08:25:26.000Z</time>
      </trkpt>
      <trkpt lat="47.50864" lon="6.76676">
        <ele>385</ele>
        <time>2015-12-20T08:25:27.000Z</time>
      </trkpt>
      <trkpt lat="47.50861" lon="6.76673">
        <ele>385</ele>
        <time>2015-12-20T08:25:28.000Z</time>
      </trkpt>
      <trkpt lat="47.5086" lon="6.76669">
        <ele>385</ele>
        <time>2015-12-20T08:25:29.000Z</time>
      </trkpt>
      <trkpt lat="47.50858" lon="6.76665">
        <ele>387</ele>
        <time>2015-12-20T08:25:30.000Z</time>
      </trkpt>
      <trkpt lat="47.50856" lon="6.76662">
        <ele>387</ele>
        <time>2015-12-20T08:25:31.000Z</time>
      </trkpt>
      <trkpt lat="47.50854" lon="6.76658">
        <ele>387</ele>
        <time>2015-12-20T08:25:32.000Z</time>
      </trkpt>
      <trkpt lat="47.50852" lon="6.76655">
        <ele>387</ele>
        <time>2015-12-20T08:25:33.000Z</time>
      </trkpt>
      <trkpt lat="47.5085" lon="6.76651">
        <ele>387</ele>
        <time>2015-12-20T08:25:34.000Z</time>
      </trkpt>
      <trkpt lat="47.50848" lon="6.76648">
        <ele>387</ele>
        <time>2015-12-20T08:25:35.000Z</time>
      </trkpt>
      <trkpt lat="47.50846" lon="6.76644">
        <ele>387</ele>
        <time>2015-12-20T08:25:36.000Z</time>
      </trkpt>
      <trkpt lat="47.50845" lon="6.7664">
        <ele>387</ele>
        <time>2015-12-20T08:25:37.000Z</time>
      </trkpt>
      <trkpt lat="47.50843" lon="6.76636">
        <ele>387</ele>
        <time>2015-12-20T08:25:38.000Z</time>
      </trkpt>
      <trkpt lat="47.50841" lon="6.76632">
        <ele>387</ele>
        <time>2015-12-20T08:25:39.000Z</time>
      </trkpt>
      <trkpt lat="47.5084" lon="6.76628">
        <ele>387</ele>
        <time>2015-12-20T08:25:40.000Z</time>
      </trkpt>
      <trkpt lat="47.50838" lon="6.76625">
        <ele>387</ele>
        <time>2015-12-20T08:25:41.000Z</time>
      </trkpt>
      <trkpt lat="47.50836" lon="6.76621">
        <ele>387</ele>
        <time>2015-12-20T08:25:42.000Z</time>
      </trkpt>
      <trkpt lat="47.50835" lon="6.76617">
        <ele>387</ele>
        <time>2015-12-20T08:25:43.000Z</time>
      </trkpt>
      <trkpt lat="47.50834" lon="6.76614">
        <ele>387</ele>
        <time>2015-12-20T08:25:44.000Z</time>
      </trkpt>
      <trkpt lat="47.50832" lon="6.7661">
        <ele>390</ele>
        <time>2015-12-20T08:25:45.000Z</time>
      </trkpt>
      <trkpt lat="47.50831" lon="6.76606">
        <ele>390</ele>
        <time>2015-12-20T08:25:46.000Z</time>
      </trkpt>
      <trkpt lat="47.50829" lon="6.76602">
        <ele>390</ele>
        <time>2015-12-20T08:25:47.000Z</time>
      </trkpt>
      <trkpt lat="47.50828" lon="6.76598">
        <ele>390</ele>
        <time>2015-12-20T08:25:48.000Z</time>
      </trkpt>
      <trkpt lat="47.50825" lon="6.7659">
        <ele>390</ele>
        <time>2015-12-20T08:25:50.000Z</time>
      </trkpt>
      <trkpt lat="47.50824" lon="6.76587">
        <ele>390</ele>
        <time>2015-12-20T08:25:51.000Z</time>
      </trkpt>
      <trkpt lat="47.50823" lon="6.76585">
        <ele>390</ele>
        <time>2015-12-20T08:25:52.000Z</time>
      </trkpt>
      <trkpt lat="47.50818" lon="6.76586">
        <ele>390</ele>
        <time>2015-12-20T08:25:54.000Z</time>
      </trkpt>
      <trkpt lat="47.50816" lon="6.76587">
        <ele>390</ele>
        <time>2015-12-20T08:25:55.000Z</time>
      </trkpt>
      <trkpt lat="47.50813" lon="6.76589">
        <ele>390</ele>
        <time>2015-12-20T08:25:56.000Z</time>
      </trkpt>
      <trkpt lat="47.50811" lon="6.76589">
        <ele>390</ele>
        <time>2015-12-20T08:25:57.000Z</time>
      </trkpt>
      <trkpt lat="47.50809" lon="6.76587">
        <ele>390</ele>
        <time>2015-12-20T08:25:58.000Z</time>
      </trkpt>
      <trkpt lat="47.50808" lon="6.76583">
        <ele>391</ele>
        <time>2015-12-20T08:25:59.000Z</time>
      </trkpt>
      <trkpt lat="47.50807" lon="6.7658">
        <ele>391</ele>
        <time>2015-12-20T08:26:00.000Z</time>
      </trkpt>
      <trkpt lat="47.50805" lon="6.76578">
        <ele>391</ele>
        <time>2015-12-20T08:26:01.000Z</time>
      </trkpt>
      <trkpt lat="47.50802" lon="6.76577">
        <ele>391</ele>
        <time>2015-12-20T08:26:02.000Z</time>
      </trkpt>
      <trkpt lat="47.508" lon="6.76577">
        <ele>391</ele>
        <time>2015-12-20T08:26:03.000Z</time>
      </trkpt>
      <trkpt lat="47.50797" lon="6.76578">
        <ele>392</ele>
        <time>2015-12-20T08:26:04.000Z</time>
      </trkpt>
      <trkpt lat="47.50795" lon="6.76578">
        <ele>392</ele>
        <time>2015-12-20T08:26:05.000Z</time>
      </trkpt>
      <trkpt lat="47.50791" lon="6.76579">
        <ele>392</ele>
        <time>2015-12-20T08:26:16.000Z</time>
      </trkpt>
      <trkpt lat="47.5079" lon="6.7658">
        <ele>392</ele>
        <time>2015-12-20T08:26:17.000Z</time>
      </trkpt>
      <trkpt lat="47.50786" lon="6.76582">
        <ele>392</ele>
        <time>2015-12-20T08:26:19.000Z</time>
      </trkpt>
      <trkpt lat="47.50783" lon="6.76583">
        <ele>392</ele>
        <time>2015-12-20T08:26:20.000Z</time>
      </trkpt>
      <trkpt lat="47.5078" lon="6.76584">
        <ele>392</ele>
        <time>2015-12-20T08:26:21.000Z</time>
      </trkpt>
      <trkpt lat="47.50777" lon="6.76584">
        <ele>392</ele>
        <time>2015-12-20T08:26:22.000Z</time>
      </trkpt>
      <trkpt lat="47.50775" lon="6.76584">
        <ele>392</ele>
        <time>2015-12-20T08:26:23.000Z</time>
      </trkpt>
      <trkpt lat="47.50772" lon="6.76584">
        <ele>392</ele>
        <time>2015-12-20T08:26:24.000Z</time>
      </trkpt>
      <trkpt lat="47.50769" lon="6.76585">
        <ele>392</ele>
        <time>2015-12-20T08:26:25.000Z</time>
      </trkpt>
      <trkpt lat="47.50766" lon="6.76586">
        <ele>392</ele>
        <time>2015-12-20T08:26:26.000Z</time>
      </trkpt>
      <trkpt lat="47.50762" lon="6.76586">
        <ele>393</ele>
        <time>2015-12-20T08:26:27.000Z</time>
      </trkpt>
      <trkpt lat="47.50758" lon="6.76587">
        <ele>393</ele>
        <time>2015-12-20T08:26:28.000Z</time>
      </trkpt>
      <trkpt lat="47.50755" lon="6.76587">
        <ele>393</ele>
        <time>2015-12-20T08:26:29.000Z</time>
      </trkpt>
      <trkpt lat="47.50751" lon="6.76587">
        <ele>394</ele>
        <time>2015-12-20T08:26:30.000Z</time>
      </trkpt>
      <trkpt lat="47.50748" lon="6.76586">
        <ele>394</ele>
        <time>2015-12-20T08:26:31.000Z</time>
      </trkpt>
      <trkpt lat="47.50745" lon="6.76586">
        <ele>394</ele>
        <time>2015-12-20T08:26:32.000Z</time>
      </trkpt>
      <trkpt lat="47.50741" lon="6.76585">
        <ele>394</ele>
        <time>2015-12-20T08:26:33.000Z</time>
      </trkpt>
      <trkpt lat="47.50737" lon="6.76585">
        <ele>394</ele>
        <time>2015-12-20T08:26:34.000Z</time>
      </trkpt>
      <trkpt lat="47.50734" lon="6.76585">
        <ele>394</ele>
        <time>2015-12-20T08:26:35.000Z</time>
      </trkpt>
      <trkpt lat="47.5073" lon="6.76584">
        <ele>394</ele>
        <time>2015-12-20T08:26:36.000Z</time>
      </trkpt>
      <trkpt lat="47.50727" lon="6.76584">
        <ele>394</ele>
        <time>2015-12-20T08:26:37.000Z</time>
      </trkpt>
      <trkpt lat="47.50723" lon="6.76583">
        <ele>395</ele>
        <time>2015-12-20T08:26:38.000Z</time>
      </trkpt>
      <trkpt lat="47.5072" lon="6.76582">
        <ele>395</ele>
        <time>2015-12-20T08:26:39.000Z</time>
      </trkpt>
      <trkpt lat="47.50716" lon="6.76581">
        <ele>395</ele>
        <time>2015-12-20T08:26:40.000Z</time>
      </trkpt>
      <trkpt lat="47.50712" lon="6.7658">
        <ele>395</ele>
        <time>2015-12-20T08:26:41.000Z</time>
      </trkpt>
      <trkpt lat="47.50708" lon="6.76579">
        <ele>395</ele>
        <time>2015-12-20T08:26:42.000Z</time>
      </trkpt>
      <trkpt lat="47.50705" lon="6.76579">
        <ele>395</ele>
        <time>2015-12-20T08:26:43.000Z</time>
      </trkpt>
      <trkpt lat="47.50701" lon="6.76579">
        <ele>395</ele>
        <time>2015-12-20T08:26:44.000Z</time>
      </trkpt>
      <trkpt lat="47.50698" lon="6.76579">
        <ele>395</ele>
        <time>2015-12-20T08:26:45.000Z</time>
      </trkpt>
      <trkpt lat="47.50694" lon="6.76579">
        <ele>396</ele>
        <time>2015-12-20T08:26:46.000Z</time>
      </trkpt>
      <trkpt lat="47.50691" lon="6.76579">
        <ele>396</ele>
        <time>2015-12-20T08:26:47.000Z</time>
      </trkpt>
      <trkpt lat="47.50687" lon="6.76579">
        <ele>396</ele>
        <time>2015-12-20T08:26:48.000Z</time>
      </trkpt>
      <trkpt lat="47.50684" lon="6.7658">
        <ele>396</ele>
        <time>2015-12-20T08:26:49.000Z</time>
      </trkpt>
      <trkpt lat="47.5068" lon="6.7658">
        <ele>396</ele>
        <time>2015-12-20T08:26:50.000Z</time>
      </trkpt>
      <trkpt lat="47.50677" lon="6.76581">
        <ele>396</ele>
        <time>2015-12-20T08:26:51.000Z</time>
      </trkpt>
      <trkpt lat="47.50673" lon="6.76582">
        <ele>397</ele>
        <time>2015-12-20T08:26:52.000Z</time>
      </trkpt>
      <trkpt lat="47.5067" lon="6.76583">
        <ele>397</ele>
        <time>2015-12-20T08:26:53.000Z</time>
      </trkpt>
      <trkpt lat="47.50667" lon="6.76584">
        <ele>397</ele>
        <time>2015-12-20T08:26:54.000Z</time>
      </trkpt>
      <trkpt lat="47.50663" lon="6.76585">
        <ele>397</ele>
        <time>2015-12-20T08:26:55.000Z</time>
      </trkpt>
      <trkpt lat="47.5066" lon="6.76587">
        <ele>397</ele>
        <time>2015-12-20T08:26:56.000Z</time>
      </trkpt>
      <trkpt lat="47.50657" lon="6.76588">
        <ele>397</ele>
        <time>2015-12-20T08:26:57.000Z</time>
      </trkpt>
      <trkpt lat="47.50653" lon="6.76588">
        <ele>397</ele>
        <time>2015-12-20T08:26:58.000Z</time>
      </trkpt>
      <trkpt lat="47.5065" lon="6.7659">
        <ele>397</ele>
        <time>2015-12-20T08:26:59.000Z</time>
      </trkpt>
      <trkpt lat="47.50646" lon="6.76592">
        <ele>397</ele>
        <time>2015-12-20T08:27:00.000Z</time>
      </trkpt>
      <trkpt lat="47.50642" lon="6.76594">
        <ele>397</ele>
        <time>2015-12-20T08:27:01.000Z</time>
      </trkpt>
      <trkpt lat="47.50639" lon="6.76597">
        <ele>397</ele>
        <time>2015-12-20T08:27:02.000Z</time>
      </trkpt>
      <trkpt lat="47.50636" lon="6.76599">
        <ele>397</ele>
        <time>2015-12-20T08:27:03.000Z</time>
      </trkpt>
      <trkpt lat="47.50633" lon="6.76602">
        <ele>397</ele>
        <time>2015-12-20T08:27:04.000Z</time>
      </trkpt>
      <trkpt lat="47.5063" lon="6.76604">
        <ele>397</ele>
        <time>2015-12-20T08:27:05.000Z</time>
      </trkpt>
      <trkpt lat="47.50627" lon="6.76605">
        <ele>397</ele>
        <time>2015-12-20T08:27:06.000Z</time>
      </trkpt>
      <trkpt lat="47.50624" lon="6.76607">
        <ele>397</ele>
        <time>2015-12-20T08:27:07.000Z</time>
      </trkpt>
      <trkpt lat="47.50621" lon="6.76609">
        <ele>397</ele>
        <time>2015-12-20T08:27:08.000Z</time>
      </trkpt>
      <trkpt lat="47.50618" lon="6.76611">
        <ele>397</ele>
        <time>2015-12-20T08:27:08.999Z</time>
      </trkpt>
      <trkpt lat="47.50615" lon="6.76612">
        <ele>398</ele>
        <time>2015-12-20T08:27:10.000Z</time>
      </trkpt>
      <trkpt lat="47.50612" lon="6.76614">
        <ele>398</ele>
        <time>2015-12-20T08:27:11.000Z</time>
      </trkpt>
      <trkpt lat="47.50609" lon="6.76615">
        <ele>398</ele>
        <time>2015-12-20T08:27:12.000Z</time>
      </trkpt>
      <trkpt lat="47.50606" lon="6.76617">
        <ele>398</ele>
        <time>2015-12-20T08:27:13.000Z</time>
      </trkpt>
      <trkpt lat="47.50602" lon="6.76619">
        <ele>398</ele>
        <time>2015-12-20T08:27:14.000Z</time>
      </trkpt>
      <trkpt lat="47.50599" lon="6.7662">
        <ele>398</ele>
        <time>2015-12-20T08:27:15.000Z</time>
      </trkpt>
      <trkpt lat="47.50596" lon="6.76621">
        <ele>398</ele>
        <time>2015-12-20T08:27:16.000Z</time>
      </trkpt>
      <trkpt lat="47.50593" lon="6.76622">
        <ele>398</ele>
        <time>2015-12-20T08:27:17.000Z</time>
      </trkpt>
      <trkpt lat="47.50589" lon="6.76623">
        <ele>398</ele>
        <time>2015-12-20T08:27:18.000Z</time>
      </trkpt>
      <trkpt lat="47.50586" lon="6.76624">
        <ele>398</ele>
        <time>2015-12-20T08:27:19.000Z</time>
      </trkpt>
      <trkpt lat="47.50583" lon="6.76625">
        <ele>399</ele>
        <time>2015-12-20T08:27:20.000Z</time>
      </trkpt>
      <trkpt lat="47.50579" lon="6.76626">
        <ele>399</ele>
        <time>2015-12-20T08:27:21.000Z</time>
      </trkpt>
      <trkpt lat="47.50576" lon="6.76626">
        <ele>399</ele>
        <time>2015-12-20T08:27:22.000Z</time>
      </trkpt>
      <trkpt lat="47.50573" lon="6.76627">
        <ele>399</ele>
        <time>2015-12-20T08:27:23.000Z</time>
      </trkpt>
      <trkpt lat="47.5057" lon="6.76627">
        <ele>399</ele>
        <time>2015-12-20T08:27:24.000Z</time>
      </trkpt>
      <trkpt lat="47.50567" lon="6.76627">
        <ele>399</ele>
        <time>2015-12-20T08:27:25.000Z</time>
      </trkpt>
      <trkpt lat="47.50565" lon="6.76627">
        <ele>399</ele>
        <time>2015-12-20T08:27:26.000Z</time>
      </trkpt>
      <trkpt lat="47.50562" lon="6.76628">
        <ele>399</ele>
        <time>2015-12-20T08:27:27.000Z</time>
      </trkpt>
      <trkpt lat="47.50558" lon="6.76629">
        <ele>399</ele>
        <time>2015-12-20T08:27:28.000Z</time>
      </trkpt>
      <trkpt lat="47.50555" lon="6.76629">
        <ele>399</ele>
        <time>2015-12-20T08:27:29.000Z</time>
      </trkpt>
      <trkpt lat="47.50552" lon="6.7663">
        <ele>399</ele>
        <time>2015-12-20T08:27:30.000Z</time>
      </trkpt>
      <trkpt lat="47.50549" lon="6.7663">
        <ele>399</ele>
        <time>2015-12-20T08:27:31.000Z</time>
      </trkpt>
      <trkpt lat="47.50545" lon="6.76631">
        <ele>399</ele>
        <time>2015-12-20T08:27:32.000Z</time>
      </trkpt>
      <trkpt lat="47.50542" lon="6.76632">
        <ele>399</ele>
        <time>2015-12-20T08:27:33.000Z</time>
      </trkpt>
      <trkpt lat="47.50538" lon="6.76633">
        <ele>399</ele>
        <time>2015-12-20T08:27:34.000Z</time>
      </trkpt>
      <trkpt lat="47.50534" lon="6.76635">
        <ele>399</ele>
        <time>2015-12-20T08:27:35.000Z</time>
      </trkpt>
      <trkpt lat="47.50529" lon="6.76636">
        <ele>399</ele>
        <time>2015-12-20T08:27:36.000Z</time>
      </trkpt>
      <trkpt lat="47.50525" lon="6.76638">
        <ele>399</ele>
        <time>2015-12-20T08:27:37.000Z</time>
      </trkpt>
      <trkpt lat="47.50519" lon="6.76642">
        <ele>399</ele>
        <time>2015-12-20T08:27:38.000Z</time>
      </trkpt>
      <trkpt lat="47.50514" lon="6.76644">
        <ele>399</ele>
        <time>2015-12-20T08:27:39.000Z</time>
      </trkpt>
      <trkpt lat="47.50509" lon="6.76645">
        <ele>399</ele>
        <time>2015-12-20T08:27:40.000Z</time>
      </trkpt>
      <trkpt lat="47.50504" lon="6.76646">
        <ele>399</ele>
        <time>2015-12-20T08:27:41.000Z</time>
      </trkpt>
      <trkpt lat="47.50499" lon="6.76648">
        <ele>399</ele>
        <time>2015-12-20T08:27:42.000Z</time>
      </trkpt>
      <trkpt lat="47.50494" lon="6.76649">
        <ele>399</ele>
        <time>2015-12-20T08:27:43.000Z</time>
      </trkpt>
      <trkpt lat="47.50489" lon="6.76651">
        <ele>399</ele>
        <time>2015-12-20T08:27:44.000Z</time>
      </trkpt>
      <trkpt lat="47.50484" lon="6.76653">
        <ele>399</ele>
        <time>2015-12-20T08:27:45.000Z</time>
      </trkpt>
      <trkpt lat="47.50479" lon="6.76655">
        <ele>399</ele>
        <time>2015-12-20T08:27:46.000Z</time>
      </trkpt>
      <trkpt lat="47.50474" lon="6.76658">
        <ele>398</ele>
        <time>2015-12-20T08:27:47.000Z</time>
      </trkpt>
      <trkpt lat="47.50468" lon="6.7666">
        <ele>398</ele>
        <time>2015-12-20T08:27:48.000Z</time>
      </trkpt>
      <trkpt lat="47.50463" lon="6.76663">
        <ele>398</ele>
        <time>2015-12-20T08:27:49.000Z</time>
      </trkpt>
      <trkpt lat="47.50458" lon="6.76665">
        <ele>398</ele>
        <time>2015-12-20T08:27:50.000Z</time>
      </trkpt>
      <trkpt lat="47.50453" lon="6.76668">
        <ele>397</ele>
        <time>2015-12-20T08:27:51.000Z</time>
      </trkpt>
      <trkpt lat="47.50448" lon="6.7667">
        <ele>397</ele>
        <time>2015-12-20T08:27:52.000Z</time>
      </trkpt>
      <trkpt lat="47.50443" lon="6.76672">
        <ele>397</ele>
        <time>2015-12-20T08:27:53.000Z</time>
      </trkpt>
      <trkpt lat="47.50438" lon="6.76675">
        <ele>397</ele>
        <time>2015-12-20T08:27:54.000Z</time>
      </trkpt>
      <trkpt lat="47.50433" lon="6.76678">
        <ele>397</ele>
        <time>2015-12-20T08:27:55.000Z</time>
      </trkpt>
      <trkpt lat="47.50428" lon="6.7668">
        <ele>397</ele>
        <time>2015-12-20T08:27:56.000Z</time>
      </trkpt>
      <trkpt lat="47.50423" lon="6.76681">
        <ele>397</ele>
        <time>2015-12-20T08:27:57.000Z</time>
      </trkpt>
      <trkpt lat="47.50418" lon="6.76681">
        <ele>397</ele>
        <time>2015-12-20T08:27:58.000Z</time>
      </trkpt>
      <trkpt lat="47.50412" lon="6.76682">
        <ele>397</ele>
        <time>2015-12-20T08:27:59.000Z</time>
      </trkpt>
      <trkpt lat="47.50408" lon="6.76684">
        <ele>397</ele>
        <time>2015-12-20T08:28:00.000Z</time>
      </trkpt>
      <trkpt lat="47.50403" lon="6.76686">
        <ele>397</ele>
        <time>2015-12-20T08:28:01.000Z</time>
      </trkpt>
      <trkpt lat="47.50398" lon="6.76689">
        <ele>397</ele>
        <time>2015-12-20T08:28:02.000Z</time>
      </trkpt>
      <trkpt lat="47.50394" lon="6.76691">
        <ele>397</ele>
        <time>2015-12-20T08:28:03.000Z</time>
      </trkpt>
      <trkpt lat="47.50388" lon="6.76692">
        <ele>397</ele>
        <time>2015-12-20T08:28:04.000Z</time>
      </trkpt>
      <trkpt lat="47.50384" lon="6.76695">
        <ele>397</ele>
        <time>2015-12-20T08:28:05.000Z</time>
      </trkpt>
      <trkpt lat="47.50379" lon="6.76697">
        <ele>397</ele>
        <time>2015-12-20T08:28:06.000Z</time>
      </trkpt>
      <trkpt lat="47.50375" lon="6.76699">
        <ele>397</ele>
        <time>2015-12-20T08:28:07.000Z</time>
      </trkpt>
      <trkpt lat="47.50371" lon="6.76702">
        <ele>397</ele>
        <time>2015-12-20T08:28:08.000Z</time>
      </trkpt>
      <trkpt lat="47.50366" lon="6.76705">
        <ele>397</ele>
        <time>2015-12-20T08:28:09.000Z</time>
      </trkpt>
      <trkpt lat="47.50362" lon="6.76707">
        <ele>397</ele>
        <time>2015-12-20T08:28:10.000Z</time>
      </trkpt>
      <trkpt lat="47.50358" lon="6.76708">
        <ele>397</ele>
        <time>2015-12-20T08:28:11.000Z</time>
      </trkpt>
      <trkpt lat="47.50353" lon="6.76711">
        <ele>398</ele>
        <time>2015-12-20T08:28:12.000Z</time>
      </trkpt>
      <trkpt lat="47.50349" lon="6.76712">
        <ele>398</ele>
        <time>2015-12-20T08:28:13.000Z</time>
      </trkpt>
      <trkpt lat="47.50345" lon="6.76715">
        <ele>398</ele>
        <time>2015-12-20T08:28:14.000Z</time>
      </trkpt>
      <trkpt lat="47.50341" lon="6.76716">
        <ele>398</ele>
        <time>2015-12-20T08:28:15.000Z</time>
      </trkpt>
      <trkpt lat="47.50336" lon="6.76717">
        <ele>398</ele>
        <time>2015-12-20T08:28:16.000Z</time>
      </trkpt>
      <trkpt lat="47.50332" lon="6.76719">
        <ele>398</ele>
        <time>2015-12-20T08:28:17.000Z</time>
      </trkpt>
      <trkpt lat="47.50328" lon="6.7672">
        <ele>398</ele>
        <time>2015-12-20T08:28:18.000Z</time>
      </trkpt>
      <trkpt lat="47.50324" lon="6.76723">
        <ele>398</ele>
        <time>2015-12-20T08:28:19.000Z</time>
      </trkpt>
      <trkpt lat="47.50319" lon="6.76725">
        <ele>398</ele>
        <time>2015-12-20T08:28:20.000Z</time>
      </trkpt>
      <trkpt lat="47.50315" lon="6.76727">
        <ele>398</ele>
        <time>2015-12-20T08:28:21.000Z</time>
      </trkpt>
      <trkpt lat="47.5031" lon="6.76728">
        <ele>398</ele>
        <time>2015-12-20T08:28:22.000Z</time>
      </trkpt>
      <trkpt lat="47.50305" lon="6.76729">
        <ele>398</ele>
        <time>2015-12-20T08:28:23.000Z</time>
      </trkpt>
      <trkpt lat="47.50301" lon="6.76731">
        <ele>398</ele>
        <time>2015-12-20T08:28:24.000Z</time>
      </trkpt>
      <trkpt lat="47.50296" lon="6.76732">
        <ele>399</ele>
        <time>2015-12-20T08:28:25.000Z</time>
      </trkpt>
      <trkpt lat="47.50292" lon="6.76735">
        <ele>399</ele>
        <time>2015-12-20T08:28:26.000Z</time>
      </trkpt>
      <trkpt lat="47.50287" lon="6.76736">
        <ele>399</ele>
        <time>2015-12-20T08:28:27.000Z</time>
      </trkpt>
      <trkpt lat="47.50283" lon="6.76737">
        <ele>399</ele>
        <time>2015-12-20T08:28:28.000Z</time>
      </trkpt>
      <trkpt lat="47.50279" lon="6.76739">
        <ele>399</ele>
        <time>2015-12-20T08:28:29.000Z</time>
      </trkpt>
      <trkpt lat="47.50275" lon="6.76739">
        <ele>399</ele>
        <time>2015-12-20T08:28:30.000Z</time>
      </trkpt>
      <trkpt lat="47.50272" lon="6.7674">
        <ele>399</ele>
        <time>2015-12-20T08:28:31.000Z</time>
      </trkpt>
      <trkpt lat="47.50268" lon="6.76741">
        <ele>399</ele>
        <time>2015-12-20T08:28:32.000Z</time>
      </trkpt>
      <trkpt lat="47.50264" lon="6.76742">
        <ele>399</ele>
        <time>2015-12-20T08:28:33.000Z</time>
      </trkpt>
      <trkpt lat="47.50261" lon="6.76743">
        <ele>399</ele>
        <time>2015-12-20T08:28:34.000Z</time>
      </trkpt>
      <trkpt lat="47.50257" lon="6.76744">
        <ele>400</ele>
        <time>2015-12-20T08:28:35.000Z</time>
      </trkpt>
      <trkpt lat="47.50253" lon="6.76746">
        <ele>400</ele>
        <time>2015-12-20T08:28:36.000Z</time>
      </trkpt>
      <trkpt lat="47.50249" lon="6.76746">
        <ele>400</ele>
        <time>2015-12-20T08:28:37.000Z</time>
      </trkpt>
      <trkpt lat="47.50246" lon="6.76745">
        <ele>401</ele>
        <time>2015-12-20T08:28:38.000Z</time>
      </trkpt>
      <trkpt lat="47.50243" lon="6.76742">
        <ele>401</ele>
        <time>2015-12-20T08:28:39.000Z</time>
      </trkpt>
      <trkpt lat="47.5024" lon="6.76739">
        <ele>401</ele>
        <time>2015-12-20T08:28:40.000Z</time>
      </trkpt>
      <trkpt lat="47.50239" lon="6.76735">
        <ele>401</ele>
        <time>2015-12-20T08:28:41.000Z</time>
      </trkpt>
      <trkpt lat="47.50238" lon="6.76733">
        <ele>401</ele>
        <time>2015-12-20T08:28:42.000Z</time>
      </trkpt>
      <trkpt lat="47.50236" lon="6.76727">
        <ele>401</ele>
        <time>2015-12-20T08:28:46.000Z</time>
      </trkpt>
      <trkpt lat="47.50235" lon="6.76725">
        <ele>401</ele>
        <time>2015-12-20T08:28:47.000Z</time>
      </trkpt>
      <trkpt lat="47.50233" lon="6.76723">
        <ele>402</ele>
        <time>2015-12-20T08:28:48.000Z</time>
      </trkpt>
      <trkpt lat="47.50232" lon="6.76719">
        <ele>402</ele>
        <time>2015-12-20T08:28:49.000Z</time>
      </trkpt>
      <trkpt lat="47.5023" lon="6.76715">
        <ele>402</ele>
        <time>2015-12-20T08:28:50.000Z</time>
      </trkpt>
      <trkpt lat="47.50227" lon="6.7671">
        <ele>402</ele>
        <time>2015-12-20T08:28:51.000Z</time>
      </trkpt>
      <trkpt lat="47.50224" lon="6.76699">
        <ele>402</ele>
        <time>2015-12-20T08:28:52.000Z</time>
      </trkpt>
      <trkpt lat="47.50222" lon="6.76693">
        <ele>402</ele>
        <time>2015-12-20T08:28:53.000Z</time>
      </trkpt>
      <trkpt lat="47.5022" lon="6.76687">
        <ele>402</ele>
        <time>2015-12-20T08:28:54.000Z</time>
      </trkpt>
      <trkpt lat="47.50218" lon="6.76681">
        <ele>402</ele>
        <time>2015-12-20T08:28:55.000Z</time>
      </trkpt>
      <trkpt lat="47.50216" lon="6.76675">
        <ele>402</ele>
        <time>2015-12-20T08:28:56.000Z</time>
      </trkpt>
      <trkpt lat="47.50214" lon="6.76668">
        <ele>402</ele>
        <time>2015-12-20T08:28:57.000Z</time>
      </trkpt>
      <trkpt lat="47.50213" lon="6.76662">
        <ele>402</ele>
        <time>2015-12-20T08:28:58.000Z</time>
      </trkpt>
      <trkpt lat="47.50212" lon="6.76655">
        <ele>402</ele>
        <time>2015-12-20T08:28:59.000Z</time>
      </trkpt>
      <trkpt lat="47.5021" lon="6.76648">
        <ele>402</ele>
        <time>2015-12-20T08:29:00.000Z</time>
      </trkpt>
      <trkpt lat="47.50208" lon="6.76642">
        <ele>402</ele>
        <time>2015-12-20T08:29:01.000Z</time>
      </trkpt>
      <trkpt lat="47.50206" lon="6.76635">
        <ele>402</ele>
        <time>2015-12-20T08:29:02.000Z</time>
      </trkpt>
      <trkpt lat="47.50204" lon="6.76628">
        <ele>402</ele>
        <time>2015-12-20T08:29:03.000Z</time>
      </trkpt>
      <trkpt lat="47.50201" lon="6.76622">
        <ele>402</ele>
        <time>2015-12-20T08:29:04.000Z</time>
      </trkpt>
      <trkpt lat="47.50199" lon="6.76616">
        <ele>402</ele>
        <time>2015-12-20T08:29:05.000Z</time>
      </trkpt>
      <trkpt lat="47.50197" lon="6.76609">
        <ele>403</ele>
        <time>2015-12-20T08:29:06.000Z</time>
      </trkpt>
      <trkpt lat="47.50196" lon="6.76602">
        <ele>403</ele>
        <time>2015-12-20T08:29:07.000Z</time>
      </trkpt>
      <trkpt lat="47.50196" lon="6.76597">
        <ele>403</ele>
        <time>2015-12-20T08:29:08.000Z</time>
      </trkpt>
      <trkpt lat="47.50196" lon="6.76592">
        <ele>403</ele>
        <time>2015-12-20T08:29:09.000Z</time>
      </trkpt>
      <trkpt lat="47.50195" lon="6.76588">
        <ele>403</ele>
        <time>2015-12-20T08:29:10.000Z</time>
      </trkpt>
      <trkpt lat="47.50195" lon="6.76584">
        <ele>403</ele>
        <time>2015-12-20T08:29:11.000Z</time>
      </trkpt>
      <trkpt lat="47.50194" lon="6.7658">
        <ele>403</ele>
        <time>2015-12-20T08:29:12.000Z</time>
      </trkpt>
      <trkpt lat="47.50195" lon="6.76577">
        <ele>403</ele>
        <time>2015-12-20T08:29:13.000Z</time>
      </trkpt>
      <trkpt lat="47.50198" lon="6.76573">
        <ele>402</ele>
        <time>2015-12-20T08:29:14.000Z</time>
      </trkpt>
      <trkpt lat="47.50201" lon="6.76566">
        <ele>402</ele>
        <time>2015-12-20T08:29:15.000Z</time>
      </trkpt>
      <trkpt lat="47.50202" lon="6.76564">
        <ele>402</ele>
        <time>2015-12-20T08:29:16.000Z</time>
      </trkpt>
      <trkpt lat="47.50204" lon="6.76561">
        <ele>401</ele>
        <time>2015-12-20T08:29:17.000Z</time>
      </trkpt>
      <trkpt lat="47.50206" lon="6.76556">
        <ele>401</ele>
        <time>2015-12-20T08:29:19.000Z</time>
      </trkpt>
      <trkpt lat="47.50207" lon="6.76553">
        <ele>401</ele>
        <time>2015-12-20T08:29:20.000Z</time>
      </trkpt>
      <trkpt lat="47.50208" lon="6.7655">
        <ele>401</ele>
        <time>2015-12-20T08:29:21.000Z</time>
      </trkpt>
      <trkpt lat="47.50209" lon="6.76546">
        <ele>401</ele>
        <time>2015-12-20T08:29:22.000Z</time>
      </trkpt>
      <trkpt lat="47.5021" lon="6.76542">
        <ele>401</ele>
        <time>2015-12-20T08:29:23.000Z</time>
      </trkpt>
      <trkpt lat="47.50211" lon="6.76538">
        <ele>400</ele>
        <time>2015-12-20T08:29:24.000Z</time>
      </trkpt>
      <trkpt lat="47.50213" lon="6.76535">
        <ele>400</ele>
        <time>2015-12-20T08:29:25.000Z</time>
      </trkpt>
      <trkpt lat="47.50215" lon="6.76533">
        <ele>400</ele>
        <time>2015-12-20T08:29:26.000Z</time>
      </trkpt>
      <trkpt lat="47.50217" lon="6.7653">
        <ele>400</ele>
        <time>2015-12-20T08:29:28.000Z</time>
      </trkpt>
      <trkpt lat="47.50218" lon="6.76528">
        <ele>400</ele>
        <time>2015-12-20T08:29:29.000Z</time>
      </trkpt>
      <trkpt lat="47.50218" lon="6.76523">
        <ele>400</ele>
        <time>2015-12-20T08:29:31.000Z</time>
      </trkpt>
      <trkpt lat="47.50217" lon="6.7652">
        <ele>399</ele>
        <time>2015-12-20T08:29:32.000Z</time>
      </trkpt>
      <trkpt lat="47.50215" lon="6.76515">
        <ele>399</ele>
        <time>2015-12-20T08:29:33.000Z</time>
      </trkpt>
      <trkpt lat="47.50213" lon="6.76509">
        <ele>400</ele>
        <time>2015-12-20T08:29:34.000Z</time>
      </trkpt>
      <trkpt lat="47.50211" lon="6.76503">
        <ele>400</ele>
        <time>2015-12-20T08:29:35.000Z</time>
      </trkpt>
      <trkpt lat="47.50208" lon="6.76496">
        <ele>397</ele>
        <time>2015-12-20T08:29:36.000Z</time>
      </trkpt>
      <trkpt lat="47.50205" lon="6.76488">
        <ele>397</ele>
        <time>2015-12-20T08:29:37.000Z</time>
      </trkpt>
      <trkpt lat="47.50203" lon="6.7648">
        <ele>397</ele>
        <time>2015-12-20T08:29:38.000Z</time>
      </trkpt>
      <trkpt lat="47.50197" lon="6.76459">
        <ele>396</ele>
        <time>2015-12-20T08:29:39.000Z</time>
      </trkpt>
      <trkpt lat="47.50195" lon="6.76452">
        <ele>396</ele>
        <time>2015-12-20T08:29:40.000Z</time>
      </trkpt>
      <trkpt lat="47.50191" lon="6.76444">
        <ele>396</ele>
        <time>2015-12-20T08:29:41.000Z</time>
      </trkpt>
      <trkpt lat="47.50188" lon="6.76439">
        <ele>396</ele>
        <time>2015-12-20T08:29:42.000Z</time>
      </trkpt>
      <trkpt lat="47.50186" lon="6.76429">
        <ele>396</ele>
        <time>2015-12-20T08:29:43.000Z</time>
      </trkpt>
      <trkpt lat="47.50184" lon="6.76421">
        <ele>397</ele>
        <time>2015-12-20T08:29:44.000Z</time>
      </trkpt>
      <trkpt lat="47.50181" lon="6.76412">
        <ele>394</ele>
        <time>2015-12-20T08:29:45.000Z</time>
      </trkpt>
      <trkpt lat="47.50177" lon="6.76402">
        <ele>394</ele>
        <time>2015-12-20T08:29:46.000Z</time>
      </trkpt>
      <trkpt lat="47.50175" lon="6.76391">
        <ele>392</ele>
        <time>2015-12-20T08:29:47.000Z</time>
      </trkpt>
      <trkpt lat="47.50171" lon="6.76382">
        <ele>392</ele>
        <time>2015-12-20T08:29:48.000Z</time>
      </trkpt>
      <trkpt lat="47.50169" lon="6.76375">
        <ele>391</ele>
        <time>2015-12-20T08:29:49.000Z</time>
      </trkpt>
      <trkpt lat="47.50166" lon="6.76366">
        <ele>399</ele>
        <time>2015-12-20T08:29:50.000Z</time>
      </trkpt>
      <trkpt lat="47.50164" lon="6.76357">
        <ele>398</ele>
        <time>2015-12-20T08:29:51.000Z</time>
      </trkpt>
      <trkpt lat="47.50162" lon="6.76347">
        <ele>396</ele>
        <time>2015-12-20T08:29:52.000Z</time>
      </trkpt>
      <trkpt lat="47.5016" lon="6.76338">
        <ele>394</ele>
        <time>2015-12-20T08:29:53.000Z</time>
      </trkpt>
      <trkpt lat="47.50159" lon="6.76328">
        <ele>393</ele>
        <time>2015-12-20T08:29:54.000Z</time>
      </trkpt>
      <trkpt lat="47.50156" lon="6.76317">
        <ele>394</ele>
        <time>2015-12-20T08:29:55.000Z</time>
      </trkpt>
      <trkpt lat="47.50155" lon="6.76307">
        <ele>395</ele>
        <time>2015-12-20T08:29:56.000Z</time>
      </trkpt>
      <trkpt lat="47.50153" lon="6.76297">
        <ele>395</ele>
        <time>2015-12-20T08:29:57.000Z</time>
      </trkpt>
      <trkpt lat="47.50153" lon="6.76291">
        <ele>395</ele>
        <time>2015-12-20T08:29:58.000Z</time>
      </trkpt>
      <trkpt lat="47.50151" lon="6.76279">
        <ele>394</ele>
        <time>2015-12-20T08:29:59.000Z</time>
      </trkpt>
      <trkpt lat="47.5015" lon="6.7627">
        <ele>393</ele>
        <time>2015-12-20T08:30:00.000Z</time>
      </trkpt>
      <trkpt lat="47.50148" lon="6.7626">
        <ele>393</ele>
        <time>2015-12-20T08:30:01.000Z</time>
      </trkpt>
      <trkpt lat="47.50147" lon="6.76248">
        <ele>389</ele>
        <time>2015-12-20T08:30:02.000Z</time>
      </trkpt>
      <trkpt lat="47.50147" lon="6.76239">
        <ele>389</ele>
        <time>2015-12-20T08:30:03.000Z</time>
      </trkpt>
      <trkpt lat="47.50146" lon="6.7623">
        <ele>389</ele>
        <time>2015-12-20T08:30:04.000Z</time>
      </trkpt>
      <trkpt lat="47.50143" lon="6.76217">
        <ele>389</ele>
        <time>2015-12-20T08:30:05.000Z</time>
      </trkpt>
      <trkpt lat="47.50141" lon="6.76204">
        <ele>389</ele>
        <time>2015-12-20T08:30:06.000Z</time>
      </trkpt>
      <trkpt lat="47.50141" lon="6.76193">
        <ele>388</ele>
        <time>2015-12-20T08:30:07.000Z</time>
      </trkpt>
      <trkpt lat="47.50141" lon="6.76187">
        <ele>387</ele>
        <time>2015-12-20T08:30:08.000Z</time>
      </trkpt>
      <trkpt lat="47.50141" lon="6.76176">
        <ele>386</ele>
        <time>2015-12-20T08:30:09.000Z</time>
      </trkpt>
      <trkpt lat="47.50139" lon="6.76166">
        <ele>383</ele>
        <time>2015-12-20T08:30:10.000Z</time>
      </trkpt>
      <trkpt lat="47.50138" lon="6.76155">
        <ele>383</ele>
        <time>2015-12-20T08:30:11.000Z</time>
      </trkpt>
      <trkpt lat="47.50137" lon="6.76144">
        <ele>383</ele>
        <time>2015-12-20T08:30:12.000Z</time>
      </trkpt>
      <trkpt lat="47.50136" lon="6.76135">
        <ele>383</ele>
        <time>2015-12-20T08:30:13.000Z</time>
      </trkpt>
      <trkpt lat="47.50132" lon="6.76121">
        <ele>383</ele>
        <time>2015-12-20T08:30:14.000Z</time>
      </trkpt>
      <trkpt lat="47.50128" lon="6.7611">
        <ele>383</ele>
        <time>2015-12-20T08:30:15.000Z</time>
      </trkpt>
      <trkpt lat="47.50122" lon="6.76096">
        <ele>384</ele>
        <time>2015-12-20T08:30:16.000Z</time>
      </trkpt>
      <trkpt lat="47.50116" lon="6.76082">
        <ele>381</ele>
        <time>2015-12-20T08:30:17.000Z</time>
      </trkpt>
      <trkpt lat="47.50108" lon="6.76064">
        <ele>381</ele>
        <time>2015-12-20T08:30:18.000Z</time>
      </trkpt>
      <trkpt lat="47.50103" lon="6.76051">
        <ele>381</ele>
        <time>2015-12-20T08:30:19.000Z</time>
      </trkpt>
      <trkpt lat="47.50097" lon="6.76036">
        <ele>380</ele>
        <time>2015-12-20T08:30:20.000Z</time>
      </trkpt>
      <trkpt lat="47.5009" lon="6.76019">
        <ele>380</ele>
        <time>2015-12-20T08:30:21.000Z</time>
      </trkpt>
      <trkpt lat="47.50083" lon="6.76002">
        <ele>380</ele>
        <time>2015-12-20T08:30:22.000Z</time>
      </trkpt>
      <trkpt lat="47.50075" lon="6.75989">
        <ele>379</ele>
        <time>2015-12-20T08:30:23.000Z</time>
      </trkpt>
      <trkpt lat="47.50069" lon="6.75978">
        <ele>379</ele>
        <time>2015-12-20T08:30:24.000Z</time>
      </trkpt>
      <trkpt lat="47.50064" lon="6.7597">
        <ele>379</ele>
        <time>2015-12-20T08:30:25.000Z</time>
      </trkpt>
      <trkpt lat="47.50059" lon="6.75961">
        <ele>379</ele>
        <time>2015-12-20T08:30:26.000Z</time>
      </trkpt>
      <trkpt lat="47.50053" lon="6.75951">
        <ele>378</ele>
        <time>2015-12-20T08:30:27.000Z</time>
      </trkpt>
      <trkpt lat="47.50047" lon="6.75939">
        <ele>378</ele>
        <time>2015-12-20T08:30:28.000Z</time>
      </trkpt>
      <trkpt lat="47.50039" lon="6.75928">
        <ele>378</ele>
        <time>2015-12-20T08:30:29.000Z</time>
      </trkpt>
      <trkpt lat="47.50034" lon="6.75919">
        <ele>378</ele>
        <time>2015-12-20T08:30:30.000Z</time>
      </trkpt>
      <trkpt lat="47.50029" lon="6.75912">
        <ele>376</ele>
        <time>2015-12-20T08:30:31.000Z</time>
      </trkpt>
      <trkpt lat="47.50024" lon="6.75902">
        <ele>377</ele>
        <time>2015-12-20T08:30:32.000Z</time>
      </trkpt>
      <trkpt lat="47.5002" lon="6.75892">
        <ele>377</ele>
        <time>2015-12-20T08:30:33.000Z</time>
      </trkpt>
      <trkpt lat="47.50014" lon="6.75879">
        <ele>377</ele>
        <time>2015-12-20T08:30:34.000Z</time>
      </trkpt>
      <trkpt lat="47.50008" lon="6.75868">
        <ele>377</ele>
        <time>2015-12-20T08:30:35.000Z</time>
      </trkpt>
      <trkpt lat="47.50003" lon="6.75861">
        <ele>377</ele>
        <time>2015-12-20T08:30:36.000Z</time>
      </trkpt>
      <trkpt lat="47.49997" lon="6.75853">
        <ele>377</ele>
        <time>2015-12-20T08:30:37.000Z</time>
      </trkpt>
      <trkpt lat="47.49991" lon="6.75844">
        <ele>378</ele>
        <time>2015-12-20T08:30:38.000Z</time>
      </trkpt>
      <trkpt lat="47.49983" lon="6.75834">
        <ele>377</ele>
        <time>2015-12-20T08:30:39.000Z</time>
      </trkpt>
      <trkpt lat="47.49977" lon="6.75824">
        <ele>376</ele>
        <time>2015-12-20T08:30:40.000Z</time>
      </trkpt>
      <trkpt lat="47.49972" lon="6.75812">
        <ele>375</ele>
        <time>2015-12-20T08:30:41.000Z</time>
      </trkpt>
      <trkpt lat="47.49965" lon="6.75803">
        <ele>374</ele>
        <time>2015-12-20T08:30:42.000Z</time>
      </trkpt>
      <trkpt lat="47.49958" lon="6.75793">
        <ele>374</ele>
        <time>2015-12-20T08:30:43.000Z</time>
      </trkpt>
      <trkpt lat="47.49952" lon="6.75785">
        <ele>373</ele>
        <time>2015-12-20T08:30:44.000Z</time>
      </trkpt>
      <trkpt lat="47.49946" lon="6.75775">
        <ele>373</ele>
        <time>2015-12-20T08:30:45.000Z</time>
      </trkpt>
      <trkpt lat="47.49938" lon="6.75766">
        <ele>372</ele>
        <time>2015-12-20T08:30:46.000Z</time>
      </trkpt>
      <trkpt lat="47.49932" lon="6.75759">
        <ele>371</ele>
        <time>2015-12-20T08:30:47.000Z</time>
      </trkpt>
      <trkpt lat="47.49924" lon="6.75755">
        <ele>370</ele>
        <time>2015-12-20T08:30:48.000Z</time>
      </trkpt>
      <trkpt lat="47.49916" lon="6.75751">
        <ele>369</ele>
        <time>2015-12-20T08:30:49.000Z</time>
      </trkpt>
      <trkpt lat="47.49909" lon="6.75749">
        <ele>367</ele>
        <time>2015-12-20T08:30:50.000Z</time>
      </trkpt>
      <trkpt lat="47.49902" lon="6.75747">
        <ele>366</ele>
        <time>2015-12-20T08:30:51.000Z</time>
      </trkpt>
      <trkpt lat="47.49893" lon="6.75745">
        <ele>365</ele>
        <time>2015-12-20T08:30:52.000Z</time>
      </trkpt>
      <trkpt lat="47.49885" lon="6.7574">
        <ele>364</ele>
        <time>2015-12-20T08:30:53.000Z</time>
      </trkpt>
      <trkpt lat="47.49877" lon="6.7574">
        <ele>363</ele>
        <time>2015-12-20T08:30:54.000Z</time>
      </trkpt>
      <trkpt lat="47.49867" lon="6.7574">
        <ele>362</ele>
        <time>2015-12-20T08:30:55.000Z</time>
      </trkpt>
      <trkpt lat="47.49858" lon="6.75743">
        <ele>362</ele>
        <time>2015-12-20T08:30:56.000Z</time>
      </trkpt>
      <trkpt lat="47.49847" lon="6.75743">
        <ele>361</ele>
        <time>2015-12-20T08:30:57.000Z</time>
      </trkpt>
      <trkpt lat="47.49835" lon="6.75746">
        <ele>360</ele>
        <time>2015-12-20T08:30:58.000Z</time>
      </trkpt>
      <trkpt lat="47.49826" lon="6.75746">
        <ele>357</ele>
        <time>2015-12-20T08:30:59.000Z</time>
      </trkpt>
      <trkpt lat="47.49816" lon="6.75746">
        <ele>355</ele>
        <time>2015-12-20T08:31:00.000Z</time>
      </trkpt>
      <trkpt lat="47.49807" lon="6.75744">
        <ele>354</ele>
        <time>2015-12-20T08:31:01.000Z</time>
      </trkpt>
      <trkpt lat="47.49798" lon="6.75746">
        <ele>353</ele>
        <time>2015-12-20T08:31:02.000Z</time>
      </trkpt>
      <trkpt lat="47.49788" lon="6.75748">
        <ele>352</ele>
        <time>2015-12-20T08:31:03.000Z</time>
      </trkpt>
      <trkpt lat="47.49777" lon="6.7575">
        <ele>351</ele>
        <time>2015-12-20T08:31:04.000Z</time>
      </trkpt>
      <trkpt lat="47.49767" lon="6.75755">
        <ele>356</ele>
        <time>2015-12-20T08:31:05.000Z</time>
      </trkpt>
      <trkpt lat="47.49754" lon="6.75757">
        <ele>354</ele>
        <time>2015-12-20T08:31:06.000Z</time>
      </trkpt>
      <trkpt lat="47.49744" lon="6.7576">
        <ele>352</ele>
        <time>2015-12-20T08:31:07.000Z</time>
      </trkpt>
      <trkpt lat="47.49733" lon="6.75765">
        <ele>353</ele>
        <time>2015-12-20T08:31:08.000Z</time>
      </trkpt>
      <trkpt lat="47.49723" lon="6.75769">
        <ele>353</ele>
        <time>2015-12-20T08:31:09.000Z</time>
      </trkpt>
      <trkpt lat="47.49713" lon="6.75767">
        <ele>353</ele>
        <time>2015-12-20T08:31:10.000Z</time>
      </trkpt>
      <trkpt lat="47.49704" lon="6.75771">
        <ele>353</ele>
        <time>2015-12-20T08:31:11.000Z</time>
      </trkpt>
      <trkpt lat="47.49695" lon="6.75773">
        <ele>352</ele>
        <time>2015-12-20T08:31:12.000Z</time>
      </trkpt>
      <trkpt lat="47.49686" lon="6.75776">
        <ele>352</ele>
        <time>2015-12-20T08:31:13.000Z</time>
      </trkpt>
      <trkpt lat="47.49679" lon="6.75776">
        <ele>352</ele>
        <time>2015-12-20T08:31:14.000Z</time>
      </trkpt>
      <trkpt lat="47.49671" lon="6.75778">
        <ele>351</ele>
        <time>2015-12-20T08:31:15.000Z</time>
      </trkpt>
      <trkpt lat="47.49663" lon="6.7578">
        <ele>347</ele>
        <time>2015-12-20T08:31:16.000Z</time>
      </trkpt>
      <trkpt lat="47.49656" lon="6.7578">
        <ele>347</ele>
        <time>2015-12-20T08:31:17.000Z</time>
      </trkpt>
      <trkpt lat="47.49649" lon="6.75779">
        <ele>346</ele>
        <time>2015-12-20T08:31:18.000Z</time>
      </trkpt>
      <trkpt lat="47.49643" lon="6.7578">
        <ele>346</ele>
        <time>2015-12-20T08:31:19.000Z</time>
      </trkpt>
      <trkpt lat="47.49635" lon="6.7578">
        <ele>346</ele>
        <time>2015-12-20T08:31:20.000Z</time>
      </trkpt>
      <trkpt lat="47.4963" lon="6.75779">
        <ele>345</ele>
        <time>2015-12-20T08:31:21.000Z</time>
      </trkpt>
      <trkpt lat="47.49623" lon="6.75779">
        <ele>345</ele>
        <time>2015-12-20T08:31:22.000Z</time>
      </trkpt>
      <trkpt lat="47.49617" lon="6.75779">
        <ele>345</ele>
        <time>2015-12-20T08:31:23.000Z</time>
      </trkpt>
      <trkpt lat="47.4961" lon="6.7578">
        <ele>344</ele>
        <time>2015-12-20T08:31:24.000Z</time>
      </trkpt>
      <trkpt lat="47.49603" lon="6.75779">
        <ele>344</ele>
        <time>2015-12-20T08:31:25.000Z</time>
      </trkpt>
      <trkpt lat="47.49597" lon="6.75778">
        <ele>343</ele>
        <time>2015-12-20T08:31:26.000Z</time>
      </trkpt>
      <trkpt lat="47.49591" lon="6.75776">
        <ele>342</ele>
        <time>2015-12-20T08:31:27.000Z</time>
      </trkpt>
      <trkpt lat="47.49585" lon="6.75773">
        <ele>341</ele>
        <time>2015-12-20T08:31:28.000Z</time>
      </trkpt>
      <trkpt lat="47.4958" lon="6.7577">
        <ele>336</ele>
        <time>2015-12-20T08:31:29.000Z</time>
      </trkpt>
      <trkpt lat="47.49577" lon="6.75768">
        <ele>336</ele>
        <time>2015-12-20T08:31:30.000Z</time>
      </trkpt>
      <trkpt lat="47.49574" lon="6.75766">
        <ele>335</ele>
        <time>2015-12-20T08:31:31.000Z</time>
      </trkpt>
      <trkpt lat="47.49577" lon="6.75761">
        <ele>335</ele>
        <time>2015-12-20T08:31:32.000Z</time>
      </trkpt>
      <trkpt lat="47.4958" lon="6.75759">
        <ele>335</ele>
        <time>2015-12-20T08:31:33.000Z</time>
      </trkpt>
      <trkpt lat="47.49584" lon="6.75756">
        <ele>337</ele>
        <time>2015-12-20T08:31:34.000Z</time>
      </trkpt>
      <trkpt lat="47.49588" lon="6.75753">
        <ele>336</ele>
        <time>2015-12-20T08:31:35.000Z</time>
      </trkpt>
      <trkpt lat="47.49592" lon="6.75746">
        <ele>333</ele>
        <time>2015-12-20T08:31:36.000Z</time>
      </trkpt>
      <trkpt lat="47.49596" lon="6.7574">
        <ele>333</ele>
        <time>2015-12-20T08:31:37.000Z</time>
      </trkpt>
      <trkpt lat="47.496" lon="6.75733">
        <ele>333</ele>
        <time>2015-12-20T08:31:38.000Z</time>
      </trkpt>
      <trkpt lat="47.49604" lon="6.75726">
        <ele>332</ele>
        <time>2015-12-20T08:31:39.000Z</time>
      </trkpt>
      <trkpt lat="47.49606" lon="6.75718">
        <ele>332</ele>
        <time>2015-12-20T08:31:40.000Z</time>
      </trkpt>
      <trkpt lat="47.49607" lon="6.75709">
        <ele>331</ele>
        <time>2015-12-20T08:31:41.000Z</time>
      </trkpt>
      <trkpt lat="47.49608" lon="6.757">
        <ele>330</ele>
        <time>2015-12-20T08:31:42.000Z</time>
      </trkpt>
      <trkpt lat="47.49606" lon="6.75692">
        <ele>329</ele>
        <time>2015-12-20T08:31:43.000Z</time>
      </trkpt>
      <trkpt lat="47.496" lon="6.75684">
        <ele>327</ele>
        <time>2015-12-20T08:31:44.000Z</time>
      </trkpt>
      <trkpt lat="47.49596" lon="6.75678">
        <ele>326</ele>
        <time>2015-12-20T08:31:45.000Z</time>
      </trkpt>
      <trkpt lat="47.49591" lon="6.75672">
        <ele>324</ele>
        <time>2015-12-20T08:31:46.000Z</time>
      </trkpt>
      <trkpt lat="47.49582" lon="6.75667">
        <ele>321</ele>
        <time>2015-12-20T08:31:47.000Z</time>
      </trkpt>
      <trkpt lat="47.49574" lon="6.75668">
        <ele>322</ele>
        <time>2015-12-20T08:31:48.000Z</time>
      </trkpt>
      <trkpt lat="47.49568" lon="6.75671">
        <ele>323</ele>
        <time>2015-12-20T08:31:49.000Z</time>
      </trkpt>
      <trkpt lat="47.49563" lon="6.75677">
        <ele>323</ele>
        <time>2015-12-20T08:31:50.000Z</time>
      </trkpt>
      <trkpt lat="47.49559" lon="6.75682">
        <ele>324</ele>
        <time>2015-12-20T08:31:51.000Z</time>
      </trkpt>
      <trkpt lat="47.49554" lon="6.75689">
        <ele>324</ele>
        <time>2015-12-20T08:31:52.000Z</time>
      </trkpt>
      <trkpt lat="47.49549" lon="6.75694">
        <ele>324</ele>
        <time>2015-12-20T08:31:53.000Z</time>
      </trkpt>
      <trkpt lat="47.49544" lon="6.757">
        <ele>325</ele>
        <time>2015-12-20T08:31:54.000Z</time>
      </trkpt>
      <trkpt lat="47.4954" lon="6.75705">
        <ele>325</ele>
        <time>2015-12-20T08:31:55.000Z</time>
      </trkpt>
      <trkpt lat="47.49535" lon="6.7571">
        <ele>325</ele>
        <time>2015-12-20T08:31:56.000Z</time>
      </trkpt>
      <trkpt lat="47.4953" lon="6.75714">
        <ele>325</ele>
        <time>2015-12-20T08:31:57.000Z</time>
      </trkpt>
      <trkpt lat="47.49524" lon="6.75718">
        <ele>325</ele>
        <time>2015-12-20T08:31:58.000Z</time>
      </trkpt>
      <trkpt lat="47.49519" lon="6.75722">
        <ele>325</ele>
        <time>2015-12-20T08:31:59.000Z</time>
      </trkpt>
      <trkpt lat="47.49513" lon="6.75725">
        <ele>325</ele>
        <time>2015-12-20T08:32:00.000Z</time>
      </trkpt>
      <trkpt lat="47.49508" lon="6.75728">
        <ele>325</ele>
        <time>2015-12-20T08:32:01.000Z</time>
      </trkpt>
      <trkpt lat="47.49502" lon="6.7573">
        <ele>324</ele>
        <time>2015-12-20T08:32:02.000Z</time>
      </trkpt>
      <trkpt lat="47.49496" lon="6.75733">
        <ele>322</ele>
        <time>2015-12-20T08:32:03.000Z</time>
      </trkpt>
      <trkpt lat="47.4949" lon="6.75733">
        <ele>322</ele>
        <time>2015-12-20T08:32:04.000Z</time>
      </trkpt>
      <trkpt lat="47.49485" lon="6.75728">
        <ele>322</ele>
        <time>2015-12-20T08:32:05.000Z</time>
      </trkpt>
      <trkpt lat="47.4948" lon="6.75725">
        <ele>322</ele>
        <time>2015-12-20T08:32:06.000Z</time>
      </trkpt>
      <trkpt lat="47.49477" lon="6.75718">
        <ele>322</ele>
        <time>2015-12-20T08:32:07.000Z</time>
      </trkpt>
      <trkpt lat="47.49475" lon="6.75712">
        <ele>321</ele>
        <time>2015-12-20T08:32:08.000Z</time>
      </trkpt>
      <trkpt lat="47.49473" lon="6.75705">
        <ele>321</ele>
        <time>2015-12-20T08:32:09.000Z</time>
      </trkpt>
      <trkpt lat="47.49471" lon="6.75698">
        <ele>321</ele>
        <time>2015-12-20T08:32:10.000Z</time>
      </trkpt>
      <trkpt lat="47.49467" lon="6.75692">
        <ele>321</ele>
        <time>2015-12-20T08:32:11.000Z</time>
      </trkpt>
      <trkpt lat="47.4946" lon="6.75694">
        <ele>321</ele>
        <time>2015-12-20T08:32:12.000Z</time>
      </trkpt>
      <trkpt lat="47.49456" lon="6.75696">
        <ele>321</ele>
        <time>2015-12-20T08:32:13.000Z</time>
      </trkpt>
      <trkpt lat="47.49451" lon="6.757">
        <ele>321</ele>
        <time>2015-12-20T08:32:14.000Z</time>
      </trkpt>
      <trkpt lat="47.49445" lon="6.75701">
        <ele>321</ele>
        <time>2015-12-20T08:32:15.000Z</time>
      </trkpt>
      <trkpt lat="47.49443" lon="6.75692">
        <ele>321</ele>
        <time>2015-12-20T08:32:16.000Z</time>
      </trkpt>
      <trkpt lat="47.49443" lon="6.75685">
        <ele>320</ele>
        <time>2015-12-20T08:32:17.000Z</time>
      </trkpt>
      <trkpt lat="47.49442" lon="6.75679">
        <ele>320</ele>
        <time>2015-12-20T08:32:18.000Z</time>
      </trkpt>
      <trkpt lat="47.4944" lon="6.75673">
        <ele>320</ele>
        <time>2015-12-20T08:32:19.000Z</time>
      </trkpt>
      <trkpt lat="47.49436" lon="6.75668">
        <ele>320</ele>
        <time>2015-12-20T08:32:20.000Z</time>
      </trkpt>
      <trkpt lat="47.49432" lon="6.75667">
        <ele>320</ele>
        <time>2015-12-20T08:32:21.000Z</time>
      </trkpt>
      <trkpt lat="47.49428" lon="6.75668">
        <ele>320</ele>
        <time>2015-12-20T08:32:22.000Z</time>
      </trkpt>
      <trkpt lat="47.49423" lon="6.75672">
        <ele>320</ele>
        <time>2015-12-20T08:32:23.000Z</time>
      </trkpt>
      <trkpt lat="47.49419" lon="6.75675">
        <ele>320</ele>
        <time>2015-12-20T08:32:24.000Z</time>
      </trkpt>
      <trkpt lat="47.49416" lon="6.75675">
        <ele>319</ele>
        <time>2015-12-20T08:32:25.000Z</time>
      </trkpt>
      <trkpt lat="47.49412" lon="6.75679">
        <ele>319</ele>
        <time>2015-12-20T08:32:26.000Z</time>
      </trkpt>
      <trkpt lat="47.49407" lon="6.75682">
        <ele>319</ele>
        <time>2015-12-20T08:32:27.000Z</time>
      </trkpt>
      <trkpt lat="47.49402" lon="6.75684">
        <ele>319</ele>
        <time>2015-12-20T08:32:28.000Z</time>
      </trkpt>
      <trkpt lat="47.49398" lon="6.75687">
        <ele>319</ele>
        <time>2015-12-20T08:32:29.000Z</time>
      </trkpt>
      <trkpt lat="47.49393" lon="6.7569">
        <ele>319</ele>
        <time>2015-12-20T08:32:30.000Z</time>
      </trkpt>
      <trkpt lat="47.49388" lon="6.75693">
        <ele>319</ele>
        <time>2015-12-20T08:32:31.000Z</time>
      </trkpt>
      <trkpt lat="47.49384" lon="6.75696">
        <ele>319</ele>
        <time>2015-12-20T08:32:32.000Z</time>
      </trkpt>
      <trkpt lat="47.4938" lon="6.75702">
        <ele>319</ele>
        <time>2015-12-20T08:32:33.000Z</time>
      </trkpt>
      <trkpt lat="47.49376" lon="6.75707">
        <ele>319</ele>
        <time>2015-12-20T08:32:34.000Z</time>
      </trkpt>
      <trkpt lat="47.49372" lon="6.75708">
        <ele>319</ele>
        <time>2015-12-20T08:32:35.000Z</time>
      </trkpt>
      <trkpt lat="47.49369" lon="6.75711">
        <ele>319</ele>
        <time>2015-12-20T08:32:36.000Z</time>
      </trkpt>
      <trkpt lat="47.49365" lon="6.75715">
        <ele>319</ele>
        <time>2015-12-20T08:32:38.000Z</time>
      </trkpt>
      <trkpt lat="47.49365" lon="6.75717">
        <ele>319</ele>
        <time>2015-12-20T08:32:39.000Z</time>
      </trkpt>
      <trkpt lat="47.49361" lon="6.75719">
        <ele>319</ele>
        <time>2015-12-20T08:32:41.000Z</time>
      </trkpt>
      <trkpt lat="47.49355" lon="6.7572">
        <ele>319</ele>
        <time>2015-12-20T08:32:42.000Z</time>
      </trkpt>
      <trkpt lat="47.4935" lon="6.75722">
        <ele>319</ele>
        <time>2015-12-20T08:32:43.000Z</time>
      </trkpt>
      <trkpt lat="47.49345" lon="6.75726">
        <ele>318</ele>
        <time>2015-12-20T08:32:44.000Z</time>
      </trkpt>
      <trkpt lat="47.4934" lon="6.75727">
        <ele>318</ele>
        <time>2015-12-20T08:32:45.001Z</time>
      </trkpt>
      <trkpt lat="47.49336" lon="6.75728">
        <ele>318</ele>
        <time>2015-12-20T08:32:46.000Z</time>
      </trkpt>
      <trkpt lat="47.49332" lon="6.75729">
        <ele>319</ele>
        <time>2015-12-20T08:32:47.000Z</time>
      </trkpt>
      <trkpt lat="47.49328" lon="6.7573">
        <ele>319</ele>
        <time>2015-12-20T08:32:48.000Z</time>
      </trkpt>
      <trkpt lat="47.4932" lon="6.7574">
        <ele>319</ele>
        <time>2015-12-20T08:32:49.000Z</time>
      </trkpt>
      <trkpt lat="47.49314" lon="6.75747">
        <ele>319</ele>
        <time>2015-12-20T08:32:50.000Z</time>
      </trkpt>
      <trkpt lat="47.49311" lon="6.75753">
        <ele>318</ele>
        <time>2015-12-20T08:32:51.000Z</time>
      </trkpt>
      <trkpt lat="47.49308" lon="6.75759">
        <ele>318</ele>
        <time>2015-12-20T08:32:52.000Z</time>
      </trkpt>
      <trkpt lat="47.49304" lon="6.75763">
        <ele>318</ele>
        <time>2015-12-20T08:32:53.000Z</time>
      </trkpt>
      <trkpt lat="47.49298" lon="6.75774">
        <ele>318</ele>
        <time>2015-12-20T08:32:54.000Z</time>
      </trkpt>
      <trkpt lat="47.4929" lon="6.75781">
        <ele>318</ele>
        <time>2015-12-20T08:32:55.000Z</time>
      </trkpt>
      <trkpt lat="47.49285" lon="6.7579">
        <ele>318</ele>
        <time>2015-12-20T08:32:56.000Z</time>
      </trkpt>
      <trkpt lat="47.49281" lon="6.75798">
        <ele>318</ele>
        <time>2015-12-20T08:32:57.000Z</time>
      </trkpt>
      <trkpt lat="47.49276" lon="6.75804">
        <ele>317</ele>
        <time>2015-12-20T08:32:58.000Z</time>
      </trkpt>
      <trkpt lat="47.49272" lon="6.75812">
        <ele>317</ele>
        <time>2015-12-20T08:32:59.000Z</time>
      </trkpt>
      <trkpt lat="47.49267" lon="6.75821">
        <ele>316</ele>
        <time>2015-12-20T08:33:00.000Z</time>
      </trkpt>
      <trkpt lat="47.49263" lon="6.75827">
        <ele>315</ele>
        <time>2015-12-20T08:33:01.000Z</time>
      </trkpt>
      <trkpt lat="47.49259" lon="6.75833">
        <ele>315</ele>
        <time>2015-12-20T08:33:02.000Z</time>
      </trkpt>
      <trkpt lat="47.49255" lon="6.75841">
        <ele>315</ele>
        <time>2015-12-20T08:33:03.000Z</time>
      </trkpt>
      <trkpt lat="47.49252" lon="6.75849">
        <ele>316</ele>
        <time>2015-12-20T08:33:04.000Z</time>
      </trkpt>
      <trkpt lat="47.49248" lon="6.75857">
        <ele>317</ele>
        <time>2015-12-20T08:33:04.999Z</time>
      </trkpt>
      <trkpt lat="47.49246" lon="6.75865">
        <ele>317</ele>
        <time>2015-12-20T08:33:06.000Z</time>
      </trkpt>
      <trkpt lat="47.49239" lon="6.75877">
        <ele>318</ele>
        <time>2015-12-20T08:33:07.000Z</time>
      </trkpt>
      <trkpt lat="47.49235" lon="6.75885">
        <ele>318</ele>
        <time>2015-12-20T08:33:08.000Z</time>
      </trkpt>
      <trkpt lat="47.49231" lon="6.75892">
        <ele>318</ele>
        <time>2015-12-20T08:33:09.000Z</time>
      </trkpt>
      <trkpt lat="47.49228" lon="6.75895">
        <ele>318</ele>
        <time>2015-12-20T08:33:10.000Z</time>
      </trkpt>
      <trkpt lat="47.49224" lon="6.75902">
        <ele>319</ele>
        <time>2015-12-20T08:33:11.000Z</time>
      </trkpt>
      <trkpt lat="47.4922" lon="6.75909">
        <ele>319</ele>
        <time>2015-12-20T08:33:11.999Z</time>
      </trkpt>
      <trkpt lat="47.49217" lon="6.7592">
        <ele>319</ele>
        <time>2015-12-20T08:33:13.000Z</time>
      </trkpt>
      <trkpt lat="47.49211" lon="6.75928">
        <ele>320</ele>
        <time>2015-12-20T08:33:14.000Z</time>
      </trkpt>
      <trkpt lat="47.49208" lon="6.75935">
        <ele>320</ele>
        <time>2015-12-20T08:33:15.000Z</time>
      </trkpt>
      <trkpt lat="47.49205" lon="6.75942">
        <ele>320</ele>
        <time>2015-12-20T08:33:16.000Z</time>
      </trkpt>
      <trkpt lat="47.49201" lon="6.75948">
        <ele>320</ele>
        <time>2015-12-20T08:33:16.999Z</time>
      </trkpt>
      <trkpt lat="47.49196" lon="6.75957">
        <ele>320</ele>
        <time>2015-12-20T08:33:18.000Z</time>
      </trkpt>
      <trkpt lat="47.49193" lon="6.75963">
        <ele>320</ele>
        <time>2015-12-20T08:33:19.000Z</time>
      </trkpt>
      <trkpt lat="47.49189" lon="6.75971">
        <ele>320</ele>
        <time>2015-12-20T08:33:20.000Z</time>
      </trkpt>
      <trkpt lat="47.49185" lon="6.75978">
        <ele>320</ele>
        <time>2015-12-20T08:33:21.000Z</time>
      </trkpt>
      <trkpt lat="47.49181" lon="6.75986">
        <ele>320</ele>
        <time>2015-12-20T08:33:22.000Z</time>
      </trkpt>
      <trkpt lat="47.49179" lon="6.75996">
        <ele>320</ele>
        <time>2015-12-20T08:33:23.000Z</time>
      </trkpt>
      <trkpt lat="47.49176" lon="6.76003">
        <ele>320</ele>
        <time>2015-12-20T08:33:24.000Z</time>
      </trkpt>
      <trkpt lat="47.49172" lon="6.7601">
        <ele>320</ele>
        <time>2015-12-20T08:33:25.000Z</time>
      </trkpt>
      <trkpt lat="47.49169" lon="6.76018">
        <ele>320</ele>
        <time>2015-12-20T08:33:26.000Z</time>
      </trkpt>
      <trkpt lat="47.49166" lon="6.76026">
        <ele>322</ele>
        <time>2015-12-20T08:33:27.000Z</time>
      </trkpt>
      <trkpt lat="47.49162" lon="6.76035">
        <ele>322</ele>
        <time>2015-12-20T08:33:28.000Z</time>
      </trkpt>
      <trkpt lat="47.49159" lon="6.76044">
        <ele>322</ele>
        <time>2015-12-20T08:33:29.000Z</time>
      </trkpt>
      <trkpt lat="47.49156" lon="6.76054">
        <ele>322</ele>
        <time>2015-12-20T08:33:30.000Z</time>
      </trkpt>
      <trkpt lat="47.49154" lon="6.76062">
        <ele>322</ele>
        <time>2015-12-20T08:33:31.000Z</time>
      </trkpt>
      <trkpt lat="47.49151" lon="6.76071">
        <ele>322</ele>
        <time>2015-12-20T08:33:32.000Z</time>
      </trkpt>
      <trkpt lat="47.49149" lon="6.76081">
        <ele>321</ele>
        <time>2015-12-20T08:33:33.000Z</time>
      </trkpt>
      <trkpt lat="47.49147" lon="6.76089">
        <ele>321</ele>
        <time>2015-12-20T08:33:34.000Z</time>
      </trkpt>
      <trkpt lat="47.49145" lon="6.76098">
        <ele>321</ele>
        <time>2015-12-20T08:33:35.000Z</time>
      </trkpt>
      <trkpt lat="47.49143" lon="6.76107">
        <ele>321</ele>
        <time>2015-12-20T08:33:36.000Z</time>
      </trkpt>
      <trkpt lat="47.49141" lon="6.76116">
        <ele>322</ele>
        <time>2015-12-20T08:33:37.000Z</time>
      </trkpt>
      <trkpt lat="47.49139" lon="6.76125">
        <ele>322</ele>
        <time>2015-12-20T08:33:38.000Z</time>
      </trkpt>
      <trkpt lat="47.49138" lon="6.76134">
        <ele>322</ele>
        <time>2015-12-20T08:33:39.000Z</time>
      </trkpt>
      <trkpt lat="47.49136" lon="6.76144">
        <ele>322</ele>
        <time>2015-12-20T08:33:40.000Z</time>
      </trkpt>
      <trkpt lat="47.49134" lon="6.76154">
        <ele>322</ele>
        <time>2015-12-20T08:33:41.001Z</time>
      </trkpt>
      <trkpt lat="47.49133" lon="6.76162">
        <ele>322</ele>
        <time>2015-12-20T08:33:42.000Z</time>
      </trkpt>
      <trkpt lat="47.49132" lon="6.76171">
        <ele>321</ele>
        <time>2015-12-20T08:33:43.000Z</time>
      </trkpt>
      <trkpt lat="47.49132" lon="6.76182">
        <ele>321</ele>
        <time>2015-12-20T08:33:44.000Z</time>
      </trkpt>
      <trkpt lat="47.49131" lon="6.76191">
        <ele>321</ele>
        <time>2015-12-20T08:33:45.000Z</time>
      </trkpt>
      <trkpt lat="47.49131" lon="6.762">
        <ele>321</ele>
        <time>2015-12-20T08:33:46.001Z</time>
      </trkpt>
      <trkpt lat="47.49132" lon="6.7621">
        <ele>321</ele>
        <time>2015-12-20T08:33:47.000Z</time>
      </trkpt>
      <trkpt lat="47.49132" lon="6.76219">
        <ele>321</ele>
        <time>2015-12-20T08:33:47.999Z</time>
      </trkpt>
      <trkpt lat="47.49133" lon="6.76228">
        <ele>320</ele>
        <time>2015-12-20T08:33:49.000Z</time>
      </trkpt>
      <trkpt lat="47.49136" lon="6.76236">
        <ele>320</ele>
        <time>2015-12-20T08:33:50.000Z</time>
      </trkpt>
      <trkpt lat="47.49136" lon="6.76244">
        <ele>320</ele>
        <time>2015-12-20T08:33:51.000Z</time>
      </trkpt>
      <trkpt lat="47.49136" lon="6.76254">
        <ele>319</ele>
        <time>2015-12-20T08:33:52.000Z</time>
      </trkpt>
      <trkpt lat="47.49136" lon="6.76261">
        <ele>319</ele>
        <time>2015-12-20T08:33:53.000Z</time>
      </trkpt>
      <trkpt lat="47.49136" lon="6.76268">
        <ele>319</ele>
        <time>2015-12-20T08:33:54.000Z</time>
      </trkpt>
      <trkpt lat="47.49136" lon="6.76278">
        <ele>319</ele>
        <time>2015-12-20T08:33:55.000Z</time>
      </trkpt>
      <trkpt lat="47.49135" lon="6.76287">
        <ele>319</ele>
        <time>2015-12-20T08:33:56.000Z</time>
      </trkpt>
      <trkpt lat="47.49136" lon="6.76298">
        <ele>319</ele>
        <time>2015-12-20T08:33:57.000Z</time>
      </trkpt>
      <trkpt lat="47.49134" lon="6.76305">
        <ele>319</ele>
        <time>2015-12-20T08:33:58.000Z</time>
      </trkpt>
      <trkpt lat="47.49133" lon="6.76314">
        <ele>319</ele>
        <time>2015-12-20T08:33:59.000Z</time>
      </trkpt>
      <trkpt lat="47.49134" lon="6.76325">
        <ele>318</ele>
        <time>2015-12-20T08:34:00.000Z</time>
      </trkpt>
      <trkpt lat="47.4913" lon="6.76334">
        <ele>318</ele>
        <time>2015-12-20T08:34:01.000Z</time>
      </trkpt>
      <trkpt lat="47.49128" lon="6.76344">
        <ele>318</ele>
        <time>2015-12-20T08:34:02.000Z</time>
      </trkpt>
      <trkpt lat="47.49128" lon="6.76356">
        <ele>318</ele>
        <time>2015-12-20T08:34:03.000Z</time>
      </trkpt>
      <trkpt lat="47.49127" lon="6.76366">
        <ele>318</ele>
        <time>2015-12-20T08:34:04.000Z</time>
      </trkpt>
      <trkpt lat="47.49127" lon="6.76375">
        <ele>318</ele>
        <time>2015-12-20T08:34:05.000Z</time>
      </trkpt>
      <trkpt lat="47.49127" lon="6.76385">
        <ele>318</ele>
        <time>2015-12-20T08:34:06.000Z</time>
      </trkpt>
      <trkpt lat="47.49125" lon="6.76394">
        <ele>318</ele>
        <time>2015-12-20T08:34:07.000Z</time>
      </trkpt>
      <trkpt lat="47.49125" lon="6.76405">
        <ele>317</ele>
        <time>2015-12-20T08:34:08.000Z</time>
      </trkpt>
      <trkpt lat="47.49125" lon="6.76415">
        <ele>317</ele>
        <time>2015-12-20T08:34:09.000Z</time>
      </trkpt>
      <trkpt lat="47.49125" lon="6.76425">
        <ele>317</ele>
        <time>2015-12-20T08:34:10.000Z</time>
      </trkpt>
      <trkpt lat="47.49129" lon="6.76435">
        <ele>317</ele>
        <time>2015-12-20T08:34:11.000Z</time>
      </trkpt>
      <trkpt lat="47.49129" lon="6.76444">
        <ele>317</ele>
        <time>2015-12-20T08:34:12.000Z</time>
      </trkpt>
      <trkpt lat="47.49128" lon="6.76453">
        <ele>317</ele>
        <time>2015-12-20T08:34:13.000Z</time>
      </trkpt>
      <trkpt lat="47.49129" lon="6.76461">
        <ele>317</ele>
        <time>2015-12-20T08:34:14.000Z</time>
      </trkpt>
      <trkpt lat="47.49129" lon="6.76471">
        <ele>317</ele>
        <time>2015-12-20T08:34:15.000Z</time>
      </trkpt>
      <trkpt lat="47.4913" lon="6.76481">
        <ele>317</ele>
        <time>2015-12-20T08:34:16.000Z</time>
      </trkpt>
      <trkpt lat="47.4913" lon="6.76489">
        <ele>317</ele>
        <time>2015-12-20T08:34:17.000Z</time>
      </trkpt>
      <trkpt lat="47.4913" lon="6.76499">
        <ele>317</ele>
        <time>2015-12-20T08:34:17.998Z</time>
      </trkpt>
      <trkpt lat="47.4913" lon="6.76507">
        <ele>316</ele>
        <time>2015-12-20T08:34:19.000Z</time>
      </trkpt>
      <trkpt lat="47.49132" lon="6.76512">
        <ele>316</ele>
        <time>2015-12-20T08:34:21.000Z</time>
      </trkpt>
      <trkpt lat="47.49133" lon="6.76515">
        <ele>316</ele>
        <time>2015-12-20T08:34:22.000Z</time>
      </trkpt>
      <trkpt lat="47.49146" lon="6.7651">
        <ele>315</ele>
        <time>2015-12-20T08:34:23.000Z</time>
      </trkpt>
      <trkpt lat="47.49153" lon="6.76508">
        <ele>314</ele>
        <time>2015-12-20T08:34:24.000Z</time>
      </trkpt>
      <trkpt lat="47.49158" lon="6.76505">
        <ele>314</ele>
        <time>2015-12-20T08:34:25.000Z</time>
      </trkpt>
      <trkpt lat="47.49163" lon="6.76502">
        <ele>313</ele>
        <time>2015-12-20T08:34:26.000Z</time>
      </trkpt>
      <trkpt lat="47.49168" lon="6.76498">
        <ele>314</ele>
        <time>2015-12-20T08:34:27.000Z</time>
      </trkpt>
      <trkpt lat="47.49172" lon="6.76495">
        <ele>314</ele>
        <time>2015-12-20T08:34:28.000Z</time>
      </trkpt>
      <trkpt lat="47.49175" lon="6.76493">
        <ele>315</ele>
        <time>2015-12-20T08:34:30.000Z</time>
      </trkpt>
      <trkpt lat="47.49177" lon="6.7649">
        <ele>315</ele>
        <time>2015-12-20T08:34:31.000Z</time>
      </trkpt>
      <trkpt lat="47.49181" lon="6.76487">
        <ele>316</ele>
        <time>2015-12-20T08:34:33.000Z</time>
      </trkpt>
      <trkpt lat="47.49183" lon="6.76485">
        <ele>316</ele>
        <time>2015-12-20T08:34:34.000Z</time>
      </trkpt>
      <trkpt lat="47.49186" lon="6.76481">
        <ele>316</ele>
        <time>2015-12-20T08:35:07.000Z</time>
      </trkpt>
      <trkpt lat="47.49186" lon="6.76481">
        <ele>316</ele>
        <time>2015-12-20T08:35:08.000Z</time>
      </trkpt>
      <trkpt lat="47.49189" lon="6.76486">
        <ele>316</ele>
        <time>2015-12-20T08:40:31.000Z</time>
      </trkpt>
      <trkpt lat="47.4919" lon="6.76486">
        <ele>316</ele>
        <time>2015-12-20T08:40:32.000Z</time>
      </trkpt>
      <trkpt lat="47.49187" lon="6.76491">
        <ele>316</ele>
        <time>2015-12-20T08:43:35.000Z</time>
      </trkpt>
      <trkpt lat="47.49186" lon="6.76491">
        <ele>316</ele>
        <time>2015-12-20T08:43:36.000Z</time>
      </trkpt>
      <trkpt lat="47.49183" lon="6.76491">
        <ele>316</ele>
        <time>2015-12-20T08:43:40.000Z</time>
      </trkpt>
      <trkpt lat="47.49181" lon="6.76493">
        <ele>315</ele>
        <time>2015-12-20T08:43:41.000Z</time>
      </trkpt>
      <trkpt lat="47.49179" lon="6.76494">
        <ele>315</ele>
        <time>2015-12-20T08:43:42.000Z</time>
      </trkpt>
      <trkpt lat="47.49177" lon="6.76496">
        <ele>315</ele>
        <time>2015-12-20T08:43:43.000Z</time>
      </trkpt>
      <trkpt lat="47.49174" lon="6.76498">
        <ele>314</ele>
        <time>2015-12-20T08:43:44.000Z</time>
      </trkpt>
      <trkpt lat="47.49171" lon="6.76499">
        <ele>314</ele>
        <time>2015-12-20T08:43:45.000Z</time>
      </trkpt>
      <trkpt lat="47.49166" lon="6.765">
        <ele>313</ele>
        <time>2015-12-20T08:43:46.000Z</time>
      </trkpt>
      <trkpt lat="47.49161" lon="6.76499">
        <ele>314</ele>
        <time>2015-12-20T08:43:47.000Z</time>
      </trkpt>
      <trkpt lat="47.49157" lon="6.76498">
        <ele>314</ele>
        <time>2015-12-20T08:43:48.000Z</time>
      </trkpt>
      <trkpt lat="47.49153" lon="6.76497">
        <ele>315</ele>
        <time>2015-12-20T08:43:49.000Z</time>
      </trkpt>
      <trkpt lat="47.49149" lon="6.76497">
        <ele>315</ele>
        <time>2015-12-20T08:43:50.000Z</time>
      </trkpt>
      <trkpt lat="47.49146" lon="6.76497">
        <ele>315</ele>
        <time>2015-12-20T08:43:51.000Z</time>
      </trkpt>
      <trkpt lat="47.49142" lon="6.76497">
        <ele>316</ele>
        <time>2015-12-20T08:43:52.000Z</time>
      </trkpt>
      <trkpt lat="47.49139" lon="6.76497">
        <ele>316</ele>
        <time>2015-12-20T08:43:53.000Z</time>
      </trkpt>
      <trkpt lat="47.49135" lon="6.76497">
        <ele>316</ele>
        <time>2015-12-20T08:43:54.000Z</time>
      </trkpt>
      <trkpt lat="47.49131" lon="6.76497">
        <ele>317</ele>
        <time>2015-12-20T08:43:55.000Z</time>
      </trkpt>
      <trkpt lat="47.49128" lon="6.76496">
        <ele>317</ele>
        <time>2015-12-20T08:43:56.000Z</time>
      </trkpt>
      <trkpt lat="47.49125" lon="6.76493">
        <ele>317</ele>
        <time>2015-12-20T08:43:57.000Z</time>
      </trkpt>
      <trkpt lat="47.49124" lon="6.76489">
        <ele>317</ele>
        <time>2015-12-20T08:43:58.000Z</time>
      </trkpt>
      <trkpt lat="47.49122" lon="6.76486">
        <ele>317</ele>
        <time>2015-12-20T08:43:58.999Z</time>
      </trkpt>
      <trkpt lat="47.49123" lon="6.76479">
        <ele>317</ele>
        <time>2015-12-20T08:44:00.000Z</time>
      </trkpt>
      <trkpt lat="47.49123" lon="6.76474">
        <ele>317</ele>
        <time>2015-12-20T08:44:01.000Z</time>
      </trkpt>
      <trkpt lat="47.49123" lon="6.76469">
        <ele>317</ele>
        <time>2015-12-20T08:44:02.000Z</time>
      </trkpt>
      <trkpt lat="47.49124" lon="6.76465">
        <ele>317</ele>
        <time>2015-12-20T08:44:03.000Z</time>
      </trkpt>
      <trkpt lat="47.49124" lon="6.7646">
        <ele>317</ele>
        <time>2015-12-20T08:44:04.000Z</time>
      </trkpt>
      <trkpt lat="47.49125" lon="6.76455">
        <ele>317</ele>
        <time>2015-12-20T08:44:05.000Z</time>
      </trkpt>
      <trkpt lat="47.49125" lon="6.76451">
        <ele>317</ele>
        <time>2015-12-20T08:44:06.000Z</time>
      </trkpt>
      <trkpt lat="47.49126" lon="6.76446">
        <ele>317</ele>
        <time>2015-12-20T08:44:07.000Z</time>
      </trkpt>
      <trkpt lat="47.49126" lon="6.76442">
        <ele>317</ele>
        <time>2015-12-20T08:44:08.000Z</time>
      </trkpt>
      <trkpt lat="47.49128" lon="6.76436">
        <ele>317</ele>
        <time>2015-12-20T08:44:10.000Z</time>
      </trkpt>
      <trkpt lat="47.49128" lon="6.76433">
        <ele>317</ele>
        <time>2015-12-20T08:44:11.000Z</time>
      </trkpt>
      <trkpt lat="47.4913" lon="6.76427">
        <ele>317</ele>
        <time>2015-12-20T08:44:14.000Z</time>
      </trkpt>
      <trkpt lat="47.49129" lon="6.76425">
        <ele>317</ele>
        <time>2015-12-20T08:44:15.000Z</time>
      </trkpt>
      <trkpt lat="47.49125" lon="6.76423">
        <ele>317</ele>
        <time>2015-12-20T08:44:17.000Z</time>
      </trkpt>
      <trkpt lat="47.49123" lon="6.76423">
        <ele>317</ele>
        <time>2015-12-20T08:44:18.000Z</time>
      </trkpt>
      <trkpt lat="47.49119" lon="6.76423">
        <ele>317</ele>
        <time>2015-12-20T08:44:20.000Z</time>
      </trkpt>
      <trkpt lat="47.49118" lon="6.76423">
        <ele>318</ele>
        <time>2015-12-20T08:44:20.999Z</time>
      </trkpt>
      <trkpt lat="47.49114" lon="6.76422">
        <ele>318</ele>
        <time>2015-12-20T08:44:23.001Z</time>
      </trkpt>
      <trkpt lat="47.49113" lon="6.76419">
        <ele>318</ele>
        <time>2015-12-20T08:44:24.000Z</time>
      </trkpt>
      <trkpt lat="47.49113" lon="6.76416">
        <ele>318</ele>
        <time>2015-12-20T08:44:25.000Z</time>
      </trkpt>
      <trkpt lat="47.49114" lon="6.76412">
        <ele>318</ele>
        <time>2015-12-20T08:44:26.000Z</time>
      </trkpt>
      <trkpt lat="47.49115" lon="6.76407">
        <ele>318</ele>
        <time>2015-12-20T08:44:27.000Z</time>
      </trkpt>
      <trkpt lat="47.49116" lon="6.76403">
        <ele>318</ele>
        <time>2015-12-20T08:44:28.000Z</time>
      </trkpt>
      <trkpt lat="47.49116" lon="6.76398">
        <ele>318</ele>
        <time>2015-12-20T08:44:29.000Z</time>
      </trkpt>
      <trkpt lat="47.49117" lon="6.76394">
        <ele>318</ele>
        <time>2015-12-20T08:44:30.000Z</time>
      </trkpt>
      <trkpt lat="47.49118" lon="6.7639">
        <ele>318</ele>
        <time>2015-12-20T08:44:31.000Z</time>
      </trkpt>
      <trkpt lat="47.49118" lon="6.76387">
        <ele>318</ele>
        <time>2015-12-20T08:44:32.000Z</time>
      </trkpt>
      <trkpt lat="47.49118" lon="6.76383">
        <ele>318</ele>
        <time>2015-12-20T08:44:33.000Z</time>
      </trkpt>
      <trkpt lat="47.49117" lon="6.76379">
        <ele>318</ele>
        <time>2015-12-20T08:44:34.000Z</time>
      </trkpt>
      <trkpt lat="47.49117" lon="6.76375">
        <ele>318</ele>
        <time>2015-12-20T08:44:35.000Z</time>
      </trkpt>
      <trkpt lat="47.49116" lon="6.76372">
        <ele>318</ele>
        <time>2015-12-20T08:44:36.000Z</time>
      </trkpt>
      <trkpt lat="47.49116" lon="6.76368">
        <ele>318</ele>
        <time>2015-12-20T08:44:37.000Z</time>
      </trkpt>
      <trkpt lat="47.49116" lon="6.76364">
        <ele>318</ele>
        <time>2015-12-20T08:44:38.000Z</time>
      </trkpt>
      <trkpt lat="47.49115" lon="6.76359">
        <ele>318</ele>
        <time>2015-12-20T08:44:40.000Z</time>
      </trkpt>
      <trkpt lat="47.49115" lon="6.76355">
        <ele>319</ele>
        <time>2015-12-20T08:44:41.000Z</time>
      </trkpt>
      <trkpt lat="47.49114" lon="6.76351">
        <ele>319</ele>
        <time>2015-12-20T08:44:42.000Z</time>
      </trkpt>
      <trkpt lat="47.49114" lon="6.76347">
        <ele>319</ele>
        <time>2015-12-20T08:44:43.000Z</time>
      </trkpt>
      <trkpt lat="47.49113" lon="6.76343">
        <ele>319</ele>
        <time>2015-12-20T08:44:44.000Z</time>
      </trkpt>
      <trkpt lat="47.49113" lon="6.7634">
        <ele>319</ele>
        <time>2015-12-20T08:44:45.000Z</time>
      </trkpt>
      <trkpt lat="47.49111" lon="6.76335">
        <ele>319</ele>
        <time>2015-12-20T08:44:47.000Z</time>
      </trkpt>
      <trkpt lat="47.4911" lon="6.76333">
        <ele>320</ele>
        <time>2015-12-20T08:44:48.000Z</time>
      </trkpt>
      <trkpt lat="47.49109" lon="6.7633">
        <ele>320</ele>
        <time>2015-12-20T08:44:49.000Z</time>
      </trkpt>
      <trkpt lat="47.49109" lon="6.76326">
        <ele>320</ele>
        <time>2015-12-20T08:44:50.000Z</time>
      </trkpt>
      <trkpt lat="47.49108" lon="6.76322">
        <ele>320</ele>
        <time>2015-12-20T08:44:51.000Z</time>
      </trkpt>
      <trkpt lat="47.49107" lon="6.76317">
        <ele>320</ele>
        <time>2015-12-20T08:44:52.000Z</time>
      </trkpt>
      <trkpt lat="47.49107" lon="6.76312">
        <ele>320</ele>
        <time>2015-12-20T08:44:53.000Z</time>
      </trkpt>
      <trkpt lat="47.49106" lon="6.76307">
        <ele>320</ele>
        <time>2015-12-20T08:44:54.000Z</time>
      </trkpt>
      <trkpt lat="47.49106" lon="6.76302">
        <ele>320</ele>
        <time>2015-12-20T08:44:55.000Z</time>
      </trkpt>
      <trkpt lat="47.49106" lon="6.76299">
        <ele>320</ele>
        <time>2015-12-20T08:44:56.000Z</time>
      </trkpt>
      <trkpt lat="47.49106" lon="6.76295">
        <ele>320</ele>
        <time>2015-12-20T08:44:57.000Z</time>
      </trkpt>
      <trkpt lat="47.49106" lon="6.76292">
        <ele>320</ele>
        <time>2015-12-20T08:44:58.000Z</time>
      </trkpt>
      <trkpt lat="47.49106" lon="6.76288">
        <ele>321</ele>
        <time>2015-12-20T08:44:59.000Z</time>
      </trkpt>
      <trkpt lat="47.49107" lon="6.76283">
        <ele>321</ele>
        <time>2015-12-20T08:45:00.000Z</time>
      </trkpt>
      <trkpt lat="47.49107" lon="6.76278">
        <ele>321</ele>
        <time>2015-12-20T08:45:01.000Z</time>
      </trkpt>
      <trkpt lat="47.49107" lon="6.76272">
        <ele>321</ele>
        <time>2015-12-20T08:45:02.000Z</time>
      </trkpt>
      <trkpt lat="47.49108" lon="6.76266">
        <ele>321</ele>
        <time>2015-12-20T08:45:03.000Z</time>
      </trkpt>
      <trkpt lat="47.49109" lon="6.76261">
        <ele>321</ele>
        <time>2015-12-20T08:45:04.000Z</time>
      </trkpt>
      <trkpt lat="47.49109" lon="6.76255">
        <ele>321</ele>
        <time>2015-12-20T08:45:05.000Z</time>
      </trkpt>
      <trkpt lat="47.4911" lon="6.76251">
        <ele>321</ele>
        <time>2015-12-20T08:45:06.000Z</time>
      </trkpt>
      <trkpt lat="47.49111" lon="6.76247">
        <ele>322</ele>
        <time>2015-12-20T08:45:07.000Z</time>
      </trkpt>
      <trkpt lat="47.49111" lon="6.76243">
        <ele>322</ele>
        <time>2015-12-20T08:45:08.000Z</time>
      </trkpt>
      <trkpt lat="47.49112" lon="6.76238">
        <ele>322</ele>
        <time>2015-12-20T08:45:09.000Z</time>
      </trkpt>
      <trkpt lat="47.49112" lon="6.76234">
        <ele>322</ele>
        <time>2015-12-20T08:45:10.000Z</time>
      </trkpt>
      <trkpt lat="47.49112" lon="6.7623">
        <ele>322</ele>
        <time>2015-12-20T08:45:11.000Z</time>
      </trkpt>
      <trkpt lat="47.49113" lon="6.76225">
        <ele>322</ele>
        <time>2015-12-20T08:45:12.000Z</time>
      </trkpt>
      <trkpt lat="47.49113" lon="6.7622">
        <ele>322</ele>
        <time>2015-12-20T08:45:13.000Z</time>
      </trkpt>
      <trkpt lat="47.49114" lon="6.76215">
        <ele>321</ele>
        <time>2015-12-20T08:45:14.000Z</time>
      </trkpt>
      <trkpt lat="47.49114" lon="6.7621">
        <ele>321</ele>
        <time>2015-12-20T08:45:15.000Z</time>
      </trkpt>
      <trkpt lat="47.49115" lon="6.76205">
        <ele>321</ele>
        <time>2015-12-20T08:45:16.000Z</time>
      </trkpt>
      <trkpt lat="47.49115" lon="6.762">
        <ele>321</ele>
        <time>2015-12-20T08:45:17.000Z</time>
      </trkpt>
      <trkpt lat="47.49114" lon="6.76196">
        <ele>321</ele>
        <time>2015-12-20T08:45:18.000Z</time>
      </trkpt>
      <trkpt lat="47.49114" lon="6.76191">
        <ele>322</ele>
        <time>2015-12-20T08:45:19.000Z</time>
      </trkpt>
      <trkpt lat="47.49113" lon="6.76187">
        <ele>322</ele>
        <time>2015-12-20T08:45:20.000Z</time>
      </trkpt>
      <trkpt lat="47.49113" lon="6.76183">
        <ele>322</ele>
        <time>2015-12-20T08:45:21.000Z</time>
      </trkpt>
      <trkpt lat="47.49112" lon="6.7618">
        <ele>322</ele>
        <time>2015-12-20T08:45:22.000Z</time>
      </trkpt>
      <trkpt lat="47.49112" lon="6.76176">
        <ele>322</ele>
        <time>2015-12-20T08:45:23.000Z</time>
      </trkpt>
      <trkpt lat="47.49112" lon="6.76172">
        <ele>322</ele>
        <time>2015-12-20T08:45:24.000Z</time>
      </trkpt>
      <trkpt lat="47.49112" lon="6.76168">
        <ele>322</ele>
        <time>2015-12-20T08:45:25.000Z</time>
      </trkpt>
      <trkpt lat="47.49112" lon="6.76164">
        <ele>323</ele>
        <time>2015-12-20T08:45:26.000Z</time>
      </trkpt>
      <trkpt lat="47.49112" lon="6.76161">
        <ele>323</ele>
        <time>2015-12-20T08:45:27.000Z</time>
      </trkpt>
      <trkpt lat="47.49113" lon="6.76157">
        <ele>323</ele>
        <time>2015-12-20T08:45:28.000Z</time>
      </trkpt>
      <trkpt lat="47.49113" lon="6.76153">
        <ele>323</ele>
        <time>2015-12-20T08:45:29.000Z</time>
      </trkpt>
      <trkpt lat="47.49113" lon="6.76149">
        <ele>323</ele>
        <time>2015-12-20T08:45:30.000Z</time>
      </trkpt>
      <trkpt lat="47.49113" lon="6.76144">
        <ele>323</ele>
        <time>2015-12-20T08:45:31.000Z</time>
      </trkpt>
      <trkpt lat="47.49114" lon="6.76138">
        <ele>323</ele>
        <time>2015-12-20T08:45:32.000Z</time>
      </trkpt>
      <trkpt lat="47.49115" lon="6.76133">
        <ele>323</ele>
        <time>2015-12-20T08:45:33.000Z</time>
      </trkpt>
      <trkpt lat="47.49116" lon="6.76128">
        <ele>323</ele>
        <time>2015-12-20T08:45:34.000Z</time>
      </trkpt>
      <trkpt lat="47.49117" lon="6.76122">
        <ele>323</ele>
        <time>2015-12-20T08:45:35.000Z</time>
      </trkpt>
      <trkpt lat="47.49117" lon="6.76117">
        <ele>323</ele>
        <time>2015-12-20T08:45:36.000Z</time>
      </trkpt>
      <trkpt lat="47.49118" lon="6.76111">
        <ele>323</ele>
        <time>2015-12-20T08:45:37.000Z</time>
      </trkpt>
      <trkpt lat="47.49118" lon="6.76105">
        <ele>323</ele>
        <time>2015-12-20T08:45:38.000Z</time>
      </trkpt>
      <trkpt lat="47.49119" lon="6.76098">
        <ele>323</ele>
        <time>2015-12-20T08:45:39.000Z</time>
      </trkpt>
      <trkpt lat="47.49119" lon="6.76092">
        <ele>323</ele>
        <time>2015-12-20T08:45:40.000Z</time>
      </trkpt>
      <trkpt lat="47.49119" lon="6.76086">
        <ele>323</ele>
        <time>2015-12-20T08:45:41.000Z</time>
      </trkpt>
      <trkpt lat="47.4912" lon="6.7608">
        <ele>324</ele>
        <time>2015-12-20T08:45:42.000Z</time>
      </trkpt>
      <trkpt lat="47.4912" lon="6.76074">
        <ele>324</ele>
        <time>2015-12-20T08:45:43.000Z</time>
      </trkpt>
      <trkpt lat="47.49121" lon="6.76068">
        <ele>324</ele>
        <time>2015-12-20T08:45:44.000Z</time>
      </trkpt>
      <trkpt lat="47.49122" lon="6.76063">
        <ele>324</ele>
        <time>2015-12-20T08:45:45.000Z</time>
      </trkpt>
      <trkpt lat="47.49122" lon="6.76057">
        <ele>324</ele>
        <time>2015-12-20T08:45:46.000Z</time>
      </trkpt>
      <trkpt lat="47.49123" lon="6.76051">
        <ele>324</ele>
        <time>2015-12-20T08:45:47.000Z</time>
      </trkpt>
      <trkpt lat="47.49123" lon="6.76045">
        <ele>325</ele>
        <time>2015-12-20T08:45:48.000Z</time>
      </trkpt>
      <trkpt lat="47.49124" lon="6.7604">
        <ele>325</ele>
        <time>2015-12-20T08:45:49.000Z</time>
      </trkpt>
      <trkpt lat="47.49124" lon="6.76035">
        <ele>325</ele>
        <time>2015-12-20T08:45:50.000Z</time>
      </trkpt>
      <trkpt lat="47.49124" lon="6.7603">
        <ele>325</ele>
        <time>2015-12-20T08:45:51.000Z</time>
      </trkpt>
      <trkpt lat="47.49124" lon="6.76025">
        <ele>325</ele>
        <time>2015-12-20T08:45:52.000Z</time>
      </trkpt>
      <trkpt lat="47.49125" lon="6.7602">
        <ele>325</ele>
        <time>2015-12-20T08:45:53.000Z</time>
      </trkpt>
      <trkpt lat="47.49126" lon="6.76014">
        <ele>325</ele>
        <time>2015-12-20T08:45:54.000Z</time>
      </trkpt>
      <trkpt lat="47.49128" lon="6.76008">
        <ele>325</ele>
        <time>2015-12-20T08:45:55.000Z</time>
      </trkpt>
      <trkpt lat="47.49129" lon="6.76003">
        <ele>325</ele>
        <time>2015-12-20T08:45:56.000Z</time>
      </trkpt>
      <trkpt lat="47.4913" lon="6.75999">
        <ele>327</ele>
        <time>2015-12-20T08:45:57.000Z</time>
      </trkpt>
      <trkpt lat="47.49132" lon="6.75995">
        <ele>327</ele>
        <time>2015-12-20T08:45:58.000Z</time>
      </trkpt>
      <trkpt lat="47.49133" lon="6.75991">
        <ele>327</ele>
        <time>2015-12-20T08:45:59.000Z</time>
      </trkpt>
      <trkpt lat="47.49134" lon="6.75987">
        <ele>326</ele>
        <time>2015-12-20T08:46:00.000Z</time>
      </trkpt>
      <trkpt lat="47.49135" lon="6.75983">
        <ele>326</ele>
        <time>2015-12-20T08:46:01.000Z</time>
      </trkpt>
      <trkpt lat="47.49136" lon="6.75979">
        <ele>327</ele>
        <time>2015-12-20T08:46:02.000Z</time>
      </trkpt>
      <trkpt lat="47.49137" lon="6.75975">
        <ele>327</ele>
        <time>2015-12-20T08:46:03.000Z</time>
      </trkpt>
      <trkpt lat="47.49138" lon="6.75971">
        <ele>327</ele>
        <time>2015-12-20T08:46:04.000Z</time>
      </trkpt>
      <trkpt lat="47.49139" lon="6.75966">
        <ele>327</ele>
        <time>2015-12-20T08:46:05.000Z</time>
      </trkpt>
      <trkpt lat="47.49141" lon="6.7596">
        <ele>327</ele>
        <time>2015-12-20T08:46:06.000Z</time>
      </trkpt>
      <trkpt lat="47.49142" lon="6.75953">
        <ele>327</ele>
        <time>2015-12-20T08:46:07.000Z</time>
      </trkpt>
      <trkpt lat="47.49143" lon="6.75946">
        <ele>327</ele>
        <time>2015-12-20T08:46:08.000Z</time>
      </trkpt>
      <trkpt lat="47.49144" lon="6.75939">
        <ele>327</ele>
        <time>2015-12-20T08:46:09.000Z</time>
      </trkpt>
      <trkpt lat="47.49145" lon="6.75933">
        <ele>327</ele>
        <time>2015-12-20T08:46:10.000Z</time>
      </trkpt>
      <trkpt lat="47.49146" lon="6.75927">
        <ele>326</ele>
        <time>2015-12-20T08:46:11.000Z</time>
      </trkpt>
      <trkpt lat="47.49147" lon="6.75921">
        <ele>326</ele>
        <time>2015-12-20T08:46:12.000Z</time>
      </trkpt>
      <trkpt lat="47.49149" lon="6.75915">
        <ele>328</ele>
        <time>2015-12-20T08:46:13.000Z</time>
      </trkpt>
      <trkpt lat="47.4915" lon="6.75909">
        <ele>328</ele>
        <time>2015-12-20T08:46:14.000Z</time>
      </trkpt>
      <trkpt lat="47.49151" lon="6.75903">
        <ele>329</ele>
        <time>2015-12-20T08:46:15.000Z</time>
      </trkpt>
      <trkpt lat="47.49152" lon="6.75898">
        <ele>329</ele>
        <time>2015-12-20T08:46:16.000Z</time>
      </trkpt>
      <trkpt lat="47.49153" lon="6.75892">
        <ele>329</ele>
        <time>2015-12-20T08:46:17.000Z</time>
      </trkpt>
      <trkpt lat="47.49154" lon="6.75887">
        <ele>330</ele>
        <time>2015-12-20T08:46:18.000Z</time>
      </trkpt>
      <trkpt lat="47.49155" lon="6.75883">
        <ele>330</ele>
        <time>2015-12-20T08:46:19.000Z</time>
      </trkpt>
      <trkpt lat="47.49156" lon="6.75878">
        <ele>330</ele>
        <time>2015-12-20T08:46:20.000Z</time>
      </trkpt>
      <trkpt lat="47.49158" lon="6.75873">
        <ele>330</ele>
        <time>2015-12-20T08:46:21.000Z</time>
      </trkpt>
      <trkpt lat="47.4916" lon="6.75868">
        <ele>330</ele>
        <time>2015-12-20T08:46:22.000Z</time>
      </trkpt>
      <trkpt lat="47.49162" lon="6.75862">
        <ele>330</ele>
        <time>2015-12-20T08:46:23.000Z</time>
      </trkpt>
      <trkpt lat="47.49164" lon="6.75857">
        <ele>330</ele>
        <time>2015-12-20T08:46:24.000Z</time>
      </trkpt>
      <trkpt lat="47.49166" lon="6.7585">
        <ele>329</ele>
        <time>2015-12-20T08:46:25.000Z</time>
      </trkpt>
      <trkpt lat="47.49169" lon="6.75843">
        <ele>324</ele>
        <time>2015-12-20T08:46:26.000Z</time>
      </trkpt>
      <trkpt lat="47.49171" lon="6.75836">
        <ele>325</ele>
        <time>2015-12-20T08:46:27.000Z</time>
      </trkpt>
      <trkpt lat="47.49173" lon="6.75829">
        <ele>325</ele>
        <time>2015-12-20T08:46:28.000Z</time>
      </trkpt>
      <trkpt lat="47.49176" lon="6.75822">
        <ele>325</ele>
        <time>2015-12-20T08:46:29.000Z</time>
      </trkpt>
      <trkpt lat="47.49179" lon="6.75815">
        <ele>325</ele>
        <time>2015-12-20T08:46:30.000Z</time>
      </trkpt>
      <trkpt lat="47.49181" lon="6.75808">
        <ele>325</ele>
        <time>2015-12-20T08:46:31.000Z</time>
      </trkpt>
      <trkpt lat="47.49184" lon="6.758">
        <ele>325</ele>
        <time>2015-12-20T08:46:32.000Z</time>
      </trkpt>
      <trkpt lat="47.49186" lon="6.75793">
        <ele>325</ele>
        <time>2015-12-20T08:46:33.000Z</time>
      </trkpt>
      <trkpt lat="47.49189" lon="6.75786">
        <ele>325</ele>
        <time>2015-12-20T08:46:34.000Z</time>
      </trkpt>
      <trkpt lat="47.49191" lon="6.75781">
        <ele>325</ele>
        <time>2015-12-20T08:46:34.999Z</time>
      </trkpt>
      <trkpt lat="47.49193" lon="6.75772">
        <ele>326</ele>
        <time>2015-12-20T08:46:36.000Z</time>
      </trkpt>
      <trkpt lat="47.49195" lon="6.75764">
        <ele>326</ele>
        <time>2015-12-20T08:46:37.000Z</time>
      </trkpt>
      <trkpt lat="47.49197" lon="6.75756">
        <ele>326</ele>
        <time>2015-12-20T08:46:38.000Z</time>
      </trkpt>
      <trkpt lat="47.492" lon="6.75748">
        <ele>331</ele>
        <time>2015-12-20T08:46:39.000Z</time>
      </trkpt>
      <trkpt lat="47.49202" lon="6.75741">
        <ele>331</ele>
        <time>2015-12-20T08:46:40.000Z</time>
      </trkpt>
      <trkpt lat="47.49205" lon="6.75735">
        <ele>331</ele>
        <time>2015-12-20T08:46:41.000Z</time>
      </trkpt>
      <trkpt lat="47.49207" lon="6.75728">
        <ele>330</ele>
        <time>2015-12-20T08:46:42.000Z</time>
      </trkpt>
      <trkpt lat="47.4921" lon="6.75721">
        <ele>330</ele>
        <time>2015-12-20T08:46:43.000Z</time>
      </trkpt>
      <trkpt lat="47.49212" lon="6.75715">
        <ele>330</ele>
        <time>2015-12-20T08:46:44.000Z</time>
      </trkpt>
      <trkpt lat="47.49214" lon="6.75709">
        <ele>331</ele>
        <time>2015-12-20T08:46:45.000Z</time>
      </trkpt>
      <trkpt lat="47.49215" lon="6.75704">
        <ele>331</ele>
        <time>2015-12-20T08:46:46.000Z</time>
      </trkpt>
      <trkpt lat="47.49216" lon="6.75697">
        <ele>331</ele>
        <time>2015-12-20T08:46:47.000Z</time>
      </trkpt>
      <trkpt lat="47.49216" lon="6.75691">
        <ele>331</ele>
        <time>2015-12-20T08:46:48.000Z</time>
      </trkpt>
      <trkpt lat="47.49217" lon="6.75684">
        <ele>331</ele>
        <time>2015-12-20T08:46:49.000Z</time>
      </trkpt>
      <trkpt lat="47.49217" lon="6.75678">
        <ele>331</ele>
        <time>2015-12-20T08:46:50.000Z</time>
      </trkpt>
      <trkpt lat="47.49218" lon="6.75672">
        <ele>331</ele>
        <time>2015-12-20T08:46:51.000Z</time>
      </trkpt>
      <trkpt lat="47.49219" lon="6.75666">
        <ele>336</ele>
        <time>2015-12-20T08:46:52.000Z</time>
      </trkpt>
      <trkpt lat="47.4922" lon="6.75661">
        <ele>336</ele>
        <time>2015-12-20T08:46:53.000Z</time>
      </trkpt>
      <trkpt lat="47.49221" lon="6.75655">
        <ele>336</ele>
        <time>2015-12-20T08:46:54.000Z</time>
      </trkpt>
      <trkpt lat="47.49222" lon="6.75649">
        <ele>336</ele>
        <time>2015-12-20T08:46:55.000Z</time>
      </trkpt>
      <trkpt lat="47.49223" lon="6.75644">
        <ele>336</ele>
        <time>2015-12-20T08:46:56.000Z</time>
      </trkpt>
      <trkpt lat="47.49224" lon="6.75639">
        <ele>337</ele>
        <time>2015-12-20T08:46:57.000Z</time>
      </trkpt>
      <trkpt lat="47.49225" lon="6.75634">
        <ele>337</ele>
        <time>2015-12-20T08:46:58.000Z</time>
      </trkpt>
      <trkpt lat="47.49227" lon="6.75629">
        <ele>337</ele>
        <time>2015-12-20T08:46:59.000Z</time>
      </trkpt>
      <trkpt lat="47.49228" lon="6.75625">
        <ele>337</ele>
        <time>2015-12-20T08:47:00.000Z</time>
      </trkpt>
      <trkpt lat="47.4923" lon="6.7562">
        <ele>337</ele>
        <time>2015-12-20T08:47:01.000Z</time>
      </trkpt>
      <trkpt lat="47.49232" lon="6.75615">
        <ele>337</ele>
        <time>2015-12-20T08:47:02.000Z</time>
      </trkpt>
      <trkpt lat="47.49233" lon="6.75609">
        <ele>337</ele>
        <time>2015-12-20T08:47:03.000Z</time>
      </trkpt>
      <trkpt lat="47.49235" lon="6.75604">
        <ele>337</ele>
        <time>2015-12-20T08:47:04.000Z</time>
      </trkpt>
      <trkpt lat="47.49236" lon="6.75599">
        <ele>337</ele>
        <time>2015-12-20T08:47:05.000Z</time>
      </trkpt>
      <trkpt lat="47.49238" lon="6.75594">
        <ele>336</ele>
        <time>2015-12-20T08:47:06.000Z</time>
      </trkpt>
      <trkpt lat="47.49239" lon="6.75589">
        <ele>336</ele>
        <time>2015-12-20T08:47:07.000Z</time>
      </trkpt>
      <trkpt lat="47.49241" lon="6.75583">
        <ele>337</ele>
        <time>2015-12-20T08:47:08.000Z</time>
      </trkpt>
      <trkpt lat="47.49244" lon="6.75578">
        <ele>337</ele>
        <time>2015-12-20T08:47:09.000Z</time>
      </trkpt>
      <trkpt lat="47.49246" lon="6.75572">
        <ele>338</ele>
        <time>2015-12-20T08:47:10.000Z</time>
      </trkpt>
      <trkpt lat="47.49249" lon="6.75567">
        <ele>340</ele>
        <time>2015-12-20T08:47:11.000Z</time>
      </trkpt>
      <trkpt lat="47.49251" lon="6.75561">
        <ele>331</ele>
        <time>2015-12-20T08:47:12.000Z</time>
      </trkpt>
      <trkpt lat="47.49252" lon="6.75557">
        <ele>331</ele>
        <time>2015-12-20T08:47:13.000Z</time>
      </trkpt>
      <trkpt lat="47.49254" lon="6.75552">
        <ele>331</ele>
        <time>2015-12-20T08:47:14.000Z</time>
      </trkpt>
      <trkpt lat="47.49255" lon="6.75546">
        <ele>331</ele>
        <time>2015-12-20T08:47:15.000Z</time>
      </trkpt>
      <trkpt lat="47.49256" lon="6.75541">
        <ele>331</ele>
        <time>2015-12-20T08:47:16.000Z</time>
      </trkpt>
      <trkpt lat="47.49258" lon="6.75535">
        <ele>332</ele>
        <time>2015-12-20T08:47:17.000Z</time>
      </trkpt>
      <trkpt lat="47.49259" lon="6.75528">
        <ele>332</ele>
        <time>2015-12-20T08:47:18.000Z</time>
      </trkpt>
      <trkpt lat="47.49261" lon="6.75523">
        <ele>333</ele>
        <time>2015-12-20T08:47:19.000Z</time>
      </trkpt>
      <trkpt lat="47.49262" lon="6.75517">
        <ele>333</ele>
        <time>2015-12-20T08:47:20.000Z</time>
      </trkpt>
      <trkpt lat="47.49264" lon="6.75513">
        <ele>334</ele>
        <time>2015-12-20T08:47:21.000Z</time>
      </trkpt>
      <trkpt lat="47.49265" lon="6.75509">
        <ele>334</ele>
        <time>2015-12-20T08:47:22.000Z</time>
      </trkpt>
      <trkpt lat="47.49266" lon="6.75505">
        <ele>334</ele>
        <time>2015-12-20T08:47:23.000Z</time>
      </trkpt>
      <trkpt lat="47.49266" lon="6.75501">
        <ele>334</ele>
        <time>2015-12-20T08:47:24.000Z</time>
      </trkpt>
      <trkpt lat="47.49267" lon="6.75496">
        <ele>337</ele>
        <time>2015-12-20T08:47:25.000Z</time>
      </trkpt>
      <trkpt lat="47.49267" lon="6.75491">
        <ele>337</ele>
        <time>2015-12-20T08:47:26.000Z</time>
      </trkpt>
      <trkpt lat="47.49268" lon="6.75486">
        <ele>336</ele>
        <time>2015-12-20T08:47:27.000Z</time>
      </trkpt>
      <trkpt lat="47.49268" lon="6.75481">
        <ele>336</ele>
        <time>2015-12-20T08:47:28.000Z</time>
      </trkpt>
      <trkpt lat="47.49268" lon="6.75476">
        <ele>336</ele>
        <time>2015-12-20T08:47:29.000Z</time>
      </trkpt>
      <trkpt lat="47.49269" lon="6.75471">
        <ele>336</ele>
        <time>2015-12-20T08:47:30.000Z</time>
      </trkpt>
      <trkpt lat="47.49269" lon="6.75465">
        <ele>336</ele>
        <time>2015-12-20T08:47:31.000Z</time>
      </trkpt>
      <trkpt lat="47.49269" lon="6.7546">
        <ele>336</ele>
        <time>2015-12-20T08:47:32.000Z</time>
      </trkpt>
      <trkpt lat="47.49269" lon="6.75455">
        <ele>337</ele>
        <time>2015-12-20T08:47:33.000Z</time>
      </trkpt>
      <trkpt lat="47.4927" lon="6.7545">
        <ele>337</ele>
        <time>2015-12-20T08:47:34.000Z</time>
      </trkpt>
      <trkpt lat="47.4927" lon="6.75445">
        <ele>337</ele>
        <time>2015-12-20T08:47:35.000Z</time>
      </trkpt>
      <trkpt lat="47.49271" lon="6.7544">
        <ele>337</ele>
        <time>2015-12-20T08:47:36.000Z</time>
      </trkpt>
      <trkpt lat="47.49272" lon="6.75435">
        <ele>338</ele>
        <time>2015-12-20T08:47:37.000Z</time>
      </trkpt>
      <trkpt lat="47.49273" lon="6.7543">
        <ele>338</ele>
        <time>2015-12-20T08:47:38.000Z</time>
      </trkpt>
      <trkpt lat="47.49274" lon="6.75424">
        <ele>338</ele>
        <time>2015-12-20T08:47:39.000Z</time>
      </trkpt>
      <trkpt lat="47.49274" lon="6.75419">
        <ele>338</ele>
        <time>2015-12-20T08:47:40.000Z</time>
      </trkpt>
      <trkpt lat="47.49273" lon="6.75414">
        <ele>340</ele>
        <time>2015-12-20T08:47:41.000Z</time>
      </trkpt>
      <trkpt lat="47.49272" lon="6.75409">
        <ele>340</ele>
        <time>2015-12-20T08:47:42.000Z</time>
      </trkpt>
      <trkpt lat="47.49272" lon="6.75404">
        <ele>340</ele>
        <time>2015-12-20T08:47:43.000Z</time>
      </trkpt>
      <trkpt lat="47.49272" lon="6.754">
        <ele>340</ele>
        <time>2015-12-20T08:47:44.000Z</time>
      </trkpt>
      <trkpt lat="47.49273" lon="6.75395">
        <ele>340</ele>
        <time>2015-12-20T08:47:45.000Z</time>
      </trkpt>
      <trkpt lat="47.49274" lon="6.75391">
        <ele>340</ele>
        <time>2015-12-20T08:47:46.000Z</time>
      </trkpt>
      <trkpt lat="47.49276" lon="6.75385">
        <ele>340</ele>
        <time>2015-12-20T08:47:47.000Z</time>
      </trkpt>
      <trkpt lat="47.49278" lon="6.75379">
        <ele>339</ele>
        <time>2015-12-20T08:47:48.000Z</time>
      </trkpt>
      <trkpt lat="47.4928" lon="6.75373">
        <ele>339</ele>
        <time>2015-12-20T08:47:49.000Z</time>
      </trkpt>
      <trkpt lat="47.49282" lon="6.75368">
        <ele>339</ele>
        <time>2015-12-20T08:47:50.000Z</time>
      </trkpt>
      <trkpt lat="47.49283" lon="6.75363">
        <ele>339</ele>
        <time>2015-12-20T08:47:51.000Z</time>
      </trkpt>
      <trkpt lat="47.49284" lon="6.75359">
        <ele>339</ele>
        <time>2015-12-20T08:47:52.000Z</time>
      </trkpt>
      <trkpt lat="47.49285" lon="6.75354">
        <ele>339</ele>
        <time>2015-12-20T08:47:53.000Z</time>
      </trkpt>
      <trkpt lat="47.49286" lon="6.75349">
        <ele>339</ele>
        <time>2015-12-20T08:47:54.000Z</time>
      </trkpt>
      <trkpt lat="47.49287" lon="6.75344">
        <ele>339</ele>
        <time>2015-12-20T08:47:55.000Z</time>
      </trkpt>
      <trkpt lat="47.49288" lon="6.75338">
        <ele>339</ele>
        <time>2015-12-20T08:47:56.000Z</time>
      </trkpt>
      <trkpt lat="47.49289" lon="6.75333">
        <ele>340</ele>
        <time>2015-12-20T08:47:57.000Z</time>
      </trkpt>
      <trkpt lat="47.4929" lon="6.75328">
        <ele>340</ele>
        <time>2015-12-20T08:47:58.000Z</time>
      </trkpt>
      <trkpt lat="47.4929" lon="6.75323">
        <ele>340</ele>
        <time>2015-12-20T08:47:59.000Z</time>
      </trkpt>
      <trkpt lat="47.4929" lon="6.75318">
        <ele>340</ele>
        <time>2015-12-20T08:48:00.000Z</time>
      </trkpt>
      <trkpt lat="47.4929" lon="6.75313">
        <ele>340</ele>
        <time>2015-12-20T08:48:01.000Z</time>
      </trkpt>
      <trkpt lat="47.4929" lon="6.75308">
        <ele>340</ele>
        <time>2015-12-20T08:48:02.000Z</time>
      </trkpt>
      <trkpt lat="47.4929" lon="6.75303">
        <ele>340</ele>
        <time>2015-12-20T08:48:03.000Z</time>
      </trkpt>
      <trkpt lat="47.49289" lon="6.75298">
        <ele>340</ele>
        <time>2015-12-20T08:48:04.000Z</time>
      </trkpt>
      <trkpt lat="47.49289" lon="6.75294">
        <ele>340</ele>
        <time>2015-12-20T08:48:05.000Z</time>
      </trkpt>
      <trkpt lat="47.49289" lon="6.75289">
        <ele>340</ele>
        <time>2015-12-20T08:48:06.000Z</time>
      </trkpt>
      <trkpt lat="47.49289" lon="6.75285">
        <ele>340</ele>
        <time>2015-12-20T08:48:07.000Z</time>
      </trkpt>
      <trkpt lat="47.49289" lon="6.75281">
        <ele>340</ele>
        <time>2015-12-20T08:48:08.000Z</time>
      </trkpt>
      <trkpt lat="47.49289" lon="6.75277">
        <ele>340</ele>
        <time>2015-12-20T08:48:09.000Z</time>
      </trkpt>
      <trkpt lat="47.49289" lon="6.75274">
        <ele>340</ele>
        <time>2015-12-20T08:48:10.000Z</time>
      </trkpt>
      <trkpt lat="47.49289" lon="6.7527">
        <ele>340</ele>
        <time>2015-12-20T08:48:11.000Z</time>
      </trkpt>
      <trkpt lat="47.49289" lon="6.75267">
        <ele>340</ele>
        <time>2015-12-20T08:48:12.000Z</time>
      </trkpt>
      <trkpt lat="47.49289" lon="6.75263">
        <ele>340</ele>
        <time>2015-12-20T08:48:13.000Z</time>
      </trkpt>
      <trkpt lat="47.49289" lon="6.7526">
        <ele>340</ele>
        <time>2015-12-20T08:48:14.000Z</time>
      </trkpt>
      <trkpt lat="47.49289" lon="6.75256">
        <ele>340</ele>
        <time>2015-12-20T08:48:15.000Z</time>
      </trkpt>
      <trkpt lat="47.49289" lon="6.75252">
        <ele>340</ele>
        <time>2015-12-20T08:48:16.000Z</time>
      </trkpt>
      <trkpt lat="47.4929" lon="6.75248">
        <ele>342</ele>
        <time>2015-12-20T08:48:17.000Z</time>
      </trkpt>
      <trkpt lat="47.4929" lon="6.75244">
        <ele>342</ele>
        <time>2015-12-20T08:48:18.000Z</time>
      </trkpt>
      <trkpt lat="47.4929" lon="6.75241">
        <ele>342</ele>
        <time>2015-12-20T08:48:19.000Z</time>
      </trkpt>
      <trkpt lat="47.49291" lon="6.75237">
        <ele>342</ele>
        <time>2015-12-20T08:48:20.000Z</time>
      </trkpt>
      <trkpt lat="47.49291" lon="6.75234">
        <ele>342</ele>
        <time>2015-12-20T08:48:21.000Z</time>
      </trkpt>
      <trkpt lat="47.49291" lon="6.7523">
        <ele>343</ele>
        <time>2015-12-20T08:48:22.000Z</time>
      </trkpt>
      <trkpt lat="47.4929" lon="6.75227">
        <ele>343</ele>
        <time>2015-12-20T08:48:23.000Z</time>
      </trkpt>
      <trkpt lat="47.4929" lon="6.75223">
        <ele>343</ele>
        <time>2015-12-20T08:48:24.000Z</time>
      </trkpt>
      <trkpt lat="47.4929" lon="6.75219">
        <ele>343</ele>
        <time>2015-12-20T08:48:25.000Z</time>
      </trkpt>
      <trkpt lat="47.49289" lon="6.75215">
        <ele>343</ele>
        <time>2015-12-20T08:48:26.000Z</time>
      </trkpt>
      <trkpt lat="47.49289" lon="6.75211">
        <ele>343</ele>
        <time>2015-12-20T08:48:27.000Z</time>
      </trkpt>
      <trkpt lat="47.49289" lon="6.75207">
        <ele>343</ele>
        <time>2015-12-20T08:48:28.000Z</time>
      </trkpt>
      <trkpt lat="47.49288" lon="6.75203">
        <ele>344</ele>
        <time>2015-12-20T08:48:29.000Z</time>
      </trkpt>
      <trkpt lat="47.49288" lon="6.75198">
        <ele>344</ele>
        <time>2015-12-20T08:48:30.000Z</time>
      </trkpt>
      <trkpt lat="47.49288" lon="6.75194">
        <ele>344</ele>
        <time>2015-12-20T08:48:31.000Z</time>
      </trkpt>
      <trkpt lat="47.49289" lon="6.75189">
        <ele>344</ele>
        <time>2015-12-20T08:48:32.000Z</time>
      </trkpt>
      <trkpt lat="47.49289" lon="6.75185">
        <ele>344</ele>
        <time>2015-12-20T08:48:33.000Z</time>
      </trkpt>
      <trkpt lat="47.4929" lon="6.75181">
        <ele>344</ele>
        <time>2015-12-20T08:48:34.000Z</time>
      </trkpt>
      <trkpt lat="47.4929" lon="6.75178">
        <ele>344</ele>
        <time>2015-12-20T08:48:35.000Z</time>
      </trkpt>
      <trkpt lat="47.4929" lon="6.75174">
        <ele>344</ele>
        <time>2015-12-20T08:48:36.000Z</time>
      </trkpt>
      <trkpt lat="47.49291" lon="6.7517">
        <ele>344</ele>
        <time>2015-12-20T08:48:37.000Z</time>
      </trkpt>
      <trkpt lat="47.49291" lon="6.75166">
        <ele>346</ele>
        <time>2015-12-20T08:48:38.000Z</time>
      </trkpt>
      <trkpt lat="47.49292" lon="6.75161">
        <ele>346</ele>
        <time>2015-12-20T08:48:39.000Z</time>
      </trkpt>
      <trkpt lat="47.49292" lon="6.75155">
        <ele>346</ele>
        <time>2015-12-20T08:48:40.000Z</time>
      </trkpt>
      <trkpt lat="47.49292" lon="6.7515">
        <ele>347</ele>
        <time>2015-12-20T08:48:41.000Z</time>
      </trkpt>
      <trkpt lat="47.49293" lon="6.75144">
        <ele>347</ele>
        <time>2015-12-20T08:48:42.000Z</time>
      </trkpt>
      <trkpt lat="47.49293" lon="6.75139">
        <ele>347</ele>
        <time>2015-12-20T08:48:43.000Z</time>
      </trkpt>
      <trkpt lat="47.49293" lon="6.75134">
        <ele>347</ele>
        <time>2015-12-20T08:48:44.000Z</time>
      </trkpt>
      <trkpt lat="47.49294" lon="6.75129">
        <ele>347</ele>
        <time>2015-12-20T08:48:45.000Z</time>
      </trkpt>
      <trkpt lat="47.49294" lon="6.75124">
        <ele>347</ele>
        <time>2015-12-20T08:48:46.000Z</time>
      </trkpt>
      <trkpt lat="47.49295" lon="6.75119">
        <ele>347</ele>
        <time>2015-12-20T08:48:47.000Z</time>
      </trkpt>
      <trkpt lat="47.49296" lon="6.75113">
        <ele>347</ele>
        <time>2015-12-20T08:48:48.000Z</time>
      </trkpt>
      <trkpt lat="47.49297" lon="6.75107">
        <ele>347</ele>
        <time>2015-12-20T08:48:49.000Z</time>
      </trkpt>
      <trkpt lat="47.49298" lon="6.75102">
        <ele>346</ele>
        <time>2015-12-20T08:48:50.000Z</time>
      </trkpt>
      <trkpt lat="47.493" lon="6.75096">
        <ele>346</ele>
        <time>2015-12-20T08:48:51.000Z</time>
      </trkpt>
      <trkpt lat="47.49302" lon="6.75091">
        <ele>346</ele>
        <time>2015-12-20T08:48:52.000Z</time>
      </trkpt>
      <trkpt lat="47.49304" lon="6.75087">
        <ele>345</ele>
        <time>2015-12-20T08:48:53.000Z</time>
      </trkpt>
      <trkpt lat="47.49307" lon="6.75082">
        <ele>347</ele>
        <time>2015-12-20T08:48:54.000Z</time>
      </trkpt>
      <trkpt lat="47.4931" lon="6.75077">
        <ele>346</ele>
        <time>2015-12-20T08:48:55.000Z</time>
      </trkpt>
      <trkpt lat="47.49312" lon="6.75071">
        <ele>346</ele>
        <time>2015-12-20T08:48:56.000Z</time>
      </trkpt>
      <trkpt lat="47.49315" lon="6.75066">
        <ele>346</ele>
        <time>2015-12-20T08:48:57.000Z</time>
      </trkpt>
      <trkpt lat="47.49318" lon="6.75061">
        <ele>346</ele>
        <time>2015-12-20T08:48:58.000Z</time>
      </trkpt>
      <trkpt lat="47.49321" lon="6.75056">
        <ele>347</ele>
        <time>2015-12-20T08:48:59.000Z</time>
      </trkpt>
      <trkpt lat="47.49323" lon="6.7505">
        <ele>347</ele>
        <time>2015-12-20T08:49:00.000Z</time>
      </trkpt>
      <trkpt lat="47.49325" lon="6.75044">
        <ele>347</ele>
        <time>2015-12-20T08:49:01.000Z</time>
      </trkpt>
      <trkpt lat="47.49327" lon="6.7504">
        <ele>347</ele>
        <time>2015-12-20T08:49:02.000Z</time>
      </trkpt>
      <trkpt lat="47.49328" lon="6.75035">
        <ele>347</ele>
        <time>2015-12-20T08:49:03.000Z</time>
      </trkpt>
      <trkpt lat="47.49329" lon="6.7503">
        <ele>347</ele>
        <time>2015-12-20T08:49:04.000Z</time>
      </trkpt>
      <trkpt lat="47.49329" lon="6.75025">
        <ele>347</ele>
        <time>2015-12-20T08:49:05.000Z</time>
      </trkpt>
      <trkpt lat="47.4933" lon="6.75021">
        <ele>347</ele>
        <time>2015-12-20T08:49:06.000Z</time>
      </trkpt>
      <trkpt lat="47.4933" lon="6.75017">
        <ele>346</ele>
        <time>2015-12-20T08:49:07.000Z</time>
      </trkpt>
      <trkpt lat="47.49329" lon="6.75014">
        <ele>346</ele>
        <time>2015-12-20T08:49:08.000Z</time>
      </trkpt>
      <trkpt lat="47.49329" lon="6.75009">
        <ele>345</ele>
        <time>2015-12-20T08:49:10.000Z</time>
      </trkpt>
      <trkpt lat="47.49329" lon="6.75007">
        <ele>345</ele>
        <time>2015-12-20T08:49:11.000Z</time>
      </trkpt>
      <trkpt lat="47.49329" lon="6.75001">
        <ele>344</ele>
        <time>2015-12-20T08:49:13.000Z</time>
      </trkpt>
      <trkpt lat="47.49329" lon="6.74999">
        <ele>345</ele>
        <time>2015-12-20T08:49:14.000Z</time>
      </trkpt>
      <trkpt lat="47.49329" lon="6.74993">
        <ele>347</ele>
        <time>2015-12-20T08:49:16.000Z</time>
      </trkpt>
      <trkpt lat="47.49329" lon="6.7499">
        <ele>347</ele>
        <time>2015-12-20T08:49:17.000Z</time>
      </trkpt>
      <trkpt lat="47.49329" lon="6.74984">
        <ele>349</ele>
        <time>2015-12-20T08:49:19.000Z</time>
      </trkpt>
      <trkpt lat="47.49329" lon="6.74981">
        <ele>350</ele>
        <time>2015-12-20T08:49:20.000Z</time>
      </trkpt>
      <trkpt lat="47.49328" lon="6.74976">
        <ele>350</ele>
        <time>2015-12-20T08:49:22.000Z</time>
      </trkpt>
      <trkpt lat="47.49327" lon="6.74974">
        <ele>351</ele>
        <time>2015-12-20T08:49:23.000Z</time>
      </trkpt>
      <trkpt lat="47.49327" lon="6.74969">
        <ele>351</ele>
        <time>2015-12-20T08:49:26.000Z</time>
      </trkpt>
      <trkpt lat="47.49326" lon="6.74967">
        <ele>352</ele>
        <time>2015-12-20T08:49:27.000Z</time>
      </trkpt>
      <trkpt lat="47.49326" lon="6.74961">
        <ele>352</ele>
        <time>2015-12-20T08:49:30.000Z</time>
      </trkpt>
      <trkpt lat="47.49325" lon="6.74959">
        <ele>352</ele>
        <time>2015-12-20T08:49:31.000Z</time>
      </trkpt>
      <trkpt lat="47.49325" lon="6.74954">
        <ele>352</ele>
        <time>2015-12-20T08:49:33.000Z</time>
      </trkpt>
      <trkpt lat="47.49325" lon="6.74952">
        <ele>352</ele>
        <time>2015-12-20T08:49:34.000Z</time>
      </trkpt>
      <trkpt lat="47.49325" lon="6.74947">
        <ele>352</ele>
        <time>2015-12-20T08:49:36.000Z</time>
      </trkpt>
      <trkpt lat="47.49326" lon="6.74945">
        <ele>352</ele>
        <time>2015-12-20T08:49:37.000Z</time>
      </trkpt>
      <trkpt lat="47.49327" lon="6.74938">
        <ele>352</ele>
        <time>2015-12-20T08:49:40.000Z</time>
      </trkpt>
      <trkpt lat="47.49327" lon="6.74936">
        <ele>352</ele>
        <time>2015-12-20T08:49:41.000Z</time>
      </trkpt>
      <trkpt lat="47.49326" lon="6.74931">
        <ele>351</ele>
        <time>2015-12-20T08:49:44.000Z</time>
      </trkpt>
      <trkpt lat="47.49326" lon="6.74929">
        <ele>351</ele>
        <time>2015-12-20T08:49:45.000Z</time>
      </trkpt>
      <trkpt lat="47.49327" lon="6.74923">
        <ele>350</ele>
        <time>2015-12-20T08:49:47.000Z</time>
      </trkpt>
      <trkpt lat="47.49328" lon="6.74921">
        <ele>350</ele>
        <time>2015-12-20T08:49:48.000Z</time>
      </trkpt>
      <trkpt lat="47.49329" lon="6.74918">
        <ele>349</ele>
        <time>2015-12-20T08:49:49.000Z</time>
      </trkpt>
      <trkpt lat="47.49331" lon="6.74915">
        <ele>349</ele>
        <time>2015-12-20T08:49:50.000Z</time>
      </trkpt>
      <trkpt lat="47.49333" lon="6.74911">
        <ele>350</ele>
        <time>2015-12-20T08:49:51.000Z</time>
      </trkpt>
      <trkpt lat="47.49335" lon="6.74907">
        <ele>346</ele>
        <time>2015-12-20T08:49:52.000Z</time>
      </trkpt>
      <trkpt lat="47.49336" lon="6.74902">
        <ele>345</ele>
        <time>2015-12-20T08:49:53.000Z</time>
      </trkpt>
      <trkpt lat="47.49337" lon="6.74899">
        <ele>345</ele>
        <time>2015-12-20T08:49:54.000Z</time>
      </trkpt>
      <trkpt lat="47.49339" lon="6.74893">
        <ele>344</ele>
        <time>2015-12-20T08:49:57.000Z</time>
      </trkpt>
      <trkpt lat="47.4934" lon="6.74892">
        <ele>344</ele>
        <time>2015-12-20T08:49:58.000Z</time>
      </trkpt>
      <trkpt lat="47.49342" lon="6.74887">
        <ele>344</ele>
        <time>2015-12-20T08:50:01.000Z</time>
      </trkpt>
      <trkpt lat="47.49342" lon="6.74886">
        <ele>344</ele>
        <time>2015-12-20T08:50:02.000Z</time>
      </trkpt>
      <trkpt lat="47.49345" lon="6.74882">
        <ele>343</ele>
        <time>2015-12-20T08:50:04.000Z</time>
      </trkpt>
      <trkpt lat="47.49346" lon="6.7488">
        <ele>343</ele>
        <time>2015-12-20T08:50:05.000Z</time>
      </trkpt>
      <trkpt lat="47.49349" lon="6.74875">
        <ele>343</ele>
        <time>2015-12-20T08:50:07.000Z</time>
      </trkpt>
      <trkpt lat="47.4935" lon="6.74872">
        <ele>343</ele>
        <time>2015-12-20T08:50:08.000Z</time>
      </trkpt>
      <trkpt lat="47.49352" lon="6.74868">
        <ele>343</ele>
        <time>2015-12-20T08:50:09.000Z</time>
      </trkpt>
      <trkpt lat="47.49354" lon="6.74864">
        <ele>343</ele>
        <time>2015-12-20T08:50:10.000Z</time>
      </trkpt>
      <trkpt lat="47.49356" lon="6.74859">
        <ele>343</ele>
        <time>2015-12-20T08:50:11.000Z</time>
      </trkpt>
      <trkpt lat="47.49358" lon="6.74854">
        <ele>343</ele>
        <time>2015-12-20T08:50:12.000Z</time>
      </trkpt>
      <trkpt lat="47.4936" lon="6.74848">
        <ele>343</ele>
        <time>2015-12-20T08:50:13.000Z</time>
      </trkpt>
      <trkpt lat="47.49363" lon="6.74843">
        <ele>343</ele>
        <time>2015-12-20T08:50:14.000Z</time>
      </trkpt>
      <trkpt lat="47.49365" lon="6.74837">
        <ele>343</ele>
        <time>2015-12-20T08:50:15.000Z</time>
      </trkpt>
      <trkpt lat="47.49367" lon="6.74832">
        <ele>344</ele>
        <time>2015-12-20T08:50:16.000Z</time>
      </trkpt>
      <trkpt lat="47.49369" lon="6.74828">
        <ele>344</ele>
        <time>2015-12-20T08:50:17.000Z</time>
      </trkpt>
      <trkpt lat="47.4937" lon="6.74823">
        <ele>344</ele>
        <time>2015-12-20T08:50:18.000Z</time>
      </trkpt>
      <trkpt lat="47.49372" lon="6.74819">
        <ele>344</ele>
        <time>2015-12-20T08:50:19.000Z</time>
      </trkpt>
      <trkpt lat="47.49374" lon="6.74814">
        <ele>344</ele>
        <time>2015-12-20T08:50:20.000Z</time>
      </trkpt>
      <trkpt lat="47.49376" lon="6.7481">
        <ele>344</ele>
        <time>2015-12-20T08:50:21.000Z</time>
      </trkpt>
      <trkpt lat="47.49377" lon="6.74806">
        <ele>344</ele>
        <time>2015-12-20T08:50:22.000Z</time>
      </trkpt>
      <trkpt lat="47.49379" lon="6.748">
        <ele>344</ele>
        <time>2015-12-20T08:50:23.000Z</time>
      </trkpt>
      <trkpt lat="47.4938" lon="6.74793">
        <ele>344</ele>
        <time>2015-12-20T08:50:24.000Z</time>
      </trkpt>
      <trkpt lat="47.49381" lon="6.74786">
        <ele>344</ele>
        <time>2015-12-20T08:50:25.000Z</time>
      </trkpt>
      <trkpt lat="47.49382" lon="6.74779">
        <ele>344</ele>
        <time>2015-12-20T08:50:26.000Z</time>
      </trkpt>
      <trkpt lat="47.49387" lon="6.74762">
        <ele>344</ele>
        <time>2015-12-20T08:50:27.000Z</time>
      </trkpt>
      <trkpt lat="47.49389" lon="6.74755">
        <ele>344</ele>
        <time>2015-12-20T08:50:28.000Z</time>
      </trkpt>
      <trkpt lat="47.49389" lon="6.74749">
        <ele>346</ele>
        <time>2015-12-20T08:50:29.000Z</time>
      </trkpt>
      <trkpt lat="47.4939" lon="6.74744">
        <ele>346</ele>
        <time>2015-12-20T08:50:30.000Z</time>
      </trkpt>
      <trkpt lat="47.49391" lon="6.74739">
        <ele>346</ele>
        <time>2015-12-20T08:50:31.000Z</time>
      </trkpt>
      <trkpt lat="47.49392" lon="6.74734">
        <ele>346</ele>
        <time>2015-12-20T08:50:32.000Z</time>
      </trkpt>
      <trkpt lat="47.49393" lon="6.7473">
        <ele>346</ele>
        <time>2015-12-20T08:50:33.000Z</time>
      </trkpt>
      <trkpt lat="47.49393" lon="6.74726">
        <ele>346</ele>
        <time>2015-12-20T08:50:34.000Z</time>
      </trkpt>
      <trkpt lat="47.49392" lon="6.74721">
        <ele>347</ele>
        <time>2015-12-20T08:50:35.000Z</time>
      </trkpt>
      <trkpt lat="47.49393" lon="6.74717">
        <ele>347</ele>
        <time>2015-12-20T08:50:36.000Z</time>
      </trkpt>
      <trkpt lat="47.49394" lon="6.74713">
        <ele>347</ele>
        <time>2015-12-20T08:50:37.000Z</time>
      </trkpt>
      <trkpt lat="47.49394" lon="6.74709">
        <ele>347</ele>
        <time>2015-12-20T08:50:38.000Z</time>
      </trkpt>
      <trkpt lat="47.49395" lon="6.74705">
        <ele>347</ele>
        <time>2015-12-20T08:50:39.000Z</time>
      </trkpt>
      <trkpt lat="47.49395" lon="6.747">
        <ele>347</ele>
        <time>2015-12-20T08:50:40.000Z</time>
      </trkpt>
      <trkpt lat="47.49395" lon="6.74696">
        <ele>346</ele>
        <time>2015-12-20T08:50:41.000Z</time>
      </trkpt>
      <trkpt lat="47.49395" lon="6.74692">
        <ele>346</ele>
        <time>2015-12-20T08:50:42.000Z</time>
      </trkpt>
      <trkpt lat="47.49396" lon="6.74688">
        <ele>346</ele>
        <time>2015-12-20T08:50:43.000Z</time>
      </trkpt>
      <trkpt lat="47.49396" lon="6.74684">
        <ele>346</ele>
        <time>2015-12-20T08:50:44.000Z</time>
      </trkpt>
      <trkpt lat="47.49395" lon="6.7468">
        <ele>346</ele>
        <time>2015-12-20T08:50:45.000Z</time>
      </trkpt>
      <trkpt lat="47.49395" lon="6.74676">
        <ele>346</ele>
        <time>2015-12-20T08:50:46.000Z</time>
      </trkpt>
      <trkpt lat="47.49395" lon="6.74671">
        <ele>346</ele>
        <time>2015-12-20T08:50:47.000Z</time>
      </trkpt>
      <trkpt lat="47.49395" lon="6.74666">
        <ele>347</ele>
        <time>2015-12-20T08:50:48.000Z</time>
      </trkpt>
      <trkpt lat="47.49394" lon="6.74661">
        <ele>347</ele>
        <time>2015-12-20T08:50:49.000Z</time>
      </trkpt>
      <trkpt lat="47.49395" lon="6.74656">
        <ele>347</ele>
        <time>2015-12-20T08:50:50.000Z</time>
      </trkpt>
      <trkpt lat="47.49395" lon="6.74651">
        <ele>347</ele>
        <time>2015-12-20T08:50:51.000Z</time>
      </trkpt>
      <trkpt lat="47.49396" lon="6.74646">
        <ele>347</ele>
        <time>2015-12-20T08:50:52.000Z</time>
      </trkpt>
      <trkpt lat="47.49397" lon="6.74641">
        <ele>348</ele>
        <time>2015-12-20T08:50:53.000Z</time>
      </trkpt>
      <trkpt lat="47.49397" lon="6.74636">
        <ele>348</ele>
        <time>2015-12-20T08:50:54.000Z</time>
      </trkpt>
      <trkpt lat="47.49398" lon="6.74631">
        <ele>348</ele>
        <time>2015-12-20T08:50:55.000Z</time>
      </trkpt>
      <trkpt lat="47.49399" lon="6.74626">
        <ele>348</ele>
        <time>2015-12-20T08:50:56.000Z</time>
      </trkpt>
      <trkpt lat="47.49399" lon="6.74621">
        <ele>348</ele>
        <time>2015-12-20T08:50:57.000Z</time>
      </trkpt>
      <trkpt lat="47.494" lon="6.74616">
        <ele>348</ele>
        <time>2015-12-20T08:50:58.000Z</time>
      </trkpt>
      <trkpt lat="47.49401" lon="6.74612">
        <ele>348</ele>
        <time>2015-12-20T08:50:59.000Z</time>
      </trkpt>
      <trkpt lat="47.49401" lon="6.74608">
        <ele>347</ele>
        <time>2015-12-20T08:51:00.000Z</time>
      </trkpt>
      <trkpt lat="47.49402" lon="6.74603">
        <ele>347</ele>
        <time>2015-12-20T08:51:01.000Z</time>
      </trkpt>
      <trkpt lat="47.49402" lon="6.74599">
        <ele>347</ele>
        <time>2015-12-20T08:51:02.000Z</time>
      </trkpt>
      <trkpt lat="47.49402" lon="6.74595">
        <ele>347</ele>
        <time>2015-12-20T08:51:03.000Z</time>
      </trkpt>
      <trkpt lat="47.49402" lon="6.7459">
        <ele>346</ele>
        <time>2015-12-20T08:51:04.000Z</time>
      </trkpt>
      <trkpt lat="47.49401" lon="6.74586">
        <ele>346</ele>
        <time>2015-12-20T08:51:05.000Z</time>
      </trkpt>
      <trkpt lat="47.49401" lon="6.74581">
        <ele>347</ele>
        <time>2015-12-20T08:51:06.000Z</time>
      </trkpt>
      <trkpt lat="47.49401" lon="6.74576">
        <ele>348</ele>
        <time>2015-12-20T08:51:07.000Z</time>
      </trkpt>
      <trkpt lat="47.49401" lon="6.74572">
        <ele>348</ele>
        <time>2015-12-20T08:51:08.000Z</time>
      </trkpt>
      <trkpt lat="47.494" lon="6.74568">
        <ele>349</ele>
        <time>2015-12-20T08:51:09.000Z</time>
      </trkpt>
      <trkpt lat="47.494" lon="6.74563">
        <ele>349</ele>
        <time>2015-12-20T08:51:10.000Z</time>
      </trkpt>
      <trkpt lat="47.494" lon="6.74558">
        <ele>349</ele>
        <time>2015-12-20T08:51:11.000Z</time>
      </trkpt>
      <trkpt lat="47.494" lon="6.74554">
        <ele>350</ele>
        <time>2015-12-20T08:51:12.000Z</time>
      </trkpt>
      <trkpt lat="47.49399" lon="6.7455">
        <ele>350</ele>
        <time>2015-12-20T08:51:13.000Z</time>
      </trkpt>
      <trkpt lat="47.49399" lon="6.74546">
        <ele>350</ele>
        <time>2015-12-20T08:51:14.000Z</time>
      </trkpt>
      <trkpt lat="47.49398" lon="6.74542">
        <ele>351</ele>
        <time>2015-12-20T08:51:15.000Z</time>
      </trkpt>
      <trkpt lat="47.49398" lon="6.74538">
        <ele>351</ele>
        <time>2015-12-20T08:51:16.000Z</time>
      </trkpt>
      <trkpt lat="47.49397" lon="6.74534">
        <ele>351</ele>
        <time>2015-12-20T08:51:17.000Z</time>
      </trkpt>
      <trkpt lat="47.49397" lon="6.7453">
        <ele>351</ele>
        <time>2015-12-20T08:51:18.000Z</time>
      </trkpt>
      <trkpt lat="47.49396" lon="6.74526">
        <ele>351</ele>
        <time>2015-12-20T08:51:19.000Z</time>
      </trkpt>
      <trkpt lat="47.49396" lon="6.74522">
        <ele>351</ele>
        <time>2015-12-20T08:51:20.000Z</time>
      </trkpt>
      <trkpt lat="47.49396" lon="6.74519">
        <ele>351</ele>
        <time>2015-12-20T08:51:21.000Z</time>
      </trkpt>
      <trkpt lat="47.49396" lon="6.74515">
        <ele>351</ele>
        <time>2015-12-20T08:51:22.000Z</time>
      </trkpt>
      <trkpt lat="47.49396" lon="6.74511">
        <ele>351</ele>
        <time>2015-12-20T08:51:23.000Z</time>
      </trkpt>
      <trkpt lat="47.49396" lon="6.74506">
        <ele>351</ele>
        <time>2015-12-20T08:51:24.000Z</time>
      </trkpt>
      <trkpt lat="47.49396" lon="6.74501">
        <ele>351</ele>
        <time>2015-12-20T08:51:25.000Z</time>
      </trkpt>
      <trkpt lat="47.49396" lon="6.74497">
        <ele>352</ele>
        <time>2015-12-20T08:51:26.000Z</time>
      </trkpt>
      <trkpt lat="47.49396" lon="6.74492">
        <ele>352</ele>
        <time>2015-12-20T08:51:27.000Z</time>
      </trkpt>
      <trkpt lat="47.49396" lon="6.74486">
        <ele>352</ele>
        <time>2015-12-20T08:51:28.000Z</time>
      </trkpt>
      <trkpt lat="47.49397" lon="6.7448">
        <ele>352</ele>
        <time>2015-12-20T08:51:29.000Z</time>
      </trkpt>
      <trkpt lat="47.49398" lon="6.74473">
        <ele>352</ele>
        <time>2015-12-20T08:51:30.000Z</time>
      </trkpt>
      <trkpt lat="47.49398" lon="6.74465">
        <ele>353</ele>
        <time>2015-12-20T08:51:31.000Z</time>
      </trkpt>
      <trkpt lat="47.49399" lon="6.74458">
        <ele>353</ele>
        <time>2015-12-20T08:51:32.000Z</time>
      </trkpt>
      <trkpt lat="47.49399" lon="6.74452">
        <ele>352</ele>
        <time>2015-12-20T08:51:33.000Z</time>
      </trkpt>
      <trkpt lat="47.49399" lon="6.74445">
        <ele>352</ele>
        <time>2015-12-20T08:51:34.000Z</time>
      </trkpt>
      <trkpt lat="47.49399" lon="6.74439">
        <ele>352</ele>
        <time>2015-12-20T08:51:35.000Z</time>
      </trkpt>
      <trkpt lat="47.49399" lon="6.74433">
        <ele>352</ele>
        <time>2015-12-20T08:51:36.000Z</time>
      </trkpt>
      <trkpt lat="47.49399" lon="6.74427">
        <ele>351</ele>
        <time>2015-12-20T08:51:37.000Z</time>
      </trkpt>
      <trkpt lat="47.49399" lon="6.74421">
        <ele>351</ele>
        <time>2015-12-20T08:51:38.000Z</time>
      </trkpt>
      <trkpt lat="47.49399" lon="6.74415">
        <ele>351</ele>
        <time>2015-12-20T08:51:39.000Z</time>
      </trkpt>
      <trkpt lat="47.494" lon="6.74409">
        <ele>351</ele>
        <time>2015-12-20T08:51:40.000Z</time>
      </trkpt>
      <trkpt lat="47.494" lon="6.74404">
        <ele>351</ele>
        <time>2015-12-20T08:51:41.000Z</time>
      </trkpt>
      <trkpt lat="47.49401" lon="6.74398">
        <ele>352</ele>
        <time>2015-12-20T08:51:42.000Z</time>
      </trkpt>
      <trkpt lat="47.49402" lon="6.74391">
        <ele>352</ele>
        <time>2015-12-20T08:51:43.000Z</time>
      </trkpt>
      <trkpt lat="47.49403" lon="6.74385">
        <ele>352</ele>
        <time>2015-12-20T08:51:44.000Z</time>
      </trkpt>
      <trkpt lat="47.49403" lon="6.7438">
        <ele>352</ele>
        <time>2015-12-20T08:51:45.000Z</time>
      </trkpt>
      <trkpt lat="47.49403" lon="6.74376">
        <ele>353</ele>
        <time>2015-12-20T08:51:46.000Z</time>
      </trkpt>
      <trkpt lat="47.49403" lon="6.74373">
        <ele>353</ele>
        <time>2015-12-20T08:51:47.000Z</time>
      </trkpt>
      <trkpt lat="47.49402" lon="6.74369">
        <ele>352</ele>
        <time>2015-12-20T08:51:48.000Z</time>
      </trkpt>
      <trkpt lat="47.49402" lon="6.74365">
        <ele>352</ele>
        <time>2015-12-20T08:51:49.000Z</time>
      </trkpt>
      <trkpt lat="47.49402" lon="6.74361">
        <ele>352</ele>
        <time>2015-12-20T08:51:50.000Z</time>
      </trkpt>
      <trkpt lat="47.49402" lon="6.74357">
        <ele>352</ele>
        <time>2015-12-20T08:51:51.000Z</time>
      </trkpt>
      <trkpt lat="47.49402" lon="6.74352">
        <ele>351</ele>
        <time>2015-12-20T08:51:52.000Z</time>
      </trkpt>
      <trkpt lat="47.49402" lon="6.74348">
        <ele>351</ele>
        <time>2015-12-20T08:51:53.000Z</time>
      </trkpt>
      <trkpt lat="47.49402" lon="6.74344">
        <ele>351</ele>
        <time>2015-12-20T08:51:54.000Z</time>
      </trkpt>
      <trkpt lat="47.49402" lon="6.74339">
        <ele>350</ele>
        <time>2015-12-20T08:51:55.000Z</time>
      </trkpt>
      <trkpt lat="47.49403" lon="6.74334">
        <ele>350</ele>
        <time>2015-12-20T08:51:56.000Z</time>
      </trkpt>
      <trkpt lat="47.49404" lon="6.7433">
        <ele>350</ele>
        <time>2015-12-20T08:51:57.000Z</time>
      </trkpt>
      <trkpt lat="47.49404" lon="6.74325">
        <ele>350</ele>
        <time>2015-12-20T08:51:58.000Z</time>
      </trkpt>
      <trkpt lat="47.49404" lon="6.74321">
        <ele>351</ele>
        <time>2015-12-20T08:51:59.000Z</time>
      </trkpt>
      <trkpt lat="47.49404" lon="6.74317">
        <ele>351</ele>
        <time>2015-12-20T08:52:00.000Z</time>
      </trkpt>
      <trkpt lat="47.49405" lon="6.74313">
        <ele>352</ele>
        <time>2015-12-20T08:52:01.000Z</time>
      </trkpt>
      <trkpt lat="47.49405" lon="6.74309">
        <ele>352</ele>
        <time>2015-12-20T08:52:02.000Z</time>
      </trkpt>
      <trkpt lat="47.49405" lon="6.74305">
        <ele>352</ele>
        <time>2015-12-20T08:52:03.000Z</time>
      </trkpt>
      <trkpt lat="47.49406" lon="6.743">
        <ele>352</ele>
        <time>2015-12-20T08:52:04.000Z</time>
      </trkpt>
      <trkpt lat="47.49407" lon="6.74296">
        <ele>353</ele>
        <time>2015-12-20T08:52:05.000Z</time>
      </trkpt>
      <trkpt lat="47.49408" lon="6.74293">
        <ele>353</ele>
        <time>2015-12-20T08:52:06.000Z</time>
      </trkpt>
      <trkpt lat="47.49409" lon="6.74288">
        <ele>352</ele>
        <time>2015-12-20T08:52:07.000Z</time>
      </trkpt>
      <trkpt lat="47.4941" lon="6.74284">
        <ele>352</ele>
        <time>2015-12-20T08:52:08.000Z</time>
      </trkpt>
      <trkpt lat="47.49412" lon="6.74279">
        <ele>352</ele>
        <time>2015-12-20T08:52:09.000Z</time>
      </trkpt>
      <trkpt lat="47.49413" lon="6.74273">
        <ele>351</ele>
        <time>2015-12-20T08:52:10.000Z</time>
      </trkpt>
      <trkpt lat="47.49414" lon="6.74268">
        <ele>350</ele>
        <time>2015-12-20T08:52:11.000Z</time>
      </trkpt>
      <trkpt lat="47.49416" lon="6.74262">
        <ele>349</ele>
        <time>2015-12-20T08:52:12.000Z</time>
      </trkpt>
      <trkpt lat="47.49417" lon="6.74257">
        <ele>347</ele>
        <time>2015-12-20T08:52:13.000Z</time>
      </trkpt>
      <trkpt lat="47.49417" lon="6.74251">
        <ele>345</ele>
        <time>2015-12-20T08:52:14.000Z</time>
      </trkpt>
      <trkpt lat="47.49418" lon="6.74247">
        <ele>345</ele>
        <time>2015-12-20T08:52:15.000Z</time>
      </trkpt>
      <trkpt lat="47.49418" lon="6.74242">
        <ele>346</ele>
        <time>2015-12-20T08:52:16.000Z</time>
      </trkpt>
      <trkpt lat="47.49419" lon="6.74238">
        <ele>347</ele>
        <time>2015-12-20T08:52:17.000Z</time>
      </trkpt>
      <trkpt lat="47.49419" lon="6.74233">
        <ele>348</ele>
        <time>2015-12-20T08:52:18.000Z</time>
      </trkpt>
      <trkpt lat="47.4942" lon="6.74228">
        <ele>349</ele>
        <time>2015-12-20T08:52:19.000Z</time>
      </trkpt>
      <trkpt lat="47.4942" lon="6.74222">
        <ele>349</ele>
        <time>2015-12-20T08:52:20.000Z</time>
      </trkpt>
      <trkpt lat="47.49421" lon="6.74215">
        <ele>349</ele>
        <time>2015-12-20T08:52:21.000Z</time>
      </trkpt>
      <trkpt lat="47.49422" lon="6.74208">
        <ele>350</ele>
        <time>2015-12-20T08:52:22.000Z</time>
      </trkpt>
      <trkpt lat="47.49423" lon="6.74202">
        <ele>350</ele>
        <time>2015-12-20T08:52:23.000Z</time>
      </trkpt>
      <trkpt lat="47.49424" lon="6.74195">
        <ele>349</ele>
        <time>2015-12-20T08:52:24.000Z</time>
      </trkpt>
      <trkpt lat="47.49425" lon="6.74189">
        <ele>349</ele>
        <time>2015-12-20T08:52:25.000Z</time>
      </trkpt>
      <trkpt lat="47.49425" lon="6.74184">
        <ele>349</ele>
        <time>2015-12-20T08:52:26.000Z</time>
      </trkpt>
      <trkpt lat="47.49425" lon="6.74179">
        <ele>348</ele>
        <time>2015-12-20T08:52:27.000Z</time>
      </trkpt>
      <trkpt lat="47.49425" lon="6.74175">
        <ele>348</ele>
        <time>2015-12-20T08:52:28.000Z</time>
      </trkpt>
      <trkpt lat="47.49425" lon="6.7417">
        <ele>347</ele>
        <time>2015-12-20T08:52:29.000Z</time>
      </trkpt>
      <trkpt lat="47.49426" lon="6.74166">
        <ele>347</ele>
        <time>2015-12-20T08:52:30.000Z</time>
      </trkpt>
      <trkpt lat="47.49426" lon="6.74162">
        <ele>347</ele>
        <time>2015-12-20T08:52:31.000Z</time>
      </trkpt>
      <trkpt lat="47.49425" lon="6.74158">
        <ele>348</ele>
        <time>2015-12-20T08:52:32.000Z</time>
      </trkpt>
      <trkpt lat="47.49425" lon="6.74154">
        <ele>348</ele>
        <time>2015-12-20T08:52:33.000Z</time>
      </trkpt>
      <trkpt lat="47.49425" lon="6.7415">
        <ele>349</ele>
        <time>2015-12-20T08:52:34.000Z</time>
      </trkpt>
      <trkpt lat="47.49424" lon="6.74145">
        <ele>349</ele>
        <time>2015-12-20T08:52:35.000Z</time>
      </trkpt>
      <trkpt lat="47.49424" lon="6.74142">
        <ele>349</ele>
        <time>2015-12-20T08:52:36.000Z</time>
      </trkpt>
      <trkpt lat="47.49422" lon="6.74138">
        <ele>349</ele>
        <time>2015-12-20T08:52:37.000Z</time>
      </trkpt>
      <trkpt lat="47.49421" lon="6.74134">
        <ele>350</ele>
        <time>2015-12-20T08:52:38.000Z</time>
      </trkpt>
      <trkpt lat="47.4942" lon="6.74131">
        <ele>350</ele>
        <time>2015-12-20T08:52:39.000Z</time>
      </trkpt>
      <trkpt lat="47.49418" lon="6.74127">
        <ele>350</ele>
        <time>2015-12-20T08:52:40.000Z</time>
      </trkpt>
      <trkpt lat="47.49417" lon="6.74122">
        <ele>350</ele>
        <time>2015-12-20T08:52:41.000Z</time>
      </trkpt>
      <trkpt lat="47.49416" lon="6.74117">
        <ele>353</ele>
        <time>2015-12-20T08:52:42.000Z</time>
      </trkpt>
      <trkpt lat="47.49414" lon="6.74113">
        <ele>353</ele>
        <time>2015-12-20T08:52:43.000Z</time>
      </trkpt>
      <trkpt lat="47.49414" lon="6.74109">
        <ele>353</ele>
        <time>2015-12-20T08:52:44.000Z</time>
      </trkpt>
      <trkpt lat="47.49413" lon="6.74106">
        <ele>353</ele>
        <time>2015-12-20T08:52:45.000Z</time>
      </trkpt>
      <trkpt lat="47.49412" lon="6.74102">
        <ele>352</ele>
        <time>2015-12-20T08:52:46.000Z</time>
      </trkpt>
      <trkpt lat="47.49411" lon="6.74097">
        <ele>351</ele>
        <time>2015-12-20T08:52:48.000Z</time>
      </trkpt>
      <trkpt lat="47.4941" lon="6.74094">
        <ele>351</ele>
        <time>2015-12-20T08:52:49.000Z</time>
      </trkpt>
      <trkpt lat="47.49408" lon="6.74089">
        <ele>351</ele>
        <time>2015-12-20T08:52:51.000Z</time>
      </trkpt>
      <trkpt lat="47.49408" lon="6.74087">
        <ele>350</ele>
        <time>2015-12-20T08:52:52.000Z</time>
      </trkpt>
      <trkpt lat="47.49406" lon="6.74082">
        <ele>350</ele>
        <time>2015-12-20T08:52:54.000Z</time>
      </trkpt>
      <trkpt lat="47.49405" lon="6.7408">
        <ele>351</ele>
        <time>2015-12-20T08:52:55.000Z</time>
      </trkpt>
      <trkpt lat="47.49405" lon="6.74075">
        <ele>351</ele>
        <time>2015-12-20T08:52:57.000Z</time>
      </trkpt>
      <trkpt lat="47.49404" lon="6.74072">
        <ele>352</ele>
        <time>2015-12-20T08:52:58.000Z</time>
      </trkpt>
      <trkpt lat="47.49403" lon="6.74066">
        <ele>353</ele>
        <time>2015-12-20T08:53:00.000Z</time>
      </trkpt>
      <trkpt lat="47.49403" lon="6.74062">
        <ele>353</ele>
        <time>2015-12-20T08:53:01.000Z</time>
      </trkpt>
      <trkpt lat="47.49402" lon="6.74055">
        <ele>353</ele>
        <time>2015-12-20T08:53:03.000Z</time>
      </trkpt>
      <trkpt lat="47.49402" lon="6.74052">
        <ele>354</ele>
        <time>2015-12-20T08:53:04.000Z</time>
      </trkpt>
      <trkpt lat="47.49401" lon="6.74047">
        <ele>354</ele>
        <time>2015-12-20T08:53:06.000Z</time>
      </trkpt>
      <trkpt lat="47.494" lon="6.74045">
        <ele>354</ele>
        <time>2015-12-20T08:53:07.000Z</time>
      </trkpt>
      <trkpt lat="47.49398" lon="6.74038">
        <ele>354</ele>
        <time>2015-12-20T08:53:10.000Z</time>
      </trkpt>
      <trkpt lat="47.49398" lon="6.74036">
        <ele>354</ele>
        <time>2015-12-20T08:53:11.000Z</time>
      </trkpt>
      <trkpt lat="47.49398" lon="6.74032">
        <ele>354</ele>
        <time>2015-12-20T08:53:13.000Z</time>
      </trkpt>
      <trkpt lat="47.49398" lon="6.74029">
        <ele>354</ele>
        <time>2015-12-20T08:53:14.000Z</time>
      </trkpt>
      <trkpt lat="47.49396" lon="6.74025">
        <ele>354</ele>
        <time>2015-12-20T08:53:16.000Z</time>
      </trkpt>
      <trkpt lat="47.49396" lon="6.74023">
        <ele>354</ele>
        <time>2015-12-20T08:53:17.000Z</time>
      </trkpt>
      <trkpt lat="47.49393" lon="6.74018">
        <ele>354</ele>
        <time>2015-12-20T08:53:20.000Z</time>
      </trkpt>
      <trkpt lat="47.49393" lon="6.74017">
        <ele>354</ele>
        <time>2015-12-20T08:53:21.000Z</time>
      </trkpt>
      <trkpt lat="47.49393" lon="6.7401">
        <ele>354</ele>
        <time>2015-12-20T08:53:25.000Z</time>
      </trkpt>
      <trkpt lat="47.49393" lon="6.74009">
        <ele>354</ele>
        <time>2015-12-20T08:53:26.000Z</time>
      </trkpt>
      <trkpt lat="47.49393" lon="6.74003">
        <ele>354</ele>
        <time>2015-12-20T08:54:06.000Z</time>
      </trkpt>
      <trkpt lat="47.49393" lon="6.74002">
        <ele>354</ele>
        <time>2015-12-20T08:54:07.000Z</time>
      </trkpt>
      <trkpt lat="47.49393" lon="6.73996">
        <ele>353</ele>
        <time>2015-12-20T08:54:21.000Z</time>
      </trkpt>
      <trkpt lat="47.49393" lon="6.73995">
        <ele>353</ele>
        <time>2015-12-20T08:54:22.000Z</time>
      </trkpt>
      <trkpt lat="47.49391" lon="6.7399">
        <ele>353</ele>
        <time>2015-12-20T08:54:25.000Z</time>
      </trkpt>
      <trkpt lat="47.49391" lon="6.73988">
        <ele>353</ele>
        <time>2015-12-20T08:54:26.000Z</time>
      </trkpt>
      <trkpt lat="47.49388" lon="6.73983">
        <ele>353</ele>
        <time>2015-12-20T08:54:29.000Z</time>
      </trkpt>
      <trkpt lat="47.49387" lon="6.73981">
        <ele>353</ele>
        <time>2015-12-20T08:54:30.000Z</time>
      </trkpt>
      <trkpt lat="47.49386" lon="6.73979">
        <ele>353</ele>
        <time>2015-12-20T08:54:31.000Z</time>
      </trkpt>
      <trkpt lat="47.49384" lon="6.73976">
        <ele>354</ele>
        <time>2015-12-20T08:54:32.000Z</time>
      </trkpt>
      <trkpt lat="47.49382" lon="6.73973">
        <ele>354</ele>
        <time>2015-12-20T08:54:33.000Z</time>
      </trkpt>
      <trkpt lat="47.49381" lon="6.73969">
        <ele>354</ele>
        <time>2015-12-20T08:54:34.000Z</time>
      </trkpt>
      <trkpt lat="47.4938" lon="6.73965">
        <ele>354</ele>
        <time>2015-12-20T08:54:35.000Z</time>
      </trkpt>
      <trkpt lat="47.49379" lon="6.73961">
        <ele>354</ele>
        <time>2015-12-20T08:54:36.000Z</time>
      </trkpt>
      <trkpt lat="47.49377" lon="6.73957">
        <ele>354</ele>
        <time>2015-12-20T08:54:37.000Z</time>
      </trkpt>
      <trkpt lat="47.49376" lon="6.73954">
        <ele>354</ele>
        <time>2015-12-20T08:54:38.000Z</time>
      </trkpt>
      <trkpt lat="47.49374" lon="6.73951">
        <ele>354</ele>
        <time>2015-12-20T08:54:39.000Z</time>
      </trkpt>
      <trkpt lat="47.49372" lon="6.73948">
        <ele>354</ele>
        <time>2015-12-20T08:54:40.000Z</time>
      </trkpt>
      <trkpt lat="47.49371" lon="6.73944">
        <ele>354</ele>
        <time>2015-12-20T08:54:41.000Z</time>
      </trkpt>
      <trkpt lat="47.49369" lon="6.73939">
        <ele>354</ele>
        <time>2015-12-20T08:54:42.000Z</time>
      </trkpt>
      <trkpt lat="47.49367" lon="6.73934">
        <ele>354</ele>
        <time>2015-12-20T08:54:43.000Z</time>
      </trkpt>
      <trkpt lat="47.49366" lon="6.73929">
        <ele>354</ele>
        <time>2015-12-20T08:54:44.000Z</time>
      </trkpt>
      <trkpt lat="47.49365" lon="6.73924">
        <ele>355</ele>
        <time>2015-12-20T08:54:45.000Z</time>
      </trkpt>
      <trkpt lat="47.49364" lon="6.7392">
        <ele>355</ele>
        <time>2015-12-20T08:54:46.000Z</time>
      </trkpt>
      <trkpt lat="47.49363" lon="6.73917">
        <ele>355</ele>
        <time>2015-12-20T08:54:47.000Z</time>
      </trkpt>
      <trkpt lat="47.49361" lon="6.73914">
        <ele>353</ele>
        <time>2015-12-20T08:54:48.000Z</time>
      </trkpt>
      <trkpt lat="47.49353" lon="6.73904">
        <ele>354</ele>
        <time>2015-12-20T08:54:50.000Z</time>
      </trkpt>
      <trkpt lat="47.4935" lon="6.73895">
        <ele>353</ele>
        <time>2015-12-20T08:54:51.000Z</time>
      </trkpt>
      <trkpt lat="47.49347" lon="6.73887">
        <ele>353</ele>
        <time>2015-12-20T08:54:52.000Z</time>
      </trkpt>
      <trkpt lat="47.49344" lon="6.73876">
        <ele>353</ele>
        <time>2015-12-20T08:54:53.000Z</time>
      </trkpt>
      <trkpt lat="47.4934" lon="6.73869">
        <ele>353</ele>
        <time>2015-12-20T08:54:54.000Z</time>
      </trkpt>
      <trkpt lat="47.49336" lon="6.73864">
        <ele>353</ele>
        <time>2015-12-20T08:54:55.000Z</time>
      </trkpt>
      <trkpt lat="47.49334" lon="6.7386">
        <ele>353</ele>
        <time>2015-12-20T08:54:56.000Z</time>
      </trkpt>
      <trkpt lat="47.49331" lon="6.73857">
        <ele>357</ele>
        <time>2015-12-20T08:54:57.000Z</time>
      </trkpt>
      <trkpt lat="47.49326" lon="6.73858">
        <ele>357</ele>
        <time>2015-12-20T08:54:58.000Z</time>
      </trkpt>
      <trkpt lat="47.49323" lon="6.73856">
        <ele>357</ele>
        <time>2015-12-20T08:54:59.000Z</time>
      </trkpt>
      <trkpt lat="47.4932" lon="6.73853">
        <ele>357</ele>
        <time>2015-12-20T08:55:00.000Z</time>
      </trkpt>
      <trkpt lat="47.49316" lon="6.7385">
        <ele>357</ele>
        <time>2015-12-20T08:55:03.000Z</time>
      </trkpt>
      <trkpt lat="47.49316" lon="6.7385">
        <ele>357</ele>
        <time>2015-12-20T08:55:04.000Z</time>
      </trkpt>
      <trkpt lat="47.49313" lon="6.73846">
        <ele>357</ele>
        <time>2015-12-20T08:55:13.000Z</time>
      </trkpt>
      <trkpt lat="47.49312" lon="6.73845">
        <ele>357</ele>
        <time>2015-12-20T08:55:14.000Z</time>
      </trkpt>
      <trkpt lat="47.49308" lon="6.73843">
        <ele>357</ele>
        <time>2015-12-20T08:55:16.000Z</time>
      </trkpt>
      <trkpt lat="47.49307" lon="6.73842">
        <ele>357</ele>
        <time>2015-12-20T08:55:17.000Z</time>
      </trkpt>
      <trkpt lat="47.49303" lon="6.73838">
        <ele>357</ele>
        <time>2015-12-20T08:55:19.000Z</time>
      </trkpt>
      <trkpt lat="47.49302" lon="6.73836">
        <ele>357</ele>
        <time>2015-12-20T08:55:20.000Z</time>
      </trkpt>
      <trkpt lat="47.49298" lon="6.73833">
        <ele>357</ele>
        <time>2015-12-20T08:55:22.000Z</time>
      </trkpt>
      <trkpt lat="47.49297" lon="6.73832">
        <ele>356</ele>
        <time>2015-12-20T08:55:23.000Z</time>
      </trkpt>
      <trkpt lat="47.49294" lon="6.73829">
        <ele>356</ele>
        <time>2015-12-20T08:55:25.000Z</time>
      </trkpt>
      <trkpt lat="47.49292" lon="6.73827">
        <ele>356</ele>
        <time>2015-12-20T08:55:26.000Z</time>
      </trkpt>
      <trkpt lat="47.49289" lon="6.73824">
        <ele>357</ele>
        <time>2015-12-20T08:55:28.000Z</time>
      </trkpt>
      <trkpt lat="47.49287" lon="6.73822">
        <ele>357</ele>
        <time>2015-12-20T08:55:29.000Z</time>
      </trkpt>
      <trkpt lat="47.49284" lon="6.73819">
        <ele>357</ele>
        <time>2015-12-20T08:55:31.000Z</time>
      </trkpt>
      <trkpt lat="47.49282" lon="6.73816">
        <ele>357</ele>
        <time>2015-12-20T08:55:32.000Z</time>
      </trkpt>
      <trkpt lat="47.4928" lon="6.73814">
        <ele>357</ele>
        <time>2015-12-20T08:55:33.000Z</time>
      </trkpt>
      <trkpt lat="47.49278" lon="6.73811">
        <ele>357</ele>
        <time>2015-12-20T08:55:34.000Z</time>
      </trkpt>
      <trkpt lat="47.49276" lon="6.73808">
        <ele>357</ele>
        <time>2015-12-20T08:55:35.000Z</time>
      </trkpt>
      <trkpt lat="47.49274" lon="6.73806">
        <ele>357</ele>
        <time>2015-12-20T08:55:36.000Z</time>
      </trkpt>
      <trkpt lat="47.49273" lon="6.73803">
        <ele>357</ele>
        <time>2015-12-20T08:55:37.000Z</time>
      </trkpt>
      <trkpt lat="47.49271" lon="6.73801">
        <ele>357</ele>
        <time>2015-12-20T08:55:38.000Z</time>
      </trkpt>
      <trkpt lat="47.49268" lon="6.73797">
        <ele>357</ele>
        <time>2015-12-20T08:55:40.000Z</time>
      </trkpt>
      <trkpt lat="47.49266" lon="6.73795">
        <ele>357</ele>
        <time>2015-12-20T08:55:41.000Z</time>
      </trkpt>
      <trkpt lat="47.49263" lon="6.73794">
        <ele>357</ele>
        <time>2015-12-20T08:55:43.000Z</time>
      </trkpt>
      <trkpt lat="47.49261" lon="6.73794">
        <ele>357</ele>
        <time>2015-12-20T08:55:44.000Z</time>
      </trkpt>
      <trkpt lat="47.49258" lon="6.73793">
        <ele>357</ele>
        <time>2015-12-20T08:55:46.000Z</time>
      </trkpt>
      <trkpt lat="47.49256" lon="6.73792">
        <ele>357</ele>
        <time>2015-12-20T08:55:47.000Z</time>
      </trkpt>
      <trkpt lat="47.49253" lon="6.73789">
        <ele>357</ele>
        <time>2015-12-20T08:55:49.000Z</time>
      </trkpt>
      <trkpt lat="47.49251" lon="6.73788">
        <ele>357</ele>
        <time>2015-12-20T08:55:50.000Z</time>
      </trkpt>
      <trkpt lat="47.49248" lon="6.73785">
        <ele>361</ele>
        <time>2015-12-20T08:55:52.000Z</time>
      </trkpt>
      <trkpt lat="47.49246" lon="6.73784">
        <ele>361</ele>
        <time>2015-12-20T08:55:53.000Z</time>
      </trkpt>
      <trkpt lat="47.49243" lon="6.73781">
        <ele>361</ele>
        <time>2015-12-20T08:55:55.000Z</time>
      </trkpt>
      <trkpt lat="47.49241" lon="6.7378">
        <ele>361</ele>
        <time>2015-12-20T08:55:56.000Z</time>
      </trkpt>
      <trkpt lat="47.49237" lon="6.73778">
        <ele>361</ele>
        <time>2015-12-20T08:55:58.000Z</time>
      </trkpt>
      <trkpt lat="47.49235" lon="6.73777">
        <ele>361</ele>
        <time>2015-12-20T08:55:59.000Z</time>
      </trkpt>
      <trkpt lat="47.49231" lon="6.73775">
        <ele>361</ele>
        <time>2015-12-20T08:56:01.000Z</time>
      </trkpt>
      <trkpt lat="47.4923" lon="6.73774">
        <ele>361</ele>
        <time>2015-12-20T08:56:02.000Z</time>
      </trkpt>
      <trkpt lat="47.49226" lon="6.73772">
        <ele>361</ele>
        <time>2015-12-20T08:56:04.000Z</time>
      </trkpt>
      <trkpt lat="47.49225" lon="6.73772">
        <ele>361</ele>
        <time>2015-12-20T08:56:05.000Z</time>
      </trkpt>
      <trkpt lat="47.49221" lon="6.73771">
        <ele>361</ele>
        <time>2015-12-20T08:56:07.000Z</time>
      </trkpt>
      <trkpt lat="47.4922" lon="6.73771">
        <ele>361</ele>
        <time>2015-12-20T08:56:08.000Z</time>
      </trkpt>
      <trkpt lat="47.49217" lon="6.73768">
        <ele>361</ele>
        <time>2015-12-20T08:56:10.000Z</time>
      </trkpt>
      <trkpt lat="47.49215" lon="6.73767">
        <ele>361</ele>
        <time>2015-12-20T08:56:11.000Z</time>
      </trkpt>
      <trkpt lat="47.49212" lon="6.73763">
        <ele>362</ele>
        <time>2015-12-20T08:56:13.000Z</time>
      </trkpt>
      <trkpt lat="47.49211" lon="6.73761">
        <ele>362</ele>
        <time>2015-12-20T08:56:14.000Z</time>
      </trkpt>
      <trkpt lat="47.49207" lon="6.73758">
        <ele>362</ele>
        <time>2015-12-20T08:56:16.000Z</time>
      </trkpt>
      <trkpt lat="47.49205" lon="6.73757">
        <ele>362</ele>
        <time>2015-12-20T08:56:17.000Z</time>
      </trkpt>
      <trkpt lat="47.49203" lon="6.73757">
        <ele>362</ele>
        <time>2015-12-20T08:56:18.000Z</time>
      </trkpt>
      <trkpt lat="47.492" lon="6.73756">
        <ele>362</ele>
        <time>2015-12-20T08:56:19.000Z</time>
      </trkpt>
      <trkpt lat="47.49198" lon="6.73754">
        <ele>362</ele>
        <time>2015-12-20T08:56:20.000Z</time>
      </trkpt>
      <trkpt lat="47.49196" lon="6.73752">
        <ele>362</ele>
        <time>2015-12-20T08:56:21.000Z</time>
      </trkpt>
      <trkpt lat="47.49192" lon="6.73748">
        <ele>364</ele>
        <time>2015-12-20T08:56:23.000Z</time>
      </trkpt>
      <trkpt lat="47.49191" lon="6.73747">
        <ele>364</ele>
        <time>2015-12-20T08:56:24.000Z</time>
      </trkpt>
      <trkpt lat="47.49187" lon="6.73747">
        <ele>364</ele>
        <time>2015-12-20T08:56:26.000Z</time>
      </trkpt>
      <trkpt lat="47.49185" lon="6.73748">
        <ele>364</ele>
        <time>2015-12-20T08:56:27.000Z</time>
      </trkpt>
      <trkpt lat="47.49181" lon="6.73749">
        <ele>364</ele>
        <time>2015-12-20T08:56:29.000Z</time>
      </trkpt>
      <trkpt lat="47.49179" lon="6.73747">
        <ele>364</ele>
        <time>2015-12-20T08:56:30.000Z</time>
      </trkpt>
      <trkpt lat="47.49177" lon="6.73745">
        <ele>364</ele>
        <time>2015-12-20T08:56:31.000Z</time>
      </trkpt>
      <trkpt lat="47.49175" lon="6.73743">
        <ele>364</ele>
        <time>2015-12-20T08:56:32.000Z</time>
      </trkpt>
      <trkpt lat="47.49172" lon="6.73739">
        <ele>364</ele>
        <time>2015-12-20T08:56:34.000Z</time>
      </trkpt>
      <trkpt lat="47.4917" lon="6.73738">
        <ele>364</ele>
        <time>2015-12-20T08:56:35.000Z</time>
      </trkpt>
      <trkpt lat="47.49166" lon="6.73736">
        <ele>365</ele>
        <time>2015-12-20T08:56:37.000Z</time>
      </trkpt>
      <trkpt lat="47.49165" lon="6.73735">
        <ele>365</ele>
        <time>2015-12-20T08:56:38.000Z</time>
      </trkpt>
      <trkpt lat="47.49161" lon="6.73734">
        <ele>365</ele>
        <time>2015-12-20T08:56:40.000Z</time>
      </trkpt>
      <trkpt lat="47.49159" lon="6.73734">
        <ele>365</ele>
        <time>2015-12-20T08:56:41.000Z</time>
      </trkpt>
      <trkpt lat="47.49155" lon="6.73733">
        <ele>366</ele>
        <time>2015-12-20T08:56:44.000Z</time>
      </trkpt>
      <trkpt lat="47.49154" lon="6.73732">
        <ele>366</ele>
        <time>2015-12-20T08:56:45.000Z</time>
      </trkpt>
      <trkpt lat="47.4915" lon="6.73729">
        <ele>366</ele>
        <time>2015-12-20T08:56:48.000Z</time>
      </trkpt>
      <trkpt lat="47.49149" lon="6.73728">
        <ele>366</ele>
        <time>2015-12-20T08:56:49.000Z</time>
      </trkpt>
      <trkpt lat="47.49147" lon="6.73726">
        <ele>366</ele>
        <time>2015-12-20T08:56:51.000Z</time>
      </trkpt>
      <trkpt lat="47.49145" lon="6.73724">
        <ele>366</ele>
        <time>2015-12-20T08:56:52.000Z</time>
      </trkpt>
      <trkpt lat="47.49142" lon="6.73721">
        <ele>366</ele>
        <time>2015-12-20T08:56:54.000Z</time>
      </trkpt>
      <trkpt lat="47.49141" lon="6.73719">
        <ele>366</ele>
        <time>2015-12-20T08:56:55.000Z</time>
      </trkpt>
      <trkpt lat="47.49138" lon="6.73718">
        <ele>366</ele>
        <time>2015-12-20T08:56:57.000Z</time>
      </trkpt>
      <trkpt lat="47.49136" lon="6.73717">
        <ele>366</ele>
        <time>2015-12-20T08:56:58.000Z</time>
      </trkpt>
      <trkpt lat="47.49133" lon="6.73715">
        <ele>367</ele>
        <time>2015-12-20T08:57:00.000Z</time>
      </trkpt>
      <trkpt lat="47.49132" lon="6.73714">
        <ele>367</ele>
        <time>2015-12-20T08:57:01.000Z</time>
      </trkpt>
      <trkpt lat="47.49128" lon="6.7371">
        <ele>367</ele>
        <time>2015-12-20T08:57:04.000Z</time>
      </trkpt>
      <trkpt lat="47.49127" lon="6.73709">
        <ele>367</ele>
        <time>2015-12-20T08:57:05.000Z</time>
      </trkpt>
      <trkpt lat="47.49123" lon="6.73706">
        <ele>367</ele>
        <time>2015-12-20T08:57:09.000Z</time>
      </trkpt>
      <trkpt lat="47.49122" lon="6.73705">
        <ele>367</ele>
        <time>2015-12-20T08:57:10.000Z</time>
      </trkpt>
      <trkpt lat="47.49119" lon="6.73703">
        <ele>367</ele>
        <time>2015-12-20T08:57:13.000Z</time>
      </trkpt>
      <trkpt lat="47.49117" lon="6.73703">
        <ele>367</ele>
        <time>2015-12-20T08:57:14.000Z</time>
      </trkpt>
      <trkpt lat="47.49113" lon="6.73704">
        <ele>367</ele>
        <time>2015-12-20T08:57:17.000Z</time>
      </trkpt>
      <trkpt lat="47.49112" lon="6.73704">
        <ele>367</ele>
        <time>2015-12-20T08:57:18.000Z</time>
      </trkpt>
      <trkpt lat="47.49108" lon="6.73702">
        <ele>367</ele>
        <time>2015-12-20T08:57:21.000Z</time>
      </trkpt>
      <trkpt lat="47.49107" lon="6.73701">
        <ele>367</ele>
        <time>2015-12-20T08:57:22.000Z</time>
      </trkpt>
      <trkpt lat="47.49103" lon="6.73699">
        <ele>367</ele>
        <time>2015-12-20T08:57:25.000Z</time>
      </trkpt>
      <trkpt lat="47.49102" lon="6.73698">
        <ele>367</ele>
        <time>2015-12-20T08:57:26.000Z</time>
      </trkpt>
      <trkpt lat="47.49099" lon="6.73695">
        <ele>367</ele>
        <time>2015-12-20T08:57:29.000Z</time>
      </trkpt>
      <trkpt lat="47.49099" lon="6.73694">
        <ele>367</ele>
        <time>2015-12-20T08:57:30.000Z</time>
      </trkpt>
      <trkpt lat="47.49095" lon="6.73691">
        <ele>367</ele>
        <time>2015-12-20T08:57:33.000Z</time>
      </trkpt>
      <trkpt lat="47.49094" lon="6.7369">
        <ele>367</ele>
        <time>2015-12-20T08:57:34.000Z</time>
      </trkpt>
      <trkpt lat="47.49091" lon="6.73688">
        <ele>368</ele>
        <time>2015-12-20T08:57:36.000Z</time>
      </trkpt>
      <trkpt lat="47.49089" lon="6.73688">
        <ele>368</ele>
        <time>2015-12-20T08:57:37.000Z</time>
      </trkpt>
      <trkpt lat="47.49086" lon="6.73686">
        <ele>368</ele>
        <time>2015-12-20T08:57:39.000Z</time>
      </trkpt>
      <trkpt lat="47.49084" lon="6.73686">
        <ele>368</ele>
        <time>2015-12-20T08:57:40.000Z</time>
      </trkpt>
      <trkpt lat="47.49081" lon="6.73685">
        <ele>369</ele>
        <time>2015-12-20T08:57:42.000Z</time>
      </trkpt>
      <trkpt lat="47.4908" lon="6.73685">
        <ele>369</ele>
        <time>2015-12-20T08:57:43.000Z</time>
      </trkpt>
      <trkpt lat="47.49075" lon="6.73686">
        <ele>369</ele>
        <time>2015-12-20T08:57:46.000Z</time>
      </trkpt>
      <trkpt lat="47.49074" lon="6.73686">
        <ele>369</ele>
        <time>2015-12-20T08:57:47.000Z</time>
      </trkpt>
      <trkpt lat="47.49071" lon="6.73683">
        <ele>369</ele>
        <time>2015-12-20T08:57:50.000Z</time>
      </trkpt>
      <trkpt lat="47.4907" lon="6.73682">
        <ele>369</ele>
        <time>2015-12-20T08:57:51.000Z</time>
      </trkpt>
      <trkpt lat="47.49067" lon="6.73681">
        <ele>369</ele>
        <time>2015-12-20T08:57:53.000Z</time>
      </trkpt>
      <trkpt lat="47.49065" lon="6.7368">
        <ele>369</ele>
        <time>2015-12-20T08:57:54.000Z</time>
      </trkpt>
      <trkpt lat="47.49062" lon="6.7368">
        <ele>369</ele>
        <time>2015-12-20T08:57:56.000Z</time>
      </trkpt>
      <trkpt lat="47.49061" lon="6.7368">
        <ele>370</ele>
        <time>2015-12-20T08:57:57.000Z</time>
      </trkpt>
      <trkpt lat="47.49057" lon="6.73678">
        <ele>370</ele>
        <time>2015-12-20T08:58:00.000Z</time>
      </trkpt>
      <trkpt lat="47.49056" lon="6.73677">
        <ele>370</ele>
        <time>2015-12-20T08:58:01.000Z</time>
      </trkpt>
      <trkpt lat="47.49053" lon="6.73674">
        <ele>370</ele>
        <time>2015-12-20T08:58:03.000Z</time>
      </trkpt>
      <trkpt lat="47.49052" lon="6.73673">
        <ele>370</ele>
        <time>2015-12-20T08:58:04.000Z</time>
      </trkpt>
      <trkpt lat="47.49048" lon="6.7367">
        <ele>370</ele>
        <time>2015-12-20T08:58:08.000Z</time>
      </trkpt>
      <trkpt lat="47.49047" lon="6.7367">
        <ele>370</ele>
        <time>2015-12-20T08:58:09.000Z</time>
      </trkpt>
      <trkpt lat="47.49044" lon="6.73668">
        <ele>370</ele>
        <time>2015-12-20T08:58:17.000Z</time>
      </trkpt>
      <trkpt lat="47.49043" lon="6.73668">
        <ele>370</ele>
        <time>2015-12-20T08:58:18.000Z</time>
      </trkpt>
      <trkpt lat="47.49039" lon="6.7367">
        <ele>370</ele>
        <time>2015-12-20T08:58:21.000Z</time>
      </trkpt>
      <trkpt lat="47.49037" lon="6.7367">
        <ele>370</ele>
        <time>2015-12-20T08:58:22.000Z</time>
      </trkpt>
      <trkpt lat="47.49033" lon="6.73672">
        <ele>371</ele>
        <time>2015-12-20T08:58:26.000Z</time>
      </trkpt>
      <trkpt lat="47.49032" lon="6.73672">
        <ele>371</ele>
        <time>2015-12-20T08:58:27.000Z</time>
      </trkpt>
      <trkpt lat="47.49029" lon="6.73669">
        <ele>371</ele>
        <time>2015-12-20T08:58:33.000Z</time>
      </trkpt>
      <trkpt lat="47.49029" lon="6.73666">
        <ele>373</ele>
        <time>2015-12-20T08:58:34.000Z</time>
      </trkpt>
      <trkpt lat="47.49026" lon="6.73662">
        <ele>373</ele>
        <time>2015-12-20T08:58:37.000Z</time>
      </trkpt>
      <trkpt lat="47.49025" lon="6.73662">
        <ele>373</ele>
        <time>2015-12-20T08:58:38.000Z</time>
      </trkpt>
      <trkpt lat="47.49021" lon="6.73664">
        <ele>373</ele>
        <time>2015-12-20T08:58:41.000Z</time>
      </trkpt>
      <trkpt lat="47.49019" lon="6.73664">
        <ele>373</ele>
        <time>2015-12-20T08:58:42.000Z</time>
      </trkpt>
      <trkpt lat="47.49016" lon="6.73665">
        <ele>373</ele>
        <time>2015-12-20T08:58:45.000Z</time>
      </trkpt>
      <trkpt lat="47.49015" lon="6.73665">
        <ele>373</ele>
        <time>2015-12-20T08:58:46.000Z</time>
      </trkpt>
      <trkpt lat="47.4901" lon="6.73666">
        <ele>373</ele>
        <time>2015-12-20T08:58:50.000Z</time>
      </trkpt>
      <trkpt lat="47.49009" lon="6.73665">
        <ele>373</ele>
        <time>2015-12-20T08:58:51.000Z</time>
      </trkpt>
      <trkpt lat="47.49006" lon="6.73664">
        <ele>373</ele>
        <time>2015-12-20T08:58:55.000Z</time>
      </trkpt>
      <trkpt lat="47.49005" lon="6.73664">
        <ele>373</ele>
        <time>2015-12-20T08:58:56.000Z</time>
      </trkpt>
      <trkpt lat="47.49" lon="6.73662">
        <ele>373</ele>
        <time>2015-12-20T08:59:00.000Z</time>
      </trkpt>
      <trkpt lat="47.48999" lon="6.73662">
        <ele>374</ele>
        <time>2015-12-20T08:59:01.000Z</time>
      </trkpt>
      <trkpt lat="47.48995" lon="6.73661">
        <ele>374</ele>
        <time>2015-12-20T08:59:05.000Z</time>
      </trkpt>
      <trkpt lat="47.48994" lon="6.73661">
        <ele>374</ele>
        <time>2015-12-20T08:59:06.000Z</time>
      </trkpt>
      <trkpt lat="47.4899" lon="6.73658">
        <ele>375</ele>
        <time>2015-12-20T08:59:10.000Z</time>
      </trkpt>
      <trkpt lat="47.48989" lon="6.73658">
        <ele>375</ele>
        <time>2015-12-20T08:59:11.000Z</time>
      </trkpt>
      <trkpt lat="47.48985" lon="6.73655">
        <ele>375</ele>
        <time>2015-12-20T08:59:15.000Z</time>
      </trkpt>
      <trkpt lat="47.48983" lon="6.73655">
        <ele>375</ele>
        <time>2015-12-20T08:59:16.000Z</time>
      </trkpt>
      <trkpt lat="47.48979" lon="6.73653">
        <ele>376</ele>
        <time>2015-12-20T08:59:19.000Z</time>
      </trkpt>
      <trkpt lat="47.48978" lon="6.73652">
        <ele>376</ele>
        <time>2015-12-20T08:59:20.000Z</time>
      </trkpt>
      <trkpt lat="47.48975" lon="6.73652">
        <ele>376</ele>
        <time>2015-12-20T08:59:22.000Z</time>
      </trkpt>
      <trkpt lat="47.48973" lon="6.73652">
        <ele>376</ele>
        <time>2015-12-20T08:59:23.000Z</time>
      </trkpt>
      <trkpt lat="47.48969" lon="6.7365">
        <ele>376</ele>
        <time>2015-12-20T08:59:26.000Z</time>
      </trkpt>
      <trkpt lat="47.48967" lon="6.73648">
        <ele>376</ele>
        <time>2015-12-20T08:59:27.000Z</time>
      </trkpt>
      <trkpt lat="47.48964" lon="6.73645">
        <ele>376</ele>
        <time>2015-12-20T08:59:29.000Z</time>
      </trkpt>
      <trkpt lat="47.48962" lon="6.73644">
        <ele>377</ele>
        <time>2015-12-20T08:59:30.000Z</time>
      </trkpt>
      <trkpt lat="47.48958" lon="6.73643">
        <ele>377</ele>
        <time>2015-12-20T08:59:33.000Z</time>
      </trkpt>
      <trkpt lat="47.48957" lon="6.73643">
        <ele>377</ele>
        <time>2015-12-20T08:59:34.000Z</time>
      </trkpt>
      <trkpt lat="47.48953" lon="6.73644">
        <ele>377</ele>
        <time>2015-12-20T08:59:36.000Z</time>
      </trkpt>
      <trkpt lat="47.48952" lon="6.73644">
        <ele>377</ele>
        <time>2015-12-20T08:59:37.000Z</time>
      </trkpt>
      <trkpt lat="47.48948" lon="6.73645">
        <ele>377</ele>
        <time>2015-12-20T08:59:39.000Z</time>
      </trkpt>
      <trkpt lat="47.48947" lon="6.73646">
        <ele>377</ele>
        <time>2015-12-20T08:59:40.000Z</time>
      </trkpt>
      <trkpt lat="47.48943" lon="6.73647">
        <ele>377</ele>
        <time>2015-12-20T08:59:42.000Z</time>
      </trkpt>
      <trkpt lat="47.48941" lon="6.73647">
        <ele>377</ele>
        <time>2015-12-20T08:59:43.000Z</time>
      </trkpt>
      <trkpt lat="47.48937" lon="6.73646">
        <ele>378</ele>
        <time>2015-12-20T08:59:45.000Z</time>
      </trkpt>
      <trkpt lat="47.48936" lon="6.73645">
        <ele>378</ele>
        <time>2015-12-20T08:59:46.000Z</time>
      </trkpt>
      <trkpt lat="47.48933" lon="6.73641">
        <ele>378</ele>
        <time>2015-12-20T08:59:48.000Z</time>
      </trkpt>
      <trkpt lat="47.48932" lon="6.7364">
        <ele>378</ele>
        <time>2015-12-20T08:59:49.000Z</time>
      </trkpt>
      <trkpt lat="47.4893" lon="6.73635">
        <ele>378</ele>
        <time>2015-12-20T08:59:51.000Z</time>
      </trkpt>
      <trkpt lat="47.48929" lon="6.73634">
        <ele>378</ele>
        <time>2015-12-20T08:59:52.000Z</time>
      </trkpt>
      <trkpt lat="47.48925" lon="6.73632">
        <ele>378</ele>
        <time>2015-12-20T08:59:54.000Z</time>
      </trkpt>
      <trkpt lat="47.48924" lon="6.73632">
        <ele>378</ele>
        <time>2015-12-20T08:59:55.000Z</time>
      </trkpt>
      <trkpt lat="47.48919" lon="6.7363">
        <ele>378</ele>
        <time>2015-12-20T08:59:58.000Z</time>
      </trkpt>
      <trkpt lat="47.48918" lon="6.7363">
        <ele>378</ele>
        <time>2015-12-20T08:59:59.000Z</time>
      </trkpt>
      <trkpt lat="47.48914" lon="6.73627">
        <ele>380</ele>
        <time>2015-12-20T09:00:02.000Z</time>
      </trkpt>
      <trkpt lat="47.48913" lon="6.73627">
        <ele>380</ele>
        <time>2015-12-20T09:00:03.000Z</time>
      </trkpt>
      <trkpt lat="47.48909" lon="6.73626">
        <ele>380</ele>
        <time>2015-12-20T09:00:09.000Z</time>
      </trkpt>
      <trkpt lat="47.48908" lon="6.73626">
        <ele>380</ele>
        <time>2015-12-20T09:00:10.000Z</time>
      </trkpt>
      <trkpt lat="47.48905" lon="6.73631">
        <ele>380</ele>
        <time>2015-12-20T09:00:17.000Z</time>
      </trkpt>
      <trkpt lat="47.48905" lon="6.73632">
        <ele>380</ele>
        <time>2015-12-20T09:00:18.000Z</time>
      </trkpt>
      <trkpt lat="47.48904" lon="6.73637">
        <ele>380</ele>
        <time>2015-12-20T09:00:25.000Z</time>
      </trkpt>
      <trkpt lat="47.48903" lon="6.73638">
        <ele>380</ele>
        <time>2015-12-20T09:00:26.000Z</time>
      </trkpt>
      <trkpt lat="47.48902" lon="6.73643">
        <ele>380</ele>
        <time>2015-12-20T09:00:30.000Z</time>
      </trkpt>
      <trkpt lat="47.48902" lon="6.73645">
        <ele>380</ele>
        <time>2015-12-20T09:00:31.000Z</time>
      </trkpt>
      <trkpt lat="47.48901" lon="6.73651">
        <ele>380</ele>
        <time>2015-12-20T09:00:35.000Z</time>
      </trkpt>
      <trkpt lat="47.48901" lon="6.73653">
        <ele>380</ele>
        <time>2015-12-20T09:00:36.000Z</time>
      </trkpt>
      <trkpt lat="47.48901" lon="6.73658">
        <ele>380</ele>
        <time>2015-12-20T09:00:39.000Z</time>
      </trkpt>
      <trkpt lat="47.489" lon="6.7366">
        <ele>380</ele>
        <time>2015-12-20T09:00:40.000Z</time>
      </trkpt>
      <trkpt lat="47.48899" lon="6.73665">
        <ele>380</ele>
        <time>2015-12-20T09:00:43.000Z</time>
      </trkpt>
      <trkpt lat="47.48899" lon="6.73667">
        <ele>380</ele>
        <time>2015-12-20T09:00:44.000Z</time>
      </trkpt>
      <trkpt lat="47.48898" lon="6.73672">
        <ele>383</ele>
        <time>2015-12-20T09:00:47.000Z</time>
      </trkpt>
      <trkpt lat="47.48898" lon="6.73674">
        <ele>383</ele>
        <time>2015-12-20T09:00:48.000Z</time>
      </trkpt>
      <trkpt lat="47.48899" lon="6.73679">
        <ele>383</ele>
        <time>2015-12-20T09:00:50.000Z</time>
      </trkpt>
      <trkpt lat="47.48899" lon="6.73682">
        <ele>383</ele>
        <time>2015-12-20T09:00:51.000Z</time>
      </trkpt>
      <trkpt lat="47.48901" lon="6.73686">
        <ele>384</ele>
        <time>2015-12-20T09:00:53.000Z</time>
      </trkpt>
      <trkpt lat="47.48902" lon="6.73688">
        <ele>384</ele>
        <time>2015-12-20T09:00:54.000Z</time>
      </trkpt>
      <trkpt lat="47.48903" lon="6.73693">
        <ele>384</ele>
        <time>2015-12-20T09:00:56.000Z</time>
      </trkpt>
      <trkpt lat="47.48904" lon="6.73695">
        <ele>384</ele>
        <time>2015-12-20T09:00:57.000Z</time>
      </trkpt>
      <trkpt lat="47.48906" lon="6.737">
        <ele>384</ele>
        <time>2015-12-20T09:00:59.000Z</time>
      </trkpt>
      <trkpt lat="47.48906" lon="6.73702">
        <ele>385</ele>
        <time>2015-12-20T09:01:00.000Z</time>
      </trkpt>
      <trkpt lat="47.48909" lon="6.73706">
        <ele>385</ele>
        <time>2015-12-20T09:01:02.000Z</time>
      </trkpt>
      <trkpt lat="47.4891" lon="6.73708">
        <ele>385</ele>
        <time>2015-12-20T09:01:03.000Z</time>
      </trkpt>
      <trkpt lat="47.48914" lon="6.7371">
        <ele>385</ele>
        <time>2015-12-20T09:01:06.000Z</time>
      </trkpt>
      <trkpt lat="47.48914" lon="6.73711">
        <ele>385</ele>
        <time>2015-12-20T09:01:07.000Z</time>
      </trkpt>
      <trkpt lat="47.48917" lon="6.73715">
        <ele>385</ele>
        <time>2015-12-20T09:01:10.000Z</time>
      </trkpt>
      <trkpt lat="47.48917" lon="6.73717">
        <ele>380</ele>
        <time>2015-12-20T09:01:11.000Z</time>
      </trkpt>
      <trkpt lat="47.48919" lon="6.73722">
        <ele>380</ele>
        <time>2015-12-20T09:01:13.000Z</time>
      </trkpt>
      <trkpt lat="47.4892" lon="6.73724">
        <ele>381</ele>
        <time>2015-12-20T09:01:14.000Z</time>
      </trkpt>
      <trkpt lat="47.48921" lon="6.73729">
        <ele>381</ele>
        <time>2015-12-20T09:01:16.000Z</time>
      </trkpt>
      <trkpt lat="47.48922" lon="6.73732">
        <ele>381</ele>
        <time>2015-12-20T09:01:17.000Z</time>
      </trkpt>
      <trkpt lat="47.48924" lon="6.73736">
        <ele>381</ele>
        <time>2015-12-20T09:01:19.000Z</time>
      </trkpt>
      <trkpt lat="47.48926" lon="6.73737">
        <ele>382</ele>
        <time>2015-12-20T09:01:20.000Z</time>
      </trkpt>
      <trkpt lat="47.48928" lon="6.73741">
        <ele>382</ele>
        <time>2015-12-20T09:01:22.000Z</time>
      </trkpt>
      <trkpt lat="47.48929" lon="6.73743">
        <ele>382</ele>
        <time>2015-12-20T09:01:23.000Z</time>
      </trkpt>
      <trkpt lat="47.48931" lon="6.73747">
        <ele>382</ele>
        <time>2015-12-20T09:01:25.000Z</time>
      </trkpt>
      <trkpt lat="47.48932" lon="6.73749">
        <ele>382</ele>
        <time>2015-12-20T09:01:26.000Z</time>
      </trkpt>
      <trkpt lat="47.48934" lon="6.73754">
        <ele>383</ele>
        <time>2015-12-20T09:01:28.000Z</time>
      </trkpt>
      <trkpt lat="47.48935" lon="6.73756">
        <ele>383</ele>
        <time>2015-12-20T09:01:29.000Z</time>
      </trkpt>
      <trkpt lat="47.48937" lon="6.73762">
        <ele>382</ele>
        <time>2015-12-20T09:01:32.000Z</time>
      </trkpt>
      <trkpt lat="47.48937" lon="6.73764">
        <ele>382</ele>
        <time>2015-12-20T09:01:33.000Z</time>
      </trkpt>
      <trkpt lat="47.48938" lon="6.73769">
        <ele>382</ele>
        <time>2015-12-20T09:01:36.000Z</time>
      </trkpt>
      <trkpt lat="47.48938" lon="6.7377">
        <ele>382</ele>
        <time>2015-12-20T09:01:37.000Z</time>
      </trkpt>
      <trkpt lat="47.48937" lon="6.73777">
        <ele>382</ele>
        <time>2015-12-20T09:01:40.000Z</time>
      </trkpt>
      <trkpt lat="47.48936" lon="6.73779">
        <ele>382</ele>
        <time>2015-12-20T09:01:41.000Z</time>
      </trkpt>
      <trkpt lat="47.48936" lon="6.73785">
        <ele>382</ele>
        <time>2015-12-20T09:01:44.000Z</time>
      </trkpt>
      <trkpt lat="47.48936" lon="6.73786">
        <ele>382</ele>
        <time>2015-12-20T09:01:45.000Z</time>
      </trkpt>
      <trkpt lat="47.48937" lon="6.73791">
        <ele>383</ele>
        <time>2015-12-20T09:01:48.000Z</time>
      </trkpt>
      <trkpt lat="47.48938" lon="6.73793">
        <ele>383</ele>
        <time>2015-12-20T09:01:49.000Z</time>
      </trkpt>
      <trkpt lat="47.48938" lon="6.73799">
        <ele>383</ele>
        <time>2015-12-20T09:01:51.000Z</time>
      </trkpt>
      <trkpt lat="47.48939" lon="6.73802">
        <ele>383</ele>
        <time>2015-12-20T09:01:52.000Z</time>
      </trkpt>
      <trkpt lat="47.48939" lon="6.73805">
        <ele>383</ele>
        <time>2015-12-20T09:01:53.000Z</time>
      </trkpt>
      <trkpt lat="47.4894" lon="6.73809">
        <ele>383</ele>
        <time>2015-12-20T09:01:54.000Z</time>
      </trkpt>
      <trkpt lat="47.4894" lon="6.73813">
        <ele>383</ele>
        <time>2015-12-20T09:01:55.000Z</time>
      </trkpt>
      <trkpt lat="47.48941" lon="6.73817">
        <ele>384</ele>
        <time>2015-12-20T09:01:56.000Z</time>
      </trkpt>
      <trkpt lat="47.48942" lon="6.73821">
        <ele>384</ele>
        <time>2015-12-20T09:01:57.000Z</time>
      </trkpt>
      <trkpt lat="47.48943" lon="6.73826">
        <ele>384</ele>
        <time>2015-12-20T09:01:58.000Z</time>
      </trkpt>
      <trkpt lat="47.48945" lon="6.7383">
        <ele>384</ele>
        <time>2015-12-20T09:01:59.000Z</time>
      </trkpt>
      <trkpt lat="47.48946" lon="6.73836">
        <ele>387</ele>
        <time>2015-12-20T09:02:00.000Z</time>
      </trkpt>
      <trkpt lat="47.48947" lon="6.73842">
        <ele>386</ele>
        <time>2015-12-20T09:02:01.000Z</time>
      </trkpt>
      <trkpt lat="47.48949" lon="6.73848">
        <ele>386</ele>
        <time>2015-12-20T09:02:02.000Z</time>
      </trkpt>
      <trkpt lat="47.4895" lon="6.73854">
        <ele>386</ele>
        <time>2015-12-20T09:02:03.000Z</time>
      </trkpt>
      <trkpt lat="47.4895" lon="6.73859">
        <ele>386</ele>
        <time>2015-12-20T09:02:04.000Z</time>
      </trkpt>
      <trkpt lat="47.4895" lon="6.73864">
        <ele>387</ele>
        <time>2015-12-20T09:02:05.000Z</time>
      </trkpt>
      <trkpt lat="47.4895" lon="6.73868">
        <ele>387</ele>
        <time>2015-12-20T09:02:06.000Z</time>
      </trkpt>
      <trkpt lat="47.48949" lon="6.73872">
        <ele>387</ele>
        <time>2015-12-20T09:02:07.000Z</time>
      </trkpt>
      <trkpt lat="47.48949" lon="6.73877">
        <ele>387</ele>
        <time>2015-12-20T09:02:08.000Z</time>
      </trkpt>
      <trkpt lat="47.48949" lon="6.73883">
        <ele>387</ele>
        <time>2015-12-20T09:02:09.000Z</time>
      </trkpt>
      <trkpt lat="47.48948" lon="6.73889">
        <ele>388</ele>
        <time>2015-12-20T09:02:10.000Z</time>
      </trkpt>
      <trkpt lat="47.48947" lon="6.73895">
        <ele>388</ele>
        <time>2015-12-20T09:02:11.000Z</time>
      </trkpt>
      <trkpt lat="47.48946" lon="6.73901">
        <ele>389</ele>
        <time>2015-12-20T09:02:12.000Z</time>
      </trkpt>
      <trkpt lat="47.48945" lon="6.73906">
        <ele>389</ele>
        <time>2015-12-20T09:02:13.000Z</time>
      </trkpt>
      <trkpt lat="47.48944" lon="6.73911">
        <ele>390</ele>
        <time>2015-12-20T09:02:14.000Z</time>
      </trkpt>
      <trkpt lat="47.48943" lon="6.73916">
        <ele>390</ele>
        <time>2015-12-20T09:02:15.000Z</time>
      </trkpt>
      <trkpt lat="47.48943" lon="6.73921">
        <ele>395</ele>
        <time>2015-12-20T09:02:16.000Z</time>
      </trkpt>
      <trkpt lat="47.48943" lon="6.73926">
        <ele>395</ele>
        <time>2015-12-20T09:02:17.000Z</time>
      </trkpt>
      <trkpt lat="47.48943" lon="6.73931">
        <ele>395</ele>
        <time>2015-12-20T09:02:18.000Z</time>
      </trkpt>
      <trkpt lat="47.48943" lon="6.73936">
        <ele>395</ele>
        <time>2015-12-20T09:02:19.000Z</time>
      </trkpt>
      <trkpt lat="47.48943" lon="6.73941">
        <ele>395</ele>
        <time>2015-12-20T09:02:20.000Z</time>
      </trkpt>
      <trkpt lat="47.48943" lon="6.73945">
        <ele>395</ele>
        <time>2015-12-20T09:02:21.000Z</time>
      </trkpt>
      <trkpt lat="47.48943" lon="6.7395">
        <ele>395</ele>
        <time>2015-12-20T09:02:22.000Z</time>
      </trkpt>
      <trkpt lat="47.48943" lon="6.73954">
        <ele>396</ele>
        <time>2015-12-20T09:02:23.000Z</time>
      </trkpt>
      <trkpt lat="47.48943" lon="6.73958">
        <ele>396</ele>
        <time>2015-12-20T09:02:24.000Z</time>
      </trkpt>
      <trkpt lat="47.48943" lon="6.73962">
        <ele>396</ele>
        <time>2015-12-20T09:02:25.000Z</time>
      </trkpt>
      <trkpt lat="47.48944" lon="6.73966">
        <ele>397</ele>
        <time>2015-12-20T09:02:26.000Z</time>
      </trkpt>
      <trkpt lat="47.48944" lon="6.7397">
        <ele>397</ele>
        <time>2015-12-20T09:02:27.000Z</time>
      </trkpt>
      <trkpt lat="47.48944" lon="6.73976">
        <ele>397</ele>
        <time>2015-12-20T09:02:29.000Z</time>
      </trkpt>
      <trkpt lat="47.48944" lon="6.73979">
        <ele>398</ele>
        <time>2015-12-20T09:02:30.000Z</time>
      </trkpt>
      <trkpt lat="47.48944" lon="6.73985">
        <ele>398</ele>
        <time>2015-12-20T09:02:32.000Z</time>
      </trkpt>
      <trkpt lat="47.48944" lon="6.73987">
        <ele>398</ele>
        <time>2015-12-20T09:02:33.000Z</time>
      </trkpt>
      <trkpt lat="47.48945" lon="6.73993">
        <ele>399</ele>
        <time>2015-12-20T09:02:35.000Z</time>
      </trkpt>
      <trkpt lat="47.48945" lon="6.73996">
        <ele>399</ele>
        <time>2015-12-20T09:02:36.000Z</time>
      </trkpt>
      <trkpt lat="47.48945" lon="6.74001">
        <ele>404</ele>
        <time>2015-12-20T09:02:38.000Z</time>
      </trkpt>
      <trkpt lat="47.48945" lon="6.74003">
        <ele>404</ele>
        <time>2015-12-20T09:02:39.000Z</time>
      </trkpt>
      <trkpt lat="47.48945" lon="6.74008">
        <ele>404</ele>
        <time>2015-12-20T09:02:41.000Z</time>
      </trkpt>
      <trkpt lat="47.48945" lon="6.7401">
        <ele>404</ele>
        <time>2015-12-20T09:02:42.000Z</time>
      </trkpt>
      <trkpt lat="47.48946" lon="6.74015">
        <ele>404</ele>
        <time>2015-12-20T09:02:44.000Z</time>
      </trkpt>
      <trkpt lat="47.48947" lon="6.74017">
        <ele>404</ele>
        <time>2015-12-20T09:02:45.000Z</time>
      </trkpt>
      <trkpt lat="47.48947" lon="6.74022">
        <ele>404</ele>
        <time>2015-12-20T09:02:47.000Z</time>
      </trkpt>
      <trkpt lat="47.48947" lon="6.74024">
        <ele>404</ele>
        <time>2015-12-20T09:02:48.000Z</time>
      </trkpt>
      <trkpt lat="47.48947" lon="6.74031">
        <ele>404</ele>
        <time>2015-12-20T09:02:51.000Z</time>
      </trkpt>
      <trkpt lat="47.48947" lon="6.74032">
        <ele>404</ele>
        <time>2015-12-20T09:02:52.000Z</time>
      </trkpt>
      <trkpt lat="47.48946" lon="6.74038">
        <ele>404</ele>
        <time>2015-12-20T09:02:56.000Z</time>
      </trkpt>
      <trkpt lat="47.48945" lon="6.7404">
        <ele>404</ele>
        <time>2015-12-20T09:02:57.000Z</time>
      </trkpt>
      <trkpt lat="47.48942" lon="6.74045">
        <ele>405</ele>
        <time>2015-12-20T09:03:00.000Z</time>
      </trkpt>
      <trkpt lat="47.48941" lon="6.74047">
        <ele>405</ele>
        <time>2015-12-20T09:03:01.000Z</time>
      </trkpt>
      <trkpt lat="47.4894" lon="6.74053">
        <ele>406</ele>
        <time>2015-12-20T09:03:05.000Z</time>
      </trkpt>
      <trkpt lat="47.48939" lon="6.74054">
        <ele>406</ele>
        <time>2015-12-20T09:03:06.000Z</time>
      </trkpt>
      <trkpt lat="47.48937" lon="6.74059">
        <ele>407</ele>
        <time>2015-12-20T09:03:10.000Z</time>
      </trkpt>
      <trkpt lat="47.48937" lon="6.74061">
        <ele>407</ele>
        <time>2015-12-20T09:03:11.000Z</time>
      </trkpt>
      <trkpt lat="47.48937" lon="6.74066">
        <ele>407</ele>
        <time>2015-12-20T09:03:14.000Z</time>
      </trkpt>
      <trkpt lat="47.48936" lon="6.74068">
        <ele>408</ele>
        <time>2015-12-20T09:03:15.000Z</time>
      </trkpt>
      <trkpt lat="47.48935" lon="6.74073">
        <ele>408</ele>
        <time>2015-12-20T09:03:18.000Z</time>
      </trkpt>
      <trkpt lat="47.48935" lon="6.74075">
        <ele>409</ele>
        <time>2015-12-20T09:03:19.000Z</time>
      </trkpt>
      <trkpt lat="47.48936" lon="6.74081">
        <ele>409</ele>
        <time>2015-12-20T09:03:23.000Z</time>
      </trkpt>
      <trkpt lat="47.48936" lon="6.74082">
        <ele>409</ele>
        <time>2015-12-20T09:03:24.000Z</time>
      </trkpt>
      <trkpt lat="47.48936" lon="6.74088">
        <ele>412</ele>
        <time>2015-12-20T09:03:31.000Z</time>
      </trkpt>
      <trkpt lat="47.48936" lon="6.7409">
        <ele>412</ele>
        <time>2015-12-20T09:03:32.000Z</time>
      </trkpt>
      <trkpt lat="47.48934" lon="6.74094">
        <ele>412</ele>
        <time>2015-12-20T09:03:37.000Z</time>
      </trkpt>
      <trkpt lat="47.48934" lon="6.74095">
        <ele>412</ele>
        <time>2015-12-20T09:03:38.000Z</time>
      </trkpt>
      <trkpt lat="47.48933" lon="6.74101">
        <ele>412</ele>
        <time>2015-12-20T09:03:48.000Z</time>
      </trkpt>
      <trkpt lat="47.48932" lon="6.74102">
        <ele>412</ele>
        <time>2015-12-20T09:03:49.000Z</time>
      </trkpt>
      <trkpt lat="47.48928" lon="6.74105">
        <ele>412</ele>
        <time>2015-12-20T09:03:55.000Z</time>
      </trkpt>
      <trkpt lat="47.48928" lon="6.74105">
        <ele>412</ele>
        <time>2015-12-20T09:03:56.000Z</time>
      </trkpt>
      <trkpt lat="47.48927" lon="6.74111">
        <ele>412</ele>
        <time>2015-12-20T09:04:03.000Z</time>
      </trkpt>
      <trkpt lat="47.48927" lon="6.74112">
        <ele>412</ele>
        <time>2015-12-20T09:04:04.000Z</time>
      </trkpt>
      <trkpt lat="47.48926" lon="6.74117">
        <ele>412</ele>
        <time>2015-12-20T09:04:07.000Z</time>
      </trkpt>
      <trkpt lat="47.48925" lon="6.74119">
        <ele>412</ele>
        <time>2015-12-20T09:04:08.000Z</time>
      </trkpt>
      <trkpt lat="47.48925" lon="6.74125">
        <ele>412</ele>
        <time>2015-12-20T09:04:11.000Z</time>
      </trkpt>
      <trkpt lat="47.48925" lon="6.74126">
        <ele>412</ele>
        <time>2015-12-20T09:04:12.000Z</time>
      </trkpt>
      <trkpt lat="47.48925" lon="6.74132">
        <ele>412</ele>
        <time>2015-12-20T09:04:17.000Z</time>
      </trkpt>
      <trkpt lat="47.48925" lon="6.74133">
        <ele>412</ele>
        <time>2015-12-20T09:04:18.000Z</time>
      </trkpt>
      <trkpt lat="47.48923" lon="6.74139">
        <ele>413</ele>
        <time>2015-12-20T09:04:24.000Z</time>
      </trkpt>
      <trkpt lat="47.48923" lon="6.74139">
        <ele>413</ele>
        <time>2015-12-20T09:04:25.000Z</time>
      </trkpt>
      <trkpt lat="47.48919" lon="6.74143">
        <ele>414</ele>
        <time>2015-12-20T09:04:32.000Z</time>
      </trkpt>
      <trkpt lat="47.48919" lon="6.74145">
        <ele>414</ele>
        <time>2015-12-20T09:04:33.000Z</time>
      </trkpt>
      <trkpt lat="47.48917" lon="6.7415">
        <ele>415</ele>
        <time>2015-12-20T09:04:43.000Z</time>
      </trkpt>
      <trkpt lat="47.48917" lon="6.74152">
        <ele>415</ele>
        <time>2015-12-20T09:04:44.000Z</time>
      </trkpt>
      <trkpt lat="47.48916" lon="6.74156">
        <ele>422</ele>
        <time>2015-12-20T09:04:47.000Z</time>
      </trkpt>
      <trkpt lat="47.48916" lon="6.74158">
        <ele>422</ele>
        <time>2015-12-20T09:04:48.000Z</time>
      </trkpt>
      <trkpt lat="47.48916" lon="6.74165">
        <ele>421</ele>
        <time>2015-12-20T09:04:51.000Z</time>
      </trkpt>
      <trkpt lat="47.48915" lon="6.74167">
        <ele>421</ele>
        <time>2015-12-20T09:04:52.000Z</time>
      </trkpt>
      <trkpt lat="47.48915" lon="6.74172">
        <ele>422</ele>
        <time>2015-12-20T09:04:55.000Z</time>
      </trkpt>
      <trkpt lat="47.48915" lon="6.74174">
        <ele>422</ele>
        <time>2015-12-20T09:04:56.000Z</time>
      </trkpt>
      <trkpt lat="47.48916" lon="6.74179">
        <ele>424</ele>
        <time>2015-12-20T09:04:59.000Z</time>
      </trkpt>
      <trkpt lat="47.48916" lon="6.74181">
        <ele>424</ele>
        <time>2015-12-20T09:05:00.000Z</time>
      </trkpt>
      <trkpt lat="47.48914" lon="6.74186">
        <ele>425</ele>
        <time>2015-12-20T09:05:03.000Z</time>
      </trkpt>
      <trkpt lat="47.48913" lon="6.74188">
        <ele>425</ele>
        <time>2015-12-20T09:05:04.000Z</time>
      </trkpt>
      <trkpt lat="47.48912" lon="6.74194">
        <ele>426</ele>
        <time>2015-12-20T09:05:07.000Z</time>
      </trkpt>
      <trkpt lat="47.48911" lon="6.74195">
        <ele>426</ele>
        <time>2015-12-20T09:05:08.000Z</time>
      </trkpt>
      <trkpt lat="47.4891" lon="6.742">
        <ele>426</ele>
        <time>2015-12-20T09:05:11.000Z</time>
      </trkpt>
      <trkpt lat="47.48909" lon="6.74202">
        <ele>427</ele>
        <time>2015-12-20T09:05:12.000Z</time>
      </trkpt>
      <trkpt lat="47.48907" lon="6.74205">
        <ele>427</ele>
        <time>2015-12-20T09:05:14.000Z</time>
      </trkpt>
      <trkpt lat="47.48906" lon="6.74207">
        <ele>427</ele>
        <time>2015-12-20T09:05:15.000Z</time>
      </trkpt>
      <trkpt lat="47.48904" lon="6.74213">
        <ele>427</ele>
        <time>2015-12-20T09:05:18.000Z</time>
      </trkpt>
      <trkpt lat="47.48904" lon="6.74215">
        <ele>427</ele>
        <time>2015-12-20T09:05:19.000Z</time>
      </trkpt>
      <trkpt lat="47.48904" lon="6.74221">
        <ele>427</ele>
        <time>2015-12-20T09:05:22.000Z</time>
      </trkpt>
      <trkpt lat="47.48903" lon="6.74223">
        <ele>427</ele>
        <time>2015-12-20T09:05:23.000Z</time>
      </trkpt>
      <trkpt lat="47.48903" lon="6.74229">
        <ele>426</ele>
        <time>2015-12-20T09:05:27.000Z</time>
      </trkpt>
      <trkpt lat="47.48904" lon="6.74231">
        <ele>426</ele>
        <time>2015-12-20T09:05:28.000Z</time>
      </trkpt>
      <trkpt lat="47.48903" lon="6.74236">
        <ele>426</ele>
        <time>2015-12-20T09:05:32.000Z</time>
      </trkpt>
      <trkpt lat="47.48902" lon="6.74237">
        <ele>426</ele>
        <time>2015-12-20T09:05:33.000Z</time>
      </trkpt>
      <trkpt lat="47.48899" lon="6.74241">
        <ele>426</ele>
        <time>2015-12-20T09:05:37.000Z</time>
      </trkpt>
      <trkpt lat="47.48899" lon="6.74242">
        <ele>426</ele>
        <time>2015-12-20T09:05:38.000Z</time>
      </trkpt>
      <trkpt lat="47.48899" lon="6.74248">
        <ele>426</ele>
        <time>2015-12-20T09:05:42.000Z</time>
      </trkpt>
      <trkpt lat="47.48898" lon="6.74249">
        <ele>426</ele>
        <time>2015-12-20T09:05:43.000Z</time>
      </trkpt>
      <trkpt lat="47.48895" lon="6.74253">
        <ele>428</ele>
        <time>2015-12-20T09:05:46.000Z</time>
      </trkpt>
      <trkpt lat="47.48893" lon="6.74254">
        <ele>428</ele>
        <time>2015-12-20T09:05:47.000Z</time>
      </trkpt>
      <trkpt lat="47.48891" lon="6.74258">
        <ele>429</ele>
        <time>2015-12-20T09:05:50.000Z</time>
      </trkpt>
      <trkpt lat="47.4889" lon="6.74259">
        <ele>429</ele>
        <time>2015-12-20T09:05:51.000Z</time>
      </trkpt>
      <trkpt lat="47.48887" lon="6.74263">
        <ele>430</ele>
        <time>2015-12-20T09:05:57.000Z</time>
      </trkpt>
      <trkpt lat="47.48886" lon="6.74263">
        <ele>430</ele>
        <time>2015-12-20T09:05:58.000Z</time>
      </trkpt>
      <trkpt lat="47.48882" lon="6.74264">
        <ele>431</ele>
        <time>2015-12-20T09:06:01.000Z</time>
      </trkpt>
      <trkpt lat="47.48881" lon="6.74264">
        <ele>431</ele>
        <time>2015-12-20T09:06:02.000Z</time>
      </trkpt>
      <trkpt lat="47.48877" lon="6.74264">
        <ele>431</ele>
        <time>2015-12-20T09:06:07.000Z</time>
      </trkpt>
      <trkpt lat="47.48876" lon="6.74264">
        <ele>432</ele>
        <time>2015-12-20T09:06:08.000Z</time>
      </trkpt>
      <trkpt lat="47.48873" lon="6.74268">
        <ele>432</ele>
        <time>2015-12-20T09:06:14.000Z</time>
      </trkpt>
      <trkpt lat="47.48872" lon="6.74268">
        <ele>432</ele>
        <time>2015-12-20T09:06:15.000Z</time>
      </trkpt>
      <trkpt lat="47.48868" lon="6.74271">
        <ele>433</ele>
        <time>2015-12-20T09:06:22.000Z</time>
      </trkpt>
      <trkpt lat="47.48868" lon="6.74271">
        <ele>433</ele>
        <time>2015-12-20T09:06:23.000Z</time>
      </trkpt>
      <trkpt lat="47.48864" lon="6.74272">
        <ele>433</ele>
        <time>2015-12-20T09:06:32.000Z</time>
      </trkpt>
      <trkpt lat="47.48862" lon="6.74272">
        <ele>434</ele>
        <time>2015-12-20T09:06:33.000Z</time>
      </trkpt>
      <trkpt lat="47.48858" lon="6.74273">
        <ele>434</ele>
        <time>2015-12-20T09:06:35.000Z</time>
      </trkpt>
      <trkpt lat="47.48856" lon="6.74274">
        <ele>434</ele>
        <time>2015-12-20T09:06:36.000Z</time>
      </trkpt>
      <trkpt lat="47.48853" lon="6.74275">
        <ele>435</ele>
        <time>2015-12-20T09:06:38.000Z</time>
      </trkpt>
      <trkpt lat="47.48852" lon="6.74276">
        <ele>435</ele>
        <time>2015-12-20T09:06:39.000Z</time>
      </trkpt>
      <trkpt lat="47.48849" lon="6.7428">
        <ele>435</ele>
        <time>2015-12-20T09:06:41.000Z</time>
      </trkpt>
      <trkpt lat="47.48848" lon="6.74282">
        <ele>435</ele>
        <time>2015-12-20T09:06:42.000Z</time>
      </trkpt>
      <trkpt lat="47.48845" lon="6.74286">
        <ele>435</ele>
        <time>2015-12-20T09:06:46.000Z</time>
      </trkpt>
      <trkpt lat="47.48844" lon="6.74286">
        <ele>435</ele>
        <time>2015-12-20T09:06:47.000Z</time>
      </trkpt>
      <trkpt lat="47.48841" lon="6.7429">
        <ele>435</ele>
        <time>2015-12-20T09:07:00.000Z</time>
      </trkpt>
      <trkpt lat="47.4884" lon="6.7429">
        <ele>435</ele>
        <time>2015-12-20T09:07:01.000Z</time>
      </trkpt>
      <trkpt lat="47.48837" lon="6.74291">
        <ele>436</ele>
        <time>2015-12-20T09:07:05.000Z</time>
      </trkpt>
      <trkpt lat="47.48836" lon="6.74292">
        <ele>436</ele>
        <time>2015-12-20T09:07:06.000Z</time>
      </trkpt>
      <trkpt lat="47.48832" lon="6.74294">
        <ele>444</ele>
        <time>2015-12-20T09:07:10.000Z</time>
      </trkpt>
      <trkpt lat="47.48831" lon="6.74294">
        <ele>444</ele>
        <time>2015-12-20T09:07:11.000Z</time>
      </trkpt>
      <trkpt lat="47.48827" lon="6.74295">
        <ele>444</ele>
        <time>2015-12-20T09:07:16.000Z</time>
      </trkpt>
      <trkpt lat="47.48826" lon="6.74295">
        <ele>444</ele>
        <time>2015-12-20T09:07:17.000Z</time>
      </trkpt>
      <trkpt lat="47.48822" lon="6.74295">
        <ele>444</ele>
        <time>2015-12-20T09:07:27.000Z</time>
      </trkpt>
      <trkpt lat="47.48822" lon="6.74295">
        <ele>444</ele>
        <time>2015-12-20T09:07:28.000Z</time>
      </trkpt>
      <trkpt lat="47.48818" lon="6.74297">
        <ele>444</ele>
        <time>2015-12-20T09:07:35.000Z</time>
      </trkpt>
      <trkpt lat="47.48816" lon="6.74298">
        <ele>444</ele>
        <time>2015-12-20T09:07:36.000Z</time>
      </trkpt>
      <trkpt lat="47.48813" lon="6.74302">
        <ele>444</ele>
        <time>2015-12-20T09:07:39.000Z</time>
      </trkpt>
      <trkpt lat="47.48811" lon="6.74302">
        <ele>444</ele>
        <time>2015-12-20T09:07:40.000Z</time>
      </trkpt>
      <trkpt lat="47.48808" lon="6.74306">
        <ele>444</ele>
        <time>2015-12-20T09:07:46.000Z</time>
      </trkpt>
      <trkpt lat="47.48807" lon="6.74306">
        <ele>444</ele>
        <time>2015-12-20T09:07:47.000Z</time>
      </trkpt>
      <trkpt lat="47.48805" lon="6.74311">
        <ele>444</ele>
        <time>2015-12-20T09:07:51.000Z</time>
      </trkpt>
      <trkpt lat="47.48805" lon="6.74312">
        <ele>444</ele>
        <time>2015-12-20T09:07:52.000Z</time>
      </trkpt>
      <trkpt lat="47.48804" lon="6.74318">
        <ele>444</ele>
        <time>2015-12-20T09:07:56.000Z</time>
      </trkpt>
      <trkpt lat="47.48805" lon="6.74319">
        <ele>444</ele>
        <time>2015-12-20T09:07:57.000Z</time>
      </trkpt>
      <trkpt lat="47.48804" lon="6.74324">
        <ele>444</ele>
        <time>2015-12-20T09:08:00.000Z</time>
      </trkpt>
      <trkpt lat="47.48803" lon="6.74326">
        <ele>444</ele>
        <time>2015-12-20T09:08:01.000Z</time>
      </trkpt>
      <trkpt lat="47.48804" lon="6.74332">
        <ele>444</ele>
        <time>2015-12-20T09:08:05.000Z</time>
      </trkpt>
      <trkpt lat="47.48805" lon="6.74334">
        <ele>446</ele>
        <time>2015-12-20T09:08:06.000Z</time>
      </trkpt>
      <trkpt lat="47.48805" lon="6.74339">
        <ele>446</ele>
        <time>2015-12-20T09:08:09.000Z</time>
      </trkpt>
      <trkpt lat="47.48805" lon="6.74341">
        <ele>446</ele>
        <time>2015-12-20T09:08:10.000Z</time>
      </trkpt>
      <trkpt lat="47.48806" lon="6.74347">
        <ele>446</ele>
        <time>2015-12-20T09:08:13.000Z</time>
      </trkpt>
      <trkpt lat="47.48806" lon="6.74349">
        <ele>446</ele>
        <time>2015-12-20T09:08:14.000Z</time>
      </trkpt>
      <trkpt lat="47.48807" lon="6.74354">
        <ele>446</ele>
        <time>2015-12-20T09:08:17.000Z</time>
      </trkpt>
      <trkpt lat="47.48808" lon="6.74356">
        <ele>446</ele>
        <time>2015-12-20T09:08:18.000Z</time>
      </trkpt>
      <trkpt lat="47.48809" lon="6.74361">
        <ele>446</ele>
        <time>2015-12-20T09:08:21.000Z</time>
      </trkpt>
      <trkpt lat="47.48809" lon="6.74364">
        <ele>447</ele>
        <time>2015-12-20T09:08:22.000Z</time>
      </trkpt>
      <trkpt lat="47.48809" lon="6.7437">
        <ele>447</ele>
        <time>2015-12-20T09:08:25.000Z</time>
      </trkpt>
      <trkpt lat="47.48808" lon="6.74372">
        <ele>447</ele>
        <time>2015-12-20T09:08:26.000Z</time>
      </trkpt>
      <trkpt lat="47.48808" lon="6.74377">
        <ele>447</ele>
        <time>2015-12-20T09:08:29.000Z</time>
      </trkpt>
      <trkpt lat="47.48808" lon="6.74378">
        <ele>447</ele>
        <time>2015-12-20T09:08:30.000Z</time>
      </trkpt>
      <trkpt lat="47.48809" lon="6.74384">
        <ele>447</ele>
        <time>2015-12-20T09:08:33.000Z</time>
      </trkpt>
      <trkpt lat="47.48809" lon="6.74386">
        <ele>447</ele>
        <time>2015-12-20T09:08:34.000Z</time>
      </trkpt>
      <trkpt lat="47.48808" lon="6.7439">
        <ele>447</ele>
        <time>2015-12-20T09:08:36.000Z</time>
      </trkpt>
      <trkpt lat="47.48807" lon="6.74392">
        <ele>447</ele>
        <time>2015-12-20T09:08:37.000Z</time>
      </trkpt>
      <trkpt lat="47.48806" lon="6.74397">
        <ele>447</ele>
        <time>2015-12-20T09:08:40.000Z</time>
      </trkpt>
      <trkpt lat="47.48806" lon="6.74399">
        <ele>447</ele>
        <time>2015-12-20T09:08:41.000Z</time>
      </trkpt>
      <trkpt lat="47.48807" lon="6.74403">
        <ele>447</ele>
        <time>2015-12-20T09:08:43.000Z</time>
      </trkpt>
      <trkpt lat="47.48807" lon="6.74406">
        <ele>447</ele>
        <time>2015-12-20T09:08:44.000Z</time>
      </trkpt>
      <trkpt lat="47.48807" lon="6.7441">
        <ele>447</ele>
        <time>2015-12-20T09:08:46.000Z</time>
      </trkpt>
      <trkpt lat="47.48807" lon="6.74413">
        <ele>447</ele>
        <time>2015-12-20T09:08:47.000Z</time>
      </trkpt>
      <trkpt lat="47.48807" lon="6.74419">
        <ele>448</ele>
        <time>2015-12-20T09:08:50.000Z</time>
      </trkpt>
      <trkpt lat="47.48807" lon="6.74421">
        <ele>448</ele>
        <time>2015-12-20T09:08:51.000Z</time>
      </trkpt>
      <trkpt lat="47.48808" lon="6.74426">
        <ele>448</ele>
        <time>2015-12-20T09:08:53.000Z</time>
      </trkpt>
      <trkpt lat="47.48808" lon="6.74428">
        <ele>448</ele>
        <time>2015-12-20T09:08:54.000Z</time>
      </trkpt>
      <trkpt lat="47.48808" lon="6.74434">
        <ele>448</ele>
        <time>2015-12-20T09:08:57.000Z</time>
      </trkpt>
      <trkpt lat="47.48808" lon="6.74436">
        <ele>448</ele>
        <time>2015-12-20T09:08:58.000Z</time>
      </trkpt>
      <trkpt lat="47.48808" lon="6.74442">
        <ele>448</ele>
        <time>2015-12-20T09:09:01.000Z</time>
      </trkpt>
      <trkpt lat="47.48808" lon="6.74444">
        <ele>449</ele>
        <time>2015-12-20T09:09:02.000Z</time>
      </trkpt>
      <trkpt lat="47.48807" lon="6.7445">
        <ele>449</ele>
        <time>2015-12-20T09:09:05.000Z</time>
      </trkpt>
      <trkpt lat="47.48807" lon="6.74452">
        <ele>449</ele>
        <time>2015-12-20T09:09:06.000Z</time>
      </trkpt>
      <trkpt lat="47.48805" lon="6.74457">
        <ele>449</ele>
        <time>2015-12-20T09:09:09.000Z</time>
      </trkpt>
      <trkpt lat="47.48805" lon="6.74459">
        <ele>449</ele>
        <time>2015-12-20T09:09:10.000Z</time>
      </trkpt>
      <trkpt lat="47.48804" lon="6.74464">
        <ele>449</ele>
        <time>2015-12-20T09:09:13.000Z</time>
      </trkpt>
      <trkpt lat="47.48803" lon="6.74466">
        <ele>449</ele>
        <time>2015-12-20T09:09:14.000Z</time>
      </trkpt>
      <trkpt lat="47.48802" lon="6.74471">
        <ele>449</ele>
        <time>2015-12-20T09:09:18.000Z</time>
      </trkpt>
      <trkpt lat="47.48802" lon="6.74473">
        <ele>449</ele>
        <time>2015-12-20T09:09:19.000Z</time>
      </trkpt>
      <trkpt lat="47.48801" lon="6.74477">
        <ele>449</ele>
        <time>2015-12-20T09:09:21.000Z</time>
      </trkpt>
      <trkpt lat="47.48801" lon="6.74479">
        <ele>449</ele>
        <time>2015-12-20T09:09:22.000Z</time>
      </trkpt>
      <trkpt lat="47.48799" lon="6.74484">
        <ele>449</ele>
        <time>2015-12-20T09:09:24.000Z</time>
      </trkpt>
      <trkpt lat="47.48799" lon="6.74485">
        <ele>449</ele>
        <time>2015-12-20T09:09:25.000Z</time>
      </trkpt>
      <trkpt lat="47.48797" lon="6.7449">
        <ele>449</ele>
        <time>2015-12-20T09:09:28.000Z</time>
      </trkpt>
      <trkpt lat="47.48797" lon="6.74492">
        <ele>449</ele>
        <time>2015-12-20T09:09:29.000Z</time>
      </trkpt>
      <trkpt lat="47.48796" lon="6.74496">
        <ele>449</ele>
        <time>2015-12-20T09:09:31.000Z</time>
      </trkpt>
      <trkpt lat="47.48795" lon="6.74498">
        <ele>449</ele>
        <time>2015-12-20T09:09:32.000Z</time>
      </trkpt>
      <trkpt lat="47.48792" lon="6.74504">
        <ele>450</ele>
        <time>2015-12-20T09:09:35.000Z</time>
      </trkpt>
      <trkpt lat="47.48792" lon="6.74506">
        <ele>450</ele>
        <time>2015-12-20T09:09:36.000Z</time>
      </trkpt>
      <trkpt lat="47.4879" lon="6.7451">
        <ele>450</ele>
        <time>2015-12-20T09:09:38.000Z</time>
      </trkpt>
      <trkpt lat="47.4879" lon="6.74513">
        <ele>450</ele>
        <time>2015-12-20T09:09:39.000Z</time>
      </trkpt>
      <trkpt lat="47.4879" lon="6.74517">
        <ele>450</ele>
        <time>2015-12-20T09:09:41.000Z</time>
      </trkpt>
      <trkpt lat="47.4879" lon="6.7452">
        <ele>450</ele>
        <time>2015-12-20T09:09:42.000Z</time>
      </trkpt>
      <trkpt lat="47.48789" lon="6.74525">
        <ele>450</ele>
        <time>2015-12-20T09:09:44.000Z</time>
      </trkpt>
      <trkpt lat="47.48789" lon="6.74527">
        <ele>451</ele>
        <time>2015-12-20T09:09:44.998Z</time>
      </trkpt>
      <trkpt lat="47.48788" lon="6.74533">
        <ele>451</ele>
        <time>2015-12-20T09:09:47.000Z</time>
      </trkpt>
      <trkpt lat="47.48788" lon="6.74536">
        <ele>451</ele>
        <time>2015-12-20T09:09:48.000Z</time>
      </trkpt>
      <trkpt lat="47.48788" lon="6.74541">
        <ele>451</ele>
        <time>2015-12-20T09:09:50.000Z</time>
      </trkpt>
      <trkpt lat="47.48788" lon="6.74542">
        <ele>451</ele>
        <time>2015-12-20T09:09:51.000Z</time>
      </trkpt>
      <trkpt lat="47.48789" lon="6.74548">
        <ele>451</ele>
        <time>2015-12-20T09:09:54.000Z</time>
      </trkpt>
      <trkpt lat="47.48789" lon="6.7455">
        <ele>451</ele>
        <time>2015-12-20T09:09:55.000Z</time>
      </trkpt>
      <trkpt lat="47.48788" lon="6.74554">
        <ele>451</ele>
        <time>2015-12-20T09:09:57.000Z</time>
      </trkpt>
      <trkpt lat="47.48788" lon="6.74556">
        <ele>451</ele>
        <time>2015-12-20T09:09:58.000Z</time>
      </trkpt>
      <trkpt lat="47.48788" lon="6.74561">
        <ele>451</ele>
        <time>2015-12-20T09:10:00.000Z</time>
      </trkpt>
      <trkpt lat="47.48788" lon="6.74563">
        <ele>451</ele>
        <time>2015-12-20T09:10:01.000Z</time>
      </trkpt>
      <trkpt lat="47.48788" lon="6.74568">
        <ele>451</ele>
        <time>2015-12-20T09:10:03.000Z</time>
      </trkpt>
      <trkpt lat="47.48788" lon="6.74571">
        <ele>451</ele>
        <time>2015-12-20T09:10:04.000Z</time>
      </trkpt>
      <trkpt lat="47.48788" lon="6.74576">
        <ele>451</ele>
        <time>2015-12-20T09:10:06.000Z</time>
      </trkpt>
      <trkpt lat="47.48788" lon="6.74578">
        <ele>451</ele>
        <time>2015-12-20T09:10:07.000Z</time>
      </trkpt>
      <trkpt lat="47.48788" lon="6.74583">
        <ele>451</ele>
        <time>2015-12-20T09:10:09.000Z</time>
      </trkpt>
      <trkpt lat="47.48787" lon="6.74586">
        <ele>452</ele>
        <time>2015-12-20T09:10:10.000Z</time>
      </trkpt>
      <trkpt lat="47.48787" lon="6.74591">
        <ele>452</ele>
        <time>2015-12-20T09:10:12.000Z</time>
      </trkpt>
      <trkpt lat="47.48786" lon="6.74594">
        <ele>452</ele>
        <time>2015-12-20T09:10:13.000Z</time>
      </trkpt>
      <trkpt lat="47.48786" lon="6.74599">
        <ele>452</ele>
        <time>2015-12-20T09:10:15.000Z</time>
      </trkpt>
      <trkpt lat="47.48785" lon="6.74601">
        <ele>452</ele>
        <time>2015-12-20T09:10:16.000Z</time>
      </trkpt>
      <trkpt lat="47.48785" lon="6.74606">
        <ele>452</ele>
        <time>2015-12-20T09:10:18.000Z</time>
      </trkpt>
      <trkpt lat="47.48785" lon="6.74609">
        <ele>452</ele>
        <time>2015-12-20T09:10:19.000Z</time>
      </trkpt>
      <trkpt lat="47.48785" lon="6.74614">
        <ele>453</ele>
        <time>2015-12-20T09:10:21.000Z</time>
      </trkpt>
      <trkpt lat="47.48785" lon="6.74616">
        <ele>453</ele>
        <time>2015-12-20T09:10:22.000Z</time>
      </trkpt>
      <trkpt lat="47.48786" lon="6.74621">
        <ele>452</ele>
        <time>2015-12-20T09:10:24.000Z</time>
      </trkpt>
      <trkpt lat="47.48787" lon="6.74623">
        <ele>452</ele>
        <time>2015-12-20T09:10:25.000Z</time>
      </trkpt>
      <trkpt lat="47.48787" lon="6.74628">
        <ele>453</ele>
        <time>2015-12-20T09:10:27.000Z</time>
      </trkpt>
      <trkpt lat="47.48787" lon="6.74631">
        <ele>453</ele>
        <time>2015-12-20T09:10:28.000Z</time>
      </trkpt>
      <trkpt lat="47.48787" lon="6.74636">
        <ele>453</ele>
        <time>2015-12-20T09:10:30.000Z</time>
      </trkpt>
      <trkpt lat="47.48787" lon="6.7464">
        <ele>453</ele>
        <time>2015-12-20T09:10:31.000Z</time>
      </trkpt>
      <trkpt lat="47.48786" lon="6.74643">
        <ele>453</ele>
        <time>2015-12-20T09:10:32.000Z</time>
      </trkpt>
      <trkpt lat="47.48786" lon="6.74646">
        <ele>453</ele>
        <time>2015-12-20T09:10:33.000Z</time>
      </trkpt>
      <trkpt lat="47.48785" lon="6.74653">
        <ele>453</ele>
        <time>2015-12-20T09:10:35.000Z</time>
      </trkpt>
      <trkpt lat="47.48785" lon="6.74655">
        <ele>453</ele>
        <time>2015-12-20T09:10:36.001Z</time>
      </trkpt>
      <trkpt lat="47.48784" lon="6.74661">
        <ele>453</ele>
        <time>2015-12-20T09:10:38.000Z</time>
      </trkpt>
      <trkpt lat="47.48784" lon="6.74664">
        <ele>453</ele>
        <time>2015-12-20T09:10:39.000Z</time>
      </trkpt>
      <trkpt lat="47.48785" lon="6.7467">
        <ele>454</ele>
        <time>2015-12-20T09:10:41.000Z</time>
      </trkpt>
      <trkpt lat="47.48786" lon="6.74673">
        <ele>454</ele>
        <time>2015-12-20T09:10:42.000Z</time>
      </trkpt>
      <trkpt lat="47.48786" lon="6.74679">
        <ele>454</ele>
        <time>2015-12-20T09:10:44.000Z</time>
      </trkpt>
      <trkpt lat="47.48786" lon="6.74682">
        <ele>454</ele>
        <time>2015-12-20T09:10:45.000Z</time>
      </trkpt>
      <trkpt lat="47.48785" lon="6.74688">
        <ele>454</ele>
        <time>2015-12-20T09:10:47.000Z</time>
      </trkpt>
      <trkpt lat="47.48784" lon="6.74691">
        <ele>454</ele>
        <time>2015-12-20T09:10:48.000Z</time>
      </trkpt>
      <trkpt lat="47.48782" lon="6.74697">
        <ele>454</ele>
        <time>2015-12-20T09:10:49.999Z</time>
      </trkpt>
      <trkpt lat="47.48782" lon="6.747">
        <ele>454</ele>
        <time>2015-12-20T09:10:51.000Z</time>
      </trkpt>
      <trkpt lat="47.48783" lon="6.74705">
        <ele>454</ele>
        <time>2015-12-20T09:10:53.000Z</time>
      </trkpt>
      <trkpt lat="47.48783" lon="6.74708">
        <ele>454</ele>
        <time>2015-12-20T09:10:54.000Z</time>
      </trkpt>
      <trkpt lat="47.48783" lon="6.74714">
        <ele>454</ele>
        <time>2015-12-20T09:10:56.000Z</time>
      </trkpt>
      <trkpt lat="47.48782" lon="6.74717">
        <ele>454</ele>
        <time>2015-12-20T09:10:57.000Z</time>
      </trkpt>
      <trkpt lat="47.48783" lon="6.74723">
        <ele>455</ele>
        <time>2015-12-20T09:10:59.000Z</time>
      </trkpt>
      <trkpt lat="47.48784" lon="6.74726">
        <ele>455</ele>
        <time>2015-12-20T09:11:00.000Z</time>
      </trkpt>
      <trkpt lat="47.48784" lon="6.7473">
        <ele>455</ele>
        <time>2015-12-20T09:11:01.000Z</time>
      </trkpt>
      <trkpt lat="47.48784" lon="6.74734">
        <ele>455</ele>
        <time>2015-12-20T09:11:02.000Z</time>
      </trkpt>
      <trkpt lat="47.48785" lon="6.74738">
        <ele>455</ele>
        <time>2015-12-20T09:11:03.001Z</time>
      </trkpt>
      <trkpt lat="47.48784" lon="6.74743">
        <ele>455</ele>
        <time>2015-12-20T09:11:04.000Z</time>
      </trkpt>
      <trkpt lat="47.48784" lon="6.74747">
        <ele>455</ele>
        <time>2015-12-20T09:11:05.000Z</time>
      </trkpt>
      <trkpt lat="47.48785" lon="6.74751">
        <ele>456</ele>
        <time>2015-12-20T09:11:06.000Z</time>
      </trkpt>
      <trkpt lat="47.48786" lon="6.74754">
        <ele>456</ele>
        <time>2015-12-20T09:11:07.000Z</time>
      </trkpt>
      <trkpt lat="47.48786" lon="6.74759">
        <ele>456</ele>
        <time>2015-12-20T09:11:07.999Z</time>
      </trkpt>
      <trkpt lat="47.48787" lon="6.74764">
        <ele>456</ele>
        <time>2015-12-20T09:11:09.000Z</time>
      </trkpt>
      <trkpt lat="47.48788" lon="6.74769">
        <ele>456</ele>
        <time>2015-12-20T09:11:10.000Z</time>
      </trkpt>
      <trkpt lat="47.48788" lon="6.74774">
        <ele>456</ele>
        <time>2015-12-20T09:11:11.000Z</time>
      </trkpt>
      <trkpt lat="47.48788" lon="6.7478">
        <ele>456</ele>
        <time>2015-12-20T09:11:12.000Z</time>
      </trkpt>
      <trkpt lat="47.48788" lon="6.74786">
        <ele>456</ele>
        <time>2015-12-20T09:11:13.000Z</time>
      </trkpt>
      <trkpt lat="47.48789" lon="6.74793">
        <ele>456</ele>
        <time>2015-12-20T09:11:14.000Z</time>
      </trkpt>
      <trkpt lat="47.48789" lon="6.74799">
        <ele>456</ele>
        <time>2015-12-20T09:11:15.000Z</time>
      </trkpt>
      <trkpt lat="47.48789" lon="6.74806">
        <ele>456</ele>
        <time>2015-12-20T09:11:16.000Z</time>
      </trkpt>
      <trkpt lat="47.48789" lon="6.74812">
        <ele>456</ele>
        <time>2015-12-20T09:11:17.000Z</time>
      </trkpt>
      <trkpt lat="47.48788" lon="6.74818">
        <ele>456</ele>
        <time>2015-12-20T09:11:18.000Z</time>
      </trkpt>
      <trkpt lat="47.48789" lon="6.74823">
        <ele>456</ele>
        <time>2015-12-20T09:11:19.000Z</time>
      </trkpt>
      <trkpt lat="47.48795" lon="6.74831">
        <ele>456</ele>
        <time>2015-12-20T09:11:20.000Z</time>
      </trkpt>
      <trkpt lat="47.48798" lon="6.74838">
        <ele>455</ele>
        <time>2015-12-20T09:11:21.000Z</time>
      </trkpt>
      <trkpt lat="47.48799" lon="6.74846">
        <ele>455</ele>
        <time>2015-12-20T09:11:22.000Z</time>
      </trkpt>
      <trkpt lat="47.488" lon="6.74853">
        <ele>455</ele>
        <time>2015-12-20T09:11:23.000Z</time>
      </trkpt>
      <trkpt lat="47.48803" lon="6.74858">
        <ele>455</ele>
        <time>2015-12-20T09:11:24.000Z</time>
      </trkpt>
      <trkpt lat="47.48807" lon="6.74863">
        <ele>455</ele>
        <time>2015-12-20T09:11:25.000Z</time>
      </trkpt>
      <trkpt lat="47.4881" lon="6.74868">
        <ele>455</ele>
        <time>2015-12-20T09:11:26.000Z</time>
      </trkpt>
      <trkpt lat="47.48812" lon="6.74873">
        <ele>455</ele>
        <time>2015-12-20T09:11:27.000Z</time>
      </trkpt>
      <trkpt lat="47.48812" lon="6.7488">
        <ele>454</ele>
        <time>2015-12-20T09:11:28.000Z</time>
      </trkpt>
      <trkpt lat="47.48812" lon="6.74887">
        <ele>454</ele>
        <time>2015-12-20T09:11:29.000Z</time>
      </trkpt>
      <trkpt lat="47.48812" lon="6.74893">
        <ele>454</ele>
        <time>2015-12-20T09:11:30.000Z</time>
      </trkpt>
      <trkpt lat="47.48811" lon="6.74899">
        <ele>454</ele>
        <time>2015-12-20T09:11:31.000Z</time>
      </trkpt>
      <trkpt lat="47.48811" lon="6.74903">
        <ele>454</ele>
        <time>2015-12-20T09:11:32.000Z</time>
      </trkpt>
      <trkpt lat="47.4881" lon="6.74908">
        <ele>454</ele>
        <time>2015-12-20T09:11:33.000Z</time>
      </trkpt>
      <trkpt lat="47.4881" lon="6.74913">
        <ele>454</ele>
        <time>2015-12-20T09:11:34.000Z</time>
      </trkpt>
      <trkpt lat="47.48809" lon="6.74918">
        <ele>454</ele>
        <time>2015-12-20T09:11:35.000Z</time>
      </trkpt>
      <trkpt lat="47.48808" lon="6.74923">
        <ele>454</ele>
        <time>2015-12-20T09:11:36.000Z</time>
      </trkpt>
      <trkpt lat="47.48808" lon="6.74928">
        <ele>454</ele>
        <time>2015-12-20T09:11:37.000Z</time>
      </trkpt>
      <trkpt lat="47.48807" lon="6.74932">
        <ele>454</ele>
        <time>2015-12-20T09:11:38.000Z</time>
      </trkpt>
      <trkpt lat="47.48807" lon="6.74936">
        <ele>454</ele>
        <time>2015-12-20T09:11:39.000Z</time>
      </trkpt>
      <trkpt lat="47.48806" lon="6.7494">
        <ele>454</ele>
        <time>2015-12-20T09:11:40.000Z</time>
      </trkpt>
      <trkpt lat="47.48806" lon="6.74945">
        <ele>455</ele>
        <time>2015-12-20T09:11:41.000Z</time>
      </trkpt>
      <trkpt lat="47.48805" lon="6.74949">
        <ele>455</ele>
        <time>2015-12-20T09:11:42.000Z</time>
      </trkpt>
      <trkpt lat="47.48804" lon="6.74953">
        <ele>455</ele>
        <time>2015-12-20T09:11:43.000Z</time>
      </trkpt>
      <trkpt lat="47.48803" lon="6.74958">
        <ele>455</ele>
        <time>2015-12-20T09:11:44.000Z</time>
      </trkpt>
      <trkpt lat="47.48802" lon="6.74962">
        <ele>455</ele>
        <time>2015-12-20T09:11:45.000Z</time>
      </trkpt>
      <trkpt lat="47.48801" lon="6.74966">
        <ele>455</ele>
        <time>2015-12-20T09:11:46.000Z</time>
      </trkpt>
      <trkpt lat="47.488" lon="6.74971">
        <ele>455</ele>
        <time>2015-12-20T09:11:47.000Z</time>
      </trkpt>
      <trkpt lat="47.48798" lon="6.74977">
        <ele>455</ele>
        <time>2015-12-20T09:11:48.000Z</time>
      </trkpt>
      <trkpt lat="47.48797" lon="6.74983">
        <ele>455</ele>
        <time>2015-12-20T09:11:49.000Z</time>
      </trkpt>
      <trkpt lat="47.48797" lon="6.74988">
        <ele>455</ele>
        <time>2015-12-20T09:11:50.000Z</time>
      </trkpt>
      <trkpt lat="47.48796" lon="6.74991">
        <ele>455</ele>
        <time>2015-12-20T09:11:51.000Z</time>
      </trkpt>
      <trkpt lat="47.48796" lon="6.74997">
        <ele>455</ele>
        <time>2015-12-20T09:11:56.000Z</time>
      </trkpt>
      <trkpt lat="47.48795" lon="6.74997">
        <ele>455</ele>
        <time>2015-12-20T09:11:57.000Z</time>
      </trkpt>
      <trkpt lat="47.48796" lon="6.75001">
        <ele>456</ele>
        <time>2015-12-20T09:14:11.000Z</time>
      </trkpt>
      <trkpt lat="47.48796" lon="6.75004">
        <ele>456</ele>
        <time>2015-12-20T09:14:12.000Z</time>
      </trkpt>
      <trkpt lat="47.48796" lon="6.7501">
        <ele>456</ele>
        <time>2015-12-20T09:14:14.000Z</time>
      </trkpt>
      <trkpt lat="47.48797" lon="6.75015">
        <ele>456</ele>
        <time>2015-12-20T09:14:15.000Z</time>
      </trkpt>
      <trkpt lat="47.48798" lon="6.7502">
        <ele>456</ele>
        <time>2015-12-20T09:14:16.000Z</time>
      </trkpt>
      <trkpt lat="47.48798" lon="6.75025">
        <ele>456</ele>
        <time>2015-12-20T09:14:17.000Z</time>
      </trkpt>
      <trkpt lat="47.48798" lon="6.7503">
        <ele>456</ele>
        <time>2015-12-20T09:14:18.000Z</time>
      </trkpt>
      <trkpt lat="47.48799" lon="6.75035">
        <ele>457</ele>
        <time>2015-12-20T09:14:19.000Z</time>
      </trkpt>
      <trkpt lat="47.48799" lon="6.7504">
        <ele>457</ele>
        <time>2015-12-20T09:14:20.000Z</time>
      </trkpt>
      <trkpt lat="47.48798" lon="6.75045">
        <ele>457</ele>
        <time>2015-12-20T09:14:21.000Z</time>
      </trkpt>
      <trkpt lat="47.48798" lon="6.7505">
        <ele>457</ele>
        <time>2015-12-20T09:14:22.000Z</time>
      </trkpt>
      <trkpt lat="47.48798" lon="6.75055">
        <ele>457</ele>
        <time>2015-12-20T09:14:23.000Z</time>
      </trkpt>
      <trkpt lat="47.48798" lon="6.75059">
        <ele>457</ele>
        <time>2015-12-20T09:14:24.000Z</time>
      </trkpt>
      <trkpt lat="47.48797" lon="6.75064">
        <ele>457</ele>
        <time>2015-12-20T09:14:25.000Z</time>
      </trkpt>
      <trkpt lat="47.48797" lon="6.75069">
        <ele>457</ele>
        <time>2015-12-20T09:14:26.000Z</time>
      </trkpt>
      <trkpt lat="47.48797" lon="6.75073">
        <ele>457</ele>
        <time>2015-12-20T09:14:27.000Z</time>
      </trkpt>
      <trkpt lat="47.48797" lon="6.75077">
        <ele>457</ele>
        <time>2015-12-20T09:14:28.000Z</time>
      </trkpt>
      <trkpt lat="47.48796" lon="6.75081">
        <ele>457</ele>
        <time>2015-12-20T09:14:29.000Z</time>
      </trkpt>
      <trkpt lat="47.48796" lon="6.75084">
        <ele>457</ele>
        <time>2015-12-20T09:14:30.000Z</time>
      </trkpt>
      <trkpt lat="47.48795" lon="6.75087">
        <ele>457</ele>
        <time>2015-12-20T09:14:31.000Z</time>
      </trkpt>
      <trkpt lat="47.48794" lon="6.75094">
        <ele>457</ele>
        <time>2015-12-20T09:14:33.000Z</time>
      </trkpt>
      <trkpt lat="47.48794" lon="6.75097">
        <ele>457</ele>
        <time>2015-12-20T09:14:34.000Z</time>
      </trkpt>
      <trkpt lat="47.48793" lon="6.75101">
        <ele>457</ele>
        <time>2015-12-20T09:14:35.000Z</time>
      </trkpt>
      <trkpt lat="47.48791" lon="6.75106">
        <ele>457</ele>
        <time>2015-12-20T09:14:36.000Z</time>
      </trkpt>
      <trkpt lat="47.4879" lon="6.75111">
        <ele>457</ele>
        <time>2015-12-20T09:14:37.000Z</time>
      </trkpt>
      <trkpt lat="47.48788" lon="6.75117">
        <ele>457</ele>
        <time>2015-12-20T09:14:38.000Z</time>
      </trkpt>
      <trkpt lat="47.48787" lon="6.75122">
        <ele>457</ele>
        <time>2015-12-20T09:14:39.000Z</time>
      </trkpt>
      <trkpt lat="47.48786" lon="6.75128">
        <ele>457</ele>
        <time>2015-12-20T09:14:40.000Z</time>
      </trkpt>
      <trkpt lat="47.48786" lon="6.75133">
        <ele>457</ele>
        <time>2015-12-20T09:14:41.000Z</time>
      </trkpt>
      <trkpt lat="47.48785" lon="6.75138">
        <ele>457</ele>
        <time>2015-12-20T09:14:42.000Z</time>
      </trkpt>
      <trkpt lat="47.48785" lon="6.75143">
        <ele>457</ele>
        <time>2015-12-20T09:14:43.000Z</time>
      </trkpt>
      <trkpt lat="47.48785" lon="6.75147">
        <ele>457</ele>
        <time>2015-12-20T09:14:44.000Z</time>
      </trkpt>
      <trkpt lat="47.48785" lon="6.75151">
        <ele>457</ele>
        <time>2015-12-20T09:14:45.000Z</time>
      </trkpt>
      <trkpt lat="47.48785" lon="6.75156">
        <ele>457</ele>
        <time>2015-12-20T09:14:46.000Z</time>
      </trkpt>
      <trkpt lat="47.48785" lon="6.7516">
        <ele>456</ele>
        <time>2015-12-20T09:14:47.000Z</time>
      </trkpt>
      <trkpt lat="47.48785" lon="6.75163">
        <ele>456</ele>
        <time>2015-12-20T09:14:48.000Z</time>
      </trkpt>
      <trkpt lat="47.48786" lon="6.75168">
        <ele>455</ele>
        <time>2015-12-20T09:14:49.000Z</time>
      </trkpt>
      <trkpt lat="47.48787" lon="6.75171">
        <ele>455</ele>
        <time>2015-12-20T09:14:50.000Z</time>
      </trkpt>
      <trkpt lat="47.48787" lon="6.75175">
        <ele>455</ele>
        <time>2015-12-20T09:14:51.000Z</time>
      </trkpt>
      <trkpt lat="47.48786" lon="6.75179">
        <ele>455</ele>
        <time>2015-12-20T09:14:52.000Z</time>
      </trkpt>
      <trkpt lat="47.48785" lon="6.75184">
        <ele>455</ele>
        <time>2015-12-20T09:14:54.000Z</time>
      </trkpt>
      <trkpt lat="47.48784" lon="6.75187">
        <ele>455</ele>
        <time>2015-12-20T09:14:55.000Z</time>
      </trkpt>
      <trkpt lat="47.48784" lon="6.7519">
        <ele>454</ele>
        <time>2015-12-20T09:14:56.000Z</time>
      </trkpt>
      <trkpt lat="47.48784" lon="6.75194">
        <ele>454</ele>
        <time>2015-12-20T09:14:57.000Z</time>
      </trkpt>
      <trkpt lat="47.48783" lon="6.752">
        <ele>454</ele>
        <time>2015-12-20T09:14:58.000Z</time>
      </trkpt>
      <trkpt lat="47.48782" lon="6.75206">
        <ele>454</ele>
        <time>2015-12-20T09:14:59.000Z</time>
      </trkpt>
      <trkpt lat="47.48782" lon="6.75212">
        <ele>454</ele>
        <time>2015-12-20T09:15:00.000Z</time>
      </trkpt>
      <trkpt lat="47.48782" lon="6.75217">
        <ele>454</ele>
        <time>2015-12-20T09:15:01.000Z</time>
      </trkpt>
      <trkpt lat="47.48781" lon="6.75222">
        <ele>454</ele>
        <time>2015-12-20T09:15:02.000Z</time>
      </trkpt>
      <trkpt lat="47.48781" lon="6.75227">
        <ele>454</ele>
        <time>2015-12-20T09:15:03.000Z</time>
      </trkpt>
      <trkpt lat="47.48779" lon="6.75232">
        <ele>454</ele>
        <time>2015-12-20T09:15:04.000Z</time>
      </trkpt>
      <trkpt lat="47.48777" lon="6.75236">
        <ele>454</ele>
        <time>2015-12-20T09:15:05.000Z</time>
      </trkpt>
      <trkpt lat="47.48776" lon="6.7524">
        <ele>454</ele>
        <time>2015-12-20T09:15:06.000Z</time>
      </trkpt>
      <trkpt lat="47.48775" lon="6.75243">
        <ele>454</ele>
        <time>2015-12-20T09:15:07.000Z</time>
      </trkpt>
      <trkpt lat="47.48773" lon="6.75249">
        <ele>454</ele>
        <time>2015-12-20T09:15:09.000Z</time>
      </trkpt>
      <trkpt lat="47.48772" lon="6.75252">
        <ele>452</ele>
        <time>2015-12-20T09:15:10.000Z</time>
      </trkpt>
      <trkpt lat="47.4877" lon="6.75258">
        <ele>452</ele>
        <time>2015-12-20T09:15:12.000Z</time>
      </trkpt>
      <trkpt lat="47.4877" lon="6.75261">
        <ele>452</ele>
        <time>2015-12-20T09:15:13.000Z</time>
      </trkpt>
      <trkpt lat="47.48768" lon="6.75267">
        <ele>451</ele>
        <time>2015-12-20T09:15:15.000Z</time>
      </trkpt>
      <trkpt lat="47.48768" lon="6.7527">
        <ele>451</ele>
        <time>2015-12-20T09:15:16.000Z</time>
      </trkpt>
      <trkpt lat="47.48768" lon="6.75276">
        <ele>451</ele>
        <time>2015-12-20T09:15:18.000Z</time>
      </trkpt>
      <trkpt lat="47.48768" lon="6.75279">
        <ele>451</ele>
        <time>2015-12-20T09:15:19.000Z</time>
      </trkpt>
      <trkpt lat="47.48768" lon="6.75285">
        <ele>451</ele>
        <time>2015-12-20T09:15:21.000Z</time>
      </trkpt>
      <trkpt lat="47.48768" lon="6.75288">
        <ele>451</ele>
        <time>2015-12-20T09:15:22.000Z</time>
      </trkpt>
      <trkpt lat="47.48769" lon="6.75294">
        <ele>450</ele>
        <time>2015-12-20T09:15:25.000Z</time>
      </trkpt>
      <trkpt lat="47.4877" lon="6.75296">
        <ele>450</ele>
        <time>2015-12-20T09:15:26.000Z</time>
      </trkpt>
      <trkpt lat="47.48769" lon="6.75303">
        <ele>450</ele>
        <time>2015-12-20T09:15:29.000Z</time>
      </trkpt>
      <trkpt lat="47.48768" lon="6.75305">
        <ele>450</ele>
        <time>2015-12-20T09:15:30.000Z</time>
      </trkpt>
      <trkpt lat="47.48766" lon="6.75311">
        <ele>450</ele>
        <time>2015-12-20T09:15:32.000Z</time>
      </trkpt>
      <trkpt lat="47.48765" lon="6.75314">
        <ele>450</ele>
        <time>2015-12-20T09:15:33.000Z</time>
      </trkpt>
      <trkpt lat="47.48766" lon="6.75318">
        <ele>450</ele>
        <time>2015-12-20T09:15:34.000Z</time>
      </trkpt>
      <trkpt lat="47.48766" lon="6.75323">
        <ele>450</ele>
        <time>2015-12-20T09:15:35.000Z</time>
      </trkpt>
      <trkpt lat="47.48766" lon="6.75327">
        <ele>450</ele>
        <time>2015-12-20T09:15:36.000Z</time>
      </trkpt>
      <trkpt lat="47.48766" lon="6.75332">
        <ele>450</ele>
        <time>2015-12-20T09:15:37.000Z</time>
      </trkpt>
      <trkpt lat="47.48766" lon="6.75337">
        <ele>448</ele>
        <time>2015-12-20T09:15:38.000Z</time>
      </trkpt>
      <trkpt lat="47.48765" lon="6.75343">
        <ele>447</ele>
        <time>2015-12-20T09:15:39.000Z</time>
      </trkpt>
      <trkpt lat="47.48765" lon="6.7535">
        <ele>447</ele>
        <time>2015-12-20T09:15:40.000Z</time>
      </trkpt>
      <trkpt lat="47.48763" lon="6.75365">
        <ele>445</ele>
        <time>2015-12-20T09:15:41.000Z</time>
      </trkpt>
      <trkpt lat="47.48762" lon="6.75376">
        <ele>445</ele>
        <time>2015-12-20T09:15:42.000Z</time>
      </trkpt>
      <trkpt lat="47.4876" lon="6.75386">
        <ele>444</ele>
        <time>2015-12-20T09:15:43.000Z</time>
      </trkpt>
      <trkpt lat="47.48759" lon="6.75395">
        <ele>444</ele>
        <time>2015-12-20T09:15:44.000Z</time>
      </trkpt>
      <trkpt lat="47.48758" lon="6.75405">
        <ele>443</ele>
        <time>2015-12-20T09:15:45.000Z</time>
      </trkpt>
      <trkpt lat="47.48757" lon="6.75414">
        <ele>443</ele>
        <time>2015-12-20T09:15:46.000Z</time>
      </trkpt>
      <trkpt lat="47.48755" lon="6.75425">
        <ele>440</ele>
        <time>2015-12-20T09:15:47.000Z</time>
      </trkpt>
      <trkpt lat="47.48755" lon="6.75434">
        <ele>439</ele>
        <time>2015-12-20T09:15:48.000Z</time>
      </trkpt>
      <trkpt lat="47.48753" lon="6.75442">
        <ele>438</ele>
        <time>2015-12-20T09:15:49.000Z</time>
      </trkpt>
      <trkpt lat="47.48752" lon="6.7545">
        <ele>437</ele>
        <time>2015-12-20T09:15:50.000Z</time>
      </trkpt>
      <trkpt lat="47.48752" lon="6.75457">
        <ele>436</ele>
        <time>2015-12-20T09:15:51.000Z</time>
      </trkpt>
      <trkpt lat="47.48752" lon="6.7546">
        <ele>436</ele>
        <time>2015-12-20T09:15:52.000Z</time>
      </trkpt>
      <trkpt lat="47.48752" lon="6.75464">
        <ele>436</ele>
        <time>2015-12-20T09:15:53.000Z</time>
      </trkpt>
      <trkpt lat="47.48752" lon="6.75469">
        <ele>435</ele>
        <time>2015-12-20T09:15:54.000Z</time>
      </trkpt>
      <trkpt lat="47.48752" lon="6.75473">
        <ele>435</ele>
        <time>2015-12-20T09:15:55.000Z</time>
      </trkpt>
      <trkpt lat="47.48749" lon="6.75479">
        <ele>434</ele>
        <time>2015-12-20T09:15:56.000Z</time>
      </trkpt>
      <trkpt lat="47.48747" lon="6.75483">
        <ele>434</ele>
        <time>2015-12-20T09:15:58.000Z</time>
      </trkpt>
      <trkpt lat="47.48746" lon="6.75485">
        <ele>434</ele>
        <time>2015-12-20T09:15:59.000Z</time>
      </trkpt>
      <trkpt lat="47.48745" lon="6.75491">
        <ele>433</ele>
        <time>2015-12-20T09:16:01.000Z</time>
      </trkpt>
      <trkpt lat="47.48744" lon="6.75494">
        <ele>433</ele>
        <time>2015-12-20T09:16:02.000Z</time>
      </trkpt>
      <trkpt lat="47.48743" lon="6.755">
        <ele>433</ele>
        <time>2015-12-20T09:16:04.000Z</time>
      </trkpt>
      <trkpt lat="47.48743" lon="6.75504">
        <ele>432</ele>
        <time>2015-12-20T09:16:05.000Z</time>
      </trkpt>
      <trkpt lat="47.48742" lon="6.75509">
        <ele>431</ele>
        <time>2015-12-20T09:16:06.000Z</time>
      </trkpt>
      <trkpt lat="47.48741" lon="6.75523">
        <ele>430</ele>
        <time>2015-12-20T09:16:07.000Z</time>
      </trkpt>
      <trkpt lat="47.48739" lon="6.75531">
        <ele>429</ele>
        <time>2015-12-20T09:16:08.000Z</time>
      </trkpt>
      <trkpt lat="47.48737" lon="6.75541">
        <ele>428</ele>
        <time>2015-12-20T09:16:09.000Z</time>
      </trkpt>
      <trkpt lat="47.48738" lon="6.7555">
        <ele>428</ele>
        <time>2015-12-20T09:16:10.000Z</time>
      </trkpt>
      <trkpt lat="47.48737" lon="6.75559">
        <ele>428</ele>
        <time>2015-12-20T09:16:11.000Z</time>
      </trkpt>
      <trkpt lat="47.48736" lon="6.75568">
        <ele>427</ele>
        <time>2015-12-20T09:16:12.000Z</time>
      </trkpt>
      <trkpt lat="47.48737" lon="6.75575">
        <ele>427</ele>
        <time>2015-12-20T09:16:13.000Z</time>
      </trkpt>
      <trkpt lat="47.48737" lon="6.75582">
        <ele>427</ele>
        <time>2015-12-20T09:16:14.000Z</time>
      </trkpt>
      <trkpt lat="47.48737" lon="6.75588">
        <ele>425</ele>
        <time>2015-12-20T09:16:15.000Z</time>
      </trkpt>
      <trkpt lat="47.48737" lon="6.75594">
        <ele>425</ele>
        <time>2015-12-20T09:16:16.000Z</time>
      </trkpt>
      <trkpt lat="47.48737" lon="6.756">
        <ele>424</ele>
        <time>2015-12-20T09:16:17.000Z</time>
      </trkpt>
      <trkpt lat="47.48737" lon="6.75606">
        <ele>424</ele>
        <time>2015-12-20T09:16:18.000Z</time>
      </trkpt>
      <trkpt lat="47.48736" lon="6.75614">
        <ele>423</ele>
        <time>2015-12-20T09:16:19.000Z</time>
      </trkpt>
      <trkpt lat="47.48732" lon="6.75629">
        <ele>423</ele>
        <time>2015-12-20T09:16:20.000Z</time>
      </trkpt>
      <trkpt lat="47.48731" lon="6.75639">
        <ele>423</ele>
        <time>2015-12-20T09:16:21.000Z</time>
      </trkpt>
      <trkpt lat="47.48729" lon="6.75649">
        <ele>422</ele>
        <time>2015-12-20T09:16:22.000Z</time>
      </trkpt>
      <trkpt lat="47.48726" lon="6.75661">
        <ele>422</ele>
        <time>2015-12-20T09:16:23.000Z</time>
      </trkpt>
      <trkpt lat="47.48725" lon="6.75669">
        <ele>422</ele>
        <time>2015-12-20T09:16:24.000Z</time>
      </trkpt>
      <trkpt lat="47.48724" lon="6.75675">
        <ele>422</ele>
        <time>2015-12-20T09:16:26.000Z</time>
      </trkpt>
      <trkpt lat="47.48724" lon="6.75677">
        <ele>422</ele>
        <time>2015-12-20T09:16:27.000Z</time>
      </trkpt>
      <trkpt lat="47.48722" lon="6.75679">
        <ele>422</ele>
        <time>2015-12-20T09:16:28.000Z</time>
      </trkpt>
      <trkpt lat="47.48718" lon="6.75681">
        <ele>422</ele>
        <time>2015-12-20T09:16:29.000Z</time>
      </trkpt>
      <trkpt lat="47.48716" lon="6.75676">
        <ele>422</ele>
        <time>2015-12-20T09:16:30.000Z</time>
      </trkpt>
      <trkpt lat="47.48713" lon="6.75677">
        <ele>422</ele>
        <time>2015-12-20T09:16:31.000Z</time>
      </trkpt>
      <trkpt lat="47.4871" lon="6.75681">
        <ele>421</ele>
        <time>2015-12-20T09:16:34.000Z</time>
      </trkpt>
      <trkpt lat="47.48709" lon="6.75683">
        <ele>421</ele>
        <time>2015-12-20T09:16:35.000Z</time>
      </trkpt>
      <trkpt lat="47.48708" lon="6.75689">
        <ele>422</ele>
        <time>2015-12-20T09:16:38.000Z</time>
      </trkpt>
      <trkpt lat="47.48707" lon="6.75691">
        <ele>422</ele>
        <time>2015-12-20T09:16:39.000Z</time>
      </trkpt>
      <trkpt lat="47.48704" lon="6.75696">
        <ele>421</ele>
        <time>2015-12-20T09:16:41.000Z</time>
      </trkpt>
      <trkpt lat="47.48702" lon="6.75698">
        <ele>421</ele>
        <time>2015-12-20T09:16:42.000Z</time>
      </trkpt>
      <trkpt lat="47.48701" lon="6.75701">
        <ele>421</ele>
        <time>2015-12-20T09:16:43.000Z</time>
      </trkpt>
      <trkpt lat="47.48699" lon="6.75703">
        <ele>421</ele>
        <time>2015-12-20T09:16:44.000Z</time>
      </trkpt>
      <trkpt lat="47.48697" lon="6.75706">
        <ele>421</ele>
        <time>2015-12-20T09:16:45.000Z</time>
      </trkpt>
      <trkpt lat="47.48695" lon="6.75707">
        <ele>421</ele>
        <time>2015-12-20T09:16:46.000Z</time>
      </trkpt>
      <trkpt lat="47.48691" lon="6.75707">
        <ele>421</ele>
        <time>2015-12-20T09:16:51.000Z</time>
      </trkpt>
      <trkpt lat="47.4869" lon="6.75707">
        <ele>421</ele>
        <time>2015-12-20T09:16:52.000Z</time>
      </trkpt>
      <trkpt lat="47.48688" lon="6.75712">
        <ele>421</ele>
        <time>2015-12-20T09:16:57.000Z</time>
      </trkpt>
      <trkpt lat="47.48687" lon="6.75714">
        <ele>421</ele>
        <time>2015-12-20T09:16:58.000Z</time>
      </trkpt>
      <trkpt lat="47.48684" lon="6.75718">
        <ele>421</ele>
        <time>2015-12-20T09:17:00.000Z</time>
      </trkpt>
      <trkpt lat="47.48682" lon="6.7572">
        <ele>421</ele>
        <time>2015-12-20T09:17:01.000Z</time>
      </trkpt>
      <trkpt lat="47.4868" lon="6.75723">
        <ele>421</ele>
        <time>2015-12-20T09:17:02.000Z</time>
      </trkpt>
      <trkpt lat="47.48678" lon="6.75726">
        <ele>421</ele>
        <time>2015-12-20T09:17:03.000Z</time>
      </trkpt>
      <trkpt lat="47.48676" lon="6.75728">
        <ele>420</ele>
        <time>2015-12-20T09:17:04.000Z</time>
      </trkpt>
      <trkpt lat="47.48673" lon="6.75732">
        <ele>420</ele>
        <time>2015-12-20T09:17:05.000Z</time>
      </trkpt>
      <trkpt lat="47.4867" lon="6.75736">
        <ele>420</ele>
        <time>2015-12-20T09:17:06.000Z</time>
      </trkpt>
      <trkpt lat="47.48667" lon="6.75742">
        <ele>419</ele>
        <time>2015-12-20T09:17:07.000Z</time>
      </trkpt>
      <trkpt lat="47.48664" lon="6.75747">
        <ele>417</ele>
        <time>2015-12-20T09:17:08.000Z</time>
      </trkpt>
      <trkpt lat="47.48661" lon="6.75753">
        <ele>416</ele>
        <time>2015-12-20T09:17:09.000Z</time>
      </trkpt>
      <trkpt lat="47.48658" lon="6.75758">
        <ele>415</ele>
        <time>2015-12-20T09:17:10.000Z</time>
      </trkpt>
      <trkpt lat="47.48655" lon="6.75763">
        <ele>415</ele>
        <time>2015-12-20T09:17:11.000Z</time>
      </trkpt>
      <trkpt lat="47.48651" lon="6.75766">
        <ele>414</ele>
        <time>2015-12-20T09:17:12.000Z</time>
      </trkpt>
      <trkpt lat="47.48647" lon="6.7577">
        <ele>413</ele>
        <time>2015-12-20T09:17:13.000Z</time>
      </trkpt>
      <trkpt lat="47.48642" lon="6.75772">
        <ele>413</ele>
        <time>2015-12-20T09:17:14.000Z</time>
      </trkpt>
      <trkpt lat="47.48618" lon="6.75764">
        <ele>409</ele>
        <time>2015-12-20T09:17:15.000Z</time>
      </trkpt>
      <trkpt lat="47.48611" lon="6.75762">
        <ele>408</ele>
        <time>2015-12-20T09:17:16.000Z</time>
      </trkpt>
      <trkpt lat="47.48605" lon="6.75762">
        <ele>407</ele>
        <time>2015-12-20T09:17:17.000Z</time>
      </trkpt>
      <trkpt lat="47.48599" lon="6.75762">
        <ele>406</ele>
        <time>2015-12-20T09:17:18.000Z</time>
      </trkpt>
      <trkpt lat="47.48594" lon="6.75761">
        <ele>405</ele>
        <time>2015-12-20T09:17:19.000Z</time>
      </trkpt>
      <trkpt lat="47.48589" lon="6.75761">
        <ele>404</ele>
        <time>2015-12-20T09:17:20.000Z</time>
      </trkpt>
      <trkpt lat="47.48583" lon="6.75761">
        <ele>398</ele>
        <time>2015-12-20T09:17:21.000Z</time>
      </trkpt>
      <trkpt lat="47.48578" lon="6.75763">
        <ele>398</ele>
        <time>2015-12-20T09:17:22.000Z</time>
      </trkpt>
      <trkpt lat="47.48571" lon="6.75762">
        <ele>397</ele>
        <time>2015-12-20T09:17:23.000Z</time>
      </trkpt>
      <trkpt lat="47.48566" lon="6.75761">
        <ele>397</ele>
        <time>2015-12-20T09:17:24.000Z</time>
      </trkpt>
      <trkpt lat="47.48559" lon="6.75764">
        <ele>396</ele>
        <time>2015-12-20T09:17:25.000Z</time>
      </trkpt>
      <trkpt lat="47.48551" lon="6.75765">
        <ele>396</ele>
        <time>2015-12-20T09:17:26.000Z</time>
      </trkpt>
      <trkpt lat="47.48547" lon="6.75763">
        <ele>395</ele>
        <time>2015-12-20T09:17:27.000Z</time>
      </trkpt>
      <trkpt lat="47.48537" lon="6.7576">
        <ele>394</ele>
        <time>2015-12-20T09:17:28.000Z</time>
      </trkpt>
      <trkpt lat="47.4853" lon="6.75758">
        <ele>392</ele>
        <time>2015-12-20T09:17:29.000Z</time>
      </trkpt>
      <trkpt lat="47.48524" lon="6.75754">
        <ele>391</ele>
        <time>2015-12-20T09:17:30.000Z</time>
      </trkpt>
      <trkpt lat="47.48518" lon="6.75751">
        <ele>390</ele>
        <time>2015-12-20T09:17:31.000Z</time>
      </trkpt>
      <trkpt lat="47.48511" lon="6.75749">
        <ele>385</ele>
        <time>2015-12-20T09:17:32.000Z</time>
      </trkpt>
      <trkpt lat="47.48505" lon="6.75745">
        <ele>385</ele>
        <time>2015-12-20T09:17:33.000Z</time>
      </trkpt>
      <trkpt lat="47.485" lon="6.75739">
        <ele>382</ele>
        <time>2015-12-20T09:17:34.000Z</time>
      </trkpt>
      <trkpt lat="47.48494" lon="6.75733">
        <ele>381</ele>
        <time>2015-12-20T09:17:35.000Z</time>
      </trkpt>
      <trkpt lat="47.48489" lon="6.75727">
        <ele>380</ele>
        <time>2015-12-20T09:17:36.000Z</time>
      </trkpt>
      <trkpt lat="47.48482" lon="6.7572">
        <ele>380</ele>
        <time>2015-12-20T09:17:37.000Z</time>
      </trkpt>
      <trkpt lat="47.48476" lon="6.75712">
        <ele>379</ele>
        <time>2015-12-20T09:17:38.000Z</time>
      </trkpt>
      <trkpt lat="47.48469" lon="6.75704">
        <ele>379</ele>
        <time>2015-12-20T09:17:39.000Z</time>
      </trkpt>
      <trkpt lat="47.48464" lon="6.75694">
        <ele>378</ele>
        <time>2015-12-20T09:17:40.000Z</time>
      </trkpt>
      <trkpt lat="47.48459" lon="6.75688">
        <ele>377</ele>
        <time>2015-12-20T09:17:41.000Z</time>
      </trkpt>
      <trkpt lat="47.48454" lon="6.75683">
        <ele>377</ele>
        <time>2015-12-20T09:17:42.000Z</time>
      </trkpt>
      <trkpt lat="47.48445" lon="6.75678">
        <ele>375</ele>
        <time>2015-12-20T09:17:43.000Z</time>
      </trkpt>
      <trkpt lat="47.48439" lon="6.75674">
        <ele>374</ele>
        <time>2015-12-20T09:17:44.000Z</time>
      </trkpt>
      <trkpt lat="47.48432" lon="6.7567">
        <ele>372</ele>
        <time>2015-12-20T09:17:45.000Z</time>
      </trkpt>
      <trkpt lat="47.48426" lon="6.75664">
        <ele>368</ele>
        <time>2015-12-20T09:17:46.000Z</time>
      </trkpt>
      <trkpt lat="47.48422" lon="6.7566">
        <ele>367</ele>
        <time>2015-12-20T09:17:47.000Z</time>
      </trkpt>
      <trkpt lat="47.48417" lon="6.75656">
        <ele>367</ele>
        <time>2015-12-20T09:17:48.000Z</time>
      </trkpt>
      <trkpt lat="47.48414" lon="6.75654">
        <ele>363</ele>
        <time>2015-12-20T09:17:49.000Z</time>
      </trkpt>
      <trkpt lat="47.48411" lon="6.75651">
        <ele>362</ele>
        <time>2015-12-20T09:17:50.000Z</time>
      </trkpt>
      <trkpt lat="47.48408" lon="6.75647">
        <ele>361</ele>
        <time>2015-12-20T09:17:52.000Z</time>
      </trkpt>
      <trkpt lat="47.48405" lon="6.75643">
        <ele>360</ele>
        <time>2015-12-20T09:17:53.000Z</time>
      </trkpt>
      <trkpt lat="47.48402" lon="6.75638">
        <ele>359</ele>
        <time>2015-12-20T09:17:54.000Z</time>
      </trkpt>
      <trkpt lat="47.48399" lon="6.75634">
        <ele>359</ele>
        <time>2015-12-20T09:17:55.000Z</time>
      </trkpt>
      <trkpt lat="47.48397" lon="6.75632">
        <ele>358</ele>
        <time>2015-12-20T09:17:56.000Z</time>
      </trkpt>
      <trkpt lat="47.48394" lon="6.75629">
        <ele>358</ele>
        <time>2015-12-20T09:17:57.000Z</time>
      </trkpt>
      <trkpt lat="47.48392" lon="6.75626">
        <ele>358</ele>
        <time>2015-12-20T09:17:58.000Z</time>
      </trkpt>
      <trkpt lat="47.4839" lon="6.75624">
        <ele>357</ele>
        <time>2015-12-20T09:17:59.000Z</time>
      </trkpt>
      <trkpt lat="47.48387" lon="6.75621">
        <ele>357</ele>
        <time>2015-12-20T09:18:01.000Z</time>
      </trkpt>
      <trkpt lat="47.48386" lon="6.75619">
        <ele>357</ele>
        <time>2015-12-20T09:18:02.000Z</time>
      </trkpt>
      <trkpt lat="47.48383" lon="6.75616">
        <ele>356</ele>
        <time>2015-12-20T09:18:05.000Z</time>
      </trkpt>
      <trkpt lat="47.48381" lon="6.75614">
        <ele>356</ele>
        <time>2015-12-20T09:18:06.000Z</time>
      </trkpt>
      <trkpt lat="47.48377" lon="6.75612">
        <ele>356</ele>
        <time>2015-12-20T09:18:09.000Z</time>
      </trkpt>
      <trkpt lat="47.48376" lon="6.75612">
        <ele>355</ele>
        <time>2015-12-20T09:18:10.000Z</time>
      </trkpt>
      <trkpt lat="47.48378" lon="6.75616">
        <ele>356</ele>
        <time>2015-12-20T09:20:11.000Z</time>
      </trkpt>
      <trkpt lat="47.48381" lon="6.75616">
        <ele>356</ele>
        <time>2015-12-20T09:20:12.000Z</time>
      </trkpt>
      <trkpt lat="47.48384" lon="6.75617">
        <ele>356</ele>
        <time>2015-12-20T09:20:13.000Z</time>
      </trkpt>
      <trkpt lat="47.48386" lon="6.75619">
        <ele>357</ele>
        <time>2015-12-20T09:20:14.000Z</time>
      </trkpt>
      <trkpt lat="47.48389" lon="6.75621">
        <ele>357</ele>
        <time>2015-12-20T09:20:15.000Z</time>
      </trkpt>
      <trkpt lat="47.4839" lon="6.75623">
        <ele>357</ele>
        <time>2015-12-20T09:20:16.000Z</time>
      </trkpt>
      <trkpt lat="47.48394" lon="6.75625">
        <ele>357</ele>
        <time>2015-12-20T09:20:19.000Z</time>
      </trkpt>
      <trkpt lat="47.48395" lon="6.75626">
        <ele>358</ele>
        <time>2015-12-20T09:20:20.000Z</time>
      </trkpt>
      <trkpt lat="47.48397" lon="6.75631">
        <ele>358</ele>
        <time>2015-12-20T09:20:22.000Z</time>
      </trkpt>
      <trkpt lat="47.48398" lon="6.75633">
        <ele>359</ele>
        <time>2015-12-20T09:20:23.000Z</time>
      </trkpt>
      <trkpt lat="47.48401" lon="6.75637">
        <ele>359</ele>
        <time>2015-12-20T09:20:26.000Z</time>
      </trkpt>
      <trkpt lat="47.48402" lon="6.75638">
        <ele>359</ele>
        <time>2015-12-20T09:20:27.000Z</time>
      </trkpt>
      <trkpt lat="47.48406" lon="6.75641">
        <ele>360</ele>
        <time>2015-12-20T09:20:30.000Z</time>
      </trkpt>
      <trkpt lat="47.48408" lon="6.75642">
        <ele>360</ele>
        <time>2015-12-20T09:20:31.000Z</time>
      </trkpt>
      <trkpt lat="47.48411" lon="6.75643">
        <ele>361</ele>
        <time>2015-12-20T09:20:33.000Z</time>
      </trkpt>
      <trkpt lat="47.48413" lon="6.75644">
        <ele>361</ele>
        <time>2015-12-20T09:20:34.000Z</time>
      </trkpt>
      <trkpt lat="47.48416" lon="6.75646">
        <ele>361</ele>
        <time>2015-12-20T09:20:36.000Z</time>
      </trkpt>
      <trkpt lat="47.48417" lon="6.75646">
        <ele>367</ele>
        <time>2015-12-20T09:20:37.000Z</time>
      </trkpt>
      <trkpt lat="47.48421" lon="6.7565">
        <ele>367</ele>
        <time>2015-12-20T09:20:40.000Z</time>
      </trkpt>
      <trkpt lat="47.48422" lon="6.75652">
        <ele>367</ele>
        <time>2015-12-20T09:20:41.000Z</time>
      </trkpt>
      <trkpt lat="47.48424" lon="6.75655">
        <ele>368</ele>
        <time>2015-12-20T09:20:43.000Z</time>
      </trkpt>
      <trkpt lat="47.48425" lon="6.75657">
        <ele>368</ele>
        <time>2015-12-20T09:20:44.000Z</time>
      </trkpt>
      <trkpt lat="47.48428" lon="6.7566">
        <ele>368</ele>
        <time>2015-12-20T09:20:46.000Z</time>
      </trkpt>
      <trkpt lat="47.4843" lon="6.75661">
        <ele>368</ele>
        <time>2015-12-20T09:20:47.000Z</time>
      </trkpt>
      <trkpt lat="47.48433" lon="6.75662">
        <ele>368</ele>
        <time>2015-12-20T09:20:50.000Z</time>
      </trkpt>
      <trkpt lat="47.48435" lon="6.75663">
        <ele>368</ele>
        <time>2015-12-20T09:20:51.000Z</time>
      </trkpt>
      <trkpt lat="47.48439" lon="6.75666">
        <ele>369</ele>
        <time>2015-12-20T09:20:53.000Z</time>
      </trkpt>
      <trkpt lat="47.48441" lon="6.75668">
        <ele>374</ele>
        <time>2015-12-20T09:20:54.000Z</time>
      </trkpt>
      <trkpt lat="47.48445" lon="6.75671">
        <ele>375</ele>
        <time>2015-12-20T09:20:56.000Z</time>
      </trkpt>
      <trkpt lat="47.48447" lon="6.75672">
        <ele>375</ele>
        <time>2015-12-20T09:20:57.000Z</time>
      </trkpt>
      <trkpt lat="47.4845" lon="6.75674">
        <ele>376</ele>
        <time>2015-12-20T09:20:59.000Z</time>
      </trkpt>
      <trkpt lat="47.48452" lon="6.75676">
        <ele>376</ele>
        <time>2015-12-20T09:21:00.000Z</time>
      </trkpt>
      <trkpt lat="47.48455" lon="6.75679">
        <ele>377</ele>
        <time>2015-12-20T09:21:02.000Z</time>
      </trkpt>
      <trkpt lat="47.48457" lon="6.7568">
        <ele>377</ele>
        <time>2015-12-20T09:21:03.000Z</time>
      </trkpt>
      <trkpt lat="47.4846" lon="6.75684">
        <ele>377</ele>
        <time>2015-12-20T09:21:08.000Z</time>
      </trkpt>
      <trkpt lat="47.48461" lon="6.75684">
        <ele>377</ele>
        <time>2015-12-20T09:21:09.000Z</time>
      </trkpt>
      <trkpt lat="47.48465" lon="6.75687">
        <ele>378</ele>
        <time>2015-12-20T09:21:13.000Z</time>
      </trkpt>
      <trkpt lat="47.48466" lon="6.75688">
        <ele>378</ele>
        <time>2015-12-20T09:21:14.000Z</time>
      </trkpt>
      <trkpt lat="47.48468" lon="6.75692">
        <ele>378</ele>
        <time>2015-12-20T09:21:16.000Z</time>
      </trkpt>
      <trkpt lat="47.48469" lon="6.75694">
        <ele>378</ele>
        <time>2015-12-20T09:21:17.000Z</time>
      </trkpt>
      <trkpt lat="47.48473" lon="6.75695">
        <ele>378</ele>
        <time>2015-12-20T09:21:26.000Z</time>
      </trkpt>
      <trkpt lat="47.48474" lon="6.75697">
        <ele>378</ele>
        <time>2015-12-20T09:21:27.000Z</time>
      </trkpt>
      <trkpt lat="47.48477" lon="6.75702">
        <ele>379</ele>
        <time>2015-12-20T09:21:32.000Z</time>
      </trkpt>
      <trkpt lat="47.48477" lon="6.75702">
        <ele>379</ele>
        <time>2015-12-20T09:21:33.000Z</time>
      </trkpt>
      <trkpt lat="47.48479" lon="6.75706">
        <ele>379</ele>
        <time>2015-12-20T09:21:38.000Z</time>
      </trkpt>
      <trkpt lat="47.48481" lon="6.75707">
        <ele>379</ele>
        <time>2015-12-20T09:21:39.000Z</time>
      </trkpt>
      <trkpt lat="47.48485" lon="6.75708">
        <ele>379</ele>
        <time>2015-12-20T09:21:42.000Z</time>
      </trkpt>
      <trkpt lat="47.48486" lon="6.75709">
        <ele>379</ele>
        <time>2015-12-20T09:21:43.000Z</time>
      </trkpt>
      <trkpt lat="47.48489" lon="6.7571">
        <ele>379</ele>
        <time>2015-12-20T09:21:45.000Z</time>
      </trkpt>
      <trkpt lat="47.4849" lon="6.75711">
        <ele>379</ele>
        <time>2015-12-20T09:21:46.000Z</time>
      </trkpt>
      <trkpt lat="47.48494" lon="6.75712">
        <ele>380</ele>
        <time>2015-12-20T09:21:50.000Z</time>
      </trkpt>
      <trkpt lat="47.48494" lon="6.75713">
        <ele>380</ele>
        <time>2015-12-20T09:21:51.000Z</time>
      </trkpt>
      <trkpt lat="47.48497" lon="6.75718">
        <ele>380</ele>
        <time>2015-12-20T09:21:55.000Z</time>
      </trkpt>
      <trkpt lat="47.48498" lon="6.75719">
        <ele>380</ele>
        <time>2015-12-20T09:21:56.000Z</time>
      </trkpt>
      <trkpt lat="47.48501" lon="6.75722">
        <ele>386</ele>
        <time>2015-12-20T09:21:59.000Z</time>
      </trkpt>
      <trkpt lat="47.48502" lon="6.75723">
        <ele>386</ele>
        <time>2015-12-20T09:22:00.000Z</time>
      </trkpt>
      <trkpt lat="47.48504" lon="6.75727">
        <ele>386</ele>
        <time>2015-12-20T09:22:03.000Z</time>
      </trkpt>
      <trkpt lat="47.48505" lon="6.75729">
        <ele>386</ele>
        <time>2015-12-20T09:22:04.000Z</time>
      </trkpt>
      <trkpt lat="47.48507" lon="6.75734">
        <ele>386</ele>
        <time>2015-12-20T09:22:07.000Z</time>
      </trkpt>
      <trkpt lat="47.48508" lon="6.75735">
        <ele>386</ele>
        <time>2015-12-20T09:22:08.000Z</time>
      </trkpt>
      <trkpt lat="47.48512" lon="6.75739">
        <ele>386</ele>
        <time>2015-12-20T09:22:13.000Z</time>
      </trkpt>
      <trkpt lat="47.48512" lon="6.7574">
        <ele>386</ele>
        <time>2015-12-20T09:22:14.000Z</time>
      </trkpt>
      <trkpt lat="47.48516" lon="6.75743">
        <ele>386</ele>
        <time>2015-12-20T09:22:20.000Z</time>
      </trkpt>
      <trkpt lat="47.48516" lon="6.75744">
        <ele>386</ele>
        <time>2015-12-20T09:22:21.000Z</time>
      </trkpt>
      <trkpt lat="47.4852" lon="6.75747">
        <ele>387</ele>
        <time>2015-12-20T09:22:32.000Z</time>
      </trkpt>
      <trkpt lat="47.48521" lon="6.75748">
        <ele>387</ele>
        <time>2015-12-20T09:22:33.000Z</time>
      </trkpt>
      <trkpt lat="47.48523" lon="6.75751">
        <ele>391</ele>
        <time>2015-12-20T09:22:40.000Z</time>
      </trkpt>
      <trkpt lat="47.48524" lon="6.75752">
        <ele>391</ele>
        <time>2015-12-20T09:22:41.000Z</time>
      </trkpt>
      <trkpt lat="47.48528" lon="6.75754">
        <ele>392</ele>
        <time>2015-12-20T09:22:46.000Z</time>
      </trkpt>
      <trkpt lat="47.48529" lon="6.75754">
        <ele>392</ele>
        <time>2015-12-20T09:22:47.000Z</time>
      </trkpt>
      <trkpt lat="47.48532" lon="6.75757">
        <ele>393</ele>
        <time>2015-12-20T09:22:51.000Z</time>
      </trkpt>
      <trkpt lat="47.48533" lon="6.75757">
        <ele>393</ele>
        <time>2015-12-20T09:22:52.000Z</time>
      </trkpt>
      <trkpt lat="47.48537" lon="6.75756">
        <ele>394</ele>
        <time>2015-12-20T09:22:58.000Z</time>
      </trkpt>
      <trkpt lat="47.48538" lon="6.75756">
        <ele>394</ele>
        <time>2015-12-20T09:22:59.000Z</time>
      </trkpt>
      <trkpt lat="47.48541" lon="6.75759">
        <ele>394</ele>
        <time>2015-12-20T09:23:04.000Z</time>
      </trkpt>
      <trkpt lat="47.48542" lon="6.75759">
        <ele>394</ele>
        <time>2015-12-20T09:23:05.000Z</time>
      </trkpt>
      <trkpt lat="47.48546" lon="6.75759">
        <ele>395</ele>
        <time>2015-12-20T09:23:10.000Z</time>
      </trkpt>
      <trkpt lat="47.48547" lon="6.75759">
        <ele>395</ele>
        <time>2015-12-20T09:23:11.000Z</time>
      </trkpt>
      <trkpt lat="47.48551" lon="6.75759">
        <ele>396</ele>
        <time>2015-12-20T09:23:16.000Z</time>
      </trkpt>
      <trkpt lat="47.48552" lon="6.75759">
        <ele>396</ele>
        <time>2015-12-20T09:23:17.000Z</time>
      </trkpt>
      <trkpt lat="47.48556" lon="6.75756">
        <ele>396</ele>
        <time>2015-12-20T09:23:22.000Z</time>
      </trkpt>
      <trkpt lat="47.48556" lon="6.75756">
        <ele>396</ele>
        <time>2015-12-20T09:23:23.000Z</time>
      </trkpt>
      <trkpt lat="47.48561" lon="6.75756">
        <ele>396</ele>
        <time>2015-12-20T09:23:29.000Z</time>
      </trkpt>
      <trkpt lat="47.48561" lon="6.75756">
        <ele>397</ele>
        <time>2015-12-20T09:23:30.000Z</time>
      </trkpt>
      <trkpt lat="47.48565" lon="6.75757">
        <ele>397</ele>
        <time>2015-12-20T09:23:34.000Z</time>
      </trkpt>
      <trkpt lat="47.48566" lon="6.75757">
        <ele>397</ele>
        <time>2015-12-20T09:23:35.000Z</time>
      </trkpt>
      <trkpt lat="47.4857" lon="6.75757">
        <ele>397</ele>
        <time>2015-12-20T09:23:38.000Z</time>
      </trkpt>
      <trkpt lat="47.48571" lon="6.75757">
        <ele>397</ele>
        <time>2015-12-20T09:23:39.000Z</time>
      </trkpt>
      <trkpt lat="47.48575" lon="6.75756">
        <ele>398</ele>
        <time>2015-12-20T09:23:43.000Z</time>
      </trkpt>
      <trkpt lat="47.48576" lon="6.75755">
        <ele>398</ele>
        <time>2015-12-20T09:23:44.000Z</time>
      </trkpt>
      <trkpt lat="47.48577" lon="6.75751">
        <ele>398</ele>
        <time>2015-12-20T09:23:49.000Z</time>
      </trkpt>
      <trkpt lat="47.48578" lon="6.75749">
        <ele>397</ele>
        <time>2015-12-20T09:23:50.000Z</time>
      </trkpt>
      <trkpt lat="47.48575" lon="6.75745">
        <ele>396</ele>
        <time>2015-12-20T09:23:58.000Z</time>
      </trkpt>
      <trkpt lat="47.48574" lon="6.75746">
        <ele>396</ele>
        <time>2015-12-20T09:23:59.000Z</time>
      </trkpt>
      <trkpt lat="47.48571" lon="6.7575">
        <ele>395</ele>
        <time>2015-12-20T09:24:01.000Z</time>
      </trkpt>
      <trkpt lat="47.48569" lon="6.75752">
        <ele>397</ele>
        <time>2015-12-20T09:24:02.000Z</time>
      </trkpt>
      <trkpt lat="47.48568" lon="6.75755">
        <ele>397</ele>
        <time>2015-12-20T09:24:03.000Z</time>
      </trkpt>
      <trkpt lat="47.48566" lon="6.75757">
        <ele>397</ele>
        <time>2015-12-20T09:24:04.000Z</time>
      </trkpt>
      <trkpt lat="47.48562" lon="6.75759">
        <ele>397</ele>
        <time>2015-12-20T09:24:06.000Z</time>
      </trkpt>
      <trkpt lat="47.4856" lon="6.75759">
        <ele>396</ele>
        <time>2015-12-20T09:24:07.000Z</time>
      </trkpt>
      <trkpt lat="47.48557" lon="6.75758">
        <ele>396</ele>
        <time>2015-12-20T09:24:08.000Z</time>
      </trkpt>
      <trkpt lat="47.48555" lon="6.75756">
        <ele>396</ele>
        <time>2015-12-20T09:24:09.000Z</time>
      </trkpt>
      <trkpt lat="47.48553" lon="6.75753">
        <ele>396</ele>
        <time>2015-12-20T09:24:10.000Z</time>
      </trkpt>
      <trkpt lat="47.48551" lon="6.75749">
        <ele>391</ele>
        <time>2015-12-20T09:24:11.000Z</time>
      </trkpt>
      <trkpt lat="47.48549" lon="6.75745">
        <ele>391</ele>
        <time>2015-12-20T09:24:11.999Z</time>
      </trkpt>
      <trkpt lat="47.48548" lon="6.75741">
        <ele>391</ele>
        <time>2015-12-20T09:24:13.000Z</time>
      </trkpt>
      <trkpt lat="47.48548" lon="6.75735">
        <ele>391</ele>
        <time>2015-12-20T09:24:15.000Z</time>
      </trkpt>
      <trkpt lat="47.48549" lon="6.75732">
        <ele>391</ele>
        <time>2015-12-20T09:24:16.000Z</time>
      </trkpt>
      <trkpt lat="47.48551" lon="6.75727">
        <ele>391</ele>
        <time>2015-12-20T09:24:18.000Z</time>
      </trkpt>
      <trkpt lat="47.48552" lon="6.75725">
        <ele>391</ele>
        <time>2015-12-20T09:24:19.000Z</time>
      </trkpt>
      <trkpt lat="47.48554" lon="6.75721">
        <ele>391</ele>
        <time>2015-12-20T09:24:21.000Z</time>
      </trkpt>
      <trkpt lat="47.48555" lon="6.75719">
        <ele>391</ele>
        <time>2015-12-20T09:24:22.000Z</time>
      </trkpt>
      <trkpt lat="47.48557" lon="6.75715">
        <ele>391</ele>
        <time>2015-12-20T09:24:24.000Z</time>
      </trkpt>
      <trkpt lat="47.48559" lon="6.75714">
        <ele>391</ele>
        <time>2015-12-20T09:24:25.000Z</time>
      </trkpt>
      <trkpt lat="47.48562" lon="6.75711">
        <ele>392</ele>
        <time>2015-12-20T09:24:30.000Z</time>
      </trkpt>
      <trkpt lat="47.48563" lon="6.75711">
        <ele>392</ele>
        <time>2015-12-20T09:24:31.000Z</time>
      </trkpt>
      <trkpt lat="47.48567" lon="6.75709">
        <ele>392</ele>
        <time>2015-12-20T09:24:34.001Z</time>
      </trkpt>
      <trkpt lat="47.48569" lon="6.75708">
        <ele>392</ele>
        <time>2015-12-20T09:24:35.000Z</time>
      </trkpt>
      <trkpt lat="47.48572" lon="6.75705">
        <ele>392</ele>
        <time>2015-12-20T09:24:38.000Z</time>
      </trkpt>
      <trkpt lat="47.48573" lon="6.75704">
        <ele>392</ele>
        <time>2015-12-20T09:24:39.000Z</time>
      </trkpt>
      <trkpt lat="47.4857" lon="6.75701">
        <ele>392</ele>
        <time>2015-12-20T09:24:50.000Z</time>
      </trkpt>
      <trkpt lat="47.4857" lon="6.75699">
        <ele>392</ele>
        <time>2015-12-20T09:24:51.000Z</time>
      </trkpt>
      <trkpt lat="47.48571" lon="6.75693">
        <ele>392</ele>
        <time>2015-12-20T09:24:58.000Z</time>
      </trkpt>
      <trkpt lat="47.48571" lon="6.75692">
        <ele>392</ele>
        <time>2015-12-20T09:24:59.000Z</time>
      </trkpt>
      <trkpt lat="47.48573" lon="6.75686">
        <ele>393</ele>
        <time>2015-12-20T09:25:04.000Z</time>
      </trkpt>
      <trkpt lat="47.48574" lon="6.75685">
        <ele>393</ele>
        <time>2015-12-20T09:25:05.000Z</time>
      </trkpt>
      <trkpt lat="47.48575" lon="6.75679">
        <ele>394</ele>
        <time>2015-12-20T09:25:09.000Z</time>
      </trkpt>
      <trkpt lat="47.48575" lon="6.75678">
        <ele>394</ele>
        <time>2015-12-20T09:25:10.000Z</time>
      </trkpt>
      <trkpt lat="47.48578" lon="6.75673">
        <ele>395</ele>
        <time>2015-12-20T09:25:14.000Z</time>
      </trkpt>
      <trkpt lat="47.48578" lon="6.75671">
        <ele>395</ele>
        <time>2015-12-20T09:25:15.000Z</time>
      </trkpt>
      <trkpt lat="47.4858" lon="6.75665">
        <ele>396</ele>
        <time>2015-12-20T09:25:20.000Z</time>
      </trkpt>
      <trkpt lat="47.4858" lon="6.75664">
        <ele>395</ele>
        <time>2015-12-20T09:25:21.000Z</time>
      </trkpt>
      <trkpt lat="47.48583" lon="6.7566">
        <ele>395</ele>
        <time>2015-12-20T09:25:26.000Z</time>
      </trkpt>
      <trkpt lat="47.48584" lon="6.7566">
        <ele>400</ele>
        <time>2015-12-20T09:25:27.000Z</time>
      </trkpt>
      <trkpt lat="47.48588" lon="6.75656">
        <ele>401</ele>
        <time>2015-12-20T09:25:35.000Z</time>
      </trkpt>
      <trkpt lat="47.48588" lon="6.75656">
        <ele>401</ele>
        <time>2015-12-20T09:25:36.000Z</time>
      </trkpt>
      <trkpt lat="47.48589" lon="6.75651">
        <ele>402</ele>
        <time>2015-12-20T09:25:47.000Z</time>
      </trkpt>
      <trkpt lat="47.48589" lon="6.75648">
        <ele>403</ele>
        <time>2015-12-20T09:25:48.000Z</time>
      </trkpt>
      <trkpt lat="47.48592" lon="6.75644">
        <ele>404</ele>
        <time>2015-12-20T09:25:51.000Z</time>
      </trkpt>
      <trkpt lat="47.48593" lon="6.75642">
        <ele>404</ele>
        <time>2015-12-20T09:25:52.000Z</time>
      </trkpt>
      <trkpt lat="47.48594" lon="6.75636">
        <ele>405</ele>
        <time>2015-12-20T09:25:56.000Z</time>
      </trkpt>
      <trkpt lat="47.48594" lon="6.75634">
        <ele>405</ele>
        <time>2015-12-20T09:25:57.000Z</time>
      </trkpt>
      <trkpt lat="47.48593" lon="6.75631">
        <ele>405</ele>
        <time>2015-12-20T09:25:58.000Z</time>
      </trkpt>
      <trkpt lat="47.48592" lon="6.75628">
        <ele>405</ele>
        <time>2015-12-20T09:25:59.000Z</time>
      </trkpt>
      <trkpt lat="47.4859" lon="6.75624">
        <ele>405</ele>
        <time>2015-12-20T09:26:00.000Z</time>
      </trkpt>
      <trkpt lat="47.48589" lon="6.7562">
        <ele>405</ele>
        <time>2015-12-20T09:26:01.000Z</time>
      </trkpt>
      <trkpt lat="47.48588" lon="6.75617">
        <ele>404</ele>
        <time>2015-12-20T09:26:02.000Z</time>
      </trkpt>
      <trkpt lat="47.48587" lon="6.75613">
        <ele>404</ele>
        <time>2015-12-20T09:26:03.000Z</time>
      </trkpt>
      <trkpt lat="47.48586" lon="6.7561">
        <ele>404</ele>
        <time>2015-12-20T09:26:04.000Z</time>
      </trkpt>
      <trkpt lat="47.48586" lon="6.75606">
        <ele>404</ele>
        <time>2015-12-20T09:26:05.000Z</time>
      </trkpt>
      <trkpt lat="47.48585" lon="6.75602">
        <ele>403</ele>
        <time>2015-12-20T09:26:06.000Z</time>
      </trkpt>
      <trkpt lat="47.48585" lon="6.75597">
        <ele>402</ele>
        <time>2015-12-20T09:26:07.000Z</time>
      </trkpt>
      <trkpt lat="47.48584" lon="6.75592">
        <ele>401</ele>
        <time>2015-12-20T09:26:08.000Z</time>
      </trkpt>
      <trkpt lat="47.48583" lon="6.75588">
        <ele>396</ele>
        <time>2015-12-20T09:26:09.000Z</time>
      </trkpt>
      <trkpt lat="47.48582" lon="6.75582">
        <ele>397</ele>
        <time>2015-12-20T09:26:11.000Z</time>
      </trkpt>
      <trkpt lat="47.48582" lon="6.75577">
        <ele>396</ele>
        <time>2015-12-20T09:26:12.000Z</time>
      </trkpt>
      <trkpt lat="47.48582" lon="6.75572">
        <ele>395</ele>
        <time>2015-12-20T09:26:13.000Z</time>
      </trkpt>
      <trkpt lat="47.48582" lon="6.75566">
        <ele>393</ele>
        <time>2015-12-20T09:26:14.000Z</time>
      </trkpt>
      <trkpt lat="47.48582" lon="6.7556">
        <ele>393</ele>
        <time>2015-12-20T09:26:15.000Z</time>
      </trkpt>
      <trkpt lat="47.48581" lon="6.75555">
        <ele>392</ele>
        <time>2015-12-20T09:26:16.000Z</time>
      </trkpt>
      <trkpt lat="47.4858" lon="6.7555">
        <ele>392</ele>
        <time>2015-12-20T09:26:17.000Z</time>
      </trkpt>
      <trkpt lat="47.48579" lon="6.75545">
        <ele>392</ele>
        <time>2015-12-20T09:26:18.000Z</time>
      </trkpt>
      <trkpt lat="47.48578" lon="6.75541">
        <ele>392</ele>
        <time>2015-12-20T09:26:19.000Z</time>
      </trkpt>
      <trkpt lat="47.48576" lon="6.75537">
        <ele>392</ele>
        <time>2015-12-20T09:26:20.000Z</time>
      </trkpt>
      <trkpt lat="47.48575" lon="6.75533">
        <ele>392</ele>
        <time>2015-12-20T09:26:20.999Z</time>
      </trkpt>
      <trkpt lat="47.48573" lon="6.75527">
        <ele>393</ele>
        <time>2015-12-20T09:26:22.000Z</time>
      </trkpt>
      <trkpt lat="47.48571" lon="6.75521">
        <ele>393</ele>
        <time>2015-12-20T09:26:23.000Z</time>
      </trkpt>
      <trkpt lat="47.48569" lon="6.75516">
        <ele>394</ele>
        <time>2015-12-20T09:26:24.000Z</time>
      </trkpt>
      <trkpt lat="47.48567" lon="6.7551">
        <ele>394</ele>
        <time>2015-12-20T09:26:25.000Z</time>
      </trkpt>
      <trkpt lat="47.48563" lon="6.75497">
        <ele>394</ele>
        <time>2015-12-20T09:26:26.000Z</time>
      </trkpt>
      <trkpt lat="47.48561" lon="6.7549">
        <ele>393</ele>
        <time>2015-12-20T09:26:27.000Z</time>
      </trkpt>
      <trkpt lat="47.48559" lon="6.75483">
        <ele>392</ele>
        <time>2015-12-20T09:26:28.000Z</time>
      </trkpt>
      <trkpt lat="47.48558" lon="6.75477">
        <ele>391</ele>
        <time>2015-12-20T09:26:29.000Z</time>
      </trkpt>
      <trkpt lat="47.48557" lon="6.75473">
        <ele>391</ele>
        <time>2015-12-20T09:26:30.000Z</time>
      </trkpt>
      <trkpt lat="47.48556" lon="6.75469">
        <ele>390</ele>
        <time>2015-12-20T09:26:32.000Z</time>
      </trkpt>
      <trkpt lat="47.48555" lon="6.75466">
        <ele>390</ele>
        <time>2015-12-20T09:26:33.000Z</time>
      </trkpt>
      <trkpt lat="47.48556" lon="6.75461">
        <ele>390</ele>
        <time>2015-12-20T09:26:43.000Z</time>
      </trkpt>
      <trkpt lat="47.48556" lon="6.75459">
        <ele>390</ele>
        <time>2015-12-20T09:26:44.000Z</time>
      </trkpt>
      <trkpt lat="47.48555" lon="6.75454">
        <ele>390</ele>
        <time>2015-12-20T09:26:49.000Z</time>
      </trkpt>
      <trkpt lat="47.48555" lon="6.75451">
        <ele>390</ele>
        <time>2015-12-20T09:26:50.000Z</time>
      </trkpt>
      <trkpt lat="47.48554" lon="6.75448">
        <ele>390</ele>
        <time>2015-12-20T09:26:51.000Z</time>
      </trkpt>
      <trkpt lat="47.48554" lon="6.75444">
        <ele>390</ele>
        <time>2015-12-20T09:26:52.000Z</time>
      </trkpt>
      <trkpt lat="47.48553" lon="6.7544">
        <ele>390</ele>
        <time>2015-12-20T09:26:53.000Z</time>
      </trkpt>
      <trkpt lat="47.48551" lon="6.75435">
        <ele>390</ele>
        <time>2015-12-20T09:26:54.000Z</time>
      </trkpt>
      <trkpt lat="47.48549" lon="6.7543">
        <ele>389</ele>
        <time>2015-12-20T09:26:55.000Z</time>
      </trkpt>
      <trkpt lat="47.48546" lon="6.75423">
        <ele>389</ele>
        <time>2015-12-20T09:26:56.000Z</time>
      </trkpt>
      <trkpt lat="47.48543" lon="6.75411">
        <ele>389</ele>
        <time>2015-12-20T09:26:57.000Z</time>
      </trkpt>
      <trkpt lat="47.48541" lon="6.75406">
        <ele>388</ele>
        <time>2015-12-20T09:26:58.000Z</time>
      </trkpt>
      <trkpt lat="47.4854" lon="6.754">
        <ele>388</ele>
        <time>2015-12-20T09:26:59.000Z</time>
      </trkpt>
      <trkpt lat="47.48538" lon="6.75394">
        <ele>388</ele>
        <time>2015-12-20T09:27:00.000Z</time>
      </trkpt>
      <trkpt lat="47.48536" lon="6.75388">
        <ele>388</ele>
        <time>2015-12-20T09:27:01.000Z</time>
      </trkpt>
      <trkpt lat="47.48534" lon="6.75381">
        <ele>387</ele>
        <time>2015-12-20T09:27:02.000Z</time>
      </trkpt>
      <trkpt lat="47.48534" lon="6.75375">
        <ele>387</ele>
        <time>2015-12-20T09:27:03.000Z</time>
      </trkpt>
      <trkpt lat="47.48533" lon="6.75368">
        <ele>387</ele>
        <time>2015-12-20T09:27:04.000Z</time>
      </trkpt>
      <trkpt lat="47.48532" lon="6.75362">
        <ele>387</ele>
        <time>2015-12-20T09:27:05.000Z</time>
      </trkpt>
      <trkpt lat="47.48529" lon="6.75352">
        <ele>386</ele>
        <time>2015-12-20T09:27:06.000Z</time>
      </trkpt>
      <trkpt lat="47.48527" lon="6.75344">
        <ele>385</ele>
        <time>2015-12-20T09:27:07.000Z</time>
      </trkpt>
      <trkpt lat="47.48526" lon="6.75336">
        <ele>385</ele>
        <time>2015-12-20T09:27:08.000Z</time>
      </trkpt>
      <trkpt lat="47.48525" lon="6.75329">
        <ele>386</ele>
        <time>2015-12-20T09:27:09.000Z</time>
      </trkpt>
      <trkpt lat="47.48524" lon="6.75323">
        <ele>386</ele>
        <time>2015-12-20T09:27:10.000Z</time>
      </trkpt>
      <trkpt lat="47.48522" lon="6.75316">
        <ele>387</ele>
        <time>2015-12-20T09:27:11.000Z</time>
      </trkpt>
      <trkpt lat="47.48522" lon="6.7531">
        <ele>387</ele>
        <time>2015-12-20T09:27:12.000Z</time>
      </trkpt>
      <trkpt lat="47.48522" lon="6.75305">
        <ele>388</ele>
        <time>2015-12-20T09:27:13.000Z</time>
      </trkpt>
      <trkpt lat="47.48522" lon="6.75299">
        <ele>388</ele>
        <time>2015-12-20T09:27:14.000Z</time>
      </trkpt>
      <trkpt lat="47.48521" lon="6.75295">
        <ele>388</ele>
        <time>2015-12-20T09:27:15.000Z</time>
      </trkpt>
      <trkpt lat="47.48521" lon="6.75289">
        <ele>388</ele>
        <time>2015-12-20T09:27:16.000Z</time>
      </trkpt>
      <trkpt lat="47.4852" lon="6.75284">
        <ele>388</ele>
        <time>2015-12-20T09:27:17.000Z</time>
      </trkpt>
      <trkpt lat="47.48519" lon="6.7528">
        <ele>388</ele>
        <time>2015-12-20T09:27:18.000Z</time>
      </trkpt>
      <trkpt lat="47.48518" lon="6.75276">
        <ele>387</ele>
        <time>2015-12-20T09:27:19.000Z</time>
      </trkpt>
      <trkpt lat="47.48517" lon="6.75269">
        <ele>386</ele>
        <time>2015-12-20T09:27:20.000Z</time>
      </trkpt>
      <trkpt lat="47.48516" lon="6.75264">
        <ele>385</ele>
        <time>2015-12-20T09:27:21.000Z</time>
      </trkpt>
      <trkpt lat="47.48516" lon="6.75259">
        <ele>385</ele>
        <time>2015-12-20T09:27:22.000Z</time>
      </trkpt>
      <trkpt lat="47.48515" lon="6.75253">
        <ele>384</ele>
        <time>2015-12-20T09:27:23.000Z</time>
      </trkpt>
      <trkpt lat="47.48514" lon="6.75247">
        <ele>383</ele>
        <time>2015-12-20T09:27:24.000Z</time>
      </trkpt>
      <trkpt lat="47.48513" lon="6.75241">
        <ele>383</ele>
        <time>2015-12-20T09:27:25.000Z</time>
      </trkpt>
      <trkpt lat="47.48512" lon="6.75235">
        <ele>384</ele>
        <time>2015-12-20T09:27:26.000Z</time>
      </trkpt>
      <trkpt lat="47.48511" lon="6.75229">
        <ele>385</ele>
        <time>2015-12-20T09:27:27.000Z</time>
      </trkpt>
      <trkpt lat="47.48508" lon="6.75221">
        <ele>385</ele>
        <time>2015-12-20T09:27:28.000Z</time>
      </trkpt>
      <trkpt lat="47.48506" lon="6.75214">
        <ele>385</ele>
        <time>2015-12-20T09:27:29.000Z</time>
      </trkpt>
      <trkpt lat="47.48502" lon="6.75209">
        <ele>385</ele>
        <time>2015-12-20T09:27:30.000Z</time>
      </trkpt>
      <trkpt lat="47.485" lon="6.75203">
        <ele>366</ele>
        <time>2015-12-20T09:27:31.000Z</time>
      </trkpt>
      <trkpt lat="47.48498" lon="6.75202">
        <ele>366</ele>
        <time>2015-12-20T09:27:32.000Z</time>
      </trkpt>
      <trkpt lat="47.48497" lon="6.75198">
        <ele>366</ele>
        <time>2015-12-20T09:27:33.000Z</time>
      </trkpt>
      <trkpt lat="47.485" lon="6.75201">
        <ele>385</ele>
        <time>2015-12-20T09:27:44.000Z</time>
      </trkpt>
      <trkpt lat="47.48501" lon="6.75201">
        <ele>385</ele>
        <time>2015-12-20T09:27:45.000Z</time>
      </trkpt>
      <trkpt lat="47.48502" lon="6.75195">
        <ele>384</ele>
        <time>2015-12-20T09:27:54.000Z</time>
      </trkpt>
      <trkpt lat="47.48503" lon="6.75195">
        <ele>384</ele>
        <time>2015-12-20T09:27:55.000Z</time>
      </trkpt>
      <trkpt lat="47.48505" lon="6.7519">
        <ele>383</ele>
        <time>2015-12-20T09:28:01.000Z</time>
      </trkpt>
      <trkpt lat="47.48506" lon="6.75189">
        <ele>383</ele>
        <time>2015-12-20T09:28:02.000Z</time>
      </trkpt>
      <trkpt lat="47.48506" lon="6.75184">
        <ele>382</ele>
        <time>2015-12-20T09:28:04.000Z</time>
      </trkpt>
      <trkpt lat="47.48507" lon="6.75181">
        <ele>381</ele>
        <time>2015-12-20T09:28:05.000Z</time>
      </trkpt>
      <trkpt lat="47.48507" lon="6.75175">
        <ele>380</ele>
        <time>2015-12-20T09:28:07.000Z</time>
      </trkpt>
      <trkpt lat="47.48508" lon="6.75172">
        <ele>379</ele>
        <time>2015-12-20T09:28:08.000Z</time>
      </trkpt>
      <trkpt lat="47.48509" lon="6.75167">
        <ele>379</ele>
        <time>2015-12-20T09:28:10.000Z</time>
      </trkpt>
      <trkpt lat="47.4851" lon="6.75164">
        <ele>377</ele>
        <time>2015-12-20T09:28:11.000Z</time>
      </trkpt>
      <trkpt lat="47.4851" lon="6.75159">
        <ele>378</ele>
        <time>2015-12-20T09:28:13.000Z</time>
      </trkpt>
      <trkpt lat="47.4851" lon="6.75156">
        <ele>379</ele>
        <time>2015-12-20T09:28:14.000Z</time>
      </trkpt>
      <trkpt lat="47.4851" lon="6.75152">
        <ele>379</ele>
        <time>2015-12-20T09:28:15.000Z</time>
      </trkpt>
      <trkpt lat="47.4851" lon="6.75147">
        <ele>380</ele>
        <time>2015-12-20T09:28:16.000Z</time>
      </trkpt>
      <trkpt lat="47.4851" lon="6.75143">
        <ele>380</ele>
        <time>2015-12-20T09:28:17.000Z</time>
      </trkpt>
      <trkpt lat="47.48511" lon="6.75138">
        <ele>381</ele>
        <time>2015-12-20T09:28:18.000Z</time>
      </trkpt>
      <trkpt lat="47.48511" lon="6.75134">
        <ele>381</ele>
        <time>2015-12-20T09:28:19.000Z</time>
      </trkpt>
      <trkpt lat="47.48511" lon="6.75129">
        <ele>381</ele>
        <time>2015-12-20T09:28:20.000Z</time>
      </trkpt>
      <trkpt lat="47.48512" lon="6.75125">
        <ele>381</ele>
        <time>2015-12-20T09:28:21.000Z</time>
      </trkpt>
      <trkpt lat="47.48512" lon="6.75121">
        <ele>380</ele>
        <time>2015-12-20T09:28:22.000Z</time>
      </trkpt>
      <trkpt lat="47.48512" lon="6.75117">
        <ele>380</ele>
        <time>2015-12-20T09:28:23.000Z</time>
      </trkpt>
      <trkpt lat="47.48513" lon="6.75113">
        <ele>380</ele>
        <time>2015-12-20T09:28:24.000Z</time>
      </trkpt>
      <trkpt lat="47.48514" lon="6.7511">
        <ele>379</ele>
        <time>2015-12-20T09:28:25.000Z</time>
      </trkpt>
      <trkpt lat="47.48516" lon="6.75107">
        <ele>379</ele>
        <time>2015-12-20T09:28:26.000Z</time>
      </trkpt>
      <trkpt lat="47.48519" lon="6.75102">
        <ele>379</ele>
        <time>2015-12-20T09:28:28.000Z</time>
      </trkpt>
      <trkpt lat="47.48521" lon="6.75101">
        <ele>379</ele>
        <time>2015-12-20T09:28:29.000Z</time>
      </trkpt>
      <trkpt lat="47.48523" lon="6.75097">
        <ele>379</ele>
        <time>2015-12-20T09:28:31.000Z</time>
      </trkpt>
      <trkpt lat="47.48524" lon="6.75095">
        <ele>379</ele>
        <time>2015-12-20T09:28:32.000Z</time>
      </trkpt>
      <trkpt lat="47.48525" lon="6.75089">
        <ele>379</ele>
        <time>2015-12-20T09:28:38.000Z</time>
      </trkpt>
      <trkpt lat="47.48525" lon="6.75088">
        <ele>379</ele>
        <time>2015-12-20T09:28:39.000Z</time>
      </trkpt>
      <trkpt lat="47.48526" lon="6.75083">
        <ele>377</ele>
        <time>2015-12-20T09:28:43.000Z</time>
      </trkpt>
      <trkpt lat="47.48526" lon="6.7508">
        <ele>377</ele>
        <time>2015-12-20T09:28:44.000Z</time>
      </trkpt>
      <trkpt lat="47.48526" lon="6.75076">
        <ele>377</ele>
        <time>2015-12-20T09:28:46.000Z</time>
      </trkpt>
      <trkpt lat="47.48527" lon="6.75073">
        <ele>377</ele>
        <time>2015-12-20T09:28:47.000Z</time>
      </trkpt>
      <trkpt lat="47.48529" lon="6.75068">
        <ele>378</ele>
        <time>2015-12-20T09:28:50.000Z</time>
      </trkpt>
      <trkpt lat="47.48529" lon="6.75066">
        <ele>378</ele>
        <time>2015-12-20T09:28:51.000Z</time>
      </trkpt>
      <trkpt lat="47.48531" lon="6.75062">
        <ele>379</ele>
        <time>2015-12-20T09:28:55.000Z</time>
      </trkpt>
      <trkpt lat="47.48531" lon="6.7506">
        <ele>379</ele>
        <time>2015-12-20T09:28:56.000Z</time>
      </trkpt>
      <trkpt lat="47.48532" lon="6.75053">
        <ele>379</ele>
        <time>2015-12-20T09:28:59.000Z</time>
      </trkpt>
      <trkpt lat="47.48532" lon="6.75051">
        <ele>379</ele>
        <time>2015-12-20T09:29:00.000Z</time>
      </trkpt>
      <trkpt lat="47.48532" lon="6.75046">
        <ele>379</ele>
        <time>2015-12-20T09:29:02.000Z</time>
      </trkpt>
      <trkpt lat="47.48532" lon="6.75044">
        <ele>379</ele>
        <time>2015-12-20T09:29:03.000Z</time>
      </trkpt>
      <trkpt lat="47.48533" lon="6.75039">
        <ele>379</ele>
        <time>2015-12-20T09:29:06.000Z</time>
      </trkpt>
      <trkpt lat="47.48533" lon="6.75037">
        <ele>379</ele>
        <time>2015-12-20T09:29:07.000Z</time>
      </trkpt>
      <trkpt lat="47.48532" lon="6.75031">
        <ele>379</ele>
        <time>2015-12-20T09:29:10.000Z</time>
      </trkpt>
      <trkpt lat="47.48532" lon="6.75029">
        <ele>379</ele>
        <time>2015-12-20T09:29:11.000Z</time>
      </trkpt>
      <trkpt lat="47.48531" lon="6.75024">
        <ele>378</ele>
        <time>2015-12-20T09:29:13.000Z</time>
      </trkpt>
      <trkpt lat="47.48531" lon="6.75021">
        <ele>378</ele>
        <time>2015-12-20T09:29:14.000Z</time>
      </trkpt>
      <trkpt lat="47.48532" lon="6.75016">
        <ele>378</ele>
        <time>2015-12-20T09:29:18.000Z</time>
      </trkpt>
      <trkpt lat="47.48532" lon="6.75015">
        <ele>378</ele>
        <time>2015-12-20T09:29:19.000Z</time>
      </trkpt>
      <trkpt lat="47.48533" lon="6.75009">
        <ele>378</ele>
        <time>2015-12-20T09:29:23.000Z</time>
      </trkpt>
      <trkpt lat="47.48533" lon="6.75008">
        <ele>378</ele>
        <time>2015-12-20T09:29:24.000Z</time>
      </trkpt>
      <trkpt lat="47.48535" lon="6.75002">
        <ele>378</ele>
        <time>2015-12-20T09:29:28.000Z</time>
      </trkpt>
      <trkpt lat="47.48535" lon="6.75">
        <ele>378</ele>
        <time>2015-12-20T09:29:29.000Z</time>
      </trkpt>
      <trkpt lat="47.48536" lon="6.74993">
        <ele>378</ele>
        <time>2015-12-20T09:29:32.000Z</time>
      </trkpt>
      <trkpt lat="47.48536" lon="6.74991">
        <ele>379</ele>
        <time>2015-12-20T09:29:33.000Z</time>
      </trkpt>
      <trkpt lat="47.48539" lon="6.74987">
        <ele>379</ele>
        <time>2015-12-20T09:29:36.000Z</time>
      </trkpt>
      <trkpt lat="47.48539" lon="6.74986">
        <ele>380</ele>
        <time>2015-12-20T09:29:37.000Z</time>
      </trkpt>
      <trkpt lat="47.48541" lon="6.7498">
        <ele>380</ele>
        <time>2015-12-20T09:29:40.000Z</time>
      </trkpt>
      <trkpt lat="47.48541" lon="6.74979">
        <ele>380</ele>
        <time>2015-12-20T09:29:41.000Z</time>
      </trkpt>
      <trkpt lat="47.48543" lon="6.74973">
        <ele>381</ele>
        <time>2015-12-20T09:29:44.000Z</time>
      </trkpt>
      <trkpt lat="47.48543" lon="6.74972">
        <ele>381</ele>
        <time>2015-12-20T09:29:45.000Z</time>
      </trkpt>
      <trkpt lat="47.48544" lon="6.74966">
        <ele>381</ele>
        <time>2015-12-20T09:29:49.000Z</time>
      </trkpt>
      <trkpt lat="47.48543" lon="6.74964">
        <ele>381</ele>
        <time>2015-12-20T09:29:50.000Z</time>
      </trkpt>
      <trkpt lat="47.48543" lon="6.74958">
        <ele>381</ele>
        <time>2015-12-20T09:29:53.000Z</time>
      </trkpt>
      <trkpt lat="47.48543" lon="6.74955">
        <ele>381</ele>
        <time>2015-12-20T09:29:54.000Z</time>
      </trkpt>
      <trkpt lat="47.48543" lon="6.74949">
        <ele>381</ele>
        <time>2015-12-20T09:29:57.000Z</time>
      </trkpt>
      <trkpt lat="47.48543" lon="6.74947">
        <ele>381</ele>
        <time>2015-12-20T09:29:58.000Z</time>
      </trkpt>
      <trkpt lat="47.48546" lon="6.74942">
        <ele>382</ele>
        <time>2015-12-20T09:30:01.000Z</time>
      </trkpt>
      <trkpt lat="47.48546" lon="6.74941">
        <ele>382</ele>
        <time>2015-12-20T09:30:02.000Z</time>
      </trkpt>
      <trkpt lat="47.48547" lon="6.74936">
        <ele>382</ele>
        <time>2015-12-20T09:30:05.000Z</time>
      </trkpt>
      <trkpt lat="47.48547" lon="6.74934">
        <ele>382</ele>
        <time>2015-12-20T09:30:06.000Z</time>
      </trkpt>
      <trkpt lat="47.48548" lon="6.74928">
        <ele>383</ele>
        <time>2015-12-20T09:30:09.000Z</time>
      </trkpt>
      <trkpt lat="47.48548" lon="6.74927">
        <ele>383</ele>
        <time>2015-12-20T09:30:10.000Z</time>
      </trkpt>
      <trkpt lat="47.48551" lon="6.74921">
        <ele>384</ele>
        <time>2015-12-20T09:30:14.000Z</time>
      </trkpt>
      <trkpt lat="47.48551" lon="6.74919">
        <ele>384</ele>
        <time>2015-12-20T09:30:15.000Z</time>
      </trkpt>
      <trkpt lat="47.48552" lon="6.74914">
        <ele>386</ele>
        <time>2015-12-20T09:30:18.000Z</time>
      </trkpt>
      <trkpt lat="47.48553" lon="6.74912">
        <ele>386</ele>
        <time>2015-12-20T09:30:19.000Z</time>
      </trkpt>
      <trkpt lat="47.48555" lon="6.74909">
        <ele>387</ele>
        <time>2015-12-20T09:30:21.000Z</time>
      </trkpt>
      <trkpt lat="47.48556" lon="6.74907">
        <ele>387</ele>
        <time>2015-12-20T09:30:22.000Z</time>
      </trkpt>
      <trkpt lat="47.48558" lon="6.74902">
        <ele>387</ele>
        <time>2015-12-20T09:30:24.000Z</time>
      </trkpt>
      <trkpt lat="47.48558" lon="6.749">
        <ele>387</ele>
        <time>2015-12-20T09:30:25.000Z</time>
      </trkpt>
      <trkpt lat="47.48558" lon="6.74895">
        <ele>387</ele>
        <time>2015-12-20T09:30:27.000Z</time>
      </trkpt>
      <trkpt lat="47.48558" lon="6.74893">
        <ele>387</ele>
        <time>2015-12-20T09:30:28.000Z</time>
      </trkpt>
      <trkpt lat="47.48559" lon="6.74888">
        <ele>387</ele>
        <time>2015-12-20T09:30:31.000Z</time>
      </trkpt>
      <trkpt lat="47.48559" lon="6.74886">
        <ele>387</ele>
        <time>2015-12-20T09:30:32.000Z</time>
      </trkpt>
      <trkpt lat="47.4856" lon="6.74882">
        <ele>387</ele>
        <time>2015-12-20T09:30:34.000Z</time>
      </trkpt>
      <trkpt lat="47.48561" lon="6.7488">
        <ele>387</ele>
        <time>2015-12-20T09:30:35.000Z</time>
      </trkpt>
      <trkpt lat="47.48561" lon="6.74875">
        <ele>387</ele>
        <time>2015-12-20T09:30:38.000Z</time>
      </trkpt>
      <trkpt lat="47.48561" lon="6.74873">
        <ele>387</ele>
        <time>2015-12-20T09:30:39.000Z</time>
      </trkpt>
      <trkpt lat="47.48562" lon="6.74868">
        <ele>388</ele>
        <time>2015-12-20T09:30:42.000Z</time>
      </trkpt>
      <trkpt lat="47.48564" lon="6.74867">
        <ele>388</ele>
        <time>2015-12-20T09:30:43.000Z</time>
      </trkpt>
      <trkpt lat="47.48566" lon="6.74861">
        <ele>389</ele>
        <time>2015-12-20T09:30:46.000Z</time>
      </trkpt>
      <trkpt lat="47.48566" lon="6.7486">
        <ele>389</ele>
        <time>2015-12-20T09:30:47.000Z</time>
      </trkpt>
      <trkpt lat="47.48568" lon="6.74855">
        <ele>390</ele>
        <time>2015-12-20T09:30:50.000Z</time>
      </trkpt>
      <trkpt lat="47.48568" lon="6.74853">
        <ele>391</ele>
        <time>2015-12-20T09:30:51.000Z</time>
      </trkpt>
      <trkpt lat="47.48569" lon="6.74847">
        <ele>392</ele>
        <time>2015-12-20T09:30:54.000Z</time>
      </trkpt>
      <trkpt lat="47.48569" lon="6.74845">
        <ele>393</ele>
        <time>2015-12-20T09:30:55.000Z</time>
      </trkpt>
      <trkpt lat="47.4857" lon="6.74839">
        <ele>394</ele>
        <time>2015-12-20T09:30:57.000Z</time>
      </trkpt>
      <trkpt lat="47.4857" lon="6.74835">
        <ele>394</ele>
        <time>2015-12-20T09:30:58.000Z</time>
      </trkpt>
      <trkpt lat="47.4857" lon="6.74829">
        <ele>396</ele>
        <time>2015-12-20T09:31:00.000Z</time>
      </trkpt>
      <trkpt lat="47.4857" lon="6.74827">
        <ele>396</ele>
        <time>2015-12-20T09:31:01.000Z</time>
      </trkpt>
      <trkpt lat="47.48572" lon="6.74822">
        <ele>396</ele>
        <time>2015-12-20T09:31:03.000Z</time>
      </trkpt>
      <trkpt lat="47.48572" lon="6.7482">
        <ele>395</ele>
        <time>2015-12-20T09:31:04.000Z</time>
      </trkpt>
      <trkpt lat="47.48573" lon="6.74815">
        <ele>395</ele>
        <time>2015-12-20T09:31:06.000Z</time>
      </trkpt>
      <trkpt lat="47.48573" lon="6.74812">
        <ele>394</ele>
        <time>2015-12-20T09:31:07.000Z</time>
      </trkpt>
      <trkpt lat="47.48573" lon="6.74807">
        <ele>394</ele>
        <time>2015-12-20T09:31:09.000Z</time>
      </trkpt>
      <trkpt lat="47.48573" lon="6.74804">
        <ele>394</ele>
        <time>2015-12-20T09:31:10.000Z</time>
      </trkpt>
      <trkpt lat="47.48574" lon="6.74799">
        <ele>393</ele>
        <time>2015-12-20T09:31:12.000Z</time>
      </trkpt>
      <trkpt lat="47.48574" lon="6.74797">
        <ele>393</ele>
        <time>2015-12-20T09:31:13.000Z</time>
      </trkpt>
      <trkpt lat="47.48573" lon="6.74791">
        <ele>393</ele>
        <time>2015-12-20T09:31:16.000Z</time>
      </trkpt>
      <trkpt lat="47.48574" lon="6.74788">
        <ele>394</ele>
        <time>2015-12-20T09:31:17.000Z</time>
      </trkpt>
      <trkpt lat="47.48574" lon="6.74784">
        <ele>394</ele>
        <time>2015-12-20T09:31:19.000Z</time>
      </trkpt>
      <trkpt lat="47.48574" lon="6.74781">
        <ele>394</ele>
        <time>2015-12-20T09:31:20.000Z</time>
      </trkpt>
      <trkpt lat="47.48573" lon="6.74775">
        <ele>395</ele>
        <time>2015-12-20T09:31:22.000Z</time>
      </trkpt>
      <trkpt lat="47.48573" lon="6.74772">
        <ele>396</ele>
        <time>2015-12-20T09:31:23.000Z</time>
      </trkpt>
      <trkpt lat="47.48573" lon="6.74767">
        <ele>397</ele>
        <time>2015-12-20T09:31:25.000Z</time>
      </trkpt>
      <trkpt lat="47.48573" lon="6.74764">
        <ele>397</ele>
        <time>2015-12-20T09:31:26.000Z</time>
      </trkpt>
      <trkpt lat="47.48572" lon="6.74758">
        <ele>399</ele>
        <time>2015-12-20T09:31:28.000Z</time>
      </trkpt>
      <trkpt lat="47.48573" lon="6.74755">
        <ele>400</ele>
        <time>2015-12-20T09:31:29.000Z</time>
      </trkpt>
      <trkpt lat="47.48573" lon="6.74749">
        <ele>402</ele>
        <time>2015-12-20T09:31:31.000Z</time>
      </trkpt>
      <trkpt lat="47.48573" lon="6.74747">
        <ele>402</ele>
        <time>2015-12-20T09:31:32.000Z</time>
      </trkpt>
      <trkpt lat="47.48573" lon="6.7474">
        <ele>400</ele>
        <time>2015-12-20T09:31:36.000Z</time>
      </trkpt>
      <trkpt lat="47.48572" lon="6.74737">
        <ele>400</ele>
        <time>2015-12-20T09:31:37.000Z</time>
      </trkpt>
      <trkpt lat="47.48572" lon="6.74733">
        <ele>399</ele>
        <time>2015-12-20T09:31:39.000Z</time>
      </trkpt>
      <trkpt lat="47.48572" lon="6.7473">
        <ele>399</ele>
        <time>2015-12-20T09:31:40.000Z</time>
      </trkpt>
      <trkpt lat="47.48573" lon="6.74725">
        <ele>398</ele>
        <time>2015-12-20T09:31:42.000Z</time>
      </trkpt>
      <trkpt lat="47.48573" lon="6.74722">
        <ele>398</ele>
        <time>2015-12-20T09:31:43.000Z</time>
      </trkpt>
      <trkpt lat="47.48572" lon="6.74717">
        <ele>397</ele>
        <time>2015-12-20T09:31:45.000Z</time>
      </trkpt>
      <trkpt lat="47.48572" lon="6.74714">
        <ele>397</ele>
        <time>2015-12-20T09:31:46.000Z</time>
      </trkpt>
      <trkpt lat="47.48572" lon="6.74709">
        <ele>397</ele>
        <time>2015-12-20T09:31:48.000Z</time>
      </trkpt>
      <trkpt lat="47.48573" lon="6.74707">
        <ele>397</ele>
        <time>2015-12-20T09:31:49.000Z</time>
      </trkpt>
      <trkpt lat="47.48574" lon="6.74701">
        <ele>398</ele>
        <time>2015-12-20T09:31:52.000Z</time>
      </trkpt>
      <trkpt lat="47.48574" lon="6.74699">
        <ele>398</ele>
        <time>2015-12-20T09:31:53.000Z</time>
      </trkpt>
      <trkpt lat="47.48575" lon="6.74695">
        <ele>399</ele>
        <time>2015-12-20T09:31:55.000Z</time>
      </trkpt>
      <trkpt lat="47.48575" lon="6.74693">
        <ele>399</ele>
        <time>2015-12-20T09:31:56.000Z</time>
      </trkpt>
      <trkpt lat="47.48574" lon="6.74688">
        <ele>400</ele>
        <time>2015-12-20T09:31:58.000Z</time>
      </trkpt>
      <trkpt lat="47.48574" lon="6.74685">
        <ele>400</ele>
        <time>2015-12-20T09:31:59.000Z</time>
      </trkpt>
      <trkpt lat="47.48575" lon="6.7468">
        <ele>402</ele>
        <time>2015-12-20T09:32:02.000Z</time>
      </trkpt>
      <trkpt lat="47.48576" lon="6.74678">
        <ele>403</ele>
        <time>2015-12-20T09:32:03.000Z</time>
      </trkpt>
      <trkpt lat="47.48576" lon="6.74672">
        <ele>404</ele>
        <time>2015-12-20T09:32:05.000Z</time>
      </trkpt>
      <trkpt lat="47.48576" lon="6.7467">
        <ele>405</ele>
        <time>2015-12-20T09:32:06.000Z</time>
      </trkpt>
      <trkpt lat="47.48578" lon="6.74665">
        <ele>407</ele>
        <time>2015-12-20T09:32:08.000Z</time>
      </trkpt>
      <trkpt lat="47.48578" lon="6.74663">
        <ele>407</ele>
        <time>2015-12-20T09:32:09.000Z</time>
      </trkpt>
      <trkpt lat="47.48579" lon="6.74659">
        <ele>406</ele>
        <time>2015-12-20T09:32:11.000Z</time>
      </trkpt>
      <trkpt lat="47.48578" lon="6.74656">
        <ele>405</ele>
        <time>2015-12-20T09:32:12.000Z</time>
      </trkpt>
      <trkpt lat="47.48577" lon="6.7465">
        <ele>403</ele>
        <time>2015-12-20T09:32:14.000Z</time>
      </trkpt>
      <trkpt lat="47.48577" lon="6.74646">
        <ele>403</ele>
        <time>2015-12-20T09:32:15.000Z</time>
      </trkpt>
      <trkpt lat="47.48577" lon="6.74642">
        <ele>402</ele>
        <time>2015-12-20T09:32:16.000Z</time>
      </trkpt>
      <trkpt lat="47.48577" lon="6.74638">
        <ele>402</ele>
        <time>2015-12-20T09:32:17.000Z</time>
      </trkpt>
      <trkpt lat="47.48578" lon="6.74633">
        <ele>402</ele>
        <time>2015-12-20T09:32:18.000Z</time>
      </trkpt>
      <trkpt lat="47.48578" lon="6.74628">
        <ele>402</ele>
        <time>2015-12-20T09:32:19.000Z</time>
      </trkpt>
      <trkpt lat="47.48577" lon="6.74622">
        <ele>402</ele>
        <time>2015-12-20T09:32:20.000Z</time>
      </trkpt>
      <trkpt lat="47.48577" lon="6.74618">
        <ele>402</ele>
        <time>2015-12-20T09:32:21.000Z</time>
      </trkpt>
      <trkpt lat="47.48576" lon="6.74613">
        <ele>402</ele>
        <time>2015-12-20T09:32:22.000Z</time>
      </trkpt>
      <trkpt lat="47.48576" lon="6.74609">
        <ele>403</ele>
        <time>2015-12-20T09:32:23.000Z</time>
      </trkpt>
      <trkpt lat="47.48575" lon="6.74603">
        <ele>404</ele>
        <time>2015-12-20T09:32:25.000Z</time>
      </trkpt>
      <trkpt lat="47.48575" lon="6.74599">
        <ele>405</ele>
        <time>2015-12-20T09:32:26.000Z</time>
      </trkpt>
      <trkpt lat="47.48575" lon="6.74595">
        <ele>406</ele>
        <time>2015-12-20T09:32:27.000Z</time>
      </trkpt>
      <trkpt lat="47.48574" lon="6.7459">
        <ele>407</ele>
        <time>2015-12-20T09:32:28.000Z</time>
      </trkpt>
      <trkpt lat="47.48574" lon="6.74586">
        <ele>408</ele>
        <time>2015-12-20T09:32:29.000Z</time>
      </trkpt>
      <trkpt lat="47.48573" lon="6.74581">
        <ele>408</ele>
        <time>2015-12-20T09:32:30.000Z</time>
      </trkpt>
      <trkpt lat="47.48573" lon="6.74577">
        <ele>407</ele>
        <time>2015-12-20T09:32:31.000Z</time>
      </trkpt>
      <trkpt lat="47.48572" lon="6.74573">
        <ele>406</ele>
        <time>2015-12-20T09:32:32.000Z</time>
      </trkpt>
      <trkpt lat="47.48572" lon="6.74568">
        <ele>405</ele>
        <time>2015-12-20T09:32:33.000Z</time>
      </trkpt>
      <trkpt lat="47.48571" lon="6.74563">
        <ele>404</ele>
        <time>2015-12-20T09:32:34.000Z</time>
      </trkpt>
      <trkpt lat="47.48571" lon="6.74558">
        <ele>403</ele>
        <time>2015-12-20T09:32:35.000Z</time>
      </trkpt>
      <trkpt lat="47.4857" lon="6.74554">
        <ele>403</ele>
        <time>2015-12-20T09:32:36.000Z</time>
      </trkpt>
      <trkpt lat="47.48571" lon="6.74549">
        <ele>403</ele>
        <time>2015-12-20T09:32:38.000Z</time>
      </trkpt>
      <trkpt lat="47.48572" lon="6.74547">
        <ele>403</ele>
        <time>2015-12-20T09:32:39.000Z</time>
      </trkpt>
      <trkpt lat="47.48571" lon="6.74541">
        <ele>403</ele>
        <time>2015-12-20T09:32:43.000Z</time>
      </trkpt>
      <trkpt lat="47.48571" lon="6.7454">
        <ele>403</ele>
        <time>2015-12-20T09:32:44.000Z</time>
      </trkpt>
      <trkpt lat="47.48571" lon="6.74534">
        <ele>403</ele>
        <time>2015-12-20T09:32:47.000Z</time>
      </trkpt>
      <trkpt lat="47.48571" lon="6.74533">
        <ele>403</ele>
        <time>2015-12-20T09:32:48.000Z</time>
      </trkpt>
      <trkpt lat="47.48571" lon="6.74527">
        <ele>404</ele>
        <time>2015-12-20T09:32:52.000Z</time>
      </trkpt>
      <trkpt lat="47.48571" lon="6.74526">
        <ele>404</ele>
        <time>2015-12-20T09:32:53.000Z</time>
      </trkpt>
      <trkpt lat="47.4857" lon="6.74521">
        <ele>404</ele>
        <time>2015-12-20T09:33:01.000Z</time>
      </trkpt>
      <trkpt lat="47.48569" lon="6.7452">
        <ele>404</ele>
        <time>2015-12-20T09:33:02.000Z</time>
      </trkpt>
      <trkpt lat="47.48567" lon="6.74515">
        <ele>405</ele>
        <time>2015-12-20T09:33:04.000Z</time>
      </trkpt>
      <trkpt lat="47.48567" lon="6.74514">
        <ele>405</ele>
        <time>2015-12-20T09:33:05.000Z</time>
      </trkpt>
      <trkpt lat="47.48566" lon="6.74509">
        <ele>405</ele>
        <time>2015-12-20T09:33:08.000Z</time>
      </trkpt>
      <trkpt lat="47.48565" lon="6.74507">
        <ele>405</ele>
        <time>2015-12-20T09:33:09.000Z</time>
      </trkpt>
      <trkpt lat="47.48564" lon="6.74502">
        <ele>405</ele>
        <time>2015-12-20T09:33:11.000Z</time>
      </trkpt>
      <trkpt lat="47.48563" lon="6.74499">
        <ele>404</ele>
        <time>2015-12-20T09:33:12.000Z</time>
      </trkpt>
      <trkpt lat="47.48561" lon="6.74494">
        <ele>403</ele>
        <time>2015-12-20T09:33:15.000Z</time>
      </trkpt>
      <trkpt lat="47.48561" lon="6.74491">
        <ele>402</ele>
        <time>2015-12-20T09:33:16.000Z</time>
      </trkpt>
      <trkpt lat="47.48559" lon="6.74485">
        <ele>401</ele>
        <time>2015-12-20T09:33:18.000Z</time>
      </trkpt>
      <trkpt lat="47.48559" lon="6.74482">
        <ele>401</ele>
        <time>2015-12-20T09:33:19.000Z</time>
      </trkpt>
      <trkpt lat="47.48559" lon="6.74478">
        <ele>401</ele>
        <time>2015-12-20T09:33:20.000Z</time>
      </trkpt>
      <trkpt lat="47.48559" lon="6.74475">
        <ele>400</ele>
        <time>2015-12-20T09:33:21.000Z</time>
      </trkpt>
      <trkpt lat="47.48558" lon="6.74469">
        <ele>400</ele>
        <time>2015-12-20T09:33:23.000Z</time>
      </trkpt>
      <trkpt lat="47.48558" lon="6.74466">
        <ele>399</ele>
        <time>2015-12-20T09:33:24.000Z</time>
      </trkpt>
      <trkpt lat="47.48557" lon="6.7446">
        <ele>399</ele>
        <time>2015-12-20T09:33:28.000Z</time>
      </trkpt>
      <trkpt lat="47.48557" lon="6.7446">
        <ele>399</ele>
        <time>2015-12-20T09:33:29.000Z</time>
      </trkpt>
      <trkpt lat="47.48555" lon="6.74456">
        <ele>399</ele>
        <time>2015-12-20T09:33:32.000Z</time>
      </trkpt>
      <trkpt lat="47.48555" lon="6.74453">
        <ele>399</ele>
        <time>2015-12-20T09:33:33.000Z</time>
      </trkpt>
      <trkpt lat="47.48554" lon="6.74449">
        <ele>398</ele>
        <time>2015-12-20T09:33:34.000Z</time>
      </trkpt>
      <trkpt lat="47.48552" lon="6.74444">
        <ele>398</ele>
        <time>2015-12-20T09:33:35.000Z</time>
      </trkpt>
      <trkpt lat="47.48551" lon="6.74438">
        <ele>398</ele>
        <time>2015-12-20T09:33:36.000Z</time>
      </trkpt>
      <trkpt lat="47.48549" lon="6.74432">
        <ele>398</ele>
        <time>2015-12-20T09:33:37.000Z</time>
      </trkpt>
      <trkpt lat="47.48547" lon="6.74425">
        <ele>397</ele>
        <time>2015-12-20T09:33:38.000Z</time>
      </trkpt>
      <trkpt lat="47.48549" lon="6.74405">
        <ele>396</ele>
        <time>2015-12-20T09:33:39.000Z</time>
      </trkpt>
      <trkpt lat="47.48551" lon="6.74396">
        <ele>396</ele>
        <time>2015-12-20T09:33:40.000Z</time>
      </trkpt>
      <trkpt lat="47.48552" lon="6.74389">
        <ele>396</ele>
        <time>2015-12-20T09:33:41.000Z</time>
      </trkpt>
      <trkpt lat="47.48554" lon="6.74381">
        <ele>396</ele>
        <time>2015-12-20T09:33:42.000Z</time>
      </trkpt>
      <trkpt lat="47.48554" lon="6.74371">
        <ele>396</ele>
        <time>2015-12-20T09:33:43.000Z</time>
      </trkpt>
      <trkpt lat="47.48557" lon="6.74361">
        <ele>397</ele>
        <time>2015-12-20T09:33:44.000Z</time>
      </trkpt>
      <trkpt lat="47.48558" lon="6.74352">
        <ele>397</ele>
        <time>2015-12-20T09:33:45.000Z</time>
      </trkpt>
      <trkpt lat="47.48558" lon="6.7434">
        <ele>398</ele>
        <time>2015-12-20T09:33:46.000Z</time>
      </trkpt>
      <trkpt lat="47.48556" lon="6.74325">
        <ele>395</ele>
        <time>2015-12-20T09:33:47.000Z</time>
      </trkpt>
      <trkpt lat="47.48556" lon="6.74313">
        <ele>395</ele>
        <time>2015-12-20T09:33:48.000Z</time>
      </trkpt>
      <trkpt lat="47.48556" lon="6.74302">
        <ele>394</ele>
        <time>2015-12-20T09:33:49.000Z</time>
      </trkpt>
      <trkpt lat="47.48556" lon="6.74293">
        <ele>394</ele>
        <time>2015-12-20T09:33:50.000Z</time>
      </trkpt>
      <trkpt lat="47.48559" lon="6.74284">
        <ele>394</ele>
        <time>2015-12-20T09:33:51.000Z</time>
      </trkpt>
      <trkpt lat="47.48558" lon="6.74272">
        <ele>395</ele>
        <time>2015-12-20T09:33:52.000Z</time>
      </trkpt>
      <trkpt lat="47.48559" lon="6.74263">
        <ele>395</ele>
        <time>2015-12-20T09:33:53.000Z</time>
      </trkpt>
      <trkpt lat="47.4856" lon="6.74253">
        <ele>396</ele>
        <time>2015-12-20T09:33:54.000Z</time>
      </trkpt>
      <trkpt lat="47.48562" lon="6.74241">
        <ele>395</ele>
        <time>2015-12-20T09:33:55.000Z</time>
      </trkpt>
      <trkpt lat="47.48564" lon="6.74231">
        <ele>395</ele>
        <time>2015-12-20T09:33:56.000Z</time>
      </trkpt>
      <trkpt lat="47.48567" lon="6.74222">
        <ele>394</ele>
        <time>2015-12-20T09:33:57.000Z</time>
      </trkpt>
      <trkpt lat="47.48568" lon="6.7421">
        <ele>393</ele>
        <time>2015-12-20T09:33:58.000Z</time>
      </trkpt>
      <trkpt lat="47.48569" lon="6.74195">
        <ele>393</ele>
        <time>2015-12-20T09:33:59.000Z</time>
      </trkpt>
      <trkpt lat="47.48571" lon="6.74177">
        <ele>396</ele>
        <time>2015-12-20T09:34:00.000Z</time>
      </trkpt>
      <trkpt lat="47.48571" lon="6.74158">
        <ele>394</ele>
        <time>2015-12-20T09:34:01.000Z</time>
      </trkpt>
      <trkpt lat="47.4857" lon="6.74143">
        <ele>391</ele>
        <time>2015-12-20T09:34:02.000Z</time>
      </trkpt>
      <trkpt lat="47.4857" lon="6.74128">
        <ele>390</ele>
        <time>2015-12-20T09:34:03.000Z</time>
      </trkpt>
      <trkpt lat="47.48572" lon="6.74115">
        <ele>390</ele>
        <time>2015-12-20T09:34:04.000Z</time>
      </trkpt>
      <trkpt lat="47.48572" lon="6.74102">
        <ele>391</ele>
        <time>2015-12-20T09:34:05.000Z</time>
      </trkpt>
      <trkpt lat="47.48572" lon="6.74092">
        <ele>392</ele>
        <time>2015-12-20T09:34:06.000Z</time>
      </trkpt>
      <trkpt lat="47.48573" lon="6.74081">
        <ele>392</ele>
        <time>2015-12-20T09:34:07.000Z</time>
      </trkpt>
      <trkpt lat="47.48575" lon="6.74071">
        <ele>391</ele>
        <time>2015-12-20T09:34:08.000Z</time>
      </trkpt>
      <trkpt lat="47.48576" lon="6.7406">
        <ele>389</ele>
        <time>2015-12-20T09:34:09.000Z</time>
      </trkpt>
      <trkpt lat="47.48579" lon="6.74049">
        <ele>388</ele>
        <time>2015-12-20T09:34:10.000Z</time>
      </trkpt>
      <trkpt lat="47.48581" lon="6.74039">
        <ele>388</ele>
        <time>2015-12-20T09:34:11.000Z</time>
      </trkpt>
      <trkpt lat="47.48584" lon="6.74027">
        <ele>400</ele>
        <time>2015-12-20T09:34:12.000Z</time>
      </trkpt>
      <trkpt lat="47.48584" lon="6.74017">
        <ele>399</ele>
        <time>2015-12-20T09:34:13.000Z</time>
      </trkpt>
      <trkpt lat="47.48585" lon="6.74012">
        <ele>397</ele>
        <time>2015-12-20T09:34:14.000Z</time>
      </trkpt>
      <trkpt lat="47.48585" lon="6.74003">
        <ele>395</ele>
        <time>2015-12-20T09:34:15.000Z</time>
      </trkpt>
      <trkpt lat="47.48587" lon="6.73999">
        <ele>394</ele>
        <time>2015-12-20T09:34:20.000Z</time>
      </trkpt>
      <trkpt lat="47.48588" lon="6.73999">
        <ele>394</ele>
        <time>2015-12-20T09:34:21.000Z</time>
      </trkpt>
      <trkpt lat="47.4859" lon="6.73994">
        <ele>395</ele>
        <time>2015-12-20T09:34:29.000Z</time>
      </trkpt>
      <trkpt lat="47.4859" lon="6.73991">
        <ele>395</ele>
        <time>2015-12-20T09:34:30.000Z</time>
      </trkpt>
      <trkpt lat="47.48592" lon="6.73985">
        <ele>395</ele>
        <time>2015-12-20T09:34:42.000Z</time>
      </trkpt>
      <trkpt lat="47.48592" lon="6.73985">
        <ele>395</ele>
        <time>2015-12-20T09:34:43.000Z</time>
      </trkpt>
      <trkpt lat="47.48593" lon="6.7398">
        <ele>396</ele>
        <time>2015-12-20T09:35:05.000Z</time>
      </trkpt>
      <trkpt lat="47.48593" lon="6.73978">
        <ele>396</ele>
        <time>2015-12-20T09:35:06.000Z</time>
      </trkpt>
      <trkpt lat="47.48594" lon="6.73975">
        <ele>396</ele>
        <time>2015-12-20T09:35:07.000Z</time>
      </trkpt>
      <trkpt lat="47.48595" lon="6.7397">
        <ele>396</ele>
        <time>2015-12-20T09:35:08.000Z</time>
      </trkpt>
      <trkpt lat="47.48597" lon="6.73965">
        <ele>396</ele>
        <time>2015-12-20T09:35:09.000Z</time>
      </trkpt>
      <trkpt lat="47.48598" lon="6.73959">
        <ele>396</ele>
        <time>2015-12-20T09:35:10.000Z</time>
      </trkpt>
      <trkpt lat="47.48601" lon="6.73946">
        <ele>395</ele>
        <time>2015-12-20T09:35:11.000Z</time>
      </trkpt>
      <trkpt lat="47.48603" lon="6.73939">
        <ele>395</ele>
        <time>2015-12-20T09:35:12.000Z</time>
      </trkpt>
      <trkpt lat="47.48605" lon="6.73932">
        <ele>394</ele>
        <time>2015-12-20T09:35:13.000Z</time>
      </trkpt>
      <trkpt lat="47.48606" lon="6.73924">
        <ele>394</ele>
        <time>2015-12-20T09:35:14.000Z</time>
      </trkpt>
      <trkpt lat="47.48608" lon="6.73917">
        <ele>394</ele>
        <time>2015-12-20T09:35:15.000Z</time>
      </trkpt>
      <trkpt lat="47.48609" lon="6.73911">
        <ele>389</ele>
        <time>2015-12-20T09:35:16.000Z</time>
      </trkpt>
      <trkpt lat="47.48609" lon="6.73904">
        <ele>388</ele>
        <time>2015-12-20T09:35:17.000Z</time>
      </trkpt>
      <trkpt lat="47.48609" lon="6.739">
        <ele>388</ele>
        <time>2015-12-20T09:35:18.000Z</time>
      </trkpt>
      <trkpt lat="47.4861" lon="6.73891">
        <ele>388</ele>
        <time>2015-12-20T09:35:19.000Z</time>
      </trkpt>
      <trkpt lat="47.4861" lon="6.73883">
        <ele>388</ele>
        <time>2015-12-20T09:35:20.000Z</time>
      </trkpt>
      <trkpt lat="47.48611" lon="6.73876">
        <ele>387</ele>
        <time>2015-12-20T09:35:21.000Z</time>
      </trkpt>
      <trkpt lat="47.4861" lon="6.73869">
        <ele>387</ele>
        <time>2015-12-20T09:35:22.000Z</time>
      </trkpt>
      <trkpt lat="47.48611" lon="6.73861">
        <ele>386</ele>
        <time>2015-12-20T09:35:23.000Z</time>
      </trkpt>
      <trkpt lat="47.48614" lon="6.73853">
        <ele>386</ele>
        <time>2015-12-20T09:35:24.000Z</time>
      </trkpt>
      <trkpt lat="47.48615" lon="6.73846">
        <ele>386</ele>
        <time>2015-12-20T09:35:25.000Z</time>
      </trkpt>
      <trkpt lat="47.48617" lon="6.73839">
        <ele>385</ele>
        <time>2015-12-20T09:35:26.000Z</time>
      </trkpt>
      <trkpt lat="47.48618" lon="6.73832">
        <ele>382</ele>
        <time>2015-12-20T09:35:27.000Z</time>
      </trkpt>
      <trkpt lat="47.48619" lon="6.73825">
        <ele>382</ele>
        <time>2015-12-20T09:35:28.000Z</time>
      </trkpt>
      <trkpt lat="47.4862" lon="6.73818">
        <ele>382</ele>
        <time>2015-12-20T09:35:29.000Z</time>
      </trkpt>
      <trkpt lat="47.4862" lon="6.73811">
        <ele>382</ele>
        <time>2015-12-20T09:35:30.000Z</time>
      </trkpt>
      <trkpt lat="47.4862" lon="6.73803">
        <ele>382</ele>
        <time>2015-12-20T09:35:31.000Z</time>
      </trkpt>
      <trkpt lat="47.48619" lon="6.73795">
        <ele>382</ele>
        <time>2015-12-20T09:35:32.000Z</time>
      </trkpt>
      <trkpt lat="47.48607" lon="6.73768">
        <ele>381</ele>
        <time>2015-12-20T09:35:33.000Z</time>
      </trkpt>
      <trkpt lat="47.48606" lon="6.73749">
        <ele>381</ele>
        <time>2015-12-20T09:35:34.000Z</time>
      </trkpt>
      <trkpt lat="47.48605" lon="6.73738">
        <ele>381</ele>
        <time>2015-12-20T09:35:35.000Z</time>
      </trkpt>
      <trkpt lat="47.48603" lon="6.7373">
        <ele>381</ele>
        <time>2015-12-20T09:35:36.000Z</time>
      </trkpt>
      <trkpt lat="47.48602" lon="6.73717">
        <ele>381</ele>
        <time>2015-12-20T09:35:37.000Z</time>
      </trkpt>
      <trkpt lat="47.48601" lon="6.73703">
        <ele>382</ele>
        <time>2015-12-20T09:35:38.000Z</time>
      </trkpt>
      <trkpt lat="47.48601" lon="6.73689">
        <ele>382</ele>
        <time>2015-12-20T09:35:39.000Z</time>
      </trkpt>
      <trkpt lat="47.486" lon="6.73676">
        <ele>382</ele>
        <time>2015-12-20T09:35:40.000Z</time>
      </trkpt>
      <trkpt lat="47.486" lon="6.73663">
        <ele>381</ele>
        <time>2015-12-20T09:35:41.000Z</time>
      </trkpt>
      <trkpt lat="47.48599" lon="6.73652">
        <ele>381</ele>
        <time>2015-12-20T09:35:42.000Z</time>
      </trkpt>
      <trkpt lat="47.48601" lon="6.73644">
        <ele>381</ele>
        <time>2015-12-20T09:35:43.000Z</time>
      </trkpt>
      <trkpt lat="47.48606" lon="6.7363">
        <ele>380</ele>
        <time>2015-12-20T09:35:44.000Z</time>
      </trkpt>
      <trkpt lat="47.48609" lon="6.73618">
        <ele>380</ele>
        <time>2015-12-20T09:35:45.000Z</time>
      </trkpt>
      <trkpt lat="47.4861" lon="6.73608">
        <ele>380</ele>
        <time>2015-12-20T09:35:46.000Z</time>
      </trkpt>
      <trkpt lat="47.48611" lon="6.73596">
        <ele>379</ele>
        <time>2015-12-20T09:35:47.000Z</time>
      </trkpt>
      <trkpt lat="47.48613" lon="6.73585">
        <ele>379</ele>
        <time>2015-12-20T09:35:48.000Z</time>
      </trkpt>
      <trkpt lat="47.48615" lon="6.73574">
        <ele>376</ele>
        <time>2015-12-20T09:35:49.000Z</time>
      </trkpt>
      <trkpt lat="47.48618" lon="6.73564">
        <ele>376</ele>
        <time>2015-12-20T09:35:50.000Z</time>
      </trkpt>
      <trkpt lat="47.48619" lon="6.73556">
        <ele>375</ele>
        <time>2015-12-20T09:35:51.000Z</time>
      </trkpt>
      <trkpt lat="47.48622" lon="6.73547">
        <ele>375</ele>
        <time>2015-12-20T09:35:51.999Z</time>
      </trkpt>
      <trkpt lat="47.48627" lon="6.73541">
        <ele>375</ele>
        <time>2015-12-20T09:35:53.000Z</time>
      </trkpt>
      <trkpt lat="47.48629" lon="6.73534">
        <ele>374</ele>
        <time>2015-12-20T09:35:54.000Z</time>
      </trkpt>
      <trkpt lat="47.48631" lon="6.73527">
        <ele>374</ele>
        <time>2015-12-20T09:35:55.000Z</time>
      </trkpt>
      <trkpt lat="47.48632" lon="6.73519">
        <ele>374</ele>
        <time>2015-12-20T09:35:56.000Z</time>
      </trkpt>
      <trkpt lat="47.48633" lon="6.73514">
        <ele>374</ele>
        <time>2015-12-20T09:35:57.000Z</time>
      </trkpt>
      <trkpt lat="47.48633" lon="6.73512">
        <ele>374</ele>
        <time>2015-12-20T09:35:58.000Z</time>
      </trkpt>
      <trkpt lat="47.48633" lon="6.73502">
        <ele>373</ele>
        <time>2015-12-20T09:35:59.000Z</time>
      </trkpt>
      <trkpt lat="47.48633" lon="6.73496">
        <ele>368</ele>
        <time>2015-12-20T09:36:00.000Z</time>
      </trkpt>
      <trkpt lat="47.48633" lon="6.73489">
        <ele>368</ele>
        <time>2015-12-20T09:36:01.000Z</time>
      </trkpt>
      <trkpt lat="47.48634" lon="6.73483">
        <ele>368</ele>
        <time>2015-12-20T09:36:02.000Z</time>
      </trkpt>
      <trkpt lat="47.48634" lon="6.73478">
        <ele>368</ele>
        <time>2015-12-20T09:36:03.000Z</time>
      </trkpt>
      <trkpt lat="47.48635" lon="6.73474">
        <ele>367</ele>
        <time>2015-12-20T09:36:04.000Z</time>
      </trkpt>
      <trkpt lat="47.48636" lon="6.73471">
        <ele>367</ele>
        <time>2015-12-20T09:36:05.000Z</time>
      </trkpt>
      <trkpt lat="47.4864" lon="6.73467">
        <ele>367</ele>
        <time>2015-12-20T09:36:07.000Z</time>
      </trkpt>
      <trkpt lat="47.48642" lon="6.73467">
        <ele>367</ele>
        <time>2015-12-20T09:36:08.000Z</time>
      </trkpt>
      <trkpt lat="47.48644" lon="6.7347">
        <ele>367</ele>
        <time>2015-12-20T09:36:10.000Z</time>
      </trkpt>
      <trkpt lat="47.48645" lon="6.73472">
        <ele>368</ele>
        <time>2015-12-20T09:36:11.000Z</time>
      </trkpt>
      <trkpt lat="47.4865" lon="6.73474">
        <ele>368</ele>
        <time>2015-12-20T09:36:15.000Z</time>
      </trkpt>
      <trkpt lat="47.48651" lon="6.73474">
        <ele>368</ele>
        <time>2015-12-20T09:36:16.000Z</time>
      </trkpt>
      <trkpt lat="47.48655" lon="6.73473">
        <ele>368</ele>
        <time>2015-12-20T09:36:19.000Z</time>
      </trkpt>
      <trkpt lat="47.48656" lon="6.73474">
        <ele>368</ele>
        <time>2015-12-20T09:36:20.000Z</time>
      </trkpt>
      <trkpt lat="47.48658" lon="6.73478">
        <ele>368</ele>
        <time>2015-12-20T09:36:22.000Z</time>
      </trkpt>
      <trkpt lat="47.48659" lon="6.7348">
        <ele>369</ele>
        <time>2015-12-20T09:36:22.999Z</time>
      </trkpt>
      <trkpt lat="47.48659" lon="6.73484">
        <ele>369</ele>
        <time>2015-12-20T09:36:24.000Z</time>
      </trkpt>
      <trkpt lat="47.4866" lon="6.73486">
        <ele>369</ele>
        <time>2015-12-20T09:36:25.000Z</time>
      </trkpt>
      <trkpt lat="47.48661" lon="6.73489">
        <ele>370</ele>
        <time>2015-12-20T09:36:26.000Z</time>
      </trkpt>
      <trkpt lat="47.48663" lon="6.73492">
        <ele>370</ele>
        <time>2015-12-20T09:36:27.000Z</time>
      </trkpt>
      <trkpt lat="47.48665" lon="6.73494">
        <ele>371</ele>
        <time>2015-12-20T09:36:28.001Z</time>
      </trkpt>
      <trkpt lat="47.48668" lon="6.73496">
        <ele>371</ele>
        <time>2015-12-20T09:36:29.000Z</time>
      </trkpt>
      <trkpt lat="47.4867" lon="6.73497">
        <ele>371</ele>
        <time>2015-12-20T09:36:30.000Z</time>
      </trkpt>
      <trkpt lat="47.48672" lon="6.73499">
        <ele>371</ele>
        <time>2015-12-20T09:36:30.999Z</time>
      </trkpt>
      <trkpt lat="47.48674" lon="6.73501">
        <ele>373</ele>
        <time>2015-12-20T09:36:32.000Z</time>
      </trkpt>
      <trkpt lat="47.48676" lon="6.73503">
        <ele>373</ele>
        <time>2015-12-20T09:36:33.000Z</time>
      </trkpt>
      <trkpt lat="47.48677" lon="6.73505">
        <ele>373</ele>
        <time>2015-12-20T09:36:34.000Z</time>
      </trkpt>
      <trkpt lat="47.48679" lon="6.73507">
        <ele>373</ele>
        <time>2015-12-20T09:36:35.000Z</time>
      </trkpt>
      <trkpt lat="47.48683" lon="6.73511">
        <ele>373</ele>
        <time>2015-12-20T09:36:37.000Z</time>
      </trkpt>
      <trkpt lat="47.48685" lon="6.73513">
        <ele>373</ele>
        <time>2015-12-20T09:36:38.000Z</time>
      </trkpt>
      <trkpt lat="47.48688" lon="6.73516">
        <ele>374</ele>
        <time>2015-12-20T09:36:39.999Z</time>
      </trkpt>
      <trkpt lat="47.4869" lon="6.73519">
        <ele>374</ele>
        <time>2015-12-20T09:36:41.000Z</time>
      </trkpt>
      <trkpt lat="47.48691" lon="6.73521">
        <ele>374</ele>
        <time>2015-12-20T09:36:41.999Z</time>
      </trkpt>
      <trkpt lat="47.48693" lon="6.73525">
        <ele>374</ele>
        <time>2015-12-20T09:36:43.000Z</time>
      </trkpt>
      <trkpt lat="47.48695" lon="6.73528">
        <ele>374</ele>
        <time>2015-12-20T09:36:44.000Z</time>
      </trkpt>
      <trkpt lat="47.48697" lon="6.7353">
        <ele>374</ele>
        <time>2015-12-20T09:36:45.000Z</time>
      </trkpt>
      <trkpt lat="47.48699" lon="6.73532">
        <ele>374</ele>
        <time>2015-12-20T09:36:46.000Z</time>
      </trkpt>
      <trkpt lat="47.487" lon="6.73534">
        <ele>374</ele>
        <time>2015-12-20T09:36:47.000Z</time>
      </trkpt>
      <trkpt lat="47.48702" lon="6.73536">
        <ele>375</ele>
        <time>2015-12-20T09:36:48.000Z</time>
      </trkpt>
      <trkpt lat="47.48704" lon="6.73538">
        <ele>375</ele>
        <time>2015-12-20T09:36:49.000Z</time>
      </trkpt>
      <trkpt lat="47.48706" lon="6.73541">
        <ele>375</ele>
        <time>2015-12-20T09:36:50.000Z</time>
      </trkpt>
      <trkpt lat="47.48709" lon="6.73543">
        <ele>375</ele>
        <time>2015-12-20T09:36:51.000Z</time>
      </trkpt>
      <trkpt lat="47.48712" lon="6.73544">
        <ele>375</ele>
        <time>2015-12-20T09:36:52.000Z</time>
      </trkpt>
      <trkpt lat="47.48714" lon="6.73546">
        <ele>375</ele>
        <time>2015-12-20T09:36:52.999Z</time>
      </trkpt>
      <trkpt lat="47.48717" lon="6.73548">
        <ele>375</ele>
        <time>2015-12-20T09:36:54.000Z</time>
      </trkpt>
      <trkpt lat="47.4872" lon="6.7355">
        <ele>375</ele>
        <time>2015-12-20T09:36:55.000Z</time>
      </trkpt>
      <trkpt lat="47.48723" lon="6.73552">
        <ele>375</ele>
        <time>2015-12-20T09:36:56.000Z</time>
      </trkpt>
      <trkpt lat="47.48725" lon="6.73554">
        <ele>375</ele>
        <time>2015-12-20T09:36:57.000Z</time>
      </trkpt>
      <trkpt lat="47.48728" lon="6.73555">
        <ele>375</ele>
        <time>2015-12-20T09:36:57.999Z</time>
      </trkpt>
      <trkpt lat="47.48731" lon="6.73558">
        <ele>375</ele>
        <time>2015-12-20T09:36:59.000Z</time>
      </trkpt>
      <trkpt lat="47.48734" lon="6.7356">
        <ele>376</ele>
        <time>2015-12-20T09:37:00.000Z</time>
      </trkpt>
      <trkpt lat="47.48737" lon="6.73561">
        <ele>376</ele>
        <time>2015-12-20T09:37:01.000Z</time>
      </trkpt>
      <trkpt lat="47.48741" lon="6.73563">
        <ele>376</ele>
        <time>2015-12-20T09:37:02.000Z</time>
      </trkpt>
      <trkpt lat="47.48744" lon="6.73564">
        <ele>376</ele>
        <time>2015-12-20T09:37:03.000Z</time>
      </trkpt>
      <trkpt lat="47.48747" lon="6.73565">
        <ele>376</ele>
        <time>2015-12-20T09:37:04.000Z</time>
      </trkpt>
      <trkpt lat="47.4875" lon="6.73567">
        <ele>376</ele>
        <time>2015-12-20T09:37:05.000Z</time>
      </trkpt>
      <trkpt lat="47.48753" lon="6.73568">
        <ele>376</ele>
        <time>2015-12-20T09:37:06.000Z</time>
      </trkpt>
      <trkpt lat="47.48757" lon="6.73569">
        <ele>376</ele>
        <time>2015-12-20T09:37:07.000Z</time>
      </trkpt>
      <trkpt lat="47.48759" lon="6.7357">
        <ele>376</ele>
        <time>2015-12-20T09:37:08.000Z</time>
      </trkpt>
      <trkpt lat="47.48762" lon="6.7357">
        <ele>376</ele>
        <time>2015-12-20T09:37:09.000Z</time>
      </trkpt>
      <trkpt lat="47.48765" lon="6.73571">
        <ele>376</ele>
        <time>2015-12-20T09:37:10.000Z</time>
      </trkpt>
      <trkpt lat="47.48767" lon="6.73573">
        <ele>376</ele>
        <time>2015-12-20T09:37:11.000Z</time>
      </trkpt>
      <trkpt lat="47.4877" lon="6.73575">
        <ele>376</ele>
        <time>2015-12-20T09:37:12.000Z</time>
      </trkpt>
      <trkpt lat="47.48773" lon="6.73576">
        <ele>376</ele>
        <time>2015-12-20T09:37:13.000Z</time>
      </trkpt>
      <trkpt lat="47.48776" lon="6.73578">
        <ele>376</ele>
        <time>2015-12-20T09:37:14.000Z</time>
      </trkpt>
      <trkpt lat="47.48778" lon="6.73579">
        <ele>376</ele>
        <time>2015-12-20T09:37:15.000Z</time>
      </trkpt>
      <trkpt lat="47.48781" lon="6.7358">
        <ele>376</ele>
        <time>2015-12-20T09:37:16.000Z</time>
      </trkpt>
      <trkpt lat="47.48784" lon="6.73581">
        <ele>376</ele>
        <time>2015-12-20T09:37:17.000Z</time>
      </trkpt>
      <trkpt lat="47.48787" lon="6.73582">
        <ele>376</ele>
        <time>2015-12-20T09:37:18.000Z</time>
      </trkpt>
      <trkpt lat="47.4879" lon="6.73583">
        <ele>376</ele>
        <time>2015-12-20T09:37:18.998Z</time>
      </trkpt>
      <trkpt lat="47.48792" lon="6.73585">
        <ele>381</ele>
        <time>2015-12-20T09:37:20.000Z</time>
      </trkpt>
      <trkpt lat="47.48795" lon="6.73586">
        <ele>381</ele>
        <time>2015-12-20T09:37:20.999Z</time>
      </trkpt>
      <trkpt lat="47.48798" lon="6.73588">
        <ele>381</ele>
        <time>2015-12-20T09:37:22.000Z</time>
      </trkpt>
      <trkpt lat="47.48801" lon="6.73589">
        <ele>381</ele>
        <time>2015-12-20T09:37:23.000Z</time>
      </trkpt>
      <trkpt lat="47.48804" lon="6.73591">
        <ele>381</ele>
        <time>2015-12-20T09:37:23.999Z</time>
      </trkpt>
      <trkpt lat="47.48807" lon="6.73591">
        <ele>381</ele>
        <time>2015-12-20T09:37:25.000Z</time>
      </trkpt>
      <trkpt lat="47.48809" lon="6.73592">
        <ele>381</ele>
        <time>2015-12-20T09:37:26.000Z</time>
      </trkpt>
      <trkpt lat="47.48812" lon="6.73593">
        <ele>380</ele>
        <time>2015-12-20T09:37:27.000Z</time>
      </trkpt>
      <trkpt lat="47.48814" lon="6.73594">
        <ele>380</ele>
        <time>2015-12-20T09:37:28.000Z</time>
      </trkpt>
      <trkpt lat="47.48817" lon="6.73596">
        <ele>380</ele>
        <time>2015-12-20T09:37:29.000Z</time>
      </trkpt>
      <trkpt lat="47.48819" lon="6.73598">
        <ele>380</ele>
        <time>2015-12-20T09:37:30.000Z</time>
      </trkpt>
      <trkpt lat="47.4882" lon="6.73601">
        <ele>381</ele>
        <time>2015-12-20T09:37:31.000Z</time>
      </trkpt>
      <trkpt lat="47.48822" lon="6.73603">
        <ele>381</ele>
        <time>2015-12-20T09:37:32.000Z</time>
      </trkpt>
      <trkpt lat="47.48824" lon="6.73605">
        <ele>381</ele>
        <time>2015-12-20T09:37:33.000Z</time>
      </trkpt>
      <trkpt lat="47.48827" lon="6.73606">
        <ele>381</ele>
        <time>2015-12-20T09:37:34.000Z</time>
      </trkpt>
      <trkpt lat="47.4883" lon="6.73607">
        <ele>381</ele>
        <time>2015-12-20T09:37:35.000Z</time>
      </trkpt>
      <trkpt lat="47.48832" lon="6.73607">
        <ele>381</ele>
        <time>2015-12-20T09:37:36.000Z</time>
      </trkpt>
      <trkpt lat="47.48834" lon="6.73608">
        <ele>380</ele>
        <time>2015-12-20T09:37:37.000Z</time>
      </trkpt>
      <trkpt lat="47.48838" lon="6.7361">
        <ele>380</ele>
        <time>2015-12-20T09:37:39.000Z</time>
      </trkpt>
      <trkpt lat="47.4884" lon="6.73611">
        <ele>380</ele>
        <time>2015-12-20T09:37:40.000Z</time>
      </trkpt>
      <trkpt lat="47.48843" lon="6.73612">
        <ele>380</ele>
        <time>2015-12-20T09:37:41.000Z</time>
      </trkpt>
      <trkpt lat="47.48845" lon="6.73613">
        <ele>380</ele>
        <time>2015-12-20T09:37:42.000Z</time>
      </trkpt>
      <trkpt lat="47.48847" lon="6.73613">
        <ele>380</ele>
        <time>2015-12-20T09:37:43.000Z</time>
      </trkpt>
      <trkpt lat="47.4885" lon="6.73614">
        <ele>380</ele>
        <time>2015-12-20T09:37:44.000Z</time>
      </trkpt>
      <trkpt lat="47.48852" lon="6.73615">
        <ele>380</ele>
        <time>2015-12-20T09:37:45.001Z</time>
      </trkpt>
      <trkpt lat="47.48855" lon="6.73616">
        <ele>380</ele>
        <time>2015-12-20T09:37:46.000Z</time>
      </trkpt>
      <trkpt lat="47.48857" lon="6.73616">
        <ele>380</ele>
        <time>2015-12-20T09:37:47.000Z</time>
      </trkpt>
      <trkpt lat="47.4886" lon="6.73617">
        <ele>380</ele>
        <time>2015-12-20T09:37:48.000Z</time>
      </trkpt>
      <trkpt lat="47.48863" lon="6.73618">
        <ele>380</ele>
        <time>2015-12-20T09:37:49.000Z</time>
      </trkpt>
      <trkpt lat="47.48865" lon="6.73619">
        <ele>380</ele>
        <time>2015-12-20T09:37:50.000Z</time>
      </trkpt>
      <trkpt lat="47.4887" lon="6.7362">
        <ele>380</ele>
        <time>2015-12-20T09:37:52.000Z</time>
      </trkpt>
      <trkpt lat="47.48872" lon="6.73621">
        <ele>380</ele>
        <time>2015-12-20T09:37:52.999Z</time>
      </trkpt>
      <trkpt lat="47.48874" lon="6.73616">
        <ele>380</ele>
        <time>2015-12-20T09:37:55.000Z</time>
      </trkpt>
      <trkpt lat="47.48876" lon="6.73614">
        <ele>380</ele>
        <time>2015-12-20T09:37:56.000Z</time>
      </trkpt>
      <trkpt lat="47.48877" lon="6.73611">
        <ele>380</ele>
        <time>2015-12-20T09:37:57.000Z</time>
      </trkpt>
      <trkpt lat="47.48879" lon="6.73609">
        <ele>380</ele>
        <time>2015-12-20T09:37:58.000Z</time>
      </trkpt>
      <trkpt lat="47.48881" lon="6.73606">
        <ele>380</ele>
        <time>2015-12-20T09:37:58.999Z</time>
      </trkpt>
      <trkpt lat="47.48884" lon="6.73602">
        <ele>380</ele>
        <time>2015-12-20T09:38:00.000Z</time>
      </trkpt>
      <trkpt lat="47.48888" lon="6.73599">
        <ele>380</ele>
        <time>2015-12-20T09:38:01.000Z</time>
      </trkpt>
      <trkpt lat="47.48891" lon="6.73596">
        <ele>379</ele>
        <time>2015-12-20T09:38:01.999Z</time>
      </trkpt>
      <trkpt lat="47.48894" lon="6.73594">
        <ele>379</ele>
        <time>2015-12-20T09:38:03.001Z</time>
      </trkpt>
      <trkpt lat="47.48898" lon="6.73591">
        <ele>379</ele>
        <time>2015-12-20T09:38:04.000Z</time>
      </trkpt>
      <trkpt lat="47.48902" lon="6.73588">
        <ele>379</ele>
        <time>2015-12-20T09:38:05.000Z</time>
      </trkpt>
      <trkpt lat="47.48905" lon="6.73585">
        <ele>379</ele>
        <time>2015-12-20T09:38:06.000Z</time>
      </trkpt>
      <trkpt lat="47.48908" lon="6.73582">
        <ele>378</ele>
        <time>2015-12-20T09:38:07.000Z</time>
      </trkpt>
      <trkpt lat="47.48911" lon="6.73578">
        <ele>378</ele>
        <time>2015-12-20T09:38:08.000Z</time>
      </trkpt>
      <trkpt lat="47.48914" lon="6.73575">
        <ele>378</ele>
        <time>2015-12-20T09:38:09.000Z</time>
      </trkpt>
      <trkpt lat="47.48916" lon="6.73572">
        <ele>377</ele>
        <time>2015-12-20T09:38:10.000Z</time>
      </trkpt>
      <trkpt lat="47.48918" lon="6.73568">
        <ele>378</ele>
        <time>2015-12-20T09:38:11.000Z</time>
      </trkpt>
      <trkpt lat="47.4892" lon="6.73565">
        <ele>378</ele>
        <time>2015-12-20T09:38:12.000Z</time>
      </trkpt>
      <trkpt lat="47.48923" lon="6.73563">
        <ele>377</ele>
        <time>2015-12-20T09:38:13.000Z</time>
      </trkpt>
      <trkpt lat="47.48925" lon="6.7356">
        <ele>377</ele>
        <time>2015-12-20T09:38:14.000Z</time>
      </trkpt>
      <trkpt lat="47.48928" lon="6.73558">
        <ele>377</ele>
        <time>2015-12-20T09:38:15.000Z</time>
      </trkpt>
      <trkpt lat="47.4893" lon="6.73555">
        <ele>377</ele>
        <time>2015-12-20T09:38:16.000Z</time>
      </trkpt>
      <trkpt lat="47.48933" lon="6.73553">
        <ele>377</ele>
        <time>2015-12-20T09:38:17.000Z</time>
      </trkpt>
      <trkpt lat="47.48936" lon="6.7355">
        <ele>377</ele>
        <time>2015-12-20T09:38:18.000Z</time>
      </trkpt>
      <trkpt lat="47.48939" lon="6.73547">
        <ele>377</ele>
        <time>2015-12-20T09:38:19.000Z</time>
      </trkpt>
      <trkpt lat="47.48942" lon="6.73544">
        <ele>377</ele>
        <time>2015-12-20T09:38:20.000Z</time>
      </trkpt>
      <trkpt lat="47.48944" lon="6.73539">
        <ele>377</ele>
        <time>2015-12-20T09:38:21.000Z</time>
      </trkpt>
      <trkpt lat="47.48947" lon="6.73535">
        <ele>377</ele>
        <time>2015-12-20T09:38:22.000Z</time>
      </trkpt>
      <trkpt lat="47.48949" lon="6.7353">
        <ele>377</ele>
        <time>2015-12-20T09:38:23.000Z</time>
      </trkpt>
      <trkpt lat="47.48952" lon="6.73526">
        <ele>377</ele>
        <time>2015-12-20T09:38:24.000Z</time>
      </trkpt>
      <trkpt lat="47.48955" lon="6.73523">
        <ele>377</ele>
        <time>2015-12-20T09:38:25.000Z</time>
      </trkpt>
      <trkpt lat="47.48957" lon="6.7352">
        <ele>377</ele>
        <time>2015-12-20T09:38:26.000Z</time>
      </trkpt>
      <trkpt lat="47.4896" lon="6.73517">
        <ele>377</ele>
        <time>2015-12-20T09:38:27.000Z</time>
      </trkpt>
      <trkpt lat="47.48963" lon="6.73514">
        <ele>377</ele>
        <time>2015-12-20T09:38:28.000Z</time>
      </trkpt>
      <trkpt lat="47.48965" lon="6.73512">
        <ele>377</ele>
        <time>2015-12-20T09:38:29.000Z</time>
      </trkpt>
      <trkpt lat="47.48968" lon="6.7351">
        <ele>378</ele>
        <time>2015-12-20T09:38:30.000Z</time>
      </trkpt>
      <trkpt lat="47.48971" lon="6.73508">
        <ele>378</ele>
        <time>2015-12-20T09:38:31.000Z</time>
      </trkpt>
      <trkpt lat="47.48975" lon="6.73506">
        <ele>378</ele>
        <time>2015-12-20T09:38:32.000Z</time>
      </trkpt>
      <trkpt lat="47.48978" lon="6.73503">
        <ele>378</ele>
        <time>2015-12-20T09:38:33.000Z</time>
      </trkpt>
      <trkpt lat="47.48983" lon="6.73501">
        <ele>378</ele>
        <time>2015-12-20T09:38:34.000Z</time>
      </trkpt>
      <trkpt lat="47.48992" lon="6.735">
        <ele>378</ele>
        <time>2015-12-20T09:38:35.000Z</time>
      </trkpt>
      <trkpt lat="47.48997" lon="6.73497">
        <ele>379</ele>
        <time>2015-12-20T09:38:36.000Z</time>
      </trkpt>
      <trkpt lat="47.49001" lon="6.73496">
        <ele>379</ele>
        <time>2015-12-20T09:38:37.000Z</time>
      </trkpt>
      <trkpt lat="47.49005" lon="6.73494">
        <ele>380</ele>
        <time>2015-12-20T09:38:38.000Z</time>
      </trkpt>
      <trkpt lat="47.49008" lon="6.73492">
        <ele>380</ele>
        <time>2015-12-20T09:38:39.000Z</time>
      </trkpt>
      <trkpt lat="47.49014" lon="6.73489">
        <ele>380</ele>
        <time>2015-12-20T09:38:40.000Z</time>
      </trkpt>
      <trkpt lat="47.49017" lon="6.73485">
        <ele>381</ele>
        <time>2015-12-20T09:38:41.000Z</time>
      </trkpt>
      <trkpt lat="47.49022" lon="6.7348">
        <ele>381</ele>
        <time>2015-12-20T09:38:42.000Z</time>
      </trkpt>
      <trkpt lat="47.49026" lon="6.73477">
        <ele>381</ele>
        <time>2015-12-20T09:38:43.000Z</time>
      </trkpt>
      <trkpt lat="47.4903" lon="6.73471">
        <ele>381</ele>
        <time>2015-12-20T09:38:44.000Z</time>
      </trkpt>
      <trkpt lat="47.49032" lon="6.73465">
        <ele>381</ele>
        <time>2015-12-20T09:38:45.000Z</time>
      </trkpt>
      <trkpt lat="47.49035" lon="6.73457">
        <ele>381</ele>
        <time>2015-12-20T09:38:46.000Z</time>
      </trkpt>
      <trkpt lat="47.49038" lon="6.7345">
        <ele>382</ele>
        <time>2015-12-20T09:38:47.000Z</time>
      </trkpt>
      <trkpt lat="47.4904" lon="6.73443">
        <ele>382</ele>
        <time>2015-12-20T09:38:48.000Z</time>
      </trkpt>
      <trkpt lat="47.49042" lon="6.73436">
        <ele>382</ele>
        <time>2015-12-20T09:38:49.000Z</time>
      </trkpt>
      <trkpt lat="47.49044" lon="6.73428">
        <ele>382</ele>
        <time>2015-12-20T09:38:50.000Z</time>
      </trkpt>
      <trkpt lat="47.49046" lon="6.73422">
        <ele>382</ele>
        <time>2015-12-20T09:38:51.000Z</time>
      </trkpt>
      <trkpt lat="47.49048" lon="6.73415">
        <ele>383</ele>
        <time>2015-12-20T09:38:52.000Z</time>
      </trkpt>
      <trkpt lat="47.49052" lon="6.73409">
        <ele>383</ele>
        <time>2015-12-20T09:38:53.000Z</time>
      </trkpt>
      <trkpt lat="47.49056" lon="6.73402">
        <ele>383</ele>
        <time>2015-12-20T09:38:54.000Z</time>
      </trkpt>
      <trkpt lat="47.49059" lon="6.73395">
        <ele>383</ele>
        <time>2015-12-20T09:38:55.000Z</time>
      </trkpt>
      <trkpt lat="47.49062" lon="6.73389">
        <ele>383</ele>
        <time>2015-12-20T09:38:56.000Z</time>
      </trkpt>
      <trkpt lat="47.49065" lon="6.73383">
        <ele>383</ele>
        <time>2015-12-20T09:38:57.000Z</time>
      </trkpt>
      <trkpt lat="47.49067" lon="6.73379">
        <ele>384</ele>
        <time>2015-12-20T09:38:58.000Z</time>
      </trkpt>
      <trkpt lat="47.49071" lon="6.73375">
        <ele>384</ele>
        <time>2015-12-20T09:38:59.000Z</time>
      </trkpt>
      <trkpt lat="47.49075" lon="6.73371">
        <ele>384</ele>
        <time>2015-12-20T09:39:00.000Z</time>
      </trkpt>
      <trkpt lat="47.49079" lon="6.73366">
        <ele>384</ele>
        <time>2015-12-20T09:39:01.000Z</time>
      </trkpt>
      <trkpt lat="47.49082" lon="6.73361">
        <ele>384</ele>
        <time>2015-12-20T09:39:02.000Z</time>
      </trkpt>
      <trkpt lat="47.49084" lon="6.73356">
        <ele>387</ele>
        <time>2015-12-20T09:39:03.000Z</time>
      </trkpt>
      <trkpt lat="47.49087" lon="6.73344">
        <ele>387</ele>
        <time>2015-12-20T09:39:04.000Z</time>
      </trkpt>
      <trkpt lat="47.49089" lon="6.73338">
        <ele>388</ele>
        <time>2015-12-20T09:39:05.000Z</time>
      </trkpt>
      <trkpt lat="47.49091" lon="6.73335">
        <ele>388</ele>
        <time>2015-12-20T09:39:06.000Z</time>
      </trkpt>
      <trkpt lat="47.49091" lon="6.73331">
        <ele>388</ele>
        <time>2015-12-20T09:39:07.000Z</time>
      </trkpt>
      <trkpt lat="47.49092" lon="6.73326">
        <ele>388</ele>
        <time>2015-12-20T09:39:08.000Z</time>
      </trkpt>
      <trkpt lat="47.49095" lon="6.73316">
        <ele>388</ele>
        <time>2015-12-20T09:39:09.000Z</time>
      </trkpt>
      <trkpt lat="47.49097" lon="6.73309">
        <ele>388</ele>
        <time>2015-12-20T09:39:10.000Z</time>
      </trkpt>
      <trkpt lat="47.49099" lon="6.73304">
        <ele>389</ele>
        <time>2015-12-20T09:39:11.000Z</time>
      </trkpt>
      <trkpt lat="47.491" lon="6.73301">
        <ele>389</ele>
        <time>2015-12-20T09:39:12.000Z</time>
      </trkpt>
      <trkpt lat="47.49101" lon="6.73295">
        <ele>389</ele>
        <time>2015-12-20T09:39:13.000Z</time>
      </trkpt>
      <trkpt lat="47.49103" lon="6.7329">
        <ele>389</ele>
        <time>2015-12-20T09:39:14.000Z</time>
      </trkpt>
      <trkpt lat="47.49104" lon="6.73284">
        <ele>389</ele>
        <time>2015-12-20T09:39:15.000Z</time>
      </trkpt>
      <trkpt lat="47.49106" lon="6.73279">
        <ele>389</ele>
        <time>2015-12-20T09:39:16.000Z</time>
      </trkpt>
      <trkpt lat="47.49107" lon="6.73274">
        <ele>389</ele>
        <time>2015-12-20T09:39:17.000Z</time>
      </trkpt>
      <trkpt lat="47.49109" lon="6.73269">
        <ele>389</ele>
        <time>2015-12-20T09:39:18.000Z</time>
      </trkpt>
      <trkpt lat="47.49112" lon="6.73265">
        <ele>389</ele>
        <time>2015-12-20T09:39:19.000Z</time>
      </trkpt>
      <trkpt lat="47.49115" lon="6.7326">
        <ele>389</ele>
        <time>2015-12-20T09:39:20.000Z</time>
      </trkpt>
      <trkpt lat="47.49117" lon="6.73256">
        <ele>389</ele>
        <time>2015-12-20T09:39:21.000Z</time>
      </trkpt>
      <trkpt lat="47.49121" lon="6.73252">
        <ele>389</ele>
        <time>2015-12-20T09:39:22.000Z</time>
      </trkpt>
      <trkpt lat="47.49124" lon="6.73247">
        <ele>391</ele>
        <time>2015-12-20T09:39:23.000Z</time>
      </trkpt>
      <trkpt lat="47.49127" lon="6.73243">
        <ele>391</ele>
        <time>2015-12-20T09:39:24.000Z</time>
      </trkpt>
      <trkpt lat="47.4913" lon="6.73238">
        <ele>392</ele>
        <time>2015-12-20T09:39:25.000Z</time>
      </trkpt>
      <trkpt lat="47.49133" lon="6.73234">
        <ele>392</ele>
        <time>2015-12-20T09:39:26.000Z</time>
      </trkpt>
      <trkpt lat="47.49136" lon="6.73229">
        <ele>392</ele>
        <time>2015-12-20T09:39:27.000Z</time>
      </trkpt>
      <trkpt lat="47.49139" lon="6.73225">
        <ele>392</ele>
        <time>2015-12-20T09:39:28.000Z</time>
      </trkpt>
      <trkpt lat="47.49142" lon="6.7322">
        <ele>392</ele>
        <time>2015-12-20T09:39:29.000Z</time>
      </trkpt>
      <trkpt lat="47.49145" lon="6.73216">
        <ele>392</ele>
        <time>2015-12-20T09:39:30.000Z</time>
      </trkpt>
      <trkpt lat="47.49148" lon="6.73211">
        <ele>393</ele>
        <time>2015-12-20T09:39:31.000Z</time>
      </trkpt>
      <trkpt lat="47.49151" lon="6.73206">
        <ele>393</ele>
        <time>2015-12-20T09:39:32.000Z</time>
      </trkpt>
      <trkpt lat="47.49154" lon="6.73201">
        <ele>393</ele>
        <time>2015-12-20T09:39:33.000Z</time>
      </trkpt>
      <trkpt lat="47.49157" lon="6.73196">
        <ele>394</ele>
        <time>2015-12-20T09:39:34.000Z</time>
      </trkpt>
      <trkpt lat="47.4916" lon="6.73191">
        <ele>394</ele>
        <time>2015-12-20T09:39:35.000Z</time>
      </trkpt>
      <trkpt lat="47.49162" lon="6.73187">
        <ele>394</ele>
        <time>2015-12-20T09:39:36.000Z</time>
      </trkpt>
      <trkpt lat="47.49164" lon="6.73182">
        <ele>395</ele>
        <time>2015-12-20T09:39:37.000Z</time>
      </trkpt>
      <trkpt lat="47.49165" lon="6.73177">
        <ele>396</ele>
        <time>2015-12-20T09:39:38.000Z</time>
      </trkpt>
      <trkpt lat="47.49165" lon="6.73172">
        <ele>397</ele>
        <time>2015-12-20T09:39:39.000Z</time>
      </trkpt>
      <trkpt lat="47.49166" lon="6.73167">
        <ele>398</ele>
        <time>2015-12-20T09:39:40.000Z</time>
      </trkpt>
      <trkpt lat="47.49166" lon="6.73162">
        <ele>397</ele>
        <time>2015-12-20T09:39:41.000Z</time>
      </trkpt>
      <trkpt lat="47.49167" lon="6.73157">
        <ele>397</ele>
        <time>2015-12-20T09:39:42.000Z</time>
      </trkpt>
      <trkpt lat="47.49168" lon="6.73151">
        <ele>397</ele>
        <time>2015-12-20T09:39:43.000Z</time>
      </trkpt>
      <trkpt lat="47.4917" lon="6.73145">
        <ele>397</ele>
        <time>2015-12-20T09:39:44.000Z</time>
      </trkpt>
      <trkpt lat="47.49171" lon="6.7314">
        <ele>396</ele>
        <time>2015-12-20T09:39:45.000Z</time>
      </trkpt>
      <trkpt lat="47.49173" lon="6.73135">
        <ele>396</ele>
        <time>2015-12-20T09:39:46.000Z</time>
      </trkpt>
      <trkpt lat="47.49174" lon="6.73129">
        <ele>396</ele>
        <time>2015-12-20T09:39:47.000Z</time>
      </trkpt>
      <trkpt lat="47.49175" lon="6.73123">
        <ele>396</ele>
        <time>2015-12-20T09:39:48.000Z</time>
      </trkpt>
      <trkpt lat="47.49176" lon="6.73117">
        <ele>396</ele>
        <time>2015-12-20T09:39:49.000Z</time>
      </trkpt>
      <trkpt lat="47.49176" lon="6.73109">
        <ele>396</ele>
        <time>2015-12-20T09:39:50.000Z</time>
      </trkpt>
      <trkpt lat="47.49176" lon="6.73101">
        <ele>395</ele>
        <time>2015-12-20T09:39:51.000Z</time>
      </trkpt>
      <trkpt lat="47.49177" lon="6.73094">
        <ele>395</ele>
        <time>2015-12-20T09:39:52.000Z</time>
      </trkpt>
      <trkpt lat="47.49177" lon="6.73086">
        <ele>395</ele>
        <time>2015-12-20T09:39:53.000Z</time>
      </trkpt>
      <trkpt lat="47.49177" lon="6.73078">
        <ele>394</ele>
        <time>2015-12-20T09:39:54.000Z</time>
      </trkpt>
      <trkpt lat="47.49177" lon="6.73071">
        <ele>394</ele>
        <time>2015-12-20T09:39:55.000Z</time>
      </trkpt>
      <trkpt lat="47.49176" lon="6.73064">
        <ele>395</ele>
        <time>2015-12-20T09:39:56.000Z</time>
      </trkpt>
      <trkpt lat="47.49176" lon="6.73058">
        <ele>395</ele>
        <time>2015-12-20T09:39:57.000Z</time>
      </trkpt>
      <trkpt lat="47.49175" lon="6.73052">
        <ele>394</ele>
        <time>2015-12-20T09:39:58.000Z</time>
      </trkpt>
      <trkpt lat="47.49175" lon="6.73045">
        <ele>394</ele>
        <time>2015-12-20T09:39:59.000Z</time>
      </trkpt>
      <trkpt lat="47.49174" lon="6.73039">
        <ele>394</ele>
        <time>2015-12-20T09:40:00.000Z</time>
      </trkpt>
      <trkpt lat="47.49175" lon="6.73032">
        <ele>394</ele>
        <time>2015-12-20T09:40:01.000Z</time>
      </trkpt>
      <trkpt lat="47.49176" lon="6.73026">
        <ele>394</ele>
        <time>2015-12-20T09:40:02.000Z</time>
      </trkpt>
      <trkpt lat="47.49177" lon="6.73021">
        <ele>394</ele>
        <time>2015-12-20T09:40:03.000Z</time>
      </trkpt>
      <trkpt lat="47.49178" lon="6.73016">
        <ele>393</ele>
        <time>2015-12-20T09:40:04.000Z</time>
      </trkpt>
      <trkpt lat="47.49179" lon="6.73011">
        <ele>393</ele>
        <time>2015-12-20T09:40:05.000Z</time>
      </trkpt>
      <trkpt lat="47.4918" lon="6.73007">
        <ele>393</ele>
        <time>2015-12-20T09:40:06.000Z</time>
      </trkpt>
      <trkpt lat="47.4918" lon="6.73002">
        <ele>393</ele>
        <time>2015-12-20T09:40:07.000Z</time>
      </trkpt>
      <trkpt lat="47.4918" lon="6.72997">
        <ele>393</ele>
        <time>2015-12-20T09:40:08.000Z</time>
      </trkpt>
      <trkpt lat="47.4918" lon="6.72992">
        <ele>393</ele>
        <time>2015-12-20T09:40:09.000Z</time>
      </trkpt>
      <trkpt lat="47.4918" lon="6.72987">
        <ele>393</ele>
        <time>2015-12-20T09:40:10.000Z</time>
      </trkpt>
      <trkpt lat="47.4918" lon="6.72983">
        <ele>393</ele>
        <time>2015-12-20T09:40:11.000Z</time>
      </trkpt>
      <trkpt lat="47.49181" lon="6.72979">
        <ele>394</ele>
        <time>2015-12-20T09:40:12.000Z</time>
      </trkpt>
      <trkpt lat="47.49182" lon="6.72976">
        <ele>394</ele>
        <time>2015-12-20T09:40:13.000Z</time>
      </trkpt>
      <trkpt lat="47.49183" lon="6.72972">
        <ele>394</ele>
        <time>2015-12-20T09:40:14.000Z</time>
      </trkpt>
      <trkpt lat="47.49185" lon="6.72968">
        <ele>394</ele>
        <time>2015-12-20T09:40:15.000Z</time>
      </trkpt>
      <trkpt lat="47.49186" lon="6.72964">
        <ele>394</ele>
        <time>2015-12-20T09:40:16.000Z</time>
      </trkpt>
      <trkpt lat="47.49188" lon="6.72961">
        <ele>394</ele>
        <time>2015-12-20T09:40:17.000Z</time>
      </trkpt>
      <trkpt lat="47.49189" lon="6.72958">
        <ele>394</ele>
        <time>2015-12-20T09:40:18.000Z</time>
      </trkpt>
      <trkpt lat="47.49191" lon="6.72955">
        <ele>394</ele>
        <time>2015-12-20T09:40:19.000Z</time>
      </trkpt>
      <trkpt lat="47.49192" lon="6.72953">
        <ele>395</ele>
        <time>2015-12-20T09:40:20.000Z</time>
      </trkpt>
      <trkpt lat="47.49193" lon="6.7295">
        <ele>395</ele>
        <time>2015-12-20T09:40:21.000Z</time>
      </trkpt>
      <trkpt lat="47.49194" lon="6.72946">
        <ele>395</ele>
        <time>2015-12-20T09:40:22.000Z</time>
      </trkpt>
      <trkpt lat="47.49195" lon="6.72943">
        <ele>395</ele>
        <time>2015-12-20T09:40:23.000Z</time>
      </trkpt>
      <trkpt lat="47.49197" lon="6.7294">
        <ele>395</ele>
        <time>2015-12-20T09:40:24.000Z</time>
      </trkpt>
      <trkpt lat="47.49198" lon="6.72936">
        <ele>395</ele>
        <time>2015-12-20T09:40:25.000Z</time>
      </trkpt>
      <trkpt lat="47.49199" lon="6.72934">
        <ele>395</ele>
        <time>2015-12-20T09:40:25.999Z</time>
      </trkpt>
      <trkpt lat="47.492" lon="6.7293">
        <ele>395</ele>
        <time>2015-12-20T09:40:27.000Z</time>
      </trkpt>
      <trkpt lat="47.49201" lon="6.72926">
        <ele>395</ele>
        <time>2015-12-20T09:40:28.000Z</time>
      </trkpt>
      <trkpt lat="47.49202" lon="6.72923">
        <ele>395</ele>
        <time>2015-12-20T09:40:29.000Z</time>
      </trkpt>
      <trkpt lat="47.49203" lon="6.72919">
        <ele>395</ele>
        <time>2015-12-20T09:40:30.000Z</time>
      </trkpt>
      <trkpt lat="47.49204" lon="6.72916">
        <ele>395</ele>
        <time>2015-12-20T09:40:31.000Z</time>
      </trkpt>
      <trkpt lat="47.49205" lon="6.72913">
        <ele>395</ele>
        <time>2015-12-20T09:40:32.000Z</time>
      </trkpt>
      <trkpt lat="47.49206" lon="6.7291">
        <ele>395</ele>
        <time>2015-12-20T09:40:33.000Z</time>
      </trkpt>
      <trkpt lat="47.49208" lon="6.72907">
        <ele>395</ele>
        <time>2015-12-20T09:40:34.000Z</time>
      </trkpt>
      <trkpt lat="47.4921" lon="6.72903">
        <ele>395</ele>
        <time>2015-12-20T09:40:35.000Z</time>
      </trkpt>
      <trkpt lat="47.49212" lon="6.72899">
        <ele>395</ele>
        <time>2015-12-20T09:40:36.000Z</time>
      </trkpt>
      <trkpt lat="47.49214" lon="6.72896">
        <ele>395</ele>
        <time>2015-12-20T09:40:37.000Z</time>
      </trkpt>
      <trkpt lat="47.49217" lon="6.72892">
        <ele>395</ele>
        <time>2015-12-20T09:40:38.000Z</time>
      </trkpt>
      <trkpt lat="47.49219" lon="6.72887">
        <ele>395</ele>
        <time>2015-12-20T09:40:39.000Z</time>
      </trkpt>
      <trkpt lat="47.49222" lon="6.72883">
        <ele>395</ele>
        <time>2015-12-20T09:40:40.000Z</time>
      </trkpt>
      <trkpt lat="47.49225" lon="6.72878">
        <ele>396</ele>
        <time>2015-12-20T09:40:41.000Z</time>
      </trkpt>
      <trkpt lat="47.49232" lon="6.72873">
        <ele>396</ele>
        <time>2015-12-20T09:40:42.000Z</time>
      </trkpt>
      <trkpt lat="47.49235" lon="6.72868">
        <ele>396</ele>
        <time>2015-12-20T09:40:43.000Z</time>
      </trkpt>
      <trkpt lat="47.49239" lon="6.72864">
        <ele>396</ele>
        <time>2015-12-20T09:40:44.000Z</time>
      </trkpt>
      <trkpt lat="47.49243" lon="6.7286">
        <ele>396</ele>
        <time>2015-12-20T09:40:45.000Z</time>
      </trkpt>
      <trkpt lat="47.49247" lon="6.72857">
        <ele>397</ele>
        <time>2015-12-20T09:40:46.000Z</time>
      </trkpt>
      <trkpt lat="47.49251" lon="6.72853">
        <ele>398</ele>
        <time>2015-12-20T09:40:47.000Z</time>
      </trkpt>
      <trkpt lat="47.49258" lon="6.72849">
        <ele>398</ele>
        <time>2015-12-20T09:40:48.000Z</time>
      </trkpt>
      <trkpt lat="47.49261" lon="6.72844">
        <ele>398</ele>
        <time>2015-12-20T09:40:49.000Z</time>
      </trkpt>
      <trkpt lat="47.49264" lon="6.72839">
        <ele>398</ele>
        <time>2015-12-20T09:40:50.000Z</time>
      </trkpt>
      <trkpt lat="47.49266" lon="6.72834">
        <ele>398</ele>
        <time>2015-12-20T09:40:51.000Z</time>
      </trkpt>
      <trkpt lat="47.49268" lon="6.72829">
        <ele>398</ele>
        <time>2015-12-20T09:40:52.000Z</time>
      </trkpt>
      <trkpt lat="47.4927" lon="6.72825">
        <ele>398</ele>
        <time>2015-12-20T09:40:53.000Z</time>
      </trkpt>
      <trkpt lat="47.49271" lon="6.72822">
        <ele>398</ele>
        <time>2015-12-20T09:40:54.000Z</time>
      </trkpt>
      <trkpt lat="47.49275" lon="6.72823">
        <ele>398</ele>
        <time>2015-12-20T09:40:55.000Z</time>
      </trkpt>
      <trkpt lat="47.49277" lon="6.7282">
        <ele>398</ele>
        <time>2015-12-20T09:40:56.000Z</time>
      </trkpt>
      <trkpt lat="47.4928" lon="6.72818">
        <ele>398</ele>
        <time>2015-12-20T09:40:57.000Z</time>
      </trkpt>
      <trkpt lat="47.49282" lon="6.72816">
        <ele>398</ele>
        <time>2015-12-20T09:40:58.000Z</time>
      </trkpt>
      <trkpt lat="47.49283" lon="6.72814">
        <ele>397</ele>
        <time>2015-12-20T09:40:59.000Z</time>
      </trkpt>
      <trkpt lat="47.49286" lon="6.72811">
        <ele>397</ele>
        <time>2015-12-20T09:41:01.000Z</time>
      </trkpt>
      <trkpt lat="47.49288" lon="6.72809">
        <ele>397</ele>
        <time>2015-12-20T09:41:02.000Z</time>
      </trkpt>
      <trkpt lat="47.49289" lon="6.72806">
        <ele>397</ele>
        <time>2015-12-20T09:41:03.000Z</time>
      </trkpt>
      <trkpt lat="47.4929" lon="6.72802">
        <ele>397</ele>
        <time>2015-12-20T09:41:04.000Z</time>
      </trkpt>
      <trkpt lat="47.49291" lon="6.72797">
        <ele>397</ele>
        <time>2015-12-20T09:41:05.000Z</time>
      </trkpt>
      <trkpt lat="47.49291" lon="6.72793">
        <ele>397</ele>
        <time>2015-12-20T09:41:06.000Z</time>
      </trkpt>
      <trkpt lat="47.49292" lon="6.72788">
        <ele>398</ele>
        <time>2015-12-20T09:41:07.000Z</time>
      </trkpt>
      <trkpt lat="47.49293" lon="6.72784">
        <ele>398</ele>
        <time>2015-12-20T09:41:08.000Z</time>
      </trkpt>
      <trkpt lat="47.49294" lon="6.7278">
        <ele>398</ele>
        <time>2015-12-20T09:41:09.000Z</time>
      </trkpt>
      <trkpt lat="47.49295" lon="6.72775">
        <ele>398</ele>
        <time>2015-12-20T09:41:10.000Z</time>
      </trkpt>
      <trkpt lat="47.49296" lon="6.7277">
        <ele>398</ele>
        <time>2015-12-20T09:41:11.000Z</time>
      </trkpt>
      <trkpt lat="47.49297" lon="6.72765">
        <ele>398</ele>
        <time>2015-12-20T09:41:12.000Z</time>
      </trkpt>
      <trkpt lat="47.49298" lon="6.7276">
        <ele>398</ele>
        <time>2015-12-20T09:41:13.000Z</time>
      </trkpt>
      <trkpt lat="47.49299" lon="6.72756">
        <ele>398</ele>
        <time>2015-12-20T09:41:14.000Z</time>
      </trkpt>
      <trkpt lat="47.493" lon="6.7275">
        <ele>398</ele>
        <time>2015-12-20T09:41:15.000Z</time>
      </trkpt>
      <trkpt lat="47.493" lon="6.72745">
        <ele>399</ele>
        <time>2015-12-20T09:41:16.000Z</time>
      </trkpt>
      <trkpt lat="47.49301" lon="6.7274">
        <ele>399</ele>
        <time>2015-12-20T09:41:17.000Z</time>
      </trkpt>
      <trkpt lat="47.49302" lon="6.72734">
        <ele>399</ele>
        <time>2015-12-20T09:41:18.000Z</time>
      </trkpt>
      <trkpt lat="47.49302" lon="6.72729">
        <ele>399</ele>
        <time>2015-12-20T09:41:19.000Z</time>
      </trkpt>
      <trkpt lat="47.49302" lon="6.72724">
        <ele>399</ele>
        <time>2015-12-20T09:41:20.000Z</time>
      </trkpt>
      <trkpt lat="47.49303" lon="6.72718">
        <ele>399</ele>
        <time>2015-12-20T09:41:22.000Z</time>
      </trkpt>
      <trkpt lat="47.49303" lon="6.72715">
        <ele>399</ele>
        <time>2015-12-20T09:41:23.000Z</time>
      </trkpt>
      <trkpt lat="47.49303" lon="6.72709">
        <ele>399</ele>
        <time>2015-12-20T09:41:25.000Z</time>
      </trkpt>
      <trkpt lat="47.49302" lon="6.72704">
        <ele>399</ele>
        <time>2015-12-20T09:41:26.000Z</time>
      </trkpt>
      <trkpt lat="47.49302" lon="6.72701">
        <ele>399</ele>
        <time>2015-12-20T09:41:27.000Z</time>
      </trkpt>
      <trkpt lat="47.493" lon="6.72696">
        <ele>399</ele>
        <time>2015-12-20T09:41:28.000Z</time>
      </trkpt>
      <trkpt lat="47.493" lon="6.72693">
        <ele>400</ele>
        <time>2015-12-20T09:41:29.002Z</time>
      </trkpt>
      <trkpt lat="47.49299" lon="6.72689">
        <ele>400</ele>
        <time>2015-12-20T09:41:30.000Z</time>
      </trkpt>
      <trkpt lat="47.49297" lon="6.72683">
        <ele>399</ele>
        <time>2015-12-20T09:41:32.000Z</time>
      </trkpt>
      <trkpt lat="47.49296" lon="6.72679">
        <ele>399</ele>
        <time>2015-12-20T09:41:33.000Z</time>
      </trkpt>
      <trkpt lat="47.49295" lon="6.72676">
        <ele>399</ele>
        <time>2015-12-20T09:41:34.000Z</time>
      </trkpt>
      <trkpt lat="47.49294" lon="6.72672">
        <ele>399</ele>
        <time>2015-12-20T09:41:35.001Z</time>
      </trkpt>
      <trkpt lat="47.49293" lon="6.72667">
        <ele>401</ele>
        <time>2015-12-20T09:41:36.000Z</time>
      </trkpt>
      <trkpt lat="47.49291" lon="6.72662">
        <ele>401</ele>
        <time>2015-12-20T09:41:37.000Z</time>
      </trkpt>
      <trkpt lat="47.4929" lon="6.72659">
        <ele>400</ele>
        <time>2015-12-20T09:41:38.000Z</time>
      </trkpt>
      <trkpt lat="47.49286" lon="6.72643">
        <ele>401</ele>
        <time>2015-12-20T09:41:39.000Z</time>
      </trkpt>
      <trkpt lat="47.49284" lon="6.72638">
        <ele>401</ele>
        <time>2015-12-20T09:41:40.000Z</time>
      </trkpt>
      <trkpt lat="47.49281" lon="6.72632">
        <ele>401</ele>
        <time>2015-12-20T09:41:41.000Z</time>
      </trkpt>
      <trkpt lat="47.49279" lon="6.72628">
        <ele>401</ele>
        <time>2015-12-20T09:41:42.000Z</time>
      </trkpt>
      <trkpt lat="47.49277" lon="6.72625">
        <ele>401</ele>
        <time>2015-12-20T09:41:43.000Z</time>
      </trkpt>
      <trkpt lat="47.49275" lon="6.72621">
        <ele>401</ele>
        <time>2015-12-20T09:41:44.000Z</time>
      </trkpt>
      <trkpt lat="47.49273" lon="6.72618">
        <ele>401</ele>
        <time>2015-12-20T09:41:45.000Z</time>
      </trkpt>
      <trkpt lat="47.49271" lon="6.72615">
        <ele>401</ele>
        <time>2015-12-20T09:41:46.000Z</time>
      </trkpt>
      <trkpt lat="47.4927" lon="6.72607">
        <ele>401</ele>
        <time>2015-12-20T09:41:47.000Z</time>
      </trkpt>
      <trkpt lat="47.49268" lon="6.726">
        <ele>401</ele>
        <time>2015-12-20T09:41:48.000Z</time>
      </trkpt>
      <trkpt lat="47.49266" lon="6.72592">
        <ele>401</ele>
        <time>2015-12-20T09:41:49.000Z</time>
      </trkpt>
      <trkpt lat="47.49265" lon="6.72585">
        <ele>401</ele>
        <time>2015-12-20T09:41:50.000Z</time>
      </trkpt>
      <trkpt lat="47.49264" lon="6.72581">
        <ele>402</ele>
        <time>2015-12-20T09:41:51.000Z</time>
      </trkpt>
      <trkpt lat="47.49263" lon="6.72577">
        <ele>402</ele>
        <time>2015-12-20T09:41:52.000Z</time>
      </trkpt>
      <trkpt lat="47.49262" lon="6.7257">
        <ele>403</ele>
        <time>2015-12-20T09:41:53.000Z</time>
      </trkpt>
      <trkpt lat="47.49262" lon="6.72566">
        <ele>403</ele>
        <time>2015-12-20T09:41:54.000Z</time>
      </trkpt>
      <trkpt lat="47.49261" lon="6.72559">
        <ele>403</ele>
        <time>2015-12-20T09:41:55.000Z</time>
      </trkpt>
      <trkpt lat="47.4926" lon="6.72552">
        <ele>404</ele>
        <time>2015-12-20T09:41:56.000Z</time>
      </trkpt>
      <trkpt lat="47.49259" lon="6.72546">
        <ele>404</ele>
        <time>2015-12-20T09:41:57.000Z</time>
      </trkpt>
      <trkpt lat="47.4926" lon="6.7254">
        <ele>404</ele>
        <time>2015-12-20T09:41:58.000Z</time>
      </trkpt>
      <trkpt lat="47.49259" lon="6.72535">
        <ele>404</ele>
        <time>2015-12-20T09:41:59.000Z</time>
      </trkpt>
      <trkpt lat="47.49258" lon="6.72529">
        <ele>405</ele>
        <time>2015-12-20T09:42:00.000Z</time>
      </trkpt>
      <trkpt lat="47.49258" lon="6.72523">
        <ele>405</ele>
        <time>2015-12-20T09:42:01.000Z</time>
      </trkpt>
      <trkpt lat="47.49258" lon="6.72517">
        <ele>405</ele>
        <time>2015-12-20T09:42:02.000Z</time>
      </trkpt>
      <trkpt lat="47.49258" lon="6.72511">
        <ele>405</ele>
        <time>2015-12-20T09:42:03.000Z</time>
      </trkpt>
      <trkpt lat="47.49257" lon="6.72497">
        <ele>406</ele>
        <time>2015-12-20T09:42:04.000Z</time>
      </trkpt>
      <trkpt lat="47.49257" lon="6.72491">
        <ele>406</ele>
        <time>2015-12-20T09:42:05.000Z</time>
      </trkpt>
      <trkpt lat="47.49256" lon="6.72485">
        <ele>406</ele>
        <time>2015-12-20T09:42:06.000Z</time>
      </trkpt>
      <trkpt lat="47.49254" lon="6.72481">
        <ele>407</ele>
        <time>2015-12-20T09:42:07.000Z</time>
      </trkpt>
      <trkpt lat="47.49252" lon="6.72476">
        <ele>407</ele>
        <time>2015-12-20T09:42:08.000Z</time>
      </trkpt>
      <trkpt lat="47.4925" lon="6.72471">
        <ele>407</ele>
        <time>2015-12-20T09:42:09.000Z</time>
      </trkpt>
      <trkpt lat="47.49248" lon="6.72467">
        <ele>400</ele>
        <time>2015-12-20T09:42:10.000Z</time>
      </trkpt>
      <trkpt lat="47.49246" lon="6.72462">
        <ele>400</ele>
        <time>2015-12-20T09:42:11.000Z</time>
      </trkpt>
      <trkpt lat="47.49244" lon="6.72457">
        <ele>400</ele>
        <time>2015-12-20T09:42:12.000Z</time>
      </trkpt>
      <trkpt lat="47.49244" lon="6.72449">
        <ele>400</ele>
        <time>2015-12-20T09:42:13.000Z</time>
      </trkpt>
      <trkpt lat="47.49242" lon="6.72443">
        <ele>400</ele>
        <time>2015-12-20T09:42:14.000Z</time>
      </trkpt>
      <trkpt lat="47.49241" lon="6.72438">
        <ele>401</ele>
        <time>2015-12-20T09:42:15.000Z</time>
      </trkpt>
      <trkpt lat="47.49239" lon="6.72422">
        <ele>402</ele>
        <time>2015-12-20T09:42:16.000Z</time>
      </trkpt>
      <trkpt lat="47.49239" lon="6.72416">
        <ele>403</ele>
        <time>2015-12-20T09:42:17.000Z</time>
      </trkpt>
      <trkpt lat="47.49237" lon="6.72407">
        <ele>403</ele>
        <time>2015-12-20T09:42:18.000Z</time>
      </trkpt>
      <trkpt lat="47.49237" lon="6.72402">
        <ele>402</ele>
        <time>2015-12-20T09:42:19.000Z</time>
      </trkpt>
      <trkpt lat="47.49237" lon="6.72396">
        <ele>402</ele>
        <time>2015-12-20T09:42:20.000Z</time>
      </trkpt>
      <trkpt lat="47.49238" lon="6.7239">
        <ele>402</ele>
        <time>2015-12-20T09:42:21.000Z</time>
      </trkpt>
      <trkpt lat="47.49238" lon="6.72387">
        <ele>402</ele>
        <time>2015-12-20T09:42:22.000Z</time>
      </trkpt>
      <trkpt lat="47.49239" lon="6.72383">
        <ele>402</ele>
        <time>2015-12-20T09:42:23.000Z</time>
      </trkpt>
      <trkpt lat="47.49239" lon="6.72378">
        <ele>402</ele>
        <time>2015-12-20T09:42:24.000Z</time>
      </trkpt>
      <trkpt lat="47.49241" lon="6.72373">
        <ele>402</ele>
        <time>2015-12-20T09:42:25.000Z</time>
      </trkpt>
      <trkpt lat="47.49241" lon="6.72369">
        <ele>402</ele>
        <time>2015-12-20T09:42:26.000Z</time>
      </trkpt>
      <trkpt lat="47.49242" lon="6.72365">
        <ele>402</ele>
        <time>2015-12-20T09:42:27.000Z</time>
      </trkpt>
      <trkpt lat="47.49243" lon="6.72361">
        <ele>403</ele>
        <time>2015-12-20T09:42:28.000Z</time>
      </trkpt>
      <trkpt lat="47.49245" lon="6.72358">
        <ele>403</ele>
        <time>2015-12-20T09:42:29.000Z</time>
      </trkpt>
      <trkpt lat="47.49246" lon="6.72354">
        <ele>404</ele>
        <time>2015-12-20T09:42:30.000Z</time>
      </trkpt>
      <trkpt lat="47.49248" lon="6.7235">
        <ele>404</ele>
        <time>2015-12-20T09:42:31.000Z</time>
      </trkpt>
      <trkpt lat="47.49249" lon="6.72347">
        <ele>405</ele>
        <time>2015-12-20T09:42:32.000Z</time>
      </trkpt>
      <trkpt lat="47.4925" lon="6.72343">
        <ele>406</ele>
        <time>2015-12-20T09:42:33.000Z</time>
      </trkpt>
      <trkpt lat="47.4925" lon="6.72338">
        <ele>407</ele>
        <time>2015-12-20T09:42:34.000Z</time>
      </trkpt>
      <trkpt lat="47.49249" lon="6.72332">
        <ele>408</ele>
        <time>2015-12-20T09:42:35.000Z</time>
      </trkpt>
      <trkpt lat="47.49248" lon="6.72325">
        <ele>407</ele>
        <time>2015-12-20T09:42:36.000Z</time>
      </trkpt>
      <trkpt lat="47.49247" lon="6.7232">
        <ele>406</ele>
        <time>2015-12-20T09:42:37.000Z</time>
      </trkpt>
      <trkpt lat="47.49246" lon="6.72316">
        <ele>406</ele>
        <time>2015-12-20T09:42:38.000Z</time>
      </trkpt>
      <trkpt lat="47.49244" lon="6.72312">
        <ele>405</ele>
        <time>2015-12-20T09:42:39.000Z</time>
      </trkpt>
      <trkpt lat="47.49243" lon="6.72309">
        <ele>405</ele>
        <time>2015-12-20T09:42:40.000Z</time>
      </trkpt>
      <trkpt lat="47.49241" lon="6.72304">
        <ele>405</ele>
        <time>2015-12-20T09:42:41.000Z</time>
      </trkpt>
      <trkpt lat="47.49239" lon="6.72299">
        <ele>405</ele>
        <time>2015-12-20T09:42:42.000Z</time>
      </trkpt>
      <trkpt lat="47.49238" lon="6.72294">
        <ele>405</ele>
        <time>2015-12-20T09:42:43.000Z</time>
      </trkpt>
      <trkpt lat="47.49237" lon="6.72288">
        <ele>405</ele>
        <time>2015-12-20T09:42:44.000Z</time>
      </trkpt>
      <trkpt lat="47.49236" lon="6.72282">
        <ele>405</ele>
        <time>2015-12-20T09:42:45.000Z</time>
      </trkpt>
      <trkpt lat="47.49235" lon="6.72277">
        <ele>405</ele>
        <time>2015-12-20T09:42:46.000Z</time>
      </trkpt>
      <trkpt lat="47.49233" lon="6.72273">
        <ele>405</ele>
        <time>2015-12-20T09:42:47.000Z</time>
      </trkpt>
      <trkpt lat="47.49231" lon="6.72268">
        <ele>406</ele>
        <time>2015-12-20T09:42:48.000Z</time>
      </trkpt>
      <trkpt lat="47.4923" lon="6.72262">
        <ele>406</ele>
        <time>2015-12-20T09:42:49.000Z</time>
      </trkpt>
      <trkpt lat="47.49228" lon="6.72256">
        <ele>406</ele>
        <time>2015-12-20T09:42:50.000Z</time>
      </trkpt>
      <trkpt lat="47.49226" lon="6.7225">
        <ele>407</ele>
        <time>2015-12-20T09:42:51.000Z</time>
      </trkpt>
      <trkpt lat="47.49225" lon="6.72243">
        <ele>407</ele>
        <time>2015-12-20T09:42:52.000Z</time>
      </trkpt>
      <trkpt lat="47.49223" lon="6.72236">
        <ele>406</ele>
        <time>2015-12-20T09:42:53.000Z</time>
      </trkpt>
      <trkpt lat="47.49222" lon="6.72228">
        <ele>406</ele>
        <time>2015-12-20T09:42:54.000Z</time>
      </trkpt>
      <trkpt lat="47.49222" lon="6.72221">
        <ele>406</ele>
        <time>2015-12-20T09:42:55.000Z</time>
      </trkpt>
      <trkpt lat="47.49222" lon="6.72214">
        <ele>406</ele>
        <time>2015-12-20T09:42:56.000Z</time>
      </trkpt>
      <trkpt lat="47.49221" lon="6.72206">
        <ele>406</ele>
        <time>2015-12-20T09:42:57.000Z</time>
      </trkpt>
      <trkpt lat="47.49221" lon="6.72199">
        <ele>406</ele>
        <time>2015-12-20T09:42:58.000Z</time>
      </trkpt>
      <trkpt lat="47.49221" lon="6.72192">
        <ele>407</ele>
        <time>2015-12-20T09:42:59.000Z</time>
      </trkpt>
      <trkpt lat="47.49221" lon="6.72185">
        <ele>407</ele>
        <time>2015-12-20T09:43:00.000Z</time>
      </trkpt>
      <trkpt lat="47.4922" lon="6.72178">
        <ele>407</ele>
        <time>2015-12-20T09:43:01.000Z</time>
      </trkpt>
      <trkpt lat="47.4922" lon="6.72173">
        <ele>407</ele>
        <time>2015-12-20T09:43:02.000Z</time>
      </trkpt>
      <trkpt lat="47.4922" lon="6.72167">
        <ele>407</ele>
        <time>2015-12-20T09:43:03.000Z</time>
      </trkpt>
      <trkpt lat="47.4922" lon="6.72162">
        <ele>409</ele>
        <time>2015-12-20T09:43:04.000Z</time>
      </trkpt>
      <trkpt lat="47.4922" lon="6.72158">
        <ele>408</ele>
        <time>2015-12-20T09:43:05.000Z</time>
      </trkpt>
      <trkpt lat="47.49219" lon="6.72154">
        <ele>408</ele>
        <time>2015-12-20T09:43:06.000Z</time>
      </trkpt>
      <trkpt lat="47.49219" lon="6.7215">
        <ele>408</ele>
        <time>2015-12-20T09:43:07.000Z</time>
      </trkpt>
      <trkpt lat="47.49219" lon="6.72147">
        <ele>408</ele>
        <time>2015-12-20T09:43:08.000Z</time>
      </trkpt>
      <trkpt lat="47.4922" lon="6.72143">
        <ele>408</ele>
        <time>2015-12-20T09:43:09.000Z</time>
      </trkpt>
      <trkpt lat="47.4922" lon="6.7214">
        <ele>408</ele>
        <time>2015-12-20T09:43:10.000Z</time>
      </trkpt>
      <trkpt lat="47.49222" lon="6.72135">
        <ele>408</ele>
        <time>2015-12-20T09:43:11.000Z</time>
      </trkpt>
      <trkpt lat="47.49223" lon="6.7213">
        <ele>408</ele>
        <time>2015-12-20T09:43:12.000Z</time>
      </trkpt>
      <trkpt lat="47.49225" lon="6.72127">
        <ele>408</ele>
        <time>2015-12-20T09:43:13.000Z</time>
      </trkpt>
      <trkpt lat="47.49226" lon="6.72124">
        <ele>409</ele>
        <time>2015-12-20T09:43:14.000Z</time>
      </trkpt>
      <trkpt lat="47.49228" lon="6.72122">
        <ele>409</ele>
        <time>2015-12-20T09:43:15.000Z</time>
      </trkpt>
      <trkpt lat="47.49229" lon="6.72119">
        <ele>409</ele>
        <time>2015-12-20T09:43:16.000Z</time>
      </trkpt>
      <trkpt lat="47.49231" lon="6.72115">
        <ele>409</ele>
        <time>2015-12-20T09:43:17.000Z</time>
      </trkpt>
      <trkpt lat="47.49233" lon="6.72111">
        <ele>410</ele>
        <time>2015-12-20T09:43:18.000Z</time>
      </trkpt>
      <trkpt lat="47.49234" lon="6.72107">
        <ele>410</ele>
        <time>2015-12-20T09:43:19.000Z</time>
      </trkpt>
      <trkpt lat="47.49234" lon="6.72103">
        <ele>410</ele>
        <time>2015-12-20T09:43:20.000Z</time>
      </trkpt>
      <trkpt lat="47.49229" lon="6.72085">
        <ele>411</ele>
        <time>2015-12-20T09:43:21.000Z</time>
      </trkpt>
      <trkpt lat="47.49228" lon="6.72078">
        <ele>411</ele>
        <time>2015-12-20T09:43:22.000Z</time>
      </trkpt>
      <trkpt lat="47.49226" lon="6.72072">
        <ele>411</ele>
        <time>2015-12-20T09:43:23.000Z</time>
      </trkpt>
      <trkpt lat="47.49224" lon="6.7207">
        <ele>410</ele>
        <time>2015-12-20T09:43:24.000Z</time>
      </trkpt>
      <trkpt lat="47.49223" lon="6.72068">
        <ele>410</ele>
        <time>2015-12-20T09:43:25.000Z</time>
      </trkpt>
      <trkpt lat="47.49222" lon="6.72059">
        <ele>410</ele>
        <time>2015-12-20T09:43:26.000Z</time>
      </trkpt>
      <trkpt lat="47.49221" lon="6.72053">
        <ele>410</ele>
        <time>2015-12-20T09:43:27.000Z</time>
      </trkpt>
      <trkpt lat="47.49224" lon="6.7205">
        <ele>410</ele>
        <time>2015-12-20T09:43:28.000Z</time>
      </trkpt>
      <trkpt lat="47.49224" lon="6.72046">
        <ele>410</ele>
        <time>2015-12-20T09:43:29.000Z</time>
      </trkpt>
      <trkpt lat="47.49226" lon="6.72043">
        <ele>410</ele>
        <time>2015-12-20T09:43:30.000Z</time>
      </trkpt>
      <trkpt lat="47.49229" lon="6.72036">
        <ele>411</ele>
        <time>2015-12-20T09:43:31.000Z</time>
      </trkpt>
      <trkpt lat="47.4923" lon="6.72032">
        <ele>411</ele>
        <time>2015-12-20T09:43:32.000Z</time>
      </trkpt>
      <trkpt lat="47.4923" lon="6.72028">
        <ele>411</ele>
        <time>2015-12-20T09:43:33.000Z</time>
      </trkpt>
      <trkpt lat="47.49231" lon="6.72023">
        <ele>412</ele>
        <time>2015-12-20T09:43:35.000Z</time>
      </trkpt>
      <trkpt lat="47.4923" lon="6.72021">
        <ele>412</ele>
        <time>2015-12-20T09:43:36.000Z</time>
      </trkpt>
      <trkpt lat="47.49229" lon="6.72018">
        <ele>412</ele>
        <time>2015-12-20T09:43:37.000Z</time>
      </trkpt>
      <trkpt lat="47.49227" lon="6.72015">
        <ele>412</ele>
        <time>2015-12-20T09:43:38.000Z</time>
      </trkpt>
      <trkpt lat="47.49225" lon="6.72012">
        <ele>411</ele>
        <time>2015-12-20T09:43:39.000Z</time>
      </trkpt>
      <trkpt lat="47.49223" lon="6.72009">
        <ele>411</ele>
        <time>2015-12-20T09:43:40.000Z</time>
      </trkpt>
      <trkpt lat="47.49221" lon="6.72006">
        <ele>411</ele>
        <time>2015-12-20T09:43:41.000Z</time>
      </trkpt>
      <trkpt lat="47.49219" lon="6.72004">
        <ele>411</ele>
        <time>2015-12-20T09:43:42.000Z</time>
      </trkpt>
      <trkpt lat="47.49218" lon="6.72002">
        <ele>411</ele>
        <time>2015-12-20T09:43:43.000Z</time>
      </trkpt>
      <trkpt lat="47.49216" lon="6.72">
        <ele>412</ele>
        <time>2015-12-20T09:43:44.000Z</time>
      </trkpt>
      <trkpt lat="47.49214" lon="6.71997">
        <ele>412</ele>
        <time>2015-12-20T09:43:45.000Z</time>
      </trkpt>
      <trkpt lat="47.49211" lon="6.71995">
        <ele>411</ele>
        <time>2015-12-20T09:43:46.000Z</time>
      </trkpt>
      <trkpt lat="47.49209" lon="6.71992">
        <ele>411</ele>
        <time>2015-12-20T09:43:47.000Z</time>
      </trkpt>
      <trkpt lat="47.49206" lon="6.7199">
        <ele>411</ele>
        <time>2015-12-20T09:43:48.000Z</time>
      </trkpt>
      <trkpt lat="47.49203" lon="6.71987">
        <ele>410</ele>
        <time>2015-12-20T09:43:49.000Z</time>
      </trkpt>
      <trkpt lat="47.49195" lon="6.71981">
        <ele>409</ele>
        <time>2015-12-20T09:43:51.000Z</time>
      </trkpt>
      <trkpt lat="47.49192" lon="6.71977">
        <ele>409</ele>
        <time>2015-12-20T09:43:52.000Z</time>
      </trkpt>
      <trkpt lat="47.4919" lon="6.71971">
        <ele>409</ele>
        <time>2015-12-20T09:43:53.000Z</time>
      </trkpt>
      <trkpt lat="47.49189" lon="6.71965">
        <ele>409</ele>
        <time>2015-12-20T09:43:54.000Z</time>
      </trkpt>
      <trkpt lat="47.49188" lon="6.71959">
        <ele>409</ele>
        <time>2015-12-20T09:43:55.000Z</time>
      </trkpt>
      <trkpt lat="47.49187" lon="6.71954">
        <ele>409</ele>
        <time>2015-12-20T09:43:56.000Z</time>
      </trkpt>
      <trkpt lat="47.49187" lon="6.71949">
        <ele>409</ele>
        <time>2015-12-20T09:43:57.000Z</time>
      </trkpt>
      <trkpt lat="47.49186" lon="6.71945">
        <ele>409</ele>
        <time>2015-12-20T09:43:58.000Z</time>
      </trkpt>
      <trkpt lat="47.49186" lon="6.71941">
        <ele>409</ele>
        <time>2015-12-20T09:43:59.000Z</time>
      </trkpt>
      <trkpt lat="47.49186" lon="6.71937">
        <ele>409</ele>
        <time>2015-12-20T09:44:00.000Z</time>
      </trkpt>
      <trkpt lat="47.49185" lon="6.71933">
        <ele>409</ele>
        <time>2015-12-20T09:44:01.000Z</time>
      </trkpt>
      <trkpt lat="47.49183" lon="6.71929">
        <ele>409</ele>
        <time>2015-12-20T09:44:02.000Z</time>
      </trkpt>
      <trkpt lat="47.49181" lon="6.71924">
        <ele>408</ele>
        <time>2015-12-20T09:44:03.000Z</time>
      </trkpt>
      <trkpt lat="47.49179" lon="6.7192">
        <ele>408</ele>
        <time>2015-12-20T09:44:04.000Z</time>
      </trkpt>
      <trkpt lat="47.49177" lon="6.71916">
        <ele>408</ele>
        <time>2015-12-20T09:44:05.000Z</time>
      </trkpt>
      <trkpt lat="47.49175" lon="6.71913">
        <ele>407</ele>
        <time>2015-12-20T09:44:06.000Z</time>
      </trkpt>
      <trkpt lat="47.49173" lon="6.71911">
        <ele>407</ele>
        <time>2015-12-20T09:44:07.000Z</time>
      </trkpt>
      <trkpt lat="47.4917" lon="6.7191">
        <ele>407</ele>
        <time>2015-12-20T09:44:08.000Z</time>
      </trkpt>
      <trkpt lat="47.49166" lon="6.71908">
        <ele>402</ele>
        <time>2015-12-20T09:44:09.000Z</time>
      </trkpt>
      <trkpt lat="47.49162" lon="6.71905">
        <ele>402</ele>
        <time>2015-12-20T09:44:10.000Z</time>
      </trkpt>
      <trkpt lat="47.4916" lon="6.71901">
        <ele>401</ele>
        <time>2015-12-20T09:44:11.000Z</time>
      </trkpt>
      <trkpt lat="47.49159" lon="6.71896">
        <ele>400</ele>
        <time>2015-12-20T09:44:12.000Z</time>
      </trkpt>
      <trkpt lat="47.49158" lon="6.71891">
        <ele>399</ele>
        <time>2015-12-20T09:44:13.000Z</time>
      </trkpt>
      <trkpt lat="47.49158" lon="6.71886">
        <ele>399</ele>
        <time>2015-12-20T09:44:14.000Z</time>
      </trkpt>
      <trkpt lat="47.49158" lon="6.71882">
        <ele>399</ele>
        <time>2015-12-20T09:44:15.000Z</time>
      </trkpt>
      <trkpt lat="47.49158" lon="6.71876">
        <ele>399</ele>
        <time>2015-12-20T09:44:17.000Z</time>
      </trkpt>
      <trkpt lat="47.49158" lon="6.71874">
        <ele>399</ele>
        <time>2015-12-20T09:44:18.000Z</time>
      </trkpt>
      <trkpt lat="47.49159" lon="6.71868">
        <ele>399</ele>
        <time>2015-12-20T09:44:29.000Z</time>
      </trkpt>
      <trkpt lat="47.49158" lon="6.71867">
        <ele>399</ele>
        <time>2015-12-20T09:44:30.000Z</time>
      </trkpt>
      <trkpt lat="47.49158" lon="6.71861">
        <ele>399</ele>
        <time>2015-12-20T09:44:56.000Z</time>
      </trkpt>
      <trkpt lat="47.49158" lon="6.71861">
        <ele>399</ele>
        <time>2015-12-20T09:44:57.000Z</time>
      </trkpt>
      <trkpt lat="47.49157" lon="6.71856">
        <ele>400</ele>
        <time>2015-12-20T09:45:00.000Z</time>
      </trkpt>
      <trkpt lat="47.49156" lon="6.71852">
        <ele>400</ele>
        <time>2015-12-20T09:45:01.000Z</time>
      </trkpt>
      <trkpt lat="47.49155" lon="6.71847">
        <ele>401</ele>
        <time>2015-12-20T09:45:03.000Z</time>
      </trkpt>
      <trkpt lat="47.49154" lon="6.71845">
        <ele>401</ele>
        <time>2015-12-20T09:45:04.000Z</time>
      </trkpt>
      <trkpt lat="47.49152" lon="6.7184">
        <ele>401</ele>
        <time>2015-12-20T09:45:06.000Z</time>
      </trkpt>
      <trkpt lat="47.49152" lon="6.71838">
        <ele>401</ele>
        <time>2015-12-20T09:45:07.000Z</time>
      </trkpt>
      <trkpt lat="47.49149" lon="6.71833">
        <ele>401</ele>
        <time>2015-12-20T09:45:10.000Z</time>
      </trkpt>
      <trkpt lat="47.49148" lon="6.71831">
        <ele>401</ele>
        <time>2015-12-20T09:45:11.000Z</time>
      </trkpt>
      <trkpt lat="47.49147" lon="6.71826">
        <ele>401</ele>
        <time>2015-12-20T09:45:13.999Z</time>
      </trkpt>
      <trkpt lat="47.49147" lon="6.71824">
        <ele>400</ele>
        <time>2015-12-20T09:45:15.000Z</time>
      </trkpt>
      <trkpt lat="47.49143" lon="6.71822">
        <ele>400</ele>
        <time>2015-12-20T09:45:20.000Z</time>
      </trkpt>
      <trkpt lat="47.49142" lon="6.7182">
        <ele>399</ele>
        <time>2015-12-20T09:45:21.000Z</time>
      </trkpt>
      <trkpt lat="47.49141" lon="6.71815">
        <ele>399</ele>
        <time>2015-12-20T09:45:22.000Z</time>
      </trkpt>
      <trkpt lat="47.4914" lon="6.71808">
        <ele>399</ele>
        <time>2015-12-20T09:45:23.000Z</time>
      </trkpt>
      <trkpt lat="47.49139" lon="6.71801">
        <ele>399</ele>
        <time>2015-12-20T09:45:24.000Z</time>
      </trkpt>
      <trkpt lat="47.49139" lon="6.71795">
        <ele>399</ele>
        <time>2015-12-20T09:45:25.000Z</time>
      </trkpt>
      <trkpt lat="47.49139" lon="6.7179">
        <ele>399</ele>
        <time>2015-12-20T09:45:26.000Z</time>
      </trkpt>
      <trkpt lat="47.49139" lon="6.71785">
        <ele>399</ele>
        <time>2015-12-20T09:45:27.000Z</time>
      </trkpt>
      <trkpt lat="47.49138" lon="6.71781">
        <ele>399</ele>
        <time>2015-12-20T09:45:28.000Z</time>
      </trkpt>
      <trkpt lat="47.49137" lon="6.71778">
        <ele>399</ele>
        <time>2015-12-20T09:45:29.000Z</time>
      </trkpt>
      <trkpt lat="47.49136" lon="6.71775">
        <ele>399</ele>
        <time>2015-12-20T09:45:30.000Z</time>
      </trkpt>
      <trkpt lat="47.49132" lon="6.71774">
        <ele>398</ele>
        <time>2015-12-20T09:45:35.000Z</time>
      </trkpt>
      <trkpt lat="47.49131" lon="6.71774">
        <ele>398</ele>
        <time>2015-12-20T09:45:36.000Z</time>
      </trkpt>
      <trkpt lat="47.49129" lon="6.7177">
        <ele>398</ele>
        <time>2015-12-20T09:45:56.000Z</time>
      </trkpt>
      <trkpt lat="47.49128" lon="6.71769">
        <ele>398</ele>
        <time>2015-12-20T09:45:57.000Z</time>
      </trkpt>
      <trkpt lat="47.49126" lon="6.71766">
        <ele>397</ele>
        <time>2015-12-20T09:45:59.000Z</time>
      </trkpt>
      <trkpt lat="47.49125" lon="6.71762">
        <ele>397</ele>
        <time>2015-12-20T09:46:00.000Z</time>
      </trkpt>
      <trkpt lat="47.49123" lon="6.71759">
        <ele>397</ele>
        <time>2015-12-20T09:46:01.000Z</time>
      </trkpt>
      <trkpt lat="47.49121" lon="6.71756">
        <ele>397</ele>
        <time>2015-12-20T09:46:02.000Z</time>
      </trkpt>
      <trkpt lat="47.49118" lon="6.71752">
        <ele>396</ele>
        <time>2015-12-20T09:46:03.000Z</time>
      </trkpt>
      <trkpt lat="47.49115" lon="6.71749">
        <ele>398</ele>
        <time>2015-12-20T09:46:04.000Z</time>
      </trkpt>
      <trkpt lat="47.49112" lon="6.71746">
        <ele>397</ele>
        <time>2015-12-20T09:46:05.000Z</time>
      </trkpt>
      <trkpt lat="47.49109" lon="6.71743">
        <ele>397</ele>
        <time>2015-12-20T09:46:06.000Z</time>
      </trkpt>
      <trkpt lat="47.49106" lon="6.7174">
        <ele>396</ele>
        <time>2015-12-20T09:46:07.000Z</time>
      </trkpt>
      <trkpt lat="47.49104" lon="6.71736">
        <ele>396</ele>
        <time>2015-12-20T09:46:08.000Z</time>
      </trkpt>
      <trkpt lat="47.49102" lon="6.71732">
        <ele>396</ele>
        <time>2015-12-20T09:46:09.000Z</time>
      </trkpt>
      <trkpt lat="47.49101" lon="6.71726">
        <ele>397</ele>
        <time>2015-12-20T09:46:10.000Z</time>
      </trkpt>
      <trkpt lat="47.491" lon="6.7172">
        <ele>397</ele>
        <time>2015-12-20T09:46:11.000Z</time>
      </trkpt>
      <trkpt lat="47.49101" lon="6.71714">
        <ele>397</ele>
        <time>2015-12-20T09:46:12.000Z</time>
      </trkpt>
      <trkpt lat="47.49102" lon="6.71708">
        <ele>398</ele>
        <time>2015-12-20T09:46:13.000Z</time>
      </trkpt>
      <trkpt lat="47.49103" lon="6.71702">
        <ele>398</ele>
        <time>2015-12-20T09:46:14.000Z</time>
      </trkpt>
      <trkpt lat="47.49105" lon="6.71697">
        <ele>398</ele>
        <time>2015-12-20T09:46:15.000Z</time>
      </trkpt>
      <trkpt lat="47.49105" lon="6.71692">
        <ele>398</ele>
        <time>2015-12-20T09:46:16.000Z</time>
      </trkpt>
      <trkpt lat="47.49107" lon="6.71687">
        <ele>399</ele>
        <time>2015-12-20T09:46:17.000Z</time>
      </trkpt>
      <trkpt lat="47.49108" lon="6.71683">
        <ele>399</ele>
        <time>2015-12-20T09:46:18.000Z</time>
      </trkpt>
      <trkpt lat="47.49109" lon="6.71678">
        <ele>399</ele>
        <time>2015-12-20T09:46:19.000Z</time>
      </trkpt>
      <trkpt lat="47.49109" lon="6.71673">
        <ele>399</ele>
        <time>2015-12-20T09:46:20.000Z</time>
      </trkpt>
      <trkpt lat="47.4911" lon="6.71668">
        <ele>399</ele>
        <time>2015-12-20T09:46:21.000Z</time>
      </trkpt>
      <trkpt lat="47.4911" lon="6.71664">
        <ele>401</ele>
        <time>2015-12-20T09:46:22.000Z</time>
      </trkpt>
      <trkpt lat="47.4911" lon="6.7166">
        <ele>401</ele>
        <time>2015-12-20T09:46:23.000Z</time>
      </trkpt>
      <trkpt lat="47.4911" lon="6.71657">
        <ele>401</ele>
        <time>2015-12-20T09:46:24.000Z</time>
      </trkpt>
      <trkpt lat="47.49111" lon="6.71654">
        <ele>401</ele>
        <time>2015-12-20T09:46:25.000Z</time>
      </trkpt>
      <trkpt lat="47.49111" lon="6.7165">
        <ele>401</ele>
        <time>2015-12-20T09:46:26.000Z</time>
      </trkpt>
      <trkpt lat="47.49112" lon="6.71647">
        <ele>401</ele>
        <time>2015-12-20T09:46:27.001Z</time>
      </trkpt>
      <trkpt lat="47.49113" lon="6.7164">
        <ele>402</ele>
        <time>2015-12-20T09:46:28.000Z</time>
      </trkpt>
      <trkpt lat="47.49114" lon="6.71634">
        <ele>402</ele>
        <time>2015-12-20T09:46:29.000Z</time>
      </trkpt>
      <trkpt lat="47.49115" lon="6.7163">
        <ele>402</ele>
        <time>2015-12-20T09:46:30.000Z</time>
      </trkpt>
      <trkpt lat="47.49116" lon="6.71626">
        <ele>402</ele>
        <time>2015-12-20T09:46:31.000Z</time>
      </trkpt>
      <trkpt lat="47.49116" lon="6.71621">
        <ele>402</ele>
        <time>2015-12-20T09:46:32.000Z</time>
      </trkpt>
      <trkpt lat="47.49117" lon="6.71617">
        <ele>402</ele>
        <time>2015-12-20T09:46:33.000Z</time>
      </trkpt>
      <trkpt lat="47.49117" lon="6.71614">
        <ele>403</ele>
        <time>2015-12-20T09:46:34.001Z</time>
      </trkpt>
      <trkpt lat="47.49117" lon="6.7161">
        <ele>403</ele>
        <time>2015-12-20T09:46:35.000Z</time>
      </trkpt>
      <trkpt lat="47.49117" lon="6.71605">
        <ele>402</ele>
        <time>2015-12-20T09:46:36.000Z</time>
      </trkpt>
      <trkpt lat="47.49117" lon="6.71599">
        <ele>402</ele>
        <time>2015-12-20T09:46:37.000Z</time>
      </trkpt>
      <trkpt lat="47.49118" lon="6.71593">
        <ele>402</ele>
        <time>2015-12-20T09:46:38.000Z</time>
      </trkpt>
      <trkpt lat="47.49118" lon="6.71588">
        <ele>403</ele>
        <time>2015-12-20T09:46:39.000Z</time>
      </trkpt>
      <trkpt lat="47.49119" lon="6.71582">
        <ele>404</ele>
        <time>2015-12-20T09:46:40.000Z</time>
      </trkpt>
      <trkpt lat="47.4912" lon="6.71578">
        <ele>404</ele>
        <time>2015-12-20T09:46:40.999Z</time>
      </trkpt>
      <trkpt lat="47.4912" lon="6.71572">
        <ele>404</ele>
        <time>2015-12-20T09:46:42.000Z</time>
      </trkpt>
      <trkpt lat="47.4912" lon="6.71566">
        <ele>404</ele>
        <time>2015-12-20T09:46:42.999Z</time>
      </trkpt>
      <trkpt lat="47.49119" lon="6.7156">
        <ele>404</ele>
        <time>2015-12-20T09:46:44.000Z</time>
      </trkpt>
      <trkpt lat="47.49119" lon="6.71556">
        <ele>404</ele>
        <time>2015-12-20T09:46:45.000Z</time>
      </trkpt>
      <trkpt lat="47.49118" lon="6.71551">
        <ele>404</ele>
        <time>2015-12-20T09:46:46.000Z</time>
      </trkpt>
      <trkpt lat="47.49118" lon="6.71545">
        <ele>404</ele>
        <time>2015-12-20T09:46:47.000Z</time>
      </trkpt>
      <trkpt lat="47.49118" lon="6.71541">
        <ele>404</ele>
        <time>2015-12-20T09:46:48.001Z</time>
      </trkpt>
      <trkpt lat="47.49118" lon="6.71534">
        <ele>404</ele>
        <time>2015-12-20T09:46:49.000Z</time>
      </trkpt>
      <trkpt lat="47.49119" lon="6.71529">
        <ele>405</ele>
        <time>2015-12-20T09:46:50.000Z</time>
      </trkpt>
      <trkpt lat="47.49119" lon="6.71523">
        <ele>405</ele>
        <time>2015-12-20T09:46:51.000Z</time>
      </trkpt>
      <trkpt lat="47.4912" lon="6.71518">
        <ele>405</ele>
        <time>2015-12-20T09:46:52.000Z</time>
      </trkpt>
      <trkpt lat="47.4912" lon="6.71513">
        <ele>405</ele>
        <time>2015-12-20T09:46:53.000Z</time>
      </trkpt>
      <trkpt lat="47.49121" lon="6.71509">
        <ele>405</ele>
        <time>2015-12-20T09:46:54.000Z</time>
      </trkpt>
      <trkpt lat="47.49121" lon="6.71505">
        <ele>405</ele>
        <time>2015-12-20T09:46:55.000Z</time>
      </trkpt>
      <trkpt lat="47.49122" lon="6.71502">
        <ele>405</ele>
        <time>2015-12-20T09:46:56.000Z</time>
      </trkpt>
      <trkpt lat="47.49122" lon="6.71498">
        <ele>405</ele>
        <time>2015-12-20T09:46:57.000Z</time>
      </trkpt>
      <trkpt lat="47.49122" lon="6.71495">
        <ele>405</ele>
        <time>2015-12-20T09:46:58.000Z</time>
      </trkpt>
      <trkpt lat="47.49122" lon="6.71491">
        <ele>405</ele>
        <time>2015-12-20T09:46:59.000Z</time>
      </trkpt>
      <trkpt lat="47.49123" lon="6.71484">
        <ele>405</ele>
        <time>2015-12-20T09:47:01.000Z</time>
      </trkpt>
      <trkpt lat="47.49124" lon="6.7148">
        <ele>405</ele>
        <time>2015-12-20T09:47:02.000Z</time>
      </trkpt>
      <trkpt lat="47.49124" lon="6.71476">
        <ele>405</ele>
        <time>2015-12-20T09:47:03.000Z</time>
      </trkpt>
      <trkpt lat="47.49124" lon="6.71472">
        <ele>406</ele>
        <time>2015-12-20T09:47:04.000Z</time>
      </trkpt>
      <trkpt lat="47.49125" lon="6.71467">
        <ele>406</ele>
        <time>2015-12-20T09:47:05.000Z</time>
      </trkpt>
      <trkpt lat="47.49127" lon="6.71464">
        <ele>406</ele>
        <time>2015-12-20T09:47:06.000Z</time>
      </trkpt>
      <trkpt lat="47.49128" lon="6.7146">
        <ele>406</ele>
        <time>2015-12-20T09:47:07.000Z</time>
      </trkpt>
      <trkpt lat="47.49129" lon="6.71456">
        <ele>406</ele>
        <time>2015-12-20T09:47:08.000Z</time>
      </trkpt>
      <trkpt lat="47.4913" lon="6.71452">
        <ele>406</ele>
        <time>2015-12-20T09:47:09.000Z</time>
      </trkpt>
      <trkpt lat="47.4913" lon="6.71449">
        <ele>406</ele>
        <time>2015-12-20T09:47:10.000Z</time>
      </trkpt>
      <trkpt lat="47.49131" lon="6.71443">
        <ele>406</ele>
        <time>2015-12-20T09:47:12.000Z</time>
      </trkpt>
      <trkpt lat="47.49132" lon="6.71441">
        <ele>406</ele>
        <time>2015-12-20T09:47:13.000Z</time>
      </trkpt>
      <trkpt lat="47.49135" lon="6.71437">
        <ele>407</ele>
        <time>2015-12-20T09:47:15.000Z</time>
      </trkpt>
      <trkpt lat="47.49136" lon="6.71435">
        <ele>407</ele>
        <time>2015-12-20T09:47:16.000Z</time>
      </trkpt>
      <trkpt lat="47.49138" lon="6.71431">
        <ele>407</ele>
        <time>2015-12-20T09:47:18.000Z</time>
      </trkpt>
      <trkpt lat="47.49139" lon="6.71429">
        <ele>407</ele>
        <time>2015-12-20T09:47:19.000Z</time>
      </trkpt>
      <trkpt lat="47.49142" lon="6.71427">
        <ele>408</ele>
        <time>2015-12-20T09:47:21.000Z</time>
      </trkpt>
      <trkpt lat="47.49143" lon="6.71426">
        <ele>408</ele>
        <time>2015-12-20T09:47:22.000Z</time>
      </trkpt>
      <trkpt lat="47.49146" lon="6.71422">
        <ele>409</ele>
        <time>2015-12-20T09:47:25.000Z</time>
      </trkpt>
      <trkpt lat="47.49147" lon="6.7142">
        <ele>409</ele>
        <time>2015-12-20T09:47:26.001Z</time>
      </trkpt>
      <trkpt lat="47.49149" lon="6.71415">
        <ele>409</ele>
        <time>2015-12-20T09:47:28.000Z</time>
      </trkpt>
      <trkpt lat="47.49149" lon="6.71413">
        <ele>409</ele>
        <time>2015-12-20T09:47:29.000Z</time>
      </trkpt>
      <trkpt lat="47.49151" lon="6.71408">
        <ele>409</ele>
        <time>2015-12-20T09:47:32.000Z</time>
      </trkpt>
      <trkpt lat="47.49151" lon="6.71407">
        <ele>409</ele>
        <time>2015-12-20T09:47:33.000Z</time>
      </trkpt>
      <trkpt lat="47.49151" lon="6.71401">
        <ele>408</ele>
        <time>2015-12-20T09:47:38.000Z</time>
      </trkpt>
      <trkpt lat="47.49151" lon="6.71399">
        <ele>408</ele>
        <time>2015-12-20T09:47:39.000Z</time>
      </trkpt>
      <trkpt lat="47.49152" lon="6.71392">
        <ele>408</ele>
        <time>2015-12-20T09:47:42.000Z</time>
      </trkpt>
      <trkpt lat="47.49152" lon="6.7139">
        <ele>408</ele>
        <time>2015-12-20T09:47:43.000Z</time>
      </trkpt>
      <trkpt lat="47.49151" lon="6.71385">
        <ele>407</ele>
        <time>2015-12-20T09:47:46.000Z</time>
      </trkpt>
      <trkpt lat="47.49151" lon="6.71383">
        <ele>407</ele>
        <time>2015-12-20T09:47:47.000Z</time>
      </trkpt>
      <trkpt lat="47.4915" lon="6.71379">
        <ele>407</ele>
        <time>2015-12-20T09:47:49.000Z</time>
      </trkpt>
      <trkpt lat="47.49149" lon="6.71376">
        <ele>407</ele>
        <time>2015-12-20T09:47:50.000Z</time>
      </trkpt>
      <trkpt lat="47.49148" lon="6.71372">
        <ele>407</ele>
        <time>2015-12-20T09:47:51.000Z</time>
      </trkpt>
      <trkpt lat="47.49148" lon="6.71367">
        <ele>407</ele>
        <time>2015-12-20T09:47:52.000Z</time>
      </trkpt>
      <trkpt lat="47.49147" lon="6.71363">
        <ele>407</ele>
        <time>2015-12-20T09:47:53.000Z</time>
      </trkpt>
      <trkpt lat="47.49147" lon="6.71359">
        <ele>407</ele>
        <time>2015-12-20T09:47:54.000Z</time>
      </trkpt>
      <trkpt lat="47.49148" lon="6.71354">
        <ele>408</ele>
        <time>2015-12-20T09:47:56.000Z</time>
      </trkpt>
      <trkpt lat="47.49147" lon="6.71352">
        <ele>408</ele>
        <time>2015-12-20T09:47:57.000Z</time>
      </trkpt>
      <trkpt lat="47.49145" lon="6.71348">
        <ele>407</ele>
        <time>2015-12-20T09:47:59.000Z</time>
      </trkpt>
      <trkpt lat="47.49144" lon="6.71347">
        <ele>407</ele>
        <time>2015-12-20T09:48:00.000Z</time>
      </trkpt>
      <trkpt lat="47.49142" lon="6.71341">
        <ele>407</ele>
        <time>2015-12-20T09:48:02.000Z</time>
      </trkpt>
      <trkpt lat="47.49141" lon="6.71338">
        <ele>407</ele>
        <time>2015-12-20T09:48:03.000Z</time>
      </trkpt>
      <trkpt lat="47.49141" lon="6.71333">
        <ele>408</ele>
        <time>2015-12-20T09:48:05.000Z</time>
      </trkpt>
      <trkpt lat="47.49141" lon="6.71331">
        <ele>408</ele>
        <time>2015-12-20T09:48:06.000Z</time>
      </trkpt>
      <trkpt lat="47.49141" lon="6.71326">
        <ele>408</ele>
        <time>2015-12-20T09:48:08.000Z</time>
      </trkpt>
      <trkpt lat="47.49141" lon="6.71323">
        <ele>408</ele>
        <time>2015-12-20T09:48:09.000Z</time>
      </trkpt>
      <trkpt lat="47.49139" lon="6.71317">
        <ele>407</ele>
        <time>2015-12-20T09:48:12.000Z</time>
      </trkpt>
      <trkpt lat="47.49138" lon="6.71317">
        <ele>407</ele>
        <time>2015-12-20T09:48:13.000Z</time>
      </trkpt>
      <trkpt lat="47.49138" lon="6.71311">
        <ele>407</ele>
        <time>2015-12-20T09:48:18.000Z</time>
      </trkpt>
      <trkpt lat="47.49138" lon="6.71308">
        <ele>407</ele>
        <time>2015-12-20T09:48:19.000Z</time>
      </trkpt>
      <trkpt lat="47.49138" lon="6.71302">
        <ele>407</ele>
        <time>2015-12-20T09:48:21.000Z</time>
      </trkpt>
      <trkpt lat="47.49138" lon="6.713">
        <ele>407</ele>
        <time>2015-12-20T09:48:22.000Z</time>
      </trkpt>
      <trkpt lat="47.49137" lon="6.71295">
        <ele>407</ele>
        <time>2015-12-20T09:48:24.000Z</time>
      </trkpt>
      <trkpt lat="47.49136" lon="6.71292">
        <ele>407</ele>
        <time>2015-12-20T09:48:25.000Z</time>
      </trkpt>
      <trkpt lat="47.49134" lon="6.71286">
        <ele>407</ele>
        <time>2015-12-20T09:48:27.000Z</time>
      </trkpt>
      <trkpt lat="47.49133" lon="6.71283">
        <ele>407</ele>
        <time>2015-12-20T09:48:28.000Z</time>
      </trkpt>
      <trkpt lat="47.49134" lon="6.71277">
        <ele>407</ele>
        <time>2015-12-20T09:48:31.000Z</time>
      </trkpt>
      <trkpt lat="47.49134" lon="6.71276">
        <ele>407</ele>
        <time>2015-12-20T09:48:32.000Z</time>
      </trkpt>
      <trkpt lat="47.49133" lon="6.71269">
        <ele>407</ele>
        <time>2015-12-20T09:48:37.000Z</time>
      </trkpt>
      <trkpt lat="47.49133" lon="6.71267">
        <ele>407</ele>
        <time>2015-12-20T09:48:38.000Z</time>
      </trkpt>
      <trkpt lat="47.49132" lon="6.71264">
        <ele>407</ele>
        <time>2015-12-20T09:48:39.000Z</time>
      </trkpt>
      <trkpt lat="47.49131" lon="6.71261">
        <ele>407</ele>
        <time>2015-12-20T09:48:40.000Z</time>
      </trkpt>
      <trkpt lat="47.4913" lon="6.71258">
        <ele>407</ele>
        <time>2015-12-20T09:48:41.000Z</time>
      </trkpt>
      <trkpt lat="47.49129" lon="6.71255">
        <ele>407</ele>
        <time>2015-12-20T09:48:42.000Z</time>
      </trkpt>
      <trkpt lat="47.49129" lon="6.71249">
        <ele>410</ele>
        <time>2015-12-20T09:48:44.000Z</time>
      </trkpt>
      <trkpt lat="47.4913" lon="6.71247">
        <ele>410</ele>
        <time>2015-12-20T09:48:45.000Z</time>
      </trkpt>
      <trkpt lat="47.49131" lon="6.71242">
        <ele>411</ele>
        <time>2015-12-20T09:48:47.000Z</time>
      </trkpt>
      <trkpt lat="47.49131" lon="6.7124">
        <ele>411</ele>
        <time>2015-12-20T09:48:48.000Z</time>
      </trkpt>
      <trkpt lat="47.49131" lon="6.71237">
        <ele>411</ele>
        <time>2015-12-20T09:48:49.000Z</time>
      </trkpt>
      <trkpt lat="47.4913" lon="6.71231">
        <ele>411</ele>
        <time>2015-12-20T09:48:51.000Z</time>
      </trkpt>
      <trkpt lat="47.49129" lon="6.71228">
        <ele>411</ele>
        <time>2015-12-20T09:48:52.000Z</time>
      </trkpt>
      <trkpt lat="47.49129" lon="6.71224">
        <ele>411</ele>
        <time>2015-12-20T09:48:53.000Z</time>
      </trkpt>
      <trkpt lat="47.49128" lon="6.71218">
        <ele>411</ele>
        <time>2015-12-20T09:48:55.000Z</time>
      </trkpt>
      <trkpt lat="47.49128" lon="6.71215">
        <ele>411</ele>
        <time>2015-12-20T09:48:56.000Z</time>
      </trkpt>
      <trkpt lat="47.49127" lon="6.7121">
        <ele>411</ele>
        <time>2015-12-20T09:48:58.000Z</time>
      </trkpt>
      <trkpt lat="47.49126" lon="6.71207">
        <ele>411</ele>
        <time>2015-12-20T09:48:59.000Z</time>
      </trkpt>
      <trkpt lat="47.49126" lon="6.71201">
        <ele>411</ele>
        <time>2015-12-20T09:49:02.000Z</time>
      </trkpt>
      <trkpt lat="47.49126" lon="6.71199">
        <ele>411</ele>
        <time>2015-12-20T09:49:03.000Z</time>
      </trkpt>
      <trkpt lat="47.49124" lon="6.71194">
        <ele>411</ele>
        <time>2015-12-20T09:49:05.000Z</time>
      </trkpt>
      <trkpt lat="47.49123" lon="6.71192">
        <ele>411</ele>
        <time>2015-12-20T09:49:06.000Z</time>
      </trkpt>
      <trkpt lat="47.49121" lon="6.71188">
        <ele>411</ele>
        <time>2015-12-20T09:49:08.000Z</time>
      </trkpt>
      <trkpt lat="47.4912" lon="6.71186">
        <ele>411</ele>
        <time>2015-12-20T09:49:09.000Z</time>
      </trkpt>
      <trkpt lat="47.49118" lon="6.71181">
        <ele>411</ele>
        <time>2015-12-20T09:49:11.000Z</time>
      </trkpt>
      <trkpt lat="47.49118" lon="6.71179">
        <ele>411</ele>
        <time>2015-12-20T09:49:12.000Z</time>
      </trkpt>
      <trkpt lat="47.49116" lon="6.71175">
        <ele>411</ele>
        <time>2015-12-20T09:49:14.000Z</time>
      </trkpt>
      <trkpt lat="47.49115" lon="6.71173">
        <ele>410</ele>
        <time>2015-12-20T09:49:15.000Z</time>
      </trkpt>
      <trkpt lat="47.49113" lon="6.71167">
        <ele>410</ele>
        <time>2015-12-20T09:49:17.000Z</time>
      </trkpt>
      <trkpt lat="47.49112" lon="6.71164">
        <ele>414</ele>
        <time>2015-12-20T09:49:18.000Z</time>
      </trkpt>
      <trkpt lat="47.49111" lon="6.71158">
        <ele>414</ele>
        <time>2015-12-20T09:49:21.000Z</time>
      </trkpt>
      <trkpt lat="47.49111" lon="6.71157">
        <ele>414</ele>
        <time>2015-12-20T09:49:22.000Z</time>
      </trkpt>
      <trkpt lat="47.49112" lon="6.71152">
        <ele>414</ele>
        <time>2015-12-20T09:49:24.000Z</time>
      </trkpt>
      <trkpt lat="47.49112" lon="6.71149">
        <ele>415</ele>
        <time>2015-12-20T09:49:25.000Z</time>
      </trkpt>
      <trkpt lat="47.49111" lon="6.71143">
        <ele>415</ele>
        <time>2015-12-20T09:49:27.000Z</time>
      </trkpt>
      <trkpt lat="47.49111" lon="6.7114">
        <ele>415</ele>
        <time>2015-12-20T09:49:28.000Z</time>
      </trkpt>
      <trkpt lat="47.49108" lon="6.71136">
        <ele>415</ele>
        <time>2015-12-20T09:49:31.000Z</time>
      </trkpt>
      <trkpt lat="47.49106" lon="6.71134">
        <ele>415</ele>
        <time>2015-12-20T09:49:32.000Z</time>
      </trkpt>
      <trkpt lat="47.49105" lon="6.71131">
        <ele>415</ele>
        <time>2015-12-20T09:49:33.000Z</time>
      </trkpt>
      <trkpt lat="47.49103" lon="6.71128">
        <ele>415</ele>
        <time>2015-12-20T09:49:34.000Z</time>
      </trkpt>
      <trkpt lat="47.49102" lon="6.71124">
        <ele>415</ele>
        <time>2015-12-20T09:49:35.000Z</time>
      </trkpt>
      <trkpt lat="47.49101" lon="6.7112">
        <ele>415</ele>
        <time>2015-12-20T09:49:36.000Z</time>
      </trkpt>
      <trkpt lat="47.49099" lon="6.71114">
        <ele>416</ele>
        <time>2015-12-20T09:49:38.000Z</time>
      </trkpt>
      <trkpt lat="47.49099" lon="6.71111">
        <ele>416</ele>
        <time>2015-12-20T09:49:39.000Z</time>
      </trkpt>
      <trkpt lat="47.49098" lon="6.71107">
        <ele>416</ele>
        <time>2015-12-20T09:49:40.000Z</time>
      </trkpt>
      <trkpt lat="47.49098" lon="6.71102">
        <ele>416</ele>
        <time>2015-12-20T09:49:41.000Z</time>
      </trkpt>
      <trkpt lat="47.49097" lon="6.71096">
        <ele>415</ele>
        <time>2015-12-20T09:49:42.000Z</time>
      </trkpt>
      <trkpt lat="47.49096" lon="6.7109">
        <ele>415</ele>
        <time>2015-12-20T09:49:43.000Z</time>
      </trkpt>
      <trkpt lat="47.49094" lon="6.71084">
        <ele>415</ele>
        <time>2015-12-20T09:49:44.000Z</time>
      </trkpt>
      <trkpt lat="47.49091" lon="6.71078">
        <ele>416</ele>
        <time>2015-12-20T09:49:45.000Z</time>
      </trkpt>
      <trkpt lat="47.49088" lon="6.71074">
        <ele>416</ele>
        <time>2015-12-20T09:49:46.000Z</time>
      </trkpt>
      <trkpt lat="47.49084" lon="6.71072">
        <ele>417</ele>
        <time>2015-12-20T09:49:47.000Z</time>
      </trkpt>
      <trkpt lat="47.4908" lon="6.7107">
        <ele>410</ele>
        <time>2015-12-20T09:49:48.000Z</time>
      </trkpt>
      <trkpt lat="47.49076" lon="6.71067">
        <ele>410</ele>
        <time>2015-12-20T09:49:49.000Z</time>
      </trkpt>
      <trkpt lat="47.49073" lon="6.71063">
        <ele>409</ele>
        <time>2015-12-20T09:49:50.000Z</time>
      </trkpt>
      <trkpt lat="47.49071" lon="6.71059">
        <ele>409</ele>
        <time>2015-12-20T09:49:51.000Z</time>
      </trkpt>
      <trkpt lat="47.4907" lon="6.71055">
        <ele>409</ele>
        <time>2015-12-20T09:49:52.000Z</time>
      </trkpt>
      <trkpt lat="47.4907" lon="6.71052">
        <ele>409</ele>
        <time>2015-12-20T09:49:53.000Z</time>
      </trkpt>
      <trkpt lat="47.4907" lon="6.71048">
        <ele>409</ele>
        <time>2015-12-20T09:49:54.000Z</time>
      </trkpt>
      <trkpt lat="47.4907" lon="6.71044">
        <ele>409</ele>
        <time>2015-12-20T09:49:55.000Z</time>
      </trkpt>
      <trkpt lat="47.4907" lon="6.71039">
        <ele>409</ele>
        <time>2015-12-20T09:49:56.000Z</time>
      </trkpt>
      <trkpt lat="47.49069" lon="6.71034">
        <ele>409</ele>
        <time>2015-12-20T09:49:57.000Z</time>
      </trkpt>
      <trkpt lat="47.49069" lon="6.71031">
        <ele>410</ele>
        <time>2015-12-20T09:49:57.999Z</time>
      </trkpt>
      <trkpt lat="47.49068" lon="6.71028">
        <ele>410</ele>
        <time>2015-12-20T09:49:59.000Z</time>
      </trkpt>
      <trkpt lat="47.49067" lon="6.71025">
        <ele>410</ele>
        <time>2015-12-20T09:50:00.000Z</time>
      </trkpt>
      <trkpt lat="47.49066" lon="6.71021">
        <ele>410</ele>
        <time>2015-12-20T09:50:01.000Z</time>
      </trkpt>
      <trkpt lat="47.49064" lon="6.71017">
        <ele>411</ele>
        <time>2015-12-20T09:50:02.000Z</time>
      </trkpt>
      <trkpt lat="47.49063" lon="6.71013">
        <ele>411</ele>
        <time>2015-12-20T09:50:03.000Z</time>
      </trkpt>
      <trkpt lat="47.49062" lon="6.71008">
        <ele>411</ele>
        <time>2015-12-20T09:50:04.000Z</time>
      </trkpt>
      <trkpt lat="47.4906" lon="6.71003">
        <ele>411</ele>
        <time>2015-12-20T09:50:05.000Z</time>
      </trkpt>
      <trkpt lat="47.49059" lon="6.70999">
        <ele>415</ele>
        <time>2015-12-20T09:50:06.000Z</time>
      </trkpt>
      <trkpt lat="47.49058" lon="6.70994">
        <ele>415</ele>
        <time>2015-12-20T09:50:07.001Z</time>
      </trkpt>
      <trkpt lat="47.49056" lon="6.70989">
        <ele>414</ele>
        <time>2015-12-20T09:50:08.000Z</time>
      </trkpt>
      <trkpt lat="47.49054" lon="6.70985">
        <ele>414</ele>
        <time>2015-12-20T09:50:09.000Z</time>
      </trkpt>
      <trkpt lat="47.49053" lon="6.70982">
        <ele>414</ele>
        <time>2015-12-20T09:50:10.000Z</time>
      </trkpt>
      <trkpt lat="47.49051" lon="6.70978">
        <ele>414</ele>
        <time>2015-12-20T09:50:11.000Z</time>
      </trkpt>
      <trkpt lat="47.49048" lon="6.70975">
        <ele>414</ele>
        <time>2015-12-20T09:50:12.000Z</time>
      </trkpt>
      <trkpt lat="47.49046" lon="6.70971">
        <ele>413</ele>
        <time>2015-12-20T09:50:13.000Z</time>
      </trkpt>
      <trkpt lat="47.49042" lon="6.70966">
        <ele>413</ele>
        <time>2015-12-20T09:50:14.000Z</time>
      </trkpt>
      <trkpt lat="47.49039" lon="6.70961">
        <ele>413</ele>
        <time>2015-12-20T09:50:15.000Z</time>
      </trkpt>
      <trkpt lat="47.49036" lon="6.70955">
        <ele>413</ele>
        <time>2015-12-20T09:50:16.000Z</time>
      </trkpt>
      <trkpt lat="47.49034" lon="6.70949">
        <ele>413</ele>
        <time>2015-12-20T09:50:17.000Z</time>
      </trkpt>
      <trkpt lat="47.49032" lon="6.70944">
        <ele>413</ele>
        <time>2015-12-20T09:50:18.000Z</time>
      </trkpt>
      <trkpt lat="47.49031" lon="6.70939">
        <ele>413</ele>
        <time>2015-12-20T09:50:19.000Z</time>
      </trkpt>
      <trkpt lat="47.49025" lon="6.70926">
        <ele>412</ele>
        <time>2015-12-20T09:50:20.000Z</time>
      </trkpt>
      <trkpt lat="47.49022" lon="6.7092">
        <ele>412</ele>
        <time>2015-12-20T09:50:21.000Z</time>
      </trkpt>
      <trkpt lat="47.49019" lon="6.70917">
        <ele>411</ele>
        <time>2015-12-20T09:50:22.000Z</time>
      </trkpt>
      <trkpt lat="47.49016" lon="6.70911">
        <ele>415</ele>
        <time>2015-12-20T09:50:23.000Z</time>
      </trkpt>
      <trkpt lat="47.49013" lon="6.70905">
        <ele>415</ele>
        <time>2015-12-20T09:50:24.000Z</time>
      </trkpt>
      <trkpt lat="47.49012" lon="6.709">
        <ele>416</ele>
        <time>2015-12-20T09:50:25.000Z</time>
      </trkpt>
      <trkpt lat="47.49011" lon="6.70894">
        <ele>416</ele>
        <time>2015-12-20T09:50:26.000Z</time>
      </trkpt>
      <trkpt lat="47.49009" lon="6.7089">
        <ele>417</ele>
        <time>2015-12-20T09:50:27.000Z</time>
      </trkpt>
      <trkpt lat="47.49009" lon="6.70881">
        <ele>418</ele>
        <time>2015-12-20T09:50:28.000Z</time>
      </trkpt>
      <trkpt lat="47.49007" lon="6.70874">
        <ele>418</ele>
        <time>2015-12-20T09:50:29.000Z</time>
      </trkpt>
      <trkpt lat="47.49004" lon="6.70868">
        <ele>418</ele>
        <time>2015-12-20T09:50:30.000Z</time>
      </trkpt>
      <trkpt lat="47.49005" lon="6.70863">
        <ele>418</ele>
        <time>2015-12-20T09:50:31.000Z</time>
      </trkpt>
      <trkpt lat="47.49003" lon="6.7086">
        <ele>418</ele>
        <time>2015-12-20T09:50:32.000Z</time>
      </trkpt>
      <trkpt lat="47.49001" lon="6.70857">
        <ele>418</ele>
        <time>2015-12-20T09:50:33.000Z</time>
      </trkpt>
      <trkpt lat="47.48998" lon="6.70854">
        <ele>407</ele>
        <time>2015-12-20T09:50:34.000Z</time>
      </trkpt>
      <trkpt lat="47.48995" lon="6.70847">
        <ele>409</ele>
        <time>2015-12-20T09:50:35.000Z</time>
      </trkpt>
      <trkpt lat="47.48991" lon="6.70839">
        <ele>409</ele>
        <time>2015-12-20T09:50:36.000Z</time>
      </trkpt>
      <trkpt lat="47.48988" lon="6.70832">
        <ele>412</ele>
        <time>2015-12-20T09:50:37.000Z</time>
      </trkpt>
      <trkpt lat="47.48984" lon="6.70823">
        <ele>411</ele>
        <time>2015-12-20T09:50:38.000Z</time>
      </trkpt>
      <trkpt lat="47.48981" lon="6.70816">
        <ele>410</ele>
        <time>2015-12-20T09:50:39.000Z</time>
      </trkpt>
      <trkpt lat="47.48978" lon="6.70811">
        <ele>410</ele>
        <time>2015-12-20T09:50:40.000Z</time>
      </trkpt>
      <trkpt lat="47.48974" lon="6.70805">
        <ele>410</ele>
        <time>2015-12-20T09:50:41.000Z</time>
      </trkpt>
      <trkpt lat="47.4897" lon="6.708">
        <ele>410</ele>
        <time>2015-12-20T09:50:42.000Z</time>
      </trkpt>
      <trkpt lat="47.48968" lon="6.70796">
        <ele>409</ele>
        <time>2015-12-20T09:50:43.000Z</time>
      </trkpt>
      <trkpt lat="47.48966" lon="6.70794">
        <ele>409</ele>
        <time>2015-12-20T09:50:44.000Z</time>
      </trkpt>
      <trkpt lat="47.48964" lon="6.7079">
        <ele>409</ele>
        <time>2015-12-20T09:50:45.000Z</time>
      </trkpt>
      <trkpt lat="47.48962" lon="6.70785">
        <ele>409</ele>
        <time>2015-12-20T09:50:46.000Z</time>
      </trkpt>
      <trkpt lat="47.4896" lon="6.70781">
        <ele>409</ele>
        <time>2015-12-20T09:50:47.000Z</time>
      </trkpt>
      <trkpt lat="47.48958" lon="6.70775">
        <ele>409</ele>
        <time>2015-12-20T09:50:48.000Z</time>
      </trkpt>
      <trkpt lat="47.48957" lon="6.7077">
        <ele>409</ele>
        <time>2015-12-20T09:50:49.000Z</time>
      </trkpt>
      <trkpt lat="47.48954" lon="6.70766">
        <ele>409</ele>
        <time>2015-12-20T09:50:50.000Z</time>
      </trkpt>
      <trkpt lat="47.48952" lon="6.70761">
        <ele>409</ele>
        <time>2015-12-20T09:50:51.000Z</time>
      </trkpt>
      <trkpt lat="47.4895" lon="6.70755">
        <ele>409</ele>
        <time>2015-12-20T09:50:52.000Z</time>
      </trkpt>
      <trkpt lat="47.48948" lon="6.7075">
        <ele>408</ele>
        <time>2015-12-20T09:50:53.000Z</time>
      </trkpt>
      <trkpt lat="47.48946" lon="6.70745">
        <ele>414</ele>
        <time>2015-12-20T09:50:54.000Z</time>
      </trkpt>
      <trkpt lat="47.48944" lon="6.7074">
        <ele>414</ele>
        <time>2015-12-20T09:50:55.000Z</time>
      </trkpt>
      <trkpt lat="47.48943" lon="6.70734">
        <ele>414</ele>
        <time>2015-12-20T09:50:56.000Z</time>
      </trkpt>
      <trkpt lat="47.48942" lon="6.7073">
        <ele>414</ele>
        <time>2015-12-20T09:50:57.000Z</time>
      </trkpt>
      <trkpt lat="47.48941" lon="6.70725">
        <ele>414</ele>
        <time>2015-12-20T09:50:58.000Z</time>
      </trkpt>
      <trkpt lat="47.4894" lon="6.7072">
        <ele>415</ele>
        <time>2015-12-20T09:50:58.999Z</time>
      </trkpt>
      <trkpt lat="47.48938" lon="6.70714">
        <ele>415</ele>
        <time>2015-12-20T09:51:00.000Z</time>
      </trkpt>
      <trkpt lat="47.48937" lon="6.70708">
        <ele>415</ele>
        <time>2015-12-20T09:51:02.000Z</time>
      </trkpt>
      <trkpt lat="47.48937" lon="6.70707">
        <ele>415</ele>
        <time>2015-12-20T09:51:03.000Z</time>
      </trkpt>
      <trkpt lat="47.48933" lon="6.70704">
        <ele>415</ele>
        <time>2015-12-20T09:51:07.000Z</time>
      </trkpt>
      <trkpt lat="47.48933" lon="6.70702">
        <ele>415</ele>
        <time>2015-12-20T09:51:08.000Z</time>
      </trkpt>
      <trkpt lat="47.48933" lon="6.70696">
        <ele>416</ele>
        <time>2015-12-20T09:51:13.000Z</time>
      </trkpt>
      <trkpt lat="47.48933" lon="6.70694">
        <ele>416</ele>
        <time>2015-12-20T09:51:14.000Z</time>
      </trkpt>
      <trkpt lat="47.48931" lon="6.70688">
        <ele>415</ele>
        <time>2015-12-20T09:51:18.000Z</time>
      </trkpt>
      <trkpt lat="47.4893" lon="6.70686">
        <ele>415</ele>
        <time>2015-12-20T09:51:19.000Z</time>
      </trkpt>
      <trkpt lat="47.48928" lon="6.70683">
        <ele>415</ele>
        <time>2015-12-20T09:51:20.000Z</time>
      </trkpt>
      <trkpt lat="47.48926" lon="6.70681">
        <ele>415</ele>
        <time>2015-12-20T09:51:21.000Z</time>
      </trkpt>
      <trkpt lat="47.48923" lon="6.7068">
        <ele>414</ele>
        <time>2015-12-20T09:51:22.000Z</time>
      </trkpt>
      <trkpt lat="47.4892" lon="6.70679">
        <ele>414</ele>
        <time>2015-12-20T09:51:23.000Z</time>
      </trkpt>
      <trkpt lat="47.48913" lon="6.70686">
        <ele>405</ele>
        <time>2015-12-20T09:51:24.000Z</time>
      </trkpt>
      <trkpt lat="47.48908" lon="6.7069">
        <ele>404</ele>
        <time>2015-12-20T09:51:25.000Z</time>
      </trkpt>
      <trkpt lat="47.48904" lon="6.70693">
        <ele>403</ele>
        <time>2015-12-20T09:51:26.000Z</time>
      </trkpt>
      <trkpt lat="47.489" lon="6.70692">
        <ele>403</ele>
        <time>2015-12-20T09:51:27.000Z</time>
      </trkpt>
      <trkpt lat="47.48899" lon="6.70683">
        <ele>404</ele>
        <time>2015-12-20T09:51:28.000Z</time>
      </trkpt>
      <trkpt lat="47.48897" lon="6.70679">
        <ele>404</ele>
        <time>2015-12-20T09:51:29.000Z</time>
      </trkpt>
      <trkpt lat="47.48894" lon="6.70677">
        <ele>403</ele>
        <time>2015-12-20T09:51:30.000Z</time>
      </trkpt>
      <trkpt lat="47.48891" lon="6.70675">
        <ele>403</ele>
        <time>2015-12-20T09:51:31.000Z</time>
      </trkpt>
      <trkpt lat="47.48889" lon="6.70672">
        <ele>403</ele>
        <time>2015-12-20T09:51:32.001Z</time>
      </trkpt>
      <trkpt lat="47.48891" lon="6.70666">
        <ele>408</ele>
        <time>2015-12-20T09:51:41.000Z</time>
      </trkpt>
      <trkpt lat="47.48891" lon="6.70663">
        <ele>408</ele>
        <time>2015-12-20T09:51:42.000Z</time>
      </trkpt>
      <trkpt lat="47.48892" lon="6.70657">
        <ele>409</ele>
        <time>2015-12-20T09:51:44.000Z</time>
      </trkpt>
      <trkpt lat="47.48892" lon="6.70654">
        <ele>409</ele>
        <time>2015-12-20T09:51:45.001Z</time>
      </trkpt>
      <trkpt lat="47.48894" lon="6.7065">
        <ele>409</ele>
        <time>2015-12-20T09:51:48.000Z</time>
      </trkpt>
      <trkpt lat="47.48895" lon="6.70649">
        <ele>409</ele>
        <time>2015-12-20T09:51:49.000Z</time>
      </trkpt>
      <trkpt lat="47.48897" lon="6.70643">
        <ele>409</ele>
        <time>2015-12-20T09:51:52.000Z</time>
      </trkpt>
      <trkpt lat="47.48896" lon="6.70641">
        <ele>409</ele>
        <time>2015-12-20T09:51:53.000Z</time>
      </trkpt>
      <trkpt lat="47.48896" lon="6.70636">
        <ele>409</ele>
        <time>2015-12-20T09:51:56.000Z</time>
      </trkpt>
      <trkpt lat="47.48896" lon="6.70634">
        <ele>409</ele>
        <time>2015-12-20T09:51:57.000Z</time>
      </trkpt>
      <trkpt lat="47.48896" lon="6.70628">
        <ele>410</ele>
        <time>2015-12-20T09:52:02.000Z</time>
      </trkpt>
      <trkpt lat="47.48896" lon="6.70627">
        <ele>410</ele>
        <time>2015-12-20T09:52:03.000Z</time>
      </trkpt>
      <trkpt lat="47.48898" lon="6.70621">
        <ele>410</ele>
        <time>2015-12-20T09:52:09.000Z</time>
      </trkpt>
      <trkpt lat="47.48897" lon="6.70619">
        <ele>410</ele>
        <time>2015-12-20T09:52:10.000Z</time>
      </trkpt>
      <trkpt lat="47.48894" lon="6.70615">
        <ele>410</ele>
        <time>2015-12-20T09:52:12.000Z</time>
      </trkpt>
      <trkpt lat="47.48892" lon="6.70613">
        <ele>410</ele>
        <time>2015-12-20T09:52:13.000Z</time>
      </trkpt>
      <trkpt lat="47.48889" lon="6.70611">
        <ele>410</ele>
        <time>2015-12-20T09:52:15.000Z</time>
      </trkpt>
      <trkpt lat="47.48887" lon="6.7061">
        <ele>410</ele>
        <time>2015-12-20T09:52:16.000Z</time>
      </trkpt>
      <trkpt lat="47.48884" lon="6.70606">
        <ele>410</ele>
        <time>2015-12-20T09:52:18.000Z</time>
      </trkpt>
      <trkpt lat="47.48883" lon="6.70605">
        <ele>410</ele>
        <time>2015-12-20T09:52:19.000Z</time>
      </trkpt>
      <trkpt lat="47.48882" lon="6.706">
        <ele>410</ele>
        <time>2015-12-20T09:52:21.000Z</time>
      </trkpt>
      <trkpt lat="47.48881" lon="6.70598">
        <ele>410</ele>
        <time>2015-12-20T09:52:21.999Z</time>
      </trkpt>
      <trkpt lat="47.48879" lon="6.70593">
        <ele>410</ele>
        <time>2015-12-20T09:52:24.000Z</time>
      </trkpt>
      <trkpt lat="47.48879" lon="6.7059">
        <ele>410</ele>
        <time>2015-12-20T09:52:25.000Z</time>
      </trkpt>
      <trkpt lat="47.48877" lon="6.70586">
        <ele>410</ele>
        <time>2015-12-20T09:52:27.000Z</time>
      </trkpt>
      <trkpt lat="47.48875" lon="6.70584">
        <ele>409</ele>
        <time>2015-12-20T09:52:28.000Z</time>
      </trkpt>
      <trkpt lat="47.48872" lon="6.7058">
        <ele>413</ele>
        <time>2015-12-20T09:52:30.000Z</time>
      </trkpt>
      <trkpt lat="47.48871" lon="6.70578">
        <ele>413</ele>
        <time>2015-12-20T09:52:31.000Z</time>
      </trkpt>
      <trkpt lat="47.48868" lon="6.70575">
        <ele>413</ele>
        <time>2015-12-20T09:52:34.000Z</time>
      </trkpt>
      <trkpt lat="47.48866" lon="6.70575">
        <ele>413</ele>
        <time>2015-12-20T09:52:35.000Z</time>
      </trkpt>
      <trkpt lat="47.48864" lon="6.7057">
        <ele>412</ele>
        <time>2015-12-20T09:52:36.000Z</time>
      </trkpt>
      <trkpt lat="47.48863" lon="6.70567">
        <ele>412</ele>
        <time>2015-12-20T09:52:37.000Z</time>
      </trkpt>
      <trkpt lat="47.4886" lon="6.70561">
        <ele>412</ele>
        <time>2015-12-20T09:52:39.000Z</time>
      </trkpt>
      <trkpt lat="47.48859" lon="6.70559">
        <ele>412</ele>
        <time>2015-12-20T09:52:40.000Z</time>
      </trkpt>
      <trkpt lat="47.48857" lon="6.70554">
        <ele>412</ele>
        <time>2015-12-20T09:52:43.000Z</time>
      </trkpt>
      <trkpt lat="47.48856" lon="6.70553">
        <ele>412</ele>
        <time>2015-12-20T09:52:44.000Z</time>
      </trkpt>
      <trkpt lat="47.48852" lon="6.7055">
        <ele>412</ele>
        <time>2015-12-20T09:53:02.000Z</time>
      </trkpt>
      <trkpt lat="47.48852" lon="6.70549">
        <ele>412</ele>
        <time>2015-12-20T09:53:03.000Z</time>
      </trkpt>
      <trkpt lat="47.48849" lon="6.70543">
        <ele>412</ele>
        <time>2015-12-20T09:53:22.000Z</time>
      </trkpt>
      <trkpt lat="47.48849" lon="6.70541">
        <ele>412</ele>
        <time>2015-12-20T09:53:23.000Z</time>
      </trkpt>
      <trkpt lat="47.48848" lon="6.70537">
        <ele>412</ele>
        <time>2015-12-20T09:53:25.000Z</time>
      </trkpt>
      <trkpt lat="47.48848" lon="6.70535">
        <ele>412</ele>
        <time>2015-12-20T09:53:26.000Z</time>
      </trkpt>
      <trkpt lat="47.48847" lon="6.70529">
        <ele>412</ele>
        <time>2015-12-20T09:53:29.000Z</time>
      </trkpt>
      <trkpt lat="47.48846" lon="6.70527">
        <ele>412</ele>
        <time>2015-12-20T09:53:30.000Z</time>
      </trkpt>
      <trkpt lat="47.48845" lon="6.70522">
        <ele>412</ele>
        <time>2015-12-20T09:53:32.000Z</time>
      </trkpt>
      <trkpt lat="47.48845" lon="6.7052">
        <ele>412</ele>
        <time>2015-12-20T09:53:33.000Z</time>
      </trkpt>
      <trkpt lat="47.48842" lon="6.70516">
        <ele>411</ele>
        <time>2015-12-20T09:53:35.000Z</time>
      </trkpt>
      <trkpt lat="47.4884" lon="6.70514">
        <ele>411</ele>
        <time>2015-12-20T09:53:36.000Z</time>
      </trkpt>
      <trkpt lat="47.48838" lon="6.70511">
        <ele>410</ele>
        <time>2015-12-20T09:53:37.000Z</time>
      </trkpt>
      <trkpt lat="47.48836" lon="6.70507">
        <ele>410</ele>
        <time>2015-12-20T09:53:38.000Z</time>
      </trkpt>
      <trkpt lat="47.48835" lon="6.70504">
        <ele>409</ele>
        <time>2015-12-20T09:53:39.000Z</time>
      </trkpt>
      <trkpt lat="47.48833" lon="6.70502">
        <ele>407</ele>
        <time>2015-12-20T09:53:40.000Z</time>
      </trkpt>
      <trkpt lat="47.48831" lon="6.705">
        <ele>407</ele>
        <time>2015-12-20T09:53:41.000Z</time>
      </trkpt>
      <trkpt lat="47.4883" lon="6.70496">
        <ele>407</ele>
        <time>2015-12-20T09:53:42.000Z</time>
      </trkpt>
      <trkpt lat="47.48828" lon="6.70492">
        <ele>406</ele>
        <time>2015-12-20T09:53:43.000Z</time>
      </trkpt>
      <trkpt lat="47.48826" lon="6.70487">
        <ele>405</ele>
        <time>2015-12-20T09:53:44.000Z</time>
      </trkpt>
      <trkpt lat="47.48824" lon="6.70483">
        <ele>404</ele>
        <time>2015-12-20T09:53:45.000Z</time>
      </trkpt>
      <trkpt lat="47.48822" lon="6.70479">
        <ele>404</ele>
        <time>2015-12-20T09:53:46.000Z</time>
      </trkpt>
      <trkpt lat="47.4882" lon="6.70476">
        <ele>404</ele>
        <time>2015-12-20T09:53:47.000Z</time>
      </trkpt>
      <trkpt lat="47.48819" lon="6.70473">
        <ele>403</ele>
        <time>2015-12-20T09:53:48.000Z</time>
      </trkpt>
      <trkpt lat="47.48818" lon="6.70468">
        <ele>403</ele>
        <time>2015-12-20T09:53:50.000Z</time>
      </trkpt>
      <trkpt lat="47.48817" lon="6.70466">
        <ele>403</ele>
        <time>2015-12-20T09:53:51.000Z</time>
      </trkpt>
      <trkpt lat="47.48816" lon="6.70461">
        <ele>403</ele>
        <time>2015-12-20T09:53:53.000Z</time>
      </trkpt>
      <trkpt lat="47.48815" lon="6.70458">
        <ele>403</ele>
        <time>2015-12-20T09:53:54.000Z</time>
      </trkpt>
      <trkpt lat="47.48814" lon="6.70453">
        <ele>403</ele>
        <time>2015-12-20T09:53:55.000Z</time>
      </trkpt>
      <trkpt lat="47.48813" lon="6.70449">
        <ele>403</ele>
        <time>2015-12-20T09:53:56.000Z</time>
      </trkpt>
      <trkpt lat="47.48812" lon="6.70444">
        <ele>404</ele>
        <time>2015-12-20T09:53:57.000Z</time>
      </trkpt>
      <trkpt lat="47.48811" lon="6.70439">
        <ele>404</ele>
        <time>2015-12-20T09:53:58.000Z</time>
      </trkpt>
      <trkpt lat="47.48811" lon="6.70434">
        <ele>404</ele>
        <time>2015-12-20T09:53:59.000Z</time>
      </trkpt>
      <trkpt lat="47.48811" lon="6.7043">
        <ele>404</ele>
        <time>2015-12-20T09:54:00.000Z</time>
      </trkpt>
      <trkpt lat="47.48811" lon="6.70426">
        <ele>405</ele>
        <time>2015-12-20T09:54:01.000Z</time>
      </trkpt>
      <trkpt lat="47.48811" lon="6.70423">
        <ele>405</ele>
        <time>2015-12-20T09:54:02.000Z</time>
      </trkpt>
      <trkpt lat="47.4881" lon="6.70419">
        <ele>405</ele>
        <time>2015-12-20T09:54:03.000Z</time>
      </trkpt>
      <trkpt lat="47.4881" lon="6.70416">
        <ele>407</ele>
        <time>2015-12-20T09:54:04.000Z</time>
      </trkpt>
      <trkpt lat="47.48808" lon="6.70409">
        <ele>407</ele>
        <time>2015-12-20T09:54:06.000Z</time>
      </trkpt>
      <trkpt lat="47.48808" lon="6.70407">
        <ele>407</ele>
        <time>2015-12-20T09:54:07.000Z</time>
      </trkpt>
      <trkpt lat="47.48807" lon="6.70402">
        <ele>407</ele>
        <time>2015-12-20T09:54:09.000Z</time>
      </trkpt>
      <trkpt lat="47.48806" lon="6.70399">
        <ele>406</ele>
        <time>2015-12-20T09:54:10.000Z</time>
      </trkpt>
      <trkpt lat="47.48804" lon="6.70392">
        <ele>406</ele>
        <time>2015-12-20T09:54:12.000Z</time>
      </trkpt>
      <trkpt lat="47.48804" lon="6.70389">
        <ele>406</ele>
        <time>2015-12-20T09:54:13.000Z</time>
      </trkpt>
      <trkpt lat="47.48803" lon="6.70386">
        <ele>406</ele>
        <time>2015-12-20T09:54:14.000Z</time>
      </trkpt>
      <trkpt lat="47.48802" lon="6.70383">
        <ele>406</ele>
        <time>2015-12-20T09:54:15.000Z</time>
      </trkpt>
      <trkpt lat="47.488" lon="6.7038">
        <ele>406</ele>
        <time>2015-12-20T09:54:16.000Z</time>
      </trkpt>
      <trkpt lat="47.48798" lon="6.70377">
        <ele>406</ele>
        <time>2015-12-20T09:54:17.000Z</time>
      </trkpt>
      <trkpt lat="47.48797" lon="6.70373">
        <ele>406</ele>
        <time>2015-12-20T09:54:18.000Z</time>
      </trkpt>
      <trkpt lat="47.48795" lon="6.7037">
        <ele>406</ele>
        <time>2015-12-20T09:54:19.000Z</time>
      </trkpt>
      <trkpt lat="47.48794" lon="6.70365">
        <ele>406</ele>
        <time>2015-12-20T09:54:20.000Z</time>
      </trkpt>
      <trkpt lat="47.48792" lon="6.70361">
        <ele>406</ele>
        <time>2015-12-20T09:54:21.000Z</time>
      </trkpt>
      <trkpt lat="47.48791" lon="6.70358">
        <ele>406</ele>
        <time>2015-12-20T09:54:22.000Z</time>
      </trkpt>
      <trkpt lat="47.48789" lon="6.70354">
        <ele>406</ele>
        <time>2015-12-20T09:54:23.000Z</time>
      </trkpt>
      <trkpt lat="47.48787" lon="6.7035">
        <ele>406</ele>
        <time>2015-12-20T09:54:24.000Z</time>
      </trkpt>
      <trkpt lat="47.48786" lon="6.70345">
        <ele>406</ele>
        <time>2015-12-20T09:54:25.000Z</time>
      </trkpt>
      <trkpt lat="47.48785" lon="6.70341">
        <ele>406</ele>
        <time>2015-12-20T09:54:26.000Z</time>
      </trkpt>
      <trkpt lat="47.48785" lon="6.70336">
        <ele>406</ele>
        <time>2015-12-20T09:54:27.000Z</time>
      </trkpt>
      <trkpt lat="47.48785" lon="6.70331">
        <ele>408</ele>
        <time>2015-12-20T09:54:28.000Z</time>
      </trkpt>
      <trkpt lat="47.48785" lon="6.70327">
        <ele>408</ele>
        <time>2015-12-20T09:54:29.000Z</time>
      </trkpt>
      <trkpt lat="47.48784" lon="6.70322">
        <ele>408</ele>
        <time>2015-12-20T09:54:30.000Z</time>
      </trkpt>
      <trkpt lat="47.48784" lon="6.70318">
        <ele>408</ele>
        <time>2015-12-20T09:54:31.000Z</time>
      </trkpt>
      <trkpt lat="47.48783" lon="6.70314">
        <ele>408</ele>
        <time>2015-12-20T09:54:32.000Z</time>
      </trkpt>
      <trkpt lat="47.48782" lon="6.70309">
        <ele>408</ele>
        <time>2015-12-20T09:54:33.000Z</time>
      </trkpt>
      <trkpt lat="47.48781" lon="6.70305">
        <ele>408</ele>
        <time>2015-12-20T09:54:34.000Z</time>
      </trkpt>
      <trkpt lat="47.4878" lon="6.70301">
        <ele>408</ele>
        <time>2015-12-20T09:54:35.000Z</time>
      </trkpt>
      <trkpt lat="47.48779" lon="6.70297">
        <ele>408</ele>
        <time>2015-12-20T09:54:36.000Z</time>
      </trkpt>
      <trkpt lat="47.48779" lon="6.70293">
        <ele>408</ele>
        <time>2015-12-20T09:54:37.000Z</time>
      </trkpt>
      <trkpt lat="47.48778" lon="6.70289">
        <ele>408</ele>
        <time>2015-12-20T09:54:38.000Z</time>
      </trkpt>
      <trkpt lat="47.48778" lon="6.70286">
        <ele>408</ele>
        <time>2015-12-20T09:54:39.000Z</time>
      </trkpt>
      <trkpt lat="47.48777" lon="6.7028">
        <ele>408</ele>
        <time>2015-12-20T09:54:41.000Z</time>
      </trkpt>
      <trkpt lat="47.48776" lon="6.70278">
        <ele>408</ele>
        <time>2015-12-20T09:54:42.000Z</time>
      </trkpt>
      <trkpt lat="47.48774" lon="6.70274">
        <ele>408</ele>
        <time>2015-12-20T09:54:44.000Z</time>
      </trkpt>
      <trkpt lat="47.48773" lon="6.70271">
        <ele>408</ele>
        <time>2015-12-20T09:54:45.000Z</time>
      </trkpt>
      <trkpt lat="47.48771" lon="6.70268">
        <ele>407</ele>
        <time>2015-12-20T09:54:46.000Z</time>
      </trkpt>
      <trkpt lat="47.48769" lon="6.70265">
        <ele>407</ele>
        <time>2015-12-20T09:54:47.000Z</time>
      </trkpt>
      <trkpt lat="47.48767" lon="6.70262">
        <ele>407</ele>
        <time>2015-12-20T09:54:48.000Z</time>
      </trkpt>
      <trkpt lat="47.48766" lon="6.70258">
        <ele>406</ele>
        <time>2015-12-20T09:54:49.000Z</time>
      </trkpt>
      <trkpt lat="47.48764" lon="6.70255">
        <ele>406</ele>
        <time>2015-12-20T09:54:50.000Z</time>
      </trkpt>
      <trkpt lat="47.48763" lon="6.70252">
        <ele>405</ele>
        <time>2015-12-20T09:54:51.000Z</time>
      </trkpt>
      <trkpt lat="47.48761" lon="6.70249">
        <ele>406</ele>
        <time>2015-12-20T09:54:52.000Z</time>
      </trkpt>
      <trkpt lat="47.48759" lon="6.70245">
        <ele>406</ele>
        <time>2015-12-20T09:54:53.000Z</time>
      </trkpt>
      <trkpt lat="47.48758" lon="6.70242">
        <ele>406</ele>
        <time>2015-12-20T09:54:54.000Z</time>
      </trkpt>
      <trkpt lat="47.48756" lon="6.70237">
        <ele>407</ele>
        <time>2015-12-20T09:54:55.000Z</time>
      </trkpt>
      <trkpt lat="47.48754" lon="6.70234">
        <ele>407</ele>
        <time>2015-12-20T09:54:56.000Z</time>
      </trkpt>
      <trkpt lat="47.48752" lon="6.7023">
        <ele>408</ele>
        <time>2015-12-20T09:54:57.000Z</time>
      </trkpt>
      <trkpt lat="47.4875" lon="6.70227">
        <ele>398</ele>
        <time>2015-12-20T09:54:58.000Z</time>
      </trkpt>
      <trkpt lat="47.48748" lon="6.70224">
        <ele>398</ele>
        <time>2015-12-20T09:54:59.000Z</time>
      </trkpt>
      <trkpt lat="47.48746" lon="6.7022">
        <ele>397</ele>
        <time>2015-12-20T09:55:00.000Z</time>
      </trkpt>
      <trkpt lat="47.48744" lon="6.70217">
        <ele>397</ele>
        <time>2015-12-20T09:55:01.000Z</time>
      </trkpt>
      <trkpt lat="47.48742" lon="6.70213">
        <ele>397</ele>
        <time>2015-12-20T09:55:02.000Z</time>
      </trkpt>
      <trkpt lat="47.4874" lon="6.7021">
        <ele>397</ele>
        <time>2015-12-20T09:55:03.000Z</time>
      </trkpt>
      <trkpt lat="47.48738" lon="6.70206">
        <ele>397</ele>
        <time>2015-12-20T09:55:04.000Z</time>
      </trkpt>
      <trkpt lat="47.48735" lon="6.70203">
        <ele>397</ele>
        <time>2015-12-20T09:55:05.000Z</time>
      </trkpt>
      <trkpt lat="47.48733" lon="6.70201">
        <ele>397</ele>
        <time>2015-12-20T09:55:06.000Z</time>
      </trkpt>
      <trkpt lat="47.4873" lon="6.70198">
        <ele>397</ele>
        <time>2015-12-20T09:55:07.000Z</time>
      </trkpt>
      <trkpt lat="47.48727" lon="6.70196">
        <ele>397</ele>
        <time>2015-12-20T09:55:08.000Z</time>
      </trkpt>
      <trkpt lat="47.48725" lon="6.70194">
        <ele>396</ele>
        <time>2015-12-20T09:55:09.000Z</time>
      </trkpt>
      <trkpt lat="47.48724" lon="6.70189">
        <ele>397</ele>
        <time>2015-12-20T09:55:38.000Z</time>
      </trkpt>
      <trkpt lat="47.48723" lon="6.70187">
        <ele>397</ele>
        <time>2015-12-20T09:55:39.000Z</time>
      </trkpt>
      <trkpt lat="47.4872" lon="6.70182">
        <ele>396</ele>
        <time>2015-12-20T09:55:42.000Z</time>
      </trkpt>
      <trkpt lat="47.48719" lon="6.7018">
        <ele>396</ele>
        <time>2015-12-20T09:55:43.000Z</time>
      </trkpt>
      <trkpt lat="47.48717" lon="6.70175">
        <ele>396</ele>
        <time>2015-12-20T09:55:45.000Z</time>
      </trkpt>
      <trkpt lat="47.48716" lon="6.70172">
        <ele>396</ele>
        <time>2015-12-20T09:55:46.000Z</time>
      </trkpt>
      <trkpt lat="47.48715" lon="6.70169">
        <ele>396</ele>
        <time>2015-12-20T09:55:47.000Z</time>
      </trkpt>
      <trkpt lat="47.48713" lon="6.70165">
        <ele>399</ele>
        <time>2015-12-20T09:55:48.000Z</time>
      </trkpt>
      <trkpt lat="47.48712" lon="6.70162">
        <ele>399</ele>
        <time>2015-12-20T09:55:49.000Z</time>
      </trkpt>
      <trkpt lat="47.4871" lon="6.70158">
        <ele>398</ele>
        <time>2015-12-20T09:55:50.000Z</time>
      </trkpt>
      <trkpt lat="47.48709" lon="6.70154">
        <ele>398</ele>
        <time>2015-12-20T09:55:51.001Z</time>
      </trkpt>
      <trkpt lat="47.48707" lon="6.7015">
        <ele>398</ele>
        <time>2015-12-20T09:55:52.000Z</time>
      </trkpt>
      <trkpt lat="47.48706" lon="6.70146">
        <ele>398</ele>
        <time>2015-12-20T09:55:53.000Z</time>
      </trkpt>
      <trkpt lat="47.48705" lon="6.70142">
        <ele>398</ele>
        <time>2015-12-20T09:55:54.000Z</time>
      </trkpt>
      <trkpt lat="47.48704" lon="6.70138">
        <ele>398</ele>
        <time>2015-12-20T09:55:55.000Z</time>
      </trkpt>
      <trkpt lat="47.48702" lon="6.70134">
        <ele>398</ele>
        <time>2015-12-20T09:55:56.000Z</time>
      </trkpt>
      <trkpt lat="47.487" lon="6.7013">
        <ele>398</ele>
        <time>2015-12-20T09:55:57.000Z</time>
      </trkpt>
      <trkpt lat="47.48697" lon="6.70127">
        <ele>398</ele>
        <time>2015-12-20T09:55:58.000Z</time>
      </trkpt>
      <trkpt lat="47.48695" lon="6.70123">
        <ele>398</ele>
        <time>2015-12-20T09:55:59.000Z</time>
      </trkpt>
      <trkpt lat="47.48692" lon="6.70119">
        <ele>397</ele>
        <time>2015-12-20T09:56:00.000Z</time>
      </trkpt>
      <trkpt lat="47.48691" lon="6.70115">
        <ele>397</ele>
        <time>2015-12-20T09:56:01.000Z</time>
      </trkpt>
      <trkpt lat="47.48689" lon="6.70112">
        <ele>397</ele>
        <time>2015-12-20T09:56:02.000Z</time>
      </trkpt>
      <trkpt lat="47.48687" lon="6.70109">
        <ele>397</ele>
        <time>2015-12-20T09:56:03.000Z</time>
      </trkpt>
      <trkpt lat="47.48685" lon="6.70106">
        <ele>397</ele>
        <time>2015-12-20T09:56:04.000Z</time>
      </trkpt>
      <trkpt lat="47.48683" lon="6.70103">
        <ele>397</ele>
        <time>2015-12-20T09:56:05.000Z</time>
      </trkpt>
      <trkpt lat="47.4868" lon="6.70099">
        <ele>396</ele>
        <time>2015-12-20T09:56:06.000Z</time>
      </trkpt>
      <trkpt lat="47.48678" lon="6.70095">
        <ele>396</ele>
        <time>2015-12-20T09:56:07.000Z</time>
      </trkpt>
      <trkpt lat="47.48676" lon="6.7009">
        <ele>395</ele>
        <time>2015-12-20T09:56:08.000Z</time>
      </trkpt>
      <trkpt lat="47.48674" lon="6.70086">
        <ele>395</ele>
        <time>2015-12-20T09:56:09.000Z</time>
      </trkpt>
      <trkpt lat="47.48672" lon="6.70082">
        <ele>395</ele>
        <time>2015-12-20T09:56:10.000Z</time>
      </trkpt>
      <trkpt lat="47.4867" lon="6.70078">
        <ele>395</ele>
        <time>2015-12-20T09:56:11.000Z</time>
      </trkpt>
      <trkpt lat="47.48668" lon="6.70074">
        <ele>396</ele>
        <time>2015-12-20T09:56:12.000Z</time>
      </trkpt>
      <trkpt lat="47.48665" lon="6.70071">
        <ele>391</ele>
        <time>2015-12-20T09:56:13.000Z</time>
      </trkpt>
      <trkpt lat="47.48662" lon="6.70067">
        <ele>391</ele>
        <time>2015-12-20T09:56:14.000Z</time>
      </trkpt>
      <trkpt lat="47.48659" lon="6.70064">
        <ele>390</ele>
        <time>2015-12-20T09:56:15.001Z</time>
      </trkpt>
      <trkpt lat="47.48658" lon="6.7006">
        <ele>390</ele>
        <time>2015-12-20T09:56:16.000Z</time>
      </trkpt>
      <trkpt lat="47.48655" lon="6.70056">
        <ele>390</ele>
        <time>2015-12-20T09:56:16.999Z</time>
      </trkpt>
      <trkpt lat="47.48656" lon="6.70052">
        <ele>390</ele>
        <time>2015-12-20T09:56:18.000Z</time>
      </trkpt>
      <trkpt lat="47.48656" lon="6.70048">
        <ele>390</ele>
        <time>2015-12-20T09:56:19.000Z</time>
      </trkpt>
      <trkpt lat="47.48657" lon="6.70044">
        <ele>390</ele>
        <time>2015-12-20T09:56:20.000Z</time>
      </trkpt>
      <trkpt lat="47.48659" lon="6.70039">
        <ele>391</ele>
        <time>2015-12-20T09:56:22.000Z</time>
      </trkpt>
      <trkpt lat="47.48661" lon="6.70038">
        <ele>391</ele>
        <time>2015-12-20T09:56:23.000Z</time>
      </trkpt>
      <trkpt lat="47.48664" lon="6.70034">
        <ele>391</ele>
        <time>2015-12-20T09:56:25.000Z</time>
      </trkpt>
      <trkpt lat="47.48664" lon="6.70029">
        <ele>392</ele>
        <time>2015-12-20T09:56:26.000Z</time>
      </trkpt>
      <trkpt lat="47.48664" lon="6.70023">
        <ele>392</ele>
        <time>2015-12-20T09:56:27.999Z</time>
      </trkpt>
      <trkpt lat="47.48662" lon="6.70019">
        <ele>393</ele>
        <time>2015-12-20T09:56:29.000Z</time>
      </trkpt>
      <trkpt lat="47.48661" lon="6.70016">
        <ele>393</ele>
        <time>2015-12-20T09:56:30.000Z</time>
      </trkpt>
      <trkpt lat="47.4866" lon="6.70013">
        <ele>394</ele>
        <time>2015-12-20T09:56:30.999Z</time>
      </trkpt>
      <trkpt lat="47.48657" lon="6.70009">
        <ele>394</ele>
        <time>2015-12-20T09:56:32.000Z</time>
      </trkpt>
      <trkpt lat="47.48655" lon="6.70007">
        <ele>394</ele>
        <time>2015-12-20T09:56:33.000Z</time>
      </trkpt>
      <trkpt lat="47.48653" lon="6.70004">
        <ele>394</ele>
        <time>2015-12-20T09:56:34.000Z</time>
      </trkpt>
      <trkpt lat="47.48651" lon="6.7">
        <ele>393</ele>
        <time>2015-12-20T09:56:35.000Z</time>
      </trkpt>
      <trkpt lat="47.4865" lon="6.69997">
        <ele>396</ele>
        <time>2015-12-20T09:56:36.000Z</time>
      </trkpt>
      <trkpt lat="47.48649" lon="6.69993">
        <ele>396</ele>
        <time>2015-12-20T09:56:37.000Z</time>
      </trkpt>
      <trkpt lat="47.48649" lon="6.69988">
        <ele>396</ele>
        <time>2015-12-20T09:56:38.000Z</time>
      </trkpt>
      <trkpt lat="47.48648" lon="6.69984">
        <ele>396</ele>
        <time>2015-12-20T09:56:39.000Z</time>
      </trkpt>
      <trkpt lat="47.48647" lon="6.69979">
        <ele>396</ele>
        <time>2015-12-20T09:56:40.000Z</time>
      </trkpt>
      <trkpt lat="47.48646" lon="6.69975">
        <ele>396</ele>
        <time>2015-12-20T09:56:41.000Z</time>
      </trkpt>
      <trkpt lat="47.48644" lon="6.69972">
        <ele>396</ele>
        <time>2015-12-20T09:56:42.000Z</time>
      </trkpt>
      <trkpt lat="47.48641" lon="6.6997">
        <ele>395</ele>
        <time>2015-12-20T09:56:43.000Z</time>
      </trkpt>
      <trkpt lat="47.48638" lon="6.69966">
        <ele>395</ele>
        <time>2015-12-20T09:56:45.000Z</time>
      </trkpt>
      <trkpt lat="47.48637" lon="6.69964">
        <ele>395</ele>
        <time>2015-12-20T09:56:46.000Z</time>
      </trkpt>
      <trkpt lat="47.48634" lon="6.69959">
        <ele>395</ele>
        <time>2015-12-20T09:56:48.000Z</time>
      </trkpt>
      <trkpt lat="47.48634" lon="6.69957">
        <ele>395</ele>
        <time>2015-12-20T09:56:49.000Z</time>
      </trkpt>
      <trkpt lat="47.48631" lon="6.69952">
        <ele>395</ele>
        <time>2015-12-20T09:56:53.000Z</time>
      </trkpt>
      <trkpt lat="47.4863" lon="6.69953">
        <ele>395</ele>
        <time>2015-12-20T09:56:54.000Z</time>
      </trkpt>
      <trkpt lat="47.48627" lon="6.69951">
        <ele>395</ele>
        <time>2015-12-20T09:56:57.000Z</time>
      </trkpt>
      <trkpt lat="47.48626" lon="6.69948">
        <ele>395</ele>
        <time>2015-12-20T09:56:58.000Z</time>
      </trkpt>
      <trkpt lat="47.48624" lon="6.69944">
        <ele>395</ele>
        <time>2015-12-20T09:57:00.000Z</time>
      </trkpt>
      <trkpt lat="47.48624" lon="6.69941">
        <ele>395</ele>
        <time>2015-12-20T09:57:01.000Z</time>
      </trkpt>
      <trkpt lat="47.48623" lon="6.69936">
        <ele>395</ele>
        <time>2015-12-20T09:57:03.000Z</time>
      </trkpt>
      <trkpt lat="47.48622" lon="6.69933">
        <ele>395</ele>
        <time>2015-12-20T09:57:04.000Z</time>
      </trkpt>
      <trkpt lat="47.48622" lon="6.6993">
        <ele>395</ele>
        <time>2015-12-20T09:57:05.000Z</time>
      </trkpt>
      <trkpt lat="47.48621" lon="6.69926">
        <ele>396</ele>
        <time>2015-12-20T09:57:06.000Z</time>
      </trkpt>
      <trkpt lat="47.48621" lon="6.6992">
        <ele>396</ele>
        <time>2015-12-20T09:57:08.000Z</time>
      </trkpt>
      <trkpt lat="47.4862" lon="6.69918">
        <ele>396</ele>
        <time>2015-12-20T09:57:09.000Z</time>
      </trkpt>
      <trkpt lat="47.4862" lon="6.69914">
        <ele>397</ele>
        <time>2015-12-20T09:57:11.000Z</time>
      </trkpt>
      <trkpt lat="47.4862" lon="6.69911">
        <ele>397</ele>
        <time>2015-12-20T09:57:12.000Z</time>
      </trkpt>
      <trkpt lat="47.48619" lon="6.69907">
        <ele>397</ele>
        <time>2015-12-20T09:57:14.000Z</time>
      </trkpt>
      <trkpt lat="47.48618" lon="6.69904">
        <ele>397</ele>
        <time>2015-12-20T09:57:15.000Z</time>
      </trkpt>
      <trkpt lat="47.48617" lon="6.69898">
        <ele>397</ele>
        <time>2015-12-20T09:57:17.000Z</time>
      </trkpt>
      <trkpt lat="47.48616" lon="6.69896">
        <ele>397</ele>
        <time>2015-12-20T09:57:18.000Z</time>
      </trkpt>
      <trkpt lat="47.48614" lon="6.69893">
        <ele>397</ele>
        <time>2015-12-20T09:57:20.000Z</time>
      </trkpt>
      <trkpt lat="47.48612" lon="6.69892">
        <ele>397</ele>
        <time>2015-12-20T09:57:21.000Z</time>
      </trkpt>
      <trkpt lat="47.4861" lon="6.69891">
        <ele>397</ele>
        <time>2015-12-20T09:57:22.000Z</time>
      </trkpt>
      <trkpt lat="47.48608" lon="6.6989">
        <ele>397</ele>
        <time>2015-12-20T09:57:23.000Z</time>
      </trkpt>
      <trkpt lat="47.48604" lon="6.69888">
        <ele>397</ele>
        <time>2015-12-20T09:57:25.000Z</time>
      </trkpt>
      <trkpt lat="47.48602" lon="6.69887">
        <ele>397</ele>
        <time>2015-12-20T09:57:26.000Z</time>
      </trkpt>
      <trkpt lat="47.48598" lon="6.69885">
        <ele>396</ele>
        <time>2015-12-20T09:57:30.000Z</time>
      </trkpt>
      <trkpt lat="47.48598" lon="6.69884">
        <ele>396</ele>
        <time>2015-12-20T09:57:31.000Z</time>
      </trkpt>
      <trkpt lat="47.48594" lon="6.69884">
        <ele>396</ele>
        <time>2015-12-20T09:57:34.000Z</time>
      </trkpt>
      <trkpt lat="47.48592" lon="6.69885">
        <ele>396</ele>
        <time>2015-12-20T09:57:35.000Z</time>
      </trkpt>
      <trkpt lat="47.4859" lon="6.69885">
        <ele>396</ele>
        <time>2015-12-20T09:57:36.000Z</time>
      </trkpt>
      <trkpt lat="47.48587" lon="6.69885">
        <ele>396</ele>
        <time>2015-12-20T09:57:37.000Z</time>
      </trkpt>
      <trkpt lat="47.48584" lon="6.69885">
        <ele>396</ele>
        <time>2015-12-20T09:57:38.000Z</time>
      </trkpt>
      <trkpt lat="47.48582" lon="6.69884">
        <ele>389</ele>
        <time>2015-12-20T09:57:39.000Z</time>
      </trkpt>
      <trkpt lat="47.48579" lon="6.69883">
        <ele>389</ele>
        <time>2015-12-20T09:57:40.000Z</time>
      </trkpt>
      <trkpt lat="47.48577" lon="6.69882">
        <ele>389</ele>
        <time>2015-12-20T09:57:41.000Z</time>
      </trkpt>
      <trkpt lat="47.48573" lon="6.69879">
        <ele>389</ele>
        <time>2015-12-20T09:57:44.000Z</time>
      </trkpt>
      <trkpt lat="47.48572" lon="6.69878">
        <ele>389</ele>
        <time>2015-12-20T09:57:45.000Z</time>
      </trkpt>
      <trkpt lat="47.48569" lon="6.69874">
        <ele>388</ele>
        <time>2015-12-20T09:57:47.000Z</time>
      </trkpt>
      <trkpt lat="47.48567" lon="6.69872">
        <ele>388</ele>
        <time>2015-12-20T09:57:48.000Z</time>
      </trkpt>
      <trkpt lat="47.48565" lon="6.69871">
        <ele>388</ele>
        <time>2015-12-20T09:57:49.000Z</time>
      </trkpt>
      <trkpt lat="47.48563" lon="6.69871">
        <ele>388</ele>
        <time>2015-12-20T09:57:50.000Z</time>
      </trkpt>
      <trkpt lat="47.4856" lon="6.6987">
        <ele>388</ele>
        <time>2015-12-20T09:57:51.000Z</time>
      </trkpt>
      <trkpt lat="47.48558" lon="6.6987">
        <ele>388</ele>
        <time>2015-12-20T09:57:52.001Z</time>
      </trkpt>
      <trkpt lat="47.48555" lon="6.6987">
        <ele>387</ele>
        <time>2015-12-20T09:57:53.000Z</time>
      </trkpt>
      <trkpt lat="47.48552" lon="6.69869">
        <ele>387</ele>
        <time>2015-12-20T09:57:54.000Z</time>
      </trkpt>
      <trkpt lat="47.48548" lon="6.69866">
        <ele>387</ele>
        <time>2015-12-20T09:57:56.000Z</time>
      </trkpt>
      <trkpt lat="47.48547" lon="6.69865">
        <ele>387</ele>
        <time>2015-12-20T09:57:57.000Z</time>
      </trkpt>
      <trkpt lat="47.48544" lon="6.6986">
        <ele>387</ele>
        <time>2015-12-20T09:58:00.000Z</time>
      </trkpt>
      <trkpt lat="47.48544" lon="6.69859">
        <ele>387</ele>
        <time>2015-12-20T09:58:01.000Z</time>
      </trkpt>
      <trkpt lat="47.48541" lon="6.69855">
        <ele>387</ele>
        <time>2015-12-20T09:58:05.000Z</time>
      </trkpt>
      <trkpt lat="47.48541" lon="6.69853">
        <ele>387</ele>
        <time>2015-12-20T09:58:05.999Z</time>
      </trkpt>
      <trkpt lat="47.48539" lon="6.69848">
        <ele>387</ele>
        <time>2015-12-20T09:58:09.000Z</time>
      </trkpt>
      <trkpt lat="47.48539" lon="6.69845">
        <ele>386</ele>
        <time>2015-12-20T09:58:10.000Z</time>
      </trkpt>
      <trkpt lat="47.48538" lon="6.6984">
        <ele>386</ele>
        <time>2015-12-20T09:58:12.001Z</time>
      </trkpt>
      <trkpt lat="47.48536" lon="6.69837">
        <ele>386</ele>
        <time>2015-12-20T09:58:13.001Z</time>
      </trkpt>
      <trkpt lat="47.48534" lon="6.69835">
        <ele>386</ele>
        <time>2015-12-20T09:58:14.000Z</time>
      </trkpt>
      <trkpt lat="47.48532" lon="6.69833">
        <ele>387</ele>
        <time>2015-12-20T09:58:15.000Z</time>
      </trkpt>
      <trkpt lat="47.48528" lon="6.6983">
        <ele>387</ele>
        <time>2015-12-20T09:58:17.000Z</time>
      </trkpt>
      <trkpt lat="47.48526" lon="6.69828">
        <ele>387</ele>
        <time>2015-12-20T09:58:18.000Z</time>
      </trkpt>
      <trkpt lat="47.48522" lon="6.69826">
        <ele>386</ele>
        <time>2015-12-20T09:58:20.000Z</time>
      </trkpt>
      <trkpt lat="47.48521" lon="6.69825">
        <ele>386</ele>
        <time>2015-12-20T09:58:21.000Z</time>
      </trkpt>
      <trkpt lat="47.48517" lon="6.69823">
        <ele>386</ele>
        <time>2015-12-20T09:58:23.001Z</time>
      </trkpt>
      <trkpt lat="47.48515" lon="6.69821">
        <ele>386</ele>
        <time>2015-12-20T09:58:24.000Z</time>
      </trkpt>
      <trkpt lat="47.48515" lon="6.69815">
        <ele>386</ele>
        <time>2015-12-20T09:58:26.000Z</time>
      </trkpt>
      <trkpt lat="47.48515" lon="6.69813">
        <ele>386</ele>
        <time>2015-12-20T09:58:27.000Z</time>
      </trkpt>
      <trkpt lat="47.48518" lon="6.69807">
        <ele>387</ele>
        <time>2015-12-20T09:58:30.000Z</time>
      </trkpt>
      <trkpt lat="47.48518" lon="6.69806">
        <ele>387</ele>
        <time>2015-12-20T09:58:31.000Z</time>
      </trkpt>
      <trkpt lat="47.4852" lon="6.698">
        <ele>387</ele>
        <time>2015-12-20T09:58:35.000Z</time>
      </trkpt>
      <trkpt lat="47.4852" lon="6.69799">
        <ele>387</ele>
        <time>2015-12-20T09:58:36.000Z</time>
      </trkpt>
      <trkpt lat="47.48517" lon="6.69795">
        <ele>387</ele>
        <time>2015-12-20T09:58:47.000Z</time>
      </trkpt>
      <trkpt lat="47.48515" lon="6.69794">
        <ele>387</ele>
        <time>2015-12-20T09:58:48.000Z</time>
      </trkpt>
      <trkpt lat="47.48514" lon="6.69793">
        <ele>387</ele>
        <time>2015-12-20T09:58:49.000Z</time>
      </trkpt>
      <trkpt lat="47.48511" lon="6.6979">
        <ele>387</ele>
        <time>2015-12-20T09:58:51.000Z</time>
      </trkpt>
      <trkpt lat="47.48508" lon="6.69788">
        <ele>387</ele>
        <time>2015-12-20T09:58:53.000Z</time>
      </trkpt>
      <trkpt lat="47.48506" lon="6.69788">
        <ele>387</ele>
        <time>2015-12-20T09:58:54.000Z</time>
      </trkpt>
      <trkpt lat="47.48503" lon="6.69788">
        <ele>387</ele>
        <time>2015-12-20T09:58:55.000Z</time>
      </trkpt>
      <trkpt lat="47.485" lon="6.69789">
        <ele>381</ele>
        <time>2015-12-20T09:58:56.000Z</time>
      </trkpt>
      <trkpt lat="47.48495" lon="6.69792">
        <ele>381</ele>
        <time>2015-12-20T09:58:57.000Z</time>
      </trkpt>
      <trkpt lat="47.48491" lon="6.69794">
        <ele>381</ele>
        <time>2015-12-20T09:58:58.000Z</time>
      </trkpt>
      <trkpt lat="47.48487" lon="6.69796">
        <ele>381</ele>
        <time>2015-12-20T09:58:59.000Z</time>
      </trkpt>
      <trkpt lat="47.48483" lon="6.69797">
        <ele>381</ele>
        <time>2015-12-20T09:59:00.000Z</time>
      </trkpt>
      <trkpt lat="47.4848" lon="6.69799">
        <ele>380</ele>
        <time>2015-12-20T09:59:01.000Z</time>
      </trkpt>
      <trkpt lat="47.48477" lon="6.69796">
        <ele>380</ele>
        <time>2015-12-20T09:59:02.000Z</time>
      </trkpt>
      <trkpt lat="47.48475" lon="6.69793">
        <ele>380</ele>
        <time>2015-12-20T09:59:03.000Z</time>
      </trkpt>
      <trkpt lat="47.48473" lon="6.69792">
        <ele>380</ele>
        <time>2015-12-20T09:59:04.000Z</time>
      </trkpt>
      <trkpt lat="47.4847" lon="6.6979">
        <ele>380</ele>
        <time>2015-12-20T09:59:05.000Z</time>
      </trkpt>
      <trkpt lat="47.48467" lon="6.69789">
        <ele>380</ele>
        <time>2015-12-20T09:59:06.000Z</time>
      </trkpt>
      <trkpt lat="47.48464" lon="6.69788">
        <ele>380</ele>
        <time>2015-12-20T09:59:07.000Z</time>
      </trkpt>
      <trkpt lat="47.4846" lon="6.69788">
        <ele>380</ele>
        <time>2015-12-20T09:59:08.000Z</time>
      </trkpt>
      <trkpt lat="47.48458" lon="6.69787">
        <ele>380</ele>
        <time>2015-12-20T09:59:09.000Z</time>
      </trkpt>
      <trkpt lat="47.48453" lon="6.69787">
        <ele>380</ele>
        <time>2015-12-20T09:59:10.000Z</time>
      </trkpt>
      <trkpt lat="47.48448" lon="6.69786">
        <ele>380</ele>
        <time>2015-12-20T09:59:11.000Z</time>
      </trkpt>
      <trkpt lat="47.48436" lon="6.69794">
        <ele>379</ele>
        <time>2015-12-20T09:59:12.000Z</time>
      </trkpt>
      <trkpt lat="47.48432" lon="6.69793">
        <ele>379</ele>
        <time>2015-12-20T09:59:13.000Z</time>
      </trkpt>
      <trkpt lat="47.48429" lon="6.69792">
        <ele>379</ele>
        <time>2015-12-20T09:59:14.000Z</time>
      </trkpt>
      <trkpt lat="47.48426" lon="6.69793">
        <ele>378</ele>
        <time>2015-12-20T09:59:15.000Z</time>
      </trkpt>
      <trkpt lat="47.48424" lon="6.69792">
        <ele>378</ele>
        <time>2015-12-20T09:59:16.000Z</time>
      </trkpt>
      <trkpt lat="47.4842" lon="6.69789">
        <ele>379</ele>
        <time>2015-12-20T10:00:15.000Z</time>
      </trkpt>
      <trkpt lat="47.48419" lon="6.69788">
        <ele>379</ele>
        <time>2015-12-20T10:00:16.000Z</time>
      </trkpt>
      <trkpt lat="47.48418" lon="6.69784">
        <ele>379</ele>
        <time>2015-12-20T10:00:18.000Z</time>
      </trkpt>
      <trkpt lat="47.48419" lon="6.6978">
        <ele>379</ele>
        <time>2015-12-20T10:00:19.000Z</time>
      </trkpt>
      <trkpt lat="47.4842" lon="6.69776">
        <ele>379</ele>
        <time>2015-12-20T10:00:20.000Z</time>
      </trkpt>
      <trkpt lat="47.4842" lon="6.69772">
        <ele>379</ele>
        <time>2015-12-20T10:00:21.000Z</time>
      </trkpt>
      <trkpt lat="47.4842" lon="6.69766">
        <ele>380</ele>
        <time>2015-12-20T10:00:23.000Z</time>
      </trkpt>
      <trkpt lat="47.48419" lon="6.69764">
        <ele>380</ele>
        <time>2015-12-20T10:00:24.000Z</time>
      </trkpt>
      <trkpt lat="47.48418" lon="6.6976">
        <ele>380</ele>
        <time>2015-12-20T10:00:25.000Z</time>
      </trkpt>
      <trkpt lat="47.48417" lon="6.69756">
        <ele>379</ele>
        <time>2015-12-20T10:00:26.000Z</time>
      </trkpt>
      <trkpt lat="47.48416" lon="6.69752">
        <ele>380</ele>
        <time>2015-12-20T10:00:27.000Z</time>
      </trkpt>
      <trkpt lat="47.48415" lon="6.69748">
        <ele>380</ele>
        <time>2015-12-20T10:00:28.000Z</time>
      </trkpt>
      <trkpt lat="47.48414" lon="6.69744">
        <ele>380</ele>
        <time>2015-12-20T10:00:29.000Z</time>
      </trkpt>
      <trkpt lat="47.48413" lon="6.6974">
        <ele>380</ele>
        <time>2015-12-20T10:00:30.000Z</time>
      </trkpt>
      <trkpt lat="47.48412" lon="6.69735">
        <ele>379</ele>
        <time>2015-12-20T10:00:31.000Z</time>
      </trkpt>
      <trkpt lat="47.4841" lon="6.6973">
        <ele>379</ele>
        <time>2015-12-20T10:00:32.000Z</time>
      </trkpt>
      <trkpt lat="47.48408" lon="6.69725">
        <ele>379</ele>
        <time>2015-12-20T10:00:33.000Z</time>
      </trkpt>
      <trkpt lat="47.48406" lon="6.6972">
        <ele>379</ele>
        <time>2015-12-20T10:00:34.000Z</time>
      </trkpt>
      <trkpt lat="47.48404" lon="6.69714">
        <ele>379</ele>
        <time>2015-12-20T10:00:35.000Z</time>
      </trkpt>
      <trkpt lat="47.48403" lon="6.69708">
        <ele>379</ele>
        <time>2015-12-20T10:00:36.000Z</time>
      </trkpt>
      <trkpt lat="47.484" lon="6.69702">
        <ele>379</ele>
        <time>2015-12-20T10:00:37.000Z</time>
      </trkpt>
      <trkpt lat="47.48398" lon="6.69696">
        <ele>379</ele>
        <time>2015-12-20T10:00:38.000Z</time>
      </trkpt>
      <trkpt lat="47.48393" lon="6.69683">
        <ele>379</ele>
        <time>2015-12-20T10:00:39.000Z</time>
      </trkpt>
      <trkpt lat="47.48392" lon="6.69677">
        <ele>379</ele>
        <time>2015-12-20T10:00:40.000Z</time>
      </trkpt>
      <trkpt lat="47.4839" lon="6.69671">
        <ele>379</ele>
        <time>2015-12-20T10:00:41.000Z</time>
      </trkpt>
      <trkpt lat="47.48392" lon="6.69667">
        <ele>380</ele>
        <time>2015-12-20T10:00:42.000Z</time>
      </trkpt>
      <trkpt lat="47.48392" lon="6.69661">
        <ele>380</ele>
        <time>2015-12-20T10:00:43.000Z</time>
      </trkpt>
      <trkpt lat="47.48393" lon="6.69657">
        <ele>380</ele>
        <time>2015-12-20T10:00:44.000Z</time>
      </trkpt>
      <trkpt lat="47.48393" lon="6.69652">
        <ele>380</ele>
        <time>2015-12-20T10:00:45.000Z</time>
      </trkpt>
      <trkpt lat="47.48388" lon="6.69644">
        <ele>379</ele>
        <time>2015-12-20T10:00:46.000Z</time>
      </trkpt>
      <trkpt lat="47.48385" lon="6.69638">
        <ele>379</ele>
        <time>2015-12-20T10:00:47.000Z</time>
      </trkpt>
      <trkpt lat="47.48386" lon="6.69634">
        <ele>379</ele>
        <time>2015-12-20T10:00:48.000Z</time>
      </trkpt>
      <trkpt lat="47.48383" lon="6.69625">
        <ele>379</ele>
        <time>2015-12-20T10:00:49.000Z</time>
      </trkpt>
      <trkpt lat="47.48382" lon="6.69619">
        <ele>379</ele>
        <time>2015-12-20T10:00:50.000Z</time>
      </trkpt>
      <trkpt lat="47.48383" lon="6.69614">
        <ele>379</ele>
        <time>2015-12-20T10:00:51.000Z</time>
      </trkpt>
      <trkpt lat="47.48383" lon="6.69608">
        <ele>379</ele>
        <time>2015-12-20T10:00:52.000Z</time>
      </trkpt>
      <trkpt lat="47.48384" lon="6.69603">
        <ele>379</ele>
        <time>2015-12-20T10:00:53.000Z</time>
      </trkpt>
      <trkpt lat="47.48383" lon="6.69598">
        <ele>379</ele>
        <time>2015-12-20T10:00:54.000Z</time>
      </trkpt>
      <trkpt lat="47.48382" lon="6.69596">
        <ele>379</ele>
        <time>2015-12-20T10:00:55.000Z</time>
      </trkpt>
      <trkpt lat="47.4838" lon="6.69596">
        <ele>379</ele>
        <time>2015-12-20T10:00:56.000Z</time>
      </trkpt>
      <trkpt lat="47.48378" lon="6.69592">
        <ele>379</ele>
        <time>2015-12-20T10:00:57.000Z</time>
      </trkpt>
      <trkpt lat="47.48379" lon="6.69586">
        <ele>379</ele>
        <time>2015-12-20T10:01:06.000Z</time>
      </trkpt>
      <trkpt lat="47.48378" lon="6.69586">
        <ele>379</ele>
        <time>2015-12-20T10:01:07.000Z</time>
      </trkpt>
      <trkpt lat="47.48375" lon="6.69581">
        <ele>378</ele>
        <time>2015-12-20T10:01:29.000Z</time>
      </trkpt>
      <trkpt lat="47.48375" lon="6.69581">
        <ele>378</ele>
        <time>2015-12-20T10:01:30.000Z</time>
      </trkpt>
      <trkpt lat="47.48372" lon="6.69585">
        <ele>379</ele>
        <time>2015-12-20T10:01:46.000Z</time>
      </trkpt>
      <trkpt lat="47.48372" lon="6.69585">
        <ele>379</ele>
        <time>2015-12-20T10:01:47.000Z</time>
      </trkpt>
      <trkpt lat="47.48371" lon="6.6958">
        <ele>378</ele>
        <time>2015-12-20T10:01:58.000Z</time>
      </trkpt>
      <trkpt lat="47.4837" lon="6.69579">
        <ele>378</ele>
        <time>2015-12-20T10:01:59.000Z</time>
      </trkpt>
      <trkpt lat="47.48368" lon="6.69573">
        <ele>378</ele>
        <time>2015-12-20T10:02:01.000Z</time>
      </trkpt>
      <trkpt lat="47.48367" lon="6.6957">
        <ele>378</ele>
        <time>2015-12-20T10:02:02.000Z</time>
      </trkpt>
      <trkpt lat="47.48366" lon="6.69566">
        <ele>378</ele>
        <time>2015-12-20T10:02:03.000Z</time>
      </trkpt>
      <trkpt lat="47.48365" lon="6.69561">
        <ele>378</ele>
        <time>2015-12-20T10:02:04.000Z</time>
      </trkpt>
      <trkpt lat="47.48364" lon="6.69556">
        <ele>378</ele>
        <time>2015-12-20T10:02:05.000Z</time>
      </trkpt>
      <trkpt lat="47.48364" lon="6.69551">
        <ele>378</ele>
        <time>2015-12-20T10:02:06.000Z</time>
      </trkpt>
      <trkpt lat="47.48364" lon="6.69546">
        <ele>378</ele>
        <time>2015-12-20T10:02:07.000Z</time>
      </trkpt>
      <trkpt lat="47.48363" lon="6.69541">
        <ele>378</ele>
        <time>2015-12-20T10:02:08.000Z</time>
      </trkpt>
      <trkpt lat="47.48362" lon="6.69536">
        <ele>378</ele>
        <time>2015-12-20T10:02:09.000Z</time>
      </trkpt>
      <trkpt lat="47.4836" lon="6.69531">
        <ele>378</ele>
        <time>2015-12-20T10:02:10.000Z</time>
      </trkpt>
      <trkpt lat="47.48359" lon="6.69527">
        <ele>378</ele>
        <time>2015-12-20T10:02:11.000Z</time>
      </trkpt>
      <trkpt lat="47.48358" lon="6.69523">
        <ele>378</ele>
        <time>2015-12-20T10:02:12.000Z</time>
      </trkpt>
      <trkpt lat="47.48356" lon="6.69518">
        <ele>378</ele>
        <time>2015-12-20T10:02:13.000Z</time>
      </trkpt>
      <trkpt lat="47.48354" lon="6.69513">
        <ele>378</ele>
        <time>2015-12-20T10:02:14.000Z</time>
      </trkpt>
      <trkpt lat="47.48352" lon="6.69507">
        <ele>378</ele>
        <time>2015-12-20T10:02:15.000Z</time>
      </trkpt>
      <trkpt lat="47.48345" lon="6.69496">
        <ele>377</ele>
        <time>2015-12-20T10:02:16.000Z</time>
      </trkpt>
      <trkpt lat="47.48342" lon="6.69492">
        <ele>377</ele>
        <time>2015-12-20T10:02:17.000Z</time>
      </trkpt>
      <trkpt lat="47.4834" lon="6.69486">
        <ele>377</ele>
        <time>2015-12-20T10:02:18.000Z</time>
      </trkpt>
      <trkpt lat="47.48339" lon="6.69481">
        <ele>377</ele>
        <time>2015-12-20T10:02:19.000Z</time>
      </trkpt>
      <trkpt lat="47.48337" lon="6.69477">
        <ele>377</ele>
        <time>2015-12-20T10:02:20.000Z</time>
      </trkpt>
      <trkpt lat="47.48336" lon="6.69475">
        <ele>376</ele>
        <time>2015-12-20T10:02:21.000Z</time>
      </trkpt>
      <trkpt lat="47.48334" lon="6.69471">
        <ele>376</ele>
        <time>2015-12-20T10:02:22.000Z</time>
      </trkpt>
      <trkpt lat="47.48335" lon="6.69464">
        <ele>376</ele>
        <time>2015-12-20T10:02:23.000Z</time>
      </trkpt>
      <trkpt lat="47.48334" lon="6.69458">
        <ele>376</ele>
        <time>2015-12-20T10:02:24.000Z</time>
      </trkpt>
      <trkpt lat="47.48334" lon="6.69453">
        <ele>376</ele>
        <time>2015-12-20T10:02:25.000Z</time>
      </trkpt>
      <trkpt lat="47.48333" lon="6.69447">
        <ele>375</ele>
        <time>2015-12-20T10:02:26.000Z</time>
      </trkpt>
      <trkpt lat="47.48334" lon="6.69441">
        <ele>375</ele>
        <time>2015-12-20T10:02:27.000Z</time>
      </trkpt>
      <trkpt lat="47.48334" lon="6.69436">
        <ele>375</ele>
        <time>2015-12-20T10:02:28.000Z</time>
      </trkpt>
      <trkpt lat="47.48334" lon="6.69431">
        <ele>375</ele>
        <time>2015-12-20T10:02:29.000Z</time>
      </trkpt>
      <trkpt lat="47.48333" lon="6.69427">
        <ele>375</ele>
        <time>2015-12-20T10:02:30.000Z</time>
      </trkpt>
      <trkpt lat="47.48333" lon="6.69423">
        <ele>374</ele>
        <time>2015-12-20T10:02:31.000Z</time>
      </trkpt>
      <trkpt lat="47.48332" lon="6.69419">
        <ele>374</ele>
        <time>2015-12-20T10:02:32.000Z</time>
      </trkpt>
      <trkpt lat="47.48331" lon="6.69414">
        <ele>374</ele>
        <time>2015-12-20T10:02:33.000Z</time>
      </trkpt>
      <trkpt lat="47.4833" lon="6.69409">
        <ele>373</ele>
        <time>2015-12-20T10:02:34.000Z</time>
      </trkpt>
      <trkpt lat="47.48329" lon="6.69404">
        <ele>373</ele>
        <time>2015-12-20T10:02:35.000Z</time>
      </trkpt>
      <trkpt lat="47.48327" lon="6.69398">
        <ele>372</ele>
        <time>2015-12-20T10:02:36.000Z</time>
      </trkpt>
      <trkpt lat="47.48324" lon="6.69383">
        <ele>371</ele>
        <time>2015-12-20T10:02:37.000Z</time>
      </trkpt>
      <trkpt lat="47.48323" lon="6.69373">
        <ele>371</ele>
        <time>2015-12-20T10:02:38.000Z</time>
      </trkpt>
      <trkpt lat="47.48321" lon="6.69365">
        <ele>371</ele>
        <time>2015-12-20T10:02:39.000Z</time>
      </trkpt>
      <trkpt lat="47.4832" lon="6.69357">
        <ele>370</ele>
        <time>2015-12-20T10:02:40.000Z</time>
      </trkpt>
      <trkpt lat="47.48319" lon="6.69352">
        <ele>370</ele>
        <time>2015-12-20T10:02:41.000Z</time>
      </trkpt>
      <trkpt lat="47.48316" lon="6.69342">
        <ele>370</ele>
        <time>2015-12-20T10:02:42.000Z</time>
      </trkpt>
      <trkpt lat="47.48314" lon="6.69337">
        <ele>370</ele>
        <time>2015-12-20T10:02:43.000Z</time>
      </trkpt>
      <trkpt lat="47.48312" lon="6.69334">
        <ele>370</ele>
        <time>2015-12-20T10:02:44.000Z</time>
      </trkpt>
      <trkpt lat="47.48308" lon="6.69327">
        <ele>366</ele>
        <time>2015-12-20T10:02:45.000Z</time>
      </trkpt>
      <trkpt lat="47.48306" lon="6.69321">
        <ele>366</ele>
        <time>2015-12-20T10:02:46.000Z</time>
      </trkpt>
      <trkpt lat="47.48303" lon="6.69318">
        <ele>365</ele>
        <time>2015-12-20T10:02:48.000Z</time>
      </trkpt>
      <trkpt lat="47.483" lon="6.69316">
        <ele>365</ele>
        <time>2015-12-20T10:02:49.000Z</time>
      </trkpt>
      <trkpt lat="47.48297" lon="6.69315">
        <ele>365</ele>
        <time>2015-12-20T10:02:50.000Z</time>
      </trkpt>
      <trkpt lat="47.48294" lon="6.69313">
        <ele>365</ele>
        <time>2015-12-20T10:02:51.000Z</time>
      </trkpt>
      <trkpt lat="47.48292" lon="6.69311">
        <ele>365</ele>
        <time>2015-12-20T10:02:52.000Z</time>
      </trkpt>
      <trkpt lat="47.48289" lon="6.69309">
        <ele>364</ele>
        <time>2015-12-20T10:02:53.000Z</time>
      </trkpt>
      <trkpt lat="47.48287" lon="6.69307">
        <ele>364</ele>
        <time>2015-12-20T10:02:54.000Z</time>
      </trkpt>
      <trkpt lat="47.48284" lon="6.69305">
        <ele>364</ele>
        <time>2015-12-20T10:02:55.000Z</time>
      </trkpt>
      <trkpt lat="47.48281" lon="6.69303">
        <ele>364</ele>
        <time>2015-12-20T10:02:56.000Z</time>
      </trkpt>
      <trkpt lat="47.48278" lon="6.69301">
        <ele>364</ele>
        <time>2015-12-20T10:02:57.000Z</time>
      </trkpt>
      <trkpt lat="47.48276" lon="6.69299">
        <ele>364</ele>
        <time>2015-12-20T10:02:58.000Z</time>
      </trkpt>
      <trkpt lat="47.48274" lon="6.69296">
        <ele>363</ele>
        <time>2015-12-20T10:02:59.000Z</time>
      </trkpt>
      <trkpt lat="47.48273" lon="6.69293">
        <ele>363</ele>
        <time>2015-12-20T10:03:00.000Z</time>
      </trkpt>
      <trkpt lat="47.48272" lon="6.69289">
        <ele>363</ele>
        <time>2015-12-20T10:03:01.000Z</time>
      </trkpt>
      <trkpt lat="47.48271" lon="6.69286">
        <ele>363</ele>
        <time>2015-12-20T10:03:02.000Z</time>
      </trkpt>
      <trkpt lat="47.4827" lon="6.69283">
        <ele>363</ele>
        <time>2015-12-20T10:03:03.000Z</time>
      </trkpt>
      <trkpt lat="47.48269" lon="6.6928">
        <ele>362</ele>
        <time>2015-12-20T10:03:04.000Z</time>
      </trkpt>
      <trkpt lat="47.48268" lon="6.69277">
        <ele>362</ele>
        <time>2015-12-20T10:03:05.000Z</time>
      </trkpt>
      <trkpt lat="47.48266" lon="6.69274">
        <ele>362</ele>
        <time>2015-12-20T10:03:06.000Z</time>
      </trkpt>
      <trkpt lat="47.48265" lon="6.69271">
        <ele>361</ele>
        <time>2015-12-20T10:03:07.000Z</time>
      </trkpt>
      <trkpt lat="47.48264" lon="6.69267">
        <ele>361</ele>
        <time>2015-12-20T10:03:08.000Z</time>
      </trkpt>
      <trkpt lat="47.48262" lon="6.69263">
        <ele>360</ele>
        <time>2015-12-20T10:03:09.000Z</time>
      </trkpt>
      <trkpt lat="47.48261" lon="6.69259">
        <ele>360</ele>
        <time>2015-12-20T10:03:10.000Z</time>
      </trkpt>
      <trkpt lat="47.4826" lon="6.69254">
        <ele>359</ele>
        <time>2015-12-20T10:03:11.000Z</time>
      </trkpt>
      <trkpt lat="47.48259" lon="6.69251">
        <ele>358</ele>
        <time>2015-12-20T10:03:12.000Z</time>
      </trkpt>
      <trkpt lat="47.48258" lon="6.69247">
        <ele>357</ele>
        <time>2015-12-20T10:03:13.000Z</time>
      </trkpt>
      <trkpt lat="47.48256" lon="6.69241">
        <ele>358</ele>
        <time>2015-12-20T10:03:15.000Z</time>
      </trkpt>
      <trkpt lat="47.48255" lon="6.69239">
        <ele>358</ele>
        <time>2015-12-20T10:03:16.000Z</time>
      </trkpt>
      <trkpt lat="47.48254" lon="6.69233">
        <ele>358</ele>
        <time>2015-12-20T10:03:20.000Z</time>
      </trkpt>
      <trkpt lat="47.48254" lon="6.69232">
        <ele>358</ele>
        <time>2015-12-20T10:03:21.000Z</time>
      </trkpt>
      <trkpt lat="47.48252" lon="6.69228">
        <ele>359</ele>
        <time>2015-12-20T10:03:52.000Z</time>
      </trkpt>
      <trkpt lat="47.4825" lon="6.69225">
        <ele>359</ele>
        <time>2015-12-20T10:03:53.000Z</time>
      </trkpt>
      <trkpt lat="47.48249" lon="6.6922">
        <ele>354</ele>
        <time>2015-12-20T10:03:54.000Z</time>
      </trkpt>
      <trkpt lat="47.48247" lon="6.69216">
        <ele>354</ele>
        <time>2015-12-20T10:03:55.000Z</time>
      </trkpt>
      <trkpt lat="47.48245" lon="6.6921">
        <ele>354</ele>
        <time>2015-12-20T10:03:56.000Z</time>
      </trkpt>
      <trkpt lat="47.48243" lon="6.69205">
        <ele>354</ele>
        <time>2015-12-20T10:03:57.000Z</time>
      </trkpt>
      <trkpt lat="47.48241" lon="6.692">
        <ele>354</ele>
        <time>2015-12-20T10:03:58.000Z</time>
      </trkpt>
      <trkpt lat="47.48239" lon="6.69195">
        <ele>354</ele>
        <time>2015-12-20T10:03:59.000Z</time>
      </trkpt>
      <trkpt lat="47.48237" lon="6.6919">
        <ele>354</ele>
        <time>2015-12-20T10:04:00.000Z</time>
      </trkpt>
      <trkpt lat="47.48235" lon="6.69185">
        <ele>354</ele>
        <time>2015-12-20T10:04:01.000Z</time>
      </trkpt>
      <trkpt lat="47.48233" lon="6.69181">
        <ele>354</ele>
        <time>2015-12-20T10:04:02.000Z</time>
      </trkpt>
      <trkpt lat="47.48232" lon="6.69176">
        <ele>354</ele>
        <time>2015-12-20T10:04:03.000Z</time>
      </trkpt>
      <trkpt lat="47.4823" lon="6.69171">
        <ele>354</ele>
        <time>2015-12-20T10:04:04.000Z</time>
      </trkpt>
      <trkpt lat="47.48228" lon="6.69166">
        <ele>354</ele>
        <time>2015-12-20T10:04:05.000Z</time>
      </trkpt>
      <trkpt lat="47.48227" lon="6.69161">
        <ele>354</ele>
        <time>2015-12-20T10:04:06.000Z</time>
      </trkpt>
      <trkpt lat="47.48225" lon="6.69156">
        <ele>354</ele>
        <time>2015-12-20T10:04:07.000Z</time>
      </trkpt>
      <trkpt lat="47.48224" lon="6.69152">
        <ele>354</ele>
        <time>2015-12-20T10:04:08.000Z</time>
      </trkpt>
      <trkpt lat="47.48222" lon="6.69148">
        <ele>354</ele>
        <time>2015-12-20T10:04:09.000Z</time>
      </trkpt>
      <trkpt lat="47.4822" lon="6.69145">
        <ele>354</ele>
        <time>2015-12-20T10:04:10.000Z</time>
      </trkpt>
      <trkpt lat="47.48219" lon="6.69141">
        <ele>354</ele>
        <time>2015-12-20T10:04:11.000Z</time>
      </trkpt>
      <trkpt lat="47.48217" lon="6.69138">
        <ele>354</ele>
        <time>2015-12-20T10:04:12.000Z</time>
      </trkpt>
      <trkpt lat="47.48215" lon="6.69135">
        <ele>354</ele>
        <time>2015-12-20T10:04:13.000Z</time>
      </trkpt>
      <trkpt lat="47.48214" lon="6.69131">
        <ele>354</ele>
        <time>2015-12-20T10:04:14.000Z</time>
      </trkpt>
      <trkpt lat="47.48212" lon="6.69129">
        <ele>354</ele>
        <time>2015-12-20T10:04:15.000Z</time>
      </trkpt>
      <trkpt lat="47.48209" lon="6.69124">
        <ele>354</ele>
        <time>2015-12-20T10:04:17.000Z</time>
      </trkpt>
      <trkpt lat="47.48207" lon="6.69121">
        <ele>354</ele>
        <time>2015-12-20T10:04:18.000Z</time>
      </trkpt>
      <trkpt lat="47.48205" lon="6.69117">
        <ele>354</ele>
        <time>2015-12-20T10:04:19.000Z</time>
      </trkpt>
      <trkpt lat="47.48203" lon="6.69112">
        <ele>354</ele>
        <time>2015-12-20T10:04:20.000Z</time>
      </trkpt>
      <trkpt lat="47.48203" lon="6.69106">
        <ele>354</ele>
        <time>2015-12-20T10:04:21.000Z</time>
      </trkpt>
      <trkpt lat="47.48203" lon="6.691">
        <ele>354</ele>
        <time>2015-12-20T10:04:22.000Z</time>
      </trkpt>
      <trkpt lat="47.48204" lon="6.69095">
        <ele>354</ele>
        <time>2015-12-20T10:04:23.000Z</time>
      </trkpt>
      <trkpt lat="47.48205" lon="6.69088">
        <ele>354</ele>
        <time>2015-12-20T10:04:24.000Z</time>
      </trkpt>
      <trkpt lat="47.48206" lon="6.69083">
        <ele>354</ele>
        <time>2015-12-20T10:04:25.000Z</time>
      </trkpt>
      <trkpt lat="47.48207" lon="6.69077">
        <ele>354</ele>
        <time>2015-12-20T10:04:26.000Z</time>
      </trkpt>
      <trkpt lat="47.48209" lon="6.69071">
        <ele>355</ele>
        <time>2015-12-20T10:04:27.000Z</time>
      </trkpt>
      <trkpt lat="47.48212" lon="6.69067">
        <ele>355</ele>
        <time>2015-12-20T10:04:28.000Z</time>
      </trkpt>
      <trkpt lat="47.48216" lon="6.69064">
        <ele>355</ele>
        <time>2015-12-20T10:04:29.000Z</time>
      </trkpt>
      <trkpt lat="47.48219" lon="6.69061">
        <ele>355</ele>
        <time>2015-12-20T10:04:30.000Z</time>
      </trkpt>
      <trkpt lat="47.48223" lon="6.69058">
        <ele>355</ele>
        <time>2015-12-20T10:04:31.000Z</time>
      </trkpt>
      <trkpt lat="47.48226" lon="6.69054">
        <ele>355</ele>
        <time>2015-12-20T10:04:32.000Z</time>
      </trkpt>
      <trkpt lat="47.48229" lon="6.6905">
        <ele>355</ele>
        <time>2015-12-20T10:04:33.000Z</time>
      </trkpt>
      <trkpt lat="47.48231" lon="6.69047">
        <ele>355</ele>
        <time>2015-12-20T10:04:34.000Z</time>
      </trkpt>
      <trkpt lat="47.48233" lon="6.69043">
        <ele>355</ele>
        <time>2015-12-20T10:04:35.000Z</time>
      </trkpt>
      <trkpt lat="47.48235" lon="6.69041">
        <ele>355</ele>
        <time>2015-12-20T10:04:36.000Z</time>
      </trkpt>
      <trkpt lat="47.48238" lon="6.69038">
        <ele>355</ele>
        <time>2015-12-20T10:04:37.000Z</time>
      </trkpt>
      <trkpt lat="47.4824" lon="6.69034">
        <ele>355</ele>
        <time>2015-12-20T10:04:38.000Z</time>
      </trkpt>
      <trkpt lat="47.48243" lon="6.6903">
        <ele>355</ele>
        <time>2015-12-20T10:04:39.000Z</time>
      </trkpt>
      <trkpt lat="47.48246" lon="6.69027">
        <ele>355</ele>
        <time>2015-12-20T10:04:40.000Z</time>
      </trkpt>
      <trkpt lat="47.48249" lon="6.69022">
        <ele>356</ele>
        <time>2015-12-20T10:04:41.000Z</time>
      </trkpt>
      <trkpt lat="47.48252" lon="6.69018">
        <ele>357</ele>
        <time>2015-12-20T10:04:42.000Z</time>
      </trkpt>
      <trkpt lat="47.48255" lon="6.69013">
        <ele>357</ele>
        <time>2015-12-20T10:04:43.000Z</time>
      </trkpt>
      <trkpt lat="47.48257" lon="6.69009">
        <ele>357</ele>
        <time>2015-12-20T10:04:44.000Z</time>
      </trkpt>
      <trkpt lat="47.4826" lon="6.69006">
        <ele>357</ele>
        <time>2015-12-20T10:04:45.000Z</time>
      </trkpt>
      <trkpt lat="47.48263" lon="6.69005">
        <ele>357</ele>
        <time>2015-12-20T10:04:46.000Z</time>
      </trkpt>
      <trkpt lat="47.48267" lon="6.69005">
        <ele>357</ele>
        <time>2015-12-20T10:04:47.000Z</time>
      </trkpt>
      <trkpt lat="47.4827" lon="6.69006">
        <ele>357</ele>
        <time>2015-12-20T10:04:48.000Z</time>
      </trkpt>
      <trkpt lat="47.48275" lon="6.69007">
        <ele>357</ele>
        <time>2015-12-20T10:04:49.000Z</time>
      </trkpt>
      <trkpt lat="47.48279" lon="6.69008">
        <ele>357</ele>
        <time>2015-12-20T10:04:50.000Z</time>
      </trkpt>
      <trkpt lat="47.48283" lon="6.69008">
        <ele>357</ele>
        <time>2015-12-20T10:04:51.000Z</time>
      </trkpt>
      <trkpt lat="47.48288" lon="6.69008">
        <ele>357</ele>
        <time>2015-12-20T10:04:52.000Z</time>
      </trkpt>
      <trkpt lat="47.48292" lon="6.69009">
        <ele>357</ele>
        <time>2015-12-20T10:04:53.000Z</time>
      </trkpt>
      <trkpt lat="47.48296" lon="6.69009">
        <ele>357</ele>
        <time>2015-12-20T10:04:54.000Z</time>
      </trkpt>
      <trkpt lat="47.483" lon="6.69009">
        <ele>357</ele>
        <time>2015-12-20T10:04:55.000Z</time>
      </trkpt>
      <trkpt lat="47.48304" lon="6.69009">
        <ele>357</ele>
        <time>2015-12-20T10:04:56.000Z</time>
      </trkpt>
      <trkpt lat="47.48308" lon="6.69009">
        <ele>357</ele>
        <time>2015-12-20T10:04:57.000Z</time>
      </trkpt>
      <trkpt lat="47.48313" lon="6.69009">
        <ele>357</ele>
        <time>2015-12-20T10:04:58.000Z</time>
      </trkpt>
      <trkpt lat="47.48317" lon="6.6901">
        <ele>356</ele>
        <time>2015-12-20T10:04:59.000Z</time>
      </trkpt>
      <trkpt lat="47.48322" lon="6.6901">
        <ele>356</ele>
        <time>2015-12-20T10:05:00.000Z</time>
      </trkpt>
      <trkpt lat="47.48326" lon="6.6901">
        <ele>356</ele>
        <time>2015-12-20T10:05:01.000Z</time>
      </trkpt>
      <trkpt lat="47.4833" lon="6.69011">
        <ele>356</ele>
        <time>2015-12-20T10:05:02.000Z</time>
      </trkpt>
      <trkpt lat="47.48334" lon="6.69012">
        <ele>357</ele>
        <time>2015-12-20T10:05:03.000Z</time>
      </trkpt>
      <trkpt lat="47.48338" lon="6.69013">
        <ele>358</ele>
        <time>2015-12-20T10:05:04.000Z</time>
      </trkpt>
      <trkpt lat="47.48343" lon="6.69015">
        <ele>358</ele>
        <time>2015-12-20T10:05:05.000Z</time>
      </trkpt>
      <trkpt lat="47.48347" lon="6.69016">
        <ele>359</ele>
        <time>2015-12-20T10:05:06.000Z</time>
      </trkpt>
      <trkpt lat="47.48351" lon="6.69016">
        <ele>359</ele>
        <time>2015-12-20T10:05:07.000Z</time>
      </trkpt>
      <trkpt lat="47.48355" lon="6.69016">
        <ele>359</ele>
        <time>2015-12-20T10:05:08.000Z</time>
      </trkpt>
      <trkpt lat="47.48359" lon="6.69016">
        <ele>360</ele>
        <time>2015-12-20T10:05:09.000Z</time>
      </trkpt>
      <trkpt lat="47.48363" lon="6.69015">
        <ele>360</ele>
        <time>2015-12-20T10:05:10.000Z</time>
      </trkpt>
      <trkpt lat="47.48367" lon="6.69014">
        <ele>360</ele>
        <time>2015-12-20T10:05:11.000Z</time>
      </trkpt>
      <trkpt lat="47.48371" lon="6.69012">
        <ele>360</ele>
        <time>2015-12-20T10:05:12.000Z</time>
      </trkpt>
      <trkpt lat="47.48375" lon="6.6901">
        <ele>360</ele>
        <time>2015-12-20T10:05:13.000Z</time>
      </trkpt>
      <trkpt lat="47.48379" lon="6.69007">
        <ele>360</ele>
        <time>2015-12-20T10:05:14.000Z</time>
      </trkpt>
      <trkpt lat="47.4838" lon="6.68998">
        <ele>356</ele>
        <time>2015-12-20T10:05:15.000Z</time>
      </trkpt>
      <trkpt lat="47.48383" lon="6.68994">
        <ele>356</ele>
        <time>2015-12-20T10:05:16.000Z</time>
      </trkpt>
      <trkpt lat="47.48386" lon="6.68989">
        <ele>356</ele>
        <time>2015-12-20T10:05:17.000Z</time>
      </trkpt>
      <trkpt lat="47.48389" lon="6.68983">
        <ele>356</ele>
        <time>2015-12-20T10:05:18.000Z</time>
      </trkpt>
      <trkpt lat="47.48391" lon="6.68976">
        <ele>356</ele>
        <time>2015-12-20T10:05:19.000Z</time>
      </trkpt>
      <trkpt lat="47.48393" lon="6.6897">
        <ele>355</ele>
        <time>2015-12-20T10:05:20.000Z</time>
      </trkpt>
      <trkpt lat="47.48395" lon="6.68965">
        <ele>355</ele>
        <time>2015-12-20T10:05:21.000Z</time>
      </trkpt>
      <trkpt lat="47.48397" lon="6.68959">
        <ele>355</ele>
        <time>2015-12-20T10:05:22.000Z</time>
      </trkpt>
      <trkpt lat="47.484" lon="6.68953">
        <ele>354</ele>
        <time>2015-12-20T10:05:23.000Z</time>
      </trkpt>
      <trkpt lat="47.48402" lon="6.68948">
        <ele>354</ele>
        <time>2015-12-20T10:05:24.000Z</time>
      </trkpt>
      <trkpt lat="47.48405" lon="6.68942">
        <ele>354</ele>
        <time>2015-12-20T10:05:25.000Z</time>
      </trkpt>
      <trkpt lat="47.48407" lon="6.68936">
        <ele>353</ele>
        <time>2015-12-20T10:05:26.000Z</time>
      </trkpt>
      <trkpt lat="47.4841" lon="6.6893">
        <ele>353</ele>
        <time>2015-12-20T10:05:27.000Z</time>
      </trkpt>
      <trkpt lat="47.48412" lon="6.68925">
        <ele>353</ele>
        <time>2015-12-20T10:05:28.000Z</time>
      </trkpt>
      <trkpt lat="47.48415" lon="6.68918">
        <ele>352</ele>
        <time>2015-12-20T10:05:29.000Z</time>
      </trkpt>
      <trkpt lat="47.48417" lon="6.68912">
        <ele>352</ele>
        <time>2015-12-20T10:05:30.000Z</time>
      </trkpt>
      <trkpt lat="47.4842" lon="6.68906">
        <ele>351</ele>
        <time>2015-12-20T10:05:31.000Z</time>
      </trkpt>
      <trkpt lat="47.48423" lon="6.68899">
        <ele>351</ele>
        <time>2015-12-20T10:05:32.000Z</time>
      </trkpt>
      <trkpt lat="47.48425" lon="6.68892">
        <ele>351</ele>
        <time>2015-12-20T10:05:33.000Z</time>
      </trkpt>
      <trkpt lat="47.48428" lon="6.68885">
        <ele>351</ele>
        <time>2015-12-20T10:05:34.000Z</time>
      </trkpt>
      <trkpt lat="47.48431" lon="6.68878">
        <ele>351</ele>
        <time>2015-12-20T10:05:35.000Z</time>
      </trkpt>
      <trkpt lat="47.48433" lon="6.6887">
        <ele>351</ele>
        <time>2015-12-20T10:05:36.000Z</time>
      </trkpt>
      <trkpt lat="47.48435" lon="6.68863">
        <ele>350</ele>
        <time>2015-12-20T10:05:37.000Z</time>
      </trkpt>
      <trkpt lat="47.48437" lon="6.68856">
        <ele>350</ele>
        <time>2015-12-20T10:05:38.000Z</time>
      </trkpt>
      <trkpt lat="47.4844" lon="6.68848">
        <ele>350</ele>
        <time>2015-12-20T10:05:39.000Z</time>
      </trkpt>
      <trkpt lat="47.48442" lon="6.68838">
        <ele>350</ele>
        <time>2015-12-20T10:05:40.000Z</time>
      </trkpt>
      <trkpt lat="47.48444" lon="6.68831">
        <ele>348</ele>
        <time>2015-12-20T10:05:41.000Z</time>
      </trkpt>
      <trkpt lat="47.48445" lon="6.68823">
        <ele>348</ele>
        <time>2015-12-20T10:05:42.000Z</time>
      </trkpt>
      <trkpt lat="47.48448" lon="6.68815">
        <ele>348</ele>
        <time>2015-12-20T10:05:43.000Z</time>
      </trkpt>
      <trkpt lat="47.48451" lon="6.68805">
        <ele>347</ele>
        <time>2015-12-20T10:05:44.000Z</time>
      </trkpt>
      <trkpt lat="47.48453" lon="6.68796">
        <ele>347</ele>
        <time>2015-12-20T10:05:45.000Z</time>
      </trkpt>
      <trkpt lat="47.48455" lon="6.68789">
        <ele>347</ele>
        <time>2015-12-20T10:05:46.000Z</time>
      </trkpt>
      <trkpt lat="47.48456" lon="6.68779">
        <ele>347</ele>
        <time>2015-12-20T10:05:47.000Z</time>
      </trkpt>
      <trkpt lat="47.48458" lon="6.68773">
        <ele>346</ele>
        <time>2015-12-20T10:05:48.000Z</time>
      </trkpt>
      <trkpt lat="47.48463" lon="6.68767">
        <ele>346</ele>
        <time>2015-12-20T10:05:49.000Z</time>
      </trkpt>
      <trkpt lat="47.48467" lon="6.68761">
        <ele>346</ele>
        <time>2015-12-20T10:05:50.000Z</time>
      </trkpt>
      <trkpt lat="47.48475" lon="6.68763">
        <ele>346</ele>
        <time>2015-12-20T10:05:51.000Z</time>
      </trkpt>
      <trkpt lat="47.4848" lon="6.68761">
        <ele>346</ele>
        <time>2015-12-20T10:05:52.000Z</time>
      </trkpt>
      <trkpt lat="47.48485" lon="6.68757">
        <ele>345</ele>
        <time>2015-12-20T10:05:53.000Z</time>
      </trkpt>
      <trkpt lat="47.48491" lon="6.68748">
        <ele>343</ele>
        <time>2015-12-20T10:05:54.000Z</time>
      </trkpt>
      <trkpt lat="47.48495" lon="6.68742">
        <ele>343</ele>
        <time>2015-12-20T10:05:55.000Z</time>
      </trkpt>
      <trkpt lat="47.48497" lon="6.68733">
        <ele>343</ele>
        <time>2015-12-20T10:05:56.000Z</time>
      </trkpt>
      <trkpt lat="47.48499" lon="6.68728">
        <ele>342</ele>
        <time>2015-12-20T10:05:57.000Z</time>
      </trkpt>
      <trkpt lat="47.48501" lon="6.68723">
        <ele>342</ele>
        <time>2015-12-20T10:05:58.000Z</time>
      </trkpt>
      <trkpt lat="47.48504" lon="6.68718">
        <ele>342</ele>
        <time>2015-12-20T10:05:59.000Z</time>
      </trkpt>
      <trkpt lat="47.48504" lon="6.68712">
        <ele>342</ele>
        <time>2015-12-20T10:06:01.000Z</time>
      </trkpt>
      <trkpt lat="47.48504" lon="6.68709">
        <ele>342</ele>
        <time>2015-12-20T10:06:02.000Z</time>
      </trkpt>
      <trkpt lat="47.48504" lon="6.68705">
        <ele>341</ele>
        <time>2015-12-20T10:06:04.000Z</time>
      </trkpt>
      <trkpt lat="47.48504" lon="6.68702">
        <ele>341</ele>
        <time>2015-12-20T10:06:05.000Z</time>
      </trkpt>
      <trkpt lat="47.48504" lon="6.68698">
        <ele>341</ele>
        <time>2015-12-20T10:06:07.000Z</time>
      </trkpt>
      <trkpt lat="47.48505" lon="6.68695">
        <ele>341</ele>
        <time>2015-12-20T10:06:08.000Z</time>
      </trkpt>
      <trkpt lat="47.48506" lon="6.68693">
        <ele>341</ele>
        <time>2015-12-20T10:06:09.000Z</time>
      </trkpt>
      <trkpt lat="47.48508" lon="6.6869">
        <ele>341</ele>
        <time>2015-12-20T10:06:10.000Z</time>
      </trkpt>
      <trkpt lat="47.4852" lon="6.68683">
        <ele>341</ele>
        <time>2015-12-20T10:06:11.000Z</time>
      </trkpt>
      <trkpt lat="47.48526" lon="6.68679">
        <ele>341</ele>
        <time>2015-12-20T10:06:12.000Z</time>
      </trkpt>
      <trkpt lat="47.48532" lon="6.68678">
        <ele>341</ele>
        <time>2015-12-20T10:06:13.000Z</time>
      </trkpt>
      <trkpt lat="47.48537" lon="6.68677">
        <ele>341</ele>
        <time>2015-12-20T10:06:14.000Z</time>
      </trkpt>
      <trkpt lat="47.48541" lon="6.68679">
        <ele>342</ele>
        <time>2015-12-20T10:06:15.000Z</time>
      </trkpt>
      <trkpt lat="47.48545" lon="6.68679">
        <ele>342</ele>
        <time>2015-12-20T10:06:16.000Z</time>
      </trkpt>
      <trkpt lat="47.48548" lon="6.68677">
        <ele>342</ele>
        <time>2015-12-20T10:06:17.000Z</time>
      </trkpt>
      <trkpt lat="47.4855" lon="6.68675">
        <ele>342</ele>
        <time>2015-12-20T10:06:18.000Z</time>
      </trkpt>
      <trkpt lat="47.48553" lon="6.68671">
        <ele>342</ele>
        <time>2015-12-20T10:06:20.000Z</time>
      </trkpt>
      <trkpt lat="47.48554" lon="6.68669">
        <ele>342</ele>
        <time>2015-12-20T10:06:21.000Z</time>
      </trkpt>
      <trkpt lat="47.48556" lon="6.68667">
        <ele>342</ele>
        <time>2015-12-20T10:06:22.000Z</time>
      </trkpt>
      <trkpt lat="47.48556" lon="6.68663">
        <ele>342</ele>
        <time>2015-12-20T10:06:23.000Z</time>
      </trkpt>
      <trkpt lat="47.48558" lon="6.68661">
        <ele>342</ele>
        <time>2015-12-20T10:06:24.000Z</time>
      </trkpt>
      <trkpt lat="47.48559" lon="6.68657">
        <ele>342</ele>
        <time>2015-12-20T10:06:25.000Z</time>
      </trkpt>
      <trkpt lat="47.4856" lon="6.68654">
        <ele>342</ele>
        <time>2015-12-20T10:06:26.000Z</time>
      </trkpt>
      <trkpt lat="47.48561" lon="6.68651">
        <ele>342</ele>
        <time>2015-12-20T10:06:27.000Z</time>
      </trkpt>
      <trkpt lat="47.48563" lon="6.68646">
        <ele>342</ele>
        <time>2015-12-20T10:06:29.000Z</time>
      </trkpt>
      <trkpt lat="47.48563" lon="6.68644">
        <ele>342</ele>
        <time>2015-12-20T10:06:29.999Z</time>
      </trkpt>
      <trkpt lat="47.48565" lon="6.68638">
        <ele>343</ele>
        <time>2015-12-20T10:06:32.000Z</time>
      </trkpt>
      <trkpt lat="47.48565" lon="6.68635">
        <ele>343</ele>
        <time>2015-12-20T10:06:33.000Z</time>
      </trkpt>
      <trkpt lat="47.48565" lon="6.68629">
        <ele>343</ele>
        <time>2015-12-20T10:06:34.999Z</time>
      </trkpt>
      <trkpt lat="47.48564" lon="6.68625">
        <ele>343</ele>
        <time>2015-12-20T10:06:36.000Z</time>
      </trkpt>
      <trkpt lat="47.48566" lon="6.68621">
        <ele>343</ele>
        <time>2015-12-20T10:06:38.000Z</time>
      </trkpt>
      <trkpt lat="47.48566" lon="6.68619">
        <ele>343</ele>
        <time>2015-12-20T10:06:39.000Z</time>
      </trkpt>
      <trkpt lat="47.4857" lon="6.68619">
        <ele>343</ele>
        <time>2015-12-20T10:06:41.000Z</time>
      </trkpt>
      <trkpt lat="47.48572" lon="6.68617">
        <ele>343</ele>
        <time>2015-12-20T10:06:42.000Z</time>
      </trkpt>
      <trkpt lat="47.48574" lon="6.68614">
        <ele>343</ele>
        <time>2015-12-20T10:06:43.999Z</time>
      </trkpt>
      <trkpt lat="47.48575" lon="6.6861">
        <ele>344</ele>
        <time>2015-12-20T10:06:45.000Z</time>
      </trkpt>
      <trkpt lat="47.48578" lon="6.68606">
        <ele>344</ele>
        <time>2015-12-20T10:06:47.000Z</time>
      </trkpt>
      <trkpt lat="47.48579" lon="6.68605">
        <ele>344</ele>
        <time>2015-12-20T10:06:48.000Z</time>
      </trkpt>
      <trkpt lat="47.4858" lon="6.686">
        <ele>344</ele>
        <time>2015-12-20T10:06:51.000Z</time>
      </trkpt>
      <trkpt lat="47.48581" lon="6.68597">
        <ele>344</ele>
        <time>2015-12-20T10:06:52.000Z</time>
      </trkpt>
      <trkpt lat="47.48582" lon="6.68592">
        <ele>345</ele>
        <time>2015-12-20T10:06:55.000Z</time>
      </trkpt>
      <trkpt lat="47.48582" lon="6.6859">
        <ele>345</ele>
        <time>2015-12-20T10:06:56.000Z</time>
      </trkpt>
      <trkpt lat="47.48583" lon="6.68583">
        <ele>346</ele>
        <time>2015-12-20T10:07:00.000Z</time>
      </trkpt>
      <trkpt lat="47.48582" lon="6.68582">
        <ele>346</ele>
        <time>2015-12-20T10:07:01.000Z</time>
      </trkpt>
      <trkpt lat="47.4858" lon="6.68578">
        <ele>346</ele>
        <time>2015-12-20T10:07:06.000Z</time>
      </trkpt>
      <trkpt lat="47.4858" lon="6.68576">
        <ele>346</ele>
        <time>2015-12-20T10:07:07.000Z</time>
      </trkpt>
      <trkpt lat="47.4858" lon="6.68572">
        <ele>346</ele>
        <time>2015-12-20T10:07:09.000Z</time>
      </trkpt>
      <trkpt lat="47.48581" lon="6.68569">
        <ele>346</ele>
        <time>2015-12-20T10:07:10.000Z</time>
      </trkpt>
      <trkpt lat="47.48582" lon="6.68563">
        <ele>346</ele>
        <time>2015-12-20T10:07:12.000Z</time>
      </trkpt>
      <trkpt lat="47.48582" lon="6.6856">
        <ele>347</ele>
        <time>2015-12-20T10:07:13.000Z</time>
      </trkpt>
      <trkpt lat="47.48582" lon="6.68556">
        <ele>347</ele>
        <time>2015-12-20T10:07:14.000Z</time>
      </trkpt>
      <trkpt lat="47.48582" lon="6.68553">
        <ele>347</ele>
        <time>2015-12-20T10:07:15.000Z</time>
      </trkpt>
      <trkpt lat="47.48582" lon="6.68549">
        <ele>347</ele>
        <time>2015-12-20T10:07:16.000Z</time>
      </trkpt>
      <trkpt lat="47.48582" lon="6.68546">
        <ele>347</ele>
        <time>2015-12-20T10:07:17.000Z</time>
      </trkpt>
      <trkpt lat="47.48583" lon="6.68542">
        <ele>347</ele>
        <time>2015-12-20T10:07:18.000Z</time>
      </trkpt>
      <trkpt lat="47.48583" lon="6.68538">
        <ele>347</ele>
        <time>2015-12-20T10:07:19.000Z</time>
      </trkpt>
      <trkpt lat="47.48584" lon="6.68533">
        <ele>348</ele>
        <time>2015-12-20T10:07:21.000Z</time>
      </trkpt>
      <trkpt lat="47.48584" lon="6.68531">
        <ele>348</ele>
        <time>2015-12-20T10:07:22.000Z</time>
      </trkpt>
      <trkpt lat="47.48584" lon="6.68528">
        <ele>348</ele>
        <time>2015-12-20T10:07:23.000Z</time>
      </trkpt>
      <trkpt lat="47.48585" lon="6.68525">
        <ele>348</ele>
        <time>2015-12-20T10:07:24.000Z</time>
      </trkpt>
      <trkpt lat="47.48586" lon="6.68521">
        <ele>348</ele>
        <time>2015-12-20T10:07:25.000Z</time>
      </trkpt>
      <trkpt lat="47.48587" lon="6.68517">
        <ele>348</ele>
        <time>2015-12-20T10:07:26.000Z</time>
      </trkpt>
      <trkpt lat="47.48589" lon="6.68514">
        <ele>348</ele>
        <time>2015-12-20T10:07:27.000Z</time>
      </trkpt>
      <trkpt lat="47.4859" lon="6.68512">
        <ele>349</ele>
        <time>2015-12-20T10:07:27.999Z</time>
      </trkpt>
      <trkpt lat="47.48592" lon="6.68508">
        <ele>349</ele>
        <time>2015-12-20T10:07:28.999Z</time>
      </trkpt>
      <trkpt lat="47.48596" lon="6.68504">
        <ele>349</ele>
        <time>2015-12-20T10:07:30.001Z</time>
      </trkpt>
      <trkpt lat="47.48598" lon="6.68501">
        <ele>349</ele>
        <time>2015-12-20T10:07:31.000Z</time>
      </trkpt>
      <trkpt lat="47.486" lon="6.68498">
        <ele>349</ele>
        <time>2015-12-20T10:07:32.000Z</time>
      </trkpt>
      <trkpt lat="47.48601" lon="6.68494">
        <ele>348</ele>
        <time>2015-12-20T10:07:33.000Z</time>
      </trkpt>
      <trkpt lat="47.48602" lon="6.6849">
        <ele>348</ele>
        <time>2015-12-20T10:07:34.000Z</time>
      </trkpt>
      <trkpt lat="47.48602" lon="6.68486">
        <ele>348</ele>
        <time>2015-12-20T10:07:35.000Z</time>
      </trkpt>
      <trkpt lat="47.48602" lon="6.68483">
        <ele>348</ele>
        <time>2015-12-20T10:07:36.000Z</time>
      </trkpt>
      <trkpt lat="47.48602" lon="6.68479">
        <ele>348</ele>
        <time>2015-12-20T10:07:37.000Z</time>
      </trkpt>
      <trkpt lat="47.48602" lon="6.68476">
        <ele>348</ele>
        <time>2015-12-20T10:07:37.999Z</time>
      </trkpt>
      <trkpt lat="47.48603" lon="6.68469">
        <ele>348</ele>
        <time>2015-12-20T10:07:40.000Z</time>
      </trkpt>
      <trkpt lat="47.48603" lon="6.68466">
        <ele>348</ele>
        <time>2015-12-20T10:07:40.999Z</time>
      </trkpt>
      <trkpt lat="47.48603" lon="6.68462">
        <ele>348</ele>
        <time>2015-12-20T10:07:42.000Z</time>
      </trkpt>
      <trkpt lat="47.48604" lon="6.68458">
        <ele>348</ele>
        <time>2015-12-20T10:07:43.000Z</time>
      </trkpt>
      <trkpt lat="47.48604" lon="6.68454">
        <ele>348</ele>
        <time>2015-12-20T10:07:44.000Z</time>
      </trkpt>
      <trkpt lat="47.48605" lon="6.6845">
        <ele>348</ele>
        <time>2015-12-20T10:07:45.000Z</time>
      </trkpt>
      <trkpt lat="47.48606" lon="6.68445">
        <ele>348</ele>
        <time>2015-12-20T10:07:47.000Z</time>
      </trkpt>
      <trkpt lat="47.48607" lon="6.68444">
        <ele>348</ele>
        <time>2015-12-20T10:07:48.000Z</time>
      </trkpt>
      <trkpt lat="47.48611" lon="6.68442">
        <ele>348</ele>
        <time>2015-12-20T10:07:52.000Z</time>
      </trkpt>
      <trkpt lat="47.48612" lon="6.68439">
        <ele>348</ele>
        <time>2015-12-20T10:07:53.000Z</time>
      </trkpt>
      <trkpt lat="47.48613" lon="6.68438">
        <ele>348</ele>
        <time>2015-12-20T10:07:54.000Z</time>
      </trkpt>
      <trkpt lat="47.48615" lon="6.68432">
        <ele>348</ele>
        <time>2015-12-20T10:07:55.000Z</time>
      </trkpt>
      <trkpt lat="47.48617" lon="6.68428">
        <ele>348</ele>
        <time>2015-12-20T10:07:56.000Z</time>
      </trkpt>
      <trkpt lat="47.48619" lon="6.68426">
        <ele>348</ele>
        <time>2015-12-20T10:07:57.000Z</time>
      </trkpt>
      <trkpt lat="47.48621" lon="6.68421">
        <ele>348</ele>
        <time>2015-12-20T10:07:59.000Z</time>
      </trkpt>
      <trkpt lat="47.48622" lon="6.68418">
        <ele>348</ele>
        <time>2015-12-20T10:08:00.000Z</time>
      </trkpt>
      <trkpt lat="47.48623" lon="6.68414">
        <ele>347</ele>
        <time>2015-12-20T10:08:01.000Z</time>
      </trkpt>
      <trkpt lat="47.48624" lon="6.6841">
        <ele>347</ele>
        <time>2015-12-20T10:08:02.000Z</time>
      </trkpt>
      <trkpt lat="47.48626" lon="6.68405">
        <ele>347</ele>
        <time>2015-12-20T10:08:03.000Z</time>
      </trkpt>
      <trkpt lat="47.48627" lon="6.68401">
        <ele>347</ele>
        <time>2015-12-20T10:08:04.000Z</time>
      </trkpt>
      <trkpt lat="47.48629" lon="6.68396">
        <ele>347</ele>
        <time>2015-12-20T10:08:05.000Z</time>
      </trkpt>
      <trkpt lat="47.4863" lon="6.68392">
        <ele>347</ele>
        <time>2015-12-20T10:08:06.000Z</time>
      </trkpt>
      <trkpt lat="47.48631" lon="6.68388">
        <ele>347</ele>
        <time>2015-12-20T10:08:07.000Z</time>
      </trkpt>
      <trkpt lat="47.48632" lon="6.68383">
        <ele>347</ele>
        <time>2015-12-20T10:08:08.000Z</time>
      </trkpt>
      <trkpt lat="47.48633" lon="6.68377">
        <ele>347</ele>
        <time>2015-12-20T10:08:09.000Z</time>
      </trkpt>
      <trkpt lat="47.48634" lon="6.68372">
        <ele>347</ele>
        <time>2015-12-20T10:08:10.000Z</time>
      </trkpt>
      <trkpt lat="47.48636" lon="6.68368">
        <ele>347</ele>
        <time>2015-12-20T10:08:11.000Z</time>
      </trkpt>
      <trkpt lat="47.48637" lon="6.68364">
        <ele>347</ele>
        <time>2015-12-20T10:08:11.999Z</time>
      </trkpt>
      <trkpt lat="47.48639" lon="6.68359">
        <ele>347</ele>
        <time>2015-12-20T10:08:13.000Z</time>
      </trkpt>
      <trkpt lat="47.48641" lon="6.68356">
        <ele>347</ele>
        <time>2015-12-20T10:08:14.000Z</time>
      </trkpt>
      <trkpt lat="47.48644" lon="6.68352">
        <ele>347</ele>
        <time>2015-12-20T10:08:16.000Z</time>
      </trkpt>
      <trkpt lat="47.48645" lon="6.68349">
        <ele>347</ele>
        <time>2015-12-20T10:08:17.000Z</time>
      </trkpt>
      <trkpt lat="47.48646" lon="6.68346">
        <ele>347</ele>
        <time>2015-12-20T10:08:18.000Z</time>
      </trkpt>
      <trkpt lat="47.48647" lon="6.68343">
        <ele>348</ele>
        <time>2015-12-20T10:08:19.000Z</time>
      </trkpt>
      <trkpt lat="47.4865" lon="6.68339">
        <ele>348</ele>
        <time>2015-12-20T10:08:21.000Z</time>
      </trkpt>
      <trkpt lat="47.48652" lon="6.68339">
        <ele>348</ele>
        <time>2015-12-20T10:08:22.000Z</time>
      </trkpt>
      <trkpt lat="47.48655" lon="6.68341">
        <ele>348</ele>
        <time>2015-12-20T10:08:24.000Z</time>
      </trkpt>
      <trkpt lat="47.48656" lon="6.68343">
        <ele>348</ele>
        <time>2015-12-20T10:08:25.000Z</time>
      </trkpt>
      <trkpt lat="47.48657" lon="6.68349">
        <ele>348</ele>
        <time>2015-12-20T10:08:29.000Z</time>
      </trkpt>
      <trkpt lat="47.48658" lon="6.68351">
        <ele>348</ele>
        <time>2015-12-20T10:08:30.000Z</time>
      </trkpt>
      <trkpt lat="47.48661" lon="6.68356">
        <ele>348</ele>
        <time>2015-12-20T10:08:32.000Z</time>
      </trkpt>
      <trkpt lat="47.48663" lon="6.68358">
        <ele>348</ele>
        <time>2015-12-20T10:08:33.000Z</time>
      </trkpt>
      <trkpt lat="47.48665" lon="6.68361">
        <ele>348</ele>
        <time>2015-12-20T10:08:34.000Z</time>
      </trkpt>
      <trkpt lat="47.48667" lon="6.68364">
        <ele>350</ele>
        <time>2015-12-20T10:08:35.000Z</time>
      </trkpt>
      <trkpt lat="47.48668" lon="6.68366">
        <ele>350</ele>
        <time>2015-12-20T10:08:36.000Z</time>
      </trkpt>
      <trkpt lat="47.48669" lon="6.68369">
        <ele>350</ele>
        <time>2015-12-20T10:08:37.001Z</time>
      </trkpt>
      <trkpt lat="47.48672" lon="6.68371">
        <ele>350</ele>
        <time>2015-12-20T10:08:38.000Z</time>
      </trkpt>
      <trkpt lat="47.48675" lon="6.68372">
        <ele>350</ele>
        <time>2015-12-20T10:08:39.000Z</time>
      </trkpt>
      <trkpt lat="47.48677" lon="6.68375">
        <ele>350</ele>
        <time>2015-12-20T10:08:39.999Z</time>
      </trkpt>
      <trkpt lat="47.48679" lon="6.68376">
        <ele>350</ele>
        <time>2015-12-20T10:08:41.000Z</time>
      </trkpt>
      <trkpt lat="47.48682" lon="6.68377">
        <ele>350</ele>
        <time>2015-12-20T10:08:43.000Z</time>
      </trkpt>
      <trkpt lat="47.48685" lon="6.68377">
        <ele>350</ele>
        <time>2015-12-20T10:08:44.000Z</time>
      </trkpt>
      <trkpt lat="47.48688" lon="6.68376">
        <ele>350</ele>
        <time>2015-12-20T10:08:45.000Z</time>
      </trkpt>
      <trkpt lat="47.48691" lon="6.68374">
        <ele>350</ele>
        <time>2015-12-20T10:08:46.000Z</time>
      </trkpt>
      <trkpt lat="47.48693" lon="6.68372">
        <ele>350</ele>
        <time>2015-12-20T10:08:47.000Z</time>
      </trkpt>
      <trkpt lat="47.48695" lon="6.6837">
        <ele>350</ele>
        <time>2015-12-20T10:08:48.000Z</time>
      </trkpt>
      <trkpt lat="47.48697" lon="6.68367">
        <ele>351</ele>
        <time>2015-12-20T10:08:49.000Z</time>
      </trkpt>
      <trkpt lat="47.48699" lon="6.68365">
        <ele>351</ele>
        <time>2015-12-20T10:08:50.000Z</time>
      </trkpt>
      <trkpt lat="47.48701" lon="6.68363">
        <ele>351</ele>
        <time>2015-12-20T10:08:51.000Z</time>
      </trkpt>
      <trkpt lat="47.48703" lon="6.6836">
        <ele>351</ele>
        <time>2015-12-20T10:08:52.000Z</time>
      </trkpt>
      <trkpt lat="47.48706" lon="6.68356">
        <ele>351</ele>
        <time>2015-12-20T10:08:54.000Z</time>
      </trkpt>
      <trkpt lat="47.48708" lon="6.68355">
        <ele>351</ele>
        <time>2015-12-20T10:08:55.000Z</time>
      </trkpt>
      <trkpt lat="47.48711" lon="6.68352">
        <ele>351</ele>
        <time>2015-12-20T10:08:57.000Z</time>
      </trkpt>
      <trkpt lat="47.48713" lon="6.68351">
        <ele>351</ele>
        <time>2015-12-20T10:08:58.000Z</time>
      </trkpt>
      <trkpt lat="47.48717" lon="6.68348">
        <ele>351</ele>
        <time>2015-12-20T10:09:00.000Z</time>
      </trkpt>
      <trkpt lat="47.48718" lon="6.68346">
        <ele>351</ele>
        <time>2015-12-20T10:09:01.000Z</time>
      </trkpt>
      <trkpt lat="47.4872" lon="6.68344">
        <ele>352</ele>
        <time>2015-12-20T10:09:03.000Z</time>
      </trkpt>
      <trkpt lat="47.48722" lon="6.68343">
        <ele>352</ele>
        <time>2015-12-20T10:09:04.000Z</time>
      </trkpt>
      <trkpt lat="47.48725" lon="6.68341">
        <ele>352</ele>
        <time>2015-12-20T10:09:06.000Z</time>
      </trkpt>
      <trkpt lat="47.48727" lon="6.6834">
        <ele>352</ele>
        <time>2015-12-20T10:09:07.000Z</time>
      </trkpt>
      <trkpt lat="47.4873" lon="6.6834">
        <ele>352</ele>
        <time>2015-12-20T10:09:08.000Z</time>
      </trkpt>
      <trkpt lat="47.48733" lon="6.68341">
        <ele>352</ele>
        <time>2015-12-20T10:09:09.000Z</time>
      </trkpt>
      <trkpt lat="47.48737" lon="6.6834">
        <ele>353</ele>
        <time>2015-12-20T10:09:11.000Z</time>
      </trkpt>
      <trkpt lat="47.48738" lon="6.68339">
        <ele>353</ele>
        <time>2015-12-20T10:09:12.000Z</time>
      </trkpt>
      <trkpt lat="47.48742" lon="6.68337">
        <ele>353</ele>
        <time>2015-12-20T10:09:16.000Z</time>
      </trkpt>
      <trkpt lat="47.48744" lon="6.68337">
        <ele>353</ele>
        <time>2015-12-20T10:09:16.999Z</time>
      </trkpt>
      <trkpt lat="47.48746" lon="6.68334">
        <ele>354</ele>
        <time>2015-12-20T10:09:20.000Z</time>
      </trkpt>
      <trkpt lat="47.48748" lon="6.68333">
        <ele>354</ele>
        <time>2015-12-20T10:09:21.000Z</time>
      </trkpt>
      <trkpt lat="47.48752" lon="6.68332">
        <ele>354</ele>
        <time>2015-12-20T10:09:23.000Z</time>
      </trkpt>
      <trkpt lat="47.48755" lon="6.68331">
        <ele>354</ele>
        <time>2015-12-20T10:09:24.000Z</time>
      </trkpt>
      <trkpt lat="47.48758" lon="6.68331">
        <ele>355</ele>
        <time>2015-12-20T10:09:25.000Z</time>
      </trkpt>
      <trkpt lat="47.48761" lon="6.6833">
        <ele>355</ele>
        <time>2015-12-20T10:09:26.000Z</time>
      </trkpt>
      <trkpt lat="47.48765" lon="6.6833">
        <ele>355</ele>
        <time>2015-12-20T10:09:27.000Z</time>
      </trkpt>
      <trkpt lat="47.48768" lon="6.6833">
        <ele>355</ele>
        <time>2015-12-20T10:09:28.000Z</time>
      </trkpt>
      <trkpt lat="47.48771" lon="6.68329">
        <ele>355</ele>
        <time>2015-12-20T10:09:29.000Z</time>
      </trkpt>
      <trkpt lat="47.48773" lon="6.68328">
        <ele>355</ele>
        <time>2015-12-20T10:09:30.000Z</time>
      </trkpt>
      <trkpt lat="47.48776" lon="6.68328">
        <ele>355</ele>
        <time>2015-12-20T10:09:31.000Z</time>
      </trkpt>
      <trkpt lat="47.48778" lon="6.68327">
        <ele>355</ele>
        <time>2015-12-20T10:09:32.000Z</time>
      </trkpt>
      <trkpt lat="47.48781" lon="6.68327">
        <ele>355</ele>
        <time>2015-12-20T10:09:33.000Z</time>
      </trkpt>
      <trkpt lat="47.48783" lon="6.68327">
        <ele>355</ele>
        <time>2015-12-20T10:09:34.000Z</time>
      </trkpt>
      <trkpt lat="47.48786" lon="6.68326">
        <ele>355</ele>
        <time>2015-12-20T10:09:35.000Z</time>
      </trkpt>
      <trkpt lat="47.48789" lon="6.68324">
        <ele>355</ele>
        <time>2015-12-20T10:09:36.000Z</time>
      </trkpt>
      <trkpt lat="47.48793" lon="6.68322">
        <ele>355</ele>
        <time>2015-12-20T10:09:37.000Z</time>
      </trkpt>
      <trkpt lat="47.48796" lon="6.6832">
        <ele>355</ele>
        <time>2015-12-20T10:09:38.000Z</time>
      </trkpt>
      <trkpt lat="47.48799" lon="6.68318">
        <ele>355</ele>
        <time>2015-12-20T10:09:39.000Z</time>
      </trkpt>
      <trkpt lat="47.48802" lon="6.68317">
        <ele>355</ele>
        <time>2015-12-20T10:09:40.000Z</time>
      </trkpt>
      <trkpt lat="47.48805" lon="6.68315">
        <ele>355</ele>
        <time>2015-12-20T10:09:41.000Z</time>
      </trkpt>
      <trkpt lat="47.48808" lon="6.68313">
        <ele>355</ele>
        <time>2015-12-20T10:09:42.000Z</time>
      </trkpt>
      <trkpt lat="47.48811" lon="6.68311">
        <ele>355</ele>
        <time>2015-12-20T10:09:43.000Z</time>
      </trkpt>
      <trkpt lat="47.48813" lon="6.68308">
        <ele>356</ele>
        <time>2015-12-20T10:09:44.000Z</time>
      </trkpt>
      <trkpt lat="47.48816" lon="6.68305">
        <ele>356</ele>
        <time>2015-12-20T10:09:45.000Z</time>
      </trkpt>
      <trkpt lat="47.48818" lon="6.68302">
        <ele>356</ele>
        <time>2015-12-20T10:09:46.000Z</time>
      </trkpt>
      <trkpt lat="47.48821" lon="6.68299">
        <ele>356</ele>
        <time>2015-12-20T10:09:47.000Z</time>
      </trkpt>
      <trkpt lat="47.48824" lon="6.68297">
        <ele>356</ele>
        <time>2015-12-20T10:09:48.002Z</time>
      </trkpt>
      <trkpt lat="47.48828" lon="6.68294">
        <ele>356</ele>
        <time>2015-12-20T10:09:49.000Z</time>
      </trkpt>
      <trkpt lat="47.4883" lon="6.68291">
        <ele>356</ele>
        <time>2015-12-20T10:09:50.000Z</time>
      </trkpt>
      <trkpt lat="47.48832" lon="6.68288">
        <ele>356</ele>
        <time>2015-12-20T10:09:51.000Z</time>
      </trkpt>
      <trkpt lat="47.48833" lon="6.68285">
        <ele>356</ele>
        <time>2015-12-20T10:09:52.000Z</time>
      </trkpt>
      <trkpt lat="47.48834" lon="6.68281">
        <ele>356</ele>
        <time>2015-12-20T10:09:53.000Z</time>
      </trkpt>
      <trkpt lat="47.48834" lon="6.68277">
        <ele>357</ele>
        <time>2015-12-20T10:09:54.000Z</time>
      </trkpt>
      <trkpt lat="47.48835" lon="6.68273">
        <ele>357</ele>
        <time>2015-12-20T10:09:55.000Z</time>
      </trkpt>
      <trkpt lat="47.48836" lon="6.68269">
        <ele>357</ele>
        <time>2015-12-20T10:09:56.000Z</time>
      </trkpt>
      <trkpt lat="47.48836" lon="6.68265">
        <ele>357</ele>
        <time>2015-12-20T10:09:57.000Z</time>
      </trkpt>
      <trkpt lat="47.48837" lon="6.68261">
        <ele>357</ele>
        <time>2015-12-20T10:09:58.000Z</time>
      </trkpt>
      <trkpt lat="47.48838" lon="6.68258">
        <ele>357</ele>
        <time>2015-12-20T10:09:59.000Z</time>
      </trkpt>
      <trkpt lat="47.48839" lon="6.68254">
        <ele>358</ele>
        <time>2015-12-20T10:10:00.000Z</time>
      </trkpt>
      <trkpt lat="47.4884" lon="6.6825">
        <ele>358</ele>
        <time>2015-12-20T10:10:01.000Z</time>
      </trkpt>
      <trkpt lat="47.48841" lon="6.68247">
        <ele>358</ele>
        <time>2015-12-20T10:10:02.000Z</time>
      </trkpt>
      <trkpt lat="47.48841" lon="6.68243">
        <ele>358</ele>
        <time>2015-12-20T10:10:03.000Z</time>
      </trkpt>
      <trkpt lat="47.48842" lon="6.6824">
        <ele>358</ele>
        <time>2015-12-20T10:10:04.000Z</time>
      </trkpt>
      <trkpt lat="47.48844" lon="6.68237">
        <ele>359</ele>
        <time>2015-12-20T10:10:05.000Z</time>
      </trkpt>
      <trkpt lat="47.48845" lon="6.68234">
        <ele>359</ele>
        <time>2015-12-20T10:10:06.000Z</time>
      </trkpt>
      <trkpt lat="47.48847" lon="6.68229">
        <ele>359</ele>
        <time>2015-12-20T10:10:08.000Z</time>
      </trkpt>
      <trkpt lat="47.48848" lon="6.68226">
        <ele>359</ele>
        <time>2015-12-20T10:10:09.000Z</time>
      </trkpt>
      <trkpt lat="47.4885" lon="6.68221">
        <ele>359</ele>
        <time>2015-12-20T10:10:11.000Z</time>
      </trkpt>
      <trkpt lat="47.4885" lon="6.6822">
        <ele>359</ele>
        <time>2015-12-20T10:10:12.000Z</time>
      </trkpt>
      <trkpt lat="47.48852" lon="6.68214">
        <ele>359</ele>
        <time>2015-12-20T10:10:15.000Z</time>
      </trkpt>
      <trkpt lat="47.48853" lon="6.68212">
        <ele>359</ele>
        <time>2015-12-20T10:10:16.000Z</time>
      </trkpt>
      <trkpt lat="47.48855" lon="6.68207">
        <ele>359</ele>
        <time>2015-12-20T10:10:18.000Z</time>
      </trkpt>
      <trkpt lat="47.48857" lon="6.68205">
        <ele>359</ele>
        <time>2015-12-20T10:10:19.000Z</time>
      </trkpt>
      <trkpt lat="47.48859" lon="6.68201">
        <ele>359</ele>
        <time>2015-12-20T10:10:20.000Z</time>
      </trkpt>
      <trkpt lat="47.48861" lon="6.68199">
        <ele>359</ele>
        <time>2015-12-20T10:10:21.000Z</time>
      </trkpt>
      <trkpt lat="47.48863" lon="6.68196">
        <ele>359</ele>
        <time>2015-12-20T10:10:22.000Z</time>
      </trkpt>
      <trkpt lat="47.48864" lon="6.68193">
        <ele>359</ele>
        <time>2015-12-20T10:10:23.000Z</time>
      </trkpt>
      <trkpt lat="47.48866" lon="6.68191">
        <ele>359</ele>
        <time>2015-12-20T10:10:24.000Z</time>
      </trkpt>
      <trkpt lat="47.48868" lon="6.68189">
        <ele>359</ele>
        <time>2015-12-20T10:10:25.000Z</time>
      </trkpt>
      <trkpt lat="47.48869" lon="6.68186">
        <ele>359</ele>
        <time>2015-12-20T10:10:26.000Z</time>
      </trkpt>
      <trkpt lat="47.48871" lon="6.68184">
        <ele>359</ele>
        <time>2015-12-20T10:10:27.000Z</time>
      </trkpt>
      <trkpt lat="47.48872" lon="6.68181">
        <ele>359</ele>
        <time>2015-12-20T10:10:28.000Z</time>
      </trkpt>
      <trkpt lat="47.48874" lon="6.68178">
        <ele>359</ele>
        <time>2015-12-20T10:10:29.000Z</time>
      </trkpt>
      <trkpt lat="47.48876" lon="6.68176">
        <ele>359</ele>
        <time>2015-12-20T10:10:30.000Z</time>
      </trkpt>
      <trkpt lat="47.48877" lon="6.68173">
        <ele>359</ele>
        <time>2015-12-20T10:10:31.000Z</time>
      </trkpt>
      <trkpt lat="47.48879" lon="6.6817">
        <ele>359</ele>
        <time>2015-12-20T10:10:32.000Z</time>
      </trkpt>
      <trkpt lat="47.4888" lon="6.68166">
        <ele>361</ele>
        <time>2015-12-20T10:10:33.000Z</time>
      </trkpt>
      <trkpt lat="47.48881" lon="6.68163">
        <ele>361</ele>
        <time>2015-12-20T10:10:34.000Z</time>
      </trkpt>
      <trkpt lat="47.48882" lon="6.6816">
        <ele>361</ele>
        <time>2015-12-20T10:10:35.000Z</time>
      </trkpt>
      <trkpt lat="47.48884" lon="6.68155">
        <ele>361</ele>
        <time>2015-12-20T10:10:37.000Z</time>
      </trkpt>
      <trkpt lat="47.48884" lon="6.68154">
        <ele>361</ele>
        <time>2015-12-20T10:10:38.000Z</time>
      </trkpt>
      <trkpt lat="47.48887" lon="6.6815">
        <ele>361</ele>
        <time>2015-12-20T10:10:43.000Z</time>
      </trkpt>
      <trkpt lat="47.48887" lon="6.68149">
        <ele>361</ele>
        <time>2015-12-20T10:10:44.000Z</time>
      </trkpt>
      <trkpt lat="47.48889" lon="6.68143">
        <ele>362</ele>
        <time>2015-12-20T10:12:38.000Z</time>
      </trkpt>
      <trkpt lat="47.48891" lon="6.68141">
        <ele>362</ele>
        <time>2015-12-20T10:12:39.000Z</time>
      </trkpt>
      <trkpt lat="47.48892" lon="6.68138">
        <ele>362</ele>
        <time>2015-12-20T10:12:40.000Z</time>
      </trkpt>
      <trkpt lat="47.48894" lon="6.68136">
        <ele>362</ele>
        <time>2015-12-20T10:12:41.000Z</time>
      </trkpt>
      <trkpt lat="47.48895" lon="6.68132">
        <ele>362</ele>
        <time>2015-12-20T10:12:42.000Z</time>
      </trkpt>
      <trkpt lat="47.48897" lon="6.68129">
        <ele>362</ele>
        <time>2015-12-20T10:12:43.000Z</time>
      </trkpt>
      <trkpt lat="47.48899" lon="6.68125">
        <ele>362</ele>
        <time>2015-12-20T10:12:44.000Z</time>
      </trkpt>
      <trkpt lat="47.48901" lon="6.6812">
        <ele>362</ele>
        <time>2015-12-20T10:12:45.000Z</time>
      </trkpt>
      <trkpt lat="47.48902" lon="6.68116">
        <ele>362</ele>
        <time>2015-12-20T10:12:46.000Z</time>
      </trkpt>
      <trkpt lat="47.48904" lon="6.68112">
        <ele>362</ele>
        <time>2015-12-20T10:12:47.000Z</time>
      </trkpt>
      <trkpt lat="47.48907" lon="6.68107">
        <ele>362</ele>
        <time>2015-12-20T10:12:48.000Z</time>
      </trkpt>
      <trkpt lat="47.48909" lon="6.68103">
        <ele>362</ele>
        <time>2015-12-20T10:12:49.000Z</time>
      </trkpt>
      <trkpt lat="47.48911" lon="6.68098">
        <ele>362</ele>
        <time>2015-12-20T10:12:50.000Z</time>
      </trkpt>
      <trkpt lat="47.48913" lon="6.68093">
        <ele>362</ele>
        <time>2015-12-20T10:12:51.000Z</time>
      </trkpt>
      <trkpt lat="47.48915" lon="6.68088">
        <ele>362</ele>
        <time>2015-12-20T10:12:52.000Z</time>
      </trkpt>
      <trkpt lat="47.48918" lon="6.68083">
        <ele>362</ele>
        <time>2015-12-20T10:12:53.000Z</time>
      </trkpt>
      <trkpt lat="47.4892" lon="6.68078">
        <ele>362</ele>
        <time>2015-12-20T10:12:54.000Z</time>
      </trkpt>
      <trkpt lat="47.48923" lon="6.68072">
        <ele>361</ele>
        <time>2015-12-20T10:12:55.000Z</time>
      </trkpt>
      <trkpt lat="47.48925" lon="6.68066">
        <ele>361</ele>
        <time>2015-12-20T10:12:56.000Z</time>
      </trkpt>
      <trkpt lat="47.48928" lon="6.6806">
        <ele>361</ele>
        <time>2015-12-20T10:12:57.000Z</time>
      </trkpt>
      <trkpt lat="47.4893" lon="6.68055">
        <ele>361</ele>
        <time>2015-12-20T10:12:58.000Z</time>
      </trkpt>
      <trkpt lat="47.48933" lon="6.68049">
        <ele>361</ele>
        <time>2015-12-20T10:12:59.000Z</time>
      </trkpt>
      <trkpt lat="47.48936" lon="6.68044">
        <ele>361</ele>
        <time>2015-12-20T10:13:00.000Z</time>
      </trkpt>
      <trkpt lat="47.48937" lon="6.68039">
        <ele>361</ele>
        <time>2015-12-20T10:13:01.000Z</time>
      </trkpt>
      <trkpt lat="47.48939" lon="6.68033">
        <ele>361</ele>
        <time>2015-12-20T10:13:02.000Z</time>
      </trkpt>
      <trkpt lat="47.48941" lon="6.68028">
        <ele>361</ele>
        <time>2015-12-20T10:13:03.000Z</time>
      </trkpt>
      <trkpt lat="47.48942" lon="6.68023">
        <ele>361</ele>
        <time>2015-12-20T10:13:04.000Z</time>
      </trkpt>
      <trkpt lat="47.48944" lon="6.68019">
        <ele>361</ele>
        <time>2015-12-20T10:13:05.000Z</time>
      </trkpt>
      <trkpt lat="47.48946" lon="6.68015">
        <ele>361</ele>
        <time>2015-12-20T10:13:06.000Z</time>
      </trkpt>
      <trkpt lat="47.48948" lon="6.68011">
        <ele>361</ele>
        <time>2015-12-20T10:13:07.000Z</time>
      </trkpt>
      <trkpt lat="47.48949" lon="6.68006">
        <ele>361</ele>
        <time>2015-12-20T10:13:08.000Z</time>
      </trkpt>
      <trkpt lat="47.48951" lon="6.68003">
        <ele>361</ele>
        <time>2015-12-20T10:13:09.000Z</time>
      </trkpt>
      <trkpt lat="47.48952" lon="6.67999">
        <ele>362</ele>
        <time>2015-12-20T10:13:10.000Z</time>
      </trkpt>
      <trkpt lat="47.48954" lon="6.67995">
        <ele>362</ele>
        <time>2015-12-20T10:13:11.000Z</time>
      </trkpt>
      <trkpt lat="47.48955" lon="6.6799">
        <ele>362</ele>
        <time>2015-12-20T10:13:12.000Z</time>
      </trkpt>
      <trkpt lat="47.48957" lon="6.67986">
        <ele>362</ele>
        <time>2015-12-20T10:13:13.000Z</time>
      </trkpt>
      <trkpt lat="47.48958" lon="6.67982">
        <ele>362</ele>
        <time>2015-12-20T10:13:14.001Z</time>
      </trkpt>
      <trkpt lat="47.4896" lon="6.67978">
        <ele>362</ele>
        <time>2015-12-20T10:13:15.000Z</time>
      </trkpt>
      <trkpt lat="47.48965" lon="6.67973">
        <ele>362</ele>
        <time>2015-12-20T10:13:16.000Z</time>
      </trkpt>
      <trkpt lat="47.48968" lon="6.67967">
        <ele>362</ele>
        <time>2015-12-20T10:13:17.000Z</time>
      </trkpt>
      <trkpt lat="47.48972" lon="6.67961">
        <ele>361</ele>
        <time>2015-12-20T10:13:18.000Z</time>
      </trkpt>
      <trkpt lat="47.48975" lon="6.67955">
        <ele>361</ele>
        <time>2015-12-20T10:13:19.000Z</time>
      </trkpt>
      <trkpt lat="47.4898" lon="6.67948">
        <ele>361</ele>
        <time>2015-12-20T10:13:20.000Z</time>
      </trkpt>
      <trkpt lat="47.48984" lon="6.67942">
        <ele>361</ele>
        <time>2015-12-20T10:13:21.000Z</time>
      </trkpt>
      <trkpt lat="47.48988" lon="6.67935">
        <ele>361</ele>
        <time>2015-12-20T10:13:22.000Z</time>
      </trkpt>
      <trkpt lat="47.48991" lon="6.67928">
        <ele>360</ele>
        <time>2015-12-20T10:13:23.000Z</time>
      </trkpt>
      <trkpt lat="47.48995" lon="6.67921">
        <ele>359</ele>
        <time>2015-12-20T10:13:24.000Z</time>
      </trkpt>
      <trkpt lat="47.48998" lon="6.67915">
        <ele>359</ele>
        <time>2015-12-20T10:13:25.000Z</time>
      </trkpt>
      <trkpt lat="47.49001" lon="6.67909">
        <ele>357</ele>
        <time>2015-12-20T10:13:26.000Z</time>
      </trkpt>
      <trkpt lat="47.49005" lon="6.67903">
        <ele>357</ele>
        <time>2015-12-20T10:13:27.000Z</time>
      </trkpt>
      <trkpt lat="47.49008" lon="6.67896">
        <ele>357</ele>
        <time>2015-12-20T10:13:28.000Z</time>
      </trkpt>
      <trkpt lat="47.49011" lon="6.67889">
        <ele>357</ele>
        <time>2015-12-20T10:13:29.000Z</time>
      </trkpt>
      <trkpt lat="47.49014" lon="6.67883">
        <ele>357</ele>
        <time>2015-12-20T10:13:30.000Z</time>
      </trkpt>
      <trkpt lat="47.49018" lon="6.67878">
        <ele>357</ele>
        <time>2015-12-20T10:13:31.000Z</time>
      </trkpt>
      <trkpt lat="47.49021" lon="6.67872">
        <ele>357</ele>
        <time>2015-12-20T10:13:32.000Z</time>
      </trkpt>
      <trkpt lat="47.49025" lon="6.67866">
        <ele>357</ele>
        <time>2015-12-20T10:13:33.000Z</time>
      </trkpt>
      <trkpt lat="47.49028" lon="6.6786">
        <ele>357</ele>
        <time>2015-12-20T10:13:34.000Z</time>
      </trkpt>
      <trkpt lat="47.49031" lon="6.67854">
        <ele>357</ele>
        <time>2015-12-20T10:13:35.000Z</time>
      </trkpt>
      <trkpt lat="47.49035" lon="6.67848">
        <ele>357</ele>
        <time>2015-12-20T10:13:36.000Z</time>
      </trkpt>
      <trkpt lat="47.49038" lon="6.67843">
        <ele>356</ele>
        <time>2015-12-20T10:13:37.000Z</time>
      </trkpt>
      <trkpt lat="47.49041" lon="6.67838">
        <ele>356</ele>
        <time>2015-12-20T10:13:38.000Z</time>
      </trkpt>
      <trkpt lat="47.49044" lon="6.67831">
        <ele>359</ele>
        <time>2015-12-20T10:13:39.000Z</time>
      </trkpt>
      <trkpt lat="47.49048" lon="6.67825">
        <ele>358</ele>
        <time>2015-12-20T10:13:40.000Z</time>
      </trkpt>
      <trkpt lat="47.49051" lon="6.6782">
        <ele>358</ele>
        <time>2015-12-20T10:13:41.000Z</time>
      </trkpt>
      <trkpt lat="47.49054" lon="6.67815">
        <ele>358</ele>
        <time>2015-12-20T10:13:42.000Z</time>
      </trkpt>
      <trkpt lat="47.49057" lon="6.67809">
        <ele>358</ele>
        <time>2015-12-20T10:13:43.000Z</time>
      </trkpt>
      <trkpt lat="47.4906" lon="6.67804">
        <ele>358</ele>
        <time>2015-12-20T10:13:44.000Z</time>
      </trkpt>
      <trkpt lat="47.49063" lon="6.67799">
        <ele>358</ele>
        <time>2015-12-20T10:13:45.000Z</time>
      </trkpt>
      <trkpt lat="47.49066" lon="6.67793">
        <ele>358</ele>
        <time>2015-12-20T10:13:46.000Z</time>
      </trkpt>
      <trkpt lat="47.49069" lon="6.67789">
        <ele>358</ele>
        <time>2015-12-20T10:13:47.000Z</time>
      </trkpt>
      <trkpt lat="47.49072" lon="6.67784">
        <ele>358</ele>
        <time>2015-12-20T10:13:48.000Z</time>
      </trkpt>
      <trkpt lat="47.49075" lon="6.67779">
        <ele>358</ele>
        <time>2015-12-20T10:13:49.001Z</time>
      </trkpt>
      <trkpt lat="47.49077" lon="6.67775">
        <ele>358</ele>
        <time>2015-12-20T10:13:50.000Z</time>
      </trkpt>
      <trkpt lat="47.4908" lon="6.67772">
        <ele>358</ele>
        <time>2015-12-20T10:13:51.000Z</time>
      </trkpt>
      <trkpt lat="47.49083" lon="6.67768">
        <ele>358</ele>
        <time>2015-12-20T10:13:52.000Z</time>
      </trkpt>
      <trkpt lat="47.49085" lon="6.67761">
        <ele>355</ele>
        <time>2015-12-20T10:13:53.000Z</time>
      </trkpt>
      <trkpt lat="47.49088" lon="6.67758">
        <ele>356</ele>
        <time>2015-12-20T10:13:54.000Z</time>
      </trkpt>
      <trkpt lat="47.4909" lon="6.67753">
        <ele>356</ele>
        <time>2015-12-20T10:13:55.000Z</time>
      </trkpt>
      <trkpt lat="47.49092" lon="6.67749">
        <ele>357</ele>
        <time>2015-12-20T10:13:56.000Z</time>
      </trkpt>
      <trkpt lat="47.49094" lon="6.67745">
        <ele>357</ele>
        <time>2015-12-20T10:13:57.000Z</time>
      </trkpt>
      <trkpt lat="47.49096" lon="6.67741">
        <ele>357</ele>
        <time>2015-12-20T10:13:58.000Z</time>
      </trkpt>
      <trkpt lat="47.49098" lon="6.67737">
        <ele>357</ele>
        <time>2015-12-20T10:13:59.000Z</time>
      </trkpt>
      <trkpt lat="47.49098" lon="6.6773">
        <ele>358</ele>
        <time>2015-12-20T10:14:00.000Z</time>
      </trkpt>
      <trkpt lat="47.49099" lon="6.67725">
        <ele>358</ele>
        <time>2015-12-20T10:14:01.000Z</time>
      </trkpt>
      <trkpt lat="47.49099" lon="6.67719">
        <ele>358</ele>
        <time>2015-12-20T10:14:02.000Z</time>
      </trkpt>
      <trkpt lat="47.491" lon="6.67715">
        <ele>358</ele>
        <time>2015-12-20T10:14:03.000Z</time>
      </trkpt>
      <trkpt lat="47.491" lon="6.67711">
        <ele>358</ele>
        <time>2015-12-20T10:14:04.000Z</time>
      </trkpt>
      <trkpt lat="47.491" lon="6.67707">
        <ele>358</ele>
        <time>2015-12-20T10:14:05.000Z</time>
      </trkpt>
      <trkpt lat="47.49099" lon="6.67701">
        <ele>359</ele>
        <time>2015-12-20T10:14:06.000Z</time>
      </trkpt>
      <trkpt lat="47.49099" lon="6.67696">
        <ele>359</ele>
        <time>2015-12-20T10:14:07.000Z</time>
      </trkpt>
      <trkpt lat="47.491" lon="6.67692">
        <ele>359</ele>
        <time>2015-12-20T10:14:08.000Z</time>
      </trkpt>
      <trkpt lat="47.491" lon="6.67687">
        <ele>359</ele>
        <time>2015-12-20T10:14:09.000Z</time>
      </trkpt>
      <trkpt lat="47.491" lon="6.67683">
        <ele>359</ele>
        <time>2015-12-20T10:14:10.000Z</time>
      </trkpt>
      <trkpt lat="47.491" lon="6.67678">
        <ele>360</ele>
        <time>2015-12-20T10:14:11.000Z</time>
      </trkpt>
      <trkpt lat="47.491" lon="6.67674">
        <ele>360</ele>
        <time>2015-12-20T10:14:12.000Z</time>
      </trkpt>
      <trkpt lat="47.491" lon="6.6767">
        <ele>360</ele>
        <time>2015-12-20T10:14:13.000Z</time>
      </trkpt>
      <trkpt lat="47.491" lon="6.67665">
        <ele>361</ele>
        <time>2015-12-20T10:14:14.000Z</time>
      </trkpt>
      <trkpt lat="47.49101" lon="6.67661">
        <ele>361</ele>
        <time>2015-12-20T10:14:15.000Z</time>
      </trkpt>
      <trkpt lat="47.49101" lon="6.67657">
        <ele>361</ele>
        <time>2015-12-20T10:14:16.000Z</time>
      </trkpt>
      <trkpt lat="47.49101" lon="6.67653">
        <ele>361</ele>
        <time>2015-12-20T10:14:17.000Z</time>
      </trkpt>
      <trkpt lat="47.49102" lon="6.67648">
        <ele>361</ele>
        <time>2015-12-20T10:14:18.000Z</time>
      </trkpt>
      <trkpt lat="47.49102" lon="6.67643">
        <ele>361</ele>
        <time>2015-12-20T10:14:19.000Z</time>
      </trkpt>
      <trkpt lat="47.49103" lon="6.67638">
        <ele>361</ele>
        <time>2015-12-20T10:14:20.000Z</time>
      </trkpt>
      <trkpt lat="47.49103" lon="6.67633">
        <ele>361</ele>
        <time>2015-12-20T10:14:21.000Z</time>
      </trkpt>
      <trkpt lat="47.49103" lon="6.67628">
        <ele>361</ele>
        <time>2015-12-20T10:14:22.000Z</time>
      </trkpt>
      <trkpt lat="47.49104" lon="6.67623">
        <ele>361</ele>
        <time>2015-12-20T10:14:23.000Z</time>
      </trkpt>
      <trkpt lat="47.49104" lon="6.67618">
        <ele>361</ele>
        <time>2015-12-20T10:14:24.000Z</time>
      </trkpt>
      <trkpt lat="47.49103" lon="6.67613">
        <ele>361</ele>
        <time>2015-12-20T10:14:25.000Z</time>
      </trkpt>
      <trkpt lat="47.49103" lon="6.67608">
        <ele>361</ele>
        <time>2015-12-20T10:14:26.000Z</time>
      </trkpt>
      <trkpt lat="47.49102" lon="6.67603">
        <ele>362</ele>
        <time>2015-12-20T10:14:27.000Z</time>
      </trkpt>
      <trkpt lat="47.49101" lon="6.67598">
        <ele>362</ele>
        <time>2015-12-20T10:14:28.000Z</time>
      </trkpt>
      <trkpt lat="47.491" lon="6.67593">
        <ele>362</ele>
        <time>2015-12-20T10:14:29.000Z</time>
      </trkpt>
      <trkpt lat="47.49099" lon="6.67588">
        <ele>362</ele>
        <time>2015-12-20T10:14:30.000Z</time>
      </trkpt>
      <trkpt lat="47.49099" lon="6.67583">
        <ele>362</ele>
        <time>2015-12-20T10:14:31.000Z</time>
      </trkpt>
      <trkpt lat="47.49099" lon="6.67578">
        <ele>362</ele>
        <time>2015-12-20T10:14:32.000Z</time>
      </trkpt>
      <trkpt lat="47.491" lon="6.67574">
        <ele>362</ele>
        <time>2015-12-20T10:14:33.000Z</time>
      </trkpt>
      <trkpt lat="47.491" lon="6.67568">
        <ele>361</ele>
        <time>2015-12-20T10:14:34.000Z</time>
      </trkpt>
      <trkpt lat="47.49101" lon="6.67561">
        <ele>361</ele>
        <time>2015-12-20T10:14:35.000Z</time>
      </trkpt>
      <trkpt lat="47.49101" lon="6.67554">
        <ele>361</ele>
        <time>2015-12-20T10:14:36.000Z</time>
      </trkpt>
      <trkpt lat="47.49101" lon="6.67548">
        <ele>361</ele>
        <time>2015-12-20T10:14:37.000Z</time>
      </trkpt>
      <trkpt lat="47.491" lon="6.67541">
        <ele>361</ele>
        <time>2015-12-20T10:14:38.000Z</time>
      </trkpt>
      <trkpt lat="47.49099" lon="6.67533">
        <ele>361</ele>
        <time>2015-12-20T10:14:39.000Z</time>
      </trkpt>
      <trkpt lat="47.49097" lon="6.67526">
        <ele>361</ele>
        <time>2015-12-20T10:14:40.000Z</time>
      </trkpt>
      <trkpt lat="47.49093" lon="6.6752">
        <ele>360</ele>
        <time>2015-12-20T10:14:41.000Z</time>
      </trkpt>
      <trkpt lat="47.49089" lon="6.67516">
        <ele>360</ele>
        <time>2015-12-20T10:14:42.000Z</time>
      </trkpt>
      <trkpt lat="47.49085" lon="6.67511">
        <ele>360</ele>
        <time>2015-12-20T10:14:42.999Z</time>
      </trkpt>
      <trkpt lat="47.49079" lon="6.67508">
        <ele>361</ele>
        <time>2015-12-20T10:14:44.000Z</time>
      </trkpt>
      <trkpt lat="47.49073" lon="6.67505">
        <ele>361</ele>
        <time>2015-12-20T10:14:45.000Z</time>
      </trkpt>
      <trkpt lat="47.49068" lon="6.67499">
        <ele>360</ele>
        <time>2015-12-20T10:14:46.000Z</time>
      </trkpt>
      <trkpt lat="47.49062" lon="6.67492">
        <ele>360</ele>
        <time>2015-12-20T10:14:47.000Z</time>
      </trkpt>
      <trkpt lat="47.49057" lon="6.67485">
        <ele>359</ele>
        <time>2015-12-20T10:14:48.000Z</time>
      </trkpt>
      <trkpt lat="47.49057" lon="6.67471">
        <ele>359</ele>
        <time>2015-12-20T10:14:49.000Z</time>
      </trkpt>
      <trkpt lat="47.49058" lon="6.67459">
        <ele>359</ele>
        <time>2015-12-20T10:14:50.000Z</time>
      </trkpt>
      <trkpt lat="47.49059" lon="6.67448">
        <ele>358</ele>
        <time>2015-12-20T10:14:51.000Z</time>
      </trkpt>
      <trkpt lat="47.4906" lon="6.67439">
        <ele>358</ele>
        <time>2015-12-20T10:14:52.000Z</time>
      </trkpt>
      <trkpt lat="47.49062" lon="6.67428">
        <ele>358</ele>
        <time>2015-12-20T10:14:53.000Z</time>
      </trkpt>
      <trkpt lat="47.49064" lon="6.67418">
        <ele>357</ele>
        <time>2015-12-20T10:14:54.000Z</time>
      </trkpt>
      <trkpt lat="47.49066" lon="6.67408">
        <ele>356</ele>
        <time>2015-12-20T10:14:55.000Z</time>
      </trkpt>
      <trkpt lat="47.49068" lon="6.67399">
        <ele>356</ele>
        <time>2015-12-20T10:14:56.000Z</time>
      </trkpt>
      <trkpt lat="47.49069" lon="6.67391">
        <ele>356</ele>
        <time>2015-12-20T10:14:57.000Z</time>
      </trkpt>
      <trkpt lat="47.49071" lon="6.67383">
        <ele>356</ele>
        <time>2015-12-20T10:14:58.000Z</time>
      </trkpt>
      <trkpt lat="47.49073" lon="6.67375">
        <ele>355</ele>
        <time>2015-12-20T10:14:59.000Z</time>
      </trkpt>
      <trkpt lat="47.49075" lon="6.67365">
        <ele>355</ele>
        <time>2015-12-20T10:15:00.000Z</time>
      </trkpt>
      <trkpt lat="47.49076" lon="6.67357">
        <ele>355</ele>
        <time>2015-12-20T10:15:01.000Z</time>
      </trkpt>
      <trkpt lat="47.49079" lon="6.67349">
        <ele>355</ele>
        <time>2015-12-20T10:15:02.000Z</time>
      </trkpt>
      <trkpt lat="47.49081" lon="6.67343">
        <ele>355</ele>
        <time>2015-12-20T10:15:03.000Z</time>
      </trkpt>
      <trkpt lat="47.49082" lon="6.67335">
        <ele>354</ele>
        <time>2015-12-20T10:15:04.000Z</time>
      </trkpt>
      <trkpt lat="47.49083" lon="6.67328">
        <ele>354</ele>
        <time>2015-12-20T10:15:05.000Z</time>
      </trkpt>
      <trkpt lat="47.49085" lon="6.67322">
        <ele>355</ele>
        <time>2015-12-20T10:15:06.000Z</time>
      </trkpt>
      <trkpt lat="47.49086" lon="6.67315">
        <ele>355</ele>
        <time>2015-12-20T10:15:07.000Z</time>
      </trkpt>
      <trkpt lat="47.49088" lon="6.67309">
        <ele>356</ele>
        <time>2015-12-20T10:15:08.000Z</time>
      </trkpt>
      <trkpt lat="47.49089" lon="6.67305">
        <ele>356</ele>
        <time>2015-12-20T10:15:09.000Z</time>
      </trkpt>
      <trkpt lat="47.4909" lon="6.673">
        <ele>356</ele>
        <time>2015-12-20T10:15:10.000Z</time>
      </trkpt>
      <trkpt lat="47.49092" lon="6.67294">
        <ele>356</ele>
        <time>2015-12-20T10:15:11.000Z</time>
      </trkpt>
      <trkpt lat="47.49093" lon="6.67288">
        <ele>356</ele>
        <time>2015-12-20T10:15:12.000Z</time>
      </trkpt>
      <trkpt lat="47.49094" lon="6.67283">
        <ele>356</ele>
        <time>2015-12-20T10:15:13.000Z</time>
      </trkpt>
      <trkpt lat="47.49096" lon="6.6728">
        <ele>356</ele>
        <time>2015-12-20T10:15:14.000Z</time>
      </trkpt>
      <trkpt lat="47.49098" lon="6.67274">
        <ele>356</ele>
        <time>2015-12-20T10:15:15.000Z</time>
      </trkpt>
      <trkpt lat="47.49099" lon="6.67269">
        <ele>356</ele>
        <time>2015-12-20T10:15:16.000Z</time>
      </trkpt>
      <trkpt lat="47.49101" lon="6.67264">
        <ele>356</ele>
        <time>2015-12-20T10:15:17.000Z</time>
      </trkpt>
      <trkpt lat="47.49103" lon="6.67258">
        <ele>356</ele>
        <time>2015-12-20T10:15:18.000Z</time>
      </trkpt>
      <trkpt lat="47.49104" lon="6.67253">
        <ele>356</ele>
        <time>2015-12-20T10:15:19.000Z</time>
      </trkpt>
      <trkpt lat="47.49106" lon="6.67248">
        <ele>358</ele>
        <time>2015-12-20T10:15:20.000Z</time>
      </trkpt>
      <trkpt lat="47.49108" lon="6.67242">
        <ele>358</ele>
        <time>2015-12-20T10:15:21.000Z</time>
      </trkpt>
      <trkpt lat="47.4911" lon="6.67237">
        <ele>358</ele>
        <time>2015-12-20T10:15:22.000Z</time>
      </trkpt>
      <trkpt lat="47.49111" lon="6.67232">
        <ele>359</ele>
        <time>2015-12-20T10:15:23.000Z</time>
      </trkpt>
      <trkpt lat="47.49112" lon="6.67227">
        <ele>359</ele>
        <time>2015-12-20T10:15:24.000Z</time>
      </trkpt>
      <trkpt lat="47.49113" lon="6.67222">
        <ele>359</ele>
        <time>2015-12-20T10:15:25.000Z</time>
      </trkpt>
      <trkpt lat="47.49114" lon="6.67217">
        <ele>359</ele>
        <time>2015-12-20T10:15:26.000Z</time>
      </trkpt>
      <trkpt lat="47.49114" lon="6.67212">
        <ele>359</ele>
        <time>2015-12-20T10:15:27.000Z</time>
      </trkpt>
      <trkpt lat="47.49115" lon="6.67207">
        <ele>359</ele>
        <time>2015-12-20T10:15:28.000Z</time>
      </trkpt>
      <trkpt lat="47.49115" lon="6.67202">
        <ele>360</ele>
        <time>2015-12-20T10:15:29.000Z</time>
      </trkpt>
      <trkpt lat="47.49115" lon="6.67196">
        <ele>360</ele>
        <time>2015-12-20T10:15:30.000Z</time>
      </trkpt>
      <trkpt lat="47.49115" lon="6.67191">
        <ele>360</ele>
        <time>2015-12-20T10:15:31.000Z</time>
      </trkpt>
      <trkpt lat="47.49114" lon="6.67186">
        <ele>360</ele>
        <time>2015-12-20T10:15:32.000Z</time>
      </trkpt>
      <trkpt lat="47.49114" lon="6.67181">
        <ele>360</ele>
        <time>2015-12-20T10:15:33.000Z</time>
      </trkpt>
      <trkpt lat="47.49114" lon="6.67176">
        <ele>360</ele>
        <time>2015-12-20T10:15:34.000Z</time>
      </trkpt>
      <trkpt lat="47.49114" lon="6.67171">
        <ele>360</ele>
        <time>2015-12-20T10:15:35.000Z</time>
      </trkpt>
      <trkpt lat="47.49113" lon="6.67166">
        <ele>363</ele>
        <time>2015-12-20T10:15:36.000Z</time>
      </trkpt>
      <trkpt lat="47.49113" lon="6.67161">
        <ele>363</ele>
        <time>2015-12-20T10:15:37.000Z</time>
      </trkpt>
      <trkpt lat="47.49113" lon="6.67156">
        <ele>363</ele>
        <time>2015-12-20T10:15:38.000Z</time>
      </trkpt>
      <trkpt lat="47.49112" lon="6.67151">
        <ele>363</ele>
        <time>2015-12-20T10:15:39.000Z</time>
      </trkpt>
      <trkpt lat="47.49112" lon="6.67147">
        <ele>363</ele>
        <time>2015-12-20T10:15:40.000Z</time>
      </trkpt>
      <trkpt lat="47.49112" lon="6.67142">
        <ele>363</ele>
        <time>2015-12-20T10:15:41.000Z</time>
      </trkpt>
      <trkpt lat="47.49112" lon="6.67138">
        <ele>363</ele>
        <time>2015-12-20T10:15:42.000Z</time>
      </trkpt>
      <trkpt lat="47.49112" lon="6.67134">
        <ele>363</ele>
        <time>2015-12-20T10:15:43.000Z</time>
      </trkpt>
      <trkpt lat="47.49111" lon="6.6713">
        <ele>364</ele>
        <time>2015-12-20T10:15:44.000Z</time>
      </trkpt>
      <trkpt lat="47.49111" lon="6.67126">
        <ele>364</ele>
        <time>2015-12-20T10:15:44.999Z</time>
      </trkpt>
      <trkpt lat="47.49111" lon="6.67122">
        <ele>364</ele>
        <time>2015-12-20T10:15:46.000Z</time>
      </trkpt>
      <trkpt lat="47.49111" lon="6.67117">
        <ele>364</ele>
        <time>2015-12-20T10:15:47.000Z</time>
      </trkpt>
      <trkpt lat="47.49111" lon="6.67113">
        <ele>364</ele>
        <time>2015-12-20T10:15:48.000Z</time>
      </trkpt>
      <trkpt lat="47.4911" lon="6.67109">
        <ele>364</ele>
        <time>2015-12-20T10:15:49.000Z</time>
      </trkpt>
      <trkpt lat="47.4911" lon="6.67104">
        <ele>365</ele>
        <time>2015-12-20T10:15:50.000Z</time>
      </trkpt>
      <trkpt lat="47.4911" lon="6.671">
        <ele>365</ele>
        <time>2015-12-20T10:15:51.000Z</time>
      </trkpt>
      <trkpt lat="47.49109" lon="6.67095">
        <ele>365</ele>
        <time>2015-12-20T10:15:52.000Z</time>
      </trkpt>
      <trkpt lat="47.49109" lon="6.67091">
        <ele>365</ele>
        <time>2015-12-20T10:15:53.000Z</time>
      </trkpt>
      <trkpt lat="47.49108" lon="6.67087">
        <ele>365</ele>
        <time>2015-12-20T10:15:54.000Z</time>
      </trkpt>
      <trkpt lat="47.49108" lon="6.67082">
        <ele>368</ele>
        <time>2015-12-20T10:15:55.000Z</time>
      </trkpt>
      <trkpt lat="47.49108" lon="6.67079">
        <ele>368</ele>
        <time>2015-12-20T10:15:56.000Z</time>
      </trkpt>
      <trkpt lat="47.49109" lon="6.67075">
        <ele>368</ele>
        <time>2015-12-20T10:15:57.000Z</time>
      </trkpt>
      <trkpt lat="47.49109" lon="6.67071">
        <ele>368</ele>
        <time>2015-12-20T10:15:58.000Z</time>
      </trkpt>
      <trkpt lat="47.49109" lon="6.67068">
        <ele>368</ele>
        <time>2015-12-20T10:15:59.000Z</time>
      </trkpt>
      <trkpt lat="47.49108" lon="6.67064">
        <ele>368</ele>
        <time>2015-12-20T10:16:00.000Z</time>
      </trkpt>
      <trkpt lat="47.49108" lon="6.67061">
        <ele>368</ele>
        <time>2015-12-20T10:16:01.000Z</time>
      </trkpt>
      <trkpt lat="47.49107" lon="6.67057">
        <ele>368</ele>
        <time>2015-12-20T10:16:02.000Z</time>
      </trkpt>
      <trkpt lat="47.49107" lon="6.67054">
        <ele>368</ele>
        <time>2015-12-20T10:16:03.000Z</time>
      </trkpt>
      <trkpt lat="47.49107" lon="6.6705">
        <ele>369</ele>
        <time>2015-12-20T10:16:04.000Z</time>
      </trkpt>
      <trkpt lat="47.49106" lon="6.67046">
        <ele>369</ele>
        <time>2015-12-20T10:16:05.000Z</time>
      </trkpt>
      <trkpt lat="47.49105" lon="6.67043">
        <ele>369</ele>
        <time>2015-12-20T10:16:06.000Z</time>
      </trkpt>
      <trkpt lat="47.49105" lon="6.6704">
        <ele>369</ele>
        <time>2015-12-20T10:16:07.000Z</time>
      </trkpt>
      <trkpt lat="47.49104" lon="6.67036">
        <ele>369</ele>
        <time>2015-12-20T10:16:08.000Z</time>
      </trkpt>
      <trkpt lat="47.49102" lon="6.67033">
        <ele>369</ele>
        <time>2015-12-20T10:16:09.000Z</time>
      </trkpt>
      <trkpt lat="47.49101" lon="6.6703">
        <ele>369</ele>
        <time>2015-12-20T10:16:10.000Z</time>
      </trkpt>
      <trkpt lat="47.491" lon="6.67027">
        <ele>370</ele>
        <time>2015-12-20T10:16:11.000Z</time>
      </trkpt>
      <trkpt lat="47.491" lon="6.67023">
        <ele>370</ele>
        <time>2015-12-20T10:16:12.000Z</time>
      </trkpt>
      <trkpt lat="47.49099" lon="6.6702">
        <ele>370</ele>
        <time>2015-12-20T10:16:13.000Z</time>
      </trkpt>
      <trkpt lat="47.49098" lon="6.67017">
        <ele>370</ele>
        <time>2015-12-20T10:16:14.000Z</time>
      </trkpt>
      <trkpt lat="47.49097" lon="6.67013">
        <ele>370</ele>
        <time>2015-12-20T10:16:15.000Z</time>
      </trkpt>
      <trkpt lat="47.49096" lon="6.6701">
        <ele>370</ele>
        <time>2015-12-20T10:16:16.000Z</time>
      </trkpt>
      <trkpt lat="47.49095" lon="6.67006">
        <ele>371</ele>
        <time>2015-12-20T10:16:17.000Z</time>
      </trkpt>
      <trkpt lat="47.49095" lon="6.67003">
        <ele>371</ele>
        <time>2015-12-20T10:16:18.000Z</time>
      </trkpt>
      <trkpt lat="47.49094" lon="6.66999">
        <ele>373</ele>
        <time>2015-12-20T10:16:19.000Z</time>
      </trkpt>
      <trkpt lat="47.49093" lon="6.66995">
        <ele>373</ele>
        <time>2015-12-20T10:16:20.000Z</time>
      </trkpt>
      <trkpt lat="47.49092" lon="6.66991">
        <ele>373</ele>
        <time>2015-12-20T10:16:21.000Z</time>
      </trkpt>
      <trkpt lat="47.49091" lon="6.66988">
        <ele>373</ele>
        <time>2015-12-20T10:16:22.000Z</time>
      </trkpt>
      <trkpt lat="47.4909" lon="6.66984">
        <ele>373</ele>
        <time>2015-12-20T10:16:23.000Z</time>
      </trkpt>
      <trkpt lat="47.4909" lon="6.6698">
        <ele>373</ele>
        <time>2015-12-20T10:16:24.000Z</time>
      </trkpt>
      <trkpt lat="47.49089" lon="6.66977">
        <ele>373</ele>
        <time>2015-12-20T10:16:25.000Z</time>
      </trkpt>
      <trkpt lat="47.49089" lon="6.66971">
        <ele>374</ele>
        <time>2015-12-20T10:16:27.000Z</time>
      </trkpt>
      <trkpt lat="47.49088" lon="6.66967">
        <ele>374</ele>
        <time>2015-12-20T10:16:28.000Z</time>
      </trkpt>
      <trkpt lat="47.49088" lon="6.66964">
        <ele>374</ele>
        <time>2015-12-20T10:16:29.000Z</time>
      </trkpt>
      <trkpt lat="47.49087" lon="6.6696">
        <ele>374</ele>
        <time>2015-12-20T10:16:30.000Z</time>
      </trkpt>
      <trkpt lat="47.49086" lon="6.66957">
        <ele>374</ele>
        <time>2015-12-20T10:16:31.000Z</time>
      </trkpt>
      <trkpt lat="47.49086" lon="6.66954">
        <ele>374</ele>
        <time>2015-12-20T10:16:32.000Z</time>
      </trkpt>
      <trkpt lat="47.49083" lon="6.66948">
        <ele>375</ele>
        <time>2015-12-20T10:16:34.000Z</time>
      </trkpt>
      <trkpt lat="47.49082" lon="6.66946">
        <ele>376</ele>
        <time>2015-12-20T10:16:35.000Z</time>
      </trkpt>
      <trkpt lat="47.4908" lon="6.66944">
        <ele>376</ele>
        <time>2015-12-20T10:16:36.000Z</time>
      </trkpt>
      <trkpt lat="47.49078" lon="6.66942">
        <ele>376</ele>
        <time>2015-12-20T10:16:37.000Z</time>
      </trkpt>
      <trkpt lat="47.49076" lon="6.6694">
        <ele>376</ele>
        <time>2015-12-20T10:16:38.000Z</time>
      </trkpt>
      <trkpt lat="47.49074" lon="6.66938">
        <ele>376</ele>
        <time>2015-12-20T10:16:39.000Z</time>
      </trkpt>
      <trkpt lat="47.49072" lon="6.66936">
        <ele>376</ele>
        <time>2015-12-20T10:16:40.000Z</time>
      </trkpt>
      <trkpt lat="47.4907" lon="6.66934">
        <ele>376</ele>
        <time>2015-12-20T10:16:41.000Z</time>
      </trkpt>
      <trkpt lat="47.49068" lon="6.66932">
        <ele>376</ele>
        <time>2015-12-20T10:16:41.999Z</time>
      </trkpt>
      <trkpt lat="47.49066" lon="6.6693">
        <ele>377</ele>
        <time>2015-12-20T10:16:43.000Z</time>
      </trkpt>
      <trkpt lat="47.49064" lon="6.66928">
        <ele>377</ele>
        <time>2015-12-20T10:16:44.000Z</time>
      </trkpt>
      <trkpt lat="47.49062" lon="6.66925">
        <ele>377</ele>
        <time>2015-12-20T10:16:45.001Z</time>
      </trkpt>
      <trkpt lat="47.4906" lon="6.66924">
        <ele>377</ele>
        <time>2015-12-20T10:16:46.000Z</time>
      </trkpt>
      <trkpt lat="47.49058" lon="6.66921">
        <ele>377</ele>
        <time>2015-12-20T10:16:47.000Z</time>
      </trkpt>
      <trkpt lat="47.49057" lon="6.66919">
        <ele>377</ele>
        <time>2015-12-20T10:16:48.000Z</time>
      </trkpt>
      <trkpt lat="47.49055" lon="6.66917">
        <ele>379</ele>
        <time>2015-12-20T10:16:49.000Z</time>
      </trkpt>
      <trkpt lat="47.49053" lon="6.66914">
        <ele>379</ele>
        <time>2015-12-20T10:16:50.000Z</time>
      </trkpt>
      <trkpt lat="47.49051" lon="6.66911">
        <ele>380</ele>
        <time>2015-12-20T10:16:51.000Z</time>
      </trkpt>
      <trkpt lat="47.4905" lon="6.66909">
        <ele>380</ele>
        <time>2015-12-20T10:16:52.000Z</time>
      </trkpt>
      <trkpt lat="47.49048" lon="6.66906">
        <ele>380</ele>
        <time>2015-12-20T10:16:53.000Z</time>
      </trkpt>
      <trkpt lat="47.49046" lon="6.66903">
        <ele>380</ele>
        <time>2015-12-20T10:16:54.000Z</time>
      </trkpt>
      <trkpt lat="47.49045" lon="6.669">
        <ele>380</ele>
        <time>2015-12-20T10:16:55.000Z</time>
      </trkpt>
      <trkpt lat="47.49043" lon="6.66897">
        <ele>380</ele>
        <time>2015-12-20T10:16:56.000Z</time>
      </trkpt>
      <trkpt lat="47.49042" lon="6.66895">
        <ele>380</ele>
        <time>2015-12-20T10:16:57.000Z</time>
      </trkpt>
      <trkpt lat="47.4904" lon="6.66893">
        <ele>380</ele>
        <time>2015-12-20T10:16:58.000Z</time>
      </trkpt>
      <trkpt lat="47.49038" lon="6.6689">
        <ele>380</ele>
        <time>2015-12-20T10:16:59.001Z</time>
      </trkpt>
      <trkpt lat="47.49035" lon="6.66886">
        <ele>380</ele>
        <time>2015-12-20T10:17:01.000Z</time>
      </trkpt>
      <trkpt lat="47.49034" lon="6.66883">
        <ele>380</ele>
        <time>2015-12-20T10:17:02.000Z</time>
      </trkpt>
      <trkpt lat="47.49035" lon="6.66877">
        <ele>381</ele>
        <time>2015-12-20T10:17:04.000Z</time>
      </trkpt>
      <trkpt lat="47.49037" lon="6.66875">
        <ele>381</ele>
        <time>2015-12-20T10:17:05.000Z</time>
      </trkpt>
      <trkpt lat="47.49039" lon="6.66873">
        <ele>381</ele>
        <time>2015-12-20T10:17:06.000Z</time>
      </trkpt>
      <trkpt lat="47.49041" lon="6.66872">
        <ele>381</ele>
        <time>2015-12-20T10:17:07.000Z</time>
      </trkpt>
      <trkpt lat="47.49044" lon="6.66872">
        <ele>381</ele>
        <time>2015-12-20T10:17:08.000Z</time>
      </trkpt>
      <trkpt lat="47.49047" lon="6.66871">
        <ele>381</ele>
        <time>2015-12-20T10:17:09.000Z</time>
      </trkpt>
      <trkpt lat="47.49049" lon="6.66871">
        <ele>381</ele>
        <time>2015-12-20T10:17:10.000Z</time>
      </trkpt>
      <trkpt lat="47.49052" lon="6.6687">
        <ele>381</ele>
        <time>2015-12-20T10:17:11.000Z</time>
      </trkpt>
      <trkpt lat="47.49054" lon="6.6687">
        <ele>381</ele>
        <time>2015-12-20T10:17:12.000Z</time>
      </trkpt>
      <trkpt lat="47.49056" lon="6.66869">
        <ele>381</ele>
        <time>2015-12-20T10:17:13.000Z</time>
      </trkpt>
      <trkpt lat="47.4906" lon="6.66867">
        <ele>381</ele>
        <time>2015-12-20T10:17:15.000Z</time>
      </trkpt>
      <trkpt lat="47.49062" lon="6.66866">
        <ele>381</ele>
        <time>2015-12-20T10:17:16.000Z</time>
      </trkpt>
      <trkpt lat="47.49066" lon="6.66863">
        <ele>381</ele>
        <time>2015-12-20T10:17:18.000Z</time>
      </trkpt>
      <trkpt lat="47.49068" lon="6.66862">
        <ele>382</ele>
        <time>2015-12-20T10:17:19.000Z</time>
      </trkpt>
      <trkpt lat="47.49072" lon="6.6686">
        <ele>382</ele>
        <time>2015-12-20T10:17:21.000Z</time>
      </trkpt>
      <trkpt lat="47.49074" lon="6.66858">
        <ele>382</ele>
        <time>2015-12-20T10:17:22.000Z</time>
      </trkpt>
      <trkpt lat="47.49077" lon="6.66857">
        <ele>382</ele>
        <time>2015-12-20T10:17:23.000Z</time>
      </trkpt>
      <trkpt lat="47.49079" lon="6.66856">
        <ele>382</ele>
        <time>2015-12-20T10:17:24.000Z</time>
      </trkpt>
      <trkpt lat="47.49083" lon="6.66853">
        <ele>382</ele>
        <time>2015-12-20T10:17:26.000Z</time>
      </trkpt>
      <trkpt lat="47.49084" lon="6.66852">
        <ele>383</ele>
        <time>2015-12-20T10:17:27.000Z</time>
      </trkpt>
      <trkpt lat="47.49088" lon="6.6685">
        <ele>383</ele>
        <time>2015-12-20T10:17:29.000Z</time>
      </trkpt>
      <trkpt lat="47.4909" lon="6.66848">
        <ele>383</ele>
        <time>2015-12-20T10:17:30.000Z</time>
      </trkpt>
      <trkpt lat="47.49093" lon="6.66845">
        <ele>383</ele>
        <time>2015-12-20T10:17:32.000Z</time>
      </trkpt>
      <trkpt lat="47.49094" lon="6.66843">
        <ele>383</ele>
        <time>2015-12-20T10:17:33.000Z</time>
      </trkpt>
      <trkpt lat="47.49097" lon="6.66839">
        <ele>383</ele>
        <time>2015-12-20T10:17:35.001Z</time>
      </trkpt>
      <trkpt lat="47.49098" lon="6.66837">
        <ele>383</ele>
        <time>2015-12-20T10:17:36.000Z</time>
      </trkpt>
      <trkpt lat="47.49101" lon="6.66833">
        <ele>387</ele>
        <time>2015-12-20T10:17:38.000Z</time>
      </trkpt>
      <trkpt lat="47.49102" lon="6.66831">
        <ele>387</ele>
        <time>2015-12-20T10:17:38.999Z</time>
      </trkpt>
      <trkpt lat="47.49105" lon="6.66826">
        <ele>388</ele>
        <time>2015-12-20T10:17:41.000Z</time>
      </trkpt>
      <trkpt lat="47.49106" lon="6.66824">
        <ele>388</ele>
        <time>2015-12-20T10:17:42.000Z</time>
      </trkpt>
      <trkpt lat="47.49109" lon="6.6682">
        <ele>388</ele>
        <time>2015-12-20T10:17:44.000Z</time>
      </trkpt>
      <trkpt lat="47.49111" lon="6.66818">
        <ele>388</ele>
        <time>2015-12-20T10:17:45.000Z</time>
      </trkpt>
      <trkpt lat="47.49114" lon="6.66814">
        <ele>388</ele>
        <time>2015-12-20T10:17:47.000Z</time>
      </trkpt>
      <trkpt lat="47.49116" lon="6.66812">
        <ele>388</ele>
        <time>2015-12-20T10:17:48.000Z</time>
      </trkpt>
      <trkpt lat="47.49119" lon="6.66807">
        <ele>389</ele>
        <time>2015-12-20T10:17:50.000Z</time>
      </trkpt>
      <trkpt lat="47.4912" lon="6.66805">
        <ele>389</ele>
        <time>2015-12-20T10:17:51.000Z</time>
      </trkpt>
      <trkpt lat="47.49123" lon="6.66801">
        <ele>389</ele>
        <time>2015-12-20T10:17:53.000Z</time>
      </trkpt>
      <trkpt lat="47.49124" lon="6.66798">
        <ele>389</ele>
        <time>2015-12-20T10:17:54.000Z</time>
      </trkpt>
      <trkpt lat="47.49126" lon="6.66794">
        <ele>389</ele>
        <time>2015-12-20T10:17:56.000Z</time>
      </trkpt>
      <trkpt lat="47.49127" lon="6.66791">
        <ele>390</ele>
        <time>2015-12-20T10:17:57.000Z</time>
      </trkpt>
      <trkpt lat="47.49129" lon="6.66791">
        <ele>390</ele>
        <time>2015-12-20T10:17:58.000Z</time>
      </trkpt>
      <trkpt lat="47.49132" lon="6.66791">
        <ele>390</ele>
        <time>2015-12-20T10:17:59.000Z</time>
      </trkpt>
      <trkpt lat="47.49135" lon="6.6679">
        <ele>390</ele>
        <time>2015-12-20T10:18:00.000Z</time>
      </trkpt>
      <trkpt lat="47.49138" lon="6.6679">
        <ele>390</ele>
        <time>2015-12-20T10:18:01.000Z</time>
      </trkpt>
      <trkpt lat="47.49141" lon="6.66789">
        <ele>390</ele>
        <time>2015-12-20T10:18:02.000Z</time>
      </trkpt>
      <trkpt lat="47.49144" lon="6.66788">
        <ele>390</ele>
        <time>2015-12-20T10:18:03.000Z</time>
      </trkpt>
      <trkpt lat="47.49147" lon="6.66787">
        <ele>390</ele>
        <time>2015-12-20T10:18:04.000Z</time>
      </trkpt>
      <trkpt lat="47.49151" lon="6.66787">
        <ele>390</ele>
        <time>2015-12-20T10:18:05.000Z</time>
      </trkpt>
      <trkpt lat="47.49154" lon="6.66786">
        <ele>390</ele>
        <time>2015-12-20T10:18:06.000Z</time>
      </trkpt>
      <trkpt lat="47.49157" lon="6.66784">
        <ele>390</ele>
        <time>2015-12-20T10:18:07.000Z</time>
      </trkpt>
      <trkpt lat="47.4916" lon="6.66783">
        <ele>391</ele>
        <time>2015-12-20T10:18:08.000Z</time>
      </trkpt>
      <trkpt lat="47.49164" lon="6.66783">
        <ele>391</ele>
        <time>2015-12-20T10:18:09.000Z</time>
      </trkpt>
      <trkpt lat="47.49167" lon="6.66782">
        <ele>391</ele>
        <time>2015-12-20T10:18:09.999Z</time>
      </trkpt>
      <trkpt lat="47.4917" lon="6.66782">
        <ele>391</ele>
        <time>2015-12-20T10:18:11.000Z</time>
      </trkpt>
      <trkpt lat="47.49173" lon="6.66781">
        <ele>391</ele>
        <time>2015-12-20T10:18:12.000Z</time>
      </trkpt>
      <trkpt lat="47.49176" lon="6.6678">
        <ele>391</ele>
        <time>2015-12-20T10:18:13.000Z</time>
      </trkpt>
      <trkpt lat="47.49179" lon="6.66779">
        <ele>391</ele>
        <time>2015-12-20T10:18:14.000Z</time>
      </trkpt>
      <trkpt lat="47.49182" lon="6.66778">
        <ele>391</ele>
        <time>2015-12-20T10:18:15.000Z</time>
      </trkpt>
      <trkpt lat="47.49185" lon="6.66776">
        <ele>391</ele>
        <time>2015-12-20T10:18:16.000Z</time>
      </trkpt>
      <trkpt lat="47.49188" lon="6.66775">
        <ele>391</ele>
        <time>2015-12-20T10:18:17.000Z</time>
      </trkpt>
      <trkpt lat="47.49191" lon="6.66774">
        <ele>391</ele>
        <time>2015-12-20T10:18:18.000Z</time>
      </trkpt>
      <trkpt lat="47.49194" lon="6.66773">
        <ele>391</ele>
        <time>2015-12-20T10:18:19.000Z</time>
      </trkpt>
      <trkpt lat="47.49197" lon="6.66772">
        <ele>391</ele>
        <time>2015-12-20T10:18:20.000Z</time>
      </trkpt>
      <trkpt lat="47.492" lon="6.66771">
        <ele>391</ele>
        <time>2015-12-20T10:18:21.000Z</time>
      </trkpt>
      <trkpt lat="47.49203" lon="6.6677">
        <ele>391</ele>
        <time>2015-12-20T10:18:22.000Z</time>
      </trkpt>
      <trkpt lat="47.49206" lon="6.66769">
        <ele>391</ele>
        <time>2015-12-20T10:18:23.000Z</time>
      </trkpt>
      <trkpt lat="47.49208" lon="6.66768">
        <ele>392</ele>
        <time>2015-12-20T10:18:24.000Z</time>
      </trkpt>
      <trkpt lat="47.49211" lon="6.66767">
        <ele>392</ele>
        <time>2015-12-20T10:18:24.999Z</time>
      </trkpt>
      <trkpt lat="47.49214" lon="6.66766">
        <ele>392</ele>
        <time>2015-12-20T10:18:26.000Z</time>
      </trkpt>
      <trkpt lat="47.49216" lon="6.66765">
        <ele>392</ele>
        <time>2015-12-20T10:18:27.000Z</time>
      </trkpt>
      <trkpt lat="47.49218" lon="6.66764">
        <ele>392</ele>
        <time>2015-12-20T10:18:28.000Z</time>
      </trkpt>
      <trkpt lat="47.49221" lon="6.66762">
        <ele>392</ele>
        <time>2015-12-20T10:18:29.000Z</time>
      </trkpt>
      <trkpt lat="47.49224" lon="6.66758">
        <ele>392</ele>
        <time>2015-12-20T10:18:31.000Z</time>
      </trkpt>
      <trkpt lat="47.49226" lon="6.66756">
        <ele>392</ele>
        <time>2015-12-20T10:18:32.000Z</time>
      </trkpt>
      <trkpt lat="47.49228" lon="6.66754">
        <ele>392</ele>
        <time>2015-12-20T10:18:33.000Z</time>
      </trkpt>
      <trkpt lat="47.4923" lon="6.66752">
        <ele>393</ele>
        <time>2015-12-20T10:18:34.000Z</time>
      </trkpt>
      <trkpt lat="47.49232" lon="6.6675">
        <ele>397</ele>
        <time>2015-12-20T10:18:35.000Z</time>
      </trkpt>
      <trkpt lat="47.49234" lon="6.66748">
        <ele>397</ele>
        <time>2015-12-20T10:18:36.000Z</time>
      </trkpt>
      <trkpt lat="47.49236" lon="6.66746">
        <ele>397</ele>
        <time>2015-12-20T10:18:37.000Z</time>
      </trkpt>
      <trkpt lat="47.49238" lon="6.66744">
        <ele>397</ele>
        <time>2015-12-20T10:18:38.000Z</time>
      </trkpt>
      <trkpt lat="47.49242" lon="6.66741">
        <ele>397</ele>
        <time>2015-12-20T10:18:40.000Z</time>
      </trkpt>
      <trkpt lat="47.49244" lon="6.6674">
        <ele>397</ele>
        <time>2015-12-20T10:18:41.000Z</time>
      </trkpt>
      <trkpt lat="47.49247" lon="6.66739">
        <ele>397</ele>
        <time>2015-12-20T10:18:42.000Z</time>
      </trkpt>
      <trkpt lat="47.49249" lon="6.66738">
        <ele>397</ele>
        <time>2015-12-20T10:18:43.000Z</time>
      </trkpt>
      <trkpt lat="47.49252" lon="6.66733">
        <ele>397</ele>
        <time>2015-12-20T10:18:45.000Z</time>
      </trkpt>
      <trkpt lat="47.49254" lon="6.6673">
        <ele>398</ele>
        <time>2015-12-20T10:18:46.000Z</time>
      </trkpt>
      <trkpt lat="47.49256" lon="6.66728">
        <ele>398</ele>
        <time>2015-12-20T10:18:47.000Z</time>
      </trkpt>
      <trkpt lat="47.49258" lon="6.66727">
        <ele>398</ele>
        <time>2015-12-20T10:18:48.000Z</time>
      </trkpt>
      <trkpt lat="47.49261" lon="6.66727">
        <ele>398</ele>
        <time>2015-12-20T10:18:49.000Z</time>
      </trkpt>
      <trkpt lat="47.49264" lon="6.66726">
        <ele>398</ele>
        <time>2015-12-20T10:18:50.000Z</time>
      </trkpt>
      <trkpt lat="47.49266" lon="6.66726">
        <ele>398</ele>
        <time>2015-12-20T10:18:51.000Z</time>
      </trkpt>
      <trkpt lat="47.49269" lon="6.66725">
        <ele>399</ele>
        <time>2015-12-20T10:18:52.000Z</time>
      </trkpt>
      <trkpt lat="47.49271" lon="6.66724">
        <ele>399</ele>
        <time>2015-12-20T10:18:53.000Z</time>
      </trkpt>
      <trkpt lat="47.49274" lon="6.66723">
        <ele>399</ele>
        <time>2015-12-20T10:18:54.000Z</time>
      </trkpt>
      <trkpt lat="47.49277" lon="6.66723">
        <ele>399</ele>
        <time>2015-12-20T10:18:55.000Z</time>
      </trkpt>
      <trkpt lat="47.49279" lon="6.66722">
        <ele>399</ele>
        <time>2015-12-20T10:18:56.000Z</time>
      </trkpt>
      <trkpt lat="47.49282" lon="6.66721">
        <ele>399</ele>
        <time>2015-12-20T10:18:57.000Z</time>
      </trkpt>
      <trkpt lat="47.49285" lon="6.66719">
        <ele>399</ele>
        <time>2015-12-20T10:18:58.000Z</time>
      </trkpt>
      <trkpt lat="47.49288" lon="6.66718">
        <ele>399</ele>
        <time>2015-12-20T10:18:59.000Z</time>
      </trkpt>
      <trkpt lat="47.49291" lon="6.66717">
        <ele>399</ele>
        <time>2015-12-20T10:19:00.000Z</time>
      </trkpt>
      <trkpt lat="47.49294" lon="6.66716">
        <ele>399</ele>
        <time>2015-12-20T10:19:01.000Z</time>
      </trkpt>
      <trkpt lat="47.49298" lon="6.66715">
        <ele>399</ele>
        <time>2015-12-20T10:19:02.000Z</time>
      </trkpt>
      <trkpt lat="47.49301" lon="6.66714">
        <ele>399</ele>
        <time>2015-12-20T10:19:03.000Z</time>
      </trkpt>
      <trkpt lat="47.49304" lon="6.66713">
        <ele>400</ele>
        <time>2015-12-20T10:19:04.000Z</time>
      </trkpt>
      <trkpt lat="47.49307" lon="6.66712">
        <ele>400</ele>
        <time>2015-12-20T10:19:04.999Z</time>
      </trkpt>
      <trkpt lat="47.4931" lon="6.66711">
        <ele>400</ele>
        <time>2015-12-20T10:19:06.000Z</time>
      </trkpt>
      <trkpt lat="47.49314" lon="6.6671">
        <ele>400</ele>
        <time>2015-12-20T10:19:07.000Z</time>
      </trkpt>
      <trkpt lat="47.49317" lon="6.66709">
        <ele>400</ele>
        <time>2015-12-20T10:19:08.000Z</time>
      </trkpt>
      <trkpt lat="47.4932" lon="6.66711">
        <ele>400</ele>
        <time>2015-12-20T10:19:09.000Z</time>
      </trkpt>
      <trkpt lat="47.49322" lon="6.66711">
        <ele>400</ele>
        <time>2015-12-20T10:19:10.000Z</time>
      </trkpt>
      <trkpt lat="47.49324" lon="6.66709">
        <ele>400</ele>
        <time>2015-12-20T10:19:11.000Z</time>
      </trkpt>
      <trkpt lat="47.49327" lon="6.66706">
        <ele>400</ele>
        <time>2015-12-20T10:19:12.000Z</time>
      </trkpt>
      <trkpt lat="47.49329" lon="6.66703">
        <ele>400</ele>
        <time>2015-12-20T10:19:13.000Z</time>
      </trkpt>
      <trkpt lat="47.4933" lon="6.667">
        <ele>401</ele>
        <time>2015-12-20T10:19:14.000Z</time>
      </trkpt>
      <trkpt lat="47.49332" lon="6.66697">
        <ele>401</ele>
        <time>2015-12-20T10:19:15.000Z</time>
      </trkpt>
      <trkpt lat="47.49333" lon="6.66694">
        <ele>401</ele>
        <time>2015-12-20T10:19:16.000Z</time>
      </trkpt>
      <trkpt lat="47.49336" lon="6.6669">
        <ele>400</ele>
        <time>2015-12-20T10:19:18.000Z</time>
      </trkpt>
      <trkpt lat="47.49337" lon="6.66688">
        <ele>400</ele>
        <time>2015-12-20T10:19:19.000Z</time>
      </trkpt>
      <trkpt lat="47.49336" lon="6.66682">
        <ele>401</ele>
        <time>2015-12-20T10:19:42.000Z</time>
      </trkpt>
      <trkpt lat="47.49336" lon="6.66682">
        <ele>401</ele>
        <time>2015-12-20T10:19:43.000Z</time>
      </trkpt>
      <trkpt lat="47.4934" lon="6.6668">
        <ele>402</ele>
        <time>2015-12-20T10:21:05.000Z</time>
      </trkpt>
      <trkpt lat="47.49342" lon="6.6668">
        <ele>401</ele>
        <time>2015-12-20T10:21:06.000Z</time>
      </trkpt>
      <trkpt lat="47.49344" lon="6.66681">
        <ele>401</ele>
        <time>2015-12-20T10:21:07.000Z</time>
      </trkpt>
      <trkpt lat="47.49346" lon="6.66681">
        <ele>401</ele>
        <time>2015-12-20T10:21:08.000Z</time>
      </trkpt>
      <trkpt lat="47.49349" lon="6.66682">
        <ele>400</ele>
        <time>2015-12-20T10:21:09.000Z</time>
      </trkpt>
      <trkpt lat="47.49352" lon="6.66683">
        <ele>400</ele>
        <time>2015-12-20T10:21:10.000Z</time>
      </trkpt>
      <trkpt lat="47.49355" lon="6.66684">
        <ele>400</ele>
        <time>2015-12-20T10:21:11.000Z</time>
      </trkpt>
      <trkpt lat="47.49358" lon="6.66684">
        <ele>400</ele>
        <time>2015-12-20T10:21:12.000Z</time>
      </trkpt>
      <trkpt lat="47.49361" lon="6.66683">
        <ele>399</ele>
        <time>2015-12-20T10:21:13.000Z</time>
      </trkpt>
      <trkpt lat="47.49365" lon="6.6668">
        <ele>399</ele>
        <time>2015-12-20T10:21:14.000Z</time>
      </trkpt>
      <trkpt lat="47.49368" lon="6.66677">
        <ele>399</ele>
        <time>2015-12-20T10:21:15.000Z</time>
      </trkpt>
      <trkpt lat="47.49372" lon="6.66674">
        <ele>399</ele>
        <time>2015-12-20T10:21:16.000Z</time>
      </trkpt>
      <trkpt lat="47.49375" lon="6.66669">
        <ele>399</ele>
        <time>2015-12-20T10:21:17.000Z</time>
      </trkpt>
      <trkpt lat="47.49379" lon="6.66665">
        <ele>403</ele>
        <time>2015-12-20T10:21:18.000Z</time>
      </trkpt>
      <trkpt lat="47.49382" lon="6.6666">
        <ele>403</ele>
        <time>2015-12-20T10:21:19.000Z</time>
      </trkpt>
      <trkpt lat="47.49386" lon="6.66656">
        <ele>403</ele>
        <time>2015-12-20T10:21:20.000Z</time>
      </trkpt>
      <trkpt lat="47.4939" lon="6.66653">
        <ele>403</ele>
        <time>2015-12-20T10:21:21.000Z</time>
      </trkpt>
      <trkpt lat="47.49394" lon="6.66649">
        <ele>403</ele>
        <time>2015-12-20T10:21:22.000Z</time>
      </trkpt>
      <trkpt lat="47.49397" lon="6.66646">
        <ele>403</ele>
        <time>2015-12-20T10:21:23.000Z</time>
      </trkpt>
      <trkpt lat="47.49402" lon="6.66641">
        <ele>403</ele>
        <time>2015-12-20T10:21:24.000Z</time>
      </trkpt>
      <trkpt lat="47.49406" lon="6.66638">
        <ele>403</ele>
        <time>2015-12-20T10:21:25.000Z</time>
      </trkpt>
      <trkpt lat="47.49411" lon="6.66634">
        <ele>403</ele>
        <time>2015-12-20T10:21:26.000Z</time>
      </trkpt>
      <trkpt lat="47.49415" lon="6.66631">
        <ele>403</ele>
        <time>2015-12-20T10:21:27.000Z</time>
      </trkpt>
      <trkpt lat="47.49419" lon="6.66627">
        <ele>400</ele>
        <time>2015-12-20T10:21:28.000Z</time>
      </trkpt>
      <trkpt lat="47.49423" lon="6.66623">
        <ele>400</ele>
        <time>2015-12-20T10:21:29.000Z</time>
      </trkpt>
      <trkpt lat="47.49428" lon="6.66621">
        <ele>400</ele>
        <time>2015-12-20T10:21:29.999Z</time>
      </trkpt>
      <trkpt lat="47.49431" lon="6.6662">
        <ele>400</ele>
        <time>2015-12-20T10:21:31.000Z</time>
      </trkpt>
      <trkpt lat="47.49435" lon="6.66617">
        <ele>400</ele>
        <time>2015-12-20T10:21:32.000Z</time>
      </trkpt>
      <trkpt lat="47.49437" lon="6.66614">
        <ele>401</ele>
        <time>2015-12-20T10:21:33.000Z</time>
      </trkpt>
      <trkpt lat="47.4944" lon="6.66614">
        <ele>401</ele>
        <time>2015-12-20T10:21:34.000Z</time>
      </trkpt>
      <trkpt lat="47.49442" lon="6.66619">
        <ele>400</ele>
        <time>2015-12-20T10:21:35.000Z</time>
      </trkpt>
      <trkpt lat="47.49444" lon="6.66623">
        <ele>400</ele>
        <time>2015-12-20T10:21:36.000Z</time>
      </trkpt>
      <trkpt lat="47.49446" lon="6.66628">
        <ele>400</ele>
        <time>2015-12-20T10:21:37.000Z</time>
      </trkpt>
      <trkpt lat="47.49447" lon="6.66633">
        <ele>399</ele>
        <time>2015-12-20T10:21:38.000Z</time>
      </trkpt>
      <trkpt lat="47.4945" lon="6.66639">
        <ele>399</ele>
        <time>2015-12-20T10:21:39.000Z</time>
      </trkpt>
      <trkpt lat="47.49452" lon="6.66646">
        <ele>399</ele>
        <time>2015-12-20T10:21:40.000Z</time>
      </trkpt>
      <trkpt lat="47.49455" lon="6.66653">
        <ele>399</ele>
        <time>2015-12-20T10:21:41.000Z</time>
      </trkpt>
      <trkpt lat="47.49458" lon="6.66659">
        <ele>398</ele>
        <time>2015-12-20T10:21:41.999Z</time>
      </trkpt>
      <trkpt lat="47.49459" lon="6.66668">
        <ele>394</ele>
        <time>2015-12-20T10:21:43.000Z</time>
      </trkpt>
      <trkpt lat="47.49461" lon="6.66676">
        <ele>393</ele>
        <time>2015-12-20T10:21:44.000Z</time>
      </trkpt>
      <trkpt lat="47.49462" lon="6.66684">
        <ele>393</ele>
        <time>2015-12-20T10:21:45.000Z</time>
      </trkpt>
      <trkpt lat="47.49464" lon="6.66692">
        <ele>393</ele>
        <time>2015-12-20T10:21:45.999Z</time>
      </trkpt>
      <trkpt lat="47.49465" lon="6.667">
        <ele>392</ele>
        <time>2015-12-20T10:21:47.000Z</time>
      </trkpt>
      <trkpt lat="47.49466" lon="6.66708">
        <ele>392</ele>
        <time>2015-12-20T10:21:48.000Z</time>
      </trkpt>
      <trkpt lat="47.49468" lon="6.66716">
        <ele>392</ele>
        <time>2015-12-20T10:21:49.000Z</time>
      </trkpt>
      <trkpt lat="47.4947" lon="6.66726">
        <ele>391</ele>
        <time>2015-12-20T10:21:50.000Z</time>
      </trkpt>
      <trkpt lat="47.49472" lon="6.66735">
        <ele>390</ele>
        <time>2015-12-20T10:21:51.000Z</time>
      </trkpt>
      <trkpt lat="47.49475" lon="6.66745">
        <ele>390</ele>
        <time>2015-12-20T10:21:52.000Z</time>
      </trkpt>
      <trkpt lat="47.49478" lon="6.66756">
        <ele>386</ele>
        <time>2015-12-20T10:21:53.000Z</time>
      </trkpt>
      <trkpt lat="47.49481" lon="6.66767">
        <ele>385</ele>
        <time>2015-12-20T10:21:54.000Z</time>
      </trkpt>
      <trkpt lat="47.49485" lon="6.66778">
        <ele>385</ele>
        <time>2015-12-20T10:21:55.000Z</time>
      </trkpt>
      <trkpt lat="47.4949" lon="6.66789">
        <ele>384</ele>
        <time>2015-12-20T10:21:56.000Z</time>
      </trkpt>
      <trkpt lat="47.49494" lon="6.66799">
        <ele>384</ele>
        <time>2015-12-20T10:21:57.000Z</time>
      </trkpt>
      <trkpt lat="47.49499" lon="6.66809">
        <ele>383</ele>
        <time>2015-12-20T10:21:58.000Z</time>
      </trkpt>
      <trkpt lat="47.49504" lon="6.66819">
        <ele>381</ele>
        <time>2015-12-20T10:21:59.000Z</time>
      </trkpt>
      <trkpt lat="47.49508" lon="6.66829">
        <ele>380</ele>
        <time>2015-12-20T10:22:00.000Z</time>
      </trkpt>
      <trkpt lat="47.49512" lon="6.66837">
        <ele>378</ele>
        <time>2015-12-20T10:22:01.000Z</time>
      </trkpt>
      <trkpt lat="47.49517" lon="6.66845">
        <ele>377</ele>
        <time>2015-12-20T10:22:02.000Z</time>
      </trkpt>
      <trkpt lat="47.49522" lon="6.66854">
        <ele>376</ele>
        <time>2015-12-20T10:22:03.000Z</time>
      </trkpt>
      <trkpt lat="47.49526" lon="6.66864">
        <ele>375</ele>
        <time>2015-12-20T10:22:04.000Z</time>
      </trkpt>
      <trkpt lat="47.4953" lon="6.66875">
        <ele>374</ele>
        <time>2015-12-20T10:22:05.000Z</time>
      </trkpt>
      <trkpt lat="47.49534" lon="6.66886">
        <ele>373</ele>
        <time>2015-12-20T10:22:06.000Z</time>
      </trkpt>
      <trkpt lat="47.49537" lon="6.66897">
        <ele>373</ele>
        <time>2015-12-20T10:22:07.000Z</time>
      </trkpt>
      <trkpt lat="47.49541" lon="6.66909">
        <ele>373</ele>
        <time>2015-12-20T10:22:08.000Z</time>
      </trkpt>
      <trkpt lat="47.49545" lon="6.66919">
        <ele>368</ele>
        <time>2015-12-20T10:22:09.000Z</time>
      </trkpt>
      <trkpt lat="47.49547" lon="6.66931">
        <ele>368</ele>
        <time>2015-12-20T10:22:10.000Z</time>
      </trkpt>
      <trkpt lat="47.49549" lon="6.66942">
        <ele>368</ele>
        <time>2015-12-20T10:22:11.000Z</time>
      </trkpt>
      <trkpt lat="47.4955" lon="6.66954">
        <ele>367</ele>
        <time>2015-12-20T10:22:12.000Z</time>
      </trkpt>
      <trkpt lat="47.49551" lon="6.66965">
        <ele>367</ele>
        <time>2015-12-20T10:22:13.000Z</time>
      </trkpt>
      <trkpt lat="47.49553" lon="6.66977">
        <ele>367</ele>
        <time>2015-12-20T10:22:14.000Z</time>
      </trkpt>
      <trkpt lat="47.49554" lon="6.66987">
        <ele>366</ele>
        <time>2015-12-20T10:22:15.000Z</time>
      </trkpt>
      <trkpt lat="47.49556" lon="6.66997">
        <ele>366</ele>
        <time>2015-12-20T10:22:15.999Z</time>
      </trkpt>
      <trkpt lat="47.49559" lon="6.67006">
        <ele>362</ele>
        <time>2015-12-20T10:22:17.000Z</time>
      </trkpt>
      <trkpt lat="47.49563" lon="6.67012">
        <ele>362</ele>
        <time>2015-12-20T10:22:18.000Z</time>
      </trkpt>
      <trkpt lat="47.49568" lon="6.67018">
        <ele>362</ele>
        <time>2015-12-20T10:22:19.000Z</time>
      </trkpt>
      <trkpt lat="47.49573" lon="6.67023">
        <ele>361</ele>
        <time>2015-12-20T10:22:20.000Z</time>
      </trkpt>
      <trkpt lat="47.49579" lon="6.67027">
        <ele>361</ele>
        <time>2015-12-20T10:22:21.000Z</time>
      </trkpt>
      <trkpt lat="47.49586" lon="6.67033">
        <ele>359</ele>
        <time>2015-12-20T10:22:22.000Z</time>
      </trkpt>
      <trkpt lat="47.49593" lon="6.67036">
        <ele>359</ele>
        <time>2015-12-20T10:22:23.000Z</time>
      </trkpt>
      <trkpt lat="47.496" lon="6.67039">
        <ele>359</ele>
        <time>2015-12-20T10:22:24.000Z</time>
      </trkpt>
      <trkpt lat="47.49607" lon="6.67042">
        <ele>358</ele>
        <time>2015-12-20T10:22:25.000Z</time>
      </trkpt>
      <trkpt lat="47.49613" lon="6.6705">
        <ele>357</ele>
        <time>2015-12-20T10:22:26.000Z</time>
      </trkpt>
      <trkpt lat="47.49619" lon="6.67057">
        <ele>357</ele>
        <time>2015-12-20T10:22:27.000Z</time>
      </trkpt>
      <trkpt lat="47.49627" lon="6.67063">
        <ele>356</ele>
        <time>2015-12-20T10:22:28.000Z</time>
      </trkpt>
      <trkpt lat="47.49634" lon="6.6707">
        <ele>355</ele>
        <time>2015-12-20T10:22:29.000Z</time>
      </trkpt>
      <trkpt lat="47.49641" lon="6.67077">
        <ele>354</ele>
        <time>2015-12-20T10:22:30.000Z</time>
      </trkpt>
      <trkpt lat="47.49648" lon="6.67077">
        <ele>354</ele>
        <time>2015-12-20T10:22:31.000Z</time>
      </trkpt>
      <trkpt lat="47.49655" lon="6.67078">
        <ele>353</ele>
        <time>2015-12-20T10:22:32.000Z</time>
      </trkpt>
      <trkpt lat="47.49662" lon="6.6708">
        <ele>351</ele>
        <time>2015-12-20T10:22:33.000Z</time>
      </trkpt>
      <trkpt lat="47.49668" lon="6.67082">
        <ele>349</ele>
        <time>2015-12-20T10:22:34.000Z</time>
      </trkpt>
      <trkpt lat="47.49675" lon="6.67082">
        <ele>350</ele>
        <time>2015-12-20T10:22:35.000Z</time>
      </trkpt>
      <trkpt lat="47.49683" lon="6.67083">
        <ele>351</ele>
        <time>2015-12-20T10:22:36.000Z</time>
      </trkpt>
      <trkpt lat="47.49689" lon="6.67084">
        <ele>349</ele>
        <time>2015-12-20T10:22:37.000Z</time>
      </trkpt>
      <trkpt lat="47.49694" lon="6.67084">
        <ele>349</ele>
        <time>2015-12-20T10:22:38.000Z</time>
      </trkpt>
      <trkpt lat="47.497" lon="6.67087">
        <ele>349</ele>
        <time>2015-12-20T10:22:39.000Z</time>
      </trkpt>
      <trkpt lat="47.49704" lon="6.67091">
        <ele>349</ele>
        <time>2015-12-20T10:22:40.000Z</time>
      </trkpt>
      <trkpt lat="47.49708" lon="6.67094">
        <ele>350</ele>
        <time>2015-12-20T10:22:41.000Z</time>
      </trkpt>
      <trkpt lat="47.49713" lon="6.67097">
        <ele>350</ele>
        <time>2015-12-20T10:22:42.000Z</time>
      </trkpt>
      <trkpt lat="47.49717" lon="6.67101">
        <ele>350</ele>
        <time>2015-12-20T10:22:43.000Z</time>
      </trkpt>
      <trkpt lat="47.49721" lon="6.67107">
        <ele>350</ele>
        <time>2015-12-20T10:22:44.000Z</time>
      </trkpt>
      <trkpt lat="47.49724" lon="6.67112">
        <ele>350</ele>
        <time>2015-12-20T10:22:45.000Z</time>
      </trkpt>
      <trkpt lat="47.49724" lon="6.6712">
        <ele>350</ele>
        <time>2015-12-20T10:22:46.000Z</time>
      </trkpt>
      <trkpt lat="47.49723" lon="6.67126">
        <ele>350</ele>
        <time>2015-12-20T10:22:47.000Z</time>
      </trkpt>
      <trkpt lat="47.49722" lon="6.67131">
        <ele>350</ele>
        <time>2015-12-20T10:22:48.000Z</time>
      </trkpt>
      <trkpt lat="47.49723" lon="6.6714">
        <ele>350</ele>
        <time>2015-12-20T10:22:49.000Z</time>
      </trkpt>
      <trkpt lat="47.4973" lon="6.67155">
        <ele>350</ele>
        <time>2015-12-20T10:22:50.000Z</time>
      </trkpt>
      <trkpt lat="47.49733" lon="6.67167">
        <ele>351</ele>
        <time>2015-12-20T10:22:51.000Z</time>
      </trkpt>
      <trkpt lat="47.49735" lon="6.67177">
        <ele>351</ele>
        <time>2015-12-20T10:22:52.000Z</time>
      </trkpt>
      <trkpt lat="47.49739" lon="6.67185">
        <ele>351</ele>
        <time>2015-12-20T10:22:53.000Z</time>
      </trkpt>
      <trkpt lat="47.49742" lon="6.67194">
        <ele>351</ele>
        <time>2015-12-20T10:22:54.000Z</time>
      </trkpt>
      <trkpt lat="47.49745" lon="6.67203">
        <ele>352</ele>
        <time>2015-12-20T10:22:55.000Z</time>
      </trkpt>
      <trkpt lat="47.49748" lon="6.6721">
        <ele>352</ele>
        <time>2015-12-20T10:22:56.000Z</time>
      </trkpt>
      <trkpt lat="47.49751" lon="6.67217">
        <ele>353</ele>
        <time>2015-12-20T10:22:57.000Z</time>
      </trkpt>
      <trkpt lat="47.49753" lon="6.67223">
        <ele>353</ele>
        <time>2015-12-20T10:22:57.999Z</time>
      </trkpt>
      <trkpt lat="47.49756" lon="6.67226">
        <ele>353</ele>
        <time>2015-12-20T10:22:59.000Z</time>
      </trkpt>
      <trkpt lat="47.49756" lon="6.67228">
        <ele>353</ele>
        <time>2015-12-20T10:23:00.000Z</time>
      </trkpt>
      <trkpt lat="47.49759" lon="6.67231">
        <ele>353</ele>
        <time>2015-12-20T10:23:01.000Z</time>
      </trkpt>
      <trkpt lat="47.49762" lon="6.67229">
        <ele>354</ele>
        <time>2015-12-20T10:23:02.000Z</time>
      </trkpt>
      <trkpt lat="47.49764" lon="6.67228">
        <ele>354</ele>
        <time>2015-12-20T10:23:03.000Z</time>
      </trkpt>
      <trkpt lat="47.49767" lon="6.67227">
        <ele>354</ele>
        <time>2015-12-20T10:23:04.000Z</time>
      </trkpt>
      <trkpt lat="47.49769" lon="6.67226">
        <ele>354</ele>
        <time>2015-12-20T10:23:04.999Z</time>
      </trkpt>
      <trkpt lat="47.49773" lon="6.67227">
        <ele>354</ele>
        <time>2015-12-20T10:23:06.000Z</time>
      </trkpt>
      <trkpt lat="47.49775" lon="6.67228">
        <ele>354</ele>
        <time>2015-12-20T10:23:07.000Z</time>
      </trkpt>
      <trkpt lat="47.49777" lon="6.67229">
        <ele>354</ele>
        <time>2015-12-20T10:23:08.000Z</time>
      </trkpt>
      <trkpt lat="47.49781" lon="6.67231">
        <ele>354</ele>
        <time>2015-12-20T10:23:10.000Z</time>
      </trkpt>
      <trkpt lat="47.49782" lon="6.6723">
        <ele>354</ele>
        <time>2015-12-20T10:23:11.000Z</time>
      </trkpt>
      <trkpt lat="47.49785" lon="6.67226">
        <ele>354</ele>
        <time>2015-12-20T10:23:13.000Z</time>
      </trkpt>
      <trkpt lat="47.49786" lon="6.67224">
        <ele>354</ele>
        <time>2015-12-20T10:23:14.000Z</time>
      </trkpt>
      <trkpt lat="47.4979" lon="6.67221">
        <ele>354</ele>
        <time>2015-12-20T10:23:16.000Z</time>
      </trkpt>
      <trkpt lat="47.49791" lon="6.6722">
        <ele>354</ele>
        <time>2015-12-20T10:23:16.999Z</time>
      </trkpt>
      <trkpt lat="47.49793" lon="6.67215">
        <ele>354</ele>
        <time>2015-12-20T10:23:20.000Z</time>
      </trkpt>
      <trkpt lat="47.49794" lon="6.67213">
        <ele>354</ele>
        <time>2015-12-20T10:23:20.999Z</time>
      </trkpt>
      <trkpt lat="47.49793" lon="6.67208">
        <ele>354</ele>
        <time>2015-12-20T10:23:23.000Z</time>
      </trkpt>
      <trkpt lat="47.49794" lon="6.67207">
        <ele>354</ele>
        <time>2015-12-20T10:23:24.000Z</time>
      </trkpt>
      <trkpt lat="47.49796" lon="6.67203">
        <ele>354</ele>
        <time>2015-12-20T10:23:25.999Z</time>
      </trkpt>
      <trkpt lat="47.49797" lon="6.672">
        <ele>354</ele>
        <time>2015-12-20T10:23:27.002Z</time>
      </trkpt>
      <trkpt lat="47.49797" lon="6.67196">
        <ele>354</ele>
        <time>2015-12-20T10:23:28.000Z</time>
      </trkpt>
      <trkpt lat="47.49797" lon="6.67193">
        <ele>354</ele>
        <time>2015-12-20T10:23:29.000Z</time>
      </trkpt>
      <trkpt lat="47.498" lon="6.6719">
        <ele>354</ele>
        <time>2015-12-20T10:23:31.000Z</time>
      </trkpt>
      <trkpt lat="47.49802" lon="6.67189">
        <ele>354</ele>
        <time>2015-12-20T10:23:32.000Z</time>
      </trkpt>
      <trkpt lat="47.49805" lon="6.67186">
        <ele>354</ele>
        <time>2015-12-20T10:23:34.000Z</time>
      </trkpt>
      <trkpt lat="47.49807" lon="6.67185">
        <ele>354</ele>
        <time>2015-12-20T10:23:35.000Z</time>
      </trkpt>
      <trkpt lat="47.49808" lon="6.67183">
        <ele>354</ele>
        <time>2015-12-20T10:23:36.000Z</time>
      </trkpt>
      <trkpt lat="47.4981" lon="6.6718">
        <ele>354</ele>
        <time>2015-12-20T10:23:37.000Z</time>
      </trkpt>
      <trkpt lat="47.49812" lon="6.67178">
        <ele>354</ele>
        <time>2015-12-20T10:23:38.000Z</time>
      </trkpt>
      <trkpt lat="47.49814" lon="6.67176">
        <ele>354</ele>
        <time>2015-12-20T10:23:39.000Z</time>
      </trkpt>
      <trkpt lat="47.49816" lon="6.67174">
        <ele>354</ele>
        <time>2015-12-20T10:23:40.000Z</time>
      </trkpt>
      <trkpt lat="47.49819" lon="6.67172">
        <ele>354</ele>
        <time>2015-12-20T10:23:41.000Z</time>
      </trkpt>
      <trkpt lat="47.49821" lon="6.6717">
        <ele>355</ele>
        <time>2015-12-20T10:23:42.000Z</time>
      </trkpt>
      <trkpt lat="47.49822" lon="6.67167">
        <ele>355</ele>
        <time>2015-12-20T10:23:43.000Z</time>
      </trkpt>
      <trkpt lat="47.49824" lon="6.67165">
        <ele>354</ele>
        <time>2015-12-20T10:23:44.000Z</time>
      </trkpt>
      <trkpt lat="47.49825" lon="6.67162">
        <ele>354</ele>
        <time>2015-12-20T10:23:45.000Z</time>
      </trkpt>
      <trkpt lat="47.49827" lon="6.67159">
        <ele>354</ele>
        <time>2015-12-20T10:23:46.000Z</time>
      </trkpt>
      <trkpt lat="47.49829" lon="6.67157">
        <ele>354</ele>
        <time>2015-12-20T10:23:47.000Z</time>
      </trkpt>
      <trkpt lat="47.49831" lon="6.67153">
        <ele>354</ele>
        <time>2015-12-20T10:23:48.000Z</time>
      </trkpt>
      <trkpt lat="47.49833" lon="6.67149">
        <ele>353</ele>
        <time>2015-12-20T10:23:49.000Z</time>
      </trkpt>
      <trkpt lat="47.49836" lon="6.67146">
        <ele>357</ele>
        <time>2015-12-20T10:23:50.000Z</time>
      </trkpt>
      <trkpt lat="47.49838" lon="6.67143">
        <ele>357</ele>
        <time>2015-12-20T10:23:51.000Z</time>
      </trkpt>
      <trkpt lat="47.4984" lon="6.67141">
        <ele>357</ele>
        <time>2015-12-20T10:23:52.000Z</time>
      </trkpt>
      <trkpt lat="47.49842" lon="6.67138">
        <ele>357</ele>
        <time>2015-12-20T10:23:53.000Z</time>
      </trkpt>
      <trkpt lat="47.49844" lon="6.67136">
        <ele>357</ele>
        <time>2015-12-20T10:23:54.000Z</time>
      </trkpt>
      <trkpt lat="47.49846" lon="6.67133">
        <ele>358</ele>
        <time>2015-12-20T10:23:55.000Z</time>
      </trkpt>
      <trkpt lat="47.49848" lon="6.67131">
        <ele>358</ele>
        <time>2015-12-20T10:23:56.000Z</time>
      </trkpt>
      <trkpt lat="47.4985" lon="6.67127">
        <ele>358</ele>
        <time>2015-12-20T10:23:57.000Z</time>
      </trkpt>
      <trkpt lat="47.49852" lon="6.67124">
        <ele>358</ele>
        <time>2015-12-20T10:23:58.000Z</time>
      </trkpt>
      <trkpt lat="47.49854" lon="6.6712">
        <ele>358</ele>
        <time>2015-12-20T10:23:59.000Z</time>
      </trkpt>
      <trkpt lat="47.49856" lon="6.67117">
        <ele>358</ele>
        <time>2015-12-20T10:24:00.000Z</time>
      </trkpt>
      <trkpt lat="47.49858" lon="6.67113">
        <ele>358</ele>
        <time>2015-12-20T10:24:01.000Z</time>
      </trkpt>
      <trkpt lat="47.4986" lon="6.67109">
        <ele>358</ele>
        <time>2015-12-20T10:24:02.000Z</time>
      </trkpt>
      <trkpt lat="47.49861" lon="6.67106">
        <ele>358</ele>
        <time>2015-12-20T10:24:03.000Z</time>
      </trkpt>
      <trkpt lat="47.49863" lon="6.67102">
        <ele>358</ele>
        <time>2015-12-20T10:24:04.000Z</time>
      </trkpt>
      <trkpt lat="47.49864" lon="6.67098">
        <ele>358</ele>
        <time>2015-12-20T10:24:05.000Z</time>
      </trkpt>
      <trkpt lat="47.49866" lon="6.67093">
        <ele>358</ele>
        <time>2015-12-20T10:24:06.000Z</time>
      </trkpt>
      <trkpt lat="47.49867" lon="6.67089">
        <ele>358</ele>
        <time>2015-12-20T10:24:07.000Z</time>
      </trkpt>
      <trkpt lat="47.49869" lon="6.67086">
        <ele>358</ele>
        <time>2015-12-20T10:24:08.000Z</time>
      </trkpt>
      <trkpt lat="47.4987" lon="6.67081">
        <ele>357</ele>
        <time>2015-12-20T10:24:09.000Z</time>
      </trkpt>
      <trkpt lat="47.49871" lon="6.67076">
        <ele>357</ele>
        <time>2015-12-20T10:24:10.000Z</time>
      </trkpt>
      <trkpt lat="47.49872" lon="6.67071">
        <ele>357</ele>
        <time>2015-12-20T10:24:11.000Z</time>
      </trkpt>
      <trkpt lat="47.49873" lon="6.67067">
        <ele>357</ele>
        <time>2015-12-20T10:24:12.000Z</time>
      </trkpt>
      <trkpt lat="47.49874" lon="6.67062">
        <ele>357</ele>
        <time>2015-12-20T10:24:13.000Z</time>
      </trkpt>
      <trkpt lat="47.49875" lon="6.67058">
        <ele>357</ele>
        <time>2015-12-20T10:24:14.000Z</time>
      </trkpt>
      <trkpt lat="47.49875" lon="6.67053">
        <ele>357</ele>
        <time>2015-12-20T10:24:15.000Z</time>
      </trkpt>
      <trkpt lat="47.49876" lon="6.67049">
        <ele>357</ele>
        <time>2015-12-20T10:24:16.000Z</time>
      </trkpt>
      <trkpt lat="47.49877" lon="6.67045">
        <ele>357</ele>
        <time>2015-12-20T10:24:17.000Z</time>
      </trkpt>
      <trkpt lat="47.49878" lon="6.67039">
        <ele>357</ele>
        <time>2015-12-20T10:24:18.000Z</time>
      </trkpt>
      <trkpt lat="47.4988" lon="6.67034">
        <ele>357</ele>
        <time>2015-12-20T10:24:19.000Z</time>
      </trkpt>
      <trkpt lat="47.49881" lon="6.67028">
        <ele>357</ele>
        <time>2015-12-20T10:24:20.000Z</time>
      </trkpt>
      <trkpt lat="47.49883" lon="6.67024">
        <ele>357</ele>
        <time>2015-12-20T10:24:21.000Z</time>
      </trkpt>
      <trkpt lat="47.49884" lon="6.6702">
        <ele>357</ele>
        <time>2015-12-20T10:24:22.000Z</time>
      </trkpt>
      <trkpt lat="47.49885" lon="6.67017">
        <ele>357</ele>
        <time>2015-12-20T10:24:23.000Z</time>
      </trkpt>
      <trkpt lat="47.49885" lon="6.67014">
        <ele>357</ele>
        <time>2015-12-20T10:24:24.000Z</time>
      </trkpt>
      <trkpt lat="47.49886" lon="6.67011">
        <ele>357</ele>
        <time>2015-12-20T10:24:25.000Z</time>
      </trkpt>
      <trkpt lat="47.49888" lon="6.67007">
        <ele>357</ele>
        <time>2015-12-20T10:24:26.000Z</time>
      </trkpt>
      <trkpt lat="47.49889" lon="6.67002">
        <ele>357</ele>
        <time>2015-12-20T10:24:27.000Z</time>
      </trkpt>
      <trkpt lat="47.49891" lon="6.66996">
        <ele>357</ele>
        <time>2015-12-20T10:24:28.000Z</time>
      </trkpt>
      <trkpt lat="47.49892" lon="6.66991">
        <ele>357</ele>
        <time>2015-12-20T10:24:29.000Z</time>
      </trkpt>
      <trkpt lat="47.49894" lon="6.66986">
        <ele>357</ele>
        <time>2015-12-20T10:24:30.000Z</time>
      </trkpt>
      <trkpt lat="47.49896" lon="6.66981">
        <ele>357</ele>
        <time>2015-12-20T10:24:31.000Z</time>
      </trkpt>
      <trkpt lat="47.49898" lon="6.66977">
        <ele>357</ele>
        <time>2015-12-20T10:24:32.000Z</time>
      </trkpt>
      <trkpt lat="47.499" lon="6.66972">
        <ele>357</ele>
        <time>2015-12-20T10:24:33.000Z</time>
      </trkpt>
      <trkpt lat="47.49901" lon="6.66969">
        <ele>357</ele>
        <time>2015-12-20T10:24:34.000Z</time>
      </trkpt>
      <trkpt lat="47.49903" lon="6.66965">
        <ele>357</ele>
        <time>2015-12-20T10:24:35.000Z</time>
      </trkpt>
      <trkpt lat="47.49904" lon="6.66962">
        <ele>357</ele>
        <time>2015-12-20T10:24:36.000Z</time>
      </trkpt>
      <trkpt lat="47.49905" lon="6.66958">
        <ele>357</ele>
        <time>2015-12-20T10:24:37.000Z</time>
      </trkpt>
      <trkpt lat="47.49907" lon="6.66954">
        <ele>357</ele>
        <time>2015-12-20T10:24:38.000Z</time>
      </trkpt>
      <trkpt lat="47.49908" lon="6.6695">
        <ele>357</ele>
        <time>2015-12-20T10:24:39.000Z</time>
      </trkpt>
      <trkpt lat="47.4991" lon="6.66946">
        <ele>357</ele>
        <time>2015-12-20T10:24:40.000Z</time>
      </trkpt>
      <trkpt lat="47.49912" lon="6.66942">
        <ele>357</ele>
        <time>2015-12-20T10:24:41.000Z</time>
      </trkpt>
      <trkpt lat="47.49914" lon="6.66938">
        <ele>357</ele>
        <time>2015-12-20T10:24:42.000Z</time>
      </trkpt>
      <trkpt lat="47.49917" lon="6.66934">
        <ele>357</ele>
        <time>2015-12-20T10:24:43.000Z</time>
      </trkpt>
      <trkpt lat="47.49919" lon="6.6693">
        <ele>359</ele>
        <time>2015-12-20T10:24:44.000Z</time>
      </trkpt>
      <trkpt lat="47.49921" lon="6.66927">
        <ele>359</ele>
        <time>2015-12-20T10:24:45.000Z</time>
      </trkpt>
      <trkpt lat="47.49923" lon="6.66923">
        <ele>359</ele>
        <time>2015-12-20T10:24:46.000Z</time>
      </trkpt>
      <trkpt lat="47.49925" lon="6.66919">
        <ele>359</ele>
        <time>2015-12-20T10:24:47.000Z</time>
      </trkpt>
      <trkpt lat="47.49927" lon="6.66914">
        <ele>358</ele>
        <time>2015-12-20T10:24:48.000Z</time>
      </trkpt>
      <trkpt lat="47.4993" lon="6.66911">
        <ele>358</ele>
        <time>2015-12-20T10:24:49.000Z</time>
      </trkpt>
      <trkpt lat="47.49932" lon="6.66907">
        <ele>358</ele>
        <time>2015-12-20T10:24:50.000Z</time>
      </trkpt>
      <trkpt lat="47.49933" lon="6.66904">
        <ele>358</ele>
        <time>2015-12-20T10:24:51.000Z</time>
      </trkpt>
      <trkpt lat="47.49935" lon="6.66901">
        <ele>358</ele>
        <time>2015-12-20T10:24:52.000Z</time>
      </trkpt>
      <trkpt lat="47.49937" lon="6.66899">
        <ele>358</ele>
        <time>2015-12-20T10:24:53.000Z</time>
      </trkpt>
      <trkpt lat="47.49939" lon="6.66896">
        <ele>358</ele>
        <time>2015-12-20T10:24:54.000Z</time>
      </trkpt>
      <trkpt lat="47.49941" lon="6.66895">
        <ele>358</ele>
        <time>2015-12-20T10:24:55.000Z</time>
      </trkpt>
      <trkpt lat="47.49944" lon="6.66893">
        <ele>358</ele>
        <time>2015-12-20T10:24:56.000Z</time>
      </trkpt>
      <trkpt lat="47.49946" lon="6.66891">
        <ele>358</ele>
        <time>2015-12-20T10:24:57.000Z</time>
      </trkpt>
      <trkpt lat="47.49949" lon="6.66888">
        <ele>358</ele>
        <time>2015-12-20T10:24:58.000Z</time>
      </trkpt>
      <trkpt lat="47.49952" lon="6.66886">
        <ele>358</ele>
        <time>2015-12-20T10:24:59.000Z</time>
      </trkpt>
      <trkpt lat="47.49955" lon="6.66884">
        <ele>358</ele>
        <time>2015-12-20T10:25:00.000Z</time>
      </trkpt>
      <trkpt lat="47.49958" lon="6.66883">
        <ele>358</ele>
        <time>2015-12-20T10:25:01.000Z</time>
      </trkpt>
      <trkpt lat="47.49962" lon="6.66884">
        <ele>358</ele>
        <time>2015-12-20T10:25:03.000Z</time>
      </trkpt>
      <trkpt lat="47.49963" lon="6.66885">
        <ele>358</ele>
        <time>2015-12-20T10:25:04.000Z</time>
      </trkpt>
      <trkpt lat="47.49966" lon="6.66888">
        <ele>358</ele>
        <time>2015-12-20T10:25:06.000Z</time>
      </trkpt>
      <trkpt lat="47.49967" lon="6.66889">
        <ele>359</ele>
        <time>2015-12-20T10:25:07.000Z</time>
      </trkpt>
      <trkpt lat="47.49969" lon="6.66892">
        <ele>359</ele>
        <time>2015-12-20T10:25:09.000Z</time>
      </trkpt>
      <trkpt lat="47.4997" lon="6.66894">
        <ele>359</ele>
        <time>2015-12-20T10:25:10.000Z</time>
      </trkpt>
      <trkpt lat="47.49973" lon="6.66895">
        <ele>359</ele>
        <time>2015-12-20T10:25:12.000Z</time>
      </trkpt>
      <trkpt lat="47.49975" lon="6.66895">
        <ele>359</ele>
        <time>2015-12-20T10:25:13.000Z</time>
      </trkpt>
      <trkpt lat="47.4998" lon="6.66896">
        <ele>359</ele>
        <time>2015-12-20T10:25:15.000Z</time>
      </trkpt>
      <trkpt lat="47.49982" lon="6.66896">
        <ele>359</ele>
        <time>2015-12-20T10:25:16.000Z</time>
      </trkpt>
      <trkpt lat="47.49986" lon="6.66897">
        <ele>359</ele>
        <time>2015-12-20T10:25:18.000Z</time>
      </trkpt>
      <trkpt lat="47.49988" lon="6.66895">
        <ele>359</ele>
        <time>2015-12-20T10:25:19.000Z</time>
      </trkpt>
      <trkpt lat="47.4999" lon="6.66893">
        <ele>359</ele>
        <time>2015-12-20T10:25:20.000Z</time>
      </trkpt>
      <trkpt lat="47.49991" lon="6.6689">
        <ele>359</ele>
        <time>2015-12-20T10:25:21.000Z</time>
      </trkpt>
      <trkpt lat="47.49993" lon="6.66886">
        <ele>359</ele>
        <time>2015-12-20T10:25:22.000Z</time>
      </trkpt>
      <trkpt lat="47.49995" lon="6.66882">
        <ele>359</ele>
        <time>2015-12-20T10:25:23.000Z</time>
      </trkpt>
      <trkpt lat="47.49997" lon="6.66879">
        <ele>359</ele>
        <time>2015-12-20T10:25:24.000Z</time>
      </trkpt>
      <trkpt lat="47.50001" lon="6.66875">
        <ele>361</ele>
        <time>2015-12-20T10:25:25.000Z</time>
      </trkpt>
      <trkpt lat="47.50004" lon="6.66871">
        <ele>361</ele>
        <time>2015-12-20T10:25:26.000Z</time>
      </trkpt>
      <trkpt lat="47.50008" lon="6.66867">
        <ele>361</ele>
        <time>2015-12-20T10:25:27.000Z</time>
      </trkpt>
      <trkpt lat="47.50012" lon="6.66863">
        <ele>361</ele>
        <time>2015-12-20T10:25:28.000Z</time>
      </trkpt>
      <trkpt lat="47.50015" lon="6.66861">
        <ele>361</ele>
        <time>2015-12-20T10:25:29.000Z</time>
      </trkpt>
      <trkpt lat="47.50019" lon="6.66858">
        <ele>361</ele>
        <time>2015-12-20T10:25:30.000Z</time>
      </trkpt>
      <trkpt lat="47.50022" lon="6.66856">
        <ele>361</ele>
        <time>2015-12-20T10:25:31.000Z</time>
      </trkpt>
      <trkpt lat="47.50025" lon="6.66853">
        <ele>361</ele>
        <time>2015-12-20T10:25:32.000Z</time>
      </trkpt>
      <trkpt lat="47.50027" lon="6.6685">
        <ele>362</ele>
        <time>2015-12-20T10:25:33.000Z</time>
      </trkpt>
      <trkpt lat="47.5003" lon="6.66847">
        <ele>362</ele>
        <time>2015-12-20T10:25:34.000Z</time>
      </trkpt>
      <trkpt lat="47.50033" lon="6.66844">
        <ele>362</ele>
        <time>2015-12-20T10:25:35.000Z</time>
      </trkpt>
      <trkpt lat="47.50036" lon="6.66841">
        <ele>362</ele>
        <time>2015-12-20T10:25:36.000Z</time>
      </trkpt>
      <trkpt lat="47.5004" lon="6.66838">
        <ele>362</ele>
        <time>2015-12-20T10:25:37.000Z</time>
      </trkpt>
      <trkpt lat="47.50043" lon="6.66836">
        <ele>362</ele>
        <time>2015-12-20T10:25:38.000Z</time>
      </trkpt>
      <trkpt lat="47.50046" lon="6.66834">
        <ele>362</ele>
        <time>2015-12-20T10:25:39.000Z</time>
      </trkpt>
      <trkpt lat="47.50049" lon="6.66832">
        <ele>361</ele>
        <time>2015-12-20T10:25:40.000Z</time>
      </trkpt>
      <trkpt lat="47.50053" lon="6.6683">
        <ele>361</ele>
        <time>2015-12-20T10:25:41.000Z</time>
      </trkpt>
      <trkpt lat="47.50056" lon="6.66828">
        <ele>361</ele>
        <time>2015-12-20T10:25:42.000Z</time>
      </trkpt>
      <trkpt lat="47.50059" lon="6.66826">
        <ele>361</ele>
        <time>2015-12-20T10:25:43.000Z</time>
      </trkpt>
      <trkpt lat="47.50062" lon="6.66823">
        <ele>361</ele>
        <time>2015-12-20T10:25:44.000Z</time>
      </trkpt>
      <trkpt lat="47.50065" lon="6.66819">
        <ele>361</ele>
        <time>2015-12-20T10:25:45.000Z</time>
      </trkpt>
      <trkpt lat="47.50068" lon="6.66816">
        <ele>361</ele>
        <time>2015-12-20T10:25:46.000Z</time>
      </trkpt>
      <trkpt lat="47.5007" lon="6.66813">
        <ele>361</ele>
        <time>2015-12-20T10:25:46.997Z</time>
      </trkpt>
      <trkpt lat="47.50073" lon="6.66809">
        <ele>361</ele>
        <time>2015-12-20T10:25:48.000Z</time>
      </trkpt>
      <trkpt lat="47.50075" lon="6.66805">
        <ele>361</ele>
        <time>2015-12-20T10:25:49.000Z</time>
      </trkpt>
      <trkpt lat="47.50078" lon="6.66802">
        <ele>361</ele>
        <time>2015-12-20T10:25:50.000Z</time>
      </trkpt>
      <trkpt lat="47.5008" lon="6.66798">
        <ele>361</ele>
        <time>2015-12-20T10:25:51.000Z</time>
      </trkpt>
      <trkpt lat="47.50083" lon="6.66794">
        <ele>360</ele>
        <time>2015-12-20T10:25:52.000Z</time>
      </trkpt>
      <trkpt lat="47.50086" lon="6.66791">
        <ele>362</ele>
        <time>2015-12-20T10:25:53.000Z</time>
      </trkpt>
      <trkpt lat="47.50089" lon="6.66787">
        <ele>362</ele>
        <time>2015-12-20T10:25:54.000Z</time>
      </trkpt>
      <trkpt lat="47.50092" lon="6.66784">
        <ele>362</ele>
        <time>2015-12-20T10:25:55.000Z</time>
      </trkpt>
      <trkpt lat="47.50094" lon="6.6678">
        <ele>362</ele>
        <time>2015-12-20T10:25:56.000Z</time>
      </trkpt>
      <trkpt lat="47.50097" lon="6.66777">
        <ele>361</ele>
        <time>2015-12-20T10:25:57.000Z</time>
      </trkpt>
      <trkpt lat="47.50099" lon="6.66774">
        <ele>361</ele>
        <time>2015-12-20T10:25:58.000Z</time>
      </trkpt>
      <trkpt lat="47.50102" lon="6.66771">
        <ele>361</ele>
        <time>2015-12-20T10:25:59.000Z</time>
      </trkpt>
      <trkpt lat="47.50104" lon="6.66769">
        <ele>361</ele>
        <time>2015-12-20T10:26:00.000Z</time>
      </trkpt>
      <trkpt lat="47.50106" lon="6.66767">
        <ele>361</ele>
        <time>2015-12-20T10:26:01.000Z</time>
      </trkpt>
      <trkpt lat="47.5011" lon="6.66764">
        <ele>361</ele>
        <time>2015-12-20T10:26:04.000Z</time>
      </trkpt>
      <trkpt lat="47.5011" lon="6.66763">
        <ele>361</ele>
        <time>2015-12-20T10:26:05.000Z</time>
      </trkpt>
      <trkpt lat="47.50113" lon="6.66758">
        <ele>361</ele>
        <time>2015-12-20T10:26:09.000Z</time>
      </trkpt>
      <trkpt lat="47.50114" lon="6.66758">
        <ele>361</ele>
        <time>2015-12-20T10:26:10.000Z</time>
      </trkpt>
      <trkpt lat="47.50117" lon="6.66757">
        <ele>361</ele>
        <time>2015-12-20T10:26:12.000Z</time>
      </trkpt>
      <trkpt lat="47.50119" lon="6.66757">
        <ele>361</ele>
        <time>2015-12-20T10:26:13.000Z</time>
      </trkpt>
      <trkpt lat="47.50121" lon="6.66756">
        <ele>362</ele>
        <time>2015-12-20T10:26:14.000Z</time>
      </trkpt>
      <trkpt lat="47.50124" lon="6.66755">
        <ele>362</ele>
        <time>2015-12-20T10:26:15.000Z</time>
      </trkpt>
      <trkpt lat="47.50126" lon="6.66754">
        <ele>362</ele>
        <time>2015-12-20T10:26:16.000Z</time>
      </trkpt>
      <trkpt lat="47.50128" lon="6.6675">
        <ele>362</ele>
        <time>2015-12-20T10:26:17.000Z</time>
      </trkpt>
      <trkpt lat="47.5013" lon="6.66747">
        <ele>358</ele>
        <time>2015-12-20T10:26:18.000Z</time>
      </trkpt>
      <trkpt lat="47.50132" lon="6.66742">
        <ele>358</ele>
        <time>2015-12-20T10:26:19.000Z</time>
      </trkpt>
      <trkpt lat="47.50134" lon="6.66738">
        <ele>358</ele>
        <time>2015-12-20T10:26:20.000Z</time>
      </trkpt>
      <trkpt lat="47.50136" lon="6.66734">
        <ele>358</ele>
        <time>2015-12-20T10:26:21.000Z</time>
      </trkpt>
      <trkpt lat="47.50138" lon="6.6673">
        <ele>358</ele>
        <time>2015-12-20T10:26:22.000Z</time>
      </trkpt>
      <trkpt lat="47.5014" lon="6.66726">
        <ele>358</ele>
        <time>2015-12-20T10:26:23.000Z</time>
      </trkpt>
      <trkpt lat="47.50143" lon="6.66722">
        <ele>358</ele>
        <time>2015-12-20T10:26:24.000Z</time>
      </trkpt>
      <trkpt lat="47.50146" lon="6.66719">
        <ele>358</ele>
        <time>2015-12-20T10:26:25.000Z</time>
      </trkpt>
      <trkpt lat="47.5015" lon="6.66716">
        <ele>357</ele>
        <time>2015-12-20T10:26:26.000Z</time>
      </trkpt>
      <trkpt lat="47.50153" lon="6.66713">
        <ele>357</ele>
        <time>2015-12-20T10:26:27.000Z</time>
      </trkpt>
      <trkpt lat="47.50156" lon="6.6671">
        <ele>357</ele>
        <time>2015-12-20T10:26:28.000Z</time>
      </trkpt>
      <trkpt lat="47.50159" lon="6.66706">
        <ele>357</ele>
        <time>2015-12-20T10:26:29.000Z</time>
      </trkpt>
      <trkpt lat="47.50162" lon="6.66703">
        <ele>357</ele>
        <time>2015-12-20T10:26:30.000Z</time>
      </trkpt>
      <trkpt lat="47.50165" lon="6.66699">
        <ele>357</ele>
        <time>2015-12-20T10:26:31.000Z</time>
      </trkpt>
      <trkpt lat="47.50168" lon="6.66696">
        <ele>358</ele>
        <time>2015-12-20T10:26:32.000Z</time>
      </trkpt>
      <trkpt lat="47.50171" lon="6.66694">
        <ele>358</ele>
        <time>2015-12-20T10:26:33.000Z</time>
      </trkpt>
      <trkpt lat="47.50174" lon="6.66692">
        <ele>358</ele>
        <time>2015-12-20T10:26:34.000Z</time>
      </trkpt>
      <trkpt lat="47.50177" lon="6.6669">
        <ele>358</ele>
        <time>2015-12-20T10:26:35.000Z</time>
      </trkpt>
      <trkpt lat="47.5018" lon="6.66689">
        <ele>358</ele>
        <time>2015-12-20T10:26:36.000Z</time>
      </trkpt>
      <trkpt lat="47.50183" lon="6.66686">
        <ele>358</ele>
        <time>2015-12-20T10:26:37.000Z</time>
      </trkpt>
      <trkpt lat="47.50186" lon="6.66683">
        <ele>358</ele>
        <time>2015-12-20T10:26:38.000Z</time>
      </trkpt>
      <trkpt lat="47.50189" lon="6.66681">
        <ele>358</ele>
        <time>2015-12-20T10:26:39.000Z</time>
      </trkpt>
      <trkpt lat="47.50193" lon="6.66678">
        <ele>358</ele>
        <time>2015-12-20T10:26:40.000Z</time>
      </trkpt>
      <trkpt lat="47.50196" lon="6.66676">
        <ele>358</ele>
        <time>2015-12-20T10:26:41.000Z</time>
      </trkpt>
      <trkpt lat="47.50199" lon="6.66674">
        <ele>358</ele>
        <time>2015-12-20T10:26:42.000Z</time>
      </trkpt>
      <trkpt lat="47.50202" lon="6.66672">
        <ele>358</ele>
        <time>2015-12-20T10:26:43.000Z</time>
      </trkpt>
      <trkpt lat="47.50205" lon="6.6667">
        <ele>358</ele>
        <time>2015-12-20T10:26:44.000Z</time>
      </trkpt>
      <trkpt lat="47.50208" lon="6.66668">
        <ele>359</ele>
        <time>2015-12-20T10:26:45.000Z</time>
      </trkpt>
      <trkpt lat="47.5021" lon="6.66665">
        <ele>356</ele>
        <time>2015-12-20T10:26:46.000Z</time>
      </trkpt>
      <trkpt lat="47.50213" lon="6.66662">
        <ele>356</ele>
        <time>2015-12-20T10:26:47.000Z</time>
      </trkpt>
      <trkpt lat="47.50215" lon="6.66658">
        <ele>356</ele>
        <time>2015-12-20T10:26:48.000Z</time>
      </trkpt>
      <trkpt lat="47.50218" lon="6.66655">
        <ele>356</ele>
        <time>2015-12-20T10:26:49.000Z</time>
      </trkpt>
      <trkpt lat="47.50221" lon="6.66652">
        <ele>356</ele>
        <time>2015-12-20T10:26:50.000Z</time>
      </trkpt>
      <trkpt lat="47.50225" lon="6.66649">
        <ele>356</ele>
        <time>2015-12-20T10:26:51.000Z</time>
      </trkpt>
      <trkpt lat="47.50228" lon="6.66646">
        <ele>356</ele>
        <time>2015-12-20T10:26:52.000Z</time>
      </trkpt>
      <trkpt lat="47.50232" lon="6.66644">
        <ele>356</ele>
        <time>2015-12-20T10:26:53.000Z</time>
      </trkpt>
      <trkpt lat="47.50236" lon="6.66642">
        <ele>356</ele>
        <time>2015-12-20T10:26:54.000Z</time>
      </trkpt>
      <trkpt lat="47.5024" lon="6.6664">
        <ele>356</ele>
        <time>2015-12-20T10:26:55.000Z</time>
      </trkpt>
      <trkpt lat="47.50244" lon="6.66638">
        <ele>356</ele>
        <time>2015-12-20T10:26:56.000Z</time>
      </trkpt>
      <trkpt lat="47.50247" lon="6.66636">
        <ele>356</ele>
        <time>2015-12-20T10:26:57.000Z</time>
      </trkpt>
      <trkpt lat="47.5025" lon="6.66634">
        <ele>357</ele>
        <time>2015-12-20T10:26:58.000Z</time>
      </trkpt>
      <trkpt lat="47.50253" lon="6.66632">
        <ele>357</ele>
        <time>2015-12-20T10:26:59.000Z</time>
      </trkpt>
      <trkpt lat="47.50255" lon="6.6663">
        <ele>357</ele>
        <time>2015-12-20T10:27:00.000Z</time>
      </trkpt>
      <trkpt lat="47.50258" lon="6.66628">
        <ele>357</ele>
        <time>2015-12-20T10:27:01.000Z</time>
      </trkpt>
      <trkpt lat="47.50261" lon="6.66615">
        <ele>357</ele>
        <time>2015-12-20T10:27:02.000Z</time>
      </trkpt>
      <trkpt lat="47.50262" lon="6.66608">
        <ele>356</ele>
        <time>2015-12-20T10:27:03.000Z</time>
      </trkpt>
      <trkpt lat="47.50264" lon="6.66601">
        <ele>356</ele>
        <time>2015-12-20T10:27:04.000Z</time>
      </trkpt>
      <trkpt lat="47.50267" lon="6.66595">
        <ele>356</ele>
        <time>2015-12-20T10:27:05.000Z</time>
      </trkpt>
      <trkpt lat="47.50271" lon="6.66599">
        <ele>356</ele>
        <time>2015-12-20T10:27:06.000Z</time>
      </trkpt>
      <trkpt lat="47.50274" lon="6.666">
        <ele>356</ele>
        <time>2015-12-20T10:27:07.000Z</time>
      </trkpt>
      <trkpt lat="47.50277" lon="6.66603">
        <ele>357</ele>
        <time>2015-12-20T10:27:08.000Z</time>
      </trkpt>
      <trkpt lat="47.5028" lon="6.66605">
        <ele>357</ele>
        <time>2015-12-20T10:27:09.000Z</time>
      </trkpt>
      <trkpt lat="47.50282" lon="6.66608">
        <ele>357</ele>
        <time>2015-12-20T10:27:10.000Z</time>
      </trkpt>
      <trkpt lat="47.50285" lon="6.6661">
        <ele>357</ele>
        <time>2015-12-20T10:27:12.000Z</time>
      </trkpt>
      <trkpt lat="47.50287" lon="6.66612">
        <ele>357</ele>
        <time>2015-12-20T10:27:13.000Z</time>
      </trkpt>
      <trkpt lat="47.5029" lon="6.66616">
        <ele>357</ele>
        <time>2015-12-20T10:27:16.000Z</time>
      </trkpt>
      <trkpt lat="47.50291" lon="6.66617">
        <ele>357</ele>
        <time>2015-12-20T10:27:17.000Z</time>
      </trkpt>
      <trkpt lat="47.50294" lon="6.6662">
        <ele>357</ele>
        <time>2015-12-20T10:27:19.000Z</time>
      </trkpt>
      <trkpt lat="47.50296" lon="6.66622">
        <ele>357</ele>
        <time>2015-12-20T10:27:20.000Z</time>
      </trkpt>
      <trkpt lat="47.50299" lon="6.66625">
        <ele>357</ele>
        <time>2015-12-20T10:27:22.000Z</time>
      </trkpt>
      <trkpt lat="47.50301" lon="6.66626">
        <ele>357</ele>
        <time>2015-12-20T10:27:23.000Z</time>
      </trkpt>
      <trkpt lat="47.50305" lon="6.66629">
        <ele>357</ele>
        <time>2015-12-20T10:27:25.000Z</time>
      </trkpt>
      <trkpt lat="47.50307" lon="6.6663">
        <ele>357</ele>
        <time>2015-12-20T10:27:26.000Z</time>
      </trkpt>
      <trkpt lat="47.50309" lon="6.66633">
        <ele>357</ele>
        <time>2015-12-20T10:27:28.000Z</time>
      </trkpt>
      <trkpt lat="47.5031" lon="6.66635">
        <ele>357</ele>
        <time>2015-12-20T10:27:29.000Z</time>
      </trkpt>
      <trkpt lat="47.50313" lon="6.66638">
        <ele>358</ele>
        <time>2015-12-20T10:27:31.000Z</time>
      </trkpt>
      <trkpt lat="47.50314" lon="6.6664">
        <ele>358</ele>
        <time>2015-12-20T10:27:32.000Z</time>
      </trkpt>
      <trkpt lat="47.50316" lon="6.66643">
        <ele>358</ele>
        <time>2015-12-20T10:27:34.000Z</time>
      </trkpt>
      <trkpt lat="47.50317" lon="6.66645">
        <ele>358</ele>
        <time>2015-12-20T10:27:35.000Z</time>
      </trkpt>
      <trkpt lat="47.50319" lon="6.66647">
        <ele>358</ele>
        <time>2015-12-20T10:27:37.000Z</time>
      </trkpt>
      <trkpt lat="47.5032" lon="6.66649">
        <ele>358</ele>
        <time>2015-12-20T10:27:38.000Z</time>
      </trkpt>
      <trkpt lat="47.50322" lon="6.66653">
        <ele>358</ele>
        <time>2015-12-20T10:27:40.000Z</time>
      </trkpt>
      <trkpt lat="47.50323" lon="6.66655">
        <ele>358</ele>
        <time>2015-12-20T10:27:41.000Z</time>
      </trkpt>
      <trkpt lat="47.50325" lon="6.6666">
        <ele>358</ele>
        <time>2015-12-20T10:27:44.000Z</time>
      </trkpt>
      <trkpt lat="47.50326" lon="6.66661">
        <ele>358</ele>
        <time>2015-12-20T10:27:45.000Z</time>
      </trkpt>
      <trkpt lat="47.50328" lon="6.66666">
        <ele>358</ele>
        <time>2015-12-20T10:27:48.000Z</time>
      </trkpt>
      <trkpt lat="47.50329" lon="6.66667">
        <ele>358</ele>
        <time>2015-12-20T10:27:49.000Z</time>
      </trkpt>
      <trkpt lat="47.50332" lon="6.6667">
        <ele>358</ele>
        <time>2015-12-20T10:27:51.000Z</time>
      </trkpt>
      <trkpt lat="47.50333" lon="6.66672">
        <ele>358</ele>
        <time>2015-12-20T10:27:52.000Z</time>
      </trkpt>
      <trkpt lat="47.50336" lon="6.66674">
        <ele>358</ele>
        <time>2015-12-20T10:27:54.000Z</time>
      </trkpt>
      <trkpt lat="47.50337" lon="6.66675">
        <ele>358</ele>
        <time>2015-12-20T10:27:55.000Z</time>
      </trkpt>
      <trkpt lat="47.50339" lon="6.6668">
        <ele>358</ele>
        <time>2015-12-20T10:27:58.000Z</time>
      </trkpt>
      <trkpt lat="47.5034" lon="6.66681">
        <ele>358</ele>
        <time>2015-12-20T10:27:59.000Z</time>
      </trkpt>
      <trkpt lat="47.50342" lon="6.66685">
        <ele>358</ele>
        <time>2015-12-20T10:28:02.000Z</time>
      </trkpt>
      <trkpt lat="47.50343" lon="6.66687">
        <ele>358</ele>
        <time>2015-12-20T10:28:03.000Z</time>
      </trkpt>
      <trkpt lat="47.50345" lon="6.6669">
        <ele>358</ele>
        <time>2015-12-20T10:28:05.000Z</time>
      </trkpt>
      <trkpt lat="47.50346" lon="6.66692">
        <ele>358</ele>
        <time>2015-12-20T10:28:06.000Z</time>
      </trkpt>
      <trkpt lat="47.50349" lon="6.66696">
        <ele>358</ele>
        <time>2015-12-20T10:28:09.000Z</time>
      </trkpt>
      <trkpt lat="47.50349" lon="6.66697">
        <ele>358</ele>
        <time>2015-12-20T10:28:10.000Z</time>
      </trkpt>
      <trkpt lat="47.50353" lon="6.66699">
        <ele>358</ele>
        <time>2015-12-20T10:28:21.000Z</time>
      </trkpt>
      <trkpt lat="47.50354" lon="6.66699">
        <ele>358</ele>
        <time>2015-12-20T10:28:22.000Z</time>
      </trkpt>
      <trkpt lat="47.50358" lon="6.66698">
        <ele>358</ele>
        <time>2015-12-20T10:29:05.001Z</time>
      </trkpt>
      <trkpt lat="47.50358" lon="6.66698">
        <ele>358</ele>
        <time>2015-12-20T10:29:06.000Z</time>
      </trkpt>
      <trkpt lat="47.50358" lon="6.66703">
        <ele>358</ele>
        <time>2015-12-20T10:29:29.000Z</time>
      </trkpt>
      <trkpt lat="47.50359" lon="6.66705">
        <ele>358</ele>
        <time>2015-12-20T10:29:30.000Z</time>
      </trkpt>
      <trkpt lat="47.50361" lon="6.66709">
        <ele>358</ele>
        <time>2015-12-20T10:29:31.000Z</time>
      </trkpt>
      <trkpt lat="47.50364" lon="6.66713">
        <ele>358</ele>
        <time>2015-12-20T10:29:32.000Z</time>
      </trkpt>
      <trkpt lat="47.50366" lon="6.66716">
        <ele>358</ele>
        <time>2015-12-20T10:29:32.999Z</time>
      </trkpt>
      <trkpt lat="47.50369" lon="6.66719">
        <ele>358</ele>
        <time>2015-12-20T10:29:34.000Z</time>
      </trkpt>
      <trkpt lat="47.50372" lon="6.66721">
        <ele>358</ele>
        <time>2015-12-20T10:29:35.000Z</time>
      </trkpt>
      <trkpt lat="47.50375" lon="6.66724">
        <ele>358</ele>
        <time>2015-12-20T10:29:36.002Z</time>
      </trkpt>
      <trkpt lat="47.50377" lon="6.66727">
        <ele>358</ele>
        <time>2015-12-20T10:29:37.000Z</time>
      </trkpt>
      <trkpt lat="47.50379" lon="6.66731">
        <ele>358</ele>
        <time>2015-12-20T10:29:38.000Z</time>
      </trkpt>
      <trkpt lat="47.5038" lon="6.66736">
        <ele>358</ele>
        <time>2015-12-20T10:29:39.000Z</time>
      </trkpt>
      <trkpt lat="47.50382" lon="6.6674">
        <ele>357</ele>
        <time>2015-12-20T10:29:40.000Z</time>
      </trkpt>
      <trkpt lat="47.50383" lon="6.66745">
        <ele>357</ele>
        <time>2015-12-20T10:29:41.000Z</time>
      </trkpt>
      <trkpt lat="47.50384" lon="6.6675">
        <ele>357</ele>
        <time>2015-12-20T10:29:42.000Z</time>
      </trkpt>
      <trkpt lat="47.50385" lon="6.66755">
        <ele>357</ele>
        <time>2015-12-20T10:29:43.000Z</time>
      </trkpt>
      <trkpt lat="47.50386" lon="6.6676">
        <ele>357</ele>
        <time>2015-12-20T10:29:44.000Z</time>
      </trkpt>
      <trkpt lat="47.50386" lon="6.66766">
        <ele>357</ele>
        <time>2015-12-20T10:29:45.000Z</time>
      </trkpt>
      <trkpt lat="47.50387" lon="6.66772">
        <ele>357</ele>
        <time>2015-12-20T10:29:46.000Z</time>
      </trkpt>
      <trkpt lat="47.50387" lon="6.66778">
        <ele>357</ele>
        <time>2015-12-20T10:29:47.000Z</time>
      </trkpt>
      <trkpt lat="47.50388" lon="6.66784">
        <ele>357</ele>
        <time>2015-12-20T10:29:48.000Z</time>
      </trkpt>
      <trkpt lat="47.50389" lon="6.66789">
        <ele>357</ele>
        <time>2015-12-20T10:29:49.000Z</time>
      </trkpt>
      <trkpt lat="47.50391" lon="6.66794">
        <ele>357</ele>
        <time>2015-12-20T10:29:50.000Z</time>
      </trkpt>
      <trkpt lat="47.50392" lon="6.66798">
        <ele>357</ele>
        <time>2015-12-20T10:29:51.000Z</time>
      </trkpt>
      <trkpt lat="47.50394" lon="6.66802">
        <ele>357</ele>
        <time>2015-12-20T10:29:52.000Z</time>
      </trkpt>
      <trkpt lat="47.50396" lon="6.66806">
        <ele>357</ele>
        <time>2015-12-20T10:29:53.000Z</time>
      </trkpt>
      <trkpt lat="47.50398" lon="6.66812">
        <ele>357</ele>
        <time>2015-12-20T10:29:54.000Z</time>
      </trkpt>
      <trkpt lat="47.504" lon="6.66819">
        <ele>356</ele>
        <time>2015-12-20T10:29:55.000Z</time>
      </trkpt>
      <trkpt lat="47.50404" lon="6.66828">
        <ele>356</ele>
        <time>2015-12-20T10:29:56.000Z</time>
      </trkpt>
      <trkpt lat="47.50407" lon="6.66833">
        <ele>355</ele>
        <time>2015-12-20T10:29:57.000Z</time>
      </trkpt>
      <trkpt lat="47.50409" lon="6.66837">
        <ele>356</ele>
        <time>2015-12-20T10:29:58.000Z</time>
      </trkpt>
      <trkpt lat="47.50413" lon="6.66841">
        <ele>356</ele>
        <time>2015-12-20T10:29:59.000Z</time>
      </trkpt>
      <trkpt lat="47.50416" lon="6.66846">
        <ele>356</ele>
        <time>2015-12-20T10:30:00.000Z</time>
      </trkpt>
      <trkpt lat="47.5042" lon="6.6685">
        <ele>353</ele>
        <time>2015-12-20T10:30:01.000Z</time>
      </trkpt>
      <trkpt lat="47.50423" lon="6.66854">
        <ele>353</ele>
        <time>2015-12-20T10:30:02.000Z</time>
      </trkpt>
      <trkpt lat="47.50426" lon="6.66858">
        <ele>353</ele>
        <time>2015-12-20T10:30:03.000Z</time>
      </trkpt>
      <trkpt lat="47.5043" lon="6.66862">
        <ele>353</ele>
        <time>2015-12-20T10:30:04.000Z</time>
      </trkpt>
      <trkpt lat="47.50433" lon="6.66866">
        <ele>353</ele>
        <time>2015-12-20T10:30:05.000Z</time>
      </trkpt>
      <trkpt lat="47.50437" lon="6.66868">
        <ele>353</ele>
        <time>2015-12-20T10:30:06.000Z</time>
      </trkpt>
      <trkpt lat="47.5044" lon="6.66872">
        <ele>353</ele>
        <time>2015-12-20T10:30:07.000Z</time>
      </trkpt>
      <trkpt lat="47.50442" lon="6.66876">
        <ele>353</ele>
        <time>2015-12-20T10:30:08.000Z</time>
      </trkpt>
      <trkpt lat="47.50445" lon="6.6688">
        <ele>353</ele>
        <time>2015-12-20T10:30:09.000Z</time>
      </trkpt>
      <trkpt lat="47.50447" lon="6.66884">
        <ele>353</ele>
        <time>2015-12-20T10:30:10.000Z</time>
      </trkpt>
      <trkpt lat="47.50451" lon="6.66887">
        <ele>353</ele>
        <time>2015-12-20T10:30:11.000Z</time>
      </trkpt>
      <trkpt lat="47.50454" lon="6.66891">
        <ele>353</ele>
        <time>2015-12-20T10:30:12.000Z</time>
      </trkpt>
      <trkpt lat="47.50458" lon="6.66895">
        <ele>352</ele>
        <time>2015-12-20T10:30:13.000Z</time>
      </trkpt>
      <trkpt lat="47.50461" lon="6.66899">
        <ele>352</ele>
        <time>2015-12-20T10:30:14.000Z</time>
      </trkpt>
      <trkpt lat="47.50465" lon="6.66903">
        <ele>352</ele>
        <time>2015-12-20T10:30:15.000Z</time>
      </trkpt>
      <trkpt lat="47.50469" lon="6.66907">
        <ele>352</ele>
        <time>2015-12-20T10:30:16.000Z</time>
      </trkpt>
      <trkpt lat="47.50472" lon="6.66911">
        <ele>352</ele>
        <time>2015-12-20T10:30:17.000Z</time>
      </trkpt>
      <trkpt lat="47.50476" lon="6.66915">
        <ele>351</ele>
        <time>2015-12-20T10:30:18.000Z</time>
      </trkpt>
      <trkpt lat="47.50479" lon="6.66922">
        <ele>352</ele>
        <time>2015-12-20T10:30:19.000Z</time>
      </trkpt>
      <trkpt lat="47.50483" lon="6.66928">
        <ele>352</ele>
        <time>2015-12-20T10:30:20.000Z</time>
      </trkpt>
      <trkpt lat="47.50486" lon="6.66934">
        <ele>352</ele>
        <time>2015-12-20T10:30:21.000Z</time>
      </trkpt>
      <trkpt lat="47.5049" lon="6.66939">
        <ele>352</ele>
        <time>2015-12-20T10:30:22.000Z</time>
      </trkpt>
      <trkpt lat="47.50493" lon="6.66945">
        <ele>352</ele>
        <time>2015-12-20T10:30:23.000Z</time>
      </trkpt>
      <trkpt lat="47.50496" lon="6.6695">
        <ele>352</ele>
        <time>2015-12-20T10:30:24.000Z</time>
      </trkpt>
      <trkpt lat="47.505" lon="6.66955">
        <ele>352</ele>
        <time>2015-12-20T10:30:25.000Z</time>
      </trkpt>
      <trkpt lat="47.50503" lon="6.66961">
        <ele>350</ele>
        <time>2015-12-20T10:30:26.000Z</time>
      </trkpt>
      <trkpt lat="47.50506" lon="6.66966">
        <ele>350</ele>
        <time>2015-12-20T10:30:27.000Z</time>
      </trkpt>
      <trkpt lat="47.50509" lon="6.66971">
        <ele>350</ele>
        <time>2015-12-20T10:30:28.000Z</time>
      </trkpt>
      <trkpt lat="47.50512" lon="6.66976">
        <ele>350</ele>
        <time>2015-12-20T10:30:29.000Z</time>
      </trkpt>
      <trkpt lat="47.50515" lon="6.66981">
        <ele>350</ele>
        <time>2015-12-20T10:30:30.000Z</time>
      </trkpt>
      <trkpt lat="47.50518" lon="6.66986">
        <ele>350</ele>
        <time>2015-12-20T10:30:31.000Z</time>
      </trkpt>
      <trkpt lat="47.50521" lon="6.66991">
        <ele>350</ele>
        <time>2015-12-20T10:30:32.000Z</time>
      </trkpt>
      <trkpt lat="47.50524" lon="6.66996">
        <ele>350</ele>
        <time>2015-12-20T10:30:33.000Z</time>
      </trkpt>
      <trkpt lat="47.50527" lon="6.67001">
        <ele>351</ele>
        <time>2015-12-20T10:30:34.000Z</time>
      </trkpt>
      <trkpt lat="47.5053" lon="6.67006">
        <ele>351</ele>
        <time>2015-12-20T10:30:35.000Z</time>
      </trkpt>
      <trkpt lat="47.50532" lon="6.6701">
        <ele>351</ele>
        <time>2015-12-20T10:30:36.000Z</time>
      </trkpt>
      <trkpt lat="47.50536" lon="6.67015">
        <ele>351</ele>
        <time>2015-12-20T10:30:37.000Z</time>
      </trkpt>
      <trkpt lat="47.50538" lon="6.67019">
        <ele>351</ele>
        <time>2015-12-20T10:30:38.000Z</time>
      </trkpt>
      <trkpt lat="47.50541" lon="6.67023">
        <ele>351</ele>
        <time>2015-12-20T10:30:39.000Z</time>
      </trkpt>
      <trkpt lat="47.50544" lon="6.67027">
        <ele>351</ele>
        <time>2015-12-20T10:30:40.000Z</time>
      </trkpt>
      <trkpt lat="47.50546" lon="6.67031">
        <ele>351</ele>
        <time>2015-12-20T10:30:41.000Z</time>
      </trkpt>
      <trkpt lat="47.50549" lon="6.67035">
        <ele>351</ele>
        <time>2015-12-20T10:30:42.000Z</time>
      </trkpt>
      <trkpt lat="47.50552" lon="6.67038">
        <ele>351</ele>
        <time>2015-12-20T10:30:43.000Z</time>
      </trkpt>
      <trkpt lat="47.50555" lon="6.67042">
        <ele>351</ele>
        <time>2015-12-20T10:30:44.001Z</time>
      </trkpt>
      <trkpt lat="47.50558" lon="6.67045">
        <ele>351</ele>
        <time>2015-12-20T10:30:45.000Z</time>
      </trkpt>
      <trkpt lat="47.50561" lon="6.67049">
        <ele>351</ele>
        <time>2015-12-20T10:30:46.000Z</time>
      </trkpt>
      <trkpt lat="47.50564" lon="6.67052">
        <ele>351</ele>
        <time>2015-12-20T10:30:47.000Z</time>
      </trkpt>
      <trkpt lat="47.50566" lon="6.67054">
        <ele>351</ele>
        <time>2015-12-20T10:30:48.000Z</time>
      </trkpt>
      <trkpt lat="47.50569" lon="6.67056">
        <ele>351</ele>
        <time>2015-12-20T10:30:49.000Z</time>
      </trkpt>
      <trkpt lat="47.50572" lon="6.67058">
        <ele>351</ele>
        <time>2015-12-20T10:30:50.000Z</time>
      </trkpt>
      <trkpt lat="47.50575" lon="6.67059">
        <ele>351</ele>
        <time>2015-12-20T10:30:51.000Z</time>
      </trkpt>
      <trkpt lat="47.50579" lon="6.67061">
        <ele>351</ele>
        <time>2015-12-20T10:30:52.000Z</time>
      </trkpt>
      <trkpt lat="47.50583" lon="6.67064">
        <ele>351</ele>
        <time>2015-12-20T10:30:53.000Z</time>
      </trkpt>
      <trkpt lat="47.50587" lon="6.67066">
        <ele>352</ele>
        <time>2015-12-20T10:30:54.000Z</time>
      </trkpt>
      <trkpt lat="47.50591" lon="6.67069">
        <ele>352</ele>
        <time>2015-12-20T10:30:55.000Z</time>
      </trkpt>
      <trkpt lat="47.50595" lon="6.67071">
        <ele>353</ele>
        <time>2015-12-20T10:30:56.000Z</time>
      </trkpt>
      <trkpt lat="47.50599" lon="6.67072">
        <ele>353</ele>
        <time>2015-12-20T10:30:57.000Z</time>
      </trkpt>
      <trkpt lat="47.50603" lon="6.67074">
        <ele>353</ele>
        <time>2015-12-20T10:30:58.000Z</time>
      </trkpt>
      <trkpt lat="47.50606" lon="6.67075">
        <ele>353</ele>
        <time>2015-12-20T10:30:59.000Z</time>
      </trkpt>
      <trkpt lat="47.5061" lon="6.67076">
        <ele>353</ele>
        <time>2015-12-20T10:31:00.000Z</time>
      </trkpt>
      <trkpt lat="47.50614" lon="6.67077">
        <ele>353</ele>
        <time>2015-12-20T10:31:01.000Z</time>
      </trkpt>
      <trkpt lat="47.50617" lon="6.67077">
        <ele>353</ele>
        <time>2015-12-20T10:31:02.000Z</time>
      </trkpt>
      <trkpt lat="47.50621" lon="6.67078">
        <ele>353</ele>
        <time>2015-12-20T10:31:03.000Z</time>
      </trkpt>
      <trkpt lat="47.50625" lon="6.67079">
        <ele>353</ele>
        <time>2015-12-20T10:31:04.000Z</time>
      </trkpt>
      <trkpt lat="47.50629" lon="6.67081">
        <ele>353</ele>
        <time>2015-12-20T10:31:05.000Z</time>
      </trkpt>
      <trkpt lat="47.50632" lon="6.67083">
        <ele>354</ele>
        <time>2015-12-20T10:31:06.000Z</time>
      </trkpt>
      <trkpt lat="47.50635" lon="6.67086">
        <ele>354</ele>
        <time>2015-12-20T10:31:07.000Z</time>
      </trkpt>
      <trkpt lat="47.50638" lon="6.6709">
        <ele>354</ele>
        <time>2015-12-20T10:31:08.000Z</time>
      </trkpt>
      <trkpt lat="47.5064" lon="6.67093">
        <ele>354</ele>
        <time>2015-12-20T10:31:09.000Z</time>
      </trkpt>
      <trkpt lat="47.50641" lon="6.67096">
        <ele>354</ele>
        <time>2015-12-20T10:31:10.000Z</time>
      </trkpt>
      <trkpt lat="47.50642" lon="6.67099">
        <ele>354</ele>
        <time>2015-12-20T10:31:11.000Z</time>
      </trkpt>
      <trkpt lat="47.50644" lon="6.67102">
        <ele>354</ele>
        <time>2015-12-20T10:31:12.000Z</time>
      </trkpt>
      <trkpt lat="47.50645" lon="6.67106">
        <ele>354</ele>
        <time>2015-12-20T10:31:13.000Z</time>
      </trkpt>
      <trkpt lat="47.50646" lon="6.67109">
        <ele>354</ele>
        <time>2015-12-20T10:31:14.000Z</time>
      </trkpt>
      <trkpt lat="47.50647" lon="6.67113">
        <ele>354</ele>
        <time>2015-12-20T10:31:15.000Z</time>
      </trkpt>
      <trkpt lat="47.50648" lon="6.67116">
        <ele>354</ele>
        <time>2015-12-20T10:31:16.000Z</time>
      </trkpt>
      <trkpt lat="47.50649" lon="6.67119">
        <ele>355</ele>
        <time>2015-12-20T10:31:17.000Z</time>
      </trkpt>
      <trkpt lat="47.50651" lon="6.67122">
        <ele>355</ele>
        <time>2015-12-20T10:31:18.000Z</time>
      </trkpt>
      <trkpt lat="47.50652" lon="6.67124">
        <ele>355</ele>
        <time>2015-12-20T10:31:19.000Z</time>
      </trkpt>
      <trkpt lat="47.50653" lon="6.67127">
        <ele>355</ele>
        <time>2015-12-20T10:31:20.000Z</time>
      </trkpt>
      <trkpt lat="47.50656" lon="6.67132">
        <ele>355</ele>
        <time>2015-12-20T10:31:22.000Z</time>
      </trkpt>
      <trkpt lat="47.50657" lon="6.67134">
        <ele>355</ele>
        <time>2015-12-20T10:31:22.999Z</time>
      </trkpt>
      <trkpt lat="47.5066" lon="6.67139">
        <ele>355</ele>
        <time>2015-12-20T10:31:25.001Z</time>
      </trkpt>
      <trkpt lat="47.50661" lon="6.67142">
        <ele>355</ele>
        <time>2015-12-20T10:31:26.000Z</time>
      </trkpt>
      <trkpt lat="47.50663" lon="6.67147">
        <ele>355</ele>
        <time>2015-12-20T10:31:28.000Z</time>
      </trkpt>
      <trkpt lat="47.50664" lon="6.6715">
        <ele>355</ele>
        <time>2015-12-20T10:31:29.000Z</time>
      </trkpt>
      <trkpt lat="47.50666" lon="6.67155">
        <ele>355</ele>
        <time>2015-12-20T10:31:31.000Z</time>
      </trkpt>
      <trkpt lat="47.50668" lon="6.67158">
        <ele>356</ele>
        <time>2015-12-20T10:31:32.000Z</time>
      </trkpt>
      <trkpt lat="47.5067" lon="6.67163">
        <ele>356</ele>
        <time>2015-12-20T10:31:34.000Z</time>
      </trkpt>
      <trkpt lat="47.50671" lon="6.67164">
        <ele>356</ele>
        <time>2015-12-20T10:31:35.000Z</time>
      </trkpt>
      <trkpt lat="47.50674" lon="6.67168">
        <ele>357</ele>
        <time>2015-12-20T10:31:37.000Z</time>
      </trkpt>
      <trkpt lat="47.50675" lon="6.6717">
        <ele>358</ele>
        <time>2015-12-20T10:31:38.000Z</time>
      </trkpt>
      <trkpt lat="47.50678" lon="6.67173">
        <ele>358</ele>
        <time>2015-12-20T10:31:40.000Z</time>
      </trkpt>
      <trkpt lat="47.50679" lon="6.67175">
        <ele>358</ele>
        <time>2015-12-20T10:31:41.000Z</time>
      </trkpt>
      <trkpt lat="47.50681" lon="6.67177">
        <ele>359</ele>
        <time>2015-12-20T10:31:42.000Z</time>
      </trkpt>
      <trkpt lat="47.50683" lon="6.67179">
        <ele>359</ele>
        <time>2015-12-20T10:31:43.000Z</time>
      </trkpt>
      <trkpt lat="47.50686" lon="6.67183">
        <ele>359</ele>
        <time>2015-12-20T10:31:45.000Z</time>
      </trkpt>
      <trkpt lat="47.50687" lon="6.67185">
        <ele>360</ele>
        <time>2015-12-20T10:31:46.000Z</time>
      </trkpt>
      <trkpt lat="47.50689" lon="6.6719">
        <ele>360</ele>
        <time>2015-12-20T10:31:48.000Z</time>
      </trkpt>
      <trkpt lat="47.5069" lon="6.67192">
        <ele>360</ele>
        <time>2015-12-20T10:31:49.000Z</time>
      </trkpt>
      <trkpt lat="47.50692" lon="6.67197">
        <ele>361</ele>
        <time>2015-12-20T10:31:51.000Z</time>
      </trkpt>
      <trkpt lat="47.50693" lon="6.672">
        <ele>361</ele>
        <time>2015-12-20T10:31:52.000Z</time>
      </trkpt>
      <trkpt lat="47.50695" lon="6.67205">
        <ele>361</ele>
        <time>2015-12-20T10:31:54.000Z</time>
      </trkpt>
      <trkpt lat="47.50696" lon="6.67207">
        <ele>361</ele>
        <time>2015-12-20T10:31:55.000Z</time>
      </trkpt>
      <trkpt lat="47.50698" lon="6.67212">
        <ele>362</ele>
        <time>2015-12-20T10:31:57.000Z</time>
      </trkpt>
      <trkpt lat="47.507" lon="6.67215">
        <ele>362</ele>
        <time>2015-12-20T10:31:58.000Z</time>
      </trkpt>
      <trkpt lat="47.50702" lon="6.67219">
        <ele>362</ele>
        <time>2015-12-20T10:32:00.000Z</time>
      </trkpt>
      <trkpt lat="47.50703" lon="6.67222">
        <ele>362</ele>
        <time>2015-12-20T10:32:01.000Z</time>
      </trkpt>
      <trkpt lat="47.50705" lon="6.67226">
        <ele>362</ele>
        <time>2015-12-20T10:32:03.000Z</time>
      </trkpt>
      <trkpt lat="47.50706" lon="6.67229">
        <ele>363</ele>
        <time>2015-12-20T10:32:04.000Z</time>
      </trkpt>
      <trkpt lat="47.50709" lon="6.67233">
        <ele>363</ele>
        <time>2015-12-20T10:32:06.000Z</time>
      </trkpt>
      <trkpt lat="47.50711" lon="6.67236">
        <ele>363</ele>
        <time>2015-12-20T10:32:07.000Z</time>
      </trkpt>
      <trkpt lat="47.50713" lon="6.6724">
        <ele>363</ele>
        <time>2015-12-20T10:32:09.000Z</time>
      </trkpt>
      <trkpt lat="47.50715" lon="6.67243">
        <ele>363</ele>
        <time>2015-12-20T10:32:10.000Z</time>
      </trkpt>
      <trkpt lat="47.50717" lon="6.67247">
        <ele>363</ele>
        <time>2015-12-20T10:32:12.000Z</time>
      </trkpt>
      <trkpt lat="47.50718" lon="6.6725">
        <ele>363</ele>
        <time>2015-12-20T10:32:13.000Z</time>
      </trkpt>
      <trkpt lat="47.50718" lon="6.67256">
        <ele>370</ele>
        <time>2015-12-20T10:32:16.000Z</time>
      </trkpt>
      <trkpt lat="47.50718" lon="6.67258">
        <ele>370</ele>
        <time>2015-12-20T10:32:17.000Z</time>
      </trkpt>
      <trkpt lat="47.50715" lon="6.67262">
        <ele>371</ele>
        <time>2015-12-20T10:32:20.000Z</time>
      </trkpt>
      <trkpt lat="47.50714" lon="6.67264">
        <ele>371</ele>
        <time>2015-12-20T10:32:21.000Z</time>
      </trkpt>
      <trkpt lat="47.5071" lon="6.67267">
        <ele>372</ele>
        <time>2015-12-20T10:32:23.000Z</time>
      </trkpt>
      <trkpt lat="47.50709" lon="6.67269">
        <ele>372</ele>
        <time>2015-12-20T10:32:24.000Z</time>
      </trkpt>
      <trkpt lat="47.50705" lon="6.67273">
        <ele>372</ele>
        <time>2015-12-20T10:32:26.000Z</time>
      </trkpt>
      <trkpt lat="47.50704" lon="6.67274">
        <ele>372</ele>
        <time>2015-12-20T10:32:27.000Z</time>
      </trkpt>
      <trkpt lat="47.507" lon="6.67277">
        <ele>373</ele>
        <time>2015-12-20T10:32:29.000Z</time>
      </trkpt>
      <trkpt lat="47.50699" lon="6.67279">
        <ele>373</ele>
        <time>2015-12-20T10:32:30.000Z</time>
      </trkpt>
      <trkpt lat="47.50695" lon="6.67282">
        <ele>373</ele>
        <time>2015-12-20T10:32:32.000Z</time>
      </trkpt>
      <trkpt lat="47.50693" lon="6.67283">
        <ele>373</ele>
        <time>2015-12-20T10:32:33.000Z</time>
      </trkpt>
      <trkpt lat="47.50689" lon="6.67285">
        <ele>374</ele>
        <time>2015-12-20T10:32:35.000Z</time>
      </trkpt>
      <trkpt lat="47.50687" lon="6.67287">
        <ele>374</ele>
        <time>2015-12-20T10:32:36.000Z</time>
      </trkpt>
      <trkpt lat="47.50683" lon="6.6729">
        <ele>374</ele>
        <time>2015-12-20T10:32:38.000Z</time>
      </trkpt>
      <trkpt lat="47.50681" lon="6.67291">
        <ele>374</ele>
        <time>2015-12-20T10:32:39.000Z</time>
      </trkpt>
      <trkpt lat="47.50677" lon="6.67294">
        <ele>375</ele>
        <time>2015-12-20T10:32:41.000Z</time>
      </trkpt>
      <trkpt lat="47.50675" lon="6.67295">
        <ele>375</ele>
        <time>2015-12-20T10:32:42.000Z</time>
      </trkpt>
      <trkpt lat="47.50673" lon="6.67297">
        <ele>375</ele>
        <time>2015-12-20T10:32:43.000Z</time>
      </trkpt>
      <trkpt lat="47.50671" lon="6.67299">
        <ele>375</ele>
        <time>2015-12-20T10:32:44.000Z</time>
      </trkpt>
      <trkpt lat="47.50667" lon="6.67302">
        <ele>376</ele>
        <time>2015-12-20T10:32:45.999Z</time>
      </trkpt>
      <trkpt lat="47.50666" lon="6.67303">
        <ele>376</ele>
        <time>2015-12-20T10:32:47.000Z</time>
      </trkpt>
      <trkpt lat="47.50663" lon="6.67305">
        <ele>376</ele>
        <time>2015-12-20T10:32:50.000Z</time>
      </trkpt>
      <trkpt lat="47.50662" lon="6.67306">
        <ele>376</ele>
        <time>2015-12-20T10:32:51.000Z</time>
      </trkpt>
      <trkpt lat="47.50659" lon="6.67308">
        <ele>376</ele>
        <time>2015-12-20T10:32:53.000Z</time>
      </trkpt>
      <trkpt lat="47.50657" lon="6.6731">
        <ele>376</ele>
        <time>2015-12-20T10:32:54.000Z</time>
      </trkpt>
      <trkpt lat="47.50653" lon="6.67312">
        <ele>376</ele>
        <time>2015-12-20T10:32:56.000Z</time>
      </trkpt>
      <trkpt lat="47.50651" lon="6.67314">
        <ele>376</ele>
        <time>2015-12-20T10:32:57.000Z</time>
      </trkpt>
      <trkpt lat="47.50649" lon="6.67315">
        <ele>376</ele>
        <time>2015-12-20T10:32:58.000Z</time>
      </trkpt>
      <trkpt lat="47.50647" lon="6.67317">
        <ele>376</ele>
        <time>2015-12-20T10:32:59.000Z</time>
      </trkpt>
      <trkpt lat="47.50645" lon="6.67319">
        <ele>376</ele>
        <time>2015-12-20T10:33:00.000Z</time>
      </trkpt>
      <trkpt lat="47.50643" lon="6.6732">
        <ele>376</ele>
        <time>2015-12-20T10:33:01.000Z</time>
      </trkpt>
      <trkpt lat="47.5064" lon="6.67322">
        <ele>376</ele>
        <time>2015-12-20T10:33:03.000Z</time>
      </trkpt>
      <trkpt lat="47.50638" lon="6.67322">
        <ele>376</ele>
        <time>2015-12-20T10:33:04.000Z</time>
      </trkpt>
      <trkpt lat="47.50634" lon="6.67324">
        <ele>375</ele>
        <time>2015-12-20T10:33:06.000Z</time>
      </trkpt>
      <trkpt lat="47.50632" lon="6.67324">
        <ele>375</ele>
        <time>2015-12-20T10:33:07.000Z</time>
      </trkpt>
      <trkpt lat="47.5063" lon="6.67324">
        <ele>375</ele>
        <time>2015-12-20T10:33:08.000Z</time>
      </trkpt>
      <trkpt lat="47.50627" lon="6.67324">
        <ele>375</ele>
        <time>2015-12-20T10:33:09.000Z</time>
      </trkpt>
      <trkpt lat="47.50624" lon="6.67323">
        <ele>374</ele>
        <time>2015-12-20T10:33:10.000Z</time>
      </trkpt>
      <trkpt lat="47.50621" lon="6.67323">
        <ele>374</ele>
        <time>2015-12-20T10:33:11.000Z</time>
      </trkpt>
      <trkpt lat="47.50618" lon="6.67322">
        <ele>374</ele>
        <time>2015-12-20T10:33:12.000Z</time>
      </trkpt>
      <trkpt lat="47.50615" lon="6.67321">
        <ele>374</ele>
        <time>2015-12-20T10:33:13.000Z</time>
      </trkpt>
      <trkpt lat="47.50612" lon="6.6732">
        <ele>374</ele>
        <time>2015-12-20T10:33:14.000Z</time>
      </trkpt>
      <trkpt lat="47.50609" lon="6.6732">
        <ele>373</ele>
        <time>2015-12-20T10:33:15.000Z</time>
      </trkpt>
      <trkpt lat="47.50607" lon="6.67319">
        <ele>373</ele>
        <time>2015-12-20T10:33:16.000Z</time>
      </trkpt>
      <trkpt lat="47.50604" lon="6.67319">
        <ele>373</ele>
        <time>2015-12-20T10:33:17.000Z</time>
      </trkpt>
      <trkpt lat="47.50601" lon="6.67319">
        <ele>373</ele>
        <time>2015-12-20T10:33:18.000Z</time>
      </trkpt>
      <trkpt lat="47.50599" lon="6.67319">
        <ele>373</ele>
        <time>2015-12-20T10:33:19.000Z</time>
      </trkpt>
      <trkpt lat="47.50595" lon="6.67319">
        <ele>373</ele>
        <time>2015-12-20T10:33:21.000Z</time>
      </trkpt>
      <trkpt lat="47.50593" lon="6.67319">
        <ele>373</ele>
        <time>2015-12-20T10:33:22.000Z</time>
      </trkpt>
      <trkpt lat="47.5059" lon="6.67323">
        <ele>373</ele>
        <time>2015-12-20T10:33:25.000Z</time>
      </trkpt>
      <trkpt lat="47.50589" lon="6.67325">
        <ele>374</ele>
        <time>2015-12-20T10:33:26.000Z</time>
      </trkpt>
      <trkpt lat="47.50589" lon="6.6733">
        <ele>374</ele>
        <time>2015-12-20T10:33:28.000Z</time>
      </trkpt>
      <trkpt lat="47.50589" lon="6.67333">
        <ele>374</ele>
        <time>2015-12-20T10:33:29.000Z</time>
      </trkpt>
      <trkpt lat="47.50589" lon="6.67338">
        <ele>376</ele>
        <time>2015-12-20T10:33:31.000Z</time>
      </trkpt>
      <trkpt lat="47.5059" lon="6.6734">
        <ele>376</ele>
        <time>2015-12-20T10:33:32.000Z</time>
      </trkpt>
      <trkpt lat="47.5059" lon="6.67345">
        <ele>377</ele>
        <time>2015-12-20T10:33:34.000Z</time>
      </trkpt>
      <trkpt lat="47.50591" lon="6.67347">
        <ele>377</ele>
        <time>2015-12-20T10:33:35.000Z</time>
      </trkpt>
      <trkpt lat="47.50593" lon="6.67351">
        <ele>378</ele>
        <time>2015-12-20T10:33:37.000Z</time>
      </trkpt>
      <trkpt lat="47.50594" lon="6.67353">
        <ele>378</ele>
        <time>2015-12-20T10:33:38.000Z</time>
      </trkpt>
      <trkpt lat="47.50595" lon="6.67357">
        <ele>378</ele>
        <time>2015-12-20T10:33:40.000Z</time>
      </trkpt>
      <trkpt lat="47.50596" lon="6.67359">
        <ele>378</ele>
        <time>2015-12-20T10:33:41.000Z</time>
      </trkpt>
      <trkpt lat="47.50597" lon="6.67364">
        <ele>379</ele>
        <time>2015-12-20T10:33:43.001Z</time>
      </trkpt>
      <trkpt lat="47.50599" lon="6.67366">
        <ele>379</ele>
        <time>2015-12-20T10:33:44.000Z</time>
      </trkpt>
      <trkpt lat="47.50601" lon="6.6737">
        <ele>379</ele>
        <time>2015-12-20T10:33:46.000Z</time>
      </trkpt>
      <trkpt lat="47.50601" lon="6.67372">
        <ele>379</ele>
        <time>2015-12-20T10:33:47.000Z</time>
      </trkpt>
      <trkpt lat="47.50603" lon="6.67377">
        <ele>380</ele>
        <time>2015-12-20T10:33:49.000Z</time>
      </trkpt>
      <trkpt lat="47.50604" lon="6.6738">
        <ele>380</ele>
        <time>2015-12-20T10:33:50.000Z</time>
      </trkpt>
      <trkpt lat="47.50606" lon="6.67384">
        <ele>380</ele>
        <time>2015-12-20T10:33:52.000Z</time>
      </trkpt>
      <trkpt lat="47.50607" lon="6.67386">
        <ele>380</ele>
        <time>2015-12-20T10:33:53.000Z</time>
      </trkpt>
      <trkpt lat="47.50609" lon="6.6739">
        <ele>380</ele>
        <time>2015-12-20T10:33:55.000Z</time>
      </trkpt>
      <trkpt lat="47.50609" lon="6.67393">
        <ele>380</ele>
        <time>2015-12-20T10:33:56.000Z</time>
      </trkpt>
      <trkpt lat="47.50611" lon="6.67397">
        <ele>380</ele>
        <time>2015-12-20T10:33:58.000Z</time>
      </trkpt>
      <trkpt lat="47.50612" lon="6.67399">
        <ele>380</ele>
        <time>2015-12-20T10:33:59.000Z</time>
      </trkpt>
      <trkpt lat="47.50613" lon="6.67403">
        <ele>381</ele>
        <time>2015-12-20T10:34:01.000Z</time>
      </trkpt>
      <trkpt lat="47.50614" lon="6.67405">
        <ele>381</ele>
        <time>2015-12-20T10:34:02.000Z</time>
      </trkpt>
      <trkpt lat="47.50615" lon="6.67409">
        <ele>381</ele>
        <time>2015-12-20T10:34:04.000Z</time>
      </trkpt>
      <trkpt lat="47.50616" lon="6.67411">
        <ele>381</ele>
        <time>2015-12-20T10:34:05.000Z</time>
      </trkpt>
      <trkpt lat="47.50617" lon="6.67415">
        <ele>381</ele>
        <time>2015-12-20T10:34:07.000Z</time>
      </trkpt>
      <trkpt lat="47.50618" lon="6.67417">
        <ele>382</ele>
        <time>2015-12-20T10:34:08.000Z</time>
      </trkpt>
      <trkpt lat="47.5062" lon="6.67421">
        <ele>382</ele>
        <time>2015-12-20T10:34:10.000Z</time>
      </trkpt>
      <trkpt lat="47.5062" lon="6.67423">
        <ele>382</ele>
        <time>2015-12-20T10:34:10.999Z</time>
      </trkpt>
      <trkpt lat="47.50623" lon="6.67428">
        <ele>383</ele>
        <time>2015-12-20T10:34:13.000Z</time>
      </trkpt>
      <trkpt lat="47.50624" lon="6.67431">
        <ele>383</ele>
        <time>2015-12-20T10:34:14.000Z</time>
      </trkpt>
      <trkpt lat="47.50626" lon="6.67434">
        <ele>383</ele>
        <time>2015-12-20T10:34:15.000Z</time>
      </trkpt>
      <trkpt lat="47.50627" lon="6.67437">
        <ele>383</ele>
        <time>2015-12-20T10:34:16.000Z</time>
      </trkpt>
      <trkpt lat="47.50629" lon="6.6744">
        <ele>383</ele>
        <time>2015-12-20T10:34:17.000Z</time>
      </trkpt>
      <trkpt lat="47.5063" lon="6.67443">
        <ele>383</ele>
        <time>2015-12-20T10:34:18.000Z</time>
      </trkpt>
      <trkpt lat="47.50631" lon="6.67447">
        <ele>383</ele>
        <time>2015-12-20T10:34:19.000Z</time>
      </trkpt>
      <trkpt lat="47.50633" lon="6.6745">
        <ele>383</ele>
        <time>2015-12-20T10:34:20.000Z</time>
      </trkpt>
      <trkpt lat="47.50634" lon="6.67454">
        <ele>383</ele>
        <time>2015-12-20T10:34:21.000Z</time>
      </trkpt>
      <trkpt lat="47.50635" lon="6.67457">
        <ele>383</ele>
        <time>2015-12-20T10:34:22.000Z</time>
      </trkpt>
      <trkpt lat="47.50636" lon="6.67459">
        <ele>383</ele>
        <time>2015-12-20T10:34:23.000Z</time>
      </trkpt>
      <trkpt lat="47.50637" lon="6.67462">
        <ele>384</ele>
        <time>2015-12-20T10:34:24.000Z</time>
      </trkpt>
      <trkpt lat="47.50639" lon="6.67465">
        <ele>384</ele>
        <time>2015-12-20T10:34:25.000Z</time>
      </trkpt>
      <trkpt lat="47.5064" lon="6.67468">
        <ele>384</ele>
        <time>2015-12-20T10:34:26.000Z</time>
      </trkpt>
      <trkpt lat="47.50641" lon="6.67471">
        <ele>384</ele>
        <time>2015-12-20T10:34:27.000Z</time>
      </trkpt>
      <trkpt lat="47.50643" lon="6.67474">
        <ele>384</ele>
        <time>2015-12-20T10:34:28.000Z</time>
      </trkpt>
      <trkpt lat="47.50644" lon="6.67476">
        <ele>384</ele>
        <time>2015-12-20T10:34:29.000Z</time>
      </trkpt>
      <trkpt lat="47.50646" lon="6.67479">
        <ele>384</ele>
        <time>2015-12-20T10:34:30.000Z</time>
      </trkpt>
      <trkpt lat="47.50647" lon="6.67482">
        <ele>385</ele>
        <time>2015-12-20T10:34:31.000Z</time>
      </trkpt>
      <trkpt lat="47.50649" lon="6.67486">
        <ele>385</ele>
        <time>2015-12-20T10:34:32.000Z</time>
      </trkpt>
      <trkpt lat="47.5065" lon="6.67489">
        <ele>385</ele>
        <time>2015-12-20T10:34:33.000Z</time>
      </trkpt>
      <trkpt lat="47.50652" lon="6.67493">
        <ele>385</ele>
        <time>2015-12-20T10:34:34.000Z</time>
      </trkpt>
      <trkpt lat="47.50653" lon="6.67496">
        <ele>386</ele>
        <time>2015-12-20T10:34:35.000Z</time>
      </trkpt>
      <trkpt lat="47.50654" lon="6.675">
        <ele>386</ele>
        <time>2015-12-20T10:34:36.000Z</time>
      </trkpt>
      <trkpt lat="47.50656" lon="6.67503">
        <ele>387</ele>
        <time>2015-12-20T10:34:37.000Z</time>
      </trkpt>
      <trkpt lat="47.50657" lon="6.67506">
        <ele>387</ele>
        <time>2015-12-20T10:34:38.000Z</time>
      </trkpt>
      <trkpt lat="47.50658" lon="6.67509">
        <ele>387</ele>
        <time>2015-12-20T10:34:39.000Z</time>
      </trkpt>
      <trkpt lat="47.5066" lon="6.67513">
        <ele>387</ele>
        <time>2015-12-20T10:34:40.000Z</time>
      </trkpt>
      <trkpt lat="47.50661" lon="6.67516">
        <ele>386</ele>
        <time>2015-12-20T10:34:41.000Z</time>
      </trkpt>
      <trkpt lat="47.50662" lon="6.67519">
        <ele>386</ele>
        <time>2015-12-20T10:34:42.000Z</time>
      </trkpt>
      <trkpt lat="47.50663" lon="6.67523">
        <ele>386</ele>
        <time>2015-12-20T10:34:43.000Z</time>
      </trkpt>
      <trkpt lat="47.50664" lon="6.67526">
        <ele>386</ele>
        <time>2015-12-20T10:34:44.000Z</time>
      </trkpt>
      <trkpt lat="47.50666" lon="6.67529">
        <ele>386</ele>
        <time>2015-12-20T10:34:45.000Z</time>
      </trkpt>
      <trkpt lat="47.50667" lon="6.67532">
        <ele>386</ele>
        <time>2015-12-20T10:34:45.999Z</time>
      </trkpt>
      <trkpt lat="47.50668" lon="6.67536">
        <ele>389</ele>
        <time>2015-12-20T10:34:47.000Z</time>
      </trkpt>
      <trkpt lat="47.50669" lon="6.67539">
        <ele>389</ele>
        <time>2015-12-20T10:34:48.000Z</time>
      </trkpt>
      <trkpt lat="47.5067" lon="6.67543">
        <ele>389</ele>
        <time>2015-12-20T10:34:49.000Z</time>
      </trkpt>
      <trkpt lat="47.50672" lon="6.67546">
        <ele>389</ele>
        <time>2015-12-20T10:34:50.000Z</time>
      </trkpt>
      <trkpt lat="47.50673" lon="6.6755">
        <ele>389</ele>
        <time>2015-12-20T10:34:51.000Z</time>
      </trkpt>
      <trkpt lat="47.50675" lon="6.67553">
        <ele>389</ele>
        <time>2015-12-20T10:34:52.000Z</time>
      </trkpt>
      <trkpt lat="47.50676" lon="6.67555">
        <ele>389</ele>
        <time>2015-12-20T10:34:53.000Z</time>
      </trkpt>
      <trkpt lat="47.50678" lon="6.67558">
        <ele>389</ele>
        <time>2015-12-20T10:34:54.000Z</time>
      </trkpt>
      <trkpt lat="47.50679" lon="6.67561">
        <ele>389</ele>
        <time>2015-12-20T10:34:55.000Z</time>
      </trkpt>
      <trkpt lat="47.50681" lon="6.67564">
        <ele>389</ele>
        <time>2015-12-20T10:34:56.000Z</time>
      </trkpt>
      <trkpt lat="47.50682" lon="6.67568">
        <ele>389</ele>
        <time>2015-12-20T10:34:56.999Z</time>
      </trkpt>
      <trkpt lat="47.50684" lon="6.67571">
        <ele>389</ele>
        <time>2015-12-20T10:34:58.000Z</time>
      </trkpt>
      <trkpt lat="47.50685" lon="6.67575">
        <ele>389</ele>
        <time>2015-12-20T10:34:59.000Z</time>
      </trkpt>
      <trkpt lat="47.50686" lon="6.67578">
        <ele>389</ele>
        <time>2015-12-20T10:35:00.000Z</time>
      </trkpt>
      <trkpt lat="47.50689" lon="6.67584">
        <ele>390</ele>
        <time>2015-12-20T10:35:02.000Z</time>
      </trkpt>
      <trkpt lat="47.5069" lon="6.67586">
        <ele>390</ele>
        <time>2015-12-20T10:35:03.000Z</time>
      </trkpt>
      <trkpt lat="47.50691" lon="6.67589">
        <ele>390</ele>
        <time>2015-12-20T10:35:04.000Z</time>
      </trkpt>
      <trkpt lat="47.50693" lon="6.67592">
        <ele>390</ele>
        <time>2015-12-20T10:35:05.000Z</time>
      </trkpt>
      <trkpt lat="47.50694" lon="6.67595">
        <ele>390</ele>
        <time>2015-12-20T10:35:06.000Z</time>
      </trkpt>
      <trkpt lat="47.50695" lon="6.67598">
        <ele>390</ele>
        <time>2015-12-20T10:35:07.000Z</time>
      </trkpt>
      <trkpt lat="47.50697" lon="6.67603">
        <ele>390</ele>
        <time>2015-12-20T10:35:09.000Z</time>
      </trkpt>
      <trkpt lat="47.50699" lon="6.67607">
        <ele>390</ele>
        <time>2015-12-20T10:35:10.000Z</time>
      </trkpt>
      <trkpt lat="47.507" lon="6.67611">
        <ele>390</ele>
        <time>2015-12-20T10:35:11.000Z</time>
      </trkpt>
      <trkpt lat="47.50701" lon="6.67615">
        <ele>390</ele>
        <time>2015-12-20T10:35:12.000Z</time>
      </trkpt>
      <trkpt lat="47.50703" lon="6.67618">
        <ele>390</ele>
        <time>2015-12-20T10:35:13.000Z</time>
      </trkpt>
      <trkpt lat="47.50704" lon="6.67622">
        <ele>390</ele>
        <time>2015-12-20T10:35:14.000Z</time>
      </trkpt>
      <trkpt lat="47.50706" lon="6.67625">
        <ele>390</ele>
        <time>2015-12-20T10:35:15.000Z</time>
      </trkpt>
      <trkpt lat="47.50707" lon="6.67628">
        <ele>391</ele>
        <time>2015-12-20T10:35:16.000Z</time>
      </trkpt>
      <trkpt lat="47.50708" lon="6.67631">
        <ele>391</ele>
        <time>2015-12-20T10:35:17.000Z</time>
      </trkpt>
      <trkpt lat="47.50709" lon="6.67635">
        <ele>391</ele>
        <time>2015-12-20T10:35:18.000Z</time>
      </trkpt>
      <trkpt lat="47.5071" lon="6.67639">
        <ele>391</ele>
        <time>2015-12-20T10:35:19.000Z</time>
      </trkpt>
      <trkpt lat="47.5071" lon="6.67642">
        <ele>391</ele>
        <time>2015-12-20T10:35:20.000Z</time>
      </trkpt>
      <trkpt lat="47.5071" lon="6.67646">
        <ele>391</ele>
        <time>2015-12-20T10:35:21.000Z</time>
      </trkpt>
      <trkpt lat="47.5071" lon="6.6765">
        <ele>391</ele>
        <time>2015-12-20T10:35:22.000Z</time>
      </trkpt>
      <trkpt lat="47.50709" lon="6.67656">
        <ele>391</ele>
        <time>2015-12-20T10:35:24.000Z</time>
      </trkpt>
      <trkpt lat="47.50708" lon="6.67659">
        <ele>391</ele>
        <time>2015-12-20T10:35:25.000Z</time>
      </trkpt>
      <trkpt lat="47.50708" lon="6.67665">
        <ele>391</ele>
        <time>2015-12-20T10:35:27.000Z</time>
      </trkpt>
      <trkpt lat="47.50708" lon="6.67667">
        <ele>392</ele>
        <time>2015-12-20T10:35:28.000Z</time>
      </trkpt>
      <trkpt lat="47.50711" lon="6.67673">
        <ele>392</ele>
        <time>2015-12-20T10:35:30.000Z</time>
      </trkpt>
      <trkpt lat="47.50712" lon="6.67675">
        <ele>392</ele>
        <time>2015-12-20T10:35:31.000Z</time>
      </trkpt>
      <trkpt lat="47.50714" lon="6.67678">
        <ele>392</ele>
        <time>2015-12-20T10:35:32.000Z</time>
      </trkpt>
      <trkpt lat="47.50714" lon="6.67681">
        <ele>392</ele>
        <time>2015-12-20T10:35:33.000Z</time>
      </trkpt>
      <trkpt lat="47.50715" lon="6.67688">
        <ele>392</ele>
        <time>2015-12-20T10:35:35.000Z</time>
      </trkpt>
      <trkpt lat="47.50714" lon="6.67691">
        <ele>392</ele>
        <time>2015-12-20T10:35:36.000Z</time>
      </trkpt>
      <trkpt lat="47.50714" lon="6.67693">
        <ele>392</ele>
        <time>2015-12-20T10:35:37.000Z</time>
      </trkpt>
      <trkpt lat="47.50715" lon="6.67697">
        <ele>392</ele>
        <time>2015-12-20T10:35:38.000Z</time>
      </trkpt>
      <trkpt lat="47.50715" lon="6.67704">
        <ele>392</ele>
        <time>2015-12-20T10:35:40.000Z</time>
      </trkpt>
      <trkpt lat="47.50717" lon="6.67706">
        <ele>392</ele>
        <time>2015-12-20T10:35:41.000Z</time>
      </trkpt>
      <trkpt lat="47.50719" lon="6.67709">
        <ele>392</ele>
        <time>2015-12-20T10:35:43.000Z</time>
      </trkpt>
      <trkpt lat="47.50721" lon="6.67711">
        <ele>392</ele>
        <time>2015-12-20T10:35:44.000Z</time>
      </trkpt>
      <trkpt lat="47.50723" lon="6.67714">
        <ele>392</ele>
        <time>2015-12-20T10:35:46.000Z</time>
      </trkpt>
      <trkpt lat="47.50724" lon="6.67716">
        <ele>392</ele>
        <time>2015-12-20T10:35:46.998Z</time>
      </trkpt>
      <trkpt lat="47.50726" lon="6.67722">
        <ele>392</ele>
        <time>2015-12-20T10:35:51.000Z</time>
      </trkpt>
      <trkpt lat="47.50726" lon="6.67722">
        <ele>392</ele>
        <time>2015-12-20T10:35:52.000Z</time>
      </trkpt>
      <trkpt lat="47.50722" lon="6.67725">
        <ele>392</ele>
        <time>2015-12-20T10:38:16.000Z</time>
      </trkpt>
      <trkpt lat="47.50722" lon="6.67725">
        <ele>392</ele>
        <time>2015-12-20T10:38:17.000Z</time>
      </trkpt>
      <trkpt lat="47.50723" lon="6.67731">
        <ele>392</ele>
        <time>2015-12-20T10:39:42.000Z</time>
      </trkpt>
      <trkpt lat="47.50723" lon="6.67732">
        <ele>392</ele>
        <time>2015-12-20T10:39:43.000Z</time>
      </trkpt>
      <trkpt lat="47.50724" lon="6.67738">
        <ele>392</ele>
        <time>2015-12-20T10:40:49.000Z</time>
      </trkpt>
      <trkpt lat="47.50724" lon="6.6774">
        <ele>392</ele>
        <time>2015-12-20T10:40:50.000Z</time>
      </trkpt>
      <trkpt lat="47.50725" lon="6.67746">
        <ele>392</ele>
        <time>2015-12-20T10:40:53.000Z</time>
      </trkpt>
      <trkpt lat="47.50725" lon="6.67749">
        <ele>392</ele>
        <time>2015-12-20T10:40:54.000Z</time>
      </trkpt>
      <trkpt lat="47.50725" lon="6.67755">
        <ele>392</ele>
        <time>2015-12-20T10:40:57.000Z</time>
      </trkpt>
      <trkpt lat="47.50725" lon="6.67757">
        <ele>392</ele>
        <time>2015-12-20T10:40:58.000Z</time>
      </trkpt>
      <trkpt lat="47.50724" lon="6.67762">
        <ele>392</ele>
        <time>2015-12-20T10:41:00.000Z</time>
      </trkpt>
      <trkpt lat="47.50724" lon="6.67764">
        <ele>392</ele>
        <time>2015-12-20T10:41:01.000Z</time>
      </trkpt>
      <trkpt lat="47.50724" lon="6.67767">
        <ele>392</ele>
        <time>2015-12-20T10:41:02.000Z</time>
      </trkpt>
      <trkpt lat="47.50724" lon="6.67771">
        <ele>392</ele>
        <time>2015-12-20T10:41:03.000Z</time>
      </trkpt>
      <trkpt lat="47.50724" lon="6.67774">
        <ele>392</ele>
        <time>2015-12-20T10:41:04.000Z</time>
      </trkpt>
      <trkpt lat="47.50725" lon="6.67779">
        <ele>392</ele>
        <time>2015-12-20T10:41:05.000Z</time>
      </trkpt>
      <trkpt lat="47.50726" lon="6.67783">
        <ele>392</ele>
        <time>2015-12-20T10:41:06.000Z</time>
      </trkpt>
      <trkpt lat="47.50726" lon="6.67786">
        <ele>392</ele>
        <time>2015-12-20T10:41:07.000Z</time>
      </trkpt>
      <trkpt lat="47.50726" lon="6.6779">
        <ele>392</ele>
        <time>2015-12-20T10:41:08.000Z</time>
      </trkpt>
      <trkpt lat="47.50726" lon="6.67793">
        <ele>392</ele>
        <time>2015-12-20T10:41:09.000Z</time>
      </trkpt>
      <trkpt lat="47.50725" lon="6.67797">
        <ele>392</ele>
        <time>2015-12-20T10:41:10.000Z</time>
      </trkpt>
      <trkpt lat="47.50724" lon="6.67801">
        <ele>392</ele>
        <time>2015-12-20T10:41:11.000Z</time>
      </trkpt>
      <trkpt lat="47.50724" lon="6.67804">
        <ele>392</ele>
        <time>2015-12-20T10:41:12.001Z</time>
      </trkpt>
      <trkpt lat="47.50722" lon="6.67808">
        <ele>392</ele>
        <time>2015-12-20T10:41:13.000Z</time>
      </trkpt>
      <trkpt lat="47.50721" lon="6.67812">
        <ele>392</ele>
        <time>2015-12-20T10:41:14.000Z</time>
      </trkpt>
      <trkpt lat="47.5072" lon="6.67815">
        <ele>392</ele>
        <time>2015-12-20T10:41:15.000Z</time>
      </trkpt>
      <trkpt lat="47.50719" lon="6.67818">
        <ele>392</ele>
        <time>2015-12-20T10:41:16.000Z</time>
      </trkpt>
      <trkpt lat="47.50718" lon="6.67821">
        <ele>392</ele>
        <time>2015-12-20T10:41:17.000Z</time>
      </trkpt>
      <trkpt lat="47.50716" lon="6.67825">
        <ele>392</ele>
        <time>2015-12-20T10:41:18.000Z</time>
      </trkpt>
      <trkpt lat="47.50715" lon="6.67829">
        <ele>392</ele>
        <time>2015-12-20T10:41:19.000Z</time>
      </trkpt>
      <trkpt lat="47.50714" lon="6.67834">
        <ele>391</ele>
        <time>2015-12-20T10:41:20.000Z</time>
      </trkpt>
      <trkpt lat="47.50713" lon="6.67838">
        <ele>391</ele>
        <time>2015-12-20T10:41:21.000Z</time>
      </trkpt>
      <trkpt lat="47.50711" lon="6.67842">
        <ele>391</ele>
        <time>2015-12-20T10:41:22.000Z</time>
      </trkpt>
      <trkpt lat="47.5071" lon="6.67846">
        <ele>391</ele>
        <time>2015-12-20T10:41:23.000Z</time>
      </trkpt>
      <trkpt lat="47.50708" lon="6.67849">
        <ele>391</ele>
        <time>2015-12-20T10:41:24.000Z</time>
      </trkpt>
      <trkpt lat="47.50705" lon="6.67852">
        <ele>391</ele>
        <time>2015-12-20T10:41:25.000Z</time>
      </trkpt>
      <trkpt lat="47.50703" lon="6.67856">
        <ele>391</ele>
        <time>2015-12-20T10:41:26.000Z</time>
      </trkpt>
      <trkpt lat="47.50701" lon="6.67859">
        <ele>391</ele>
        <time>2015-12-20T10:41:27.000Z</time>
      </trkpt>
      <trkpt lat="47.507" lon="6.67863">
        <ele>391</ele>
        <time>2015-12-20T10:41:28.000Z</time>
      </trkpt>
      <trkpt lat="47.50698" lon="6.67866">
        <ele>391</ele>
        <time>2015-12-20T10:41:29.000Z</time>
      </trkpt>
      <trkpt lat="47.50696" lon="6.67869">
        <ele>391</ele>
        <time>2015-12-20T10:41:30.000Z</time>
      </trkpt>
      <trkpt lat="47.50695" lon="6.67872">
        <ele>391</ele>
        <time>2015-12-20T10:41:31.000Z</time>
      </trkpt>
      <trkpt lat="47.50693" lon="6.67876">
        <ele>391</ele>
        <time>2015-12-20T10:41:32.000Z</time>
      </trkpt>
      <trkpt lat="47.50691" lon="6.6788">
        <ele>391</ele>
        <time>2015-12-20T10:41:33.000Z</time>
      </trkpt>
      <trkpt lat="47.50689" lon="6.67884">
        <ele>391</ele>
        <time>2015-12-20T10:41:34.000Z</time>
      </trkpt>
      <trkpt lat="47.50688" lon="6.67889">
        <ele>391</ele>
        <time>2015-12-20T10:41:35.000Z</time>
      </trkpt>
      <trkpt lat="47.50686" lon="6.67894">
        <ele>391</ele>
        <time>2015-12-20T10:41:36.000Z</time>
      </trkpt>
      <trkpt lat="47.50684" lon="6.67898">
        <ele>391</ele>
        <time>2015-12-20T10:41:37.000Z</time>
      </trkpt>
      <trkpt lat="47.50682" lon="6.67903">
        <ele>391</ele>
        <time>2015-12-20T10:41:38.000Z</time>
      </trkpt>
      <trkpt lat="47.5068" lon="6.67909">
        <ele>391</ele>
        <time>2015-12-20T10:41:39.000Z</time>
      </trkpt>
      <trkpt lat="47.50675" lon="6.67928">
        <ele>391</ele>
        <time>2015-12-20T10:41:40.000Z</time>
      </trkpt>
      <trkpt lat="47.50672" lon="6.67936">
        <ele>391</ele>
        <time>2015-12-20T10:41:41.000Z</time>
      </trkpt>
      <trkpt lat="47.50669" lon="6.67937">
        <ele>391</ele>
        <time>2015-12-20T10:41:42.000Z</time>
      </trkpt>
      <trkpt lat="47.50667" lon="6.67939">
        <ele>392</ele>
        <time>2015-12-20T10:41:43.000Z</time>
      </trkpt>
      <trkpt lat="47.50663" lon="6.67941">
        <ele>392</ele>
        <time>2015-12-20T10:41:46.000Z</time>
      </trkpt>
      <trkpt lat="47.50661" lon="6.67942">
        <ele>392</ele>
        <time>2015-12-20T10:41:47.000Z</time>
      </trkpt>
      <trkpt lat="47.50665" lon="6.6794">
        <ele>392</ele>
        <time>2015-12-20T10:41:52.000Z</time>
      </trkpt>
      <trkpt lat="47.50667" lon="6.67941">
        <ele>392</ele>
        <time>2015-12-20T10:41:53.000Z</time>
      </trkpt>
      <trkpt lat="47.50669" lon="6.67943">
        <ele>391</ele>
        <time>2015-12-20T10:41:54.000Z</time>
      </trkpt>
      <trkpt lat="47.5067" lon="6.67945">
        <ele>391</ele>
        <time>2015-12-20T10:41:55.000Z</time>
      </trkpt>
      <trkpt lat="47.50672" lon="6.67948">
        <ele>391</ele>
        <time>2015-12-20T10:41:56.000Z</time>
      </trkpt>
      <trkpt lat="47.50673" lon="6.67951">
        <ele>391</ele>
        <time>2015-12-20T10:41:57.000Z</time>
      </trkpt>
      <trkpt lat="47.50675" lon="6.67954">
        <ele>391</ele>
        <time>2015-12-20T10:41:58.000Z</time>
      </trkpt>
      <trkpt lat="47.50677" lon="6.67956">
        <ele>391</ele>
        <time>2015-12-20T10:41:59.000Z</time>
      </trkpt>
      <trkpt lat="47.5068" lon="6.67958">
        <ele>391</ele>
        <time>2015-12-20T10:42:00.000Z</time>
      </trkpt>
      <trkpt lat="47.50682" lon="6.67959">
        <ele>391</ele>
        <time>2015-12-20T10:42:01.000Z</time>
      </trkpt>
      <trkpt lat="47.50685" lon="6.67961">
        <ele>391</ele>
        <time>2015-12-20T10:42:02.000Z</time>
      </trkpt>
      <trkpt lat="47.50687" lon="6.67962">
        <ele>391</ele>
        <time>2015-12-20T10:42:03.000Z</time>
      </trkpt>
      <trkpt lat="47.5069" lon="6.67965">
        <ele>391</ele>
        <time>2015-12-20T10:42:06.000Z</time>
      </trkpt>
      <trkpt lat="47.50691" lon="6.67966">
        <ele>391</ele>
        <time>2015-12-20T10:42:07.000Z</time>
      </trkpt>
      <trkpt lat="47.50694" lon="6.67969">
        <ele>391</ele>
        <time>2015-12-20T10:42:10.000Z</time>
      </trkpt>
      <trkpt lat="47.50696" lon="6.67971">
        <ele>391</ele>
        <time>2015-12-20T10:42:11.000Z</time>
      </trkpt>
      <trkpt lat="47.50699" lon="6.67974">
        <ele>391</ele>
        <time>2015-12-20T10:42:14.000Z</time>
      </trkpt>
      <trkpt lat="47.507" lon="6.67975">
        <ele>391</ele>
        <time>2015-12-20T10:42:15.000Z</time>
      </trkpt>
      <trkpt lat="47.50702" lon="6.67978">
        <ele>391</ele>
        <time>2015-12-20T10:42:18.000Z</time>
      </trkpt>
      <trkpt lat="47.50704" lon="6.67979">
        <ele>391</ele>
        <time>2015-12-20T10:42:19.000Z</time>
      </trkpt>
      <trkpt lat="47.50706" lon="6.67981">
        <ele>391</ele>
        <time>2015-12-20T10:42:21.000Z</time>
      </trkpt>
      <trkpt lat="47.50708" lon="6.67983">
        <ele>391</ele>
        <time>2015-12-20T10:42:22.000Z</time>
      </trkpt>
      <trkpt lat="47.50712" lon="6.67986">
        <ele>390</ele>
        <time>2015-12-20T10:42:25.000Z</time>
      </trkpt>
      <trkpt lat="47.50713" lon="6.67986">
        <ele>390</ele>
        <time>2015-12-20T10:42:26.000Z</time>
      </trkpt>
      <trkpt lat="47.50716" lon="6.67988">
        <ele>390</ele>
        <time>2015-12-20T10:42:28.000Z</time>
      </trkpt>
      <trkpt lat="47.50717" lon="6.67989">
        <ele>390</ele>
        <time>2015-12-20T10:42:29.000Z</time>
      </trkpt>
      <trkpt lat="47.5072" lon="6.67993">
        <ele>390</ele>
        <time>2015-12-20T10:42:34.000Z</time>
      </trkpt>
      <trkpt lat="47.50721" lon="6.67994">
        <ele>390</ele>
        <time>2015-12-20T10:42:35.000Z</time>
      </trkpt>
      <trkpt lat="47.50723" lon="6.67995">
        <ele>390</ele>
        <time>2015-12-20T10:42:36.000Z</time>
      </trkpt>
      <trkpt lat="47.50726" lon="6.67997">
        <ele>390</ele>
        <time>2015-12-20T10:42:37.000Z</time>
      </trkpt>
      <trkpt lat="47.50728" lon="6.67999">
        <ele>390</ele>
        <time>2015-12-20T10:42:38.000Z</time>
      </trkpt>
      <trkpt lat="47.50731" lon="6.68">
        <ele>390</ele>
        <time>2015-12-20T10:42:39.000Z</time>
      </trkpt>
      <trkpt lat="47.50734" lon="6.68003">
        <ele>390</ele>
        <time>2015-12-20T10:42:41.000Z</time>
      </trkpt>
      <trkpt lat="47.50736" lon="6.68004">
        <ele>390</ele>
        <time>2015-12-20T10:42:42.000Z</time>
      </trkpt>
      <trkpt lat="47.5074" lon="6.68007">
        <ele>390</ele>
        <time>2015-12-20T10:42:44.000Z</time>
      </trkpt>
      <trkpt lat="47.50741" lon="6.68009">
        <ele>390</ele>
        <time>2015-12-20T10:42:45.000Z</time>
      </trkpt>
      <trkpt lat="47.50743" lon="6.68011">
        <ele>390</ele>
        <time>2015-12-20T10:42:46.000Z</time>
      </trkpt>
      <trkpt lat="47.50745" lon="6.68013">
        <ele>390</ele>
        <time>2015-12-20T10:42:47.000Z</time>
      </trkpt>
      <trkpt lat="47.50747" lon="6.68016">
        <ele>390</ele>
        <time>2015-12-20T10:42:48.000Z</time>
      </trkpt>
      <trkpt lat="47.50749" lon="6.68019">
        <ele>390</ele>
        <time>2015-12-20T10:42:49.000Z</time>
      </trkpt>
      <trkpt lat="47.50751" lon="6.68022">
        <ele>389</ele>
        <time>2015-12-20T10:42:50.000Z</time>
      </trkpt>
      <trkpt lat="47.50753" lon="6.68025">
        <ele>389</ele>
        <time>2015-12-20T10:42:51.000Z</time>
      </trkpt>
      <trkpt lat="47.50754" lon="6.68028">
        <ele>389</ele>
        <time>2015-12-20T10:42:52.000Z</time>
      </trkpt>
      <trkpt lat="47.50755" lon="6.6803">
        <ele>389</ele>
        <time>2015-12-20T10:42:53.000Z</time>
      </trkpt>
      <trkpt lat="47.50758" lon="6.68033">
        <ele>389</ele>
        <time>2015-12-20T10:42:54.000Z</time>
      </trkpt>
      <trkpt lat="47.50761" lon="6.68036">
        <ele>389</ele>
        <time>2015-12-20T10:42:55.000Z</time>
      </trkpt>
      <trkpt lat="47.50765" lon="6.6804">
        <ele>389</ele>
        <time>2015-12-20T10:42:56.000Z</time>
      </trkpt>
      <trkpt lat="47.5077" lon="6.68043">
        <ele>389</ele>
        <time>2015-12-20T10:42:57.000Z</time>
      </trkpt>
      <trkpt lat="47.50774" lon="6.68046">
        <ele>389</ele>
        <time>2015-12-20T10:42:58.000Z</time>
      </trkpt>
      <trkpt lat="47.50778" lon="6.68048">
        <ele>389</ele>
        <time>2015-12-20T10:42:59.000Z</time>
      </trkpt>
      <trkpt lat="47.50782" lon="6.68051">
        <ele>389</ele>
        <time>2015-12-20T10:43:00.000Z</time>
      </trkpt>
      <trkpt lat="47.50785" lon="6.68053">
        <ele>389</ele>
        <time>2015-12-20T10:43:01.000Z</time>
      </trkpt>
      <trkpt lat="47.50788" lon="6.68055">
        <ele>388</ele>
        <time>2015-12-20T10:43:02.000Z</time>
      </trkpt>
      <trkpt lat="47.50792" lon="6.68056">
        <ele>388</ele>
        <time>2015-12-20T10:43:03.000Z</time>
      </trkpt>
      <trkpt lat="47.50795" lon="6.68059">
        <ele>388</ele>
        <time>2015-12-20T10:43:04.000Z</time>
      </trkpt>
      <trkpt lat="47.50799" lon="6.68062">
        <ele>388</ele>
        <time>2015-12-20T10:43:05.000Z</time>
      </trkpt>
      <trkpt lat="47.50802" lon="6.68066">
        <ele>388</ele>
        <time>2015-12-20T10:43:06.000Z</time>
      </trkpt>
      <trkpt lat="47.50805" lon="6.6807">
        <ele>388</ele>
        <time>2015-12-20T10:43:07.000Z</time>
      </trkpt>
      <trkpt lat="47.50808" lon="6.68073">
        <ele>388</ele>
        <time>2015-12-20T10:43:08.000Z</time>
      </trkpt>
      <trkpt lat="47.50811" lon="6.68076">
        <ele>388</ele>
        <time>2015-12-20T10:43:09.000Z</time>
      </trkpt>
      <trkpt lat="47.50814" lon="6.68079">
        <ele>388</ele>
        <time>2015-12-20T10:43:10.000Z</time>
      </trkpt>
      <trkpt lat="47.50816" lon="6.68082">
        <ele>388</ele>
        <time>2015-12-20T10:43:11.000Z</time>
      </trkpt>
      <trkpt lat="47.50819" lon="6.68085">
        <ele>387</ele>
        <time>2015-12-20T10:43:12.000Z</time>
      </trkpt>
      <trkpt lat="47.50822" lon="6.68088">
        <ele>387</ele>
        <time>2015-12-20T10:43:13.000Z</time>
      </trkpt>
      <trkpt lat="47.50824" lon="6.68091">
        <ele>387</ele>
        <time>2015-12-20T10:43:14.000Z</time>
      </trkpt>
      <trkpt lat="47.50827" lon="6.68094">
        <ele>387</ele>
        <time>2015-12-20T10:43:15.000Z</time>
      </trkpt>
      <trkpt lat="47.5083" lon="6.68097">
        <ele>387</ele>
        <time>2015-12-20T10:43:16.000Z</time>
      </trkpt>
      <trkpt lat="47.50833" lon="6.68101">
        <ele>386</ele>
        <time>2015-12-20T10:43:17.000Z</time>
      </trkpt>
      <trkpt lat="47.50835" lon="6.68104">
        <ele>386</ele>
        <time>2015-12-20T10:43:18.000Z</time>
      </trkpt>
      <trkpt lat="47.50837" lon="6.68106">
        <ele>386</ele>
        <time>2015-12-20T10:43:19.000Z</time>
      </trkpt>
      <trkpt lat="47.5084" lon="6.68107">
        <ele>386</ele>
        <time>2015-12-20T10:43:20.000Z</time>
      </trkpt>
      <trkpt lat="47.50842" lon="6.68109">
        <ele>386</ele>
        <time>2015-12-20T10:43:20.999Z</time>
      </trkpt>
      <trkpt lat="47.50845" lon="6.68112">
        <ele>386</ele>
        <time>2015-12-20T10:43:22.000Z</time>
      </trkpt>
      <trkpt lat="47.50847" lon="6.68115">
        <ele>386</ele>
        <time>2015-12-20T10:43:23.000Z</time>
      </trkpt>
      <trkpt lat="47.5085" lon="6.68118">
        <ele>386</ele>
        <time>2015-12-20T10:43:24.000Z</time>
      </trkpt>
      <trkpt lat="47.50852" lon="6.68122">
        <ele>385</ele>
        <time>2015-12-20T10:43:25.000Z</time>
      </trkpt>
      <trkpt lat="47.50854" lon="6.68126">
        <ele>385</ele>
        <time>2015-12-20T10:43:26.000Z</time>
      </trkpt>
      <trkpt lat="47.50858" lon="6.68129">
        <ele>385</ele>
        <time>2015-12-20T10:43:27.000Z</time>
      </trkpt>
      <trkpt lat="47.50861" lon="6.68131">
        <ele>385</ele>
        <time>2015-12-20T10:43:28.000Z</time>
      </trkpt>
      <trkpt lat="47.50866" lon="6.68134">
        <ele>385</ele>
        <time>2015-12-20T10:43:29.000Z</time>
      </trkpt>
      <trkpt lat="47.5087" lon="6.68136">
        <ele>385</ele>
        <time>2015-12-20T10:43:30.000Z</time>
      </trkpt>
      <trkpt lat="47.50874" lon="6.68138">
        <ele>385</ele>
        <time>2015-12-20T10:43:31.000Z</time>
      </trkpt>
      <trkpt lat="47.50878" lon="6.68141">
        <ele>385</ele>
        <time>2015-12-20T10:43:32.000Z</time>
      </trkpt>
      <trkpt lat="47.50881" lon="6.68143">
        <ele>385</ele>
        <time>2015-12-20T10:43:33.000Z</time>
      </trkpt>
      <trkpt lat="47.50885" lon="6.68146">
        <ele>385</ele>
        <time>2015-12-20T10:43:34.000Z</time>
      </trkpt>
      <trkpt lat="47.50888" lon="6.68148">
        <ele>385</ele>
        <time>2015-12-20T10:43:35.000Z</time>
      </trkpt>
      <trkpt lat="47.50891" lon="6.68151">
        <ele>385</ele>
        <time>2015-12-20T10:43:36.000Z</time>
      </trkpt>
      <trkpt lat="47.50894" lon="6.68153">
        <ele>385</ele>
        <time>2015-12-20T10:43:37.000Z</time>
      </trkpt>
      <trkpt lat="47.50896" lon="6.68156">
        <ele>385</ele>
        <time>2015-12-20T10:43:38.000Z</time>
      </trkpt>
      <trkpt lat="47.50899" lon="6.68159">
        <ele>385</ele>
        <time>2015-12-20T10:43:39.000Z</time>
      </trkpt>
      <trkpt lat="47.50901" lon="6.68162">
        <ele>385</ele>
        <time>2015-12-20T10:43:40.000Z</time>
      </trkpt>
      <trkpt lat="47.50904" lon="6.68164">
        <ele>385</ele>
        <time>2015-12-20T10:43:41.000Z</time>
      </trkpt>
      <trkpt lat="47.50907" lon="6.68167">
        <ele>384</ele>
        <time>2015-12-20T10:43:42.000Z</time>
      </trkpt>
      <trkpt lat="47.50911" lon="6.6817">
        <ele>384</ele>
        <time>2015-12-20T10:43:43.000Z</time>
      </trkpt>
      <trkpt lat="47.50914" lon="6.68173">
        <ele>384</ele>
        <time>2015-12-20T10:43:44.000Z</time>
      </trkpt>
      <trkpt lat="47.50917" lon="6.68176">
        <ele>385</ele>
        <time>2015-12-20T10:43:45.000Z</time>
      </trkpt>
      <trkpt lat="47.5092" lon="6.68179">
        <ele>385</ele>
        <time>2015-12-20T10:43:46.000Z</time>
      </trkpt>
      <trkpt lat="47.50922" lon="6.68181">
        <ele>385</ele>
        <time>2015-12-20T10:43:47.000Z</time>
      </trkpt>
      <trkpt lat="47.50925" lon="6.68184">
        <ele>385</ele>
        <time>2015-12-20T10:43:48.000Z</time>
      </trkpt>
      <trkpt lat="47.50929" lon="6.68187">
        <ele>385</ele>
        <time>2015-12-20T10:43:49.000Z</time>
      </trkpt>
      <trkpt lat="47.50932" lon="6.6819">
        <ele>385</ele>
        <time>2015-12-20T10:43:50.000Z</time>
      </trkpt>
      <trkpt lat="47.50935" lon="6.68193">
        <ele>384</ele>
        <time>2015-12-20T10:43:51.000Z</time>
      </trkpt>
      <trkpt lat="47.50939" lon="6.68195">
        <ele>384</ele>
        <time>2015-12-20T10:43:52.000Z</time>
      </trkpt>
      <trkpt lat="47.50941" lon="6.68198">
        <ele>384</ele>
        <time>2015-12-20T10:43:53.000Z</time>
      </trkpt>
      <trkpt lat="47.50944" lon="6.682">
        <ele>384</ele>
        <time>2015-12-20T10:43:54.000Z</time>
      </trkpt>
      <trkpt lat="47.50947" lon="6.68203">
        <ele>384</ele>
        <time>2015-12-20T10:43:55.000Z</time>
      </trkpt>
      <trkpt lat="47.50951" lon="6.68206">
        <ele>384</ele>
        <time>2015-12-20T10:43:56.000Z</time>
      </trkpt>
      <trkpt lat="47.50954" lon="6.68209">
        <ele>384</ele>
        <time>2015-12-20T10:43:57.000Z</time>
      </trkpt>
      <trkpt lat="47.50958" lon="6.68212">
        <ele>384</ele>
        <time>2015-12-20T10:43:58.000Z</time>
      </trkpt>
      <trkpt lat="47.50961" lon="6.68215">
        <ele>384</ele>
        <time>2015-12-20T10:43:59.000Z</time>
      </trkpt>
      <trkpt lat="47.50963" lon="6.68219">
        <ele>384</ele>
        <time>2015-12-20T10:44:00.000Z</time>
      </trkpt>
      <trkpt lat="47.50965" lon="6.68222">
        <ele>384</ele>
        <time>2015-12-20T10:44:01.000Z</time>
      </trkpt>
      <trkpt lat="47.50968" lon="6.68225">
        <ele>384</ele>
        <time>2015-12-20T10:44:02.000Z</time>
      </trkpt>
      <trkpt lat="47.50971" lon="6.68229">
        <ele>384</ele>
        <time>2015-12-20T10:44:03.000Z</time>
      </trkpt>
      <trkpt lat="47.50975" lon="6.68233">
        <ele>384</ele>
        <time>2015-12-20T10:44:04.000Z</time>
      </trkpt>
      <trkpt lat="47.50978" lon="6.68236">
        <ele>384</ele>
        <time>2015-12-20T10:44:05.000Z</time>
      </trkpt>
      <trkpt lat="47.50982" lon="6.6824">
        <ele>384</ele>
        <time>2015-12-20T10:44:06.000Z</time>
      </trkpt>
      <trkpt lat="47.50986" lon="6.68243">
        <ele>384</ele>
        <time>2015-12-20T10:44:07.000Z</time>
      </trkpt>
      <trkpt lat="47.5099" lon="6.68245">
        <ele>384</ele>
        <time>2015-12-20T10:44:08.000Z</time>
      </trkpt>
      <trkpt lat="47.50993" lon="6.68247">
        <ele>384</ele>
        <time>2015-12-20T10:44:09.000Z</time>
      </trkpt>
      <trkpt lat="47.50997" lon="6.6825">
        <ele>384</ele>
        <time>2015-12-20T10:44:10.000Z</time>
      </trkpt>
      <trkpt lat="47.51001" lon="6.68253">
        <ele>384</ele>
        <time>2015-12-20T10:44:11.000Z</time>
      </trkpt>
      <trkpt lat="47.51004" lon="6.68256">
        <ele>384</ele>
        <time>2015-12-20T10:44:12.000Z</time>
      </trkpt>
      <trkpt lat="47.51007" lon="6.68259">
        <ele>383</ele>
        <time>2015-12-20T10:44:13.000Z</time>
      </trkpt>
      <trkpt lat="47.5101" lon="6.68262">
        <ele>383</ele>
        <time>2015-12-20T10:44:14.000Z</time>
      </trkpt>
      <trkpt lat="47.51014" lon="6.68265">
        <ele>383</ele>
        <time>2015-12-20T10:44:15.000Z</time>
      </trkpt>
      <trkpt lat="47.51017" lon="6.68282">
        <ele>382</ele>
        <time>2015-12-20T10:44:16.000Z</time>
      </trkpt>
      <trkpt lat="47.51021" lon="6.68285">
        <ele>382</ele>
        <time>2015-12-20T10:44:17.000Z</time>
      </trkpt>
      <trkpt lat="47.51027" lon="6.68288">
        <ele>382</ele>
        <time>2015-12-20T10:44:18.000Z</time>
      </trkpt>
      <trkpt lat="47.51031" lon="6.68292">
        <ele>382</ele>
        <time>2015-12-20T10:44:19.000Z</time>
      </trkpt>
      <trkpt lat="47.51037" lon="6.68295">
        <ele>382</ele>
        <time>2015-12-20T10:44:20.000Z</time>
      </trkpt>
      <trkpt lat="47.51042" lon="6.68299">
        <ele>382</ele>
        <time>2015-12-20T10:44:21.000Z</time>
      </trkpt>
      <trkpt lat="47.51047" lon="6.68302">
        <ele>382</ele>
        <time>2015-12-20T10:44:22.000Z</time>
      </trkpt>
      <trkpt lat="47.51054" lon="6.68305">
        <ele>382</ele>
        <time>2015-12-20T10:44:23.000Z</time>
      </trkpt>
      <trkpt lat="47.51061" lon="6.6831">
        <ele>382</ele>
        <time>2015-12-20T10:44:24.000Z</time>
      </trkpt>
      <trkpt lat="47.51067" lon="6.68316">
        <ele>382</ele>
        <time>2015-12-20T10:44:25.000Z</time>
      </trkpt>
      <trkpt lat="47.51073" lon="6.68322">
        <ele>382</ele>
        <time>2015-12-20T10:44:26.000Z</time>
      </trkpt>
      <trkpt lat="47.51078" lon="6.68326">
        <ele>381</ele>
        <time>2015-12-20T10:44:27.000Z</time>
      </trkpt>
      <trkpt lat="47.51084" lon="6.68329">
        <ele>381</ele>
        <time>2015-12-20T10:44:28.000Z</time>
      </trkpt>
      <trkpt lat="47.51089" lon="6.68334">
        <ele>380</ele>
        <time>2015-12-20T10:44:29.000Z</time>
      </trkpt>
      <trkpt lat="47.51094" lon="6.68338">
        <ele>379</ele>
        <time>2015-12-20T10:44:30.000Z</time>
      </trkpt>
      <trkpt lat="47.51099" lon="6.68341">
        <ele>379</ele>
        <time>2015-12-20T10:44:31.000Z</time>
      </trkpt>
      <trkpt lat="47.51103" lon="6.68344">
        <ele>378</ele>
        <time>2015-12-20T10:44:32.000Z</time>
      </trkpt>
      <trkpt lat="47.51106" lon="6.68347">
        <ele>378</ele>
        <time>2015-12-20T10:44:33.000Z</time>
      </trkpt>
      <trkpt lat="47.51109" lon="6.68349">
        <ele>378</ele>
        <time>2015-12-20T10:44:34.000Z</time>
      </trkpt>
      <trkpt lat="47.51113" lon="6.68352">
        <ele>377</ele>
        <time>2015-12-20T10:44:35.000Z</time>
      </trkpt>
      <trkpt lat="47.51115" lon="6.68355">
        <ele>377</ele>
        <time>2015-12-20T10:44:36.000Z</time>
      </trkpt>
      <trkpt lat="47.51119" lon="6.68358">
        <ele>377</ele>
        <time>2015-12-20T10:44:37.000Z</time>
      </trkpt>
      <trkpt lat="47.51121" lon="6.68361">
        <ele>377</ele>
        <time>2015-12-20T10:44:38.000Z</time>
      </trkpt>
      <trkpt lat="47.51124" lon="6.68364">
        <ele>376</ele>
        <time>2015-12-20T10:44:39.000Z</time>
      </trkpt>
      <trkpt lat="47.51127" lon="6.68367">
        <ele>376</ele>
        <time>2015-12-20T10:44:39.999Z</time>
      </trkpt>
      <trkpt lat="47.51128" lon="6.6837">
        <ele>376</ele>
        <time>2015-12-20T10:44:41.000Z</time>
      </trkpt>
      <trkpt lat="47.5113" lon="6.68373">
        <ele>376</ele>
        <time>2015-12-20T10:44:42.000Z</time>
      </trkpt>
      <trkpt lat="47.51132" lon="6.68376">
        <ele>376</ele>
        <time>2015-12-20T10:44:43.000Z</time>
      </trkpt>
      <trkpt lat="47.51134" lon="6.68381">
        <ele>376</ele>
        <time>2015-12-20T10:44:46.000Z</time>
      </trkpt>
      <trkpt lat="47.51135" lon="6.68383">
        <ele>376</ele>
        <time>2015-12-20T10:44:47.000Z</time>
      </trkpt>
      <trkpt lat="47.51135" lon="6.68387">
        <ele>376</ele>
        <time>2015-12-20T10:44:49.000Z</time>
      </trkpt>
      <trkpt lat="47.51134" lon="6.68391">
        <ele>376</ele>
        <time>2015-12-20T10:44:50.000Z</time>
      </trkpt>
      <trkpt lat="47.51133" lon="6.68395">
        <ele>376</ele>
        <time>2015-12-20T10:44:51.000Z</time>
      </trkpt>
      <trkpt lat="47.51132" lon="6.68399">
        <ele>376</ele>
        <time>2015-12-20T10:44:52.000Z</time>
      </trkpt>
      <trkpt lat="47.51129" lon="6.68408">
        <ele>376</ele>
        <time>2015-12-20T10:44:53.000Z</time>
      </trkpt>
      <trkpt lat="47.51127" lon="6.68414">
        <ele>376</ele>
        <time>2015-12-20T10:44:54.001Z</time>
      </trkpt>
      <trkpt lat="47.51126" lon="6.6842">
        <ele>375</ele>
        <time>2015-12-20T10:44:55.000Z</time>
      </trkpt>
      <trkpt lat="47.51125" lon="6.68426">
        <ele>375</ele>
        <time>2015-12-20T10:44:56.000Z</time>
      </trkpt>
      <trkpt lat="47.51124" lon="6.68433">
        <ele>375</ele>
        <time>2015-12-20T10:44:57.000Z</time>
      </trkpt>
      <trkpt lat="47.51123" lon="6.6844">
        <ele>375</ele>
        <time>2015-12-20T10:44:58.000Z</time>
      </trkpt>
      <trkpt lat="47.51121" lon="6.68447">
        <ele>375</ele>
        <time>2015-12-20T10:44:59.000Z</time>
      </trkpt>
      <trkpt lat="47.5112" lon="6.68454">
        <ele>375</ele>
        <time>2015-12-20T10:45:00.000Z</time>
      </trkpt>
      <trkpt lat="47.51118" lon="6.68462">
        <ele>375</ele>
        <time>2015-12-20T10:45:01.000Z</time>
      </trkpt>
      <trkpt lat="47.51117" lon="6.68469">
        <ele>375</ele>
        <time>2015-12-20T10:45:02.000Z</time>
      </trkpt>
      <trkpt lat="47.51115" lon="6.68476">
        <ele>375</ele>
        <time>2015-12-20T10:45:03.000Z</time>
      </trkpt>
      <trkpt lat="47.51116" lon="6.68484">
        <ele>375</ele>
        <time>2015-12-20T10:45:04.000Z</time>
      </trkpt>
      <trkpt lat="47.51115" lon="6.68491">
        <ele>376</ele>
        <time>2015-12-20T10:45:05.000Z</time>
      </trkpt>
      <trkpt lat="47.51113" lon="6.68498">
        <ele>376</ele>
        <time>2015-12-20T10:45:06.000Z</time>
      </trkpt>
      <trkpt lat="47.51112" lon="6.68505">
        <ele>376</ele>
        <time>2015-12-20T10:45:07.000Z</time>
      </trkpt>
      <trkpt lat="47.5111" lon="6.68512">
        <ele>376</ele>
        <time>2015-12-20T10:45:08.000Z</time>
      </trkpt>
      <trkpt lat="47.51109" lon="6.68519">
        <ele>376</ele>
        <time>2015-12-20T10:45:09.000Z</time>
      </trkpt>
      <trkpt lat="47.51107" lon="6.68526">
        <ele>376</ele>
        <time>2015-12-20T10:45:10.000Z</time>
      </trkpt>
      <trkpt lat="47.51106" lon="6.68533">
        <ele>376</ele>
        <time>2015-12-20T10:45:11.000Z</time>
      </trkpt>
      <trkpt lat="47.51104" lon="6.68541">
        <ele>376</ele>
        <time>2015-12-20T10:45:12.000Z</time>
      </trkpt>
      <trkpt lat="47.51102" lon="6.68549">
        <ele>376</ele>
        <time>2015-12-20T10:45:13.000Z</time>
      </trkpt>
      <trkpt lat="47.511" lon="6.68556">
        <ele>376</ele>
        <time>2015-12-20T10:45:14.000Z</time>
      </trkpt>
      <trkpt lat="47.51099" lon="6.68564">
        <ele>376</ele>
        <time>2015-12-20T10:45:15.000Z</time>
      </trkpt>
      <trkpt lat="47.51097" lon="6.68571">
        <ele>376</ele>
        <time>2015-12-20T10:45:16.000Z</time>
      </trkpt>
      <trkpt lat="47.51097" lon="6.68579">
        <ele>377</ele>
        <time>2015-12-20T10:45:17.000Z</time>
      </trkpt>
      <trkpt lat="47.51096" lon="6.68586">
        <ele>377</ele>
        <time>2015-12-20T10:45:18.000Z</time>
      </trkpt>
      <trkpt lat="47.51094" lon="6.68593">
        <ele>377</ele>
        <time>2015-12-20T10:45:19.000Z</time>
      </trkpt>
      <trkpt lat="47.51091" lon="6.686">
        <ele>376</ele>
        <time>2015-12-20T10:45:20.000Z</time>
      </trkpt>
      <trkpt lat="47.51088" lon="6.68606">
        <ele>376</ele>
        <time>2015-12-20T10:45:20.998Z</time>
      </trkpt>
      <trkpt lat="47.51089" lon="6.68613">
        <ele>376</ele>
        <time>2015-12-20T10:45:22.000Z</time>
      </trkpt>
      <trkpt lat="47.51087" lon="6.6862">
        <ele>376</ele>
        <time>2015-12-20T10:45:23.000Z</time>
      </trkpt>
      <trkpt lat="47.51086" lon="6.68628">
        <ele>376</ele>
        <time>2015-12-20T10:45:24.000Z</time>
      </trkpt>
      <trkpt lat="47.51085" lon="6.68635">
        <ele>376</ele>
        <time>2015-12-20T10:45:25.000Z</time>
      </trkpt>
      <trkpt lat="47.51083" lon="6.68642">
        <ele>379</ele>
        <time>2015-12-20T10:45:26.000Z</time>
      </trkpt>
      <trkpt lat="47.51081" lon="6.68649">
        <ele>379</ele>
        <time>2015-12-20T10:45:27.000Z</time>
      </trkpt>
      <trkpt lat="47.5108" lon="6.68656">
        <ele>378</ele>
        <time>2015-12-20T10:45:28.000Z</time>
      </trkpt>
      <trkpt lat="47.51078" lon="6.68664">
        <ele>378</ele>
        <time>2015-12-20T10:45:29.000Z</time>
      </trkpt>
      <trkpt lat="47.51078" lon="6.68671">
        <ele>378</ele>
        <time>2015-12-20T10:45:30.000Z</time>
      </trkpt>
      <trkpt lat="47.51077" lon="6.68678">
        <ele>378</ele>
        <time>2015-12-20T10:45:31.000Z</time>
      </trkpt>
      <trkpt lat="47.51076" lon="6.68686">
        <ele>378</ele>
        <time>2015-12-20T10:45:32.000Z</time>
      </trkpt>
      <trkpt lat="47.51075" lon="6.68693">
        <ele>378</ele>
        <time>2015-12-20T10:45:33.000Z</time>
      </trkpt>
      <trkpt lat="47.51072" lon="6.687">
        <ele>378</ele>
        <time>2015-12-20T10:45:34.000Z</time>
      </trkpt>
      <trkpt lat="47.51071" lon="6.68707">
        <ele>378</ele>
        <time>2015-12-20T10:45:35.000Z</time>
      </trkpt>
      <trkpt lat="47.51071" lon="6.68714">
        <ele>378</ele>
        <time>2015-12-20T10:45:36.000Z</time>
      </trkpt>
      <trkpt lat="47.51069" lon="6.68722">
        <ele>378</ele>
        <time>2015-12-20T10:45:37.000Z</time>
      </trkpt>
      <trkpt lat="47.51067" lon="6.6873">
        <ele>378</ele>
        <time>2015-12-20T10:45:38.000Z</time>
      </trkpt>
      <trkpt lat="47.51066" lon="6.68736">
        <ele>378</ele>
        <time>2015-12-20T10:45:39.000Z</time>
      </trkpt>
      <trkpt lat="47.51064" lon="6.68744">
        <ele>377</ele>
        <time>2015-12-20T10:45:40.000Z</time>
      </trkpt>
      <trkpt lat="47.51063" lon="6.68751">
        <ele>376</ele>
        <time>2015-12-20T10:45:41.000Z</time>
      </trkpt>
      <trkpt lat="47.51059" lon="6.68759">
        <ele>376</ele>
        <time>2015-12-20T10:45:42.000Z</time>
      </trkpt>
      <trkpt lat="47.51056" lon="6.68766">
        <ele>376</ele>
        <time>2015-12-20T10:45:43.001Z</time>
      </trkpt>
      <trkpt lat="47.51054" lon="6.68776">
        <ele>376</ele>
        <time>2015-12-20T10:45:44.000Z</time>
      </trkpt>
      <trkpt lat="47.51054" lon="6.68783">
        <ele>375</ele>
        <time>2015-12-20T10:45:45.000Z</time>
      </trkpt>
      <trkpt lat="47.51052" lon="6.6879">
        <ele>375</ele>
        <time>2015-12-20T10:45:46.000Z</time>
      </trkpt>
      <trkpt lat="47.51051" lon="6.68797">
        <ele>375</ele>
        <time>2015-12-20T10:45:47.000Z</time>
      </trkpt>
      <trkpt lat="47.51051" lon="6.68805">
        <ele>375</ele>
        <time>2015-12-20T10:45:48.000Z</time>
      </trkpt>
      <trkpt lat="47.5105" lon="6.68813">
        <ele>375</ele>
        <time>2015-12-20T10:45:49.000Z</time>
      </trkpt>
      <trkpt lat="47.51049" lon="6.6882">
        <ele>375</ele>
        <time>2015-12-20T10:45:50.000Z</time>
      </trkpt>
      <trkpt lat="47.51048" lon="6.68827">
        <ele>375</ele>
        <time>2015-12-20T10:45:51.000Z</time>
      </trkpt>
      <trkpt lat="47.51047" lon="6.68834">
        <ele>372</ele>
        <time>2015-12-20T10:45:52.000Z</time>
      </trkpt>
      <trkpt lat="47.51045" lon="6.68842">
        <ele>372</ele>
        <time>2015-12-20T10:45:53.000Z</time>
      </trkpt>
      <trkpt lat="47.51044" lon="6.6885">
        <ele>372</ele>
        <time>2015-12-20T10:45:54.000Z</time>
      </trkpt>
      <trkpt lat="47.51043" lon="6.68858">
        <ele>372</ele>
        <time>2015-12-20T10:45:55.000Z</time>
      </trkpt>
      <trkpt lat="47.51041" lon="6.68865">
        <ele>372</ele>
        <time>2015-12-20T10:45:56.000Z</time>
      </trkpt>
      <trkpt lat="47.51041" lon="6.68873">
        <ele>372</ele>
        <time>2015-12-20T10:45:57.000Z</time>
      </trkpt>
      <trkpt lat="47.51039" lon="6.68882">
        <ele>372</ele>
        <time>2015-12-20T10:45:58.000Z</time>
      </trkpt>
      <trkpt lat="47.51039" lon="6.6889">
        <ele>371</ele>
        <time>2015-12-20T10:45:59.000Z</time>
      </trkpt>
      <trkpt lat="47.51037" lon="6.689">
        <ele>371</ele>
        <time>2015-12-20T10:46:00.000Z</time>
      </trkpt>
      <trkpt lat="47.51037" lon="6.68908">
        <ele>371</ele>
        <time>2015-12-20T10:46:01.000Z</time>
      </trkpt>
      <trkpt lat="47.51036" lon="6.68917">
        <ele>369</ele>
        <time>2015-12-20T10:46:02.000Z</time>
      </trkpt>
      <trkpt lat="47.51035" lon="6.68926">
        <ele>369</ele>
        <time>2015-12-20T10:46:03.000Z</time>
      </trkpt>
      <trkpt lat="47.51034" lon="6.68934">
        <ele>369</ele>
        <time>2015-12-20T10:46:04.000Z</time>
      </trkpt>
      <trkpt lat="47.51033" lon="6.68942">
        <ele>369</ele>
        <time>2015-12-20T10:46:05.000Z</time>
      </trkpt>
      <trkpt lat="47.51032" lon="6.68951">
        <ele>369</ele>
        <time>2015-12-20T10:46:06.000Z</time>
      </trkpt>
      <trkpt lat="47.51031" lon="6.6896">
        <ele>369</ele>
        <time>2015-12-20T10:46:07.000Z</time>
      </trkpt>
      <trkpt lat="47.5103" lon="6.68969">
        <ele>369</ele>
        <time>2015-12-20T10:46:08.000Z</time>
      </trkpt>
      <trkpt lat="47.51029" lon="6.68977">
        <ele>369</ele>
        <time>2015-12-20T10:46:09.000Z</time>
      </trkpt>
      <trkpt lat="47.51028" lon="6.68985">
        <ele>369</ele>
        <time>2015-12-20T10:46:10.000Z</time>
      </trkpt>
      <trkpt lat="47.51027" lon="6.68994">
        <ele>369</ele>
        <time>2015-12-20T10:46:11.000Z</time>
      </trkpt>
      <trkpt lat="47.51027" lon="6.69003">
        <ele>368</ele>
        <time>2015-12-20T10:46:12.000Z</time>
      </trkpt>
      <trkpt lat="47.51025" lon="6.69012">
        <ele>368</ele>
        <time>2015-12-20T10:46:13.000Z</time>
      </trkpt>
      <trkpt lat="47.51023" lon="6.69021">
        <ele>368</ele>
        <time>2015-12-20T10:46:14.000Z</time>
      </trkpt>
      <trkpt lat="47.51021" lon="6.6903">
        <ele>368</ele>
        <time>2015-12-20T10:46:15.000Z</time>
      </trkpt>
      <trkpt lat="47.5102" lon="6.69041">
        <ele>368</ele>
        <time>2015-12-20T10:46:16.000Z</time>
      </trkpt>
      <trkpt lat="47.51019" lon="6.6905">
        <ele>368</ele>
        <time>2015-12-20T10:46:17.000Z</time>
      </trkpt>
      <trkpt lat="47.51017" lon="6.69059">
        <ele>368</ele>
        <time>2015-12-20T10:46:17.999Z</time>
      </trkpt>
      <trkpt lat="47.51015" lon="6.69069">
        <ele>368</ele>
        <time>2015-12-20T10:46:19.000Z</time>
      </trkpt>
      <trkpt lat="47.51013" lon="6.69079">
        <ele>368</ele>
        <time>2015-12-20T10:46:20.000Z</time>
      </trkpt>
      <trkpt lat="47.51012" lon="6.69089">
        <ele>369</ele>
        <time>2015-12-20T10:46:20.999Z</time>
      </trkpt>
      <trkpt lat="47.51009" lon="6.69098">
        <ele>369</ele>
        <time>2015-12-20T10:46:22.000Z</time>
      </trkpt>
      <trkpt lat="47.51007" lon="6.69108">
        <ele>369</ele>
        <time>2015-12-20T10:46:23.000Z</time>
      </trkpt>
      <trkpt lat="47.51005" lon="6.69117">
        <ele>369</ele>
        <time>2015-12-20T10:46:24.000Z</time>
      </trkpt>
      <trkpt lat="47.51002" lon="6.69124">
        <ele>369</ele>
        <time>2015-12-20T10:46:25.000Z</time>
      </trkpt>
      <trkpt lat="47.51" lon="6.69133">
        <ele>369</ele>
        <time>2015-12-20T10:46:26.000Z</time>
      </trkpt>
      <trkpt lat="47.50997" lon="6.69142">
        <ele>369</ele>
        <time>2015-12-20T10:46:27.000Z</time>
      </trkpt>
      <trkpt lat="47.50995" lon="6.69149">
        <ele>370</ele>
        <time>2015-12-20T10:46:28.000Z</time>
      </trkpt>
      <trkpt lat="47.50992" lon="6.69157">
        <ele>370</ele>
        <time>2015-12-20T10:46:29.000Z</time>
      </trkpt>
      <trkpt lat="47.50989" lon="6.69166">
        <ele>370</ele>
        <time>2015-12-20T10:46:30.000Z</time>
      </trkpt>
      <trkpt lat="47.50986" lon="6.69173">
        <ele>371</ele>
        <time>2015-12-20T10:46:31.000Z</time>
      </trkpt>
      <trkpt lat="47.50982" lon="6.69181">
        <ele>371</ele>
        <time>2015-12-20T10:46:32.000Z</time>
      </trkpt>
      <trkpt lat="47.50979" lon="6.69189">
        <ele>372</ele>
        <time>2015-12-20T10:46:33.000Z</time>
      </trkpt>
      <trkpt lat="47.50976" lon="6.69196">
        <ele>372</ele>
        <time>2015-12-20T10:46:34.000Z</time>
      </trkpt>
      <trkpt lat="47.50974" lon="6.69203">
        <ele>372</ele>
        <time>2015-12-20T10:46:35.000Z</time>
      </trkpt>
      <trkpt lat="47.50971" lon="6.6921">
        <ele>372</ele>
        <time>2015-12-20T10:46:36.000Z</time>
      </trkpt>
      <trkpt lat="47.50967" lon="6.69216">
        <ele>373</ele>
        <time>2015-12-20T10:46:37.000Z</time>
      </trkpt>
      <trkpt lat="47.50964" lon="6.69222">
        <ele>373</ele>
        <time>2015-12-20T10:46:38.000Z</time>
      </trkpt>
      <trkpt lat="47.50962" lon="6.69228">
        <ele>373</ele>
        <time>2015-12-20T10:46:39.000Z</time>
      </trkpt>
      <trkpt lat="47.5096" lon="6.69235">
        <ele>373</ele>
        <time>2015-12-20T10:46:40.000Z</time>
      </trkpt>
      <trkpt lat="47.50958" lon="6.69239">
        <ele>373</ele>
        <time>2015-12-20T10:46:41.000Z</time>
      </trkpt>
      <trkpt lat="47.50955" lon="6.69244">
        <ele>373</ele>
        <time>2015-12-20T10:46:42.000Z</time>
      </trkpt>
      <trkpt lat="47.50953" lon="6.69248">
        <ele>373</ele>
        <time>2015-12-20T10:46:43.000Z</time>
      </trkpt>
      <trkpt lat="47.5095" lon="6.69253">
        <ele>376</ele>
        <time>2015-12-20T10:46:44.000Z</time>
      </trkpt>
      <trkpt lat="47.50948" lon="6.69259">
        <ele>376</ele>
        <time>2015-12-20T10:46:45.000Z</time>
      </trkpt>
      <trkpt lat="47.50945" lon="6.69264">
        <ele>376</ele>
        <time>2015-12-20T10:46:46.000Z</time>
      </trkpt>
      <trkpt lat="47.50943" lon="6.69268">
        <ele>376</ele>
        <time>2015-12-20T10:46:47.000Z</time>
      </trkpt>
      <trkpt lat="47.5094" lon="6.69274">
        <ele>376</ele>
        <time>2015-12-20T10:46:48.000Z</time>
      </trkpt>
      <trkpt lat="47.50937" lon="6.69278">
        <ele>376</ele>
        <time>2015-12-20T10:46:49.000Z</time>
      </trkpt>
      <trkpt lat="47.50935" lon="6.69283">
        <ele>376</ele>
        <time>2015-12-20T10:46:49.999Z</time>
      </trkpt>
      <trkpt lat="47.50932" lon="6.69287">
        <ele>376</ele>
        <time>2015-12-20T10:46:51.000Z</time>
      </trkpt>
      <trkpt lat="47.5093" lon="6.69292">
        <ele>376</ele>
        <time>2015-12-20T10:46:52.000Z</time>
      </trkpt>
      <trkpt lat="47.50927" lon="6.69297">
        <ele>377</ele>
        <time>2015-12-20T10:46:53.000Z</time>
      </trkpt>
      <trkpt lat="47.50925" lon="6.69301">
        <ele>377</ele>
        <time>2015-12-20T10:46:54.000Z</time>
      </trkpt>
      <trkpt lat="47.50923" lon="6.69305">
        <ele>377</ele>
        <time>2015-12-20T10:46:55.000Z</time>
      </trkpt>
      <trkpt lat="47.50922" lon="6.69309">
        <ele>377</ele>
        <time>2015-12-20T10:46:56.000Z</time>
      </trkpt>
      <trkpt lat="47.5092" lon="6.69313">
        <ele>377</ele>
        <time>2015-12-20T10:46:57.000Z</time>
      </trkpt>
      <trkpt lat="47.50918" lon="6.69317">
        <ele>378</ele>
        <time>2015-12-20T10:46:58.000Z</time>
      </trkpt>
      <trkpt lat="47.50917" lon="6.69321">
        <ele>378</ele>
        <time>2015-12-20T10:46:59.000Z</time>
      </trkpt>
      <trkpt lat="47.50915" lon="6.69325">
        <ele>378</ele>
        <time>2015-12-20T10:47:00.000Z</time>
      </trkpt>
      <trkpt lat="47.50913" lon="6.69329">
        <ele>378</ele>
        <time>2015-12-20T10:47:01.000Z</time>
      </trkpt>
      <trkpt lat="47.50911" lon="6.69332">
        <ele>378</ele>
        <time>2015-12-20T10:47:02.000Z</time>
      </trkpt>
      <trkpt lat="47.50909" lon="6.69336">
        <ele>379</ele>
        <time>2015-12-20T10:47:03.000Z</time>
      </trkpt>
      <trkpt lat="47.50907" lon="6.6934">
        <ele>379</ele>
        <time>2015-12-20T10:47:04.000Z</time>
      </trkpt>
      <trkpt lat="47.50905" lon="6.69345">
        <ele>379</ele>
        <time>2015-12-20T10:47:05.000Z</time>
      </trkpt>
      <trkpt lat="47.50903" lon="6.69349">
        <ele>378</ele>
        <time>2015-12-20T10:47:06.000Z</time>
      </trkpt>
      <trkpt lat="47.50901" lon="6.69353">
        <ele>378</ele>
        <time>2015-12-20T10:47:07.000Z</time>
      </trkpt>
      <trkpt lat="47.50899" lon="6.69357">
        <ele>378</ele>
        <time>2015-12-20T10:47:08.000Z</time>
      </trkpt>
      <trkpt lat="47.50897" lon="6.69362">
        <ele>378</ele>
        <time>2015-12-20T10:47:09.000Z</time>
      </trkpt>
      <trkpt lat="47.50896" lon="6.69366">
        <ele>378</ele>
        <time>2015-12-20T10:47:10.000Z</time>
      </trkpt>
      <trkpt lat="47.50894" lon="6.69371">
        <ele>378</ele>
        <time>2015-12-20T10:47:11.000Z</time>
      </trkpt>
      <trkpt lat="47.50893" lon="6.69376">
        <ele>378</ele>
        <time>2015-12-20T10:47:12.000Z</time>
      </trkpt>
      <trkpt lat="47.50892" lon="6.69381">
        <ele>378</ele>
        <time>2015-12-20T10:47:13.000Z</time>
      </trkpt>
      <trkpt lat="47.5089" lon="6.69387">
        <ele>379</ele>
        <time>2015-12-20T10:47:14.000Z</time>
      </trkpt>
      <trkpt lat="47.50889" lon="6.69392">
        <ele>379</ele>
        <time>2015-12-20T10:47:15.000Z</time>
      </trkpt>
      <trkpt lat="47.50888" lon="6.69397">
        <ele>379</ele>
        <time>2015-12-20T10:47:16.000Z</time>
      </trkpt>
      <trkpt lat="47.50887" lon="6.69402">
        <ele>379</ele>
        <time>2015-12-20T10:47:17.000Z</time>
      </trkpt>
      <trkpt lat="47.50886" lon="6.69407">
        <ele>379</ele>
        <time>2015-12-20T10:47:18.000Z</time>
      </trkpt>
      <trkpt lat="47.50886" lon="6.69412">
        <ele>379</ele>
        <time>2015-12-20T10:47:19.000Z</time>
      </trkpt>
      <trkpt lat="47.50885" lon="6.69417">
        <ele>379</ele>
        <time>2015-12-20T10:47:20.000Z</time>
      </trkpt>
      <trkpt lat="47.50885" lon="6.69425">
        <ele>379</ele>
        <time>2015-12-20T10:47:21.000Z</time>
      </trkpt>
      <trkpt lat="47.50885" lon="6.69432">
        <ele>379</ele>
        <time>2015-12-20T10:47:22.000Z</time>
      </trkpt>
      <trkpt lat="47.50884" lon="6.69438">
        <ele>379</ele>
        <time>2015-12-20T10:47:23.000Z</time>
      </trkpt>
      <trkpt lat="47.50885" lon="6.69445">
        <ele>379</ele>
        <time>2015-12-20T10:47:24.000Z</time>
      </trkpt>
      <trkpt lat="47.50884" lon="6.69453">
        <ele>379</ele>
        <time>2015-12-20T10:47:25.000Z</time>
      </trkpt>
      <trkpt lat="47.50884" lon="6.6946">
        <ele>379</ele>
        <time>2015-12-20T10:47:26.000Z</time>
      </trkpt>
      <trkpt lat="47.50885" lon="6.69467">
        <ele>379</ele>
        <time>2015-12-20T10:47:27.000Z</time>
      </trkpt>
      <trkpt lat="47.50884" lon="6.69474">
        <ele>379</ele>
        <time>2015-12-20T10:47:28.000Z</time>
      </trkpt>
      <trkpt lat="47.50885" lon="6.69481">
        <ele>379</ele>
        <time>2015-12-20T10:47:29.000Z</time>
      </trkpt>
      <trkpt lat="47.50886" lon="6.69488">
        <ele>379</ele>
        <time>2015-12-20T10:47:30.000Z</time>
      </trkpt>
      <trkpt lat="47.50888" lon="6.69496">
        <ele>379</ele>
        <time>2015-12-20T10:47:31.000Z</time>
      </trkpt>
      <trkpt lat="47.50889" lon="6.69502">
        <ele>379</ele>
        <time>2015-12-20T10:47:32.000Z</time>
      </trkpt>
      <trkpt lat="47.5089" lon="6.69507">
        <ele>379</ele>
        <time>2015-12-20T10:47:33.000Z</time>
      </trkpt>
      <trkpt lat="47.50891" lon="6.69513">
        <ele>379</ele>
        <time>2015-12-20T10:47:34.000Z</time>
      </trkpt>
      <trkpt lat="47.50893" lon="6.69519">
        <ele>379</ele>
        <time>2015-12-20T10:47:35.000Z</time>
      </trkpt>
      <trkpt lat="47.50894" lon="6.69523">
        <ele>379</ele>
        <time>2015-12-20T10:47:36.000Z</time>
      </trkpt>
      <trkpt lat="47.50896" lon="6.69528">
        <ele>379</ele>
        <time>2015-12-20T10:47:37.000Z</time>
      </trkpt>
      <trkpt lat="47.50898" lon="6.69531">
        <ele>379</ele>
        <time>2015-12-20T10:47:38.000Z</time>
      </trkpt>
      <trkpt lat="47.50902" lon="6.69533">
        <ele>379</ele>
        <time>2015-12-20T10:47:39.000Z</time>
      </trkpt>
      <trkpt lat="47.50905" lon="6.69536">
        <ele>379</ele>
        <time>2015-12-20T10:47:40.000Z</time>
      </trkpt>
      <trkpt lat="47.50909" lon="6.69539">
        <ele>379</ele>
        <time>2015-12-20T10:47:41.000Z</time>
      </trkpt>
      <trkpt lat="47.50912" lon="6.69541">
        <ele>379</ele>
        <time>2015-12-20T10:47:42.000Z</time>
      </trkpt>
      <trkpt lat="47.50915" lon="6.69543">
        <ele>379</ele>
        <time>2015-12-20T10:47:43.000Z</time>
      </trkpt>
      <trkpt lat="47.50918" lon="6.69545">
        <ele>381</ele>
        <time>2015-12-20T10:47:44.000Z</time>
      </trkpt>
      <trkpt lat="47.50922" lon="6.69548">
        <ele>381</ele>
        <time>2015-12-20T10:47:45.000Z</time>
      </trkpt>
      <trkpt lat="47.50925" lon="6.6955">
        <ele>381</ele>
        <time>2015-12-20T10:47:46.000Z</time>
      </trkpt>
      <trkpt lat="47.50928" lon="6.69552">
        <ele>381</ele>
        <time>2015-12-20T10:47:47.000Z</time>
      </trkpt>
      <trkpt lat="47.50931" lon="6.69554">
        <ele>381</ele>
        <time>2015-12-20T10:47:48.000Z</time>
      </trkpt>
      <trkpt lat="47.50934" lon="6.69556">
        <ele>381</ele>
        <time>2015-12-20T10:47:49.000Z</time>
      </trkpt>
      <trkpt lat="47.50937" lon="6.69558">
        <ele>381</ele>
        <time>2015-12-20T10:47:50.000Z</time>
      </trkpt>
      <trkpt lat="47.5094" lon="6.69559">
        <ele>381</ele>
        <time>2015-12-20T10:47:51.000Z</time>
      </trkpt>
      <trkpt lat="47.50943" lon="6.69561">
        <ele>381</ele>
        <time>2015-12-20T10:47:52.000Z</time>
      </trkpt>
      <trkpt lat="47.50946" lon="6.69562">
        <ele>381</ele>
        <time>2015-12-20T10:47:53.000Z</time>
      </trkpt>
      <trkpt lat="47.50949" lon="6.69564">
        <ele>381</ele>
        <time>2015-12-20T10:47:54.000Z</time>
      </trkpt>
      <trkpt lat="47.50951" lon="6.69565">
        <ele>381</ele>
        <time>2015-12-20T10:47:55.000Z</time>
      </trkpt>
      <trkpt lat="47.50954" lon="6.69568">
        <ele>381</ele>
        <time>2015-12-20T10:47:56.000Z</time>
      </trkpt>
      <trkpt lat="47.50957" lon="6.6957">
        <ele>381</ele>
        <time>2015-12-20T10:47:57.000Z</time>
      </trkpt>
      <trkpt lat="47.50959" lon="6.69572">
        <ele>381</ele>
        <time>2015-12-20T10:47:58.000Z</time>
      </trkpt>
      <trkpt lat="47.50962" lon="6.69574">
        <ele>381</ele>
        <time>2015-12-20T10:47:59.000Z</time>
      </trkpt>
      <trkpt lat="47.50965" lon="6.69577">
        <ele>381</ele>
        <time>2015-12-20T10:48:00.000Z</time>
      </trkpt>
      <trkpt lat="47.50968" lon="6.69579">
        <ele>381</ele>
        <time>2015-12-20T10:48:01.000Z</time>
      </trkpt>
      <trkpt lat="47.50971" lon="6.69583">
        <ele>381</ele>
        <time>2015-12-20T10:48:02.000Z</time>
      </trkpt>
      <trkpt lat="47.50973" lon="6.69586">
        <ele>381</ele>
        <time>2015-12-20T10:48:03.000Z</time>
      </trkpt>
      <trkpt lat="47.50976" lon="6.69589">
        <ele>381</ele>
        <time>2015-12-20T10:48:04.000Z</time>
      </trkpt>
      <trkpt lat="47.50978" lon="6.69594">
        <ele>381</ele>
        <time>2015-12-20T10:48:05.000Z</time>
      </trkpt>
      <trkpt lat="47.50981" lon="6.69598">
        <ele>381</ele>
        <time>2015-12-20T10:48:06.000Z</time>
      </trkpt>
      <trkpt lat="47.50983" lon="6.69602">
        <ele>381</ele>
        <time>2015-12-20T10:48:07.000Z</time>
      </trkpt>
      <trkpt lat="47.50986" lon="6.69606">
        <ele>381</ele>
        <time>2015-12-20T10:48:07.999Z</time>
      </trkpt>
      <trkpt lat="47.50988" lon="6.69611">
        <ele>381</ele>
        <time>2015-12-20T10:48:09.000Z</time>
      </trkpt>
      <trkpt lat="47.50991" lon="6.69616">
        <ele>381</ele>
        <time>2015-12-20T10:48:10.000Z</time>
      </trkpt>
      <trkpt lat="47.50993" lon="6.69622">
        <ele>381</ele>
        <time>2015-12-20T10:48:11.000Z</time>
      </trkpt>
      <trkpt lat="47.50995" lon="6.69627">
        <ele>381</ele>
        <time>2015-12-20T10:48:12.000Z</time>
      </trkpt>
      <trkpt lat="47.50997" lon="6.69634">
        <ele>381</ele>
        <time>2015-12-20T10:48:13.000Z</time>
      </trkpt>
      <trkpt lat="47.50999" lon="6.6964">
        <ele>381</ele>
        <time>2015-12-20T10:48:14.000Z</time>
      </trkpt>
      <trkpt lat="47.51001" lon="6.69645">
        <ele>381</ele>
        <time>2015-12-20T10:48:15.000Z</time>
      </trkpt>
      <trkpt lat="47.51004" lon="6.69651">
        <ele>381</ele>
        <time>2015-12-20T10:48:16.000Z</time>
      </trkpt>
      <trkpt lat="47.51006" lon="6.69656">
        <ele>381</ele>
        <time>2015-12-20T10:48:17.000Z</time>
      </trkpt>
      <trkpt lat="47.51009" lon="6.69661">
        <ele>381</ele>
        <time>2015-12-20T10:48:18.000Z</time>
      </trkpt>
      <trkpt lat="47.51012" lon="6.69666">
        <ele>381</ele>
        <time>2015-12-20T10:48:19.000Z</time>
      </trkpt>
      <trkpt lat="47.51014" lon="6.69671">
        <ele>381</ele>
        <time>2015-12-20T10:48:20.000Z</time>
      </trkpt>
      <trkpt lat="47.51017" lon="6.69675">
        <ele>381</ele>
        <time>2015-12-20T10:48:20.999Z</time>
      </trkpt>
      <trkpt lat="47.5102" lon="6.6968">
        <ele>381</ele>
        <time>2015-12-20T10:48:22.000Z</time>
      </trkpt>
      <trkpt lat="47.51022" lon="6.69685">
        <ele>381</ele>
        <time>2015-12-20T10:48:23.000Z</time>
      </trkpt>
      <trkpt lat="47.51025" lon="6.6969">
        <ele>381</ele>
        <time>2015-12-20T10:48:24.000Z</time>
      </trkpt>
      <trkpt lat="47.51027" lon="6.69696">
        <ele>381</ele>
        <time>2015-12-20T10:48:25.000Z</time>
      </trkpt>
      <trkpt lat="47.5103" lon="6.697">
        <ele>381</ele>
        <time>2015-12-20T10:48:26.000Z</time>
      </trkpt>
      <trkpt lat="47.51032" lon="6.69705">
        <ele>381</ele>
        <time>2015-12-20T10:48:27.000Z</time>
      </trkpt>
      <trkpt lat="47.51034" lon="6.69711">
        <ele>381</ele>
        <time>2015-12-20T10:48:28.000Z</time>
      </trkpt>
      <trkpt lat="47.51037" lon="6.69715">
        <ele>381</ele>
        <time>2015-12-20T10:48:29.000Z</time>
      </trkpt>
      <trkpt lat="47.5104" lon="6.6972">
        <ele>381</ele>
        <time>2015-12-20T10:48:30.000Z</time>
      </trkpt>
      <trkpt lat="47.51042" lon="6.69725">
        <ele>381</ele>
        <time>2015-12-20T10:48:31.000Z</time>
      </trkpt>
      <trkpt lat="47.51045" lon="6.6973">
        <ele>381</ele>
        <time>2015-12-20T10:48:32.000Z</time>
      </trkpt>
      <trkpt lat="47.51048" lon="6.69735">
        <ele>381</ele>
        <time>2015-12-20T10:48:33.000Z</time>
      </trkpt>
      <trkpt lat="47.5105" lon="6.6974">
        <ele>381</ele>
        <time>2015-12-20T10:48:34.000Z</time>
      </trkpt>
      <trkpt lat="47.51053" lon="6.69745">
        <ele>381</ele>
        <time>2015-12-20T10:48:35.000Z</time>
      </trkpt>
      <trkpt lat="47.51055" lon="6.6975">
        <ele>382</ele>
        <time>2015-12-20T10:48:36.000Z</time>
      </trkpt>
      <trkpt lat="47.51057" lon="6.69755">
        <ele>382</ele>
        <time>2015-12-20T10:48:36.999Z</time>
      </trkpt>
      <trkpt lat="47.5106" lon="6.69759">
        <ele>382</ele>
        <time>2015-12-20T10:48:38.000Z</time>
      </trkpt>
      <trkpt lat="47.51063" lon="6.69762">
        <ele>382</ele>
        <time>2015-12-20T10:48:39.000Z</time>
      </trkpt>
      <trkpt lat="47.51065" lon="6.69765">
        <ele>382</ele>
        <time>2015-12-20T10:48:40.000Z</time>
      </trkpt>
      <trkpt lat="47.51068" lon="6.69769">
        <ele>382</ele>
        <time>2015-12-20T10:48:40.999Z</time>
      </trkpt>
      <trkpt lat="47.51071" lon="6.69772">
        <ele>382</ele>
        <time>2015-12-20T10:48:42.000Z</time>
      </trkpt>
      <trkpt lat="47.51073" lon="6.69775">
        <ele>382</ele>
        <time>2015-12-20T10:48:43.000Z</time>
      </trkpt>
      <trkpt lat="47.51076" lon="6.69779">
        <ele>382</ele>
        <time>2015-12-20T10:48:44.001Z</time>
      </trkpt>
      <trkpt lat="47.51078" lon="6.69782">
        <ele>382</ele>
        <time>2015-12-20T10:48:45.000Z</time>
      </trkpt>
      <trkpt lat="47.5108" lon="6.69786">
        <ele>382</ele>
        <time>2015-12-20T10:48:46.000Z</time>
      </trkpt>
      <trkpt lat="47.51083" lon="6.6979">
        <ele>382</ele>
        <time>2015-12-20T10:48:47.000Z</time>
      </trkpt>
      <trkpt lat="47.51086" lon="6.69794">
        <ele>380</ele>
        <time>2015-12-20T10:48:48.000Z</time>
      </trkpt>
      <trkpt lat="47.51088" lon="6.69798">
        <ele>381</ele>
        <time>2015-12-20T10:48:49.000Z</time>
      </trkpt>
      <trkpt lat="47.51091" lon="6.69802">
        <ele>381</ele>
        <time>2015-12-20T10:48:50.000Z</time>
      </trkpt>
      <trkpt lat="47.51097" lon="6.69811">
        <ele>381</ele>
        <time>2015-12-20T10:48:52.000Z</time>
      </trkpt>
      <trkpt lat="47.51099" lon="6.69816">
        <ele>381</ele>
        <time>2015-12-20T10:48:53.000Z</time>
      </trkpt>
      <trkpt lat="47.51102" lon="6.69821">
        <ele>381</ele>
        <time>2015-12-20T10:48:54.000Z</time>
      </trkpt>
      <trkpt lat="47.51105" lon="6.69826">
        <ele>381</ele>
        <time>2015-12-20T10:48:55.000Z</time>
      </trkpt>
      <trkpt lat="47.5111" lon="6.69831">
        <ele>380</ele>
        <time>2015-12-20T10:48:56.000Z</time>
      </trkpt>
      <trkpt lat="47.51113" lon="6.69836">
        <ele>381</ele>
        <time>2015-12-20T10:48:57.000Z</time>
      </trkpt>
      <trkpt lat="47.51116" lon="6.69842">
        <ele>380</ele>
        <time>2015-12-20T10:48:58.000Z</time>
      </trkpt>
      <trkpt lat="47.51119" lon="6.69847">
        <ele>380</ele>
        <time>2015-12-20T10:48:59.000Z</time>
      </trkpt>
      <trkpt lat="47.51123" lon="6.69853">
        <ele>380</ele>
        <time>2015-12-20T10:49:00.000Z</time>
      </trkpt>
      <trkpt lat="47.51126" lon="6.69859">
        <ele>380</ele>
        <time>2015-12-20T10:49:01.000Z</time>
      </trkpt>
      <trkpt lat="47.51129" lon="6.69865">
        <ele>380</ele>
        <time>2015-12-20T10:49:02.000Z</time>
      </trkpt>
      <trkpt lat="47.51132" lon="6.69871">
        <ele>380</ele>
        <time>2015-12-20T10:49:03.000Z</time>
      </trkpt>
      <trkpt lat="47.51135" lon="6.69878">
        <ele>380</ele>
        <time>2015-12-20T10:49:04.000Z</time>
      </trkpt>
      <trkpt lat="47.51138" lon="6.69883">
        <ele>380</ele>
        <time>2015-12-20T10:49:05.000Z</time>
      </trkpt>
      <trkpt lat="47.51141" lon="6.6989">
        <ele>380</ele>
        <time>2015-12-20T10:49:06.000Z</time>
      </trkpt>
      <trkpt lat="47.51144" lon="6.69897">
        <ele>379</ele>
        <time>2015-12-20T10:49:07.000Z</time>
      </trkpt>
      <trkpt lat="47.51147" lon="6.69905">
        <ele>379</ele>
        <time>2015-12-20T10:49:08.000Z</time>
      </trkpt>
      <trkpt lat="47.5115" lon="6.69912">
        <ele>379</ele>
        <time>2015-12-20T10:49:09.000Z</time>
      </trkpt>
      <trkpt lat="47.51154" lon="6.69918">
        <ele>378</ele>
        <time>2015-12-20T10:49:10.000Z</time>
      </trkpt>
      <trkpt lat="47.51157" lon="6.69925">
        <ele>378</ele>
        <time>2015-12-20T10:49:11.000Z</time>
      </trkpt>
      <trkpt lat="47.51161" lon="6.69933">
        <ele>378</ele>
        <time>2015-12-20T10:49:12.000Z</time>
      </trkpt>
      <trkpt lat="47.51164" lon="6.69941">
        <ele>378</ele>
        <time>2015-12-20T10:49:13.000Z</time>
      </trkpt>
      <trkpt lat="47.51168" lon="6.6995">
        <ele>376</ele>
        <time>2015-12-20T10:49:14.000Z</time>
      </trkpt>
      <trkpt lat="47.51172" lon="6.69959">
        <ele>375</ele>
        <time>2015-12-20T10:49:15.000Z</time>
      </trkpt>
      <trkpt lat="47.51176" lon="6.69968">
        <ele>375</ele>
        <time>2015-12-20T10:49:16.000Z</time>
      </trkpt>
      <trkpt lat="47.51181" lon="6.69978">
        <ele>375</ele>
        <time>2015-12-20T10:49:17.000Z</time>
      </trkpt>
      <trkpt lat="47.51186" lon="6.69987">
        <ele>374</ele>
        <time>2015-12-20T10:49:18.000Z</time>
      </trkpt>
      <trkpt lat="47.51191" lon="6.69997">
        <ele>374</ele>
        <time>2015-12-20T10:49:19.000Z</time>
      </trkpt>
      <trkpt lat="47.51196" lon="6.70007">
        <ele>373</ele>
        <time>2015-12-20T10:49:20.000Z</time>
      </trkpt>
      <trkpt lat="47.51201" lon="6.70017">
        <ele>372</ele>
        <time>2015-12-20T10:49:21.000Z</time>
      </trkpt>
      <trkpt lat="47.51206" lon="6.70027">
        <ele>372</ele>
        <time>2015-12-20T10:49:22.000Z</time>
      </trkpt>
      <trkpt lat="47.51212" lon="6.70036">
        <ele>372</ele>
        <time>2015-12-20T10:49:23.000Z</time>
      </trkpt>
      <trkpt lat="47.51218" lon="6.70045">
        <ele>372</ele>
        <time>2015-12-20T10:49:24.000Z</time>
      </trkpt>
      <trkpt lat="47.51223" lon="6.70054">
        <ele>372</ele>
        <time>2015-12-20T10:49:25.000Z</time>
      </trkpt>
      <trkpt lat="47.51228" lon="6.70062">
        <ele>371</ele>
        <time>2015-12-20T10:49:26.000Z</time>
      </trkpt>
      <trkpt lat="47.51233" lon="6.70071">
        <ele>371</ele>
        <time>2015-12-20T10:49:27.000Z</time>
      </trkpt>
      <trkpt lat="47.51239" lon="6.7008">
        <ele>371</ele>
        <time>2015-12-20T10:49:28.000Z</time>
      </trkpt>
      <trkpt lat="47.51244" lon="6.70088">
        <ele>370</ele>
        <time>2015-12-20T10:49:29.000Z</time>
      </trkpt>
      <trkpt lat="47.51249" lon="6.70095">
        <ele>370</ele>
        <time>2015-12-20T10:49:30.000Z</time>
      </trkpt>
      <trkpt lat="47.51254" lon="6.70103">
        <ele>369</ele>
        <time>2015-12-20T10:49:31.000Z</time>
      </trkpt>
      <trkpt lat="47.51259" lon="6.7011">
        <ele>369</ele>
        <time>2015-12-20T10:49:32.000Z</time>
      </trkpt>
      <trkpt lat="47.51264" lon="6.70117">
        <ele>369</ele>
        <time>2015-12-20T10:49:33.000Z</time>
      </trkpt>
      <trkpt lat="47.51269" lon="6.70124">
        <ele>368</ele>
        <time>2015-12-20T10:49:34.000Z</time>
      </trkpt>
      <trkpt lat="47.51274" lon="6.70131">
        <ele>368</ele>
        <time>2015-12-20T10:49:35.000Z</time>
      </trkpt>
      <trkpt lat="47.51279" lon="6.70138">
        <ele>368</ele>
        <time>2015-12-20T10:49:36.000Z</time>
      </trkpt>
      <trkpt lat="47.51284" lon="6.70145">
        <ele>368</ele>
        <time>2015-12-20T10:49:37.000Z</time>
      </trkpt>
      <trkpt lat="47.5129" lon="6.70152">
        <ele>368</ele>
        <time>2015-12-20T10:49:38.000Z</time>
      </trkpt>
      <trkpt lat="47.51296" lon="6.70159">
        <ele>368</ele>
        <time>2015-12-20T10:49:39.000Z</time>
      </trkpt>
      <trkpt lat="47.51302" lon="6.70166">
        <ele>368</ele>
        <time>2015-12-20T10:49:40.000Z</time>
      </trkpt>
      <trkpt lat="47.51308" lon="6.70174">
        <ele>368</ele>
        <time>2015-12-20T10:49:41.000Z</time>
      </trkpt>
      <trkpt lat="47.51314" lon="6.70181">
        <ele>367</ele>
        <time>2015-12-20T10:49:42.000Z</time>
      </trkpt>
      <trkpt lat="47.5132" lon="6.70188">
        <ele>367</ele>
        <time>2015-12-20T10:49:43.000Z</time>
      </trkpt>
      <trkpt lat="47.51326" lon="6.70196">
        <ele>368</ele>
        <time>2015-12-20T10:49:44.000Z</time>
      </trkpt>
      <trkpt lat="47.51332" lon="6.70202">
        <ele>368</ele>
        <time>2015-12-20T10:49:45.000Z</time>
      </trkpt>
      <trkpt lat="47.51338" lon="6.70209">
        <ele>366</ele>
        <time>2015-12-20T10:49:46.000Z</time>
      </trkpt>
      <trkpt lat="47.51343" lon="6.70216">
        <ele>366</ele>
        <time>2015-12-20T10:49:47.000Z</time>
      </trkpt>
      <trkpt lat="47.51348" lon="6.70224">
        <ele>366</ele>
        <time>2015-12-20T10:49:48.000Z</time>
      </trkpt>
      <trkpt lat="47.51352" lon="6.70231">
        <ele>366</ele>
        <time>2015-12-20T10:49:49.000Z</time>
      </trkpt>
      <trkpt lat="47.51356" lon="6.70239">
        <ele>366</ele>
        <time>2015-12-20T10:49:50.000Z</time>
      </trkpt>
      <trkpt lat="47.5136" lon="6.70246">
        <ele>366</ele>
        <time>2015-12-20T10:49:51.000Z</time>
      </trkpt>
      <trkpt lat="47.51363" lon="6.70254">
        <ele>368</ele>
        <time>2015-12-20T10:49:52.000Z</time>
      </trkpt>
      <trkpt lat="47.51367" lon="6.70261">
        <ele>368</ele>
        <time>2015-12-20T10:49:53.000Z</time>
      </trkpt>
      <trkpt lat="47.5137" lon="6.70268">
        <ele>368</ele>
        <time>2015-12-20T10:49:54.000Z</time>
      </trkpt>
      <trkpt lat="47.51372" lon="6.70275">
        <ele>369</ele>
        <time>2015-12-20T10:49:55.000Z</time>
      </trkpt>
      <trkpt lat="47.51374" lon="6.70282">
        <ele>369</ele>
        <time>2015-12-20T10:49:56.000Z</time>
      </trkpt>
      <trkpt lat="47.51375" lon="6.70289">
        <ele>369</ele>
        <time>2015-12-20T10:49:57.000Z</time>
      </trkpt>
      <trkpt lat="47.51373" lon="6.70294">
        <ele>369</ele>
        <time>2015-12-20T10:49:58.000Z</time>
      </trkpt>
      <trkpt lat="47.51372" lon="6.70299">
        <ele>369</ele>
        <time>2015-12-20T10:49:59.000Z</time>
      </trkpt>
      <trkpt lat="47.5137" lon="6.70303">
        <ele>370</ele>
        <time>2015-12-20T10:50:00.000Z</time>
      </trkpt>
      <trkpt lat="47.51368" lon="6.70307">
        <ele>370</ele>
        <time>2015-12-20T10:50:00.999Z</time>
      </trkpt>
      <trkpt lat="47.51363" lon="6.7031">
        <ele>370</ele>
        <time>2015-12-20T10:50:02.000Z</time>
      </trkpt>
      <trkpt lat="47.5136" lon="6.70312">
        <ele>371</ele>
        <time>2015-12-20T10:50:03.000Z</time>
      </trkpt>
      <trkpt lat="47.51356" lon="6.70315">
        <ele>371</ele>
        <time>2015-12-20T10:50:04.000Z</time>
      </trkpt>
      <trkpt lat="47.51353" lon="6.70317">
        <ele>372</ele>
        <time>2015-12-20T10:50:05.000Z</time>
      </trkpt>
      <trkpt lat="47.51351" lon="6.70319">
        <ele>372</ele>
        <time>2015-12-20T10:50:06.000Z</time>
      </trkpt>
      <trkpt lat="47.51348" lon="6.70321">
        <ele>373</ele>
        <time>2015-12-20T10:50:07.000Z</time>
      </trkpt>
      <trkpt lat="47.51346" lon="6.70322">
        <ele>373</ele>
        <time>2015-12-20T10:50:08.000Z</time>
      </trkpt>
      <trkpt lat="47.51343" lon="6.70324">
        <ele>374</ele>
        <time>2015-12-20T10:50:10.000Z</time>
      </trkpt>
      <trkpt lat="47.51341" lon="6.70324">
        <ele>374</ele>
        <time>2015-12-20T10:50:11.000Z</time>
      </trkpt>
      <trkpt lat="47.51337" lon="6.70326">
        <ele>375</ele>
        <time>2015-12-20T10:50:14.000Z</time>
      </trkpt>
      <trkpt lat="47.51335" lon="6.70327">
        <ele>375</ele>
        <time>2015-12-20T10:50:15.000Z</time>
      </trkpt>
      <trkpt lat="47.51332" lon="6.70328">
        <ele>376</ele>
        <time>2015-12-20T10:50:17.000Z</time>
      </trkpt>
      <trkpt lat="47.5133" lon="6.70329">
        <ele>376</ele>
        <time>2015-12-20T10:50:18.000Z</time>
      </trkpt>
      <trkpt lat="47.51326" lon="6.70332">
        <ele>376</ele>
        <time>2015-12-20T10:50:20.000Z</time>
      </trkpt>
      <trkpt lat="47.51324" lon="6.70333">
        <ele>376</ele>
        <time>2015-12-20T10:50:21.000Z</time>
      </trkpt>
      <trkpt lat="47.5132" lon="6.70336">
        <ele>379</ele>
        <time>2015-12-20T10:50:24.000Z</time>
      </trkpt>
      <trkpt lat="47.51319" lon="6.70336">
        <ele>379</ele>
        <time>2015-12-20T10:50:25.000Z</time>
      </trkpt>
      <trkpt lat="47.51315" lon="6.70337">
        <ele>379</ele>
        <time>2015-12-20T10:50:27.000Z</time>
      </trkpt>
      <trkpt lat="47.51314" lon="6.70338">
        <ele>379</ele>
        <time>2015-12-20T10:50:28.000Z</time>
      </trkpt>
      <trkpt lat="47.5131" lon="6.7034">
        <ele>379</ele>
        <time>2015-12-20T10:50:30.000Z</time>
      </trkpt>
      <trkpt lat="47.51308" lon="6.70341">
        <ele>379</ele>
        <time>2015-12-20T10:50:31.000Z</time>
      </trkpt>
      <trkpt lat="47.51305" lon="6.70343">
        <ele>380</ele>
        <time>2015-12-20T10:50:33.000Z</time>
      </trkpt>
      <trkpt lat="47.51304" lon="6.70344">
        <ele>380</ele>
        <time>2015-12-20T10:50:34.000Z</time>
      </trkpt>
      <trkpt lat="47.51301" lon="6.70346">
        <ele>380</ele>
        <time>2015-12-20T10:50:36.000Z</time>
      </trkpt>
      <trkpt lat="47.51299" lon="6.70348">
        <ele>380</ele>
        <time>2015-12-20T10:50:37.000Z</time>
      </trkpt>
      <trkpt lat="47.51297" lon="6.7035">
        <ele>380</ele>
        <time>2015-12-20T10:50:38.000Z</time>
      </trkpt>
      <trkpt lat="47.51295" lon="6.70351">
        <ele>380</ele>
        <time>2015-12-20T10:50:39.000Z</time>
      </trkpt>
      <trkpt lat="47.51293" lon="6.70353">
        <ele>380</ele>
        <time>2015-12-20T10:50:40.000Z</time>
      </trkpt>
      <trkpt lat="47.51291" lon="6.70354">
        <ele>380</ele>
        <time>2015-12-20T10:50:41.000Z</time>
      </trkpt>
      <trkpt lat="47.51289" lon="6.70356">
        <ele>380</ele>
        <time>2015-12-20T10:50:42.000Z</time>
      </trkpt>
      <trkpt lat="47.51287" lon="6.70357">
        <ele>381</ele>
        <time>2015-12-20T10:50:43.000Z</time>
      </trkpt>
      <trkpt lat="47.51285" lon="6.70359">
        <ele>381</ele>
        <time>2015-12-20T10:50:44.000Z</time>
      </trkpt>
      <trkpt lat="47.51283" lon="6.7036">
        <ele>381</ele>
        <time>2015-12-20T10:50:45.000Z</time>
      </trkpt>
      <trkpt lat="47.51279" lon="6.70364">
        <ele>381</ele>
        <time>2015-12-20T10:50:47.000Z</time>
      </trkpt>
      <trkpt lat="47.51278" lon="6.70365">
        <ele>381</ele>
        <time>2015-12-20T10:50:48.000Z</time>
      </trkpt>
      <trkpt lat="47.51275" lon="6.70368">
        <ele>381</ele>
        <time>2015-12-20T10:50:50.000Z</time>
      </trkpt>
      <trkpt lat="47.51273" lon="6.7037">
        <ele>381</ele>
        <time>2015-12-20T10:50:51.000Z</time>
      </trkpt>
      <trkpt lat="47.51271" lon="6.70372">
        <ele>381</ele>
        <time>2015-12-20T10:50:52.000Z</time>
      </trkpt>
      <trkpt lat="47.51269" lon="6.70374">
        <ele>382</ele>
        <time>2015-12-20T10:50:53.000Z</time>
      </trkpt>
      <trkpt lat="47.51265" lon="6.70375">
        <ele>382</ele>
        <time>2015-12-20T10:50:55.000Z</time>
      </trkpt>
      <trkpt lat="47.51263" lon="6.70375">
        <ele>382</ele>
        <time>2015-12-20T10:50:56.000Z</time>
      </trkpt>
      <trkpt lat="47.51259" lon="6.70375">
        <ele>382</ele>
        <time>2015-12-20T10:50:58.000Z</time>
      </trkpt>
      <trkpt lat="47.51257" lon="6.70375">
        <ele>382</ele>
        <time>2015-12-20T10:50:59.000Z</time>
      </trkpt>
      <trkpt lat="47.51253" lon="6.70375">
        <ele>382</ele>
        <time>2015-12-20T10:51:01.000Z</time>
      </trkpt>
      <trkpt lat="47.51251" lon="6.70376">
        <ele>382</ele>
        <time>2015-12-20T10:51:02.000Z</time>
      </trkpt>
      <trkpt lat="47.51247" lon="6.70377">
        <ele>383</ele>
        <time>2015-12-20T10:51:04.000Z</time>
      </trkpt>
      <trkpt lat="47.51245" lon="6.70378">
        <ele>383</ele>
        <time>2015-12-20T10:51:05.000Z</time>
      </trkpt>
      <trkpt lat="47.51241" lon="6.7038">
        <ele>383</ele>
        <time>2015-12-20T10:51:07.000Z</time>
      </trkpt>
      <trkpt lat="47.51239" lon="6.7038">
        <ele>383</ele>
        <time>2015-12-20T10:51:08.000Z</time>
      </trkpt>
      <trkpt lat="47.51236" lon="6.70382">
        <ele>383</ele>
        <time>2015-12-20T10:51:10.000Z</time>
      </trkpt>
      <trkpt lat="47.51234" lon="6.70384">
        <ele>383</ele>
        <time>2015-12-20T10:51:11.000Z</time>
      </trkpt>
      <trkpt lat="47.51231" lon="6.70387">
        <ele>383</ele>
        <time>2015-12-20T10:51:13.000Z</time>
      </trkpt>
      <trkpt lat="47.5123" lon="6.7039">
        <ele>383</ele>
        <time>2015-12-20T10:51:14.000Z</time>
      </trkpt>
      <trkpt lat="47.51227" lon="6.70393">
        <ele>384</ele>
        <time>2015-12-20T10:51:16.000Z</time>
      </trkpt>
      <trkpt lat="47.51226" lon="6.70395">
        <ele>384</ele>
        <time>2015-12-20T10:51:17.000Z</time>
      </trkpt>
      <trkpt lat="47.51224" lon="6.70399">
        <ele>384</ele>
        <time>2015-12-20T10:51:19.000Z</time>
      </trkpt>
      <trkpt lat="47.51222" lon="6.70401">
        <ele>384</ele>
        <time>2015-12-20T10:51:20.000Z</time>
      </trkpt>
      <trkpt lat="47.5122" lon="6.70402">
        <ele>384</ele>
        <time>2015-12-20T10:51:21.000Z</time>
      </trkpt>
      <trkpt lat="47.51218" lon="6.70404">
        <ele>384</ele>
        <time>2015-12-20T10:51:22.000Z</time>
      </trkpt>
      <trkpt lat="47.51215" lon="6.70405">
        <ele>384</ele>
        <time>2015-12-20T10:51:23.000Z</time>
      </trkpt>
      <trkpt lat="47.51212" lon="6.70406">
        <ele>384</ele>
        <time>2015-12-20T10:51:24.000Z</time>
      </trkpt>
      <trkpt lat="47.51208" lon="6.70407">
        <ele>384</ele>
        <time>2015-12-20T10:51:25.000Z</time>
      </trkpt>
      <trkpt lat="47.51205" lon="6.70408">
        <ele>384</ele>
        <time>2015-12-20T10:51:26.000Z</time>
      </trkpt>
      <trkpt lat="47.51203" lon="6.70409">
        <ele>384</ele>
        <time>2015-12-20T10:51:27.000Z</time>
      </trkpt>
      <trkpt lat="47.51201" lon="6.7041">
        <ele>384</ele>
        <time>2015-12-20T10:51:28.000Z</time>
      </trkpt>
      <trkpt lat="47.51198" lon="6.70412">
        <ele>384</ele>
        <time>2015-12-20T10:51:30.000Z</time>
      </trkpt>
      <trkpt lat="47.51196" lon="6.70414">
        <ele>384</ele>
        <time>2015-12-20T10:51:31.000Z</time>
      </trkpt>
      <trkpt lat="47.51194" lon="6.70416">
        <ele>384</ele>
        <time>2015-12-20T10:51:32.000Z</time>
      </trkpt>
      <trkpt lat="47.51193" lon="6.70419">
        <ele>390</ele>
        <time>2015-12-20T10:51:33.000Z</time>
      </trkpt>
      <trkpt lat="47.51191" lon="6.70421">
        <ele>390</ele>
        <time>2015-12-20T10:51:34.000Z</time>
      </trkpt>
      <trkpt lat="47.51189" lon="6.70424">
        <ele>390</ele>
        <time>2015-12-20T10:51:35.000Z</time>
      </trkpt>
      <trkpt lat="47.51186" lon="6.70426">
        <ele>390</ele>
        <time>2015-12-20T10:51:36.000Z</time>
      </trkpt>
      <trkpt lat="47.51183" lon="6.70429">
        <ele>390</ele>
        <time>2015-12-20T10:51:37.000Z</time>
      </trkpt>
      <trkpt lat="47.5118" lon="6.70431">
        <ele>390</ele>
        <time>2015-12-20T10:51:38.000Z</time>
      </trkpt>
      <trkpt lat="47.51176" lon="6.70433">
        <ele>390</ele>
        <time>2015-12-20T10:51:39.000Z</time>
      </trkpt>
      <trkpt lat="47.51173" lon="6.70435">
        <ele>390</ele>
        <time>2015-12-20T10:51:40.000Z</time>
      </trkpt>
      <trkpt lat="47.51169" lon="6.70437">
        <ele>390</ele>
        <time>2015-12-20T10:51:41.000Z</time>
      </trkpt>
      <trkpt lat="47.51166" lon="6.70439">
        <ele>388</ele>
        <time>2015-12-20T10:51:42.000Z</time>
      </trkpt>
      <trkpt lat="47.51163" lon="6.7044">
        <ele>389</ele>
        <time>2015-12-20T10:51:43.000Z</time>
      </trkpt>
      <trkpt lat="47.51159" lon="6.70443">
        <ele>389</ele>
        <time>2015-12-20T10:51:44.000Z</time>
      </trkpt>
      <trkpt lat="47.51156" lon="6.70444">
        <ele>389</ele>
        <time>2015-12-20T10:51:45.000Z</time>
      </trkpt>
      <trkpt lat="47.51152" lon="6.70445">
        <ele>389</ele>
        <time>2015-12-20T10:51:46.000Z</time>
      </trkpt>
      <trkpt lat="47.51149" lon="6.70446">
        <ele>389</ele>
        <time>2015-12-20T10:51:47.000Z</time>
      </trkpt>
      <trkpt lat="47.51145" lon="6.70446">
        <ele>389</ele>
        <time>2015-12-20T10:51:48.000Z</time>
      </trkpt>
      <trkpt lat="47.51142" lon="6.70446">
        <ele>389</ele>
        <time>2015-12-20T10:51:49.000Z</time>
      </trkpt>
      <trkpt lat="47.51138" lon="6.70446">
        <ele>389</ele>
        <time>2015-12-20T10:51:50.000Z</time>
      </trkpt>
      <trkpt lat="47.51135" lon="6.70446">
        <ele>389</ele>
        <time>2015-12-20T10:51:51.000Z</time>
      </trkpt>
      <trkpt lat="47.51133" lon="6.70447">
        <ele>389</ele>
        <time>2015-12-20T10:51:52.000Z</time>
      </trkpt>
      <trkpt lat="47.5113" lon="6.70448">
        <ele>389</ele>
        <time>2015-12-20T10:51:53.000Z</time>
      </trkpt>
      <trkpt lat="47.51128" lon="6.7045">
        <ele>389</ele>
        <time>2015-12-20T10:51:54.000Z</time>
      </trkpt>
      <trkpt lat="47.51126" lon="6.70453">
        <ele>389</ele>
        <time>2015-12-20T10:51:55.000Z</time>
      </trkpt>
      <trkpt lat="47.51124" lon="6.70456">
        <ele>389</ele>
        <time>2015-12-20T10:51:56.000Z</time>
      </trkpt>
      <trkpt lat="47.51122" lon="6.70459">
        <ele>389</ele>
        <time>2015-12-20T10:51:57.000Z</time>
      </trkpt>
      <trkpt lat="47.5112" lon="6.70462">
        <ele>389</ele>
        <time>2015-12-20T10:51:58.000Z</time>
      </trkpt>
      <trkpt lat="47.51119" lon="6.70466">
        <ele>389</ele>
        <time>2015-12-20T10:51:59.000Z</time>
      </trkpt>
      <trkpt lat="47.51116" lon="6.70468">
        <ele>389</ele>
        <time>2015-12-20T10:52:00.000Z</time>
      </trkpt>
      <trkpt lat="47.51113" lon="6.7047">
        <ele>389</ele>
        <time>2015-12-20T10:52:01.000Z</time>
      </trkpt>
      <trkpt lat="47.51109" lon="6.70472">
        <ele>389</ele>
        <time>2015-12-20T10:52:02.000Z</time>
      </trkpt>
      <trkpt lat="47.51105" lon="6.70472">
        <ele>389</ele>
        <time>2015-12-20T10:52:03.000Z</time>
      </trkpt>
      <trkpt lat="47.51101" lon="6.70472">
        <ele>389</ele>
        <time>2015-12-20T10:52:04.000Z</time>
      </trkpt>
      <trkpt lat="47.51097" lon="6.70471">
        <ele>389</ele>
        <time>2015-12-20T10:52:05.000Z</time>
      </trkpt>
      <trkpt lat="47.51092" lon="6.7047">
        <ele>389</ele>
        <time>2015-12-20T10:52:06.000Z</time>
      </trkpt>
      <trkpt lat="47.51088" lon="6.7047">
        <ele>389</ele>
        <time>2015-12-20T10:52:07.000Z</time>
      </trkpt>
      <trkpt lat="47.51084" lon="6.7047">
        <ele>389</ele>
        <time>2015-12-20T10:52:08.000Z</time>
      </trkpt>
      <trkpt lat="47.51081" lon="6.70471">
        <ele>385</ele>
        <time>2015-12-20T10:52:09.000Z</time>
      </trkpt>
      <trkpt lat="47.51079" lon="6.70472">
        <ele>385</ele>
        <time>2015-12-20T10:52:10.000Z</time>
      </trkpt>
      <trkpt lat="47.51076" lon="6.70477">
        <ele>386</ele>
        <time>2015-12-20T10:52:12.000Z</time>
      </trkpt>
      <trkpt lat="47.51075" lon="6.70481">
        <ele>386</ele>
        <time>2015-12-20T10:52:13.000Z</time>
      </trkpt>
      <trkpt lat="47.51074" lon="6.70486">
        <ele>387</ele>
        <time>2015-12-20T10:52:14.000Z</time>
      </trkpt>
      <trkpt lat="47.51074" lon="6.70491">
        <ele>388</ele>
        <time>2015-12-20T10:52:15.000Z</time>
      </trkpt>
      <trkpt lat="47.51072" lon="6.70495">
        <ele>388</ele>
        <time>2015-12-20T10:52:16.000Z</time>
      </trkpt>
      <trkpt lat="47.51072" lon="6.705">
        <ele>388</ele>
        <time>2015-12-20T10:52:17.000Z</time>
      </trkpt>
      <trkpt lat="47.51071" lon="6.70504">
        <ele>390</ele>
        <time>2015-12-20T10:52:18.000Z</time>
      </trkpt>
      <trkpt lat="47.5107" lon="6.70509">
        <ele>390</ele>
        <time>2015-12-20T10:52:19.000Z</time>
      </trkpt>
      <trkpt lat="47.5107" lon="6.70513">
        <ele>390</ele>
        <time>2015-12-20T10:52:20.000Z</time>
      </trkpt>
      <trkpt lat="47.51069" lon="6.70517">
        <ele>390</ele>
        <time>2015-12-20T10:52:21.000Z</time>
      </trkpt>
      <trkpt lat="47.51067" lon="6.70521">
        <ele>390</ele>
        <time>2015-12-20T10:52:22.000Z</time>
      </trkpt>
      <trkpt lat="47.51065" lon="6.70524">
        <ele>390</ele>
        <time>2015-12-20T10:52:23.000Z</time>
      </trkpt>
      <trkpt lat="47.51063" lon="6.70527">
        <ele>390</ele>
        <time>2015-12-20T10:52:24.000Z</time>
      </trkpt>
      <trkpt lat="47.51061" lon="6.70531">
        <ele>389</ele>
        <time>2015-12-20T10:52:25.000Z</time>
      </trkpt>
      <trkpt lat="47.51059" lon="6.70534">
        <ele>389</ele>
        <time>2015-12-20T10:52:26.000Z</time>
      </trkpt>
      <trkpt lat="47.51057" lon="6.70537">
        <ele>389</ele>
        <time>2015-12-20T10:52:27.000Z</time>
      </trkpt>
      <trkpt lat="47.51056" lon="6.7054">
        <ele>389</ele>
        <time>2015-12-20T10:52:28.000Z</time>
      </trkpt>
      <trkpt lat="47.51055" lon="6.70543">
        <ele>389</ele>
        <time>2015-12-20T10:52:29.000Z</time>
      </trkpt>
      <trkpt lat="47.51054" lon="6.70549">
        <ele>390</ele>
        <time>2015-12-20T10:52:31.000Z</time>
      </trkpt>
      <trkpt lat="47.51053" lon="6.70552">
        <ele>390</ele>
        <time>2015-12-20T10:52:32.000Z</time>
      </trkpt>
      <trkpt lat="47.51052" lon="6.70558">
        <ele>390</ele>
        <time>2015-12-20T10:52:34.000Z</time>
      </trkpt>
      <trkpt lat="47.51051" lon="6.7056">
        <ele>390</ele>
        <time>2015-12-20T10:52:35.000Z</time>
      </trkpt>
      <trkpt lat="47.5105" lon="6.70565">
        <ele>390</ele>
        <time>2015-12-20T10:52:38.000Z</time>
      </trkpt>
      <trkpt lat="47.51049" lon="6.70568">
        <ele>390</ele>
        <time>2015-12-20T10:52:39.000Z</time>
      </trkpt>
      <trkpt lat="47.51048" lon="6.70574">
        <ele>390</ele>
        <time>2015-12-20T10:52:41.000Z</time>
      </trkpt>
      <trkpt lat="47.51048" lon="6.70577">
        <ele>390</ele>
        <time>2015-12-20T10:52:42.000Z</time>
      </trkpt>
      <trkpt lat="47.51047" lon="6.7058">
        <ele>390</ele>
        <time>2015-12-20T10:52:43.000Z</time>
      </trkpt>
      <trkpt lat="47.51047" lon="6.70584">
        <ele>393</ele>
        <time>2015-12-20T10:52:44.000Z</time>
      </trkpt>
      <trkpt lat="47.51046" lon="6.70587">
        <ele>393</ele>
        <time>2015-12-20T10:52:45.000Z</time>
      </trkpt>
      <trkpt lat="47.51045" lon="6.70591">
        <ele>393</ele>
        <time>2015-12-20T10:52:46.000Z</time>
      </trkpt>
      <trkpt lat="47.51044" lon="6.70595">
        <ele>393</ele>
        <time>2015-12-20T10:52:47.000Z</time>
      </trkpt>
      <trkpt lat="47.51043" lon="6.70598">
        <ele>393</ele>
        <time>2015-12-20T10:52:48.000Z</time>
      </trkpt>
      <trkpt lat="47.51042" lon="6.70602">
        <ele>393</ele>
        <time>2015-12-20T10:52:49.000Z</time>
      </trkpt>
      <trkpt lat="47.51042" lon="6.70605">
        <ele>393</ele>
        <time>2015-12-20T10:52:50.000Z</time>
      </trkpt>
      <trkpt lat="47.51043" lon="6.70611">
        <ele>393</ele>
        <time>2015-12-20T10:52:52.000Z</time>
      </trkpt>
      <trkpt lat="47.51042" lon="6.70614">
        <ele>393</ele>
        <time>2015-12-20T10:52:53.000Z</time>
      </trkpt>
      <trkpt lat="47.5104" lon="6.70617">
        <ele>393</ele>
        <time>2015-12-20T10:52:54.000Z</time>
      </trkpt>
      <trkpt lat="47.51038" lon="6.7062">
        <ele>393</ele>
        <time>2015-12-20T10:52:55.000Z</time>
      </trkpt>
      <trkpt lat="47.51036" lon="6.70623">
        <ele>393</ele>
        <time>2015-12-20T10:52:56.000Z</time>
      </trkpt>
      <trkpt lat="47.51033" lon="6.70626">
        <ele>392</ele>
        <time>2015-12-20T10:52:57.000Z</time>
      </trkpt>
      <trkpt lat="47.5103" lon="6.70629">
        <ele>392</ele>
        <time>2015-12-20T10:52:58.000Z</time>
      </trkpt>
      <trkpt lat="47.51027" lon="6.70631">
        <ele>392</ele>
        <time>2015-12-20T10:52:59.000Z</time>
      </trkpt>
      <trkpt lat="47.51025" lon="6.70633">
        <ele>392</ele>
        <time>2015-12-20T10:53:00.000Z</time>
      </trkpt>
      <trkpt lat="47.51022" lon="6.70634">
        <ele>392</ele>
        <time>2015-12-20T10:53:01.000Z</time>
      </trkpt>
      <trkpt lat="47.51019" lon="6.70636">
        <ele>392</ele>
        <time>2015-12-20T10:53:02.000Z</time>
      </trkpt>
      <trkpt lat="47.51016" lon="6.70638">
        <ele>392</ele>
        <time>2015-12-20T10:53:03.000Z</time>
      </trkpt>
      <trkpt lat="47.51012" lon="6.7064">
        <ele>391</ele>
        <time>2015-12-20T10:53:04.000Z</time>
      </trkpt>
      <trkpt lat="47.51007" lon="6.70643">
        <ele>391</ele>
        <time>2015-12-20T10:53:05.000Z</time>
      </trkpt>
      <trkpt lat="47.51002" lon="6.70647">
        <ele>391</ele>
        <time>2015-12-20T10:53:06.000Z</time>
      </trkpt>
      <trkpt lat="47.50996" lon="6.70652">
        <ele>385</ele>
        <time>2015-12-20T10:53:07.000Z</time>
      </trkpt>
      <trkpt lat="47.5098" lon="6.70664">
        <ele>384</ele>
        <time>2015-12-20T10:53:08.000Z</time>
      </trkpt>
      <trkpt lat="47.50977" lon="6.70668">
        <ele>386</ele>
        <time>2015-12-20T10:53:09.000Z</time>
      </trkpt>
      <trkpt lat="47.50975" lon="6.70674">
        <ele>386</ele>
        <time>2015-12-20T10:53:10.000Z</time>
      </trkpt>
      <trkpt lat="47.50973" lon="6.70679">
        <ele>385</ele>
        <time>2015-12-20T10:53:11.000Z</time>
      </trkpt>
      <trkpt lat="47.5097" lon="6.70684">
        <ele>385</ele>
        <time>2015-12-20T10:53:12.000Z</time>
      </trkpt>
      <trkpt lat="47.50968" lon="6.70683">
        <ele>385</ele>
        <time>2015-12-20T10:53:13.000Z</time>
      </trkpt>
      <trkpt lat="47.50964" lon="6.70685">
        <ele>385</ele>
        <time>2015-12-20T10:53:14.000Z</time>
      </trkpt>
      <trkpt lat="47.50959" lon="6.70683">
        <ele>384</ele>
        <time>2015-12-20T10:53:15.000Z</time>
      </trkpt>
      <trkpt lat="47.50955" lon="6.70682">
        <ele>384</ele>
        <time>2015-12-20T10:53:16.000Z</time>
      </trkpt>
      <trkpt lat="47.50953" lon="6.70684">
        <ele>383</ele>
        <time>2015-12-20T10:53:17.000Z</time>
      </trkpt>
      <trkpt lat="47.50949" lon="6.70684">
        <ele>383</ele>
        <time>2015-12-20T10:53:19.000Z</time>
      </trkpt>
      <trkpt lat="47.50947" lon="6.70683">
        <ele>383</ele>
        <time>2015-12-20T10:53:20.000Z</time>
      </trkpt>
      <trkpt lat="47.50944" lon="6.70683">
        <ele>382</ele>
        <time>2015-12-20T10:53:21.000Z</time>
      </trkpt>
      <trkpt lat="47.50942" lon="6.70683">
        <ele>382</ele>
        <time>2015-12-20T10:53:22.000Z</time>
      </trkpt>
      <trkpt lat="47.50939" lon="6.70684">
        <ele>382</ele>
        <time>2015-12-20T10:53:23.000Z</time>
      </trkpt>
      <trkpt lat="47.50937" lon="6.70685">
        <ele>382</ele>
        <time>2015-12-20T10:53:24.000Z</time>
      </trkpt>
      <trkpt lat="47.50934" lon="6.70688">
        <ele>382</ele>
        <time>2015-12-20T10:53:26.000Z</time>
      </trkpt>
      <trkpt lat="47.50934" lon="6.7069">
        <ele>382</ele>
        <time>2015-12-20T10:53:27.000Z</time>
      </trkpt>
      <trkpt lat="47.50932" lon="6.70696">
        <ele>382</ele>
        <time>2015-12-20T10:53:37.000Z</time>
      </trkpt>
      <trkpt lat="47.50932" lon="6.70697">
        <ele>382</ele>
        <time>2015-12-20T10:53:38.000Z</time>
      </trkpt>
      <trkpt lat="47.50931" lon="6.70703">
        <ele>382</ele>
        <time>2015-12-20T10:53:41.000Z</time>
      </trkpt>
      <trkpt lat="47.50931" lon="6.70705">
        <ele>382</ele>
        <time>2015-12-20T10:53:42.000Z</time>
      </trkpt>
      <trkpt lat="47.5093" lon="6.70711">
        <ele>382</ele>
        <time>2015-12-20T10:53:44.000Z</time>
      </trkpt>
      <trkpt lat="47.50929" lon="6.70714">
        <ele>382</ele>
        <time>2015-12-20T10:53:45.000Z</time>
      </trkpt>
      <trkpt lat="47.50928" lon="6.7072">
        <ele>382</ele>
        <time>2015-12-20T10:53:47.000Z</time>
      </trkpt>
      <trkpt lat="47.50928" lon="6.70724">
        <ele>382</ele>
        <time>2015-12-20T10:53:48.000Z</time>
      </trkpt>
      <trkpt lat="47.50927" lon="6.70727">
        <ele>382</ele>
        <time>2015-12-20T10:53:49.000Z</time>
      </trkpt>
      <trkpt lat="47.50925" lon="6.70731">
        <ele>382</ele>
        <time>2015-12-20T10:53:50.000Z</time>
      </trkpt>
      <trkpt lat="47.50924" lon="6.70735">
        <ele>381</ele>
        <time>2015-12-20T10:53:51.000Z</time>
      </trkpt>
      <trkpt lat="47.50922" lon="6.7074">
        <ele>381</ele>
        <time>2015-12-20T10:53:52.000Z</time>
      </trkpt>
      <trkpt lat="47.50921" lon="6.70744">
        <ele>380</ele>
        <time>2015-12-20T10:53:53.000Z</time>
      </trkpt>
      <trkpt lat="47.5092" lon="6.70749">
        <ele>380</ele>
        <time>2015-12-20T10:53:54.000Z</time>
      </trkpt>
      <trkpt lat="47.50919" lon="6.70753">
        <ele>380</ele>
        <time>2015-12-20T10:53:55.000Z</time>
      </trkpt>
      <trkpt lat="47.50918" lon="6.70757">
        <ele>381</ele>
        <time>2015-12-20T10:53:56.000Z</time>
      </trkpt>
      <trkpt lat="47.50917" lon="6.70761">
        <ele>382</ele>
        <time>2015-12-20T10:53:57.000Z</time>
      </trkpt>
      <trkpt lat="47.50916" lon="6.70765">
        <ele>376</ele>
        <time>2015-12-20T10:53:58.000Z</time>
      </trkpt>
      <trkpt lat="47.50915" lon="6.70769">
        <ele>376</ele>
        <time>2015-12-20T10:53:59.000Z</time>
      </trkpt>
      <trkpt lat="47.50915" lon="6.70773">
        <ele>375</ele>
        <time>2015-12-20T10:54:00.000Z</time>
      </trkpt>
      <trkpt lat="47.50914" lon="6.70778">
        <ele>375</ele>
        <time>2015-12-20T10:54:01.000Z</time>
      </trkpt>
      <trkpt lat="47.50913" lon="6.70782">
        <ele>375</ele>
        <time>2015-12-20T10:54:02.000Z</time>
      </trkpt>
      <trkpt lat="47.50913" lon="6.70787">
        <ele>375</ele>
        <time>2015-12-20T10:54:03.000Z</time>
      </trkpt>
      <trkpt lat="47.50914" lon="6.70791">
        <ele>375</ele>
        <time>2015-12-20T10:54:04.000Z</time>
      </trkpt>
      <trkpt lat="47.50914" lon="6.70795">
        <ele>375</ele>
        <time>2015-12-20T10:54:05.000Z</time>
      </trkpt>
      <trkpt lat="47.50915" lon="6.70799">
        <ele>375</ele>
        <time>2015-12-20T10:54:06.000Z</time>
      </trkpt>
      <trkpt lat="47.50916" lon="6.70804">
        <ele>375</ele>
        <time>2015-12-20T10:54:07.000Z</time>
      </trkpt>
      <trkpt lat="47.50917" lon="6.70809">
        <ele>384</ele>
        <time>2015-12-20T10:54:08.000Z</time>
      </trkpt>
      <trkpt lat="47.50917" lon="6.70813">
        <ele>383</ele>
        <time>2015-12-20T10:54:09.000Z</time>
      </trkpt>
      <trkpt lat="47.50918" lon="6.70817">
        <ele>383</ele>
        <time>2015-12-20T10:54:10.000Z</time>
      </trkpt>
      <trkpt lat="47.50919" lon="6.70821">
        <ele>382</ele>
        <time>2015-12-20T10:54:11.000Z</time>
      </trkpt>
      <trkpt lat="47.50919" lon="6.70825">
        <ele>382</ele>
        <time>2015-12-20T10:54:12.000Z</time>
      </trkpt>
      <trkpt lat="47.50919" lon="6.70829">
        <ele>381</ele>
        <time>2015-12-20T10:54:13.000Z</time>
      </trkpt>
      <trkpt lat="47.50919" lon="6.70833">
        <ele>381</ele>
        <time>2015-12-20T10:54:14.000Z</time>
      </trkpt>
      <trkpt lat="47.50918" lon="6.70837">
        <ele>381</ele>
        <time>2015-12-20T10:54:15.000Z</time>
      </trkpt>
      <trkpt lat="47.50917" lon="6.70842">
        <ele>381</ele>
        <time>2015-12-20T10:54:16.000Z</time>
      </trkpt>
      <trkpt lat="47.50917" lon="6.70846">
        <ele>376</ele>
        <time>2015-12-20T10:54:17.000Z</time>
      </trkpt>
      <trkpt lat="47.50916" lon="6.70851">
        <ele>375</ele>
        <time>2015-12-20T10:54:18.000Z</time>
      </trkpt>
      <trkpt lat="47.50916" lon="6.70857">
        <ele>374</ele>
        <time>2015-12-20T10:54:19.000Z</time>
      </trkpt>
      <trkpt lat="47.50916" lon="6.70864">
        <ele>374</ele>
        <time>2015-12-20T10:54:20.000Z</time>
      </trkpt>
      <trkpt lat="47.50916" lon="6.70869">
        <ele>373</ele>
        <time>2015-12-20T10:54:21.000Z</time>
      </trkpt>
      <trkpt lat="47.50915" lon="6.70875">
        <ele>373</ele>
        <time>2015-12-20T10:54:22.000Z</time>
      </trkpt>
      <trkpt lat="47.50915" lon="6.70879">
        <ele>373</ele>
        <time>2015-12-20T10:54:23.000Z</time>
      </trkpt>
      <trkpt lat="47.50916" lon="6.70884">
        <ele>373</ele>
        <time>2015-12-20T10:54:24.000Z</time>
      </trkpt>
      <trkpt lat="47.50916" lon="6.70888">
        <ele>373</ele>
        <time>2015-12-20T10:54:25.000Z</time>
      </trkpt>
      <trkpt lat="47.50916" lon="6.70893">
        <ele>373</ele>
        <time>2015-12-20T10:54:26.000Z</time>
      </trkpt>
      <trkpt lat="47.50918" lon="6.70896">
        <ele>380</ele>
        <time>2015-12-20T10:54:27.000Z</time>
      </trkpt>
      <trkpt lat="47.5092" lon="6.70899">
        <ele>380</ele>
        <time>2015-12-20T10:54:28.000Z</time>
      </trkpt>
      <trkpt lat="47.50922" lon="6.70903">
        <ele>380</ele>
        <time>2015-12-20T10:54:29.000Z</time>
      </trkpt>
      <trkpt lat="47.50924" lon="6.70906">
        <ele>379</ele>
        <time>2015-12-20T10:54:30.000Z</time>
      </trkpt>
      <trkpt lat="47.50926" lon="6.7091">
        <ele>379</ele>
        <time>2015-12-20T10:54:31.000Z</time>
      </trkpt>
      <trkpt lat="47.50927" lon="6.70915">
        <ele>379</ele>
        <time>2015-12-20T10:54:32.000Z</time>
      </trkpt>
      <trkpt lat="47.50928" lon="6.70919">
        <ele>378</ele>
        <time>2015-12-20T10:54:33.000Z</time>
      </trkpt>
      <trkpt lat="47.50929" lon="6.70922">
        <ele>379</ele>
        <time>2015-12-20T10:54:34.000Z</time>
      </trkpt>
      <trkpt lat="47.5093" lon="6.70925">
        <ele>379</ele>
        <time>2015-12-20T10:54:35.000Z</time>
      </trkpt>
      <trkpt lat="47.50932" lon="6.70929">
        <ele>380</ele>
        <time>2015-12-20T10:54:36.000Z</time>
      </trkpt>
      <trkpt lat="47.50933" lon="6.70934">
        <ele>380</ele>
        <time>2015-12-20T10:54:38.000Z</time>
      </trkpt>
      <trkpt lat="47.50934" lon="6.70937">
        <ele>380</ele>
        <time>2015-12-20T10:54:39.000Z</time>
      </trkpt>
      <trkpt lat="47.50934" lon="6.7094">
        <ele>381</ele>
        <time>2015-12-20T10:54:40.000Z</time>
      </trkpt>
      <trkpt lat="47.50934" lon="6.70944">
        <ele>381</ele>
        <time>2015-12-20T10:54:41.000Z</time>
      </trkpt>
      <trkpt lat="47.50935" lon="6.70948">
        <ele>381</ele>
        <time>2015-12-20T10:54:42.000Z</time>
      </trkpt>
      <trkpt lat="47.50935" lon="6.70953">
        <ele>381</ele>
        <time>2015-12-20T10:54:43.000Z</time>
      </trkpt>
      <trkpt lat="47.50935" lon="6.70956">
        <ele>381</ele>
        <time>2015-12-20T10:54:44.000Z</time>
      </trkpt>
      <trkpt lat="47.50935" lon="6.7096">
        <ele>381</ele>
        <time>2015-12-20T10:54:45.000Z</time>
      </trkpt>
      <trkpt lat="47.50935" lon="6.70964">
        <ele>381</ele>
        <time>2015-12-20T10:54:46.000Z</time>
      </trkpt>
      <trkpt lat="47.50934" lon="6.70967">
        <ele>381</ele>
        <time>2015-12-20T10:54:47.000Z</time>
      </trkpt>
      <trkpt lat="47.50934" lon="6.70972">
        <ele>381</ele>
        <time>2015-12-20T10:54:48.000Z</time>
      </trkpt>
      <trkpt lat="47.50934" lon="6.70977">
        <ele>381</ele>
        <time>2015-12-20T10:54:49.000Z</time>
      </trkpt>
      <trkpt lat="47.50934" lon="6.70982">
        <ele>381</ele>
        <time>2015-12-20T10:54:50.000Z</time>
      </trkpt>
      <trkpt lat="47.50934" lon="6.70987">
        <ele>380</ele>
        <time>2015-12-20T10:54:51.000Z</time>
      </trkpt>
      <trkpt lat="47.50933" lon="6.70991">
        <ele>380</ele>
        <time>2015-12-20T10:54:52.000Z</time>
      </trkpt>
      <trkpt lat="47.50932" lon="6.70995">
        <ele>380</ele>
        <time>2015-12-20T10:54:53.000Z</time>
      </trkpt>
      <trkpt lat="47.50932" lon="6.71">
        <ele>379</ele>
        <time>2015-12-20T10:54:54.000Z</time>
      </trkpt>
      <trkpt lat="47.50932" lon="6.71004">
        <ele>379</ele>
        <time>2015-12-20T10:54:55.000Z</time>
      </trkpt>
      <trkpt lat="47.50931" lon="6.71007">
        <ele>379</ele>
        <time>2015-12-20T10:54:56.000Z</time>
      </trkpt>
      <trkpt lat="47.50931" lon="6.7101">
        <ele>379</ele>
        <time>2015-12-20T10:54:57.000Z</time>
      </trkpt>
      <trkpt lat="47.5093" lon="6.71015">
        <ele>380</ele>
        <time>2015-12-20T10:54:59.000Z</time>
      </trkpt>
      <trkpt lat="47.5093" lon="6.71017">
        <ele>380</ele>
        <time>2015-12-20T10:55:00.000Z</time>
      </trkpt>
      <trkpt lat="47.50932" lon="6.71021">
        <ele>380</ele>
        <time>2015-12-20T10:55:02.000Z</time>
      </trkpt>
      <trkpt lat="47.50934" lon="6.71022">
        <ele>381</ele>
        <time>2015-12-20T10:55:03.000Z</time>
      </trkpt>
      <trkpt lat="47.50936" lon="6.71023">
        <ele>381</ele>
        <time>2015-12-20T10:55:04.000Z</time>
      </trkpt>
      <trkpt lat="47.50939" lon="6.71025">
        <ele>381</ele>
        <time>2015-12-20T10:55:05.000Z</time>
      </trkpt>
      <trkpt lat="47.50943" lon="6.71028">
        <ele>381</ele>
        <time>2015-12-20T10:55:07.000Z</time>
      </trkpt>
      <trkpt lat="47.50944" lon="6.71029">
        <ele>382</ele>
        <time>2015-12-20T10:55:08.000Z</time>
      </trkpt>
      <trkpt lat="47.50948" lon="6.71033">
        <ele>382</ele>
        <time>2015-12-20T10:55:10.000Z</time>
      </trkpt>
      <trkpt lat="47.50949" lon="6.71036">
        <ele>382</ele>
        <time>2015-12-20T10:55:11.000Z</time>
      </trkpt>
      <trkpt lat="47.5095" lon="6.71039">
        <ele>382</ele>
        <time>2015-12-20T10:55:12.000Z</time>
      </trkpt>
      <trkpt lat="47.50951" lon="6.71043">
        <ele>382</ele>
        <time>2015-12-20T10:55:13.000Z</time>
      </trkpt>
      <trkpt lat="47.50951" lon="6.71047">
        <ele>382</ele>
        <time>2015-12-20T10:55:14.000Z</time>
      </trkpt>
      <trkpt lat="47.50951" lon="6.71051">
        <ele>382</ele>
        <time>2015-12-20T10:55:15.000Z</time>
      </trkpt>
      <trkpt lat="47.50951" lon="6.71055">
        <ele>382</ele>
        <time>2015-12-20T10:55:16.000Z</time>
      </trkpt>
      <trkpt lat="47.50951" lon="6.71059">
        <ele>382</ele>
        <time>2015-12-20T10:55:17.000Z</time>
      </trkpt>
      <trkpt lat="47.50951" lon="6.71062">
        <ele>382</ele>
        <time>2015-12-20T10:55:18.000Z</time>
      </trkpt>
      <trkpt lat="47.50951" lon="6.71067">
        <ele>382</ele>
        <time>2015-12-20T10:55:19.000Z</time>
      </trkpt>
      <trkpt lat="47.50951" lon="6.71071">
        <ele>382</ele>
        <time>2015-12-20T10:55:20.000Z</time>
      </trkpt>
      <trkpt lat="47.5095" lon="6.71076">
        <ele>382</ele>
        <time>2015-12-20T10:55:21.000Z</time>
      </trkpt>
      <trkpt lat="47.5095" lon="6.71081">
        <ele>382</ele>
        <time>2015-12-20T10:55:22.000Z</time>
      </trkpt>
      <trkpt lat="47.50949" lon="6.71087">
        <ele>382</ele>
        <time>2015-12-20T10:55:23.000Z</time>
      </trkpt>
      <trkpt lat="47.50948" lon="6.71092">
        <ele>382</ele>
        <time>2015-12-20T10:55:24.000Z</time>
      </trkpt>
      <trkpt lat="47.50947" lon="6.71097">
        <ele>382</ele>
        <time>2015-12-20T10:55:25.000Z</time>
      </trkpt>
      <trkpt lat="47.50945" lon="6.71103">
        <ele>382</ele>
        <time>2015-12-20T10:55:26.000Z</time>
      </trkpt>
      <trkpt lat="47.50944" lon="6.71108">
        <ele>382</ele>
        <time>2015-12-20T10:55:27.000Z</time>
      </trkpt>
      <trkpt lat="47.50943" lon="6.71114">
        <ele>383</ele>
        <time>2015-12-20T10:55:28.000Z</time>
      </trkpt>
      <trkpt lat="47.50943" lon="6.7112">
        <ele>383</ele>
        <time>2015-12-20T10:55:29.000Z</time>
      </trkpt>
      <trkpt lat="47.50942" lon="6.71127">
        <ele>383</ele>
        <time>2015-12-20T10:55:30.000Z</time>
      </trkpt>
      <trkpt lat="47.50942" lon="6.71134">
        <ele>383</ele>
        <time>2015-12-20T10:55:31.000Z</time>
      </trkpt>
      <trkpt lat="47.50942" lon="6.7114">
        <ele>383</ele>
        <time>2015-12-20T10:55:32.000Z</time>
      </trkpt>
      <trkpt lat="47.50943" lon="6.71145">
        <ele>383</ele>
        <time>2015-12-20T10:55:33.000Z</time>
      </trkpt>
      <trkpt lat="47.50943" lon="6.7115">
        <ele>383</ele>
        <time>2015-12-20T10:55:34.000Z</time>
      </trkpt>
      <trkpt lat="47.50943" lon="6.71154">
        <ele>383</ele>
        <time>2015-12-20T10:55:35.000Z</time>
      </trkpt>
      <trkpt lat="47.50944" lon="6.71159">
        <ele>383</ele>
        <time>2015-12-20T10:55:36.000Z</time>
      </trkpt>
      <trkpt lat="47.50945" lon="6.71165">
        <ele>383</ele>
        <time>2015-12-20T10:55:37.000Z</time>
      </trkpt>
      <trkpt lat="47.50947" lon="6.71171">
        <ele>386</ele>
        <time>2015-12-20T10:55:38.000Z</time>
      </trkpt>
      <trkpt lat="47.50949" lon="6.71176">
        <ele>386</ele>
        <time>2015-12-20T10:55:39.000Z</time>
      </trkpt>
      <trkpt lat="47.5095" lon="6.71182">
        <ele>387</ele>
        <time>2015-12-20T10:55:40.000Z</time>
      </trkpt>
      <trkpt lat="47.50947" lon="6.71186">
        <ele>387</ele>
        <time>2015-12-20T10:55:41.000Z</time>
      </trkpt>
      <trkpt lat="47.50943" lon="6.7119">
        <ele>386</ele>
        <time>2015-12-20T10:55:42.000Z</time>
      </trkpt>
      <trkpt lat="47.50938" lon="6.71192">
        <ele>386</ele>
        <time>2015-12-20T10:55:43.000Z</time>
      </trkpt>
      <trkpt lat="47.50926" lon="6.71186">
        <ele>385</ele>
        <time>2015-12-20T10:55:44.000Z</time>
      </trkpt>
      <trkpt lat="47.50921" lon="6.71184">
        <ele>384</ele>
        <time>2015-12-20T10:55:45.000Z</time>
      </trkpt>
      <trkpt lat="47.50917" lon="6.71181">
        <ele>378</ele>
        <time>2015-12-20T10:55:46.000Z</time>
      </trkpt>
      <trkpt lat="47.50914" lon="6.71181">
        <ele>378</ele>
        <time>2015-12-20T10:55:47.000Z</time>
      </trkpt>
      <trkpt lat="47.50911" lon="6.71186">
        <ele>377</ele>
        <time>2015-12-20T10:55:49.000Z</time>
      </trkpt>
      <trkpt lat="47.5091" lon="6.71189">
        <ele>377</ele>
        <time>2015-12-20T10:55:50.000Z</time>
      </trkpt>
      <trkpt lat="47.50909" lon="6.71195">
        <ele>377</ele>
        <time>2015-12-20T10:56:02.000Z</time>
      </trkpt>
      <trkpt lat="47.50909" lon="6.71196">
        <ele>377</ele>
        <time>2015-12-20T10:56:03.000Z</time>
      </trkpt>
      <trkpt lat="47.50905" lon="6.71198">
        <ele>376</ele>
        <time>2015-12-20T10:56:51.000Z</time>
      </trkpt>
      <trkpt lat="47.50904" lon="6.712">
        <ele>376</ele>
        <time>2015-12-20T10:56:52.000Z</time>
      </trkpt>
      <trkpt lat="47.50903" lon="6.71203">
        <ele>376</ele>
        <time>2015-12-20T10:56:53.000Z</time>
      </trkpt>
      <trkpt lat="47.50902" lon="6.71207">
        <ele>376</ele>
        <time>2015-12-20T10:56:54.000Z</time>
      </trkpt>
      <trkpt lat="47.50902" lon="6.71212">
        <ele>376</ele>
        <time>2015-12-20T10:56:55.000Z</time>
      </trkpt>
      <trkpt lat="47.50901" lon="6.71216">
        <ele>377</ele>
        <time>2015-12-20T10:56:56.000Z</time>
      </trkpt>
      <trkpt lat="47.50901" lon="6.7122">
        <ele>377</ele>
        <time>2015-12-20T10:56:57.000Z</time>
      </trkpt>
      <trkpt lat="47.50901" lon="6.71225">
        <ele>377</ele>
        <time>2015-12-20T10:56:58.000Z</time>
      </trkpt>
      <trkpt lat="47.509" lon="6.71231">
        <ele>378</ele>
        <time>2015-12-20T10:56:59.000Z</time>
      </trkpt>
      <trkpt lat="47.50899" lon="6.71237">
        <ele>378</ele>
        <time>2015-12-20T10:57:00.000Z</time>
      </trkpt>
      <trkpt lat="47.50897" lon="6.71244">
        <ele>378</ele>
        <time>2015-12-20T10:57:01.000Z</time>
      </trkpt>
      <trkpt lat="47.50896" lon="6.7125">
        <ele>380</ele>
        <time>2015-12-20T10:57:02.000Z</time>
      </trkpt>
      <trkpt lat="47.50894" lon="6.71257">
        <ele>380</ele>
        <time>2015-12-20T10:57:03.000Z</time>
      </trkpt>
      <trkpt lat="47.50893" lon="6.71262">
        <ele>379</ele>
        <time>2015-12-20T10:57:04.000Z</time>
      </trkpt>
      <trkpt lat="47.50892" lon="6.71267">
        <ele>379</ele>
        <time>2015-12-20T10:57:05.000Z</time>
      </trkpt>
      <trkpt lat="47.50891" lon="6.71272">
        <ele>379</ele>
        <time>2015-12-20T10:57:06.000Z</time>
      </trkpt>
      <trkpt lat="47.5089" lon="6.71275">
        <ele>379</ele>
        <time>2015-12-20T10:57:07.000Z</time>
      </trkpt>
      <trkpt lat="47.50889" lon="6.71279">
        <ele>378</ele>
        <time>2015-12-20T10:57:08.000Z</time>
      </trkpt>
      <trkpt lat="47.50888" lon="6.71284">
        <ele>378</ele>
        <time>2015-12-20T10:57:09.000Z</time>
      </trkpt>
      <trkpt lat="47.50886" lon="6.71289">
        <ele>378</ele>
        <time>2015-12-20T10:57:10.000Z</time>
      </trkpt>
      <trkpt lat="47.50885" lon="6.71294">
        <ele>378</ele>
        <time>2015-12-20T10:57:11.000Z</time>
      </trkpt>
      <trkpt lat="47.50884" lon="6.71299">
        <ele>378</ele>
        <time>2015-12-20T10:57:12.000Z</time>
      </trkpt>
      <trkpt lat="47.50883" lon="6.71304">
        <ele>378</ele>
        <time>2015-12-20T10:57:13.000Z</time>
      </trkpt>
      <trkpt lat="47.50882" lon="6.71309">
        <ele>378</ele>
        <time>2015-12-20T10:57:14.000Z</time>
      </trkpt>
      <trkpt lat="47.5088" lon="6.71314">
        <ele>378</ele>
        <time>2015-12-20T10:57:15.000Z</time>
      </trkpt>
      <trkpt lat="47.50879" lon="6.7132">
        <ele>378</ele>
        <time>2015-12-20T10:57:16.000Z</time>
      </trkpt>
      <trkpt lat="47.50878" lon="6.71326">
        <ele>378</ele>
        <time>2015-12-20T10:57:17.000Z</time>
      </trkpt>
      <trkpt lat="47.50876" lon="6.71332">
        <ele>378</ele>
        <time>2015-12-20T10:57:18.000Z</time>
      </trkpt>
      <trkpt lat="47.50875" lon="6.71338">
        <ele>379</ele>
        <time>2015-12-20T10:57:19.000Z</time>
      </trkpt>
      <trkpt lat="47.50874" lon="6.71344">
        <ele>379</ele>
        <time>2015-12-20T10:57:20.000Z</time>
      </trkpt>
      <trkpt lat="47.50872" lon="6.71349">
        <ele>379</ele>
        <time>2015-12-20T10:57:21.000Z</time>
      </trkpt>
      <trkpt lat="47.50871" lon="6.71354">
        <ele>378</ele>
        <time>2015-12-20T10:57:22.000Z</time>
      </trkpt>
      <trkpt lat="47.50869" lon="6.71359">
        <ele>378</ele>
        <time>2015-12-20T10:57:23.000Z</time>
      </trkpt>
      <trkpt lat="47.50867" lon="6.71364">
        <ele>378</ele>
        <time>2015-12-20T10:57:24.000Z</time>
      </trkpt>
      <trkpt lat="47.50865" lon="6.71369">
        <ele>378</ele>
        <time>2015-12-20T10:57:25.000Z</time>
      </trkpt>
      <trkpt lat="47.50863" lon="6.71374">
        <ele>378</ele>
        <time>2015-12-20T10:57:26.000Z</time>
      </trkpt>
      <trkpt lat="47.50861" lon="6.71379">
        <ele>378</ele>
        <time>2015-12-20T10:57:27.000Z</time>
      </trkpt>
      <trkpt lat="47.5086" lon="6.71383">
        <ele>378</ele>
        <time>2015-12-20T10:57:28.000Z</time>
      </trkpt>
      <trkpt lat="47.50859" lon="6.71387">
        <ele>377</ele>
        <time>2015-12-20T10:57:29.000Z</time>
      </trkpt>
      <trkpt lat="47.50859" lon="6.71393">
        <ele>377</ele>
        <time>2015-12-20T10:57:31.000Z</time>
      </trkpt>
      <trkpt lat="47.50857" lon="6.71396">
        <ele>377</ele>
        <time>2015-12-20T10:57:32.000Z</time>
      </trkpt>
      <trkpt lat="47.50856" lon="6.714">
        <ele>377</ele>
        <time>2015-12-20T10:57:33.000Z</time>
      </trkpt>
      <trkpt lat="47.50855" lon="6.71405">
        <ele>376</ele>
        <time>2015-12-20T10:57:34.000Z</time>
      </trkpt>
      <trkpt lat="47.50853" lon="6.7141">
        <ele>376</ele>
        <time>2015-12-20T10:57:35.000Z</time>
      </trkpt>
      <trkpt lat="47.50852" lon="6.71417">
        <ele>375</ele>
        <time>2015-12-20T10:57:36.000Z</time>
      </trkpt>
      <trkpt lat="47.5085" lon="6.71423">
        <ele>375</ele>
        <time>2015-12-20T10:57:37.000Z</time>
      </trkpt>
      <trkpt lat="47.50849" lon="6.71429">
        <ele>376</ele>
        <time>2015-12-20T10:57:38.000Z</time>
      </trkpt>
      <trkpt lat="47.50848" lon="6.71435">
        <ele>376</ele>
        <time>2015-12-20T10:57:39.000Z</time>
      </trkpt>
      <trkpt lat="47.50847" lon="6.71441">
        <ele>377</ele>
        <time>2015-12-20T10:57:40.000Z</time>
      </trkpt>
      <trkpt lat="47.50846" lon="6.71447">
        <ele>377</ele>
        <time>2015-12-20T10:57:41.000Z</time>
      </trkpt>
      <trkpt lat="47.50845" lon="6.71453">
        <ele>377</ele>
        <time>2015-12-20T10:57:42.000Z</time>
      </trkpt>
      <trkpt lat="47.50844" lon="6.71459">
        <ele>377</ele>
        <time>2015-12-20T10:57:43.000Z</time>
      </trkpt>
      <trkpt lat="47.50842" lon="6.71465">
        <ele>377</ele>
        <time>2015-12-20T10:57:44.000Z</time>
      </trkpt>
      <trkpt lat="47.5084" lon="6.71472">
        <ele>377</ele>
        <time>2015-12-20T10:57:45.000Z</time>
      </trkpt>
      <trkpt lat="47.50839" lon="6.71478">
        <ele>377</ele>
        <time>2015-12-20T10:57:46.000Z</time>
      </trkpt>
      <trkpt lat="47.50838" lon="6.71484">
        <ele>376</ele>
        <time>2015-12-20T10:57:47.000Z</time>
      </trkpt>
      <trkpt lat="47.50836" lon="6.71491">
        <ele>375</ele>
        <time>2015-12-20T10:57:48.000Z</time>
      </trkpt>
      <trkpt lat="47.50835" lon="6.71497">
        <ele>373</ele>
        <time>2015-12-20T10:57:49.000Z</time>
      </trkpt>
      <trkpt lat="47.50833" lon="6.71503">
        <ele>371</ele>
        <time>2015-12-20T10:57:50.000Z</time>
      </trkpt>
      <trkpt lat="47.50832" lon="6.71508">
        <ele>370</ele>
        <time>2015-12-20T10:57:51.000Z</time>
      </trkpt>
      <trkpt lat="47.5083" lon="6.71513">
        <ele>369</ele>
        <time>2015-12-20T10:57:52.000Z</time>
      </trkpt>
      <trkpt lat="47.50829" lon="6.71519">
        <ele>368</ele>
        <time>2015-12-20T10:57:53.000Z</time>
      </trkpt>
      <trkpt lat="47.50828" lon="6.71525">
        <ele>368</ele>
        <time>2015-12-20T10:57:54.000Z</time>
      </trkpt>
      <trkpt lat="47.50828" lon="6.71531">
        <ele>367</ele>
        <time>2015-12-20T10:57:55.000Z</time>
      </trkpt>
      <trkpt lat="47.50827" lon="6.71537">
        <ele>367</ele>
        <time>2015-12-20T10:57:56.000Z</time>
      </trkpt>
      <trkpt lat="47.50827" lon="6.71543">
        <ele>367</ele>
        <time>2015-12-20T10:57:57.000Z</time>
      </trkpt>
      <trkpt lat="47.50826" lon="6.71548">
        <ele>368</ele>
        <time>2015-12-20T10:57:58.000Z</time>
      </trkpt>
      <trkpt lat="47.50825" lon="6.71554">
        <ele>368</ele>
        <time>2015-12-20T10:57:59.000Z</time>
      </trkpt>
      <trkpt lat="47.50825" lon="6.71559">
        <ele>368</ele>
        <time>2015-12-20T10:58:00.000Z</time>
      </trkpt>
      <trkpt lat="47.50824" lon="6.71565">
        <ele>369</ele>
        <time>2015-12-20T10:58:01.000Z</time>
      </trkpt>
      <trkpt lat="47.50823" lon="6.71571">
        <ele>370</ele>
        <time>2015-12-20T10:58:02.000Z</time>
      </trkpt>
      <trkpt lat="47.50823" lon="6.71578">
        <ele>371</ele>
        <time>2015-12-20T10:58:03.000Z</time>
      </trkpt>
      <trkpt lat="47.50822" lon="6.71584">
        <ele>372</ele>
        <time>2015-12-20T10:58:04.000Z</time>
      </trkpt>
      <trkpt lat="47.50821" lon="6.7159">
        <ele>371</ele>
        <time>2015-12-20T10:58:05.000Z</time>
      </trkpt>
      <trkpt lat="47.50819" lon="6.71596">
        <ele>371</ele>
        <time>2015-12-20T10:58:06.000Z</time>
      </trkpt>
      <trkpt lat="47.50819" lon="6.71602">
        <ele>370</ele>
        <time>2015-12-20T10:58:07.000Z</time>
      </trkpt>
      <trkpt lat="47.50819" lon="6.71608">
        <ele>370</ele>
        <time>2015-12-20T10:58:08.000Z</time>
      </trkpt>
      <trkpt lat="47.50819" lon="6.71614">
        <ele>370</ele>
        <time>2015-12-20T10:58:09.000Z</time>
      </trkpt>
      <trkpt lat="47.5082" lon="6.71619">
        <ele>370</ele>
        <time>2015-12-20T10:58:10.000Z</time>
      </trkpt>
      <trkpt lat="47.50821" lon="6.71623">
        <ele>370</ele>
        <time>2015-12-20T10:58:11.000Z</time>
      </trkpt>
      <trkpt lat="47.50821" lon="6.71625">
        <ele>370</ele>
        <time>2015-12-20T10:58:12.000Z</time>
      </trkpt>
      <trkpt lat="47.50822" lon="6.7163">
        <ele>371</ele>
        <time>2015-12-20T10:58:14.000Z</time>
      </trkpt>
      <trkpt lat="47.50823" lon="6.71633">
        <ele>371</ele>
        <time>2015-12-20T10:58:15.000Z</time>
      </trkpt>
      <trkpt lat="47.50823" lon="6.71638">
        <ele>371</ele>
        <time>2015-12-20T10:58:18.000Z</time>
      </trkpt>
      <trkpt lat="47.50822" lon="6.7164">
        <ele>371</ele>
        <time>2015-12-20T10:58:19.000Z</time>
      </trkpt>
      <trkpt lat="47.50819" lon="6.71643">
        <ele>371</ele>
        <time>2015-12-20T10:58:25.000Z</time>
      </trkpt>
      <trkpt lat="47.50819" lon="6.71643">
        <ele>371</ele>
        <time>2015-12-20T10:58:26.000Z</time>
      </trkpt>
      <trkpt lat="47.50817" lon="6.71638">
        <ele>371</ele>
        <time>2015-12-20T10:58:40.000Z</time>
      </trkpt>
      <trkpt lat="47.50817" lon="6.71637">
        <ele>371</ele>
        <time>2015-12-20T10:58:41.000Z</time>
      </trkpt>
      <trkpt lat="47.50814" lon="6.71641">
        <ele>371</ele>
        <time>2015-12-20T10:58:56.000Z</time>
      </trkpt>
      <trkpt lat="47.50814" lon="6.71645">
        <ele>371</ele>
        <time>2015-12-20T10:58:57.000Z</time>
      </trkpt>
      <trkpt lat="47.50813" lon="6.7165">
        <ele>371</ele>
        <time>2015-12-20T10:58:58.000Z</time>
      </trkpt>
      <trkpt lat="47.50813" lon="6.71654">
        <ele>372</ele>
        <time>2015-12-20T10:58:59.000Z</time>
      </trkpt>
      <trkpt lat="47.50813" lon="6.71658">
        <ele>372</ele>
        <time>2015-12-20T10:59:00.000Z</time>
      </trkpt>
      <trkpt lat="47.50812" lon="6.71662">
        <ele>372</ele>
        <time>2015-12-20T10:59:01.000Z</time>
      </trkpt>
      <trkpt lat="47.50811" lon="6.71666">
        <ele>372</ele>
        <time>2015-12-20T10:59:02.000Z</time>
      </trkpt>
      <trkpt lat="47.50809" lon="6.71669">
        <ele>372</ele>
        <time>2015-12-20T10:59:03.000Z</time>
      </trkpt>
      <trkpt lat="47.50808" lon="6.71674">
        <ele>372</ele>
        <time>2015-12-20T10:59:04.000Z</time>
      </trkpt>
      <trkpt lat="47.50806" lon="6.71678">
        <ele>372</ele>
        <time>2015-12-20T10:59:05.000Z</time>
      </trkpt>
      <trkpt lat="47.50804" lon="6.71681">
        <ele>371</ele>
        <time>2015-12-20T10:59:06.000Z</time>
      </trkpt>
      <trkpt lat="47.50802" lon="6.71685">
        <ele>371</ele>
        <time>2015-12-20T10:59:07.000Z</time>
      </trkpt>
      <trkpt lat="47.50799" lon="6.71687">
        <ele>370</ele>
        <time>2015-12-20T10:59:08.000Z</time>
      </trkpt>
      <trkpt lat="47.50797" lon="6.71688">
        <ele>370</ele>
        <time>2015-12-20T10:59:09.000Z</time>
      </trkpt>
      <trkpt lat="47.50794" lon="6.71688">
        <ele>369</ele>
        <time>2015-12-20T10:59:10.000Z</time>
      </trkpt>
      <trkpt lat="47.50792" lon="6.71686">
        <ele>369</ele>
        <time>2015-12-20T10:59:11.000Z</time>
      </trkpt>
      <trkpt lat="47.50789" lon="6.71685">
        <ele>368</ele>
        <time>2015-12-20T10:59:12.000Z</time>
      </trkpt>
      <trkpt lat="47.50786" lon="6.71683">
        <ele>368</ele>
        <time>2015-12-20T10:59:13.000Z</time>
      </trkpt>
      <trkpt lat="47.50782" lon="6.71682">
        <ele>367</ele>
        <time>2015-12-20T10:59:14.000Z</time>
      </trkpt>
      <trkpt lat="47.50779" lon="6.71681">
        <ele>367</ele>
        <time>2015-12-20T10:59:15.000Z</time>
      </trkpt>
      <trkpt lat="47.50775" lon="6.71681">
        <ele>366</ele>
        <time>2015-12-20T11:00:14.000Z</time>
      </trkpt>
      <trkpt lat="47.50773" lon="6.71681">
        <ele>366</ele>
        <time>2015-12-20T11:00:15.000Z</time>
      </trkpt>
      <trkpt lat="47.50771" lon="6.7168">
        <ele>365</ele>
        <time>2015-12-20T11:00:16.000Z</time>
      </trkpt>
      <trkpt lat="47.50768" lon="6.71679">
        <ele>365</ele>
        <time>2015-12-20T11:00:17.000Z</time>
      </trkpt>
      <trkpt lat="47.50765" lon="6.71678">
        <ele>364</ele>
        <time>2015-12-20T11:00:18.000Z</time>
      </trkpt>
      <trkpt lat="47.50761" lon="6.71677">
        <ele>363</ele>
        <time>2015-12-20T11:00:19.000Z</time>
      </trkpt>
      <trkpt lat="47.50753" lon="6.71676">
        <ele>361</ele>
        <time>2015-12-20T11:00:20.000Z</time>
      </trkpt>
      <trkpt lat="47.50747" lon="6.71674">
        <ele>357</ele>
        <time>2015-12-20T11:00:21.000Z</time>
      </trkpt>
      <trkpt lat="47.50742" lon="6.71673">
        <ele>357</ele>
        <time>2015-12-20T11:00:22.000Z</time>
      </trkpt>
      <trkpt lat="47.50737" lon="6.71672">
        <ele>356</ele>
        <time>2015-12-20T11:00:23.000Z</time>
      </trkpt>
      <trkpt lat="47.50731" lon="6.7167">
        <ele>356</ele>
        <time>2015-12-20T11:00:24.000Z</time>
      </trkpt>
      <trkpt lat="47.50725" lon="6.71668">
        <ele>355</ele>
        <time>2015-12-20T11:00:25.000Z</time>
      </trkpt>
      <trkpt lat="47.50719" lon="6.71666">
        <ele>355</ele>
        <time>2015-12-20T11:00:26.000Z</time>
      </trkpt>
      <trkpt lat="47.50713" lon="6.71663">
        <ele>354</ele>
        <time>2015-12-20T11:00:27.000Z</time>
      </trkpt>
      <trkpt lat="47.50707" lon="6.7166">
        <ele>354</ele>
        <time>2015-12-20T11:00:28.000Z</time>
      </trkpt>
      <trkpt lat="47.507" lon="6.71658">
        <ele>353</ele>
        <time>2015-12-20T11:00:29.000Z</time>
      </trkpt>
      <trkpt lat="47.50693" lon="6.71655">
        <ele>353</ele>
        <time>2015-12-20T11:00:30.000Z</time>
      </trkpt>
      <trkpt lat="47.50686" lon="6.71654">
        <ele>352</ele>
        <time>2015-12-20T11:00:31.000Z</time>
      </trkpt>
      <trkpt lat="47.5068" lon="6.71653">
        <ele>352</ele>
        <time>2015-12-20T11:00:32.000Z</time>
      </trkpt>
      <trkpt lat="47.50673" lon="6.71651">
        <ele>352</ele>
        <time>2015-12-20T11:00:33.000Z</time>
      </trkpt>
      <trkpt lat="47.50667" lon="6.7165">
        <ele>352</ele>
        <time>2015-12-20T11:00:34.000Z</time>
      </trkpt>
      <trkpt lat="47.50661" lon="6.71646">
        <ele>350</ele>
        <time>2015-12-20T11:00:35.000Z</time>
      </trkpt>
      <trkpt lat="47.50656" lon="6.71645">
        <ele>350</ele>
        <time>2015-12-20T11:00:36.000Z</time>
      </trkpt>
      <trkpt lat="47.5065" lon="6.71643">
        <ele>350</ele>
        <time>2015-12-20T11:00:37.000Z</time>
      </trkpt>
      <trkpt lat="47.50648" lon="6.71653">
        <ele>350</ele>
        <time>2015-12-20T11:00:38.000Z</time>
      </trkpt>
      <trkpt lat="47.50647" lon="6.71661">
        <ele>350</ele>
        <time>2015-12-20T11:00:39.000Z</time>
      </trkpt>
      <trkpt lat="47.50645" lon="6.71669">
        <ele>349</ele>
        <time>2015-12-20T11:00:40.000Z</time>
      </trkpt>
      <trkpt lat="47.50644" lon="6.71674">
        <ele>349</ele>
        <time>2015-12-20T11:00:41.000Z</time>
      </trkpt>
      <trkpt lat="47.50642" lon="6.71681">
        <ele>349</ele>
        <time>2015-12-20T11:00:42.000Z</time>
      </trkpt>
      <trkpt lat="47.5064" lon="6.71688">
        <ele>349</ele>
        <time>2015-12-20T11:00:43.000Z</time>
      </trkpt>
      <trkpt lat="47.50638" lon="6.71695">
        <ele>349</ele>
        <time>2015-12-20T11:00:44.000Z</time>
      </trkpt>
      <trkpt lat="47.50638" lon="6.71703">
        <ele>349</ele>
        <time>2015-12-20T11:00:45.000Z</time>
      </trkpt>
      <trkpt lat="47.50635" lon="6.7171">
        <ele>349</ele>
        <time>2015-12-20T11:00:46.000Z</time>
      </trkpt>
      <trkpt lat="47.50634" lon="6.71718">
        <ele>349</ele>
        <time>2015-12-20T11:00:47.000Z</time>
      </trkpt>
      <trkpt lat="47.50632" lon="6.71727">
        <ele>348</ele>
        <time>2015-12-20T11:00:48.000Z</time>
      </trkpt>
      <trkpt lat="47.50629" lon="6.71735">
        <ele>348</ele>
        <time>2015-12-20T11:00:49.000Z</time>
      </trkpt>
      <trkpt lat="47.50628" lon="6.71742">
        <ele>348</ele>
        <time>2015-12-20T11:00:50.000Z</time>
      </trkpt>
      <trkpt lat="47.50625" lon="6.7175">
        <ele>347</ele>
        <time>2015-12-20T11:00:51.000Z</time>
      </trkpt>
      <trkpt lat="47.50624" lon="6.71758">
        <ele>347</ele>
        <time>2015-12-20T11:00:52.000Z</time>
      </trkpt>
      <trkpt lat="47.50622" lon="6.71766">
        <ele>347</ele>
        <time>2015-12-20T11:00:53.000Z</time>
      </trkpt>
      <trkpt lat="47.5062" lon="6.71775">
        <ele>347</ele>
        <time>2015-12-20T11:00:54.000Z</time>
      </trkpt>
      <trkpt lat="47.50618" lon="6.71783">
        <ele>347</ele>
        <time>2015-12-20T11:00:55.000Z</time>
      </trkpt>
      <trkpt lat="47.50615" lon="6.71791">
        <ele>347</ele>
        <time>2015-12-20T11:00:56.000Z</time>
      </trkpt>
      <trkpt lat="47.50613" lon="6.71798">
        <ele>346</ele>
        <time>2015-12-20T11:00:57.000Z</time>
      </trkpt>
      <trkpt lat="47.50611" lon="6.71806">
        <ele>346</ele>
        <time>2015-12-20T11:00:58.000Z</time>
      </trkpt>
      <trkpt lat="47.5061" lon="6.71814">
        <ele>346</ele>
        <time>2015-12-20T11:00:59.000Z</time>
      </trkpt>
      <trkpt lat="47.50608" lon="6.71823">
        <ele>346</ele>
        <time>2015-12-20T11:01:00.000Z</time>
      </trkpt>
      <trkpt lat="47.50605" lon="6.71831">
        <ele>346</ele>
        <time>2015-12-20T11:01:01.000Z</time>
      </trkpt>
      <trkpt lat="47.50603" lon="6.7184">
        <ele>345</ele>
        <time>2015-12-20T11:01:02.000Z</time>
      </trkpt>
      <trkpt lat="47.506" lon="6.71849">
        <ele>345</ele>
        <time>2015-12-20T11:01:03.000Z</time>
      </trkpt>
      <trkpt lat="47.50599" lon="6.71858">
        <ele>345</ele>
        <time>2015-12-20T11:01:04.000Z</time>
      </trkpt>
      <trkpt lat="47.50598" lon="6.71866">
        <ele>345</ele>
        <time>2015-12-20T11:01:05.000Z</time>
      </trkpt>
      <trkpt lat="47.50596" lon="6.71875">
        <ele>346</ele>
        <time>2015-12-20T11:01:06.000Z</time>
      </trkpt>
      <trkpt lat="47.50593" lon="6.71883">
        <ele>346</ele>
        <time>2015-12-20T11:01:07.000Z</time>
      </trkpt>
      <trkpt lat="47.50591" lon="6.7189">
        <ele>346</ele>
        <time>2015-12-20T11:01:08.000Z</time>
      </trkpt>
      <trkpt lat="47.50589" lon="6.71899">
        <ele>345</ele>
        <time>2015-12-20T11:01:09.000Z</time>
      </trkpt>
      <trkpt lat="47.50587" lon="6.71906">
        <ele>345</ele>
        <time>2015-12-20T11:01:10.000Z</time>
      </trkpt>
      <trkpt lat="47.50585" lon="6.71915">
        <ele>345</ele>
        <time>2015-12-20T11:01:11.000Z</time>
      </trkpt>
      <trkpt lat="47.50582" lon="6.71924">
        <ele>345</ele>
        <time>2015-12-20T11:01:12.000Z</time>
      </trkpt>
      <trkpt lat="47.50579" lon="6.71932">
        <ele>345</ele>
        <time>2015-12-20T11:01:13.000Z</time>
      </trkpt>
      <trkpt lat="47.50577" lon="6.7194">
        <ele>345</ele>
        <time>2015-12-20T11:01:14.000Z</time>
      </trkpt>
      <trkpt lat="47.50573" lon="6.71948">
        <ele>345</ele>
        <time>2015-12-20T11:01:15.000Z</time>
      </trkpt>
      <trkpt lat="47.50569" lon="6.71955">
        <ele>345</ele>
        <time>2015-12-20T11:01:16.000Z</time>
      </trkpt>
      <trkpt lat="47.50566" lon="6.71962">
        <ele>345</ele>
        <time>2015-12-20T11:01:17.000Z</time>
      </trkpt>
      <trkpt lat="47.50563" lon="6.71969">
        <ele>345</ele>
        <time>2015-12-20T11:01:18.000Z</time>
      </trkpt>
      <trkpt lat="47.5056" lon="6.71975">
        <ele>345</ele>
        <time>2015-12-20T11:01:19.000Z</time>
      </trkpt>
      <trkpt lat="47.50557" lon="6.71983">
        <ele>345</ele>
        <time>2015-12-20T11:01:20.000Z</time>
      </trkpt>
      <trkpt lat="47.50553" lon="6.7199">
        <ele>345</ele>
        <time>2015-12-20T11:01:21.000Z</time>
      </trkpt>
      <trkpt lat="47.5055" lon="6.71997">
        <ele>345</ele>
        <time>2015-12-20T11:01:22.000Z</time>
      </trkpt>
      <trkpt lat="47.50546" lon="6.72005">
        <ele>344</ele>
        <time>2015-12-20T11:01:23.000Z</time>
      </trkpt>
      <trkpt lat="47.50544" lon="6.72012">
        <ele>344</ele>
        <time>2015-12-20T11:01:24.000Z</time>
      </trkpt>
      <trkpt lat="47.50541" lon="6.72019">
        <ele>344</ele>
        <time>2015-12-20T11:01:25.000Z</time>
      </trkpt>
      <trkpt lat="47.50538" lon="6.72027">
        <ele>344</ele>
        <time>2015-12-20T11:01:26.000Z</time>
      </trkpt>
      <trkpt lat="47.50535" lon="6.72035">
        <ele>344</ele>
        <time>2015-12-20T11:01:27.000Z</time>
      </trkpt>
      <trkpt lat="47.50532" lon="6.72044">
        <ele>344</ele>
        <time>2015-12-20T11:01:28.000Z</time>
      </trkpt>
      <trkpt lat="47.5053" lon="6.72051">
        <ele>344</ele>
        <time>2015-12-20T11:01:29.000Z</time>
      </trkpt>
      <trkpt lat="47.50527" lon="6.72058">
        <ele>344</ele>
        <time>2015-12-20T11:01:30.000Z</time>
      </trkpt>
      <trkpt lat="47.50524" lon="6.72065">
        <ele>344</ele>
        <time>2015-12-20T11:01:31.000Z</time>
      </trkpt>
      <trkpt lat="47.50522" lon="6.72072">
        <ele>344</ele>
        <time>2015-12-20T11:01:32.000Z</time>
      </trkpt>
      <trkpt lat="47.5052" lon="6.72079">
        <ele>344</ele>
        <time>2015-12-20T11:01:33.000Z</time>
      </trkpt>
      <trkpt lat="47.50518" lon="6.72086">
        <ele>344</ele>
        <time>2015-12-20T11:01:34.000Z</time>
      </trkpt>
      <trkpt lat="47.50516" lon="6.72093">
        <ele>344</ele>
        <time>2015-12-20T11:01:35.000Z</time>
      </trkpt>
      <trkpt lat="47.50513" lon="6.721">
        <ele>344</ele>
        <time>2015-12-20T11:01:36.000Z</time>
      </trkpt>
      <trkpt lat="47.50511" lon="6.72107">
        <ele>344</ele>
        <time>2015-12-20T11:01:37.000Z</time>
      </trkpt>
      <trkpt lat="47.5051" lon="6.72114">
        <ele>344</ele>
        <time>2015-12-20T11:01:38.000Z</time>
      </trkpt>
      <trkpt lat="47.50509" lon="6.72122">
        <ele>344</ele>
        <time>2015-12-20T11:01:39.000Z</time>
      </trkpt>
      <trkpt lat="47.50508" lon="6.72129">
        <ele>344</ele>
        <time>2015-12-20T11:01:40.000Z</time>
      </trkpt>
      <trkpt lat="47.50506" lon="6.72136">
        <ele>344</ele>
        <time>2015-12-20T11:01:41.000Z</time>
      </trkpt>
      <trkpt lat="47.50505" lon="6.72144">
        <ele>344</ele>
        <time>2015-12-20T11:01:42.000Z</time>
      </trkpt>
      <trkpt lat="47.50503" lon="6.72151">
        <ele>344</ele>
        <time>2015-12-20T11:01:43.000Z</time>
      </trkpt>
      <trkpt lat="47.50502" lon="6.7216">
        <ele>343</ele>
        <time>2015-12-20T11:01:44.000Z</time>
      </trkpt>
      <trkpt lat="47.50501" lon="6.72167">
        <ele>343</ele>
        <time>2015-12-20T11:01:45.000Z</time>
      </trkpt>
      <trkpt lat="47.505" lon="6.72175">
        <ele>344</ele>
        <time>2015-12-20T11:01:46.000Z</time>
      </trkpt>
      <trkpt lat="47.505" lon="6.72182">
        <ele>343</ele>
        <time>2015-12-20T11:01:47.000Z</time>
      </trkpt>
      <trkpt lat="47.50499" lon="6.7219">
        <ele>343</ele>
        <time>2015-12-20T11:01:48.000Z</time>
      </trkpt>
      <trkpt lat="47.50498" lon="6.72196">
        <ele>343</ele>
        <time>2015-12-20T11:01:49.000Z</time>
      </trkpt>
      <trkpt lat="47.50498" lon="6.72204">
        <ele>343</ele>
        <time>2015-12-20T11:01:50.000Z</time>
      </trkpt>
      <trkpt lat="47.50496" lon="6.72211">
        <ele>343</ele>
        <time>2015-12-20T11:01:51.000Z</time>
      </trkpt>
      <trkpt lat="47.50494" lon="6.72218">
        <ele>343</ele>
        <time>2015-12-20T11:01:52.000Z</time>
      </trkpt>
      <trkpt lat="47.50491" lon="6.72224">
        <ele>343</ele>
        <time>2015-12-20T11:01:53.000Z</time>
      </trkpt>
      <trkpt lat="47.50488" lon="6.72229">
        <ele>343</ele>
        <time>2015-12-20T11:01:54.000Z</time>
      </trkpt>
      <trkpt lat="47.50485" lon="6.72234">
        <ele>343</ele>
        <time>2015-12-20T11:01:55.000Z</time>
      </trkpt>
      <trkpt lat="47.50481" lon="6.7224">
        <ele>343</ele>
        <time>2015-12-20T11:01:56.000Z</time>
      </trkpt>
      <trkpt lat="47.50477" lon="6.72244">
        <ele>343</ele>
        <time>2015-12-20T11:01:57.000Z</time>
      </trkpt>
      <trkpt lat="47.50473" lon="6.72248">
        <ele>343</ele>
        <time>2015-12-20T11:01:58.000Z</time>
      </trkpt>
      <trkpt lat="47.50469" lon="6.72251">
        <ele>343</ele>
        <time>2015-12-20T11:01:59.000Z</time>
      </trkpt>
      <trkpt lat="47.50464" lon="6.72255">
        <ele>343</ele>
        <time>2015-12-20T11:02:00.000Z</time>
      </trkpt>
      <trkpt lat="47.50461" lon="6.72257">
        <ele>343</ele>
        <time>2015-12-20T11:02:01.000Z</time>
      </trkpt>
      <trkpt lat="47.50457" lon="6.7226">
        <ele>343</ele>
        <time>2015-12-20T11:02:02.000Z</time>
      </trkpt>
      <trkpt lat="47.50452" lon="6.72264">
        <ele>343</ele>
        <time>2015-12-20T11:02:03.000Z</time>
      </trkpt>
      <trkpt lat="47.50448" lon="6.72267">
        <ele>343</ele>
        <time>2015-12-20T11:02:04.000Z</time>
      </trkpt>
      <trkpt lat="47.50443" lon="6.7227">
        <ele>343</ele>
        <time>2015-12-20T11:02:05.000Z</time>
      </trkpt>
      <trkpt lat="47.5044" lon="6.72273">
        <ele>343</ele>
        <time>2015-12-20T11:02:06.000Z</time>
      </trkpt>
      <trkpt lat="47.50435" lon="6.72277">
        <ele>343</ele>
        <time>2015-12-20T11:02:07.000Z</time>
      </trkpt>
      <trkpt lat="47.50431" lon="6.7228">
        <ele>343</ele>
        <time>2015-12-20T11:02:08.000Z</time>
      </trkpt>
      <trkpt lat="47.50427" lon="6.72282">
        <ele>343</ele>
        <time>2015-12-20T11:02:09.000Z</time>
      </trkpt>
      <trkpt lat="47.50422" lon="6.72285">
        <ele>343</ele>
        <time>2015-12-20T11:02:10.000Z</time>
      </trkpt>
      <trkpt lat="47.50418" lon="6.72288">
        <ele>343</ele>
        <time>2015-12-20T11:02:11.000Z</time>
      </trkpt>
      <trkpt lat="47.50414" lon="6.72291">
        <ele>343</ele>
        <time>2015-12-20T11:02:12.000Z</time>
      </trkpt>
      <trkpt lat="47.5041" lon="6.72293">
        <ele>343</ele>
        <time>2015-12-20T11:02:13.000Z</time>
      </trkpt>
      <trkpt lat="47.50406" lon="6.72296">
        <ele>343</ele>
        <time>2015-12-20T11:02:14.000Z</time>
      </trkpt>
      <trkpt lat="47.50402" lon="6.72297">
        <ele>343</ele>
        <time>2015-12-20T11:02:15.000Z</time>
      </trkpt>
      <trkpt lat="47.50399" lon="6.72301">
        <ele>343</ele>
        <time>2015-12-20T11:02:16.000Z</time>
      </trkpt>
      <trkpt lat="47.50395" lon="6.72303">
        <ele>343</ele>
        <time>2015-12-20T11:02:17.000Z</time>
      </trkpt>
      <trkpt lat="47.50392" lon="6.72305">
        <ele>343</ele>
        <time>2015-12-20T11:02:18.000Z</time>
      </trkpt>
      <trkpt lat="47.50388" lon="6.72307">
        <ele>343</ele>
        <time>2015-12-20T11:02:19.000Z</time>
      </trkpt>
      <trkpt lat="47.50384" lon="6.72311">
        <ele>343</ele>
        <time>2015-12-20T11:02:20.000Z</time>
      </trkpt>
      <trkpt lat="47.5038" lon="6.72313">
        <ele>343</ele>
        <time>2015-12-20T11:02:21.000Z</time>
      </trkpt>
      <trkpt lat="47.50377" lon="6.72316">
        <ele>343</ele>
        <time>2015-12-20T11:02:22.000Z</time>
      </trkpt>
      <trkpt lat="47.50373" lon="6.72319">
        <ele>343</ele>
        <time>2015-12-20T11:02:23.000Z</time>
      </trkpt>
      <trkpt lat="47.5037" lon="6.72321">
        <ele>343</ele>
        <time>2015-12-20T11:02:24.000Z</time>
      </trkpt>
      <trkpt lat="47.50366" lon="6.72323">
        <ele>343</ele>
        <time>2015-12-20T11:02:25.000Z</time>
      </trkpt>
      <trkpt lat="47.50362" lon="6.72325">
        <ele>343</ele>
        <time>2015-12-20T11:02:26.000Z</time>
      </trkpt>
      <trkpt lat="47.50359" lon="6.72326">
        <ele>343</ele>
        <time>2015-12-20T11:02:27.000Z</time>
      </trkpt>
      <trkpt lat="47.50355" lon="6.72328">
        <ele>343</ele>
        <time>2015-12-20T11:02:28.000Z</time>
      </trkpt>
      <trkpt lat="47.50352" lon="6.7233">
        <ele>343</ele>
        <time>2015-12-20T11:02:29.000Z</time>
      </trkpt>
      <trkpt lat="47.50349" lon="6.72332">
        <ele>343</ele>
        <time>2015-12-20T11:02:30.000Z</time>
      </trkpt>
      <trkpt lat="47.50346" lon="6.72334">
        <ele>343</ele>
        <time>2015-12-20T11:02:31.000Z</time>
      </trkpt>
      <trkpt lat="47.50342" lon="6.72336">
        <ele>343</ele>
        <time>2015-12-20T11:02:32.000Z</time>
      </trkpt>
      <trkpt lat="47.50339" lon="6.72338">
        <ele>343</ele>
        <time>2015-12-20T11:02:33.000Z</time>
      </trkpt>
      <trkpt lat="47.50336" lon="6.72339">
        <ele>343</ele>
        <time>2015-12-20T11:02:34.000Z</time>
      </trkpt>
      <trkpt lat="47.50333" lon="6.72341">
        <ele>343</ele>
        <time>2015-12-20T11:02:35.000Z</time>
      </trkpt>
      <trkpt lat="47.5033" lon="6.72342">
        <ele>343</ele>
        <time>2015-12-20T11:02:36.000Z</time>
      </trkpt>
      <trkpt lat="47.50327" lon="6.72344">
        <ele>343</ele>
        <time>2015-12-20T11:02:37.000Z</time>
      </trkpt>
      <trkpt lat="47.50324" lon="6.72345">
        <ele>343</ele>
        <time>2015-12-20T11:02:38.000Z</time>
      </trkpt>
      <trkpt lat="47.50321" lon="6.72347">
        <ele>343</ele>
        <time>2015-12-20T11:02:39.000Z</time>
      </trkpt>
      <trkpt lat="47.50319" lon="6.72348">
        <ele>343</ele>
        <time>2015-12-20T11:02:40.000Z</time>
      </trkpt>
      <trkpt lat="47.50315" lon="6.7235">
        <ele>343</ele>
        <time>2015-12-20T11:02:42.000Z</time>
      </trkpt>
      <trkpt lat="47.50314" lon="6.7235">
        <ele>343</ele>
        <time>2015-12-20T11:02:43.000Z</time>
      </trkpt>
      <trkpt lat="47.50311" lon="6.72349">
        <ele>343</ele>
        <time>2015-12-20T11:02:57.000Z</time>
      </trkpt>
      <trkpt lat="47.50309" lon="6.72349">
        <ele>343</ele>
        <time>2015-12-20T11:02:58.000Z</time>
      </trkpt>
      <trkpt lat="47.50307" lon="6.7235">
        <ele>343</ele>
        <time>2015-12-20T11:02:59.000Z</time>
      </trkpt>
      <trkpt lat="47.50303" lon="6.7235">
        <ele>343</ele>
        <time>2015-12-20T11:03:00.000Z</time>
      </trkpt>
      <trkpt lat="47.50299" lon="6.72352">
        <ele>343</ele>
        <time>2015-12-20T11:03:01.000Z</time>
      </trkpt>
      <trkpt lat="47.50295" lon="6.72353">
        <ele>343</ele>
        <time>2015-12-20T11:03:02.000Z</time>
      </trkpt>
      <trkpt lat="47.50291" lon="6.72355">
        <ele>343</ele>
        <time>2015-12-20T11:03:03.000Z</time>
      </trkpt>
      <trkpt lat="47.50286" lon="6.72357">
        <ele>343</ele>
        <time>2015-12-20T11:03:04.000Z</time>
      </trkpt>
      <trkpt lat="47.50282" lon="6.7236">
        <ele>343</ele>
        <time>2015-12-20T11:03:05.000Z</time>
      </trkpt>
      <trkpt lat="47.50278" lon="6.72362">
        <ele>343</ele>
        <time>2015-12-20T11:03:06.000Z</time>
      </trkpt>
      <trkpt lat="47.50275" lon="6.72364">
        <ele>343</ele>
        <time>2015-12-20T11:03:07.000Z</time>
      </trkpt>
      <trkpt lat="47.50271" lon="6.72366">
        <ele>343</ele>
        <time>2015-12-20T11:03:08.000Z</time>
      </trkpt>
      <trkpt lat="47.50268" lon="6.72368">
        <ele>343</ele>
        <time>2015-12-20T11:03:09.000Z</time>
      </trkpt>
      <trkpt lat="47.50264" lon="6.72369">
        <ele>343</ele>
        <time>2015-12-20T11:03:10.000Z</time>
      </trkpt>
      <trkpt lat="47.5026" lon="6.7237">
        <ele>343</ele>
        <time>2015-12-20T11:03:11.000Z</time>
      </trkpt>
      <trkpt lat="47.50257" lon="6.72372">
        <ele>343</ele>
        <time>2015-12-20T11:03:12.000Z</time>
      </trkpt>
      <trkpt lat="47.50253" lon="6.72373">
        <ele>343</ele>
        <time>2015-12-20T11:03:13.000Z</time>
      </trkpt>
      <trkpt lat="47.50249" lon="6.72375">
        <ele>345</ele>
        <time>2015-12-20T11:03:14.000Z</time>
      </trkpt>
      <trkpt lat="47.50244" lon="6.72377">
        <ele>345</ele>
        <time>2015-12-20T11:03:15.000Z</time>
      </trkpt>
      <trkpt lat="47.5024" lon="6.72379">
        <ele>345</ele>
        <time>2015-12-20T11:03:16.000Z</time>
      </trkpt>
      <trkpt lat="47.50236" lon="6.72381">
        <ele>345</ele>
        <time>2015-12-20T11:03:17.000Z</time>
      </trkpt>
      <trkpt lat="47.50233" lon="6.72383">
        <ele>345</ele>
        <time>2015-12-20T11:03:18.000Z</time>
      </trkpt>
      <trkpt lat="47.50229" lon="6.72385">
        <ele>345</ele>
        <time>2015-12-20T11:03:19.000Z</time>
      </trkpt>
      <trkpt lat="47.50226" lon="6.72387">
        <ele>345</ele>
        <time>2015-12-20T11:03:20.000Z</time>
      </trkpt>
      <trkpt lat="47.50222" lon="6.72389">
        <ele>345</ele>
        <time>2015-12-20T11:03:21.000Z</time>
      </trkpt>
      <trkpt lat="47.50219" lon="6.72391">
        <ele>346</ele>
        <time>2015-12-20T11:03:22.000Z</time>
      </trkpt>
      <trkpt lat="47.50216" lon="6.72393">
        <ele>346</ele>
        <time>2015-12-20T11:03:23.000Z</time>
      </trkpt>
      <trkpt lat="47.50212" lon="6.72395">
        <ele>346</ele>
        <time>2015-12-20T11:03:24.000Z</time>
      </trkpt>
      <trkpt lat="47.50208" lon="6.72398">
        <ele>346</ele>
        <time>2015-12-20T11:03:25.000Z</time>
      </trkpt>
      <trkpt lat="47.50205" lon="6.72401">
        <ele>346</ele>
        <time>2015-12-20T11:03:26.000Z</time>
      </trkpt>
      <trkpt lat="47.50201" lon="6.72404">
        <ele>346</ele>
        <time>2015-12-20T11:03:27.000Z</time>
      </trkpt>
      <trkpt lat="47.50198" lon="6.72405">
        <ele>346</ele>
        <time>2015-12-20T11:03:28.000Z</time>
      </trkpt>
      <trkpt lat="47.50194" lon="6.72407">
        <ele>347</ele>
        <time>2015-12-20T11:03:29.000Z</time>
      </trkpt>
      <trkpt lat="47.5019" lon="6.72409">
        <ele>347</ele>
        <time>2015-12-20T11:03:30.000Z</time>
      </trkpt>
      <trkpt lat="47.50187" lon="6.72411">
        <ele>347</ele>
        <time>2015-12-20T11:03:31.000Z</time>
      </trkpt>
      <trkpt lat="47.50184" lon="6.72413">
        <ele>347</ele>
        <time>2015-12-20T11:03:32.000Z</time>
      </trkpt>
      <trkpt lat="47.50181" lon="6.72415">
        <ele>347</ele>
        <time>2015-12-20T11:03:33.000Z</time>
      </trkpt>
      <trkpt lat="47.50178" lon="6.72418">
        <ele>347</ele>
        <time>2015-12-20T11:03:34.000Z</time>
      </trkpt>
      <trkpt lat="47.50175" lon="6.72419">
        <ele>347</ele>
        <time>2015-12-20T11:03:35.000Z</time>
      </trkpt>
      <trkpt lat="47.50172" lon="6.72421">
        <ele>347</ele>
        <time>2015-12-20T11:03:36.000Z</time>
      </trkpt>
      <trkpt lat="47.50169" lon="6.72423">
        <ele>347</ele>
        <time>2015-12-20T11:03:37.000Z</time>
      </trkpt>
      <trkpt lat="47.50166" lon="6.72424">
        <ele>348</ele>
        <time>2015-12-20T11:03:38.000Z</time>
      </trkpt>
      <trkpt lat="47.50163" lon="6.72426">
        <ele>348</ele>
        <time>2015-12-20T11:03:39.000Z</time>
      </trkpt>
      <trkpt lat="47.5016" lon="6.72429">
        <ele>349</ele>
        <time>2015-12-20T11:03:40.000Z</time>
      </trkpt>
      <trkpt lat="47.50158" lon="6.72431">
        <ele>349</ele>
        <time>2015-12-20T11:03:41.001Z</time>
      </trkpt>
      <trkpt lat="47.50155" lon="6.72433">
        <ele>349</ele>
        <time>2015-12-20T11:03:42.000Z</time>
      </trkpt>
      <trkpt lat="47.50153" lon="6.72435">
        <ele>349</ele>
        <time>2015-12-20T11:03:43.000Z</time>
      </trkpt>
      <trkpt lat="47.5015" lon="6.72438">
        <ele>349</ele>
        <time>2015-12-20T11:03:44.000Z</time>
      </trkpt>
      <trkpt lat="47.50148" lon="6.7244">
        <ele>349</ele>
        <time>2015-12-20T11:03:45.000Z</time>
      </trkpt>
      <trkpt lat="47.50145" lon="6.72443">
        <ele>349</ele>
        <time>2015-12-20T11:03:46.000Z</time>
      </trkpt>
      <trkpt lat="47.50143" lon="6.72446">
        <ele>349</ele>
        <time>2015-12-20T11:03:47.000Z</time>
      </trkpt>
      <trkpt lat="47.5014" lon="6.72451">
        <ele>349</ele>
        <time>2015-12-20T11:03:48.000Z</time>
      </trkpt>
      <trkpt lat="47.50138" lon="6.72454">
        <ele>349</ele>
        <time>2015-12-20T11:03:49.000Z</time>
      </trkpt>
      <trkpt lat="47.50136" lon="6.72459">
        <ele>349</ele>
        <time>2015-12-20T11:03:50.000Z</time>
      </trkpt>
      <trkpt lat="47.50134" lon="6.72463">
        <ele>349</ele>
        <time>2015-12-20T11:03:51.000Z</time>
      </trkpt>
      <trkpt lat="47.50132" lon="6.72468">
        <ele>349</ele>
        <time>2015-12-20T11:03:52.000Z</time>
      </trkpt>
      <trkpt lat="47.50131" lon="6.72472">
        <ele>349</ele>
        <time>2015-12-20T11:03:53.000Z</time>
      </trkpt>
      <trkpt lat="47.50129" lon="6.72477">
        <ele>349</ele>
        <time>2015-12-20T11:03:54.000Z</time>
      </trkpt>
      <trkpt lat="47.50127" lon="6.72481">
        <ele>349</ele>
        <time>2015-12-20T11:03:55.000Z</time>
      </trkpt>
      <trkpt lat="47.50126" lon="6.72486">
        <ele>349</ele>
        <time>2015-12-20T11:03:56.000Z</time>
      </trkpt>
      <trkpt lat="47.50125" lon="6.7249">
        <ele>349</ele>
        <time>2015-12-20T11:03:57.000Z</time>
      </trkpt>
      <trkpt lat="47.50123" lon="6.72494">
        <ele>349</ele>
        <time>2015-12-20T11:03:58.000Z</time>
      </trkpt>
      <trkpt lat="47.50121" lon="6.72499">
        <ele>349</ele>
        <time>2015-12-20T11:03:59.000Z</time>
      </trkpt>
      <trkpt lat="47.5012" lon="6.72504">
        <ele>348</ele>
        <time>2015-12-20T11:04:00.000Z</time>
      </trkpt>
      <trkpt lat="47.50117" lon="6.72509">
        <ele>348</ele>
        <time>2015-12-20T11:04:01.000Z</time>
      </trkpt>
      <trkpt lat="47.50116" lon="6.72514">
        <ele>348</ele>
        <time>2015-12-20T11:04:02.000Z</time>
      </trkpt>
      <trkpt lat="47.50114" lon="6.72518">
        <ele>348</ele>
        <time>2015-12-20T11:04:03.000Z</time>
      </trkpt>
      <trkpt lat="47.50112" lon="6.72523">
        <ele>348</ele>
        <time>2015-12-20T11:04:04.000Z</time>
      </trkpt>
      <trkpt lat="47.5011" lon="6.72525">
        <ele>348</ele>
        <time>2015-12-20T11:04:05.000Z</time>
      </trkpt>
      <trkpt lat="47.50108" lon="6.7253">
        <ele>348</ele>
        <time>2015-12-20T11:04:06.000Z</time>
      </trkpt>
      <trkpt lat="47.50106" lon="6.72535">
        <ele>348</ele>
        <time>2015-12-20T11:04:07.000Z</time>
      </trkpt>
      <trkpt lat="47.50103" lon="6.72539">
        <ele>348</ele>
        <time>2015-12-20T11:04:08.000Z</time>
      </trkpt>
      <trkpt lat="47.50101" lon="6.72543">
        <ele>348</ele>
        <time>2015-12-20T11:04:08.999Z</time>
      </trkpt>
      <trkpt lat="47.50099" lon="6.72548">
        <ele>348</ele>
        <time>2015-12-20T11:04:10.000Z</time>
      </trkpt>
      <trkpt lat="47.50097" lon="6.72552">
        <ele>348</ele>
        <time>2015-12-20T11:04:11.000Z</time>
      </trkpt>
      <trkpt lat="47.50094" lon="6.72557">
        <ele>348</ele>
        <time>2015-12-20T11:04:12.000Z</time>
      </trkpt>
      <trkpt lat="47.50092" lon="6.72562">
        <ele>348</ele>
        <time>2015-12-20T11:04:13.000Z</time>
      </trkpt>
      <trkpt lat="47.50089" lon="6.72566">
        <ele>348</ele>
        <time>2015-12-20T11:04:14.000Z</time>
      </trkpt>
      <trkpt lat="47.50087" lon="6.72571">
        <ele>348</ele>
        <time>2015-12-20T11:04:14.999Z</time>
      </trkpt>
      <trkpt lat="47.50084" lon="6.72576">
        <ele>348</ele>
        <time>2015-12-20T11:04:16.000Z</time>
      </trkpt>
      <trkpt lat="47.50081" lon="6.72581">
        <ele>348</ele>
        <time>2015-12-20T11:04:17.000Z</time>
      </trkpt>
      <trkpt lat="47.50079" lon="6.72586">
        <ele>348</ele>
        <time>2015-12-20T11:04:17.999Z</time>
      </trkpt>
      <trkpt lat="47.50075" lon="6.7259">
        <ele>347</ele>
        <time>2015-12-20T11:04:19.000Z</time>
      </trkpt>
      <trkpt lat="47.50072" lon="6.72595">
        <ele>347</ele>
        <time>2015-12-20T11:04:20.000Z</time>
      </trkpt>
      <trkpt lat="47.50069" lon="6.72601">
        <ele>347</ele>
        <time>2015-12-20T11:04:21.000Z</time>
      </trkpt>
      <trkpt lat="47.50065" lon="6.72606">
        <ele>347</ele>
        <time>2015-12-20T11:04:21.999Z</time>
      </trkpt>
      <trkpt lat="47.50061" lon="6.72611">
        <ele>347</ele>
        <time>2015-12-20T11:04:23.000Z</time>
      </trkpt>
      <trkpt lat="47.50058" lon="6.72617">
        <ele>346</ele>
        <time>2015-12-20T11:04:24.000Z</time>
      </trkpt>
      <trkpt lat="47.50054" lon="6.72622">
        <ele>346</ele>
        <time>2015-12-20T11:04:25.000Z</time>
      </trkpt>
      <trkpt lat="47.5005" lon="6.72626">
        <ele>346</ele>
        <time>2015-12-20T11:04:26.000Z</time>
      </trkpt>
      <trkpt lat="47.50046" lon="6.72632">
        <ele>346</ele>
        <time>2015-12-20T11:04:27.000Z</time>
      </trkpt>
      <trkpt lat="47.50042" lon="6.72636">
        <ele>346</ele>
        <time>2015-12-20T11:04:28.000Z</time>
      </trkpt>
      <trkpt lat="47.50037" lon="6.72641">
        <ele>346</ele>
        <time>2015-12-20T11:04:29.000Z</time>
      </trkpt>
      <trkpt lat="47.50032" lon="6.72646">
        <ele>346</ele>
        <time>2015-12-20T11:04:30.000Z</time>
      </trkpt>
      <trkpt lat="47.50027" lon="6.72651">
        <ele>346</ele>
        <time>2015-12-20T11:04:31.000Z</time>
      </trkpt>
      <trkpt lat="47.50022" lon="6.72657">
        <ele>346</ele>
        <time>2015-12-20T11:04:32.000Z</time>
      </trkpt>
      <trkpt lat="47.50015" lon="6.72664">
        <ele>346</ele>
        <time>2015-12-20T11:04:33.000Z</time>
      </trkpt>
      <trkpt lat="47.5001" lon="6.72671">
        <ele>345</ele>
        <time>2015-12-20T11:04:34.000Z</time>
      </trkpt>
      <trkpt lat="47.50004" lon="6.72677">
        <ele>344</ele>
        <time>2015-12-20T11:04:35.000Z</time>
      </trkpt>
      <trkpt lat="47.49997" lon="6.72684">
        <ele>344</ele>
        <time>2015-12-20T11:04:36.000Z</time>
      </trkpt>
      <trkpt lat="47.4999" lon="6.72692">
        <ele>344</ele>
        <time>2015-12-20T11:04:37.000Z</time>
      </trkpt>
      <trkpt lat="47.49983" lon="6.727">
        <ele>343</ele>
        <time>2015-12-20T11:04:38.000Z</time>
      </trkpt>
      <trkpt lat="47.49977" lon="6.72708">
        <ele>343</ele>
        <time>2015-12-20T11:04:39.000Z</time>
      </trkpt>
      <trkpt lat="47.49971" lon="6.72716">
        <ele>343</ele>
        <time>2015-12-20T11:04:40.000Z</time>
      </trkpt>
      <trkpt lat="47.49965" lon="6.72725">
        <ele>343</ele>
        <time>2015-12-20T11:04:41.000Z</time>
      </trkpt>
      <trkpt lat="47.49958" lon="6.72731">
        <ele>343</ele>
        <time>2015-12-20T11:04:42.000Z</time>
      </trkpt>
      <trkpt lat="47.49953" lon="6.72734">
        <ele>343</ele>
        <time>2015-12-20T11:04:43.000Z</time>
      </trkpt>
      <trkpt lat="47.49948" lon="6.72738">
        <ele>343</ele>
        <time>2015-12-20T11:04:44.000Z</time>
      </trkpt>
      <trkpt lat="47.49944" lon="6.72744">
        <ele>343</ele>
        <time>2015-12-20T11:04:45.000Z</time>
      </trkpt>
      <trkpt lat="47.49942" lon="6.72748">
        <ele>343</ele>
        <time>2015-12-20T11:04:46.000Z</time>
      </trkpt>
      <trkpt lat="47.49939" lon="6.72753">
        <ele>342</ele>
        <time>2015-12-20T11:04:47.000Z</time>
      </trkpt>
      <trkpt lat="47.49937" lon="6.72759">
        <ele>342</ele>
        <time>2015-12-20T11:04:48.000Z</time>
      </trkpt>
      <trkpt lat="47.49935" lon="6.72765">
        <ele>342</ele>
        <time>2015-12-20T11:04:49.000Z</time>
      </trkpt>
      <trkpt lat="47.49934" lon="6.72773">
        <ele>342</ele>
        <time>2015-12-20T11:04:50.000Z</time>
      </trkpt>
      <trkpt lat="47.49935" lon="6.72788">
        <ele>342</ele>
        <time>2015-12-20T11:04:52.000Z</time>
      </trkpt>
      <trkpt lat="47.49935" lon="6.72795">
        <ele>342</ele>
        <time>2015-12-20T11:04:53.000Z</time>
      </trkpt>
      <trkpt lat="47.49936" lon="6.72802">
        <ele>342</ele>
        <time>2015-12-20T11:04:54.001Z</time>
      </trkpt>
      <trkpt lat="47.49937" lon="6.7281">
        <ele>342</ele>
        <time>2015-12-20T11:04:55.000Z</time>
      </trkpt>
      <trkpt lat="47.49938" lon="6.72818">
        <ele>342</ele>
        <time>2015-12-20T11:04:56.000Z</time>
      </trkpt>
      <trkpt lat="47.49939" lon="6.72825">
        <ele>342</ele>
        <time>2015-12-20T11:04:57.000Z</time>
      </trkpt>
      <trkpt lat="47.49939" lon="6.72835">
        <ele>342</ele>
        <time>2015-12-20T11:04:58.000Z</time>
      </trkpt>
      <trkpt lat="47.49941" lon="6.72843">
        <ele>341</ele>
        <time>2015-12-20T11:04:59.000Z</time>
      </trkpt>
      <trkpt lat="47.49942" lon="6.72851">
        <ele>341</ele>
        <time>2015-12-20T11:04:59.999Z</time>
      </trkpt>
      <trkpt lat="47.49942" lon="6.72858">
        <ele>341</ele>
        <time>2015-12-20T11:05:01.000Z</time>
      </trkpt>
      <trkpt lat="47.49943" lon="6.72866">
        <ele>341</ele>
        <time>2015-12-20T11:05:02.000Z</time>
      </trkpt>
      <trkpt lat="47.49945" lon="6.72871">
        <ele>341</ele>
        <time>2015-12-20T11:05:03.000Z</time>
      </trkpt>
      <trkpt lat="47.49945" lon="6.72876">
        <ele>341</ele>
        <time>2015-12-20T11:05:04.000Z</time>
      </trkpt>
      <trkpt lat="47.49945" lon="6.72881">
        <ele>341</ele>
        <time>2015-12-20T11:05:05.000Z</time>
      </trkpt>
      <trkpt lat="47.49945" lon="6.72884">
        <ele>341</ele>
        <time>2015-12-20T11:05:06.000Z</time>
      </trkpt>
      <trkpt lat="47.49945" lon="6.72889">
        <ele>341</ele>
        <time>2015-12-20T11:05:09.000Z</time>
      </trkpt>
      <trkpt lat="47.49944" lon="6.7289">
        <ele>341</ele>
        <time>2015-12-20T11:05:10.000Z</time>
      </trkpt>
      <trkpt lat="47.49947" lon="6.72892">
        <ele>341</ele>
        <time>2015-12-20T11:06:46.000Z</time>
      </trkpt>
      <trkpt lat="47.49949" lon="6.72893">
        <ele>340</ele>
        <time>2015-12-20T11:06:47.000Z</time>
      </trkpt>
      <trkpt lat="47.49951" lon="6.72895">
        <ele>340</ele>
        <time>2015-12-20T11:06:48.000Z</time>
      </trkpt>
      <trkpt lat="47.49954" lon="6.72898">
        <ele>340</ele>
        <time>2015-12-20T11:06:49.000Z</time>
      </trkpt>
      <trkpt lat="47.49956" lon="6.72902">
        <ele>340</ele>
        <time>2015-12-20T11:06:50.000Z</time>
      </trkpt>
      <trkpt lat="47.49959" lon="6.72906">
        <ele>340</ele>
        <time>2015-12-20T11:06:51.000Z</time>
      </trkpt>
      <trkpt lat="47.49961" lon="6.72911">
        <ele>340</ele>
        <time>2015-12-20T11:06:52.000Z</time>
      </trkpt>
      <trkpt lat="47.49964" lon="6.72916">
        <ele>340</ele>
        <time>2015-12-20T11:06:53.000Z</time>
      </trkpt>
      <trkpt lat="47.49967" lon="6.72921">
        <ele>339</ele>
        <time>2015-12-20T11:06:54.000Z</time>
      </trkpt>
      <trkpt lat="47.4997" lon="6.72925">
        <ele>339</ele>
        <time>2015-12-20T11:06:54.998Z</time>
      </trkpt>
      <trkpt lat="47.49974" lon="6.72932">
        <ele>339</ele>
        <time>2015-12-20T11:06:56.000Z</time>
      </trkpt>
      <trkpt lat="47.49978" lon="6.72937">
        <ele>339</ele>
        <time>2015-12-20T11:06:57.000Z</time>
      </trkpt>
      <trkpt lat="47.49981" lon="6.72942">
        <ele>339</ele>
        <time>2015-12-20T11:06:58.000Z</time>
      </trkpt>
      <trkpt lat="47.49983" lon="6.72947">
        <ele>338</ele>
        <time>2015-12-20T11:06:58.999Z</time>
      </trkpt>
      <trkpt lat="47.49985" lon="6.72953">
        <ele>338</ele>
        <time>2015-12-20T11:07:00.000Z</time>
      </trkpt>
      <trkpt lat="47.49984" lon="6.7296">
        <ele>338</ele>
        <time>2015-12-20T11:07:01.000Z</time>
      </trkpt>
      <trkpt lat="47.49985" lon="6.72967">
        <ele>338</ele>
        <time>2015-12-20T11:07:02.000Z</time>
      </trkpt>
      <trkpt lat="47.49985" lon="6.72974">
        <ele>338</ele>
        <time>2015-12-20T11:07:02.999Z</time>
      </trkpt>
      <trkpt lat="47.49987" lon="6.7298">
        <ele>338</ele>
        <time>2015-12-20T11:07:04.000Z</time>
      </trkpt>
      <trkpt lat="47.49989" lon="6.72985">
        <ele>338</ele>
        <time>2015-12-20T11:07:05.000Z</time>
      </trkpt>
      <trkpt lat="47.49992" lon="6.72992">
        <ele>338</ele>
        <time>2015-12-20T11:07:06.000Z</time>
      </trkpt>
      <trkpt lat="47.49994" lon="6.72998">
        <ele>337</ele>
        <time>2015-12-20T11:07:06.999Z</time>
      </trkpt>
      <trkpt lat="47.49996" lon="6.73005">
        <ele>337</ele>
        <time>2015-12-20T11:07:08.000Z</time>
      </trkpt>
      <trkpt lat="47.5" lon="6.73012">
        <ele>337</ele>
        <time>2015-12-20T11:07:09.000Z</time>
      </trkpt>
      <trkpt lat="47.50003" lon="6.73018">
        <ele>337</ele>
        <time>2015-12-20T11:07:10.000Z</time>
      </trkpt>
      <trkpt lat="47.50006" lon="6.73022">
        <ele>337</ele>
        <time>2015-12-20T11:07:11.000Z</time>
      </trkpt>
      <trkpt lat="47.5001" lon="6.73026">
        <ele>337</ele>
        <time>2015-12-20T11:07:12.000Z</time>
      </trkpt>
      <trkpt lat="47.50012" lon="6.73031">
        <ele>337</ele>
        <time>2015-12-20T11:07:13.000Z</time>
      </trkpt>
      <trkpt lat="47.50016" lon="6.73036">
        <ele>337</ele>
        <time>2015-12-20T11:07:14.000Z</time>
      </trkpt>
      <trkpt lat="47.5002" lon="6.73041">
        <ele>337</ele>
        <time>2015-12-20T11:07:15.000Z</time>
      </trkpt>
      <trkpt lat="47.50024" lon="6.73046">
        <ele>337</ele>
        <time>2015-12-20T11:07:16.000Z</time>
      </trkpt>
      <trkpt lat="47.50029" lon="6.73049">
        <ele>337</ele>
        <time>2015-12-20T11:07:17.000Z</time>
      </trkpt>
      <trkpt lat="47.50034" lon="6.73053">
        <ele>337</ele>
        <time>2015-12-20T11:07:18.000Z</time>
      </trkpt>
      <trkpt lat="47.50039" lon="6.73058">
        <ele>337</ele>
        <time>2015-12-20T11:07:19.000Z</time>
      </trkpt>
      <trkpt lat="47.50043" lon="6.73062">
        <ele>337</ele>
        <time>2015-12-20T11:07:20.000Z</time>
      </trkpt>
      <trkpt lat="47.50047" lon="6.73066">
        <ele>337</ele>
        <time>2015-12-20T11:07:21.000Z</time>
      </trkpt>
      <trkpt lat="47.50051" lon="6.7307">
        <ele>337</ele>
        <time>2015-12-20T11:07:22.000Z</time>
      </trkpt>
      <trkpt lat="47.50055" lon="6.73074">
        <ele>337</ele>
        <time>2015-12-20T11:07:23.000Z</time>
      </trkpt>
      <trkpt lat="47.50059" lon="6.73077">
        <ele>337</ele>
        <time>2015-12-20T11:07:24.000Z</time>
      </trkpt>
      <trkpt lat="47.50064" lon="6.73081">
        <ele>337</ele>
        <time>2015-12-20T11:07:25.000Z</time>
      </trkpt>
      <trkpt lat="47.5007" lon="6.73086">
        <ele>338</ele>
        <time>2015-12-20T11:07:26.000Z</time>
      </trkpt>
      <trkpt lat="47.50074" lon="6.7309">
        <ele>338</ele>
        <time>2015-12-20T11:07:27.000Z</time>
      </trkpt>
      <trkpt lat="47.50078" lon="6.73093">
        <ele>338</ele>
        <time>2015-12-20T11:07:28.000Z</time>
      </trkpt>
      <trkpt lat="47.50083" lon="6.73096">
        <ele>338</ele>
        <time>2015-12-20T11:07:29.000Z</time>
      </trkpt>
      <trkpt lat="47.50087" lon="6.73101">
        <ele>339</ele>
        <time>2015-12-20T11:07:30.000Z</time>
      </trkpt>
      <trkpt lat="47.50091" lon="6.73104">
        <ele>339</ele>
        <time>2015-12-20T11:07:31.000Z</time>
      </trkpt>
      <trkpt lat="47.50095" lon="6.73108">
        <ele>339</ele>
        <time>2015-12-20T11:07:32.000Z</time>
      </trkpt>
      <trkpt lat="47.50098" lon="6.73111">
        <ele>339</ele>
        <time>2015-12-20T11:07:33.000Z</time>
      </trkpt>
      <trkpt lat="47.50102" lon="6.73115">
        <ele>339</ele>
        <time>2015-12-20T11:07:33.999Z</time>
      </trkpt>
      <trkpt lat="47.50105" lon="6.73118">
        <ele>339</ele>
        <time>2015-12-20T11:07:35.000Z</time>
      </trkpt>
      <trkpt lat="47.50112" lon="6.73118">
        <ele>339</ele>
        <time>2015-12-20T11:07:36.000Z</time>
      </trkpt>
      <trkpt lat="47.50117" lon="6.73119">
        <ele>339</ele>
        <time>2015-12-20T11:07:37.000Z</time>
      </trkpt>
      <trkpt lat="47.5012" lon="6.7312">
        <ele>339</ele>
        <time>2015-12-20T11:07:38.000Z</time>
      </trkpt>
      <trkpt lat="47.50124" lon="6.73121">
        <ele>339</ele>
        <time>2015-12-20T11:07:39.000Z</time>
      </trkpt>
      <trkpt lat="47.50127" lon="6.73121">
        <ele>340</ele>
        <time>2015-12-20T11:07:40.000Z</time>
      </trkpt>
      <trkpt lat="47.50131" lon="6.73122">
        <ele>340</ele>
        <time>2015-12-20T11:07:41.000Z</time>
      </trkpt>
      <trkpt lat="47.50135" lon="6.73123">
        <ele>340</ele>
        <time>2015-12-20T11:07:42.000Z</time>
      </trkpt>
      <trkpt lat="47.50139" lon="6.73123">
        <ele>340</ele>
        <time>2015-12-20T11:07:43.000Z</time>
      </trkpt>
      <trkpt lat="47.50142" lon="6.73122">
        <ele>340</ele>
        <time>2015-12-20T11:07:44.000Z</time>
      </trkpt>
      <trkpt lat="47.50146" lon="6.73122">
        <ele>340</ele>
        <time>2015-12-20T11:07:44.999Z</time>
      </trkpt>
      <trkpt lat="47.50149" lon="6.73121">
        <ele>340</ele>
        <time>2015-12-20T11:07:46.000Z</time>
      </trkpt>
      <trkpt lat="47.50152" lon="6.7312">
        <ele>340</ele>
        <time>2015-12-20T11:07:47.000Z</time>
      </trkpt>
      <trkpt lat="47.50156" lon="6.7312">
        <ele>340</ele>
        <time>2015-12-20T11:07:48.000Z</time>
      </trkpt>
      <trkpt lat="47.50159" lon="6.7312">
        <ele>340</ele>
        <time>2015-12-20T11:07:49.000Z</time>
      </trkpt>
      <trkpt lat="47.50163" lon="6.7312">
        <ele>340</ele>
        <time>2015-12-20T11:07:50.000Z</time>
      </trkpt>
      <trkpt lat="47.50166" lon="6.73121">
        <ele>340</ele>
        <time>2015-12-20T11:07:51.000Z</time>
      </trkpt>
      <trkpt lat="47.50169" lon="6.73123">
        <ele>341</ele>
        <time>2015-12-20T11:07:52.000Z</time>
      </trkpt>
      <trkpt lat="47.50172" lon="6.73125">
        <ele>341</ele>
        <time>2015-12-20T11:07:53.000Z</time>
      </trkpt>
      <trkpt lat="47.50174" lon="6.73127">
        <ele>341</ele>
        <time>2015-12-20T11:07:54.000Z</time>
      </trkpt>
      <trkpt lat="47.50177" lon="6.7313">
        <ele>341</ele>
        <time>2015-12-20T11:07:55.000Z</time>
      </trkpt>
      <trkpt lat="47.5018" lon="6.73135">
        <ele>341</ele>
        <time>2015-12-20T11:07:57.000Z</time>
      </trkpt>
      <trkpt lat="47.50181" lon="6.73136">
        <ele>341</ele>
        <time>2015-12-20T11:07:58.000Z</time>
      </trkpt>
      <trkpt lat="47.5018" lon="6.7314">
        <ele>341</ele>
        <time>2015-12-20T11:08:01.000Z</time>
      </trkpt>
      <trkpt lat="47.50179" lon="6.73142">
        <ele>341</ele>
        <time>2015-12-20T11:08:02.000Z</time>
      </trkpt>
      <trkpt lat="47.50177" lon="6.73146">
        <ele>341</ele>
        <time>2015-12-20T11:08:03.000Z</time>
      </trkpt>
      <trkpt lat="47.50175" lon="6.73151">
        <ele>342</ele>
        <time>2015-12-20T11:08:04.000Z</time>
      </trkpt>
      <trkpt lat="47.50173" lon="6.73156">
        <ele>342</ele>
        <time>2015-12-20T11:08:05.000Z</time>
      </trkpt>
      <trkpt lat="47.50171" lon="6.73161">
        <ele>342</ele>
        <time>2015-12-20T11:08:06.000Z</time>
      </trkpt>
      <trkpt lat="47.50169" lon="6.73167">
        <ele>342</ele>
        <time>2015-12-20T11:08:07.000Z</time>
      </trkpt>
      <trkpt lat="47.50168" lon="6.73173">
        <ele>342</ele>
        <time>2015-12-20T11:08:08.000Z</time>
      </trkpt>
      <trkpt lat="47.50167" lon="6.73178">
        <ele>343</ele>
        <time>2015-12-20T11:08:09.000Z</time>
      </trkpt>
      <trkpt lat="47.50166" lon="6.73184">
        <ele>341</ele>
        <time>2015-12-20T11:08:09.999Z</time>
      </trkpt>
      <trkpt lat="47.50166" lon="6.73189">
        <ele>341</ele>
        <time>2015-12-20T11:08:11.000Z</time>
      </trkpt>
      <trkpt lat="47.50166" lon="6.73194">
        <ele>341</ele>
        <time>2015-12-20T11:08:12.000Z</time>
      </trkpt>
      <trkpt lat="47.50166" lon="6.73199">
        <ele>341</ele>
        <time>2015-12-20T11:08:13.000Z</time>
      </trkpt>
      <trkpt lat="47.50166" lon="6.73204">
        <ele>341</ele>
        <time>2015-12-20T11:08:14.000Z</time>
      </trkpt>
      <trkpt lat="47.50165" lon="6.73209">
        <ele>341</ele>
        <time>2015-12-20T11:08:15.000Z</time>
      </trkpt>
      <trkpt lat="47.50164" lon="6.73214">
        <ele>341</ele>
        <time>2015-12-20T11:08:16.000Z</time>
      </trkpt>
      <trkpt lat="47.50163" lon="6.73218">
        <ele>341</ele>
        <time>2015-12-20T11:08:17.000Z</time>
      </trkpt>
      <trkpt lat="47.50161" lon="6.73223">
        <ele>341</ele>
        <time>2015-12-20T11:08:18.000Z</time>
      </trkpt>
      <trkpt lat="47.50159" lon="6.73227">
        <ele>342</ele>
        <time>2015-12-20T11:08:19.000Z</time>
      </trkpt>
      <trkpt lat="47.50157" lon="6.73233">
        <ele>342</ele>
        <time>2015-12-20T11:08:20.000Z</time>
      </trkpt>
      <trkpt lat="47.50155" lon="6.73238">
        <ele>342</ele>
        <time>2015-12-20T11:08:21.000Z</time>
      </trkpt>
      <trkpt lat="47.50153" lon="6.73243">
        <ele>342</ele>
        <time>2015-12-20T11:08:22.000Z</time>
      </trkpt>
      <trkpt lat="47.50151" lon="6.73249">
        <ele>342</ele>
        <time>2015-12-20T11:08:23.000Z</time>
      </trkpt>
      <trkpt lat="47.50149" lon="6.73255">
        <ele>343</ele>
        <time>2015-12-20T11:08:24.000Z</time>
      </trkpt>
      <trkpt lat="47.50147" lon="6.7326">
        <ele>343</ele>
        <time>2015-12-20T11:08:25.000Z</time>
      </trkpt>
      <trkpt lat="47.50146" lon="6.73266">
        <ele>343</ele>
        <time>2015-12-20T11:08:26.000Z</time>
      </trkpt>
      <trkpt lat="47.50143" lon="6.73272">
        <ele>343</ele>
        <time>2015-12-20T11:08:27.000Z</time>
      </trkpt>
      <trkpt lat="47.50141" lon="6.73278">
        <ele>343</ele>
        <time>2015-12-20T11:08:28.000Z</time>
      </trkpt>
      <trkpt lat="47.5014" lon="6.73283">
        <ele>343</ele>
        <time>2015-12-20T11:08:29.000Z</time>
      </trkpt>
      <trkpt lat="47.50138" lon="6.73288">
        <ele>343</ele>
        <time>2015-12-20T11:08:30.000Z</time>
      </trkpt>
      <trkpt lat="47.50136" lon="6.73293">
        <ele>343</ele>
        <time>2015-12-20T11:08:31.000Z</time>
      </trkpt>
      <trkpt lat="47.50133" lon="6.733">
        <ele>343</ele>
        <time>2015-12-20T11:08:32.000Z</time>
      </trkpt>
      <trkpt lat="47.50131" lon="6.73307">
        <ele>344</ele>
        <time>2015-12-20T11:08:33.000Z</time>
      </trkpt>
      <trkpt lat="47.50128" lon="6.73314">
        <ele>344</ele>
        <time>2015-12-20T11:08:34.000Z</time>
      </trkpt>
      <trkpt lat="47.50126" lon="6.73321">
        <ele>344</ele>
        <time>2015-12-20T11:08:35.000Z</time>
      </trkpt>
      <trkpt lat="47.50124" lon="6.73328">
        <ele>344</ele>
        <time>2015-12-20T11:08:36.000Z</time>
      </trkpt>
      <trkpt lat="47.50121" lon="6.73335">
        <ele>346</ele>
        <time>2015-12-20T11:08:37.000Z</time>
      </trkpt>
      <trkpt lat="47.50119" lon="6.73341">
        <ele>346</ele>
        <time>2015-12-20T11:08:38.000Z</time>
      </trkpt>
      <trkpt lat="47.50117" lon="6.73348">
        <ele>346</ele>
        <time>2015-12-20T11:08:39.000Z</time>
      </trkpt>
      <trkpt lat="47.50114" lon="6.73355">
        <ele>346</ele>
        <time>2015-12-20T11:08:40.000Z</time>
      </trkpt>
      <trkpt lat="47.50112" lon="6.73361">
        <ele>346</ele>
        <time>2015-12-20T11:08:41.000Z</time>
      </trkpt>
      <trkpt lat="47.50109" lon="6.73368">
        <ele>346</ele>
        <time>2015-12-20T11:08:41.999Z</time>
      </trkpt>
      <trkpt lat="47.50108" lon="6.73374">
        <ele>346</ele>
        <time>2015-12-20T11:08:43.001Z</time>
      </trkpt>
      <trkpt lat="47.50106" lon="6.7338">
        <ele>347</ele>
        <time>2015-12-20T11:08:44.000Z</time>
      </trkpt>
      <trkpt lat="47.50104" lon="6.73387">
        <ele>347</ele>
        <time>2015-12-20T11:08:45.000Z</time>
      </trkpt>
      <trkpt lat="47.50102" lon="6.73393">
        <ele>347</ele>
        <time>2015-12-20T11:08:46.000Z</time>
      </trkpt>
      <trkpt lat="47.501" lon="6.73399">
        <ele>347</ele>
        <time>2015-12-20T11:08:47.000Z</time>
      </trkpt>
      <trkpt lat="47.50098" lon="6.73405">
        <ele>347</ele>
        <time>2015-12-20T11:08:48.000Z</time>
      </trkpt>
      <trkpt lat="47.50097" lon="6.73411">
        <ele>347</ele>
        <time>2015-12-20T11:08:49.000Z</time>
      </trkpt>
      <trkpt lat="47.50095" lon="6.73416">
        <ele>346</ele>
        <time>2015-12-20T11:08:50.000Z</time>
      </trkpt>
      <trkpt lat="47.50093" lon="6.73422">
        <ele>348</ele>
        <time>2015-12-20T11:08:51.000Z</time>
      </trkpt>
      <trkpt lat="47.5009" lon="6.73427">
        <ele>348</ele>
        <time>2015-12-20T11:08:52.000Z</time>
      </trkpt>
      <trkpt lat="47.50088" lon="6.73431">
        <ele>348</ele>
        <time>2015-12-20T11:08:53.000Z</time>
      </trkpt>
      <trkpt lat="47.50088" lon="6.73433">
        <ele>348</ele>
        <time>2015-12-20T11:08:54.000Z</time>
      </trkpt>
      <trkpt lat="47.50087" lon="6.73437">
        <ele>349</ele>
        <time>2015-12-20T11:08:55.000Z</time>
      </trkpt>
      <trkpt lat="47.50086" lon="6.7344">
        <ele>349</ele>
        <time>2015-12-20T11:08:56.000Z</time>
      </trkpt>
      <trkpt lat="47.50088" lon="6.73445">
        <ele>349</ele>
        <time>2015-12-20T11:13:00.000Z</time>
      </trkpt>
      <trkpt lat="47.50087" lon="6.73446">
        <ele>349</ele>
        <time>2015-12-20T11:13:01.000Z</time>
      </trkpt>
      <trkpt lat="47.50085" lon="6.73451">
        <ele>349</ele>
        <time>2015-12-20T11:13:03.000Z</time>
      </trkpt>
      <trkpt lat="47.50083" lon="6.73454">
        <ele>344</ele>
        <time>2015-12-20T11:13:04.000Z</time>
      </trkpt>
      <trkpt lat="47.50081" lon="6.73457">
        <ele>344</ele>
        <time>2015-12-20T11:13:05.000Z</time>
      </trkpt>
      <trkpt lat="47.50077" lon="6.73466">
        <ele>345</ele>
        <time>2015-12-20T11:13:06.000Z</time>
      </trkpt>
      <trkpt lat="47.50075" lon="6.73474">
        <ele>345</ele>
        <time>2015-12-20T11:13:07.000Z</time>
      </trkpt>
      <trkpt lat="47.50073" lon="6.73482">
        <ele>345</ele>
        <time>2015-12-20T11:13:08.001Z</time>
      </trkpt>
      <trkpt lat="47.50072" lon="6.73493">
        <ele>345</ele>
        <time>2015-12-20T11:13:09.000Z</time>
      </trkpt>
      <trkpt lat="47.50071" lon="6.73502">
        <ele>346</ele>
        <time>2015-12-20T11:13:10.000Z</time>
      </trkpt>
      <trkpt lat="47.50068" lon="6.73513">
        <ele>346</ele>
        <time>2015-12-20T11:13:11.000Z</time>
      </trkpt>
      <trkpt lat="47.50067" lon="6.73524">
        <ele>346</ele>
        <time>2015-12-20T11:13:12.000Z</time>
      </trkpt>
      <trkpt lat="47.50065" lon="6.73534">
        <ele>346</ele>
        <time>2015-12-20T11:13:13.000Z</time>
      </trkpt>
      <trkpt lat="47.50063" lon="6.73545">
        <ele>346</ele>
        <time>2015-12-20T11:13:14.000Z</time>
      </trkpt>
      <trkpt lat="47.50063" lon="6.73554">
        <ele>346</ele>
        <time>2015-12-20T11:13:15.000Z</time>
      </trkpt>
      <trkpt lat="47.50063" lon="6.73563">
        <ele>347</ele>
        <time>2015-12-20T11:13:16.000Z</time>
      </trkpt>
      <trkpt lat="47.50062" lon="6.73573">
        <ele>347</ele>
        <time>2015-12-20T11:13:17.000Z</time>
      </trkpt>
      <trkpt lat="47.50062" lon="6.73584">
        <ele>348</ele>
        <time>2015-12-20T11:13:18.000Z</time>
      </trkpt>
      <trkpt lat="47.50062" lon="6.73593">
        <ele>348</ele>
        <time>2015-12-20T11:13:19.000Z</time>
      </trkpt>
      <trkpt lat="47.50062" lon="6.73602">
        <ele>348</ele>
        <time>2015-12-20T11:13:20.000Z</time>
      </trkpt>
      <trkpt lat="47.50061" lon="6.7361">
        <ele>348</ele>
        <time>2015-12-20T11:13:21.000Z</time>
      </trkpt>
      <trkpt lat="47.50061" lon="6.73618">
        <ele>348</ele>
        <time>2015-12-20T11:13:22.000Z</time>
      </trkpt>
      <trkpt lat="47.50062" lon="6.73626">
        <ele>348</ele>
        <time>2015-12-20T11:13:23.001Z</time>
      </trkpt>
      <trkpt lat="47.50062" lon="6.73633">
        <ele>349</ele>
        <time>2015-12-20T11:13:24.000Z</time>
      </trkpt>
      <trkpt lat="47.50061" lon="6.7364">
        <ele>349</ele>
        <time>2015-12-20T11:13:25.000Z</time>
      </trkpt>
      <trkpt lat="47.50061" lon="6.73647">
        <ele>349</ele>
        <time>2015-12-20T11:13:26.000Z</time>
      </trkpt>
      <trkpt lat="47.50061" lon="6.73656">
        <ele>350</ele>
        <time>2015-12-20T11:13:27.000Z</time>
      </trkpt>
      <trkpt lat="47.50061" lon="6.73663">
        <ele>350</ele>
        <time>2015-12-20T11:13:28.000Z</time>
      </trkpt>
      <trkpt lat="47.5006" lon="6.73671">
        <ele>351</ele>
        <time>2015-12-20T11:13:29.000Z</time>
      </trkpt>
      <trkpt lat="47.50059" lon="6.73677">
        <ele>351</ele>
        <time>2015-12-20T11:13:30.000Z</time>
      </trkpt>
      <trkpt lat="47.50058" lon="6.73684">
        <ele>351</ele>
        <time>2015-12-20T11:13:31.000Z</time>
      </trkpt>
      <trkpt lat="47.50058" lon="6.73691">
        <ele>351</ele>
        <time>2015-12-20T11:13:32.000Z</time>
      </trkpt>
      <trkpt lat="47.50058" lon="6.73698">
        <ele>351</ele>
        <time>2015-12-20T11:13:33.000Z</time>
      </trkpt>
      <trkpt lat="47.50058" lon="6.73705">
        <ele>351</ele>
        <time>2015-12-20T11:13:34.002Z</time>
      </trkpt>
      <trkpt lat="47.50058" lon="6.73711">
        <ele>351</ele>
        <time>2015-12-20T11:13:35.000Z</time>
      </trkpt>
      <trkpt lat="47.50058" lon="6.73719">
        <ele>351</ele>
        <time>2015-12-20T11:13:36.000Z</time>
      </trkpt>
      <trkpt lat="47.50058" lon="6.73726">
        <ele>351</ele>
        <time>2015-12-20T11:13:37.001Z</time>
      </trkpt>
      <trkpt lat="47.50058" lon="6.73733">
        <ele>352</ele>
        <time>2015-12-20T11:13:38.000Z</time>
      </trkpt>
      <trkpt lat="47.5006" lon="6.73738">
        <ele>352</ele>
        <time>2015-12-20T11:13:39.000Z</time>
      </trkpt>
      <trkpt lat="47.5006" lon="6.73744">
        <ele>352</ele>
        <time>2015-12-20T11:13:40.000Z</time>
      </trkpt>
      <trkpt lat="47.50061" lon="6.7375">
        <ele>354</ele>
        <time>2015-12-20T11:13:41.001Z</time>
      </trkpt>
      <trkpt lat="47.50062" lon="6.73758">
        <ele>354</ele>
        <time>2015-12-20T11:13:41.999Z</time>
      </trkpt>
      <trkpt lat="47.50063" lon="6.73764">
        <ele>354</ele>
        <time>2015-12-20T11:13:43.000Z</time>
      </trkpt>
      <trkpt lat="47.50064" lon="6.7377">
        <ele>353</ele>
        <time>2015-12-20T11:13:44.000Z</time>
      </trkpt>
      <trkpt lat="47.50065" lon="6.73775">
        <ele>353</ele>
        <time>2015-12-20T11:13:44.999Z</time>
      </trkpt>
      <trkpt lat="47.50067" lon="6.73783">
        <ele>353</ele>
        <time>2015-12-20T11:13:46.000Z</time>
      </trkpt>
      <trkpt lat="47.50068" lon="6.73788">
        <ele>353</ele>
        <time>2015-12-20T11:13:47.000Z</time>
      </trkpt>
      <trkpt lat="47.50069" lon="6.73796">
        <ele>353</ele>
        <time>2015-12-20T11:13:48.000Z</time>
      </trkpt>
      <trkpt lat="47.5007" lon="6.73802">
        <ele>353</ele>
        <time>2015-12-20T11:13:49.000Z</time>
      </trkpt>
      <trkpt lat="47.50071" lon="6.73811">
        <ele>354</ele>
        <time>2015-12-20T11:13:50.000Z</time>
      </trkpt>
      <trkpt lat="47.50072" lon="6.73817">
        <ele>354</ele>
        <time>2015-12-20T11:13:50.999Z</time>
      </trkpt>
      <trkpt lat="47.50073" lon="6.73824">
        <ele>355</ele>
        <time>2015-12-20T11:13:52.000Z</time>
      </trkpt>
      <trkpt lat="47.50075" lon="6.7383">
        <ele>356</ele>
        <time>2015-12-20T11:13:53.000Z</time>
      </trkpt>
      <trkpt lat="47.50075" lon="6.73837">
        <ele>356</ele>
        <time>2015-12-20T11:13:54.000Z</time>
      </trkpt>
      <trkpt lat="47.50075" lon="6.73843">
        <ele>356</ele>
        <time>2015-12-20T11:13:55.000Z</time>
      </trkpt>
      <trkpt lat="47.50074" lon="6.73848">
        <ele>355</ele>
        <time>2015-12-20T11:13:55.999Z</time>
      </trkpt>
      <trkpt lat="47.50078" lon="6.73853">
        <ele>355</ele>
        <time>2015-12-20T11:13:57.001Z</time>
      </trkpt>
      <trkpt lat="47.50076" lon="6.7386">
        <ele>354</ele>
        <time>2015-12-20T11:13:58.000Z</time>
      </trkpt>
      <trkpt lat="47.50077" lon="6.73865">
        <ele>354</ele>
        <time>2015-12-20T11:13:58.999Z</time>
      </trkpt>
      <trkpt lat="47.50078" lon="6.73873">
        <ele>354</ele>
        <time>2015-12-20T11:14:00.000Z</time>
      </trkpt>
      <trkpt lat="47.5008" lon="6.73879">
        <ele>354</ele>
        <time>2015-12-20T11:14:01.000Z</time>
      </trkpt>
      <trkpt lat="47.50081" lon="6.73885">
        <ele>354</ele>
        <time>2015-12-20T11:14:02.000Z</time>
      </trkpt>
      <trkpt lat="47.50082" lon="6.73891">
        <ele>354</ele>
        <time>2015-12-20T11:14:03.000Z</time>
      </trkpt>
      <trkpt lat="47.50083" lon="6.73897">
        <ele>354</ele>
        <time>2015-12-20T11:14:04.000Z</time>
      </trkpt>
      <trkpt lat="47.50085" lon="6.73903">
        <ele>360</ele>
        <time>2015-12-20T11:14:05.000Z</time>
      </trkpt>
      <trkpt lat="47.50086" lon="6.73908">
        <ele>359</ele>
        <time>2015-12-20T11:14:05.998Z</time>
      </trkpt>
      <trkpt lat="47.50087" lon="6.73914">
        <ele>357</ele>
        <time>2015-12-20T11:14:07.000Z</time>
      </trkpt>
      <trkpt lat="47.50088" lon="6.73923">
        <ele>358</ele>
        <time>2015-12-20T11:14:08.000Z</time>
      </trkpt>
      <trkpt lat="47.50088" lon="6.73929">
        <ele>360</ele>
        <time>2015-12-20T11:14:08.999Z</time>
      </trkpt>
      <trkpt lat="47.50089" lon="6.73935">
        <ele>361</ele>
        <time>2015-12-20T11:14:10.000Z</time>
      </trkpt>
      <trkpt lat="47.50091" lon="6.73941">
        <ele>361</ele>
        <time>2015-12-20T11:14:11.000Z</time>
      </trkpt>
      <trkpt lat="47.50093" lon="6.73946">
        <ele>362</ele>
        <time>2015-12-20T11:14:12.000Z</time>
      </trkpt>
      <trkpt lat="47.50095" lon="6.73951">
        <ele>362</ele>
        <time>2015-12-20T11:14:12.999Z</time>
      </trkpt>
      <trkpt lat="47.50096" lon="6.73955">
        <ele>362</ele>
        <time>2015-12-20T11:14:14.001Z</time>
      </trkpt>
      <trkpt lat="47.50097" lon="6.73958">
        <ele>362</ele>
        <time>2015-12-20T11:14:15.000Z</time>
      </trkpt>
      <trkpt lat="47.50097" lon="6.73965">
        <ele>362</ele>
        <time>2015-12-20T11:14:16.000Z</time>
      </trkpt>
      <trkpt lat="47.50098" lon="6.7397">
        <ele>362</ele>
        <time>2015-12-20T11:14:17.000Z</time>
      </trkpt>
      <trkpt lat="47.501" lon="6.73976">
        <ele>362</ele>
        <time>2015-12-20T11:14:18.000Z</time>
      </trkpt>
      <trkpt lat="47.50101" lon="6.73981">
        <ele>362</ele>
        <time>2015-12-20T11:14:19.000Z</time>
      </trkpt>
      <trkpt lat="47.50102" lon="6.73986">
        <ele>362</ele>
        <time>2015-12-20T11:14:19.999Z</time>
      </trkpt>
      <trkpt lat="47.50103" lon="6.73992">
        <ele>362</ele>
        <time>2015-12-20T11:14:21.000Z</time>
      </trkpt>
      <trkpt lat="47.50105" lon="6.73998">
        <ele>362</ele>
        <time>2015-12-20T11:14:22.000Z</time>
      </trkpt>
      <trkpt lat="47.50106" lon="6.74003">
        <ele>364</ele>
        <time>2015-12-20T11:14:23.000Z</time>
      </trkpt>
      <trkpt lat="47.50108" lon="6.74008">
        <ele>364</ele>
        <time>2015-12-20T11:14:24.001Z</time>
      </trkpt>
      <trkpt lat="47.5011" lon="6.74014">
        <ele>365</ele>
        <time>2015-12-20T11:14:25.000Z</time>
      </trkpt>
      <trkpt lat="47.50112" lon="6.74019">
        <ele>365</ele>
        <time>2015-12-20T11:14:26.000Z</time>
      </trkpt>
      <trkpt lat="47.50113" lon="6.74024">
        <ele>366</ele>
        <time>2015-12-20T11:14:27.000Z</time>
      </trkpt>
      <trkpt lat="47.50114" lon="6.74029">
        <ele>366</ele>
        <time>2015-12-20T11:14:28.000Z</time>
      </trkpt>
      <trkpt lat="47.50116" lon="6.74034">
        <ele>367</ele>
        <time>2015-12-20T11:14:29.000Z</time>
      </trkpt>
      <trkpt lat="47.50117" lon="6.74039">
        <ele>367</ele>
        <time>2015-12-20T11:14:29.999Z</time>
      </trkpt>
      <trkpt lat="47.50118" lon="6.74043">
        <ele>367</ele>
        <time>2015-12-20T11:14:31.000Z</time>
      </trkpt>
      <trkpt lat="47.50119" lon="6.74048">
        <ele>367</ele>
        <time>2015-12-20T11:14:32.000Z</time>
      </trkpt>
      <trkpt lat="47.5012" lon="6.74053">
        <ele>368</ele>
        <time>2015-12-20T11:14:33.000Z</time>
      </trkpt>
      <trkpt lat="47.50122" lon="6.74058">
        <ele>368</ele>
        <time>2015-12-20T11:14:34.000Z</time>
      </trkpt>
      <trkpt lat="47.50125" lon="6.74063">
        <ele>368</ele>
        <time>2015-12-20T11:14:35.000Z</time>
      </trkpt>
      <trkpt lat="47.50127" lon="6.74067">
        <ele>368</ele>
        <time>2015-12-20T11:14:36.000Z</time>
      </trkpt>
      <trkpt lat="47.50129" lon="6.74072">
        <ele>368</ele>
        <time>2015-12-20T11:14:37.000Z</time>
      </trkpt>
      <trkpt lat="47.5013" lon="6.74077">
        <ele>369</ele>
        <time>2015-12-20T11:14:38.000Z</time>
      </trkpt>
      <trkpt lat="47.50131" lon="6.74083">
        <ele>369</ele>
        <time>2015-12-20T11:14:39.000Z</time>
      </trkpt>
      <trkpt lat="47.50132" lon="6.74088">
        <ele>370</ele>
        <time>2015-12-20T11:14:40.000Z</time>
      </trkpt>
      <trkpt lat="47.50133" lon="6.74093">
        <ele>370</ele>
        <time>2015-12-20T11:14:41.000Z</time>
      </trkpt>
      <trkpt lat="47.50134" lon="6.74098">
        <ele>370</ele>
        <time>2015-12-20T11:14:42.000Z</time>
      </trkpt>
      <trkpt lat="47.50135" lon="6.74103">
        <ele>370</ele>
        <time>2015-12-20T11:14:43.000Z</time>
      </trkpt>
      <trkpt lat="47.50135" lon="6.74109">
        <ele>370</ele>
        <time>2015-12-20T11:14:44.000Z</time>
      </trkpt>
      <trkpt lat="47.50135" lon="6.74115">
        <ele>370</ele>
        <time>2015-12-20T11:14:45.000Z</time>
      </trkpt>
      <trkpt lat="47.50134" lon="6.7412">
        <ele>370</ele>
        <time>2015-12-20T11:14:46.000Z</time>
      </trkpt>
      <trkpt lat="47.50135" lon="6.74126">
        <ele>370</ele>
        <time>2015-12-20T11:14:47.000Z</time>
      </trkpt>
      <trkpt lat="47.50135" lon="6.7413">
        <ele>370</ele>
        <time>2015-12-20T11:14:48.000Z</time>
      </trkpt>
      <trkpt lat="47.50136" lon="6.74135">
        <ele>370</ele>
        <time>2015-12-20T11:14:49.000Z</time>
      </trkpt>
      <trkpt lat="47.50138" lon="6.74139">
        <ele>370</ele>
        <time>2015-12-20T11:14:50.000Z</time>
      </trkpt>
      <trkpt lat="47.5014" lon="6.74143">
        <ele>370</ele>
        <time>2015-12-20T11:14:51.000Z</time>
      </trkpt>
      <trkpt lat="47.50142" lon="6.74147">
        <ele>370</ele>
        <time>2015-12-20T11:14:52.000Z</time>
      </trkpt>
      <trkpt lat="47.50144" lon="6.74151">
        <ele>370</ele>
        <time>2015-12-20T11:14:53.000Z</time>
      </trkpt>
      <trkpt lat="47.50146" lon="6.74156">
        <ele>370</ele>
        <time>2015-12-20T11:14:54.000Z</time>
      </trkpt>
      <trkpt lat="47.50147" lon="6.7416">
        <ele>370</ele>
        <time>2015-12-20T11:14:55.000Z</time>
      </trkpt>
      <trkpt lat="47.50149" lon="6.74164">
        <ele>370</ele>
        <time>2015-12-20T11:14:56.000Z</time>
      </trkpt>
      <trkpt lat="47.5015" lon="6.74169">
        <ele>368</ele>
        <time>2015-12-20T11:14:57.000Z</time>
      </trkpt>
      <trkpt lat="47.50152" lon="6.74173">
        <ele>368</ele>
        <time>2015-12-20T11:14:58.000Z</time>
      </trkpt>
      <trkpt lat="47.50154" lon="6.74178">
        <ele>368</ele>
        <time>2015-12-20T11:14:59.000Z</time>
      </trkpt>
      <trkpt lat="47.50156" lon="6.74183">
        <ele>367</ele>
        <time>2015-12-20T11:15:00.000Z</time>
      </trkpt>
      <trkpt lat="47.50159" lon="6.74188">
        <ele>367</ele>
        <time>2015-12-20T11:15:01.000Z</time>
      </trkpt>
      <trkpt lat="47.50161" lon="6.74193">
        <ele>367</ele>
        <time>2015-12-20T11:15:02.000Z</time>
      </trkpt>
      <trkpt lat="47.50163" lon="6.74199">
        <ele>366</ele>
        <time>2015-12-20T11:15:03.001Z</time>
      </trkpt>
      <trkpt lat="47.50166" lon="6.74204">
        <ele>366</ele>
        <time>2015-12-20T11:15:04.000Z</time>
      </trkpt>
      <trkpt lat="47.50168" lon="6.7421">
        <ele>370</ele>
        <time>2015-12-20T11:15:05.000Z</time>
      </trkpt>
      <trkpt lat="47.50171" lon="6.74216">
        <ele>369</ele>
        <time>2015-12-20T11:15:06.000Z</time>
      </trkpt>
      <trkpt lat="47.50178" lon="6.74224">
        <ele>369</ele>
        <time>2015-12-20T11:15:07.000Z</time>
      </trkpt>
      <trkpt lat="47.50181" lon="6.7423">
        <ele>368</ele>
        <time>2015-12-20T11:15:08.001Z</time>
      </trkpt>
      <trkpt lat="47.50185" lon="6.74236">
        <ele>368</ele>
        <time>2015-12-20T11:15:09.000Z</time>
      </trkpt>
      <trkpt lat="47.50188" lon="6.74243">
        <ele>368</ele>
        <time>2015-12-20T11:15:10.000Z</time>
      </trkpt>
      <trkpt lat="47.50191" lon="6.7425">
        <ele>368</ele>
        <time>2015-12-20T11:15:11.000Z</time>
      </trkpt>
      <trkpt lat="47.50196" lon="6.74257">
        <ele>364</ele>
        <time>2015-12-20T11:15:12.000Z</time>
      </trkpt>
      <trkpt lat="47.502" lon="6.74265">
        <ele>364</ele>
        <time>2015-12-20T11:15:13.000Z</time>
      </trkpt>
      <trkpt lat="47.50204" lon="6.74272">
        <ele>365</ele>
        <time>2015-12-20T11:15:14.000Z</time>
      </trkpt>
      <trkpt lat="47.50209" lon="6.74279">
        <ele>364</ele>
        <time>2015-12-20T11:15:15.000Z</time>
      </trkpt>
      <trkpt lat="47.50215" lon="6.74287">
        <ele>364</ele>
        <time>2015-12-20T11:15:16.000Z</time>
      </trkpt>
      <trkpt lat="47.50221" lon="6.74295">
        <ele>364</ele>
        <time>2015-12-20T11:15:17.000Z</time>
      </trkpt>
      <trkpt lat="47.50226" lon="6.74303">
        <ele>364</ele>
        <time>2015-12-20T11:15:18.000Z</time>
      </trkpt>
      <trkpt lat="47.50232" lon="6.7431">
        <ele>363</ele>
        <time>2015-12-20T11:15:19.000Z</time>
      </trkpt>
      <trkpt lat="47.50238" lon="6.74318">
        <ele>363</ele>
        <time>2015-12-20T11:15:20.000Z</time>
      </trkpt>
      <trkpt lat="47.50244" lon="6.74325">
        <ele>362</ele>
        <time>2015-12-20T11:15:21.000Z</time>
      </trkpt>
      <trkpt lat="47.50249" lon="6.74333">
        <ele>361</ele>
        <time>2015-12-20T11:15:22.000Z</time>
      </trkpt>
      <trkpt lat="47.50254" lon="6.74341">
        <ele>360</ele>
        <time>2015-12-20T11:15:23.000Z</time>
      </trkpt>
      <trkpt lat="47.50258" lon="6.74351">
        <ele>360</ele>
        <time>2015-12-20T11:15:24.000Z</time>
      </trkpt>
      <trkpt lat="47.50262" lon="6.74359">
        <ele>359</ele>
        <time>2015-12-20T11:15:25.000Z</time>
      </trkpt>
      <trkpt lat="47.50266" lon="6.74369">
        <ele>359</ele>
        <time>2015-12-20T11:15:26.000Z</time>
      </trkpt>
      <trkpt lat="47.5027" lon="6.74379">
        <ele>358</ele>
        <time>2015-12-20T11:15:27.000Z</time>
      </trkpt>
      <trkpt lat="47.50273" lon="6.74389">
        <ele>357</ele>
        <time>2015-12-20T11:15:28.000Z</time>
      </trkpt>
      <trkpt lat="47.50277" lon="6.74399">
        <ele>357</ele>
        <time>2015-12-20T11:15:29.000Z</time>
      </trkpt>
      <trkpt lat="47.5028" lon="6.7441">
        <ele>356</ele>
        <time>2015-12-20T11:15:30.000Z</time>
      </trkpt>
      <trkpt lat="47.50284" lon="6.7442">
        <ele>352</ele>
        <time>2015-12-20T11:15:31.000Z</time>
      </trkpt>
      <trkpt lat="47.50287" lon="6.74431">
        <ele>352</ele>
        <time>2015-12-20T11:15:32.000Z</time>
      </trkpt>
      <trkpt lat="47.50289" lon="6.74442">
        <ele>352</ele>
        <time>2015-12-20T11:15:33.000Z</time>
      </trkpt>
      <trkpt lat="47.50291" lon="6.74453">
        <ele>352</ele>
        <time>2015-12-20T11:15:34.000Z</time>
      </trkpt>
      <trkpt lat="47.50293" lon="6.74465">
        <ele>351</ele>
        <time>2015-12-20T11:15:35.000Z</time>
      </trkpt>
      <trkpt lat="47.50294" lon="6.74477">
        <ele>351</ele>
        <time>2015-12-20T11:15:36.000Z</time>
      </trkpt>
      <trkpt lat="47.50295" lon="6.74488">
        <ele>351</ele>
        <time>2015-12-20T11:15:37.000Z</time>
      </trkpt>
      <trkpt lat="47.50295" lon="6.745">
        <ele>349</ele>
        <time>2015-12-20T11:15:38.000Z</time>
      </trkpt>
      <trkpt lat="47.50296" lon="6.74512">
        <ele>349</ele>
        <time>2015-12-20T11:15:39.000Z</time>
      </trkpt>
      <trkpt lat="47.50296" lon="6.74525">
        <ele>349</ele>
        <time>2015-12-20T11:15:40.000Z</time>
      </trkpt>
      <trkpt lat="47.50295" lon="6.74537">
        <ele>348</ele>
        <time>2015-12-20T11:15:41.000Z</time>
      </trkpt>
      <trkpt lat="47.50295" lon="6.74548">
        <ele>348</ele>
        <time>2015-12-20T11:15:42.000Z</time>
      </trkpt>
      <trkpt lat="47.50295" lon="6.74561">
        <ele>348</ele>
        <time>2015-12-20T11:15:43.000Z</time>
      </trkpt>
      <trkpt lat="47.50295" lon="6.74573">
        <ele>348</ele>
        <time>2015-12-20T11:15:44.000Z</time>
      </trkpt>
      <trkpt lat="47.50296" lon="6.74585">
        <ele>346</ele>
        <time>2015-12-20T11:15:45.000Z</time>
      </trkpt>
      <trkpt lat="47.50295" lon="6.74598">
        <ele>346</ele>
        <time>2015-12-20T11:15:46.000Z</time>
      </trkpt>
      <trkpt lat="47.50295" lon="6.7461">
        <ele>346</ele>
        <time>2015-12-20T11:15:47.000Z</time>
      </trkpt>
      <trkpt lat="47.50296" lon="6.74622">
        <ele>345</ele>
        <time>2015-12-20T11:15:48.000Z</time>
      </trkpt>
      <trkpt lat="47.50296" lon="6.74635">
        <ele>345</ele>
        <time>2015-12-20T11:15:49.000Z</time>
      </trkpt>
      <trkpt lat="47.50296" lon="6.74648">
        <ele>345</ele>
        <time>2015-12-20T11:15:50.000Z</time>
      </trkpt>
      <trkpt lat="47.50295" lon="6.7466">
        <ele>345</ele>
        <time>2015-12-20T11:15:51.000Z</time>
      </trkpt>
      <trkpt lat="47.50295" lon="6.74672">
        <ele>344</ele>
        <time>2015-12-20T11:15:52.000Z</time>
      </trkpt>
      <trkpt lat="47.50294" lon="6.74685">
        <ele>343</ele>
        <time>2015-12-20T11:15:53.000Z</time>
      </trkpt>
      <trkpt lat="47.50293" lon="6.74697">
        <ele>343</ele>
        <time>2015-12-20T11:15:54.000Z</time>
      </trkpt>
      <trkpt lat="47.50292" lon="6.74709">
        <ele>343</ele>
        <time>2015-12-20T11:15:55.000Z</time>
      </trkpt>
      <trkpt lat="47.50291" lon="6.74722">
        <ele>343</ele>
        <time>2015-12-20T11:15:56.000Z</time>
      </trkpt>
      <trkpt lat="47.50288" lon="6.74735">
        <ele>342</ele>
        <time>2015-12-20T11:15:57.000Z</time>
      </trkpt>
      <trkpt lat="47.50285" lon="6.74747">
        <ele>342</ele>
        <time>2015-12-20T11:15:58.000Z</time>
      </trkpt>
      <trkpt lat="47.50282" lon="6.74759">
        <ele>341</ele>
        <time>2015-12-20T11:15:59.000Z</time>
      </trkpt>
      <trkpt lat="47.5028" lon="6.74771">
        <ele>341</ele>
        <time>2015-12-20T11:16:00.000Z</time>
      </trkpt>
      <trkpt lat="47.50276" lon="6.74783">
        <ele>341</ele>
        <time>2015-12-20T11:16:01.000Z</time>
      </trkpt>
      <trkpt lat="47.50272" lon="6.74794">
        <ele>341</ele>
        <time>2015-12-20T11:16:01.999Z</time>
      </trkpt>
      <trkpt lat="47.50268" lon="6.74807">
        <ele>340</ele>
        <time>2015-12-20T11:16:03.000Z</time>
      </trkpt>
      <trkpt lat="47.50263" lon="6.74819">
        <ele>339</ele>
        <time>2015-12-20T11:16:04.000Z</time>
      </trkpt>
      <trkpt lat="47.50259" lon="6.7483">
        <ele>338</ele>
        <time>2015-12-20T11:16:05.000Z</time>
      </trkpt>
      <trkpt lat="47.50256" lon="6.74842">
        <ele>338</ele>
        <time>2015-12-20T11:16:06.000Z</time>
      </trkpt>
      <trkpt lat="47.50252" lon="6.74855">
        <ele>339</ele>
        <time>2015-12-20T11:16:07.000Z</time>
      </trkpt>
      <trkpt lat="47.50249" lon="6.74867">
        <ele>336</ele>
        <time>2015-12-20T11:16:08.000Z</time>
      </trkpt>
      <trkpt lat="47.50246" lon="6.74879">
        <ele>336</ele>
        <time>2015-12-20T11:16:09.000Z</time>
      </trkpt>
      <trkpt lat="47.50244" lon="6.74891">
        <ele>336</ele>
        <time>2015-12-20T11:16:10.000Z</time>
      </trkpt>
      <trkpt lat="47.50242" lon="6.74903">
        <ele>336</ele>
        <time>2015-12-20T11:16:11.000Z</time>
      </trkpt>
      <trkpt lat="47.5024" lon="6.74916">
        <ele>336</ele>
        <time>2015-12-20T11:16:12.000Z</time>
      </trkpt>
      <trkpt lat="47.50238" lon="6.74926">
        <ele>336</ele>
        <time>2015-12-20T11:16:13.000Z</time>
      </trkpt>
      <trkpt lat="47.50234" lon="6.74937">
        <ele>336</ele>
        <time>2015-12-20T11:16:14.000Z</time>
      </trkpt>
      <trkpt lat="47.5023" lon="6.74946">
        <ele>336</ele>
        <time>2015-12-20T11:16:15.000Z</time>
      </trkpt>
      <trkpt lat="47.50224" lon="6.74956">
        <ele>336</ele>
        <time>2015-12-20T11:16:16.000Z</time>
      </trkpt>
      <trkpt lat="47.50217" lon="6.74964">
        <ele>336</ele>
        <time>2015-12-20T11:16:17.000Z</time>
      </trkpt>
      <trkpt lat="47.50211" lon="6.74971">
        <ele>336</ele>
        <time>2015-12-20T11:16:18.000Z</time>
      </trkpt>
      <trkpt lat="47.50206" lon="6.7498">
        <ele>336</ele>
        <time>2015-12-20T11:16:19.000Z</time>
      </trkpt>
      <trkpt lat="47.502" lon="6.74989">
        <ele>335</ele>
        <time>2015-12-20T11:16:19.999Z</time>
      </trkpt>
      <trkpt lat="47.50198" lon="6.75001">
        <ele>334</ele>
        <time>2015-12-20T11:16:21.001Z</time>
      </trkpt>
      <trkpt lat="47.50198" lon="6.75014">
        <ele>334</ele>
        <time>2015-12-20T11:16:22.000Z</time>
      </trkpt>
      <trkpt lat="47.50197" lon="6.75027">
        <ele>334</ele>
        <time>2015-12-20T11:16:23.000Z</time>
      </trkpt>
      <trkpt lat="47.50195" lon="6.7504">
        <ele>333</ele>
        <time>2015-12-20T11:16:24.000Z</time>
      </trkpt>
      <trkpt lat="47.50194" lon="6.75052">
        <ele>333</ele>
        <time>2015-12-20T11:16:25.000Z</time>
      </trkpt>
      <trkpt lat="47.50193" lon="6.75064">
        <ele>332</ele>
        <time>2015-12-20T11:16:26.000Z</time>
      </trkpt>
      <trkpt lat="47.50192" lon="6.75075">
        <ele>332</ele>
        <time>2015-12-20T11:16:27.001Z</time>
      </trkpt>
      <trkpt lat="47.50191" lon="6.75088">
        <ele>329</ele>
        <time>2015-12-20T11:16:28.000Z</time>
      </trkpt>
      <trkpt lat="47.50191" lon="6.75099">
        <ele>329</ele>
        <time>2015-12-20T11:16:29.000Z</time>
      </trkpt>
      <trkpt lat="47.5019" lon="6.75109">
        <ele>329</ele>
        <time>2015-12-20T11:16:30.000Z</time>
      </trkpt>
      <trkpt lat="47.50196" lon="6.75117">
        <ele>329</ele>
        <time>2015-12-20T11:16:31.000Z</time>
      </trkpt>
      <trkpt lat="47.50202" lon="6.75123">
        <ele>329</ele>
        <time>2015-12-20T11:16:32.000Z</time>
      </trkpt>
      <trkpt lat="47.50207" lon="6.75127">
        <ele>329</ele>
        <time>2015-12-20T11:16:33.000Z</time>
      </trkpt>
      <trkpt lat="47.50212" lon="6.75131">
        <ele>329</ele>
        <time>2015-12-20T11:16:34.000Z</time>
      </trkpt>
      <trkpt lat="47.50218" lon="6.75134">
        <ele>330</ele>
        <time>2015-12-20T11:16:35.000Z</time>
      </trkpt>
      <trkpt lat="47.50223" lon="6.75138">
        <ele>330</ele>
        <time>2015-12-20T11:16:36.002Z</time>
      </trkpt>
      <trkpt lat="47.50227" lon="6.75144">
        <ele>330</ele>
        <time>2015-12-20T11:16:37.000Z</time>
      </trkpt>
      <trkpt lat="47.50232" lon="6.7515">
        <ele>330</ele>
        <time>2015-12-20T11:16:38.000Z</time>
      </trkpt>
      <trkpt lat="47.50236" lon="6.75156">
        <ele>330</ele>
        <time>2015-12-20T11:16:39.000Z</time>
      </trkpt>
      <trkpt lat="47.5024" lon="6.75161">
        <ele>330</ele>
        <time>2015-12-20T11:16:40.000Z</time>
      </trkpt>
      <trkpt lat="47.50245" lon="6.75166">
        <ele>330</ele>
        <time>2015-12-20T11:16:41.000Z</time>
      </trkpt>
      <trkpt lat="47.50249" lon="6.7517">
        <ele>329</ele>
        <time>2015-12-20T11:16:42.000Z</time>
      </trkpt>
      <trkpt lat="47.50254" lon="6.75173">
        <ele>330</ele>
        <time>2015-12-20T11:16:43.000Z</time>
      </trkpt>
      <trkpt lat="47.50259" lon="6.75176">
        <ele>330</ele>
        <time>2015-12-20T11:16:44.000Z</time>
      </trkpt>
      <trkpt lat="47.50264" lon="6.75179">
        <ele>330</ele>
        <time>2015-12-20T11:16:44.998Z</time>
      </trkpt>
      <trkpt lat="47.50269" lon="6.75179">
        <ele>330</ele>
        <time>2015-12-20T11:16:46.000Z</time>
      </trkpt>
      <trkpt lat="47.50273" lon="6.75179">
        <ele>330</ele>
        <time>2015-12-20T11:16:47.000Z</time>
      </trkpt>
      <trkpt lat="47.50281" lon="6.75178">
        <ele>330</ele>
        <time>2015-12-20T11:16:48.000Z</time>
      </trkpt>
      <trkpt lat="47.50287" lon="6.75178">
        <ele>330</ele>
        <time>2015-12-20T11:16:49.000Z</time>
      </trkpt>
      <trkpt lat="47.5029" lon="6.75178">
        <ele>330</ele>
        <time>2015-12-20T11:16:50.000Z</time>
      </trkpt>
      <trkpt lat="47.50294" lon="6.75179">
        <ele>331</ele>
        <time>2015-12-20T11:16:51.000Z</time>
      </trkpt>
      <trkpt lat="47.503" lon="6.75178">
        <ele>331</ele>
        <time>2015-12-20T11:16:51.999Z</time>
      </trkpt>
      <trkpt lat="47.50306" lon="6.75177">
        <ele>332</ele>
        <time>2015-12-20T11:16:53.000Z</time>
      </trkpt>
      <trkpt lat="47.50312" lon="6.75175">
        <ele>333</ele>
        <time>2015-12-20T11:16:54.000Z</time>
      </trkpt>
      <trkpt lat="47.50318" lon="6.75176">
        <ele>334</ele>
        <time>2015-12-20T11:16:55.000Z</time>
      </trkpt>
      <trkpt lat="47.50324" lon="6.75176">
        <ele>335</ele>
        <time>2015-12-20T11:16:56.000Z</time>
      </trkpt>
      <trkpt lat="47.5033" lon="6.75175">
        <ele>336</ele>
        <time>2015-12-20T11:16:57.000Z</time>
      </trkpt>
      <trkpt lat="47.50335" lon="6.75173">
        <ele>337</ele>
        <time>2015-12-20T11:16:58.000Z</time>
      </trkpt>
      <trkpt lat="47.50341" lon="6.75171">
        <ele>336</ele>
        <time>2015-12-20T11:16:59.000Z</time>
      </trkpt>
      <trkpt lat="47.50346" lon="6.75172">
        <ele>335</ele>
        <time>2015-12-20T11:17:00.000Z</time>
      </trkpt>
      <trkpt lat="47.50357" lon="6.75172">
        <ele>333</ele>
        <time>2015-12-20T11:17:01.000Z</time>
      </trkpt>
      <trkpt lat="47.50362" lon="6.75171">
        <ele>333</ele>
        <time>2015-12-20T11:17:02.000Z</time>
      </trkpt>
      <trkpt lat="47.50369" lon="6.75172">
        <ele>332</ele>
        <time>2015-12-20T11:17:03.000Z</time>
      </trkpt>
      <trkpt lat="47.50375" lon="6.75175">
        <ele>331</ele>
        <time>2015-12-20T11:17:04.000Z</time>
      </trkpt>
      <trkpt lat="47.50383" lon="6.75175">
        <ele>331</ele>
        <time>2015-12-20T11:17:04.999Z</time>
      </trkpt>
      <trkpt lat="47.5039" lon="6.75174">
        <ele>331</ele>
        <time>2015-12-20T11:17:05.999Z</time>
      </trkpt>
      <trkpt lat="47.50399" lon="6.75172">
        <ele>331</ele>
        <time>2015-12-20T11:17:07.000Z</time>
      </trkpt>
      <trkpt lat="47.50406" lon="6.75172">
        <ele>331</ele>
        <time>2015-12-20T11:17:08.000Z</time>
      </trkpt>
      <trkpt lat="47.50412" lon="6.75172">
        <ele>331</ele>
        <time>2015-12-20T11:17:09.000Z</time>
      </trkpt>
      <trkpt lat="47.5042" lon="6.75172">
        <ele>331</ele>
        <time>2015-12-20T11:17:10.000Z</time>
      </trkpt>
      <trkpt lat="47.50427" lon="6.75172">
        <ele>330</ele>
        <time>2015-12-20T11:17:10.999Z</time>
      </trkpt>
      <trkpt lat="47.50432" lon="6.75171">
        <ele>330</ele>
        <time>2015-12-20T11:17:12.000Z</time>
      </trkpt>
      <trkpt lat="47.50439" lon="6.75171">
        <ele>329</ele>
        <time>2015-12-20T11:17:13.000Z</time>
      </trkpt>
      <trkpt lat="47.50446" lon="6.7517">
        <ele>329</ele>
        <time>2015-12-20T11:17:14.000Z</time>
      </trkpt>
      <trkpt lat="47.5045" lon="6.7517">
        <ele>328</ele>
        <time>2015-12-20T11:17:15.000Z</time>
      </trkpt>
      <trkpt lat="47.50456" lon="6.7517">
        <ele>328</ele>
        <time>2015-12-20T11:17:16.000Z</time>
      </trkpt>
      <trkpt lat="47.50459" lon="6.75168">
        <ele>328</ele>
        <time>2015-12-20T11:17:17.000Z</time>
      </trkpt>
      <trkpt lat="47.50464" lon="6.75167">
        <ele>328</ele>
        <time>2015-12-20T11:17:18.000Z</time>
      </trkpt>
      <trkpt lat="47.50468" lon="6.75167">
        <ele>333</ele>
        <time>2015-12-20T11:17:19.000Z</time>
      </trkpt>
      <trkpt lat="47.50472" lon="6.75166">
        <ele>332</ele>
        <time>2015-12-20T11:17:20.000Z</time>
      </trkpt>
      <trkpt lat="47.50479" lon="6.75171">
        <ele>328</ele>
        <time>2015-12-20T11:17:21.000Z</time>
      </trkpt>
      <trkpt lat="47.50484" lon="6.75181">
        <ele>328</ele>
        <time>2015-12-20T11:17:22.000Z</time>
      </trkpt>
      <trkpt lat="47.50483" lon="6.75192">
        <ele>327</ele>
        <time>2015-12-20T11:17:23.000Z</time>
      </trkpt>
      <trkpt lat="47.50484" lon="6.75201">
        <ele>327</ele>
        <time>2015-12-20T11:17:24.000Z</time>
      </trkpt>
      <trkpt lat="47.50487" lon="6.75211">
        <ele>327</ele>
        <time>2015-12-20T11:17:25.000Z</time>
      </trkpt>
      <trkpt lat="47.50488" lon="6.75219">
        <ele>326</ele>
        <time>2015-12-20T11:17:26.000Z</time>
      </trkpt>
      <trkpt lat="47.50491" lon="6.75228">
        <ele>326</ele>
        <time>2015-12-20T11:17:27.000Z</time>
      </trkpt>
      <trkpt lat="47.50492" lon="6.75238">
        <ele>326</ele>
        <time>2015-12-20T11:17:28.000Z</time>
      </trkpt>
      <trkpt lat="47.50493" lon="6.75247">
        <ele>325</ele>
        <time>2015-12-20T11:17:28.999Z</time>
      </trkpt>
      <trkpt lat="47.50494" lon="6.75255">
        <ele>325</ele>
        <time>2015-12-20T11:17:30.000Z</time>
      </trkpt>
      <trkpt lat="47.50494" lon="6.75262">
        <ele>325</ele>
        <time>2015-12-20T11:17:31.000Z</time>
      </trkpt>
      <trkpt lat="47.50494" lon="6.7527">
        <ele>325</ele>
        <time>2015-12-20T11:17:32.000Z</time>
      </trkpt>
      <trkpt lat="47.50495" lon="6.75279">
        <ele>325</ele>
        <time>2015-12-20T11:17:33.000Z</time>
      </trkpt>
      <trkpt lat="47.50495" lon="6.75286">
        <ele>325</ele>
        <time>2015-12-20T11:17:34.000Z</time>
      </trkpt>
      <trkpt lat="47.50497" lon="6.75292">
        <ele>325</ele>
        <time>2015-12-20T11:17:35.000Z</time>
      </trkpt>
      <trkpt lat="47.50498" lon="6.75299">
        <ele>325</ele>
        <time>2015-12-20T11:17:36.000Z</time>
      </trkpt>
      <trkpt lat="47.505" lon="6.75307">
        <ele>326</ele>
        <time>2015-12-20T11:17:37.000Z</time>
      </trkpt>
      <trkpt lat="47.505" lon="6.75315">
        <ele>326</ele>
        <time>2015-12-20T11:17:38.000Z</time>
      </trkpt>
      <trkpt lat="47.50502" lon="6.75321">
        <ele>326</ele>
        <time>2015-12-20T11:17:39.000Z</time>
      </trkpt>
      <trkpt lat="47.50504" lon="6.75328">
        <ele>326</ele>
        <time>2015-12-20T11:17:40.000Z</time>
      </trkpt>
      <trkpt lat="47.50506" lon="6.75335">
        <ele>327</ele>
        <time>2015-12-20T11:17:41.000Z</time>
      </trkpt>
      <trkpt lat="47.50508" lon="6.75342">
        <ele>328</ele>
        <time>2015-12-20T11:17:42.000Z</time>
      </trkpt>
      <trkpt lat="47.50509" lon="6.75349">
        <ele>329</ele>
        <time>2015-12-20T11:17:43.000Z</time>
      </trkpt>
      <trkpt lat="47.50511" lon="6.75355">
        <ele>329</ele>
        <time>2015-12-20T11:17:44.000Z</time>
      </trkpt>
      <trkpt lat="47.50515" lon="6.75359">
        <ele>330</ele>
        <time>2015-12-20T11:17:45.000Z</time>
      </trkpt>
      <trkpt lat="47.50518" lon="6.75363">
        <ele>330</ele>
        <time>2015-12-20T11:17:46.000Z</time>
      </trkpt>
      <trkpt lat="47.50523" lon="6.75367">
        <ele>330</ele>
        <time>2015-12-20T11:17:47.000Z</time>
      </trkpt>
      <trkpt lat="47.50528" lon="6.75371">
        <ele>331</ele>
        <time>2015-12-20T11:17:48.000Z</time>
      </trkpt>
      <trkpt lat="47.50533" lon="6.75374">
        <ele>331</ele>
        <time>2015-12-20T11:17:49.000Z</time>
      </trkpt>
      <trkpt lat="47.50538" lon="6.75376">
        <ele>331</ele>
        <time>2015-12-20T11:17:50.000Z</time>
      </trkpt>
      <trkpt lat="47.50542" lon="6.75378">
        <ele>331</ele>
        <time>2015-12-20T11:17:51.000Z</time>
      </trkpt>
      <trkpt lat="47.50547" lon="6.75379">
        <ele>331</ele>
        <time>2015-12-20T11:17:52.000Z</time>
      </trkpt>
      <trkpt lat="47.50552" lon="6.75379">
        <ele>331</ele>
        <time>2015-12-20T11:17:53.000Z</time>
      </trkpt>
      <trkpt lat="47.50557" lon="6.75379">
        <ele>331</ele>
        <time>2015-12-20T11:17:54.000Z</time>
      </trkpt>
      <trkpt lat="47.50562" lon="6.75381">
        <ele>331</ele>
        <time>2015-12-20T11:17:55.000Z</time>
      </trkpt>
      <trkpt lat="47.50567" lon="6.75383">
        <ele>332</ele>
        <time>2015-12-20T11:17:56.000Z</time>
      </trkpt>
      <trkpt lat="47.50571" lon="6.75386">
        <ele>332</ele>
        <time>2015-12-20T11:17:57.000Z</time>
      </trkpt>
      <trkpt lat="47.50576" lon="6.75386">
        <ele>332</ele>
        <time>2015-12-20T11:17:58.000Z</time>
      </trkpt>
      <trkpt lat="47.5058" lon="6.75387">
        <ele>332</ele>
        <time>2015-12-20T11:17:59.000Z</time>
      </trkpt>
      <trkpt lat="47.50585" lon="6.75388">
        <ele>332</ele>
        <time>2015-12-20T11:18:00.000Z</time>
      </trkpt>
      <trkpt lat="47.5059" lon="6.75388">
        <ele>332</ele>
        <time>2015-12-20T11:18:01.000Z</time>
      </trkpt>
      <trkpt lat="47.50594" lon="6.75389">
        <ele>332</ele>
        <time>2015-12-20T11:18:02.000Z</time>
      </trkpt>
      <trkpt lat="47.50597" lon="6.7539">
        <ele>332</ele>
        <time>2015-12-20T11:18:03.000Z</time>
      </trkpt>
      <trkpt lat="47.506" lon="6.75389">
        <ele>332</ele>
        <time>2015-12-20T11:18:03.999Z</time>
      </trkpt>
      <trkpt lat="47.50604" lon="6.75389">
        <ele>332</ele>
        <time>2015-12-20T11:18:05.000Z</time>
      </trkpt>
      <trkpt lat="47.50608" lon="6.75388">
        <ele>332</ele>
        <time>2015-12-20T11:18:06.000Z</time>
      </trkpt>
      <trkpt lat="47.50613" lon="6.7539">
        <ele>332</ele>
        <time>2015-12-20T11:18:07.000Z</time>
      </trkpt>
      <trkpt lat="47.50617" lon="6.7539">
        <ele>332</ele>
        <time>2015-12-20T11:18:08.000Z</time>
      </trkpt>
      <trkpt lat="47.50621" lon="6.75392">
        <ele>332</ele>
        <time>2015-12-20T11:18:09.000Z</time>
      </trkpt>
      <trkpt lat="47.50626" lon="6.75393">
        <ele>332</ele>
        <time>2015-12-20T11:18:10.000Z</time>
      </trkpt>
      <trkpt lat="47.5063" lon="6.75393">
        <ele>332</ele>
        <time>2015-12-20T11:18:11.000Z</time>
      </trkpt>
      <trkpt lat="47.50634" lon="6.75393">
        <ele>332</ele>
        <time>2015-12-20T11:18:11.999Z</time>
      </trkpt>
      <trkpt lat="47.50638" lon="6.75395">
        <ele>332</ele>
        <time>2015-12-20T11:18:13.000Z</time>
      </trkpt>
      <trkpt lat="47.50642" lon="6.75396">
        <ele>332</ele>
        <time>2015-12-20T11:18:14.000Z</time>
      </trkpt>
      <trkpt lat="47.50645" lon="6.75397">
        <ele>332</ele>
        <time>2015-12-20T11:18:15.000Z</time>
      </trkpt>
      <trkpt lat="47.50648" lon="6.75398">
        <ele>332</ele>
        <time>2015-12-20T11:18:16.000Z</time>
      </trkpt>
      <trkpt lat="47.50651" lon="6.75399">
        <ele>332</ele>
        <time>2015-12-20T11:18:17.000Z</time>
      </trkpt>
      <trkpt lat="47.50654" lon="6.754">
        <ele>332</ele>
        <time>2015-12-20T11:18:18.000Z</time>
      </trkpt>
      <trkpt lat="47.50657" lon="6.754">
        <ele>332</ele>
        <time>2015-12-20T11:18:19.000Z</time>
      </trkpt>
      <trkpt lat="47.50659" lon="6.75401">
        <ele>332</ele>
        <time>2015-12-20T11:18:20.000Z</time>
      </trkpt>
      <trkpt lat="47.50662" lon="6.75402">
        <ele>333</ele>
        <time>2015-12-20T11:18:21.000Z</time>
      </trkpt>
      <trkpt lat="47.50665" lon="6.75404">
        <ele>333</ele>
        <time>2015-12-20T11:18:22.000Z</time>
      </trkpt>
      <trkpt lat="47.50667" lon="6.75406">
        <ele>333</ele>
        <time>2015-12-20T11:18:23.000Z</time>
      </trkpt>
      <trkpt lat="47.5067" lon="6.75408">
        <ele>333</ele>
        <time>2015-12-20T11:18:24.000Z</time>
      </trkpt>
      <trkpt lat="47.50672" lon="6.75411">
        <ele>333</ele>
        <time>2015-12-20T11:18:25.000Z</time>
      </trkpt>
      <trkpt lat="47.50673" lon="6.75414">
        <ele>333</ele>
        <time>2015-12-20T11:18:26.000Z</time>
      </trkpt>
      <trkpt lat="47.50675" lon="6.75417">
        <ele>336</ele>
        <time>2015-12-20T11:18:27.000Z</time>
      </trkpt>
      <trkpt lat="47.50677" lon="6.7542">
        <ele>336</ele>
        <time>2015-12-20T11:18:28.000Z</time>
      </trkpt>
      <trkpt lat="47.50678" lon="6.75423">
        <ele>336</ele>
        <time>2015-12-20T11:18:29.000Z</time>
      </trkpt>
      <trkpt lat="47.50679" lon="6.75426">
        <ele>337</ele>
        <time>2015-12-20T11:18:30.000Z</time>
      </trkpt>
      <trkpt lat="47.50681" lon="6.75429">
        <ele>337</ele>
        <time>2015-12-20T11:18:31.000Z</time>
      </trkpt>
      <trkpt lat="47.50682" lon="6.75431">
        <ele>337</ele>
        <time>2015-12-20T11:18:32.000Z</time>
      </trkpt>
      <trkpt lat="47.50683" lon="6.75434">
        <ele>338</ele>
        <time>2015-12-20T11:18:33.000Z</time>
      </trkpt>
      <trkpt lat="47.50685" lon="6.75437">
        <ele>338</ele>
        <time>2015-12-20T11:18:34.000Z</time>
      </trkpt>
      <trkpt lat="47.50686" lon="6.7544">
        <ele>338</ele>
        <time>2015-12-20T11:18:34.999Z</time>
      </trkpt>
      <trkpt lat="47.50687" lon="6.75444">
        <ele>338</ele>
        <time>2015-12-20T11:18:36.000Z</time>
      </trkpt>
      <trkpt lat="47.50689" lon="6.75447">
        <ele>339</ele>
        <time>2015-12-20T11:18:37.000Z</time>
      </trkpt>
      <trkpt lat="47.5069" lon="6.7545">
        <ele>339</ele>
        <time>2015-12-20T11:18:38.000Z</time>
      </trkpt>
      <trkpt lat="47.50691" lon="6.75454">
        <ele>339</ele>
        <time>2015-12-20T11:18:39.000Z</time>
      </trkpt>
      <trkpt lat="47.50693" lon="6.75458">
        <ele>340</ele>
        <time>2015-12-20T11:18:40.000Z</time>
      </trkpt>
      <trkpt lat="47.50694" lon="6.75462">
        <ele>340</ele>
        <time>2015-12-20T11:18:41.000Z</time>
      </trkpt>
      <trkpt lat="47.50695" lon="6.75466">
        <ele>340</ele>
        <time>2015-12-20T11:18:42.000Z</time>
      </trkpt>
      <trkpt lat="47.50697" lon="6.7547">
        <ele>340</ele>
        <time>2015-12-20T11:18:43.000Z</time>
      </trkpt>
      <trkpt lat="47.50698" lon="6.75474">
        <ele>340</ele>
        <time>2015-12-20T11:18:44.000Z</time>
      </trkpt>
      <trkpt lat="47.507" lon="6.75478">
        <ele>341</ele>
        <time>2015-12-20T11:18:45.000Z</time>
      </trkpt>
      <trkpt lat="47.50701" lon="6.75482">
        <ele>341</ele>
        <time>2015-12-20T11:18:46.000Z</time>
      </trkpt>
      <trkpt lat="47.50702" lon="6.75485">
        <ele>341</ele>
        <time>2015-12-20T11:18:47.000Z</time>
      </trkpt>
      <trkpt lat="47.50704" lon="6.75489">
        <ele>341</ele>
        <time>2015-12-20T11:18:48.000Z</time>
      </trkpt>
      <trkpt lat="47.50705" lon="6.75492">
        <ele>341</ele>
        <time>2015-12-20T11:18:49.000Z</time>
      </trkpt>
      <trkpt lat="47.50706" lon="6.75495">
        <ele>341</ele>
        <time>2015-12-20T11:18:50.000Z</time>
      </trkpt>
      <trkpt lat="47.50708" lon="6.75498">
        <ele>341</ele>
        <time>2015-12-20T11:18:50.999Z</time>
      </trkpt>
      <trkpt lat="47.50709" lon="6.75501">
        <ele>346</ele>
        <time>2015-12-20T11:18:52.000Z</time>
      </trkpt>
      <trkpt lat="47.5071" lon="6.75504">
        <ele>346</ele>
        <time>2015-12-20T11:18:53.001Z</time>
      </trkpt>
      <trkpt lat="47.50712" lon="6.75508">
        <ele>346</ele>
        <time>2015-12-20T11:18:54.000Z</time>
      </trkpt>
      <trkpt lat="47.50713" lon="6.75512">
        <ele>346</ele>
        <time>2015-12-20T11:18:55.000Z</time>
      </trkpt>
      <trkpt lat="47.50714" lon="6.75515">
        <ele>347</ele>
        <time>2015-12-20T11:18:56.000Z</time>
      </trkpt>
      <trkpt lat="47.50715" lon="6.75519">
        <ele>347</ele>
        <time>2015-12-20T11:18:57.000Z</time>
      </trkpt>
      <trkpt lat="47.50716" lon="6.75523">
        <ele>347</ele>
        <time>2015-12-20T11:18:58.000Z</time>
      </trkpt>
      <trkpt lat="47.50716" lon="6.75526">
        <ele>347</ele>
        <time>2015-12-20T11:18:59.000Z</time>
      </trkpt>
      <trkpt lat="47.50717" lon="6.7553">
        <ele>347</ele>
        <time>2015-12-20T11:19:00.000Z</time>
      </trkpt>
      <trkpt lat="47.50718" lon="6.75534">
        <ele>347</ele>
        <time>2015-12-20T11:19:01.000Z</time>
      </trkpt>
      <trkpt lat="47.50718" lon="6.75538">
        <ele>347</ele>
        <time>2015-12-20T11:19:02.000Z</time>
      </trkpt>
      <trkpt lat="47.50719" lon="6.75541">
        <ele>348</ele>
        <time>2015-12-20T11:19:03.000Z</time>
      </trkpt>
      <trkpt lat="47.5072" lon="6.75545">
        <ele>348</ele>
        <time>2015-12-20T11:19:04.000Z</time>
      </trkpt>
      <trkpt lat="47.5072" lon="6.75548">
        <ele>348</ele>
        <time>2015-12-20T11:19:05.000Z</time>
      </trkpt>
      <trkpt lat="47.50721" lon="6.75552">
        <ele>348</ele>
        <time>2015-12-20T11:19:06.000Z</time>
      </trkpt>
      <trkpt lat="47.50721" lon="6.75555">
        <ele>348</ele>
        <time>2015-12-20T11:19:07.000Z</time>
      </trkpt>
      <trkpt lat="47.50722" lon="6.75559">
        <ele>348</ele>
        <time>2015-12-20T11:19:08.000Z</time>
      </trkpt>
      <trkpt lat="47.50722" lon="6.75562">
        <ele>348</ele>
        <time>2015-12-20T11:19:09.000Z</time>
      </trkpt>
      <trkpt lat="47.50723" lon="6.75565">
        <ele>349</ele>
        <time>2015-12-20T11:19:10.000Z</time>
      </trkpt>
      <trkpt lat="47.50724" lon="6.75569">
        <ele>349</ele>
        <time>2015-12-20T11:19:11.000Z</time>
      </trkpt>
      <trkpt lat="47.50724" lon="6.75572">
        <ele>349</ele>
        <time>2015-12-20T11:19:12.000Z</time>
      </trkpt>
      <trkpt lat="47.50724" lon="6.75576">
        <ele>349</ele>
        <time>2015-12-20T11:19:13.000Z</time>
      </trkpt>
      <trkpt lat="47.50724" lon="6.75579">
        <ele>349</ele>
        <time>2015-12-20T11:19:14.000Z</time>
      </trkpt>
      <trkpt lat="47.50724" lon="6.75583">
        <ele>349</ele>
        <time>2015-12-20T11:19:15.000Z</time>
      </trkpt>
      <trkpt lat="47.50725" lon="6.75589">
        <ele>353</ele>
        <time>2015-12-20T11:19:17.000Z</time>
      </trkpt>
      <trkpt lat="47.50725" lon="6.75591">
        <ele>353</ele>
        <time>2015-12-20T11:19:18.000Z</time>
      </trkpt>
      <trkpt lat="47.50725" lon="6.75598">
        <ele>354</ele>
        <time>2015-12-20T11:19:20.000Z</time>
      </trkpt>
      <trkpt lat="47.50725" lon="6.75601">
        <ele>354</ele>
        <time>2015-12-20T11:19:21.001Z</time>
      </trkpt>
      <trkpt lat="47.50725" lon="6.75605">
        <ele>354</ele>
        <time>2015-12-20T11:19:22.000Z</time>
      </trkpt>
      <trkpt lat="47.50726" lon="6.75608">
        <ele>354</ele>
        <time>2015-12-20T11:19:23.000Z</time>
      </trkpt>
      <trkpt lat="47.50725" lon="6.75614">
        <ele>355</ele>
        <time>2015-12-20T11:19:25.000Z</time>
      </trkpt>
      <trkpt lat="47.50725" lon="6.75617">
        <ele>355</ele>
        <time>2015-12-20T11:19:25.998Z</time>
      </trkpt>
      <trkpt lat="47.50725" lon="6.75622">
        <ele>355</ele>
        <time>2015-12-20T11:19:27.000Z</time>
      </trkpt>
      <trkpt lat="47.50724" lon="6.75625">
        <ele>355</ele>
        <time>2015-12-20T11:19:27.999Z</time>
      </trkpt>
      <trkpt lat="47.50724" lon="6.75629">
        <ele>355</ele>
        <time>2015-12-20T11:19:29.000Z</time>
      </trkpt>
      <trkpt lat="47.50723" lon="6.75633">
        <ele>356</ele>
        <time>2015-12-20T11:19:30.000Z</time>
      </trkpt>
      <trkpt lat="47.50722" lon="6.75636">
        <ele>356</ele>
        <time>2015-12-20T11:19:31.000Z</time>
      </trkpt>
      <trkpt lat="47.50722" lon="6.75641">
        <ele>356</ele>
        <time>2015-12-20T11:19:32.000Z</time>
      </trkpt>
      <trkpt lat="47.50721" lon="6.75645">
        <ele>356</ele>
        <time>2015-12-20T11:19:33.000Z</time>
      </trkpt>
      <trkpt lat="47.50721" lon="6.75649">
        <ele>356</ele>
        <time>2015-12-20T11:19:34.000Z</time>
      </trkpt>
      <trkpt lat="47.50721" lon="6.75652">
        <ele>356</ele>
        <time>2015-12-20T11:19:35.000Z</time>
      </trkpt>
      <trkpt lat="47.50722" lon="6.75656">
        <ele>356</ele>
        <time>2015-12-20T11:19:36.000Z</time>
      </trkpt>
      <trkpt lat="47.50722" lon="6.7566">
        <ele>357</ele>
        <time>2015-12-20T11:19:37.000Z</time>
      </trkpt>
      <trkpt lat="47.50722" lon="6.75664">
        <ele>357</ele>
        <time>2015-12-20T11:19:38.000Z</time>
      </trkpt>
      <trkpt lat="47.50722" lon="6.75667">
        <ele>362</ele>
        <time>2015-12-20T11:19:39.001Z</time>
      </trkpt>
      <trkpt lat="47.50723" lon="6.75672">
        <ele>362</ele>
        <time>2015-12-20T11:19:40.000Z</time>
      </trkpt>
      <trkpt lat="47.50723" lon="6.75676">
        <ele>362</ele>
        <time>2015-12-20T11:19:41.000Z</time>
      </trkpt>
      <trkpt lat="47.50722" lon="6.75679">
        <ele>362</ele>
        <time>2015-12-20T11:19:42.000Z</time>
      </trkpt>
      <trkpt lat="47.50722" lon="6.75683">
        <ele>362</ele>
        <time>2015-12-20T11:19:43.000Z</time>
      </trkpt>
      <trkpt lat="47.50721" lon="6.75686">
        <ele>362</ele>
        <time>2015-12-20T11:19:43.999Z</time>
      </trkpt>
      <trkpt lat="47.5072" lon="6.7569">
        <ele>363</ele>
        <time>2015-12-20T11:19:45.000Z</time>
      </trkpt>
      <trkpt lat="47.5072" lon="6.75694">
        <ele>363</ele>
        <time>2015-12-20T11:19:46.000Z</time>
      </trkpt>
      <trkpt lat="47.5072" lon="6.75697">
        <ele>363</ele>
        <time>2015-12-20T11:19:47.000Z</time>
      </trkpt>
      <trkpt lat="47.5072" lon="6.75701">
        <ele>363</ele>
        <time>2015-12-20T11:19:48.000Z</time>
      </trkpt>
      <trkpt lat="47.5072" lon="6.75704">
        <ele>363</ele>
        <time>2015-12-20T11:19:49.000Z</time>
      </trkpt>
      <trkpt lat="47.5072" lon="6.75707">
        <ele>364</ele>
        <time>2015-12-20T11:19:50.001Z</time>
      </trkpt>
      <trkpt lat="47.5072" lon="6.75714">
        <ele>364</ele>
        <time>2015-12-20T11:19:52.000Z</time>
      </trkpt>
      <trkpt lat="47.5072" lon="6.75717">
        <ele>364</ele>
        <time>2015-12-20T11:19:53.000Z</time>
      </trkpt>
      <trkpt lat="47.50718" lon="6.75723">
        <ele>364</ele>
        <time>2015-12-20T11:19:55.000Z</time>
      </trkpt>
      <trkpt lat="47.50718" lon="6.75726">
        <ele>364</ele>
        <time>2015-12-20T11:19:56.000Z</time>
      </trkpt>
      <trkpt lat="47.50718" lon="6.7573">
        <ele>365</ele>
        <time>2015-12-20T11:19:57.000Z</time>
      </trkpt>
      <trkpt lat="47.50719" lon="6.75734">
        <ele>365</ele>
        <time>2015-12-20T11:19:58.000Z</time>
      </trkpt>
      <trkpt lat="47.5072" lon="6.75737">
        <ele>365</ele>
        <time>2015-12-20T11:19:59.000Z</time>
      </trkpt>
      <trkpt lat="47.50721" lon="6.75741">
        <ele>365</ele>
        <time>2015-12-20T11:20:00.000Z</time>
      </trkpt>
      <trkpt lat="47.50722" lon="6.75745">
        <ele>365</ele>
        <time>2015-12-20T11:20:01.000Z</time>
      </trkpt>
      <trkpt lat="47.50722" lon="6.75749">
        <ele>365</ele>
        <time>2015-12-20T11:20:02.000Z</time>
      </trkpt>
      <trkpt lat="47.50723" lon="6.75752">
        <ele>369</ele>
        <time>2015-12-20T11:20:03.000Z</time>
      </trkpt>
      <trkpt lat="47.50724" lon="6.75755">
        <ele>369</ele>
        <time>2015-12-20T11:20:04.000Z</time>
      </trkpt>
      <trkpt lat="47.50725" lon="6.75759">
        <ele>369</ele>
        <time>2015-12-20T11:20:05.000Z</time>
      </trkpt>
      <trkpt lat="47.50725" lon="6.75763">
        <ele>370</ele>
        <time>2015-12-20T11:20:06.000Z</time>
      </trkpt>
      <trkpt lat="47.50725" lon="6.75766">
        <ele>370</ele>
        <time>2015-12-20T11:20:07.000Z</time>
      </trkpt>
      <trkpt lat="47.50725" lon="6.7577">
        <ele>370</ele>
        <time>2015-12-20T11:20:08.000Z</time>
      </trkpt>
      <trkpt lat="47.50725" lon="6.75774">
        <ele>370</ele>
        <time>2015-12-20T11:20:09.000Z</time>
      </trkpt>
      <trkpt lat="47.50725" lon="6.75777">
        <ele>370</ele>
        <time>2015-12-20T11:20:10.000Z</time>
      </trkpt>
      <trkpt lat="47.50726" lon="6.7578">
        <ele>371</ele>
        <time>2015-12-20T11:20:11.000Z</time>
      </trkpt>
      <trkpt lat="47.50727" lon="6.75784">
        <ele>371</ele>
        <time>2015-12-20T11:20:12.000Z</time>
      </trkpt>
      <trkpt lat="47.50728" lon="6.75788">
        <ele>371</ele>
        <time>2015-12-20T11:20:13.000Z</time>
      </trkpt>
      <trkpt lat="47.50728" lon="6.75791">
        <ele>371</ele>
        <time>2015-12-20T11:20:14.000Z</time>
      </trkpt>
      <trkpt lat="47.50728" lon="6.75795">
        <ele>371</ele>
        <time>2015-12-20T11:20:15.000Z</time>
      </trkpt>
      <trkpt lat="47.50728" lon="6.75799">
        <ele>371</ele>
        <time>2015-12-20T11:20:16.000Z</time>
      </trkpt>
      <trkpt lat="47.50728" lon="6.75802">
        <ele>372</ele>
        <time>2015-12-20T11:20:17.000Z</time>
      </trkpt>
      <trkpt lat="47.50728" lon="6.75806">
        <ele>372</ele>
        <time>2015-12-20T11:20:18.000Z</time>
      </trkpt>
      <trkpt lat="47.50728" lon="6.7581">
        <ele>372</ele>
        <time>2015-12-20T11:20:19.000Z</time>
      </trkpt>
      <trkpt lat="47.50728" lon="6.75813">
        <ele>372</ele>
        <time>2015-12-20T11:20:20.000Z</time>
      </trkpt>
      <trkpt lat="47.50729" lon="6.75817">
        <ele>372</ele>
        <time>2015-12-20T11:20:21.000Z</time>
      </trkpt>
      <trkpt lat="47.50729" lon="6.75821">
        <ele>372</ele>
        <time>2015-12-20T11:20:22.000Z</time>
      </trkpt>
      <trkpt lat="47.5073" lon="6.75824">
        <ele>372</ele>
        <time>2015-12-20T11:20:23.000Z</time>
      </trkpt>
      <trkpt lat="47.5073" lon="6.75828">
        <ele>372</ele>
        <time>2015-12-20T11:20:24.000Z</time>
      </trkpt>
      <trkpt lat="47.50731" lon="6.75831">
        <ele>372</ele>
        <time>2015-12-20T11:20:25.000Z</time>
      </trkpt>
      <trkpt lat="47.50731" lon="6.75834">
        <ele>375</ele>
        <time>2015-12-20T11:20:26.000Z</time>
      </trkpt>
      <trkpt lat="47.50731" lon="6.75841">
        <ele>375</ele>
        <time>2015-12-20T11:20:28.000Z</time>
      </trkpt>
      <trkpt lat="47.50731" lon="6.75844">
        <ele>376</ele>
        <time>2015-12-20T11:20:29.000Z</time>
      </trkpt>
      <trkpt lat="47.50731" lon="6.75848">
        <ele>376</ele>
        <time>2015-12-20T11:20:30.000Z</time>
      </trkpt>
      <trkpt lat="47.50732" lon="6.75851">
        <ele>376</ele>
        <time>2015-12-20T11:20:31.000Z</time>
      </trkpt>
      <trkpt lat="47.50732" lon="6.75855">
        <ele>376</ele>
        <time>2015-12-20T11:20:32.000Z</time>
      </trkpt>
      <trkpt lat="47.50732" lon="6.75858">
        <ele>376</ele>
        <time>2015-12-20T11:20:33.000Z</time>
      </trkpt>
      <trkpt lat="47.50732" lon="6.75864">
        <ele>377</ele>
        <time>2015-12-20T11:20:35.000Z</time>
      </trkpt>
      <trkpt lat="47.50732" lon="6.75868">
        <ele>377</ele>
        <time>2015-12-20T11:20:36.000Z</time>
      </trkpt>
      <trkpt lat="47.50733" lon="6.75874">
        <ele>377</ele>
        <time>2015-12-20T11:20:38.000Z</time>
      </trkpt>
      <trkpt lat="47.50733" lon="6.75877">
        <ele>377</ele>
        <time>2015-12-20T11:20:39.000Z</time>
      </trkpt>
      <trkpt lat="47.50733" lon="6.75882">
        <ele>377</ele>
        <time>2015-12-20T11:20:41.000Z</time>
      </trkpt>
      <trkpt lat="47.50734" lon="6.75884">
        <ele>378</ele>
        <time>2015-12-20T11:20:42.000Z</time>
      </trkpt>
      <trkpt lat="47.50734" lon="6.75889">
        <ele>378</ele>
        <time>2015-12-20T11:20:44.000Z</time>
      </trkpt>
      <trkpt lat="47.50735" lon="6.75892">
        <ele>378</ele>
        <time>2015-12-20T11:20:45.000Z</time>
      </trkpt>
      <trkpt lat="47.50735" lon="6.75895">
        <ele>378</ele>
        <time>2015-12-20T11:20:46.000Z</time>
      </trkpt>
      <trkpt lat="47.50735" lon="6.75899">
        <ele>378</ele>
        <time>2015-12-20T11:20:47.000Z</time>
      </trkpt>
      <trkpt lat="47.50736" lon="6.75905">
        <ele>378</ele>
        <time>2015-12-20T11:20:49.000Z</time>
      </trkpt>
      <trkpt lat="47.50736" lon="6.75909">
        <ele>378</ele>
        <time>2015-12-20T11:20:50.000Z</time>
      </trkpt>
      <trkpt lat="47.50737" lon="6.75913">
        <ele>378</ele>
        <time>2015-12-20T11:20:51.000Z</time>
      </trkpt>
      <trkpt lat="47.50737" lon="6.75916">
        <ele>378</ele>
        <time>2015-12-20T11:20:52.000Z</time>
      </trkpt>
      <trkpt lat="47.50738" lon="6.7592">
        <ele>380</ele>
        <time>2015-12-20T11:20:53.000Z</time>
      </trkpt>
      <trkpt lat="47.50739" lon="6.75924">
        <ele>380</ele>
        <time>2015-12-20T11:20:54.000Z</time>
      </trkpt>
      <trkpt lat="47.50739" lon="6.75927">
        <ele>380</ele>
        <time>2015-12-20T11:20:55.000Z</time>
      </trkpt>
      <trkpt lat="47.5074" lon="6.7593">
        <ele>380</ele>
        <time>2015-12-20T11:20:56.000Z</time>
      </trkpt>
      <trkpt lat="47.50741" lon="6.75936">
        <ele>381</ele>
        <time>2015-12-20T11:20:58.000Z</time>
      </trkpt>
      <trkpt lat="47.50741" lon="6.75939">
        <ele>381</ele>
        <time>2015-12-20T11:20:59.000Z</time>
      </trkpt>
      <trkpt lat="47.50741" lon="6.75943">
        <ele>381</ele>
        <time>2015-12-20T11:21:00.000Z</time>
      </trkpt>
      <trkpt lat="47.50741" lon="6.75946">
        <ele>381</ele>
        <time>2015-12-20T11:21:01.000Z</time>
      </trkpt>
      <trkpt lat="47.50741" lon="6.7595">
        <ele>382</ele>
        <time>2015-12-20T11:21:02.000Z</time>
      </trkpt>
      <trkpt lat="47.50742" lon="6.75954">
        <ele>382</ele>
        <time>2015-12-20T11:21:03.000Z</time>
      </trkpt>
      <trkpt lat="47.50742" lon="6.75958">
        <ele>382</ele>
        <time>2015-12-20T11:21:04.000Z</time>
      </trkpt>
      <trkpt lat="47.50742" lon="6.75962">
        <ele>382</ele>
        <time>2015-12-20T11:21:05.000Z</time>
      </trkpt>
      <trkpt lat="47.50742" lon="6.75966">
        <ele>382</ele>
        <time>2015-12-20T11:21:06.000Z</time>
      </trkpt>
      <trkpt lat="47.50743" lon="6.75969">
        <ele>382</ele>
        <time>2015-12-20T11:21:07.000Z</time>
      </trkpt>
      <trkpt lat="47.50743" lon="6.75973">
        <ele>382</ele>
        <time>2015-12-20T11:21:08.000Z</time>
      </trkpt>
      <trkpt lat="47.50743" lon="6.75977">
        <ele>382</ele>
        <time>2015-12-20T11:21:09.000Z</time>
      </trkpt>
      <trkpt lat="47.50742" lon="6.75982">
        <ele>382</ele>
        <time>2015-12-20T11:21:10.000Z</time>
      </trkpt>
      <trkpt lat="47.50742" lon="6.75985">
        <ele>382</ele>
        <time>2015-12-20T11:21:11.000Z</time>
      </trkpt>
      <trkpt lat="47.50742" lon="6.75989">
        <ele>382</ele>
        <time>2015-12-20T11:21:12.000Z</time>
      </trkpt>
      <trkpt lat="47.50742" lon="6.75993">
        <ele>382</ele>
        <time>2015-12-20T11:21:13.000Z</time>
      </trkpt>
      <trkpt lat="47.50742" lon="6.75999">
        <ele>382</ele>
        <time>2015-12-20T11:21:15.000Z</time>
      </trkpt>
      <trkpt lat="47.50742" lon="6.76002">
        <ele>383</ele>
        <time>2015-12-20T11:21:16.000Z</time>
      </trkpt>
      <trkpt lat="47.50742" lon="6.76006">
        <ele>383</ele>
        <time>2015-12-20T11:21:17.000Z</time>
      </trkpt>
      <trkpt lat="47.50741" lon="6.7601">
        <ele>383</ele>
        <time>2015-12-20T11:21:18.000Z</time>
      </trkpt>
      <trkpt lat="47.50741" lon="6.76014">
        <ele>384</ele>
        <time>2015-12-20T11:21:19.000Z</time>
      </trkpt>
      <trkpt lat="47.50741" lon="6.76018">
        <ele>384</ele>
        <time>2015-12-20T11:21:20.000Z</time>
      </trkpt>
      <trkpt lat="47.50741" lon="6.76021">
        <ele>384</ele>
        <time>2015-12-20T11:21:21.000Z</time>
      </trkpt>
      <trkpt lat="47.5074" lon="6.76025">
        <ele>385</ele>
        <time>2015-12-20T11:21:22.000Z</time>
      </trkpt>
      <trkpt lat="47.50739" lon="6.7603">
        <ele>385</ele>
        <time>2015-12-20T11:21:23.000Z</time>
      </trkpt>
      <trkpt lat="47.50739" lon="6.76034">
        <ele>385</ele>
        <time>2015-12-20T11:21:24.000Z</time>
      </trkpt>
      <trkpt lat="47.50738" lon="6.76038">
        <ele>385</ele>
        <time>2015-12-20T11:21:25.000Z</time>
      </trkpt>
      <trkpt lat="47.50737" lon="6.76042">
        <ele>385</ele>
        <time>2015-12-20T11:21:26.000Z</time>
      </trkpt>
      <trkpt lat="47.50737" lon="6.76046">
        <ele>386</ele>
        <time>2015-12-20T11:21:27.000Z</time>
      </trkpt>
      <trkpt lat="47.50737" lon="6.76049">
        <ele>386</ele>
        <time>2015-12-20T11:21:28.000Z</time>
      </trkpt>
      <trkpt lat="47.50737" lon="6.76052">
        <ele>386</ele>
        <time>2015-12-20T11:21:29.000Z</time>
      </trkpt>
      <trkpt lat="47.50737" lon="6.76056">
        <ele>386</ele>
        <time>2015-12-20T11:21:30.000Z</time>
      </trkpt>
      <trkpt lat="47.50737" lon="6.76059">
        <ele>386</ele>
        <time>2015-12-20T11:21:31.000Z</time>
      </trkpt>
      <trkpt lat="47.50737" lon="6.76062">
        <ele>386</ele>
        <time>2015-12-20T11:21:32.000Z</time>
      </trkpt>
      <trkpt lat="47.50737" lon="6.76066">
        <ele>385</ele>
        <time>2015-12-20T11:21:33.000Z</time>
      </trkpt>
      <trkpt lat="47.50738" lon="6.76071">
        <ele>385</ele>
        <time>2015-12-20T11:21:34.000Z</time>
      </trkpt>
      <trkpt lat="47.50738" lon="6.76076">
        <ele>385</ele>
        <time>2015-12-20T11:21:35.000Z</time>
      </trkpt>
      <trkpt lat="47.50738" lon="6.76081">
        <ele>385</ele>
        <time>2015-12-20T11:21:36.000Z</time>
      </trkpt>
      <trkpt lat="47.50739" lon="6.76086">
        <ele>386</ele>
        <time>2015-12-20T11:21:37.000Z</time>
      </trkpt>
      <trkpt lat="47.50738" lon="6.76091">
        <ele>386</ele>
        <time>2015-12-20T11:21:38.000Z</time>
      </trkpt>
      <trkpt lat="47.50738" lon="6.76097">
        <ele>387</ele>
        <time>2015-12-20T11:21:39.000Z</time>
      </trkpt>
      <trkpt lat="47.50738" lon="6.76102">
        <ele>387</ele>
        <time>2015-12-20T11:21:40.000Z</time>
      </trkpt>
      <trkpt lat="47.50737" lon="6.76107">
        <ele>387</ele>
        <time>2015-12-20T11:21:41.000Z</time>
      </trkpt>
      <trkpt lat="47.50737" lon="6.76113">
        <ele>388</ele>
        <time>2015-12-20T11:21:42.000Z</time>
      </trkpt>
      <trkpt lat="47.50737" lon="6.76118">
        <ele>388</ele>
        <time>2015-12-20T11:21:43.000Z</time>
      </trkpt>
      <trkpt lat="47.50737" lon="6.76123">
        <ele>388</ele>
        <time>2015-12-20T11:21:44.000Z</time>
      </trkpt>
      <trkpt lat="47.50737" lon="6.76128">
        <ele>388</ele>
        <time>2015-12-20T11:21:45.000Z</time>
      </trkpt>
      <trkpt lat="47.50737" lon="6.76133">
        <ele>388</ele>
        <time>2015-12-20T11:21:46.000Z</time>
      </trkpt>
      <trkpt lat="47.50737" lon="6.76138">
        <ele>388</ele>
        <time>2015-12-20T11:21:47.000Z</time>
      </trkpt>
      <trkpt lat="47.50737" lon="6.76144">
        <ele>388</ele>
        <time>2015-12-20T11:21:48.000Z</time>
      </trkpt>
      <trkpt lat="47.50738" lon="6.76149">
        <ele>388</ele>
        <time>2015-12-20T11:21:49.000Z</time>
      </trkpt>
      <trkpt lat="47.50738" lon="6.76154">
        <ele>388</ele>
        <time>2015-12-20T11:21:50.000Z</time>
      </trkpt>
      <trkpt lat="47.50738" lon="6.76163">
        <ele>387</ele>
        <time>2015-12-20T11:21:52.000Z</time>
      </trkpt>
      <trkpt lat="47.50738" lon="6.76168">
        <ele>387</ele>
        <time>2015-12-20T11:21:53.000Z</time>
      </trkpt>
      <trkpt lat="47.50738" lon="6.76172">
        <ele>387</ele>
        <time>2015-12-20T11:21:54.000Z</time>
      </trkpt>
      <trkpt lat="47.50738" lon="6.76177">
        <ele>387</ele>
        <time>2015-12-20T11:21:55.000Z</time>
      </trkpt>
      <trkpt lat="47.50738" lon="6.76181">
        <ele>387</ele>
        <time>2015-12-20T11:21:56.000Z</time>
      </trkpt>
      <trkpt lat="47.50738" lon="6.76186">
        <ele>388</ele>
        <time>2015-12-20T11:21:57.000Z</time>
      </trkpt>
      <trkpt lat="47.50739" lon="6.7619">
        <ele>388</ele>
        <time>2015-12-20T11:21:58.000Z</time>
      </trkpt>
      <trkpt lat="47.50739" lon="6.76194">
        <ele>388</ele>
        <time>2015-12-20T11:21:59.000Z</time>
      </trkpt>
      <trkpt lat="47.5074" lon="6.76199">
        <ele>388</ele>
        <time>2015-12-20T11:22:00.000Z</time>
      </trkpt>
      <trkpt lat="47.5074" lon="6.76203">
        <ele>388</ele>
        <time>2015-12-20T11:22:01.000Z</time>
      </trkpt>
      <trkpt lat="47.5074" lon="6.76207">
        <ele>388</ele>
        <time>2015-12-20T11:22:02.000Z</time>
      </trkpt>
      <trkpt lat="47.5074" lon="6.76212">
        <ele>387</ele>
        <time>2015-12-20T11:22:03.000Z</time>
      </trkpt>
      <trkpt lat="47.5074" lon="6.76216">
        <ele>387</ele>
        <time>2015-12-20T11:22:04.000Z</time>
      </trkpt>
      <trkpt lat="47.50741" lon="6.76221">
        <ele>387</ele>
        <time>2015-12-20T11:22:05.000Z</time>
      </trkpt>
      <trkpt lat="47.50741" lon="6.76225">
        <ele>387</ele>
        <time>2015-12-20T11:22:05.999Z</time>
      </trkpt>
      <trkpt lat="47.50741" lon="6.7623">
        <ele>387</ele>
        <time>2015-12-20T11:22:07.000Z</time>
      </trkpt>
      <trkpt lat="47.50742" lon="6.76234">
        <ele>386</ele>
        <time>2015-12-20T11:22:08.000Z</time>
      </trkpt>
      <trkpt lat="47.50742" lon="6.76238">
        <ele>386</ele>
        <time>2015-12-20T11:22:08.999Z</time>
      </trkpt>
      <trkpt lat="47.50742" lon="6.76243">
        <ele>386</ele>
        <time>2015-12-20T11:22:10.000Z</time>
      </trkpt>
      <trkpt lat="47.50742" lon="6.76247">
        <ele>385</ele>
        <time>2015-12-20T11:22:11.000Z</time>
      </trkpt>
      <trkpt lat="47.50742" lon="6.76252">
        <ele>385</ele>
        <time>2015-12-20T11:22:12.000Z</time>
      </trkpt>
      <trkpt lat="47.50743" lon="6.76256">
        <ele>385</ele>
        <time>2015-12-20T11:22:13.000Z</time>
      </trkpt>
      <trkpt lat="47.50744" lon="6.7626">
        <ele>385</ele>
        <time>2015-12-20T11:22:14.000Z</time>
      </trkpt>
      <trkpt lat="47.50746" lon="6.76263">
        <ele>385</ele>
        <time>2015-12-20T11:22:15.000Z</time>
      </trkpt>
      <trkpt lat="47.50747" lon="6.76267">
        <ele>385</ele>
        <time>2015-12-20T11:22:16.000Z</time>
      </trkpt>
      <trkpt lat="47.50748" lon="6.7627">
        <ele>385</ele>
        <time>2015-12-20T11:22:17.000Z</time>
      </trkpt>
      <trkpt lat="47.50749" lon="6.76274">
        <ele>385</ele>
        <time>2015-12-20T11:22:18.000Z</time>
      </trkpt>
      <trkpt lat="47.5075" lon="6.76278">
        <ele>386</ele>
        <time>2015-12-20T11:22:19.000Z</time>
      </trkpt>
      <trkpt lat="47.5075" lon="6.76282">
        <ele>386</ele>
        <time>2015-12-20T11:22:20.000Z</time>
      </trkpt>
      <trkpt lat="47.50751" lon="6.76286">
        <ele>386</ele>
        <time>2015-12-20T11:22:21.000Z</time>
      </trkpt>
      <trkpt lat="47.50752" lon="6.7629">
        <ele>386</ele>
        <time>2015-12-20T11:22:22.000Z</time>
      </trkpt>
      <trkpt lat="47.50753" lon="6.76293">
        <ele>385</ele>
        <time>2015-12-20T11:22:23.000Z</time>
      </trkpt>
      <trkpt lat="47.50754" lon="6.76296">
        <ele>385</ele>
        <time>2015-12-20T11:22:24.000Z</time>
      </trkpt>
      <trkpt lat="47.50756" lon="6.76299">
        <ele>385</ele>
        <time>2015-12-20T11:22:25.000Z</time>
      </trkpt>
      <trkpt lat="47.50757" lon="6.76303">
        <ele>385</ele>
        <time>2015-12-20T11:22:26.000Z</time>
      </trkpt>
      <trkpt lat="47.50758" lon="6.76306">
        <ele>385</ele>
        <time>2015-12-20T11:22:27.000Z</time>
      </trkpt>
      <trkpt lat="47.5076" lon="6.7631">
        <ele>385</ele>
        <time>2015-12-20T11:22:28.000Z</time>
      </trkpt>
      <trkpt lat="47.50761" lon="6.76314">
        <ele>385</ele>
        <time>2015-12-20T11:22:29.000Z</time>
      </trkpt>
      <trkpt lat="47.50763" lon="6.76319">
        <ele>385</ele>
        <time>2015-12-20T11:22:30.000Z</time>
      </trkpt>
      <trkpt lat="47.50764" lon="6.76322">
        <ele>385</ele>
        <time>2015-12-20T11:22:31.000Z</time>
      </trkpt>
      <trkpt lat="47.50765" lon="6.76326">
        <ele>384</ele>
        <time>2015-12-20T11:22:32.000Z</time>
      </trkpt>
      <trkpt lat="47.50767" lon="6.76332">
        <ele>384</ele>
        <time>2015-12-20T11:22:34.000Z</time>
      </trkpt>
      <trkpt lat="47.50767" lon="6.76334">
        <ele>385</ele>
        <time>2015-12-20T11:22:35.000Z</time>
      </trkpt>
      <trkpt lat="47.50768" lon="6.76337">
        <ele>385</ele>
        <time>2015-12-20T11:22:36.000Z</time>
      </trkpt>
      <trkpt lat="47.50769" lon="6.7634">
        <ele>385</ele>
        <time>2015-12-20T11:22:37.000Z</time>
      </trkpt>
      <trkpt lat="47.5077" lon="6.76343">
        <ele>385</ele>
        <time>2015-12-20T11:22:38.000Z</time>
      </trkpt>
      <trkpt lat="47.50771" lon="6.76347">
        <ele>386</ele>
        <time>2015-12-20T11:22:39.000Z</time>
      </trkpt>
      <trkpt lat="47.50772" lon="6.7635">
        <ele>386</ele>
        <time>2015-12-20T11:22:40.000Z</time>
      </trkpt>
      <trkpt lat="47.50773" lon="6.76353">
        <ele>386</ele>
        <time>2015-12-20T11:22:41.000Z</time>
      </trkpt>
      <trkpt lat="47.50775" lon="6.76357">
        <ele>387</ele>
        <time>2015-12-20T11:22:42.000Z</time>
      </trkpt>
      <trkpt lat="47.50776" lon="6.7636">
        <ele>387</ele>
        <time>2015-12-20T11:22:43.000Z</time>
      </trkpt>
      <trkpt lat="47.50777" lon="6.76364">
        <ele>387</ele>
        <time>2015-12-20T11:22:44.000Z</time>
      </trkpt>
      <trkpt lat="47.50779" lon="6.76368">
        <ele>387</ele>
        <time>2015-12-20T11:22:45.000Z</time>
      </trkpt>
      <trkpt lat="47.5078" lon="6.76371">
        <ele>387</ele>
        <time>2015-12-20T11:22:46.000Z</time>
      </trkpt>
      <trkpt lat="47.50782" lon="6.76375">
        <ele>387</ele>
        <time>2015-12-20T11:22:47.000Z</time>
      </trkpt>
      <trkpt lat="47.50783" lon="6.76378">
        <ele>388</ele>
        <time>2015-12-20T11:22:48.000Z</time>
      </trkpt>
      <trkpt lat="47.50784" lon="6.7638">
        <ele>388</ele>
        <time>2015-12-20T11:22:49.000Z</time>
      </trkpt>
      <trkpt lat="47.50786" lon="6.76386">
        <ele>388</ele>
        <time>2015-12-20T11:22:51.000Z</time>
      </trkpt>
      <trkpt lat="47.50786" lon="6.76389">
        <ele>388</ele>
        <time>2015-12-20T11:22:52.000Z</time>
      </trkpt>
      <trkpt lat="47.50788" lon="6.76395">
        <ele>388</ele>
        <time>2015-12-20T11:22:54.000Z</time>
      </trkpt>
      <trkpt lat="47.50788" lon="6.76398">
        <ele>388</ele>
        <time>2015-12-20T11:22:55.000Z</time>
      </trkpt>
      <trkpt lat="47.5079" lon="6.76404">
        <ele>388</ele>
        <time>2015-12-20T11:22:57.000Z</time>
      </trkpt>
      <trkpt lat="47.5079" lon="6.76407">
        <ele>388</ele>
        <time>2015-12-20T11:22:58.000Z</time>
      </trkpt>
      <trkpt lat="47.50791" lon="6.76413">
        <ele>389</ele>
        <time>2015-12-20T11:23:00.000Z</time>
      </trkpt>
      <trkpt lat="47.50792" lon="6.76416">
        <ele>389</ele>
        <time>2015-12-20T11:23:01.000Z</time>
      </trkpt>
      <trkpt lat="47.50792" lon="6.76419">
        <ele>391</ele>
        <time>2015-12-20T11:23:02.000Z</time>
      </trkpt>
      <trkpt lat="47.50792" lon="6.76423">
        <ele>391</ele>
        <time>2015-12-20T11:23:03.000Z</time>
      </trkpt>
      <trkpt lat="47.50792" lon="6.76427">
        <ele>391</ele>
        <time>2015-12-20T11:23:04.000Z</time>
      </trkpt>
      <trkpt lat="47.50793" lon="6.7643">
        <ele>391</ele>
        <time>2015-12-20T11:23:05.000Z</time>
      </trkpt>
      <trkpt lat="47.50793" lon="6.76434">
        <ele>391</ele>
        <time>2015-12-20T11:23:06.000Z</time>
      </trkpt>
      <trkpt lat="47.50793" lon="6.76438">
        <ele>391</ele>
        <time>2015-12-20T11:23:07.000Z</time>
      </trkpt>
      <trkpt lat="47.50794" lon="6.76444">
        <ele>391</ele>
        <time>2015-12-20T11:23:09.000Z</time>
      </trkpt>
      <trkpt lat="47.50794" lon="6.76447">
        <ele>391</ele>
        <time>2015-12-20T11:23:10.001Z</time>
      </trkpt>
      <trkpt lat="47.50794" lon="6.76453">
        <ele>391</ele>
        <time>2015-12-20T11:23:12.000Z</time>
      </trkpt>
      <trkpt lat="47.50794" lon="6.76456">
        <ele>391</ele>
        <time>2015-12-20T11:23:13.000Z</time>
      </trkpt>
      <trkpt lat="47.50794" lon="6.76461">
        <ele>391</ele>
        <time>2015-12-20T11:23:15.000Z</time>
      </trkpt>
      <trkpt lat="47.50794" lon="6.76464">
        <ele>391</ele>
        <time>2015-12-20T11:23:16.000Z</time>
      </trkpt>
      <trkpt lat="47.50795" lon="6.76469">
        <ele>391</ele>
        <time>2015-12-20T11:23:18.000Z</time>
      </trkpt>
      <trkpt lat="47.50795" lon="6.76473">
        <ele>391</ele>
        <time>2015-12-20T11:23:19.000Z</time>
      </trkpt>
      <trkpt lat="47.50795" lon="6.76476">
        <ele>391</ele>
        <time>2015-12-20T11:23:20.000Z</time>
      </trkpt>
      <trkpt lat="47.50795" lon="6.7648">
        <ele>392</ele>
        <time>2015-12-20T11:23:21.000Z</time>
      </trkpt>
      <trkpt lat="47.50794" lon="6.76483">
        <ele>392</ele>
        <time>2015-12-20T11:23:21.999Z</time>
      </trkpt>
      <trkpt lat="47.50793" lon="6.76487">
        <ele>392</ele>
        <time>2015-12-20T11:23:23.000Z</time>
      </trkpt>
      <trkpt lat="47.50792" lon="6.76491">
        <ele>392</ele>
        <time>2015-12-20T11:23:24.000Z</time>
      </trkpt>
      <trkpt lat="47.50791" lon="6.76494">
        <ele>392</ele>
        <time>2015-12-20T11:23:25.000Z</time>
      </trkpt>
      <trkpt lat="47.50791" lon="6.76499">
        <ele>392</ele>
        <time>2015-12-20T11:23:26.000Z</time>
      </trkpt>
      <trkpt lat="47.50792" lon="6.76503">
        <ele>392</ele>
        <time>2015-12-20T11:23:27.000Z</time>
      </trkpt>
      <trkpt lat="47.50793" lon="6.76508">
        <ele>392</ele>
        <time>2015-12-20T11:23:28.000Z</time>
      </trkpt>
      <trkpt lat="47.50794" lon="6.76512">
        <ele>392</ele>
        <time>2015-12-20T11:23:29.000Z</time>
      </trkpt>
      <trkpt lat="47.50796" lon="6.76516">
        <ele>392</ele>
        <time>2015-12-20T11:23:30.000Z</time>
      </trkpt>
      <trkpt lat="47.50798" lon="6.76521">
        <ele>392</ele>
        <time>2015-12-20T11:23:31.000Z</time>
      </trkpt>
      <trkpt lat="47.50799" lon="6.76526">
        <ele>392</ele>
        <time>2015-12-20T11:23:32.000Z</time>
      </trkpt>
      <trkpt lat="47.50801" lon="6.76531">
        <ele>392</ele>
        <time>2015-12-20T11:23:33.000Z</time>
      </trkpt>
      <trkpt lat="47.50802" lon="6.76536">
        <ele>392</ele>
        <time>2015-12-20T11:23:33.999Z</time>
      </trkpt>
      <trkpt lat="47.50802" lon="6.76541">
        <ele>392</ele>
        <time>2015-12-20T11:23:35.000Z</time>
      </trkpt>
      <trkpt lat="47.50803" lon="6.76546">
        <ele>392</ele>
        <time>2015-12-20T11:23:35.999Z</time>
      </trkpt>
      <trkpt lat="47.50804" lon="6.76553">
        <ele>392</ele>
        <time>2015-12-20T11:23:37.000Z</time>
      </trkpt>
      <trkpt lat="47.50805" lon="6.76559">
        <ele>392</ele>
        <time>2015-12-20T11:23:38.000Z</time>
      </trkpt>
      <trkpt lat="47.50806" lon="6.76564">
        <ele>391</ele>
        <time>2015-12-20T11:23:38.999Z</time>
      </trkpt>
      <trkpt lat="47.50807" lon="6.76571">
        <ele>391</ele>
        <time>2015-12-20T11:23:40.000Z</time>
      </trkpt>
      <trkpt lat="47.50809" lon="6.76576">
        <ele>391</ele>
        <time>2015-12-20T11:23:41.000Z</time>
      </trkpt>
      <trkpt lat="47.50812" lon="6.76584">
        <ele>390</ele>
        <time>2015-12-20T11:23:42.000Z</time>
      </trkpt>
      <trkpt lat="47.50814" lon="6.7659">
        <ele>390</ele>
        <time>2015-12-20T11:23:43.000Z</time>
      </trkpt>
      <trkpt lat="47.50815" lon="6.76596">
        <ele>390</ele>
        <time>2015-12-20T11:23:44.000Z</time>
      </trkpt>
      <trkpt lat="47.50818" lon="6.76602">
        <ele>390</ele>
        <time>2015-12-20T11:23:45.000Z</time>
      </trkpt>
      <trkpt lat="47.5082" lon="6.76608">
        <ele>390</ele>
        <time>2015-12-20T11:23:46.000Z</time>
      </trkpt>
      <trkpt lat="47.50822" lon="6.76615">
        <ele>390</ele>
        <time>2015-12-20T11:23:47.000Z</time>
      </trkpt>
      <trkpt lat="47.50825" lon="6.76622">
        <ele>390</ele>
        <time>2015-12-20T11:23:47.999Z</time>
      </trkpt>
      <trkpt lat="47.50829" lon="6.7663">
        <ele>390</ele>
        <time>2015-12-20T11:23:49.000Z</time>
      </trkpt>
      <trkpt lat="47.50833" lon="6.76637">
        <ele>390</ele>
        <time>2015-12-20T11:23:50.000Z</time>
      </trkpt>
      <trkpt lat="47.50836" lon="6.76645">
        <ele>387</ele>
        <time>2015-12-20T11:23:51.000Z</time>
      </trkpt>
      <trkpt lat="47.5084" lon="6.76654">
        <ele>388</ele>
        <time>2015-12-20T11:23:52.000Z</time>
      </trkpt>
      <trkpt lat="47.50843" lon="6.76662">
        <ele>388</ele>
        <time>2015-12-20T11:23:53.000Z</time>
      </trkpt>
      <trkpt lat="47.50847" lon="6.76672">
        <ele>386</ele>
        <time>2015-12-20T11:23:54.000Z</time>
      </trkpt>
      <trkpt lat="47.5085" lon="6.76681">
        <ele>386</ele>
        <time>2015-12-20T11:23:55.000Z</time>
      </trkpt>
      <trkpt lat="47.50854" lon="6.7669">
        <ele>385</ele>
        <time>2015-12-20T11:23:56.000Z</time>
      </trkpt>
      <trkpt lat="47.50858" lon="6.76699">
        <ele>384</ele>
        <time>2015-12-20T11:23:57.000Z</time>
      </trkpt>
      <trkpt lat="47.50861" lon="6.76708">
        <ele>384</ele>
        <time>2015-12-20T11:23:58.000Z</time>
      </trkpt>
      <trkpt lat="47.50865" lon="6.76717">
        <ele>384</ele>
        <time>2015-12-20T11:23:59.000Z</time>
      </trkpt>
      <trkpt lat="47.50868" lon="6.76727">
        <ele>383</ele>
        <time>2015-12-20T11:24:00.000Z</time>
      </trkpt>
      <trkpt lat="47.50872" lon="6.76737">
        <ele>383</ele>
        <time>2015-12-20T11:24:01.000Z</time>
      </trkpt>
      <trkpt lat="47.50875" lon="6.76745">
        <ele>383</ele>
        <time>2015-12-20T11:24:02.000Z</time>
      </trkpt>
      <trkpt lat="47.50879" lon="6.76755">
        <ele>382</ele>
        <time>2015-12-20T11:24:03.000Z</time>
      </trkpt>
      <trkpt lat="47.50883" lon="6.76765">
        <ele>381</ele>
        <time>2015-12-20T11:24:04.000Z</time>
      </trkpt>
      <trkpt lat="47.50887" lon="6.76774">
        <ele>381</ele>
        <time>2015-12-20T11:24:05.000Z</time>
      </trkpt>
      <trkpt lat="47.5089" lon="6.76783">
        <ele>381</ele>
        <time>2015-12-20T11:24:06.000Z</time>
      </trkpt>
      <trkpt lat="47.50893" lon="6.76793">
        <ele>381</ele>
        <time>2015-12-20T11:24:07.000Z</time>
      </trkpt>
      <trkpt lat="47.50897" lon="6.76802">
        <ele>381</ele>
        <time>2015-12-20T11:24:08.000Z</time>
      </trkpt>
      <trkpt lat="47.50901" lon="6.76812">
        <ele>381</ele>
        <time>2015-12-20T11:24:09.000Z</time>
      </trkpt>
      <trkpt lat="47.50905" lon="6.76821">
        <ele>381</ele>
        <time>2015-12-20T11:24:10.000Z</time>
      </trkpt>
      <trkpt lat="47.50908" lon="6.7683">
        <ele>380</ele>
        <time>2015-12-20T11:24:11.000Z</time>
      </trkpt>
      <trkpt lat="47.50912" lon="6.76839">
        <ele>380</ele>
        <time>2015-12-20T11:24:12.000Z</time>
      </trkpt>
      <trkpt lat="47.50917" lon="6.76848">
        <ele>379</ele>
        <time>2015-12-20T11:24:13.000Z</time>
      </trkpt>
      <trkpt lat="47.50921" lon="6.76856">
        <ele>379</ele>
        <time>2015-12-20T11:24:14.000Z</time>
      </trkpt>
      <trkpt lat="47.50926" lon="6.76865">
        <ele>378</ele>
        <time>2015-12-20T11:24:15.000Z</time>
      </trkpt>
      <trkpt lat="47.50931" lon="6.76872">
        <ele>378</ele>
        <time>2015-12-20T11:24:16.000Z</time>
      </trkpt>
      <trkpt lat="47.50935" lon="6.76878">
        <ele>378</ele>
        <time>2015-12-20T11:24:17.000Z</time>
      </trkpt>
      <trkpt lat="47.5094" lon="6.76884">
        <ele>378</ele>
        <time>2015-12-20T11:24:18.000Z</time>
      </trkpt>
      <trkpt lat="47.50946" lon="6.76889">
        <ele>378</ele>
        <time>2015-12-20T11:24:19.000Z</time>
      </trkpt>
      <trkpt lat="47.5095" lon="6.76897">
        <ele>378</ele>
        <time>2015-12-20T11:24:20.000Z</time>
      </trkpt>
      <trkpt lat="47.50956" lon="6.76902">
        <ele>377</ele>
        <time>2015-12-20T11:24:21.000Z</time>
      </trkpt>
      <trkpt lat="47.50961" lon="6.76909">
        <ele>377</ele>
        <time>2015-12-20T11:24:22.000Z</time>
      </trkpt>
      <trkpt lat="47.50965" lon="6.76916">
        <ele>377</ele>
        <time>2015-12-20T11:24:23.000Z</time>
      </trkpt>
      <trkpt lat="47.5097" lon="6.76923">
        <ele>374</ele>
        <time>2015-12-20T11:24:24.000Z</time>
      </trkpt>
      <trkpt lat="47.50973" lon="6.76931">
        <ele>374</ele>
        <time>2015-12-20T11:24:25.000Z</time>
      </trkpt>
      <trkpt lat="47.50977" lon="6.76936">
        <ele>374</ele>
        <time>2015-12-20T11:24:26.000Z</time>
      </trkpt>
      <trkpt lat="47.50982" lon="6.7694">
        <ele>374</ele>
        <time>2015-12-20T11:24:27.000Z</time>
      </trkpt>
      <trkpt lat="47.50989" lon="6.7694">
        <ele>374</ele>
        <time>2015-12-20T11:24:28.000Z</time>
      </trkpt>
      <trkpt lat="47.50995" lon="6.7694">
        <ele>374</ele>
        <time>2015-12-20T11:24:29.000Z</time>
      </trkpt>
      <trkpt lat="47.51" lon="6.76939">
        <ele>375</ele>
        <time>2015-12-20T11:24:30.001Z</time>
      </trkpt>
      <trkpt lat="47.51008" lon="6.7694">
        <ele>375</ele>
        <time>2015-12-20T11:24:31.000Z</time>
      </trkpt>
      <trkpt lat="47.51015" lon="6.76942">
        <ele>375</ele>
        <time>2015-12-20T11:24:32.000Z</time>
      </trkpt>
      <trkpt lat="47.51021" lon="6.76944">
        <ele>375</ele>
        <time>2015-12-20T11:24:33.000Z</time>
      </trkpt>
      <trkpt lat="47.51026" lon="6.76946">
        <ele>375</ele>
        <time>2015-12-20T11:24:34.000Z</time>
      </trkpt>
      <trkpt lat="47.51032" lon="6.76951">
        <ele>375</ele>
        <time>2015-12-20T11:24:35.000Z</time>
      </trkpt>
      <trkpt lat="47.51038" lon="6.76955">
        <ele>375</ele>
        <time>2015-12-20T11:24:36.000Z</time>
      </trkpt>
      <trkpt lat="47.51044" lon="6.76962">
        <ele>375</ele>
        <time>2015-12-20T11:24:37.000Z</time>
      </trkpt>
      <trkpt lat="47.51049" lon="6.76966">
        <ele>375</ele>
        <time>2015-12-20T11:24:38.000Z</time>
      </trkpt>
      <trkpt lat="47.51054" lon="6.76971">
        <ele>375</ele>
        <time>2015-12-20T11:24:39.000Z</time>
      </trkpt>
      <trkpt lat="47.5106" lon="6.76975">
        <ele>375</ele>
        <time>2015-12-20T11:24:40.000Z</time>
      </trkpt>
      <trkpt lat="47.51065" lon="6.76978">
        <ele>375</ele>
        <time>2015-12-20T11:24:41.000Z</time>
      </trkpt>
      <trkpt lat="47.5107" lon="6.76983">
        <ele>375</ele>
        <time>2015-12-20T11:24:42.000Z</time>
      </trkpt>
      <trkpt lat="47.51076" lon="6.76987">
        <ele>375</ele>
        <time>2015-12-20T11:24:43.000Z</time>
      </trkpt>
      <trkpt lat="47.51081" lon="6.76991">
        <ele>375</ele>
        <time>2015-12-20T11:24:44.000Z</time>
      </trkpt>
      <trkpt lat="47.51087" lon="6.76996">
        <ele>375</ele>
        <time>2015-12-20T11:24:45.000Z</time>
      </trkpt>
      <trkpt lat="47.51091" lon="6.77">
        <ele>375</ele>
        <time>2015-12-20T11:24:46.000Z</time>
      </trkpt>
      <trkpt lat="47.51096" lon="6.77004">
        <ele>375</ele>
        <time>2015-12-20T11:24:47.000Z</time>
      </trkpt>
      <trkpt lat="47.51101" lon="6.77008">
        <ele>375</ele>
        <time>2015-12-20T11:24:48.000Z</time>
      </trkpt>
      <trkpt lat="47.51105" lon="6.77012">
        <ele>375</ele>
        <time>2015-12-20T11:24:49.000Z</time>
      </trkpt>
      <trkpt lat="47.5111" lon="6.77016">
        <ele>375</ele>
        <time>2015-12-20T11:24:50.000Z</time>
      </trkpt>
      <trkpt lat="47.51114" lon="6.7702">
        <ele>375</ele>
        <time>2015-12-20T11:24:51.000Z</time>
      </trkpt>
      <trkpt lat="47.51118" lon="6.77024">
        <ele>375</ele>
        <time>2015-12-20T11:24:52.000Z</time>
      </trkpt>
      <trkpt lat="47.51123" lon="6.77029">
        <ele>375</ele>
        <time>2015-12-20T11:24:53.000Z</time>
      </trkpt>
      <trkpt lat="47.51127" lon="6.77033">
        <ele>375</ele>
        <time>2015-12-20T11:24:54.000Z</time>
      </trkpt>
      <trkpt lat="47.51133" lon="6.77036">
        <ele>375</ele>
        <time>2015-12-20T11:24:55.000Z</time>
      </trkpt>
      <trkpt lat="47.51137" lon="6.7704">
        <ele>375</ele>
        <time>2015-12-20T11:24:56.000Z</time>
      </trkpt>
      <trkpt lat="47.51141" lon="6.77044">
        <ele>376</ele>
        <time>2015-12-20T11:24:57.000Z</time>
      </trkpt>
      <trkpt lat="47.51145" lon="6.77048">
        <ele>376</ele>
        <time>2015-12-20T11:24:58.000Z</time>
      </trkpt>
      <trkpt lat="47.51149" lon="6.77052">
        <ele>376</ele>
        <time>2015-12-20T11:24:59.000Z</time>
      </trkpt>
      <trkpt lat="47.51152" lon="6.77056">
        <ele>376</ele>
        <time>2015-12-20T11:25:00.000Z</time>
      </trkpt>
      <trkpt lat="47.51156" lon="6.7706">
        <ele>376</ele>
        <time>2015-12-20T11:25:01.000Z</time>
      </trkpt>
      <trkpt lat="47.5116" lon="6.77065">
        <ele>376</ele>
        <time>2015-12-20T11:25:02.000Z</time>
      </trkpt>
      <trkpt lat="47.51164" lon="6.77068">
        <ele>377</ele>
        <time>2015-12-20T11:25:03.000Z</time>
      </trkpt>
      <trkpt lat="47.51168" lon="6.77072">
        <ele>377</ele>
        <time>2015-12-20T11:25:04.000Z</time>
      </trkpt>
      <trkpt lat="47.51172" lon="6.77077">
        <ele>377</ele>
        <time>2015-12-20T11:25:05.000Z</time>
      </trkpt>
      <trkpt lat="47.51175" lon="6.77082">
        <ele>377</ele>
        <time>2015-12-20T11:25:06.000Z</time>
      </trkpt>
      <trkpt lat="47.51178" lon="6.77088">
        <ele>378</ele>
        <time>2015-12-20T11:25:07.000Z</time>
      </trkpt>
      <trkpt lat="47.51181" lon="6.77094">
        <ele>378</ele>
        <time>2015-12-20T11:25:08.000Z</time>
      </trkpt>
      <trkpt lat="47.51184" lon="6.771">
        <ele>378</ele>
        <time>2015-12-20T11:25:09.000Z</time>
      </trkpt>
      <trkpt lat="47.51187" lon="6.77107">
        <ele>378</ele>
        <time>2015-12-20T11:25:10.000Z</time>
      </trkpt>
      <trkpt lat="47.5119" lon="6.77113">
        <ele>378</ele>
        <time>2015-12-20T11:25:11.000Z</time>
      </trkpt>
      <trkpt lat="47.51193" lon="6.77118">
        <ele>378</ele>
        <time>2015-12-20T11:25:12.000Z</time>
      </trkpt>
      <trkpt lat="47.51195" lon="6.77125">
        <ele>378</ele>
        <time>2015-12-20T11:25:13.000Z</time>
      </trkpt>
      <trkpt lat="47.51198" lon="6.7713">
        <ele>378</ele>
        <time>2015-12-20T11:25:14.000Z</time>
      </trkpt>
      <trkpt lat="47.51201" lon="6.77136">
        <ele>378</ele>
        <time>2015-12-20T11:25:15.000Z</time>
      </trkpt>
      <trkpt lat="47.51203" lon="6.77141">
        <ele>378</ele>
        <time>2015-12-20T11:25:16.000Z</time>
      </trkpt>
      <trkpt lat="47.51206" lon="6.77146">
        <ele>378</ele>
        <time>2015-12-20T11:25:17.000Z</time>
      </trkpt>
      <trkpt lat="47.51209" lon="6.77151">
        <ele>378</ele>
        <time>2015-12-20T11:25:18.000Z</time>
      </trkpt>
      <trkpt lat="47.51211" lon="6.77155">
        <ele>378</ele>
        <time>2015-12-20T11:25:19.000Z</time>
      </trkpt>
      <trkpt lat="47.51214" lon="6.7716">
        <ele>378</ele>
        <time>2015-12-20T11:25:20.000Z</time>
      </trkpt>
      <trkpt lat="47.51217" lon="6.77165">
        <ele>378</ele>
        <time>2015-12-20T11:25:21.000Z</time>
      </trkpt>
      <trkpt lat="47.5122" lon="6.77169">
        <ele>376</ele>
        <time>2015-12-20T11:25:22.000Z</time>
      </trkpt>
      <trkpt lat="47.51223" lon="6.77174">
        <ele>377</ele>
        <time>2015-12-20T11:25:23.000Z</time>
      </trkpt>
      <trkpt lat="47.51226" lon="6.77179">
        <ele>377</ele>
        <time>2015-12-20T11:25:24.000Z</time>
      </trkpt>
      <trkpt lat="47.51228" lon="6.77184">
        <ele>376</ele>
        <time>2015-12-20T11:25:25.000Z</time>
      </trkpt>
      <trkpt lat="47.5123" lon="6.77189">
        <ele>376</ele>
        <time>2015-12-20T11:25:26.000Z</time>
      </trkpt>
      <trkpt lat="47.51233" lon="6.77194">
        <ele>376</ele>
        <time>2015-12-20T11:25:27.000Z</time>
      </trkpt>
      <trkpt lat="47.51235" lon="6.77199">
        <ele>376</ele>
        <time>2015-12-20T11:25:28.000Z</time>
      </trkpt>
      <trkpt lat="47.51238" lon="6.77203">
        <ele>376</ele>
        <time>2015-12-20T11:25:29.000Z</time>
      </trkpt>
      <trkpt lat="47.5124" lon="6.77208">
        <ele>376</ele>
        <time>2015-12-20T11:25:30.000Z</time>
      </trkpt>
      <trkpt lat="47.51242" lon="6.77213">
        <ele>376</ele>
        <time>2015-12-20T11:25:31.000Z</time>
      </trkpt>
      <trkpt lat="47.51244" lon="6.77218">
        <ele>376</ele>
        <time>2015-12-20T11:25:32.000Z</time>
      </trkpt>
      <trkpt lat="47.51246" lon="6.77223">
        <ele>376</ele>
        <time>2015-12-20T11:25:33.000Z</time>
      </trkpt>
      <trkpt lat="47.51248" lon="6.77228">
        <ele>377</ele>
        <time>2015-12-20T11:25:34.000Z</time>
      </trkpt>
      <trkpt lat="47.5125" lon="6.77233">
        <ele>377</ele>
        <time>2015-12-20T11:25:35.000Z</time>
      </trkpt>
      <trkpt lat="47.51252" lon="6.77237">
        <ele>378</ele>
        <time>2015-12-20T11:25:36.000Z</time>
      </trkpt>
      <trkpt lat="47.51255" lon="6.77242">
        <ele>379</ele>
        <time>2015-12-20T11:25:37.000Z</time>
      </trkpt>
      <trkpt lat="47.51257" lon="6.77246">
        <ele>379</ele>
        <time>2015-12-20T11:25:38.000Z</time>
      </trkpt>
      <trkpt lat="47.5126" lon="6.7725">
        <ele>378</ele>
        <time>2015-12-20T11:25:39.000Z</time>
      </trkpt>
      <trkpt lat="47.51263" lon="6.77254">
        <ele>378</ele>
        <time>2015-12-20T11:25:40.000Z</time>
      </trkpt>
      <trkpt lat="47.51266" lon="6.77258">
        <ele>378</ele>
        <time>2015-12-20T11:25:41.002Z</time>
      </trkpt>
      <trkpt lat="47.5127" lon="6.77259">
        <ele>377</ele>
        <time>2015-12-20T11:25:42.000Z</time>
      </trkpt>
      <trkpt lat="47.51276" lon="6.77262">
        <ele>377</ele>
        <time>2015-12-20T11:25:43.000Z</time>
      </trkpt>
      <trkpt lat="47.51282" lon="6.77265">
        <ele>377</ele>
        <time>2015-12-20T11:25:44.000Z</time>
      </trkpt>
      <trkpt lat="47.51287" lon="6.77267">
        <ele>377</ele>
        <time>2015-12-20T11:25:45.000Z</time>
      </trkpt>
      <trkpt lat="47.51292" lon="6.7727">
        <ele>377</ele>
        <time>2015-12-20T11:25:46.000Z</time>
      </trkpt>
      <trkpt lat="47.51298" lon="6.77273">
        <ele>377</ele>
        <time>2015-12-20T11:25:47.000Z</time>
      </trkpt>
      <trkpt lat="47.51303" lon="6.77275">
        <ele>377</ele>
        <time>2015-12-20T11:25:48.000Z</time>
      </trkpt>
      <trkpt lat="47.51308" lon="6.77278">
        <ele>377</ele>
        <time>2015-12-20T11:25:49.000Z</time>
      </trkpt>
      <trkpt lat="47.51314" lon="6.77281">
        <ele>377</ele>
        <time>2015-12-20T11:25:50.000Z</time>
      </trkpt>
      <trkpt lat="47.5132" lon="6.77283">
        <ele>377</ele>
        <time>2015-12-20T11:25:51.000Z</time>
      </trkpt>
      <trkpt lat="47.51326" lon="6.77283">
        <ele>377</ele>
        <time>2015-12-20T11:25:52.000Z</time>
      </trkpt>
      <trkpt lat="47.51332" lon="6.77284">
        <ele>378</ele>
        <time>2015-12-20T11:25:53.000Z</time>
      </trkpt>
      <trkpt lat="47.51338" lon="6.77283">
        <ele>378</ele>
        <time>2015-12-20T11:25:54.000Z</time>
      </trkpt>
      <trkpt lat="47.51345" lon="6.77276">
        <ele>378</ele>
        <time>2015-12-20T11:25:55.000Z</time>
      </trkpt>
      <trkpt lat="47.51351" lon="6.77272">
        <ele>378</ele>
        <time>2015-12-20T11:25:56.000Z</time>
      </trkpt>
      <trkpt lat="47.51359" lon="6.77264">
        <ele>378</ele>
        <time>2015-12-20T11:25:57.000Z</time>
      </trkpt>
      <trkpt lat="47.51366" lon="6.77258">
        <ele>378</ele>
        <time>2015-12-20T11:25:58.000Z</time>
      </trkpt>
      <trkpt lat="47.51373" lon="6.77252">
        <ele>377</ele>
        <time>2015-12-20T11:25:59.000Z</time>
      </trkpt>
      <trkpt lat="47.51383" lon="6.77246">
        <ele>376</ele>
        <time>2015-12-20T11:26:00.000Z</time>
      </trkpt>
      <trkpt lat="47.51391" lon="6.77241">
        <ele>376</ele>
        <time>2015-12-20T11:26:01.000Z</time>
      </trkpt>
      <trkpt lat="47.514" lon="6.77235">
        <ele>376</ele>
        <time>2015-12-20T11:26:02.000Z</time>
      </trkpt>
      <trkpt lat="47.51408" lon="6.7723">
        <ele>376</ele>
        <time>2015-12-20T11:26:03.000Z</time>
      </trkpt>
      <trkpt lat="47.51417" lon="6.77228">
        <ele>375</ele>
        <time>2015-12-20T11:26:04.000Z</time>
      </trkpt>
      <trkpt lat="47.51426" lon="6.77223">
        <ele>375</ele>
        <time>2015-12-20T11:26:05.000Z</time>
      </trkpt>
      <trkpt lat="47.51435" lon="6.77218">
        <ele>375</ele>
        <time>2015-12-20T11:26:06.000Z</time>
      </trkpt>
      <trkpt lat="47.51443" lon="6.77214">
        <ele>375</ele>
        <time>2015-12-20T11:26:07.000Z</time>
      </trkpt>
      <trkpt lat="47.51452" lon="6.7721">
        <ele>375</ele>
        <time>2015-12-20T11:26:08.000Z</time>
      </trkpt>
      <trkpt lat="47.51459" lon="6.77206">
        <ele>375</ele>
        <time>2015-12-20T11:26:09.000Z</time>
      </trkpt>
      <trkpt lat="47.51467" lon="6.77203">
        <ele>375</ele>
        <time>2015-12-20T11:26:10.000Z</time>
      </trkpt>
      <trkpt lat="47.51474" lon="6.77201">
        <ele>375</ele>
        <time>2015-12-20T11:26:11.000Z</time>
      </trkpt>
      <trkpt lat="47.5148" lon="6.772">
        <ele>375</ele>
        <time>2015-12-20T11:26:12.000Z</time>
      </trkpt>
      <trkpt lat="47.51485" lon="6.77203">
        <ele>375</ele>
        <time>2015-12-20T11:26:13.000Z</time>
      </trkpt>
      <trkpt lat="47.51488" lon="6.77208">
        <ele>375</ele>
        <time>2015-12-20T11:26:14.000Z</time>
      </trkpt>
      <trkpt lat="47.51491" lon="6.77215">
        <ele>375</ele>
        <time>2015-12-20T11:26:15.000Z</time>
      </trkpt>
      <trkpt lat="47.5149" lon="6.77224">
        <ele>375</ele>
        <time>2015-12-20T11:26:16.000Z</time>
      </trkpt>
      <trkpt lat="47.5149" lon="6.77232">
        <ele>375</ele>
        <time>2015-12-20T11:26:17.000Z</time>
      </trkpt>
      <trkpt lat="47.5149" lon="6.77241">
        <ele>376</ele>
        <time>2015-12-20T11:26:18.000Z</time>
      </trkpt>
      <trkpt lat="47.51491" lon="6.77249">
        <ele>376</ele>
        <time>2015-12-20T11:26:19.000Z</time>
      </trkpt>
      <trkpt lat="47.51492" lon="6.77256">
        <ele>376</ele>
        <time>2015-12-20T11:26:20.000Z</time>
      </trkpt>
      <trkpt lat="47.51493" lon="6.77264">
        <ele>376</ele>
        <time>2015-12-20T11:26:21.000Z</time>
      </trkpt>
      <trkpt lat="47.51493" lon="6.77272">
        <ele>377</ele>
        <time>2015-12-20T11:26:22.000Z</time>
      </trkpt>
      <trkpt lat="47.51494" lon="6.7728">
        <ele>377</ele>
        <time>2015-12-20T11:26:23.000Z</time>
      </trkpt>
      <trkpt lat="47.51494" lon="6.77287">
        <ele>377</ele>
        <time>2015-12-20T11:26:24.000Z</time>
      </trkpt>
      <trkpt lat="47.51495" lon="6.77295">
        <ele>377</ele>
        <time>2015-12-20T11:26:25.000Z</time>
      </trkpt>
      <trkpt lat="47.51496" lon="6.77302">
        <ele>377</ele>
        <time>2015-12-20T11:26:26.000Z</time>
      </trkpt>
      <trkpt lat="47.51498" lon="6.77307">
        <ele>377</ele>
        <time>2015-12-20T11:26:27.000Z</time>
      </trkpt>
      <trkpt lat="47.51501" lon="6.77313">
        <ele>378</ele>
        <time>2015-12-20T11:26:28.000Z</time>
      </trkpt>
      <trkpt lat="47.51505" lon="6.77317">
        <ele>378</ele>
        <time>2015-12-20T11:26:29.000Z</time>
      </trkpt>
      <trkpt lat="47.51509" lon="6.77322">
        <ele>378</ele>
        <time>2015-12-20T11:26:30.000Z</time>
      </trkpt>
      <trkpt lat="47.51513" lon="6.77326">
        <ele>378</ele>
        <time>2015-12-20T11:26:31.000Z</time>
      </trkpt>
      <trkpt lat="47.51515" lon="6.77329">
        <ele>378</ele>
        <time>2015-12-20T11:26:32.000Z</time>
      </trkpt>
      <trkpt lat="47.51518" lon="6.77332">
        <ele>378</ele>
        <time>2015-12-20T11:26:33.000Z</time>
      </trkpt>
      <trkpt lat="47.51521" lon="6.77335">
        <ele>379</ele>
        <time>2015-12-20T11:26:34.000Z</time>
      </trkpt>
      <trkpt lat="47.51524" lon="6.77337">
        <ele>380</ele>
        <time>2015-12-20T11:26:35.000Z</time>
      </trkpt>
      <trkpt lat="47.51526" lon="6.7734">
        <ele>380</ele>
        <time>2015-12-20T11:26:36.000Z</time>
      </trkpt>
      <trkpt lat="47.51529" lon="6.77342">
        <ele>380</ele>
        <time>2015-12-20T11:26:37.000Z</time>
      </trkpt>
      <trkpt lat="47.51531" lon="6.77345">
        <ele>380</ele>
        <time>2015-12-20T11:26:38.000Z</time>
      </trkpt>
      <trkpt lat="47.51533" lon="6.77348">
        <ele>380</ele>
        <time>2015-12-20T11:26:39.000Z</time>
      </trkpt>
      <trkpt lat="47.51535" lon="6.77351">
        <ele>380</ele>
        <time>2015-12-20T11:26:40.000Z</time>
      </trkpt>
      <trkpt lat="47.51537" lon="6.77354">
        <ele>380</ele>
        <time>2015-12-20T11:26:41.000Z</time>
      </trkpt>
      <trkpt lat="47.51539" lon="6.77356">
        <ele>380</ele>
        <time>2015-12-20T11:26:42.000Z</time>
      </trkpt>
      <trkpt lat="47.51541" lon="6.77359">
        <ele>380</ele>
        <time>2015-12-20T11:26:43.000Z</time>
      </trkpt>
      <trkpt lat="47.51543" lon="6.77362">
        <ele>380</ele>
        <time>2015-12-20T11:26:44.000Z</time>
      </trkpt>
      <trkpt lat="47.51546" lon="6.77365">
        <ele>380</ele>
        <time>2015-12-20T11:26:45.000Z</time>
      </trkpt>
      <trkpt lat="47.51549" lon="6.77367">
        <ele>381</ele>
        <time>2015-12-20T11:26:46.000Z</time>
      </trkpt>
      <trkpt lat="47.51551" lon="6.7737">
        <ele>381</ele>
        <time>2015-12-20T11:26:47.000Z</time>
      </trkpt>
      <trkpt lat="47.51554" lon="6.77372">
        <ele>381</ele>
        <time>2015-12-20T11:26:48.000Z</time>
      </trkpt>
      <trkpt lat="47.51556" lon="6.77375">
        <ele>381</ele>
        <time>2015-12-20T11:26:49.000Z</time>
      </trkpt>
      <trkpt lat="47.51559" lon="6.77377">
        <ele>381</ele>
        <time>2015-12-20T11:26:50.000Z</time>
      </trkpt>
      <trkpt lat="47.51561" lon="6.7738">
        <ele>381</ele>
        <time>2015-12-20T11:26:51.000Z</time>
      </trkpt>
      <trkpt lat="47.51564" lon="6.77383">
        <ele>381</ele>
        <time>2015-12-20T11:26:52.000Z</time>
      </trkpt>
      <trkpt lat="47.51566" lon="6.77387">
        <ele>381</ele>
        <time>2015-12-20T11:26:53.000Z</time>
      </trkpt>
      <trkpt lat="47.51569" lon="6.7739">
        <ele>381</ele>
        <time>2015-12-20T11:26:54.001Z</time>
      </trkpt>
      <trkpt lat="47.51571" lon="6.77393">
        <ele>381</ele>
        <time>2015-12-20T11:26:55.000Z</time>
      </trkpt>
      <trkpt lat="47.51573" lon="6.77396">
        <ele>382</ele>
        <time>2015-12-20T11:26:56.000Z</time>
      </trkpt>
      <trkpt lat="47.51575" lon="6.77399">
        <ele>382</ele>
        <time>2015-12-20T11:26:57.000Z</time>
      </trkpt>
      <trkpt lat="47.51578" lon="6.77401">
        <ele>382</ele>
        <time>2015-12-20T11:26:58.000Z</time>
      </trkpt>
      <trkpt lat="47.5158" lon="6.77404">
        <ele>382</ele>
        <time>2015-12-20T11:26:59.000Z</time>
      </trkpt>
      <trkpt lat="47.51583" lon="6.77406">
        <ele>382</ele>
        <time>2015-12-20T11:27:00.001Z</time>
      </trkpt>
      <trkpt lat="47.51585" lon="6.77409">
        <ele>383</ele>
        <time>2015-12-20T11:27:01.000Z</time>
      </trkpt>
      <trkpt lat="47.51587" lon="6.77412">
        <ele>383</ele>
        <time>2015-12-20T11:27:02.000Z</time>
      </trkpt>
      <trkpt lat="47.51589" lon="6.77414">
        <ele>383</ele>
        <time>2015-12-20T11:27:03.000Z</time>
      </trkpt>
      <trkpt lat="47.51592" lon="6.77417">
        <ele>384</ele>
        <time>2015-12-20T11:27:04.000Z</time>
      </trkpt>
      <trkpt lat="47.51594" lon="6.7742">
        <ele>384</ele>
        <time>2015-12-20T11:27:05.000Z</time>
      </trkpt>
      <trkpt lat="47.51596" lon="6.77423">
        <ele>384</ele>
        <time>2015-12-20T11:27:06.000Z</time>
      </trkpt>
      <trkpt lat="47.51599" lon="6.77426">
        <ele>384</ele>
        <time>2015-12-20T11:27:07.000Z</time>
      </trkpt>
      <trkpt lat="47.51601" lon="6.77429">
        <ele>385</ele>
        <time>2015-12-20T11:27:08.000Z</time>
      </trkpt>
      <trkpt lat="47.51604" lon="6.77432">
        <ele>385</ele>
        <time>2015-12-20T11:27:09.000Z</time>
      </trkpt>
      <trkpt lat="47.51606" lon="6.77434">
        <ele>385</ele>
        <time>2015-12-20T11:27:10.000Z</time>
      </trkpt>
      <trkpt lat="47.51609" lon="6.77437">
        <ele>385</ele>
        <time>2015-12-20T11:27:11.000Z</time>
      </trkpt>
      <trkpt lat="47.51611" lon="6.7744">
        <ele>385</ele>
        <time>2015-12-20T11:27:12.000Z</time>
      </trkpt>
      <trkpt lat="47.51613" lon="6.77443">
        <ele>385</ele>
        <time>2015-12-20T11:27:13.000Z</time>
      </trkpt>
      <trkpt lat="47.51615" lon="6.77447">
        <ele>385</ele>
        <time>2015-12-20T11:27:14.000Z</time>
      </trkpt>
      <trkpt lat="47.51617" lon="6.7745">
        <ele>385</ele>
        <time>2015-12-20T11:27:15.000Z</time>
      </trkpt>
      <trkpt lat="47.51619" lon="6.77454">
        <ele>386</ele>
        <time>2015-12-20T11:27:16.000Z</time>
      </trkpt>
      <trkpt lat="47.51621" lon="6.77457">
        <ele>386</ele>
        <time>2015-12-20T11:27:17.000Z</time>
      </trkpt>
      <trkpt lat="47.51624" lon="6.77461">
        <ele>386</ele>
        <time>2015-12-20T11:27:18.000Z</time>
      </trkpt>
      <trkpt lat="47.51626" lon="6.77464">
        <ele>386</ele>
        <time>2015-12-20T11:27:19.000Z</time>
      </trkpt>
      <trkpt lat="47.51629" lon="6.77467">
        <ele>386</ele>
        <time>2015-12-20T11:27:20.000Z</time>
      </trkpt>
      <trkpt lat="47.51631" lon="6.7747">
        <ele>386</ele>
        <time>2015-12-20T11:27:21.000Z</time>
      </trkpt>
      <trkpt lat="47.51634" lon="6.77472">
        <ele>386</ele>
        <time>2015-12-20T11:27:22.000Z</time>
      </trkpt>
      <trkpt lat="47.51636" lon="6.77475">
        <ele>386</ele>
        <time>2015-12-20T11:27:23.000Z</time>
      </trkpt>
      <trkpt lat="47.51638" lon="6.77478">
        <ele>386</ele>
        <time>2015-12-20T11:27:24.000Z</time>
      </trkpt>
      <trkpt lat="47.51641" lon="6.77481">
        <ele>387</ele>
        <time>2015-12-20T11:27:25.000Z</time>
      </trkpt>
      <trkpt lat="47.51643" lon="6.77484">
        <ele>387</ele>
        <time>2015-12-20T11:27:26.000Z</time>
      </trkpt>
      <trkpt lat="47.51645" lon="6.77487">
        <ele>387</ele>
        <time>2015-12-20T11:27:27.000Z</time>
      </trkpt>
      <trkpt lat="47.51647" lon="6.7749">
        <ele>387</ele>
        <time>2015-12-20T11:27:27.999Z</time>
      </trkpt>
      <trkpt lat="47.51649" lon="6.77492">
        <ele>387</ele>
        <time>2015-12-20T11:27:29.000Z</time>
      </trkpt>
      <trkpt lat="47.51651" lon="6.77495">
        <ele>387</ele>
        <time>2015-12-20T11:27:30.000Z</time>
      </trkpt>
      <trkpt lat="47.51653" lon="6.77498">
        <ele>388</ele>
        <time>2015-12-20T11:27:31.000Z</time>
      </trkpt>
      <trkpt lat="47.51655" lon="6.77501">
        <ele>388</ele>
        <time>2015-12-20T11:27:32.000Z</time>
      </trkpt>
      <trkpt lat="47.51657" lon="6.77504">
        <ele>388</ele>
        <time>2015-12-20T11:27:33.000Z</time>
      </trkpt>
      <trkpt lat="47.5166" lon="6.77507">
        <ele>388</ele>
        <time>2015-12-20T11:27:34.000Z</time>
      </trkpt>
      <trkpt lat="47.51662" lon="6.7751">
        <ele>388</ele>
        <time>2015-12-20T11:27:35.000Z</time>
      </trkpt>
      <trkpt lat="47.51665" lon="6.77513">
        <ele>388</ele>
        <time>2015-12-20T11:27:36.000Z</time>
      </trkpt>
      <trkpt lat="47.51668" lon="6.77517">
        <ele>389</ele>
        <time>2015-12-20T11:27:37.000Z</time>
      </trkpt>
      <trkpt lat="47.5167" lon="6.7752">
        <ele>389</ele>
        <time>2015-12-20T11:27:38.000Z</time>
      </trkpt>
      <trkpt lat="47.51673" lon="6.77523">
        <ele>390</ele>
        <time>2015-12-20T11:27:39.000Z</time>
      </trkpt>
      <trkpt lat="47.51675" lon="6.77526">
        <ele>390</ele>
        <time>2015-12-20T11:27:40.000Z</time>
      </trkpt>
      <trkpt lat="47.51677" lon="6.77528">
        <ele>390</ele>
        <time>2015-12-20T11:27:41.000Z</time>
      </trkpt>
      <trkpt lat="47.5168" lon="6.77531">
        <ele>390</ele>
        <time>2015-12-20T11:27:42.000Z</time>
      </trkpt>
      <trkpt lat="47.51682" lon="6.77534">
        <ele>390</ele>
        <time>2015-12-20T11:27:43.000Z</time>
      </trkpt>
      <trkpt lat="47.51684" lon="6.77537">
        <ele>390</ele>
        <time>2015-12-20T11:27:44.000Z</time>
      </trkpt>
      <trkpt lat="47.51687" lon="6.77539">
        <ele>390</ele>
        <time>2015-12-20T11:27:45.000Z</time>
      </trkpt>
      <trkpt lat="47.51689" lon="6.77542">
        <ele>390</ele>
        <time>2015-12-20T11:27:45.999Z</time>
      </trkpt>
      <trkpt lat="47.51691" lon="6.77545">
        <ele>390</ele>
        <time>2015-12-20T11:27:47.000Z</time>
      </trkpt>
      <trkpt lat="47.51693" lon="6.77548">
        <ele>390</ele>
        <time>2015-12-20T11:27:48.000Z</time>
      </trkpt>
      <trkpt lat="47.51695" lon="6.77551">
        <ele>390</ele>
        <time>2015-12-20T11:27:49.000Z</time>
      </trkpt>
      <trkpt lat="47.51698" lon="6.77554">
        <ele>390</ele>
        <time>2015-12-20T11:27:50.000Z</time>
      </trkpt>
      <trkpt lat="47.517" lon="6.77557">
        <ele>390</ele>
        <time>2015-12-20T11:27:51.000Z</time>
      </trkpt>
      <trkpt lat="47.51702" lon="6.77559">
        <ele>390</ele>
        <time>2015-12-20T11:27:52.000Z</time>
      </trkpt>
      <trkpt lat="47.51704" lon="6.7756">
        <ele>390</ele>
        <time>2015-12-20T11:27:53.000Z</time>
      </trkpt>
      <trkpt lat="47.51708" lon="6.77557">
        <ele>390</ele>
        <time>2015-12-20T11:27:55.000Z</time>
      </trkpt>
      <trkpt lat="47.5171" lon="6.77554">
        <ele>390</ele>
        <time>2015-12-20T11:27:56.000Z</time>
      </trkpt>
      <trkpt lat="47.51713" lon="6.77551">
        <ele>390</ele>
        <time>2015-12-20T11:27:57.000Z</time>
      </trkpt>
      <trkpt lat="47.51715" lon="6.7755">
        <ele>390</ele>
        <time>2015-12-20T11:27:57.999Z</time>
      </trkpt>
      <trkpt lat="47.51719" lon="6.77549">
        <ele>390</ele>
        <time>2015-12-20T11:27:59.000Z</time>
      </trkpt>
      <trkpt lat="47.51721" lon="6.77548">
        <ele>390</ele>
        <time>2015-12-20T11:28:00.000Z</time>
      </trkpt>
      <trkpt lat="47.51724" lon="6.77545">
        <ele>390</ele>
        <time>2015-12-20T11:28:01.000Z</time>
      </trkpt>
      <trkpt lat="47.51726" lon="6.77541">
        <ele>390</ele>
        <time>2015-12-20T11:28:02.000Z</time>
      </trkpt>
      <trkpt lat="47.51727" lon="6.77536">
        <ele>390</ele>
        <time>2015-12-20T11:28:03.000Z</time>
      </trkpt>
      <trkpt lat="47.51728" lon="6.77531">
        <ele>390</ele>
        <time>2015-12-20T11:28:04.000Z</time>
      </trkpt>
      <trkpt lat="47.51729" lon="6.77526">
        <ele>390</ele>
        <time>2015-12-20T11:28:05.000Z</time>
      </trkpt>
      <trkpt lat="47.5173" lon="6.7752">
        <ele>390</ele>
        <time>2015-12-20T11:28:06.000Z</time>
      </trkpt>
      <trkpt lat="47.51731" lon="6.77515">
        <ele>390</ele>
        <time>2015-12-20T11:28:07.000Z</time>
      </trkpt>
      <trkpt lat="47.51732" lon="6.77508">
        <ele>390</ele>
        <time>2015-12-20T11:28:08.000Z</time>
      </trkpt>
      <trkpt lat="47.51733" lon="6.77502">
        <ele>390</ele>
        <time>2015-12-20T11:28:09.000Z</time>
      </trkpt>
      <trkpt lat="47.51734" lon="6.77496">
        <ele>389</ele>
        <time>2015-12-20T11:28:10.000Z</time>
      </trkpt>
      <trkpt lat="47.51736" lon="6.77489">
        <ele>389</ele>
        <time>2015-12-20T11:28:11.000Z</time>
      </trkpt>
      <trkpt lat="47.51738" lon="6.77484">
        <ele>389</ele>
        <time>2015-12-20T11:28:12.000Z</time>
      </trkpt>
      <trkpt lat="47.51741" lon="6.7748">
        <ele>389</ele>
        <time>2015-12-20T11:28:13.000Z</time>
      </trkpt>
      <trkpt lat="47.51744" lon="6.77478">
        <ele>389</ele>
        <time>2015-12-20T11:28:14.000Z</time>
      </trkpt>
      <trkpt lat="47.51749" lon="6.77477">
        <ele>389</ele>
        <time>2015-12-20T11:28:15.000Z</time>
      </trkpt>
      <trkpt lat="47.51753" lon="6.77478">
        <ele>389</ele>
        <time>2015-12-20T11:28:16.000Z</time>
      </trkpt>
      <trkpt lat="47.51758" lon="6.7748">
        <ele>389</ele>
        <time>2015-12-20T11:28:17.000Z</time>
      </trkpt>
      <trkpt lat="47.51762" lon="6.77481">
        <ele>389</ele>
        <time>2015-12-20T11:28:18.000Z</time>
      </trkpt>
      <trkpt lat="47.51766" lon="6.77483">
        <ele>389</ele>
        <time>2015-12-20T11:28:19.000Z</time>
      </trkpt>
      <trkpt lat="47.51771" lon="6.77486">
        <ele>389</ele>
        <time>2015-12-20T11:28:20.000Z</time>
      </trkpt>
      <trkpt lat="47.51776" lon="6.77486">
        <ele>388</ele>
        <time>2015-12-20T11:28:20.999Z</time>
      </trkpt>
      <trkpt lat="47.51779" lon="6.77487">
        <ele>388</ele>
        <time>2015-12-20T11:28:22.000Z</time>
      </trkpt>
      <trkpt lat="47.51784" lon="6.77488">
        <ele>388</ele>
        <time>2015-12-20T11:28:23.000Z</time>
      </trkpt>
      <trkpt lat="47.51789" lon="6.7749">
        <ele>388</ele>
        <time>2015-12-20T11:28:24.000Z</time>
      </trkpt>
      <trkpt lat="47.51793" lon="6.77492">
        <ele>388</ele>
        <time>2015-12-20T11:28:25.000Z</time>
      </trkpt>
      <trkpt lat="47.51797" lon="6.77494">
        <ele>388</ele>
        <time>2015-12-20T11:28:26.000Z</time>
      </trkpt>
      <trkpt lat="47.51802" lon="6.77497">
        <ele>388</ele>
        <time>2015-12-20T11:28:27.000Z</time>
      </trkpt>
      <trkpt lat="47.51807" lon="6.77498">
        <ele>388</ele>
        <time>2015-12-20T11:28:28.000Z</time>
      </trkpt>
      <trkpt lat="47.51811" lon="6.77497">
        <ele>388</ele>
        <time>2015-12-20T11:28:29.000Z</time>
      </trkpt>
      <trkpt lat="47.51815" lon="6.77493">
        <ele>387</ele>
        <time>2015-12-20T11:28:30.000Z</time>
      </trkpt>
      <trkpt lat="47.51814" lon="6.7749">
        <ele>388</ele>
        <time>2015-12-20T11:28:31.000Z</time>
      </trkpt>
      <trkpt lat="47.51813" lon="6.77484">
        <ele>388</ele>
        <time>2015-12-20T11:28:34.000Z</time>
      </trkpt>
      <trkpt lat="47.51812" lon="6.77482">
        <ele>388</ele>
        <time>2015-12-20T11:28:35.000Z</time>
      </trkpt>
      <trkpt lat="47.51809" lon="6.7748">
        <ele>388</ele>
        <time>2015-12-20T11:28:37.000Z</time>
      </trkpt>
      <trkpt lat="47.51808" lon="6.7748">
        <ele>388</ele>
        <time>2015-12-20T11:28:38.000Z</time>
      </trkpt>
      <trkpt lat="47.51812" lon="6.77481">
        <ele>388</ele>
        <time>2015-12-20T11:28:44.000Z</time>
      </trkpt>
      <trkpt lat="47.51813" lon="6.77481">
        <ele>388</ele>
        <time>2015-12-20T11:28:45.000Z</time>
      </trkpt>
      <trkpt lat="47.51816" lon="6.77485">
        <ele>387</ele>
        <time>2015-12-20T11:28:47.000Z</time>
      </trkpt>
      <trkpt lat="47.51815" lon="6.77488">
        <ele>387</ele>
        <time>2015-12-20T11:28:48.000Z</time>
      </trkpt>
      <trkpt lat="47.51815" lon="6.77492">
        <ele>387</ele>
        <time>2015-12-20T11:28:49.000Z</time>
      </trkpt>
      <trkpt lat="47.51813" lon="6.77495">
        <ele>388</ele>
        <time>2015-12-20T11:28:50.000Z</time>
      </trkpt>
      <trkpt lat="47.5181" lon="6.77497">
        <ele>388</ele>
        <time>2015-12-20T11:28:51.000Z</time>
      </trkpt>
      <trkpt lat="47.51807" lon="6.77498">
        <ele>388</ele>
        <time>2015-12-20T11:28:52.000Z</time>
      </trkpt>
      <trkpt lat="47.51805" lon="6.77498">
        <ele>388</ele>
        <time>2015-12-20T11:28:53.000Z</time>
      </trkpt>
      <trkpt lat="47.51803" lon="6.77497">
        <ele>388</ele>
        <time>2015-12-20T11:28:54.000Z</time>
      </trkpt>
      <trkpt lat="47.51805" lon="6.77494">
        <ele>388</ele>
        <time>2015-12-20T11:28:58.000Z</time>
      </trkpt>
      <trkpt lat="47.51808" lon="6.77492">
        <ele>388</ele>
        <time>2015-12-20T11:28:59.000Z</time>
      </trkpt>
      <trkpt lat="47.51811" lon="6.77486">
        <ele>388</ele>
        <time>2015-12-20T11:29:00.000Z</time>
      </trkpt>
      <trkpt lat="47.51811" lon="6.77479">
        <ele>388</ele>
        <time>2015-12-20T11:29:01.000Z</time>
      </trkpt>
      <trkpt lat="47.51811" lon="6.77473">
        <ele>388</ele>
        <time>2015-12-20T11:29:02.000Z</time>
      </trkpt>
      <trkpt lat="47.51811" lon="6.77467">
        <ele>388</ele>
        <time>2015-12-20T11:29:03.000Z</time>
      </trkpt>
      <trkpt lat="47.51811" lon="6.77461">
        <ele>387</ele>
        <time>2015-12-20T11:29:04.001Z</time>
      </trkpt>
      <trkpt lat="47.5181" lon="6.7746">
        <ele>388</ele>
        <time>2015-12-20T11:29:05.000Z</time>
      </trkpt>
      <trkpt lat="47.5181" lon="6.77466">
        <ele>388</ele>
        <time>2015-12-20T11:29:25.000Z</time>
      </trkpt>
      <trkpt lat="47.5181" lon="6.77468">
        <ele>388</ele>
        <time>2015-12-20T11:29:26.000Z</time>
      </trkpt>
      <trkpt lat="47.5181" lon="6.77473">
        <ele>388</ele>
        <time>2015-12-20T11:29:29.000Z</time>
      </trkpt>
      <trkpt lat="47.51811" lon="6.77475">
        <ele>388</ele>
        <time>2015-12-20T11:29:30.000Z</time>
      </trkpt>
      <trkpt lat="47.51806" lon="6.77475">
        <ele>388</ele>
        <time>2015-12-20T11:29:43.000Z</time>
      </trkpt>
      <trkpt lat="47.51805" lon="6.77476">
        <ele>388</ele>
        <time>2015-12-20T11:29:44.000Z</time>
      </trkpt>
      <trkpt lat="47.51801" lon="6.77473">
        <ele>388</ele>
        <time>2015-12-20T11:32:50.000Z</time>
      </trkpt>
      <trkpt lat="47.51801" lon="6.77472">
        <ele>388</ele>
        <time>2015-12-20T11:32:51.000Z</time>
      </trkpt>
      <trkpt lat="47.51803" lon="6.77467">
        <ele>388</ele>
        <time>2015-12-20T11:35:21.000Z</time>
      </trkpt>
      <trkpt lat="47.51803" lon="6.77466">
        <ele>388</ele>
        <time>2015-12-20T11:35:22.000Z</time>
      </trkpt>
      <trkpt lat="47.51805" lon="6.7746">
        <ele>388</ele>
        <time>2015-12-20T11:37:22.000Z</time>
      </trkpt>
      <trkpt lat="47.51805" lon="6.7746">
        <ele>388</ele>
        <time>2015-12-20T11:37:23.000Z</time>
      </trkpt>
      <trkpt lat="47.51803" lon="6.77463">
        <ele>388</ele>
        <time>2015-12-20T11:41:07.000Z</time>
      </trkpt>
    </trkseg>
  </trk>
</gpx>